<?xml version="1.0" encoding="UTF-8"?>
<gpx version="1.1" creator="https://www.youtrack.es" xsi:schemaLocation="http://www.topografix.com/GPX/1/1 http://www.topografix.com/GPX/1/1/gpx.xsd http://www.garmin.com/xmlschemas/GpxExtensions/v3 http://www.garmin.com/xmlschemas/GpxExtensionsv3.xsd http://www.garmin.com/xmlschemas/TrackPointExtension/v1 http://www.garmin.com/xmlschemas/TrackPointExtensionv1.xsd" xmlns:gpxtpx="http://www.garmin.com/xmlschemas/TrackPointExtension/v1" xmlns:gpxx="http://www.garmin.com/xmlschemas/GpxExtensions/v3" xmlns:xsi="http://www.w3.org/2001/XMLSchema-instance">
  <metadata>
    <author>
      <name>Josep Salvatella Sureda</name>
      <email id="demur17" domain="hotmail.com"/>
    </author>
    <link href="https://www.youtrack.es">
      <text>YouTrack.es</text>
    </link>
    <time>2026-05-08T12:11:56Z</time>
  </metadata>
  <trk>
    <src>https://www.youtrack.es</src>
    <link href="https://www.youtrack.es/ruta/15002-catxondos-la-molina">
      <text>YouTrack.es</text>
    </link>
    <trkseg>
      <trkpt lat="42.338906" lon="1.933501">
        <ele>1638.7</ele>
        <time>1970-01-01T00:00:00.000Z</time>
      </trkpt>
      <trkpt lat="42.338954" lon="1.933488">
        <ele>1638.8</ele>
        <time>1970-01-01T00:00:01.000Z</time>
      </trkpt>
      <trkpt lat="42.339039" lon="1.933477">
        <ele>1638.9</ele>
        <time>1970-01-01T00:00:03.000Z</time>
      </trkpt>
      <trkpt lat="42.339117" lon="1.933472">
        <ele>1638.9</ele>
        <time>1970-01-01T00:00:05.000Z</time>
      </trkpt>
      <trkpt lat="42.339194" lon="1.933497">
        <ele>1638.8</ele>
        <time>1970-01-01T00:00:07.000Z</time>
      </trkpt>
      <trkpt lat="42.339362" lon="1.933606">
        <ele>1637.6</ele>
        <time>1970-01-01T00:00:09.000Z</time>
      </trkpt>
      <trkpt lat="42.339424" lon="1.933664">
        <ele>1636.9</ele>
        <time>1970-01-01T00:00:10.000Z</time>
      </trkpt>
      <trkpt lat="42.339482" lon="1.933735">
        <ele>1636.2</ele>
        <time>1970-01-01T00:00:11.000Z</time>
      </trkpt>
      <trkpt lat="42.339541" lon="1.933814">
        <ele>1635.3</ele>
        <time>1970-01-01T00:00:12.000Z</time>
      </trkpt>
      <trkpt lat="42.339597" lon="1.933901">
        <ele>1634.4</ele>
        <time>1970-01-01T00:00:13.000Z</time>
      </trkpt>
      <trkpt lat="42.339637" lon="1.934006">
        <ele>1633.3</ele>
        <time>1970-01-01T00:00:14.000Z</time>
      </trkpt>
      <trkpt lat="42.339676" lon="1.93411">
        <ele>1632.1</ele>
        <time>1970-01-01T00:00:15.000Z</time>
      </trkpt>
      <trkpt lat="42.339704" lon="1.934224">
        <ele>1630.9</ele>
        <time>1970-01-01T00:00:16.000Z</time>
      </trkpt>
      <trkpt lat="42.339721" lon="1.934345">
        <ele>1629.7</ele>
        <time>1970-01-01T00:00:17.000Z</time>
      </trkpt>
      <trkpt lat="42.339739" lon="1.934482">
        <ele>1628.3</ele>
        <time>1970-01-01T00:00:18.000Z</time>
      </trkpt>
      <trkpt lat="42.339753" lon="1.934632">
        <ele>1627.8</ele>
        <time>1970-01-01T00:00:19.000Z</time>
      </trkpt>
      <trkpt lat="42.339776" lon="1.934788">
        <ele>1627.7</ele>
        <time>1970-01-01T00:00:20.000Z</time>
      </trkpt>
      <trkpt lat="42.339798" lon="1.934951">
        <ele>1627.7</ele>
        <time>1970-01-01T00:00:21.000Z</time>
      </trkpt>
      <trkpt lat="42.339823" lon="1.935118">
        <ele>1627.5</ele>
        <time>1970-01-01T00:00:22.000Z</time>
      </trkpt>
      <trkpt lat="42.339848" lon="1.935283">
        <ele>1627</ele>
        <time>1970-01-01T00:00:23.000Z</time>
      </trkpt>
      <trkpt lat="42.339879" lon="1.935434">
        <ele>1626.5</ele>
        <time>1970-01-01T00:00:24.000Z</time>
      </trkpt>
      <trkpt lat="42.339899" lon="1.935568">
        <ele>1626</ele>
        <time>1970-01-01T00:00:25.000Z</time>
      </trkpt>
      <trkpt lat="42.339905" lon="1.93568">
        <ele>1625.6</ele>
        <time>1970-01-01T00:00:26.000Z</time>
      </trkpt>
      <trkpt lat="42.339886" lon="1.935777">
        <ele>1625.3</ele>
        <time>1970-01-01T00:00:27.000Z</time>
      </trkpt>
      <trkpt lat="42.339835" lon="1.935843">
        <ele>1625</ele>
        <time>1970-01-01T00:00:28.000Z</time>
      </trkpt>
      <trkpt lat="42.33978" lon="1.935901">
        <ele>1624.7</ele>
        <time>1970-01-01T00:00:29.000Z</time>
      </trkpt>
      <trkpt lat="42.339721" lon="1.935945">
        <ele>1624.5</ele>
        <time>1970-01-01T00:00:30.000Z</time>
      </trkpt>
      <trkpt lat="42.339671" lon="1.936">
        <ele>1624.3</ele>
        <time>1970-01-01T00:00:31.000Z</time>
      </trkpt>
      <trkpt lat="42.33964" lon="1.936057">
        <ele>1624.1</ele>
        <time>1970-01-01T00:00:32.000Z</time>
      </trkpt>
      <trkpt lat="42.339626" lon="1.936122">
        <ele>1624</ele>
        <time>1970-01-01T00:00:33.000Z</time>
      </trkpt>
      <trkpt lat="42.339624" lon="1.936211">
        <ele>1623.7</ele>
        <time>1970-01-01T00:00:34.000Z</time>
      </trkpt>
      <trkpt lat="42.339627" lon="1.936306">
        <ele>1623.5</ele>
        <time>1970-01-01T00:00:35.000Z</time>
      </trkpt>
      <trkpt lat="42.33965" lon="1.936392">
        <ele>1623.3</ele>
        <time>1970-01-01T00:00:36.000Z</time>
      </trkpt>
      <trkpt lat="42.339682" lon="1.936474">
        <ele>1623</ele>
        <time>1970-01-01T00:00:37.000Z</time>
      </trkpt>
      <trkpt lat="42.33971" lon="1.936559">
        <ele>1622.8</ele>
        <time>1970-01-01T00:00:38.000Z</time>
      </trkpt>
      <trkpt lat="42.33974" lon="1.936639">
        <ele>1622.5</ele>
        <time>1970-01-01T00:00:39.000Z</time>
      </trkpt>
      <trkpt lat="42.339772" lon="1.936719">
        <ele>1622.2</ele>
        <time>1970-01-01T00:00:40.000Z</time>
      </trkpt>
      <trkpt lat="42.339799" lon="1.936804">
        <ele>1621.9</ele>
        <time>1970-01-01T00:00:41.000Z</time>
      </trkpt>
      <trkpt lat="42.339818" lon="1.93689">
        <ele>1621.7</ele>
        <time>1970-01-01T00:00:42.000Z</time>
      </trkpt>
      <trkpt lat="42.339826" lon="1.936981">
        <ele>1621.5</ele>
        <time>1970-01-01T00:00:43.000Z</time>
      </trkpt>
      <trkpt lat="42.339833" lon="1.937077">
        <ele>1621.3</ele>
        <time>1970-01-01T00:00:44.000Z</time>
      </trkpt>
      <trkpt lat="42.339832" lon="1.937168">
        <ele>1621</ele>
        <time>1970-01-01T00:00:45.000Z</time>
      </trkpt>
      <trkpt lat="42.339823" lon="1.937258">
        <ele>1620.8</ele>
        <time>1970-01-01T00:00:46.000Z</time>
      </trkpt>
      <trkpt lat="42.339806" lon="1.937348">
        <ele>1620.5</ele>
        <time>1970-01-01T00:00:47.000Z</time>
      </trkpt>
      <trkpt lat="42.33978" lon="1.937434">
        <ele>1620.3</ele>
        <time>1970-01-01T00:00:48.000Z</time>
      </trkpt>
      <trkpt lat="42.339754" lon="1.937518">
        <ele>1620</ele>
        <time>1970-01-01T00:00:49.000Z</time>
      </trkpt>
      <trkpt lat="42.339721" lon="1.937595">
        <ele>1619.7</ele>
        <time>1970-01-01T00:00:50.000Z</time>
      </trkpt>
      <trkpt lat="42.33969" lon="1.937675">
        <ele>1619.4</ele>
        <time>1970-01-01T00:00:51.000Z</time>
      </trkpt>
      <trkpt lat="42.339663" lon="1.937758">
        <ele>1619.2</ele>
        <time>1970-01-01T00:00:52.000Z</time>
      </trkpt>
      <trkpt lat="42.339645" lon="1.937843">
        <ele>1619</ele>
        <time>1970-01-01T00:00:53.000Z</time>
      </trkpt>
      <trkpt lat="42.339633" lon="1.937929">
        <ele>1618.9</ele>
        <time>1970-01-01T00:00:54.000Z</time>
      </trkpt>
      <trkpt lat="42.33963" lon="1.938018">
        <ele>1618.8</ele>
        <time>1970-01-01T00:00:55.000Z</time>
      </trkpt>
      <trkpt lat="42.33963" lon="1.938104">
        <ele>1618.7</ele>
        <time>1970-01-01T00:00:56.000Z</time>
      </trkpt>
      <trkpt lat="42.339621" lon="1.938186">
        <ele>1618.6</ele>
        <time>1970-01-01T00:00:57.000Z</time>
      </trkpt>
      <trkpt lat="42.339616" lon="1.938263">
        <ele>1618.5</ele>
        <time>1970-01-01T00:00:58.000Z</time>
      </trkpt>
      <trkpt lat="42.339596" lon="1.938322">
        <ele>1618.5</ele>
        <time>1970-01-01T00:01:00.000Z</time>
      </trkpt>
      <trkpt lat="42.339624" lon="1.938241">
        <ele>1618.4</ele>
        <time>1970-01-01T00:01:07.000Z</time>
      </trkpt>
      <trkpt lat="42.339637" lon="1.938156">
        <ele>1618.5</ele>
        <time>1970-01-01T00:01:09.000Z</time>
      </trkpt>
      <trkpt lat="42.339649" lon="1.937952">
        <ele>1618.7</ele>
        <time>1970-01-01T00:01:11.000Z</time>
      </trkpt>
      <trkpt lat="42.339646" lon="1.937891">
        <ele>1618.8</ele>
        <time>1970-01-01T00:01:12.000Z</time>
      </trkpt>
      <trkpt lat="42.339651" lon="1.93778">
        <ele>1618.9</ele>
        <time>1970-01-01T00:01:14.000Z</time>
      </trkpt>
      <trkpt lat="42.339667" lon="1.937692">
        <ele>1619.1</ele>
        <time>1970-01-01T00:01:17.000Z</time>
      </trkpt>
      <trkpt lat="42.339696" lon="1.937604">
        <ele>1619.2</ele>
        <time>1970-01-01T00:01:22.000Z</time>
      </trkpt>
      <trkpt lat="42.339742" lon="1.937656">
        <ele>1618.6</ele>
        <time>1970-01-01T00:01:27.000Z</time>
      </trkpt>
      <trkpt lat="42.339769" lon="1.937709">
        <ele>1618.1</ele>
        <time>1970-01-01T00:01:29.000Z</time>
      </trkpt>
      <trkpt lat="42.339872" lon="1.93779">
        <ele>1616.7</ele>
        <time>1970-01-01T00:01:31.000Z</time>
      </trkpt>
      <trkpt lat="42.339917" lon="1.937808">
        <ele>1616.2</ele>
        <time>1970-01-01T00:01:32.000Z</time>
      </trkpt>
      <trkpt lat="42.339965" lon="1.937833">
        <ele>1615.6</ele>
        <time>1970-01-01T00:01:33.000Z</time>
      </trkpt>
      <trkpt lat="42.340012" lon="1.93786">
        <ele>1615</ele>
        <time>1970-01-01T00:01:34.000Z</time>
      </trkpt>
      <trkpt lat="42.340059" lon="1.937891">
        <ele>1614.4</ele>
        <time>1970-01-01T00:01:35.000Z</time>
      </trkpt>
      <trkpt lat="42.340112" lon="1.937921">
        <ele>1613.6</ele>
        <time>1970-01-01T00:01:36.000Z</time>
      </trkpt>
      <trkpt lat="42.340159" lon="1.937946">
        <ele>1613</ele>
        <time>1970-01-01T00:01:37.000Z</time>
      </trkpt>
      <trkpt lat="42.340204" lon="1.937972">
        <ele>1612.4</ele>
        <time>1970-01-01T00:01:38.000Z</time>
      </trkpt>
      <trkpt lat="42.340253" lon="1.938002">
        <ele>1611.7</ele>
        <time>1970-01-01T00:01:39.000Z</time>
      </trkpt>
      <trkpt lat="42.340294" lon="1.938033">
        <ele>1611</ele>
        <time>1970-01-01T00:01:40.000Z</time>
      </trkpt>
      <trkpt lat="42.340359" lon="1.93809">
        <ele>1609.8</ele>
        <time>1970-01-01T00:01:42.000Z</time>
      </trkpt>
      <trkpt lat="42.340423" lon="1.938162">
        <ele>1608.4</ele>
        <time>1970-01-01T00:01:44.000Z</time>
      </trkpt>
      <trkpt lat="42.340472" lon="1.93822">
        <ele>1607.2</ele>
        <time>1970-01-01T00:01:46.000Z</time>
      </trkpt>
      <trkpt lat="42.340534" lon="1.938324">
        <ele>1605.3</ele>
        <time>1970-01-01T00:01:48.000Z</time>
      </trkpt>
      <trkpt lat="42.340576" lon="1.938366">
        <ele>1604.2</ele>
        <time>1970-01-01T00:01:49.000Z</time>
      </trkpt>
      <trkpt lat="42.340645" lon="1.938428">
        <ele>1603.1</ele>
        <time>1970-01-01T00:01:51.000Z</time>
      </trkpt>
      <trkpt lat="42.340672" lon="1.938477">
        <ele>1602.5</ele>
        <time>1970-01-01T00:01:52.000Z</time>
      </trkpt>
      <trkpt lat="42.340705" lon="1.938535">
        <ele>1601.8</ele>
        <time>1970-01-01T00:01:55.000Z</time>
      </trkpt>
      <trkpt lat="42.340752" lon="1.938559">
        <ele>1600.9</ele>
        <time>1970-01-01T00:01:59.000Z</time>
      </trkpt>
      <trkpt lat="42.340812" lon="1.938539">
        <ele>1599.9</ele>
        <time>1970-01-01T00:02:01.000Z</time>
      </trkpt>
      <trkpt lat="42.340879" lon="1.938533">
        <ele>1598.9</ele>
        <time>1970-01-01T00:02:03.000Z</time>
      </trkpt>
      <trkpt lat="42.340956" lon="1.938542">
        <ele>1597.7</ele>
        <time>1970-01-01T00:02:05.000Z</time>
      </trkpt>
      <trkpt lat="42.341026" lon="1.938551">
        <ele>1596.7</ele>
        <time>1970-01-01T00:02:07.000Z</time>
      </trkpt>
      <trkpt lat="42.34108" lon="1.938544">
        <ele>1595.4</ele>
        <time>1970-01-01T00:02:09.000Z</time>
      </trkpt>
      <trkpt lat="42.341144" lon="1.938511">
        <ele>1594.3</ele>
        <time>1970-01-01T00:02:11.000Z</time>
      </trkpt>
      <trkpt lat="42.341204" lon="1.93845">
        <ele>1593.2</ele>
        <time>1970-01-01T00:02:13.000Z</time>
      </trkpt>
      <trkpt lat="42.341264" lon="1.938374">
        <ele>1592</ele>
        <time>1970-01-01T00:02:15.000Z</time>
      </trkpt>
      <trkpt lat="42.341357" lon="1.938265">
        <ele>1590.3</ele>
        <time>1970-01-01T00:02:16.000Z</time>
      </trkpt>
      <trkpt lat="42.341392" lon="1.938217">
        <ele>1589.7</ele>
        <time>1970-01-01T00:02:18.000Z</time>
      </trkpt>
      <trkpt lat="42.341445" lon="1.938158">
        <ele>1588.7</ele>
        <time>1970-01-01T00:02:19.000Z</time>
      </trkpt>
      <trkpt lat="42.341497" lon="1.938138">
        <ele>1587.9</ele>
        <time>1970-01-01T00:02:20.000Z</time>
      </trkpt>
      <trkpt lat="42.341547" lon="1.938114">
        <ele>1587.1</ele>
        <time>1970-01-01T00:02:21.000Z</time>
      </trkpt>
      <trkpt lat="42.341619" lon="1.938031">
        <ele>1585.8</ele>
        <time>1970-01-01T00:02:23.000Z</time>
      </trkpt>
      <trkpt lat="42.341665" lon="1.937954">
        <ele>1584.8</ele>
        <time>1970-01-01T00:02:24.000Z</time>
      </trkpt>
      <trkpt lat="42.341697" lon="1.937907">
        <ele>1584.2</ele>
        <time>1970-01-01T00:02:25.000Z</time>
      </trkpt>
      <trkpt lat="42.341718" lon="1.937845">
        <ele>1583.5</ele>
        <time>1970-01-01T00:02:26.000Z</time>
      </trkpt>
      <trkpt lat="42.341744" lon="1.93778">
        <ele>1582.8</ele>
        <time>1970-01-01T00:02:29.000Z</time>
      </trkpt>
      <trkpt lat="42.341776" lon="1.937709">
        <ele>1582</ele>
        <time>1970-01-01T00:02:31.000Z</time>
      </trkpt>
      <trkpt lat="42.341823" lon="1.937612">
        <ele>1580.9</ele>
        <time>1970-01-01T00:02:33.000Z</time>
      </trkpt>
      <trkpt lat="42.341843" lon="1.937552">
        <ele>1580.2</ele>
        <time>1970-01-01T00:02:34.000Z</time>
      </trkpt>
      <trkpt lat="42.34187" lon="1.937446">
        <ele>1578.9</ele>
        <time>1970-01-01T00:02:36.000Z</time>
      </trkpt>
      <trkpt lat="42.341873" lon="1.937383">
        <ele>1578.2</ele>
        <time>1970-01-01T00:02:37.000Z</time>
      </trkpt>
      <trkpt lat="42.34187" lon="1.937318">
        <ele>1577.4</ele>
        <time>1970-01-01T00:02:38.000Z</time>
      </trkpt>
      <trkpt lat="42.341864" lon="1.937214">
        <ele>1576</ele>
        <time>1970-01-01T00:02:40.000Z</time>
      </trkpt>
      <trkpt lat="42.341847" lon="1.93713">
        <ele>1574.9</ele>
        <time>1970-01-01T00:02:42.000Z</time>
      </trkpt>
      <trkpt lat="42.341827" lon="1.937055">
        <ele>1573.7</ele>
        <time>1970-01-01T00:02:44.000Z</time>
      </trkpt>
      <trkpt lat="42.341809" lon="1.936986">
        <ele>1572.6</ele>
        <time>1970-01-01T00:02:46.000Z</time>
      </trkpt>
      <trkpt lat="42.341791" lon="1.936927">
        <ele>1571.6</ele>
        <time>1970-01-01T00:02:48.000Z</time>
      </trkpt>
      <trkpt lat="42.341772" lon="1.93687">
        <ele>1570.5</ele>
        <time>1970-01-01T00:02:50.000Z</time>
      </trkpt>
      <trkpt lat="42.341742" lon="1.936783">
        <ele>1568.9</ele>
        <time>1970-01-01T00:02:52.000Z</time>
      </trkpt>
      <trkpt lat="42.341708" lon="1.936703">
        <ele>1567.3</ele>
        <time>1970-01-01T00:02:54.000Z</time>
      </trkpt>
      <trkpt lat="42.341677" lon="1.936613">
        <ele>1565.7</ele>
        <time>1970-01-01T00:02:56.000Z</time>
      </trkpt>
      <trkpt lat="42.341655" lon="1.936548">
        <ele>1564.5</ele>
        <time>1970-01-01T00:02:58.000Z</time>
      </trkpt>
      <trkpt lat="42.341632" lon="1.936471">
        <ele>1563.2</ele>
        <time>1970-01-01T00:03:01.000Z</time>
      </trkpt>
      <trkpt lat="42.34162" lon="1.936403">
        <ele>1562.1</ele>
        <time>1970-01-01T00:03:03.000Z</time>
      </trkpt>
      <trkpt lat="42.341616" lon="1.936329">
        <ele>1560.9</ele>
        <time>1970-01-01T00:03:06.000Z</time>
      </trkpt>
      <trkpt lat="42.341611" lon="1.936258">
        <ele>1559.9</ele>
        <time>1970-01-01T00:03:09.000Z</time>
      </trkpt>
      <trkpt lat="42.341625" lon="1.936157">
        <ele>1558.3</ele>
        <time>1970-01-01T00:03:15.000Z</time>
      </trkpt>
      <trkpt lat="42.341657" lon="1.936066">
        <ele>1556.8</ele>
        <time>1970-01-01T00:03:18.000Z</time>
      </trkpt>
      <trkpt lat="42.341601" lon="1.9359">
        <ele>1554</ele>
        <time>1970-01-01T00:03:19.000Z</time>
      </trkpt>
      <trkpt lat="42.341544" lon="1.935735">
        <ele>1551.2</ele>
        <time>1970-01-01T00:03:20.000Z</time>
      </trkpt>
      <trkpt lat="42.341507" lon="1.935585">
        <ele>1548.8</ele>
        <time>1970-01-01T00:03:21.000Z</time>
      </trkpt>
      <trkpt lat="42.341487" lon="1.935454">
        <ele>1546.9</ele>
        <time>1970-01-01T00:03:22.000Z</time>
      </trkpt>
      <trkpt lat="42.341482" lon="1.935344">
        <ele>1545.3</ele>
        <time>1970-01-01T00:03:23.000Z</time>
      </trkpt>
      <trkpt lat="42.341489" lon="1.935248">
        <ele>1544</ele>
        <time>1970-01-01T00:03:24.000Z</time>
      </trkpt>
      <trkpt lat="42.341498" lon="1.935172">
        <ele>1542.9</ele>
        <time>1970-01-01T00:03:25.000Z</time>
      </trkpt>
      <trkpt lat="42.341512" lon="1.935109">
        <ele>1542</ele>
        <time>1970-01-01T00:03:26.000Z</time>
      </trkpt>
      <trkpt lat="42.341554" lon="1.935013">
        <ele>1540.3</ele>
        <time>1970-01-01T00:03:28.000Z</time>
      </trkpt>
      <trkpt lat="42.341613" lon="1.934952">
        <ele>1538.8</ele>
        <time>1970-01-01T00:03:30.000Z</time>
      </trkpt>
      <trkpt lat="42.341738" lon="1.934884">
        <ele>1536.2</ele>
        <time>1970-01-01T00:03:31.000Z</time>
      </trkpt>
      <trkpt lat="42.341807" lon="1.93484">
        <ele>1534.8</ele>
        <time>1970-01-01T00:03:32.000Z</time>
      </trkpt>
      <trkpt lat="42.341865" lon="1.934801">
        <ele>1533.6</ele>
        <time>1970-01-01T00:03:34.000Z</time>
      </trkpt>
      <trkpt lat="42.342014" lon="1.934736">
        <ele>1530.6</ele>
        <time>1970-01-01T00:03:43.000Z</time>
      </trkpt>
      <trkpt lat="42.342066" lon="1.934782">
        <ele>1530.1</ele>
        <time>1970-01-01T00:03:46.000Z</time>
      </trkpt>
      <trkpt lat="42.342089" lon="1.934856">
        <ele>1529.5</ele>
        <time>1970-01-01T00:03:48.000Z</time>
      </trkpt>
      <trkpt lat="42.342166" lon="1.935042">
        <ele>1527.8</ele>
        <time>1970-01-01T00:03:50.000Z</time>
      </trkpt>
      <trkpt lat="42.342195" lon="1.935092">
        <ele>1527.3</ele>
        <time>1970-01-01T00:03:52.000Z</time>
      </trkpt>
      <trkpt lat="42.342238" lon="1.935165">
        <ele>1526.5</ele>
        <time>1970-01-01T00:03:55.000Z</time>
      </trkpt>
      <trkpt lat="42.342269" lon="1.935225">
        <ele>1525.8</ele>
        <time>1970-01-01T00:03:57.000Z</time>
      </trkpt>
      <trkpt lat="42.342304" lon="1.935298">
        <ele>1525</ele>
        <time>1970-01-01T00:03:59.000Z</time>
      </trkpt>
      <trkpt lat="42.342369" lon="1.935432">
        <ele>1523.5</ele>
        <time>1970-01-01T00:04:00.000Z</time>
      </trkpt>
      <trkpt lat="42.342399" lon="1.93552">
        <ele>1522.6</ele>
        <time>1970-01-01T00:04:01.000Z</time>
      </trkpt>
      <trkpt lat="42.342433" lon="1.935615">
        <ele>1521.6</ele>
        <time>1970-01-01T00:04:02.000Z</time>
      </trkpt>
      <trkpt lat="42.342466" lon="1.935717">
        <ele>1520.7</ele>
        <time>1970-01-01T00:04:03.000Z</time>
      </trkpt>
      <trkpt lat="42.342508" lon="1.935798">
        <ele>1520</ele>
        <time>1970-01-01T00:04:04.000Z</time>
      </trkpt>
      <trkpt lat="42.342551" lon="1.935847">
        <ele>1519.5</ele>
        <time>1970-01-01T00:04:05.000Z</time>
      </trkpt>
      <trkpt lat="42.3426" lon="1.935881">
        <ele>1519</ele>
        <time>1970-01-01T00:04:06.000Z</time>
      </trkpt>
      <trkpt lat="42.342658" lon="1.93591">
        <ele>1518.3</ele>
        <time>1970-01-01T00:04:07.000Z</time>
      </trkpt>
      <trkpt lat="42.342707" lon="1.935938">
        <ele>1517.7</ele>
        <time>1970-01-01T00:04:08.000Z</time>
      </trkpt>
      <trkpt lat="42.342764" lon="1.935977">
        <ele>1517</ele>
        <time>1970-01-01T00:04:24.000Z</time>
      </trkpt>
      <trkpt lat="42.342805" lon="1.936011">
        <ele>1516.4</ele>
        <time>1970-01-01T00:04:26.000Z</time>
      </trkpt>
      <trkpt lat="42.342848" lon="1.936062">
        <ele>1515.8</ele>
        <time>1970-01-01T00:04:28.000Z</time>
      </trkpt>
      <trkpt lat="42.342891" lon="1.93612">
        <ele>1515.2</ele>
        <time>1970-01-01T00:04:30.000Z</time>
      </trkpt>
      <trkpt lat="42.342932" lon="1.936177">
        <ele>1514.8</ele>
        <time>1970-01-01T00:04:32.000Z</time>
      </trkpt>
      <trkpt lat="42.342973" lon="1.936231">
        <ele>1514.5</ele>
        <time>1970-01-01T00:04:34.000Z</time>
      </trkpt>
      <trkpt lat="42.343073" lon="1.936304">
        <ele>1514.2</ele>
        <time>1970-01-01T00:04:40.000Z</time>
      </trkpt>
      <trkpt lat="42.343244" lon="1.936344">
        <ele>1509.5</ele>
        <time>1970-01-01T00:04:51.000Z</time>
      </trkpt>
      <trkpt lat="42.343292" lon="1.93633">
        <ele>1508.6</ele>
        <time>1970-01-01T00:04:53.000Z</time>
      </trkpt>
      <trkpt lat="42.343337" lon="1.936303">
        <ele>1507.7</ele>
        <time>1970-01-01T00:04:55.000Z</time>
      </trkpt>
      <trkpt lat="42.343389" lon="1.93626">
        <ele>1506.7</ele>
        <time>1970-01-01T00:04:58.000Z</time>
      </trkpt>
      <trkpt lat="42.343451" lon="1.936212">
        <ele>1505.5</ele>
        <time>1970-01-01T00:05:01.000Z</time>
      </trkpt>
      <trkpt lat="42.343516" lon="1.936166">
        <ele>1504.4</ele>
        <time>1970-01-01T00:05:05.000Z</time>
      </trkpt>
      <trkpt lat="42.343566" lon="1.93613">
        <ele>1503.6</ele>
        <time>1970-01-01T00:05:07.000Z</time>
      </trkpt>
      <trkpt lat="42.343615" lon="1.936084">
        <ele>1502.7</ele>
        <time>1970-01-01T00:05:09.000Z</time>
      </trkpt>
      <trkpt lat="42.343659" lon="1.936039">
        <ele>1501.8</ele>
        <time>1970-01-01T00:05:11.000Z</time>
      </trkpt>
      <trkpt lat="42.343717" lon="1.935997">
        <ele>1500.7</ele>
        <time>1970-01-01T00:05:14.000Z</time>
      </trkpt>
      <trkpt lat="42.343762" lon="1.935978">
        <ele>1500</ele>
        <time>1970-01-01T00:05:16.000Z</time>
      </trkpt>
      <trkpt lat="42.343805" lon="1.935959">
        <ele>1499.3</ele>
        <time>1970-01-01T00:05:18.000Z</time>
      </trkpt>
      <trkpt lat="42.34385" lon="1.93594">
        <ele>1498.6</ele>
        <time>1970-01-01T00:05:20.000Z</time>
      </trkpt>
      <trkpt lat="42.3439" lon="1.935929">
        <ele>1497.9</ele>
        <time>1970-01-01T00:05:22.000Z</time>
      </trkpt>
      <trkpt lat="42.343946" lon="1.935929">
        <ele>1497.3</ele>
        <time>1970-01-01T00:05:24.000Z</time>
      </trkpt>
      <trkpt lat="42.34399" lon="1.935945">
        <ele>1496.7</ele>
        <time>1970-01-01T00:05:26.000Z</time>
      </trkpt>
      <trkpt lat="42.344033" lon="1.935977">
        <ele>1496.1</ele>
        <time>1970-01-01T00:05:28.000Z</time>
      </trkpt>
      <trkpt lat="42.344142" lon="1.936032">
        <ele>1495.1</ele>
        <time>1970-01-01T00:05:29.000Z</time>
      </trkpt>
      <trkpt lat="42.344195" lon="1.936049">
        <ele>1494.8</ele>
        <time>1970-01-01T00:05:30.000Z</time>
      </trkpt>
      <trkpt lat="42.344269" lon="1.93607">
        <ele>1494.4</ele>
        <time>1970-01-01T00:05:32.000Z</time>
      </trkpt>
      <trkpt lat="42.344338" lon="1.936104">
        <ele>1494.2</ele>
        <time>1970-01-01T00:05:34.000Z</time>
      </trkpt>
      <trkpt lat="42.344397" lon="1.936137">
        <ele>1494</ele>
        <time>1970-01-01T00:05:36.000Z</time>
      </trkpt>
      <trkpt lat="42.344458" lon="1.936163">
        <ele>1493.8</ele>
        <time>1970-01-01T00:05:38.000Z</time>
      </trkpt>
      <trkpt lat="42.344513" lon="1.936185">
        <ele>1493.6</ele>
        <time>1970-01-01T00:05:40.000Z</time>
      </trkpt>
      <trkpt lat="42.344564" lon="1.936218">
        <ele>1493.4</ele>
        <time>1970-01-01T00:05:42.000Z</time>
      </trkpt>
      <trkpt lat="42.344637" lon="1.936253">
        <ele>1493.1</ele>
        <time>1970-01-01T00:05:44.000Z</time>
      </trkpt>
      <trkpt lat="42.344721" lon="1.936299">
        <ele>1492.9</ele>
        <time>1970-01-01T00:05:46.000Z</time>
      </trkpt>
      <trkpt lat="42.3448" lon="1.936345">
        <ele>1492.8</ele>
        <time>1970-01-01T00:05:48.000Z</time>
      </trkpt>
      <trkpt lat="42.344872" lon="1.936381">
        <ele>1492.7</ele>
        <time>1970-01-01T00:05:50.000Z</time>
      </trkpt>
      <trkpt lat="42.344941" lon="1.93641">
        <ele>1492.6</ele>
        <time>1970-01-01T00:05:52.000Z</time>
      </trkpt>
      <trkpt lat="42.345007" lon="1.93643">
        <ele>1492.5</ele>
        <time>1970-01-01T00:05:54.000Z</time>
      </trkpt>
      <trkpt lat="42.345104" lon="1.936451">
        <ele>1492.2</ele>
        <time>1970-01-01T00:05:59.000Z</time>
      </trkpt>
      <trkpt lat="42.345047" lon="1.936404">
        <ele>1492.4</ele>
        <time>1970-01-01T00:06:12.000Z</time>
      </trkpt>
      <trkpt lat="42.344978" lon="1.936355">
        <ele>1492.5</ele>
        <time>1970-01-01T00:06:14.000Z</time>
      </trkpt>
      <trkpt lat="42.344907" lon="1.936299">
        <ele>1492.7</ele>
        <time>1970-01-01T00:06:16.000Z</time>
      </trkpt>
      <trkpt lat="42.34483" lon="1.936232">
        <ele>1492.8</ele>
        <time>1970-01-01T00:06:18.000Z</time>
      </trkpt>
      <trkpt lat="42.344787" lon="1.9362">
        <ele>1492.8</ele>
        <time>1970-01-01T00:06:19.000Z</time>
      </trkpt>
      <trkpt lat="42.344719" lon="1.936146">
        <ele>1493</ele>
        <time>1970-01-01T00:06:21.000Z</time>
      </trkpt>
      <trkpt lat="42.344665" lon="1.936108">
        <ele>1493.1</ele>
        <time>1970-01-01T00:06:23.000Z</time>
      </trkpt>
      <trkpt lat="42.344612" lon="1.936077">
        <ele>1493.2</ele>
        <time>1970-01-01T00:06:25.000Z</time>
      </trkpt>
      <trkpt lat="42.344568" lon="1.936062">
        <ele>1493.4</ele>
        <time>1970-01-01T00:06:27.000Z</time>
      </trkpt>
      <trkpt lat="42.344521" lon="1.936051">
        <ele>1493.6</ele>
        <time>1970-01-01T00:06:32.000Z</time>
      </trkpt>
      <trkpt lat="42.344464" lon="1.936031">
        <ele>1493.8</ele>
        <time>1970-01-01T00:06:46.000Z</time>
      </trkpt>
      <trkpt lat="42.3444" lon="1.936007">
        <ele>1494</ele>
        <time>1970-01-01T00:06:49.000Z</time>
      </trkpt>
      <trkpt lat="42.344337" lon="1.935989">
        <ele>1494.2</ele>
        <time>1970-01-01T00:06:52.000Z</time>
      </trkpt>
      <trkpt lat="42.344287" lon="1.935976">
        <ele>1494.3</ele>
        <time>1970-01-01T00:06:55.000Z</time>
      </trkpt>
      <trkpt lat="42.344243" lon="1.935956">
        <ele>1494.5</ele>
        <time>1970-01-01T00:06:58.000Z</time>
      </trkpt>
      <trkpt lat="42.344194" lon="1.93592">
        <ele>1494.7</ele>
        <time>1970-01-01T00:07:01.000Z</time>
      </trkpt>
      <trkpt lat="42.344149" lon="1.935887">
        <ele>1495</ele>
        <time>1970-01-01T00:07:04.000Z</time>
      </trkpt>
      <trkpt lat="42.344108" lon="1.935858">
        <ele>1495.3</ele>
        <time>1970-01-01T00:07:08.000Z</time>
      </trkpt>
      <trkpt lat="42.344064" lon="1.935831">
        <ele>1496.1</ele>
        <time>1970-01-01T00:07:18.000Z</time>
      </trkpt>
      <trkpt lat="42.344078" lon="1.935768">
        <ele>1495</ele>
        <time>1970-01-01T00:07:36.000Z</time>
      </trkpt>
      <trkpt lat="42.34413" lon="1.935803">
        <ele>1494.4</ele>
        <time>1970-01-01T00:07:43.000Z</time>
      </trkpt>
      <trkpt lat="42.344165" lon="1.935843">
        <ele>1494.6</ele>
        <time>1970-01-01T00:07:46.000Z</time>
      </trkpt>
      <trkpt lat="42.344204" lon="1.935812">
        <ele>1493.3</ele>
        <time>1970-01-01T00:07:51.000Z</time>
      </trkpt>
      <trkpt lat="42.34423" lon="1.935751">
        <ele>1491.9</ele>
        <time>1970-01-01T00:07:54.000Z</time>
      </trkpt>
      <trkpt lat="42.344262" lon="1.93569">
        <ele>1489.8</ele>
        <time>1970-01-01T00:07:57.000Z</time>
      </trkpt>
      <trkpt lat="42.344304" lon="1.935626">
        <ele>1487.7</ele>
        <time>1970-01-01T00:08:00.000Z</time>
      </trkpt>
      <trkpt lat="42.344351" lon="1.935585">
        <ele>1486.4</ele>
        <time>1970-01-01T00:08:04.000Z</time>
      </trkpt>
      <trkpt lat="42.344412" lon="1.935555">
        <ele>1484</ele>
        <time>1970-01-01T00:08:07.000Z</time>
      </trkpt>
      <trkpt lat="42.344478" lon="1.935539">
        <ele>1482.2</ele>
        <time>1970-01-01T00:08:09.000Z</time>
      </trkpt>
      <trkpt lat="42.344547" lon="1.935527">
        <ele>1480.6</ele>
        <time>1970-01-01T00:08:11.000Z</time>
      </trkpt>
      <trkpt lat="42.344615" lon="1.935505">
        <ele>1478.1</ele>
        <time>1970-01-01T00:08:13.000Z</time>
      </trkpt>
      <trkpt lat="42.344676" lon="1.935488">
        <ele>1476.6</ele>
        <time>1970-01-01T00:08:15.000Z</time>
      </trkpt>
      <trkpt lat="42.344727" lon="1.93547">
        <ele>1473.9</ele>
        <time>1970-01-01T00:08:17.000Z</time>
      </trkpt>
      <trkpt lat="42.344775" lon="1.935442">
        <ele>1473.3</ele>
        <time>1970-01-01T00:08:19.000Z</time>
      </trkpt>
      <trkpt lat="42.34482" lon="1.935393">
        <ele>1470</ele>
        <time>1970-01-01T00:08:22.000Z</time>
      </trkpt>
      <trkpt lat="42.344862" lon="1.935329">
        <ele>1468.6</ele>
        <time>1970-01-01T00:08:25.000Z</time>
      </trkpt>
      <trkpt lat="42.344923" lon="1.935281">
        <ele>1466.5</ele>
        <time>1970-01-01T00:08:27.000Z</time>
      </trkpt>
      <trkpt lat="42.34498" lon="1.935227">
        <ele>1464.2</ele>
        <time>1970-01-01T00:08:29.000Z</time>
      </trkpt>
      <trkpt lat="42.345012" lon="1.935179">
        <ele>1461.7</ele>
        <time>1970-01-01T00:08:31.000Z</time>
      </trkpt>
      <trkpt lat="42.345032" lon="1.935118">
        <ele>1460.8</ele>
        <time>1970-01-01T00:08:35.000Z</time>
      </trkpt>
      <trkpt lat="42.345064" lon="1.935061">
        <ele>1459.3</ele>
        <time>1970-01-01T00:08:40.000Z</time>
      </trkpt>
      <trkpt lat="42.345097" lon="1.935017">
        <ele>1457.2</ele>
        <time>1970-01-01T00:08:43.000Z</time>
      </trkpt>
      <trkpt lat="42.345148" lon="1.934971">
        <ele>1455.7</ele>
        <time>1970-01-01T00:08:46.000Z</time>
      </trkpt>
      <trkpt lat="42.345203" lon="1.934924">
        <ele>1452.5</ele>
        <time>1970-01-01T00:08:49.000Z</time>
      </trkpt>
      <trkpt lat="42.345255" lon="1.934897">
        <ele>1452.1</ele>
        <time>1970-01-01T00:08:52.000Z</time>
      </trkpt>
      <trkpt lat="42.345306" lon="1.934899">
        <ele>1451.2</ele>
        <time>1970-01-01T00:08:55.000Z</time>
      </trkpt>
      <trkpt lat="42.345351" lon="1.934916">
        <ele>1450.4</ele>
        <time>1970-01-01T00:08:57.000Z</time>
      </trkpt>
      <trkpt lat="42.345388" lon="1.934957">
        <ele>1451.4</ele>
        <time>1970-01-01T00:08:59.000Z</time>
      </trkpt>
      <trkpt lat="42.345428" lon="1.935016">
        <ele>1453.6</ele>
        <time>1970-01-01T00:09:02.000Z</time>
      </trkpt>
      <trkpt lat="42.345468" lon="1.935061">
        <ele>1454.5</ele>
        <time>1970-01-01T00:09:08.000Z</time>
      </trkpt>
      <trkpt lat="42.345514" lon="1.935048">
        <ele>1452.5</ele>
        <time>1970-01-01T00:09:17.000Z</time>
      </trkpt>
      <trkpt lat="42.345564" lon="1.935028">
        <ele>1452.1</ele>
        <time>1970-01-01T00:09:23.000Z</time>
      </trkpt>
      <trkpt lat="42.345604" lon="1.934989">
        <ele>1450.4</ele>
        <time>1970-01-01T00:09:32.000Z</time>
      </trkpt>
      <trkpt lat="42.345638" lon="1.934948">
        <ele>1448.2</ele>
        <time>1970-01-01T00:09:39.000Z</time>
      </trkpt>
      <trkpt lat="42.345686" lon="1.934919">
        <ele>1447.3</ele>
        <time>1970-01-01T00:10:19.000Z</time>
      </trkpt>
      <trkpt lat="42.345711" lon="1.934859">
        <ele>1446.5</ele>
        <time>1970-01-01T00:10:25.000Z</time>
      </trkpt>
      <trkpt lat="42.34573" lon="1.934795">
        <ele>1445.5</ele>
        <time>1970-01-01T00:10:30.000Z</time>
      </trkpt>
      <trkpt lat="42.345719" lon="1.934735">
        <ele>1444.6</ele>
        <time>1970-01-01T00:10:34.000Z</time>
      </trkpt>
      <trkpt lat="42.345709" lon="1.934673">
        <ele>1443.7</ele>
        <time>1970-01-01T00:10:38.000Z</time>
      </trkpt>
      <trkpt lat="42.345667" lon="1.934647">
        <ele>1442.8</ele>
        <time>1970-01-01T00:10:48.000Z</time>
      </trkpt>
      <trkpt lat="42.345628" lon="1.9346">
        <ele>1441.8</ele>
        <time>1970-01-01T00:11:19.000Z</time>
      </trkpt>
      <trkpt lat="42.345614" lon="1.934539">
        <ele>1441</ele>
        <time>1970-01-01T00:11:27.000Z</time>
      </trkpt>
      <trkpt lat="42.345574" lon="1.934506">
        <ele>1440.3</ele>
        <time>1970-01-01T00:11:40.000Z</time>
      </trkpt>
      <trkpt lat="42.345536" lon="1.934468">
        <ele>1439.7</ele>
        <time>1970-01-01T00:12:00.000Z</time>
      </trkpt>
      <trkpt lat="42.345492" lon="1.934431">
        <ele>1439.3</ele>
        <time>1970-01-01T00:12:22.000Z</time>
      </trkpt>
      <trkpt lat="42.345464" lon="1.934368">
        <ele>1439.1</ele>
        <time>1970-01-01T00:12:28.000Z</time>
      </trkpt>
      <trkpt lat="42.345439" lon="1.934317">
        <ele>1439.1</ele>
        <time>1970-01-01T00:12:37.000Z</time>
      </trkpt>
      <trkpt lat="42.345414" lon="1.934261">
        <ele>1439.3</ele>
        <time>1970-01-01T00:12:46.000Z</time>
      </trkpt>
      <trkpt lat="42.345367" lon="1.93422">
        <ele>1439.8</ele>
        <time>1970-01-01T00:12:51.000Z</time>
      </trkpt>
      <trkpt lat="42.345325" lon="1.934193">
        <ele>1439.9</ele>
        <time>1970-01-01T00:12:54.000Z</time>
      </trkpt>
      <trkpt lat="42.345282" lon="1.934167">
        <ele>1439.9</ele>
        <time>1970-01-01T00:13:04.000Z</time>
      </trkpt>
      <trkpt lat="42.345236" lon="1.934149">
        <ele>1439.9</ele>
        <time>1970-01-01T00:13:13.000Z</time>
      </trkpt>
      <trkpt lat="42.345191" lon="1.934123">
        <ele>1439.9</ele>
        <time>1970-01-01T00:13:25.000Z</time>
      </trkpt>
      <trkpt lat="42.345156" lon="1.934085">
        <ele>1440.6</ele>
        <time>1970-01-01T00:14:15.000Z</time>
      </trkpt>
      <trkpt lat="42.345198" lon="1.934051">
        <ele>1440.3</ele>
        <time>1970-01-01T00:14:39.000Z</time>
      </trkpt>
      <trkpt lat="42.345242" lon="1.934073">
        <ele>1440.1</ele>
        <time>1970-01-01T00:14:43.000Z</time>
      </trkpt>
      <trkpt lat="42.345284" lon="1.9341">
        <ele>1439.8</ele>
        <time>1970-01-01T00:14:46.000Z</time>
      </trkpt>
      <trkpt lat="42.345331" lon="1.934122">
        <ele>1439.6</ele>
        <time>1970-01-01T00:14:50.000Z</time>
      </trkpt>
      <trkpt lat="42.345376" lon="1.93412">
        <ele>1439.4</ele>
        <time>1970-01-01T00:14:58.000Z</time>
      </trkpt>
      <trkpt lat="42.345449" lon="1.934124">
        <ele>1439</ele>
        <time>1970-01-01T00:15:02.000Z</time>
      </trkpt>
      <trkpt lat="42.345511" lon="1.934122">
        <ele>1438.7</ele>
        <time>1970-01-01T00:15:04.000Z</time>
      </trkpt>
      <trkpt lat="42.345578" lon="1.934116">
        <ele>1438.4</ele>
        <time>1970-01-01T00:15:06.000Z</time>
      </trkpt>
      <trkpt lat="42.34565" lon="1.934097">
        <ele>1438.1</ele>
        <time>1970-01-01T00:15:08.000Z</time>
      </trkpt>
      <trkpt lat="42.345708" lon="1.934082">
        <ele>1437.9</ele>
        <time>1970-01-01T00:15:10.000Z</time>
      </trkpt>
      <trkpt lat="42.345762" lon="1.934064">
        <ele>1437.6</ele>
        <time>1970-01-01T00:15:12.000Z</time>
      </trkpt>
      <trkpt lat="42.345816" lon="1.934037">
        <ele>1437.3</ele>
        <time>1970-01-01T00:15:14.000Z</time>
      </trkpt>
      <trkpt lat="42.34587" lon="1.934004">
        <ele>1437</ele>
        <time>1970-01-01T00:15:16.000Z</time>
      </trkpt>
      <trkpt lat="42.345918" lon="1.933972">
        <ele>1436.7</ele>
        <time>1970-01-01T00:15:18.000Z</time>
      </trkpt>
      <trkpt lat="42.345961" lon="1.933944">
        <ele>1436.4</ele>
        <time>1970-01-01T00:15:20.000Z</time>
      </trkpt>
      <trkpt lat="42.346003" lon="1.933907">
        <ele>1436.1</ele>
        <time>1970-01-01T00:15:23.000Z</time>
      </trkpt>
      <trkpt lat="42.346048" lon="1.933882">
        <ele>1435.8</ele>
        <time>1970-01-01T00:15:26.000Z</time>
      </trkpt>
      <trkpt lat="42.346096" lon="1.933856">
        <ele>1435.4</ele>
        <time>1970-01-01T00:15:29.000Z</time>
      </trkpt>
      <trkpt lat="42.346166" lon="1.933832">
        <ele>1434.9</ele>
        <time>1970-01-01T00:15:32.000Z</time>
      </trkpt>
      <trkpt lat="42.346226" lon="1.933811">
        <ele>1434.4</ele>
        <time>1970-01-01T00:15:34.000Z</time>
      </trkpt>
      <trkpt lat="42.346293" lon="1.933781">
        <ele>1433.8</ele>
        <time>1970-01-01T00:15:36.000Z</time>
      </trkpt>
      <trkpt lat="42.346358" lon="1.933742">
        <ele>1433.3</ele>
        <time>1970-01-01T00:15:38.000Z</time>
      </trkpt>
      <trkpt lat="42.346447" lon="1.933677">
        <ele>1432.4</ele>
        <time>1970-01-01T00:15:40.000Z</time>
      </trkpt>
      <trkpt lat="42.346492" lon="1.933641">
        <ele>1431.9</ele>
        <time>1970-01-01T00:15:41.000Z</time>
      </trkpt>
      <trkpt lat="42.346533" lon="1.933602">
        <ele>1431.5</ele>
        <time>1970-01-01T00:15:42.000Z</time>
      </trkpt>
      <trkpt lat="42.346573" lon="1.933562">
        <ele>1431.1</ele>
        <time>1970-01-01T00:15:43.000Z</time>
      </trkpt>
      <trkpt lat="42.346609" lon="1.933524">
        <ele>1430.8</ele>
        <time>1970-01-01T00:15:44.000Z</time>
      </trkpt>
      <trkpt lat="42.346679" lon="1.933453">
        <ele>1430.1</ele>
        <time>1970-01-01T00:15:46.000Z</time>
      </trkpt>
      <trkpt lat="42.34675" lon="1.933389">
        <ele>1429.4</ele>
        <time>1970-01-01T00:15:48.000Z</time>
      </trkpt>
      <trkpt lat="42.34679" lon="1.933353">
        <ele>1429</ele>
        <time>1970-01-01T00:15:49.000Z</time>
      </trkpt>
      <trkpt lat="42.346829" lon="1.933312">
        <ele>1428.6</ele>
        <time>1970-01-01T00:15:50.000Z</time>
      </trkpt>
      <trkpt lat="42.346875" lon="1.933271">
        <ele>1428.1</ele>
        <time>1970-01-01T00:15:51.000Z</time>
      </trkpt>
      <trkpt lat="42.346932" lon="1.933225">
        <ele>1427.6</ele>
        <time>1970-01-01T00:15:52.000Z</time>
      </trkpt>
      <trkpt lat="42.346991" lon="1.933177">
        <ele>1427.1</ele>
        <time>1970-01-01T00:15:53.000Z</time>
      </trkpt>
      <trkpt lat="42.34705" lon="1.933131">
        <ele>1426.7</ele>
        <time>1970-01-01T00:15:54.000Z</time>
      </trkpt>
      <trkpt lat="42.347102" lon="1.933089">
        <ele>1426.3</ele>
        <time>1970-01-01T00:15:55.000Z</time>
      </trkpt>
      <trkpt lat="42.34715" lon="1.933049">
        <ele>1426</ele>
        <time>1970-01-01T00:15:56.000Z</time>
      </trkpt>
      <trkpt lat="42.347194" lon="1.933011">
        <ele>1425.7</ele>
        <time>1970-01-01T00:15:57.000Z</time>
      </trkpt>
      <trkpt lat="42.34724" lon="1.932976">
        <ele>1425.4</ele>
        <time>1970-01-01T00:15:58.000Z</time>
      </trkpt>
      <trkpt lat="42.347291" lon="1.932943">
        <ele>1425.1</ele>
        <time>1970-01-01T00:15:59.000Z</time>
      </trkpt>
      <trkpt lat="42.347338" lon="1.932912">
        <ele>1424.8</ele>
        <time>1970-01-01T00:16:00.000Z</time>
      </trkpt>
      <trkpt lat="42.347379" lon="1.932883">
        <ele>1424.6</ele>
        <time>1970-01-01T00:16:01.000Z</time>
      </trkpt>
      <trkpt lat="42.347455" lon="1.932829">
        <ele>1424.2</ele>
        <time>1970-01-01T00:16:03.000Z</time>
      </trkpt>
      <trkpt lat="42.347497" lon="1.932798">
        <ele>1424</ele>
        <time>1970-01-01T00:16:04.000Z</time>
      </trkpt>
      <trkpt lat="42.347541" lon="1.932767">
        <ele>1423.8</ele>
        <time>1970-01-01T00:16:05.000Z</time>
      </trkpt>
      <trkpt lat="42.347589" lon="1.932734">
        <ele>1423.6</ele>
        <time>1970-01-01T00:16:06.000Z</time>
      </trkpt>
      <trkpt lat="42.34764" lon="1.932704">
        <ele>1423.4</ele>
        <time>1970-01-01T00:16:07.000Z</time>
      </trkpt>
      <trkpt lat="42.347692" lon="1.932681">
        <ele>1423.3</ele>
        <time>1970-01-01T00:16:08.000Z</time>
      </trkpt>
      <trkpt lat="42.347752" lon="1.932663">
        <ele>1423.1</ele>
        <time>1970-01-01T00:16:09.000Z</time>
      </trkpt>
      <trkpt lat="42.347803" lon="1.932646">
        <ele>1423.1</ele>
        <time>1970-01-01T00:16:10.000Z</time>
      </trkpt>
      <trkpt lat="42.347848" lon="1.93263">
        <ele>1423</ele>
        <time>1970-01-01T00:16:11.000Z</time>
      </trkpt>
      <trkpt lat="42.347898" lon="1.932613">
        <ele>1423</ele>
        <time>1970-01-01T00:16:12.000Z</time>
      </trkpt>
      <trkpt lat="42.347947" lon="1.932597">
        <ele>1422.9</ele>
        <time>1970-01-01T00:16:13.000Z</time>
      </trkpt>
      <trkpt lat="42.347998" lon="1.932577">
        <ele>1422.8</ele>
        <time>1970-01-01T00:16:14.000Z</time>
      </trkpt>
      <trkpt lat="42.348048" lon="1.932546">
        <ele>1422.7</ele>
        <time>1970-01-01T00:16:15.000Z</time>
      </trkpt>
      <trkpt lat="42.348131" lon="1.932472">
        <ele>1422.5</ele>
        <time>1970-01-01T00:16:16.000Z</time>
      </trkpt>
      <trkpt lat="42.348206" lon="1.932404">
        <ele>1422.3</ele>
        <time>1970-01-01T00:16:17.000Z</time>
      </trkpt>
      <trkpt lat="42.348268" lon="1.93234">
        <ele>1422.1</ele>
        <time>1970-01-01T00:16:18.000Z</time>
      </trkpt>
      <trkpt lat="42.348316" lon="1.932286">
        <ele>1421.8</ele>
        <time>1970-01-01T00:16:19.000Z</time>
      </trkpt>
      <trkpt lat="42.348356" lon="1.932232">
        <ele>1421.5</ele>
        <time>1970-01-01T00:16:20.000Z</time>
      </trkpt>
      <trkpt lat="42.348389" lon="1.932183">
        <ele>1421.3</ele>
        <time>1970-01-01T00:16:21.000Z</time>
      </trkpt>
      <trkpt lat="42.34844" lon="1.93209">
        <ele>1420.9</ele>
        <time>1970-01-01T00:16:23.000Z</time>
      </trkpt>
      <trkpt lat="42.348474" lon="1.93201">
        <ele>1420.5</ele>
        <time>1970-01-01T00:16:25.000Z</time>
      </trkpt>
      <trkpt lat="42.348503" lon="1.931927">
        <ele>1420.3</ele>
        <time>1970-01-01T00:16:27.000Z</time>
      </trkpt>
      <trkpt lat="42.348539" lon="1.931843">
        <ele>1420</ele>
        <time>1970-01-01T00:16:29.000Z</time>
      </trkpt>
      <trkpt lat="42.348582" lon="1.931748">
        <ele>1419.8</ele>
        <time>1970-01-01T00:16:31.000Z</time>
      </trkpt>
      <trkpt lat="42.348624" lon="1.931652">
        <ele>1419.5</ele>
        <time>1970-01-01T00:16:33.000Z</time>
      </trkpt>
      <trkpt lat="42.348668" lon="1.931562">
        <ele>1419.2</ele>
        <time>1970-01-01T00:16:35.000Z</time>
      </trkpt>
      <trkpt lat="42.348705" lon="1.931481">
        <ele>1419</ele>
        <time>1970-01-01T00:16:37.000Z</time>
      </trkpt>
      <trkpt lat="42.348752" lon="1.931398">
        <ele>1418.7</ele>
        <time>1970-01-01T00:16:39.000Z</time>
      </trkpt>
      <trkpt lat="42.348798" lon="1.931322">
        <ele>1418.4</ele>
        <time>1970-01-01T00:16:41.000Z</time>
      </trkpt>
      <trkpt lat="42.34885" lon="1.931254">
        <ele>1418.1</ele>
        <time>1970-01-01T00:16:43.000Z</time>
      </trkpt>
      <trkpt lat="42.348895" lon="1.931174">
        <ele>1417.7</ele>
        <time>1970-01-01T00:16:45.000Z</time>
      </trkpt>
      <trkpt lat="42.348942" lon="1.931073">
        <ele>1417.3</ele>
        <time>1970-01-01T00:16:47.000Z</time>
      </trkpt>
      <trkpt lat="42.348983" lon="1.930973">
        <ele>1416.8</ele>
        <time>1970-01-01T00:16:49.000Z</time>
      </trkpt>
      <trkpt lat="42.349017" lon="1.930867">
        <ele>1416.3</ele>
        <time>1970-01-01T00:16:51.000Z</time>
      </trkpt>
      <trkpt lat="42.349059" lon="1.930759">
        <ele>1415.8</ele>
        <time>1970-01-01T00:16:53.000Z</time>
      </trkpt>
      <trkpt lat="42.349085" lon="1.930706">
        <ele>1415.6</ele>
        <time>1970-01-01T00:16:54.000Z</time>
      </trkpt>
      <trkpt lat="42.349127" lon="1.930611">
        <ele>1415.1</ele>
        <time>1970-01-01T00:16:56.000Z</time>
      </trkpt>
      <trkpt lat="42.34917" lon="1.930514">
        <ele>1414.7</ele>
        <time>1970-01-01T00:16:58.000Z</time>
      </trkpt>
      <trkpt lat="42.349197" lon="1.930465">
        <ele>1414.5</ele>
        <time>1970-01-01T00:16:59.000Z</time>
      </trkpt>
      <trkpt lat="42.349239" lon="1.930367">
        <ele>1414.1</ele>
        <time>1970-01-01T00:17:01.000Z</time>
      </trkpt>
      <trkpt lat="42.349262" lon="1.930307">
        <ele>1413.8</ele>
        <time>1970-01-01T00:17:02.000Z</time>
      </trkpt>
      <trkpt lat="42.349302" lon="1.930204">
        <ele>1413.4</ele>
        <time>1970-01-01T00:17:04.000Z</time>
      </trkpt>
      <trkpt lat="42.349336" lon="1.930108">
        <ele>1413</ele>
        <time>1970-01-01T00:17:06.000Z</time>
      </trkpt>
      <trkpt lat="42.349372" lon="1.930003">
        <ele>1412.5</ele>
        <time>1970-01-01T00:17:08.000Z</time>
      </trkpt>
      <trkpt lat="42.349403" lon="1.929939">
        <ele>1412.2</ele>
        <time>1970-01-01T00:17:09.000Z</time>
      </trkpt>
      <trkpt lat="42.34943" lon="1.929882">
        <ele>1412</ele>
        <time>1970-01-01T00:17:10.000Z</time>
      </trkpt>
      <trkpt lat="42.349462" lon="1.929824">
        <ele>1411.7</ele>
        <time>1970-01-01T00:17:11.000Z</time>
      </trkpt>
      <trkpt lat="42.349521" lon="1.929723">
        <ele>1411.2</ele>
        <time>1970-01-01T00:17:13.000Z</time>
      </trkpt>
      <trkpt lat="42.349561" lon="1.929659">
        <ele>1410.9</ele>
        <time>1970-01-01T00:17:14.000Z</time>
      </trkpt>
      <trkpt lat="42.349601" lon="1.929597">
        <ele>1410.6</ele>
        <time>1970-01-01T00:17:15.000Z</time>
      </trkpt>
      <trkpt lat="42.349638" lon="1.929538">
        <ele>1410.3</ele>
        <time>1970-01-01T00:17:16.000Z</time>
      </trkpt>
      <trkpt lat="42.349698" lon="1.929453">
        <ele>1409.9</ele>
        <time>1970-01-01T00:17:18.000Z</time>
      </trkpt>
      <trkpt lat="42.349749" lon="1.92939">
        <ele>1409.6</ele>
        <time>1970-01-01T00:17:20.000Z</time>
      </trkpt>
      <trkpt lat="42.349797" lon="1.929332">
        <ele>1409.3</ele>
        <time>1970-01-01T00:17:22.000Z</time>
      </trkpt>
      <trkpt lat="42.349848" lon="1.92928">
        <ele>1409.1</ele>
        <time>1970-01-01T00:17:24.000Z</time>
      </trkpt>
      <trkpt lat="42.349909" lon="1.929233">
        <ele>1408.8</ele>
        <time>1970-01-01T00:17:26.000Z</time>
      </trkpt>
      <trkpt lat="42.349985" lon="1.929171">
        <ele>1408.5</ele>
        <time>1970-01-01T00:17:28.000Z</time>
      </trkpt>
      <trkpt lat="42.350059" lon="1.929118">
        <ele>1408.3</ele>
        <time>1970-01-01T00:17:30.000Z</time>
      </trkpt>
      <trkpt lat="42.350129" lon="1.929063">
        <ele>1408</ele>
        <time>1970-01-01T00:17:32.000Z</time>
      </trkpt>
      <trkpt lat="42.350167" lon="1.929023">
        <ele>1407.9</ele>
        <time>1970-01-01T00:17:33.000Z</time>
      </trkpt>
      <trkpt lat="42.350228" lon="1.928947">
        <ele>1407.7</ele>
        <time>1970-01-01T00:17:35.000Z</time>
      </trkpt>
      <trkpt lat="42.350275" lon="1.928878">
        <ele>1407.5</ele>
        <time>1970-01-01T00:17:37.000Z</time>
      </trkpt>
      <trkpt lat="42.350323" lon="1.928786">
        <ele>1407.2</ele>
        <time>1970-01-01T00:17:39.000Z</time>
      </trkpt>
      <trkpt lat="42.350354" lon="1.928688">
        <ele>1406.8</ele>
        <time>1970-01-01T00:17:41.000Z</time>
      </trkpt>
      <trkpt lat="42.350371" lon="1.928602">
        <ele>1406.4</ele>
        <time>1970-01-01T00:17:43.000Z</time>
      </trkpt>
      <trkpt lat="42.350379" lon="1.928541">
        <ele>1406.1</ele>
        <time>1970-01-01T00:17:45.000Z</time>
      </trkpt>
      <trkpt lat="42.350384" lon="1.928458">
        <ele>1405.7</ele>
        <time>1970-01-01T00:17:48.000Z</time>
      </trkpt>
      <trkpt lat="42.350395" lon="1.928382">
        <ele>1405.4</ele>
        <time>1970-01-01T00:17:51.000Z</time>
      </trkpt>
      <trkpt lat="42.350407" lon="1.928319">
        <ele>1405.4</ele>
        <time>1970-01-01T00:17:54.000Z</time>
      </trkpt>
      <trkpt lat="42.350425" lon="1.928262">
        <ele>1405.4</ele>
        <time>1970-01-01T00:17:57.000Z</time>
      </trkpt>
      <trkpt lat="42.350453" lon="1.928203">
        <ele>1405</ele>
        <time>1970-01-01T00:18:01.000Z</time>
      </trkpt>
      <trkpt lat="42.350495" lon="1.928158">
        <ele>1404.6</ele>
        <time>1970-01-01T00:18:05.000Z</time>
      </trkpt>
      <trkpt lat="42.350544" lon="1.928123">
        <ele>1404.2</ele>
        <time>1970-01-01T00:18:08.000Z</time>
      </trkpt>
      <trkpt lat="42.350584" lon="1.928094">
        <ele>1403.8</ele>
        <time>1970-01-01T00:18:10.000Z</time>
      </trkpt>
      <trkpt lat="42.350624" lon="1.928065">
        <ele>1403.4</ele>
        <time>1970-01-01T00:18:12.000Z</time>
      </trkpt>
      <trkpt lat="42.350672" lon="1.928037">
        <ele>1403</ele>
        <time>1970-01-01T00:18:14.000Z</time>
      </trkpt>
      <trkpt lat="42.350728" lon="1.928006">
        <ele>1402.4</ele>
        <time>1970-01-01T00:18:16.000Z</time>
      </trkpt>
      <trkpt lat="42.350792" lon="1.927967">
        <ele>1401.9</ele>
        <time>1970-01-01T00:18:18.000Z</time>
      </trkpt>
      <trkpt lat="42.350846" lon="1.927931">
        <ele>1401.4</ele>
        <time>1970-01-01T00:18:20.000Z</time>
      </trkpt>
      <trkpt lat="42.350895" lon="1.927894">
        <ele>1401</ele>
        <time>1970-01-01T00:18:22.000Z</time>
      </trkpt>
      <trkpt lat="42.350935" lon="1.927855">
        <ele>1400.6</ele>
        <time>1970-01-01T00:18:24.000Z</time>
      </trkpt>
      <trkpt lat="42.350985" lon="1.927799">
        <ele>1400</ele>
        <time>1970-01-01T00:18:26.000Z</time>
      </trkpt>
      <trkpt lat="42.351035" lon="1.927728">
        <ele>1399.2</ele>
        <time>1970-01-01T00:18:28.000Z</time>
      </trkpt>
      <trkpt lat="42.35108" lon="1.92766">
        <ele>1398.5</ele>
        <time>1970-01-01T00:18:30.000Z</time>
      </trkpt>
      <trkpt lat="42.351117" lon="1.927592">
        <ele>1397.8</ele>
        <time>1970-01-01T00:18:32.000Z</time>
      </trkpt>
      <trkpt lat="42.351154" lon="1.927515">
        <ele>1397</ele>
        <time>1970-01-01T00:18:34.000Z</time>
      </trkpt>
      <trkpt lat="42.351195" lon="1.927431">
        <ele>1396.2</ele>
        <time>1970-01-01T00:18:36.000Z</time>
      </trkpt>
      <trkpt lat="42.351246" lon="1.927334">
        <ele>1395.3</ele>
        <time>1970-01-01T00:18:38.000Z</time>
      </trkpt>
      <trkpt lat="42.351288" lon="1.927255">
        <ele>1394.6</ele>
        <time>1970-01-01T00:18:40.000Z</time>
      </trkpt>
      <trkpt lat="42.351322" lon="1.927186">
        <ele>1394</ele>
        <time>1970-01-01T00:18:42.000Z</time>
      </trkpt>
      <trkpt lat="42.35136" lon="1.927123">
        <ele>1393.4</ele>
        <time>1970-01-01T00:18:44.000Z</time>
      </trkpt>
      <trkpt lat="42.351404" lon="1.927057">
        <ele>1392.6</ele>
        <time>1970-01-01T00:18:46.000Z</time>
      </trkpt>
      <trkpt lat="42.351435" lon="1.927004">
        <ele>1391.9</ele>
        <time>1970-01-01T00:18:48.000Z</time>
      </trkpt>
      <trkpt lat="42.351464" lon="1.926956">
        <ele>1391.2</ele>
        <time>1970-01-01T00:18:50.000Z</time>
      </trkpt>
      <trkpt lat="42.351496" lon="1.926884">
        <ele>1390</ele>
        <time>1970-01-01T00:18:52.000Z</time>
      </trkpt>
      <trkpt lat="42.351523" lon="1.926806">
        <ele>1388.6</ele>
        <time>1970-01-01T00:18:54.000Z</time>
      </trkpt>
      <trkpt lat="42.351539" lon="1.92674">
        <ele>1387.4</ele>
        <time>1970-01-01T00:18:56.000Z</time>
      </trkpt>
      <trkpt lat="42.351552" lon="1.926655">
        <ele>1385.6</ele>
        <time>1970-01-01T00:18:59.000Z</time>
      </trkpt>
      <trkpt lat="42.351553" lon="1.926572">
        <ele>1383.7</ele>
        <time>1970-01-01T00:19:02.000Z</time>
      </trkpt>
      <trkpt lat="42.351552" lon="1.926498">
        <ele>1381.9</ele>
        <time>1970-01-01T00:19:05.000Z</time>
      </trkpt>
      <trkpt lat="42.351552" lon="1.926429">
        <ele>1380.2</ele>
        <time>1970-01-01T00:19:10.000Z</time>
      </trkpt>
      <trkpt lat="42.351566" lon="1.92636">
        <ele>1378.5</ele>
        <time>1970-01-01T00:19:16.000Z</time>
      </trkpt>
      <trkpt lat="42.351584" lon="1.926298">
        <ele>1377.4</ele>
        <time>1970-01-01T00:19:23.000Z</time>
      </trkpt>
      <trkpt lat="42.351608" lon="1.926244">
        <ele>1376.8</ele>
        <time>1970-01-01T00:19:32.000Z</time>
      </trkpt>
      <trkpt lat="42.351652" lon="1.926228">
        <ele>1376.2</ele>
        <time>1970-01-01T00:20:06.000Z</time>
      </trkpt>
      <trkpt lat="42.351683" lon="1.926283">
        <ele>1375.5</ele>
        <time>1970-01-01T00:24:37.000Z</time>
      </trkpt>
      <trkpt lat="42.351722" lon="1.926324">
        <ele>1374.9</ele>
        <time>1970-01-01T00:24:39.000Z</time>
      </trkpt>
      <trkpt lat="42.351782" lon="1.926363">
        <ele>1374</ele>
        <time>1970-01-01T00:24:41.000Z</time>
      </trkpt>
      <trkpt lat="42.351847" lon="1.926403">
        <ele>1373.6</ele>
        <time>1970-01-01T00:24:43.000Z</time>
      </trkpt>
      <trkpt lat="42.351888" lon="1.92643">
        <ele>1373.1</ele>
        <time>1970-01-01T00:24:45.000Z</time>
      </trkpt>
      <trkpt lat="42.35193" lon="1.926456">
        <ele>1372.4</ele>
        <time>1970-01-01T00:24:49.000Z</time>
      </trkpt>
      <trkpt lat="42.351975" lon="1.926465">
        <ele>1371.8</ele>
        <time>1970-01-01T00:24:55.000Z</time>
      </trkpt>
      <trkpt lat="42.352029" lon="1.926497">
        <ele>1370.9</ele>
        <time>1970-01-01T00:24:59.000Z</time>
      </trkpt>
      <trkpt lat="42.352075" lon="1.926538">
        <ele>1370</ele>
        <time>1970-01-01T00:25:01.000Z</time>
      </trkpt>
      <trkpt lat="42.35212" lon="1.926576">
        <ele>1369.2</ele>
        <time>1970-01-01T00:25:03.000Z</time>
      </trkpt>
      <trkpt lat="42.352174" lon="1.926612">
        <ele>1368.4</ele>
        <time>1970-01-01T00:25:05.000Z</time>
      </trkpt>
      <trkpt lat="42.352226" lon="1.926638">
        <ele>1367.6</ele>
        <time>1970-01-01T00:25:07.000Z</time>
      </trkpt>
      <trkpt lat="42.352275" lon="1.926665">
        <ele>1366.9</ele>
        <time>1970-01-01T00:25:09.000Z</time>
      </trkpt>
      <trkpt lat="42.352325" lon="1.926688">
        <ele>1366.1</ele>
        <time>1970-01-01T00:25:11.000Z</time>
      </trkpt>
      <trkpt lat="42.352377" lon="1.926711">
        <ele>1365.3</ele>
        <time>1970-01-01T00:25:13.000Z</time>
      </trkpt>
      <trkpt lat="42.352427" lon="1.926735">
        <ele>1364.4</ele>
        <time>1970-01-01T00:25:15.000Z</time>
      </trkpt>
      <trkpt lat="42.352477" lon="1.92676">
        <ele>1363.6</ele>
        <time>1970-01-01T00:25:17.000Z</time>
      </trkpt>
      <trkpt lat="42.352533" lon="1.92678">
        <ele>1362.7</ele>
        <time>1970-01-01T00:25:19.000Z</time>
      </trkpt>
      <trkpt lat="42.352589" lon="1.926797">
        <ele>1361.9</ele>
        <time>1970-01-01T00:25:21.000Z</time>
      </trkpt>
      <trkpt lat="42.352647" lon="1.92681">
        <ele>1361.2</ele>
        <time>1970-01-01T00:25:23.000Z</time>
      </trkpt>
      <trkpt lat="42.352703" lon="1.926825">
        <ele>1360.5</ele>
        <time>1970-01-01T00:25:25.000Z</time>
      </trkpt>
      <trkpt lat="42.352752" lon="1.926839">
        <ele>1359.9</ele>
        <time>1970-01-01T00:25:27.000Z</time>
      </trkpt>
      <trkpt lat="42.352818" lon="1.926864">
        <ele>1358.9</ele>
        <time>1970-01-01T00:25:30.000Z</time>
      </trkpt>
      <trkpt lat="42.352869" lon="1.926874">
        <ele>1358.2</ele>
        <time>1970-01-01T00:25:32.000Z</time>
      </trkpt>
      <trkpt lat="42.35292" lon="1.926877">
        <ele>1357.4</ele>
        <time>1970-01-01T00:25:34.000Z</time>
      </trkpt>
      <trkpt lat="42.352978" lon="1.926863">
        <ele>1356.4</ele>
        <time>1970-01-01T00:25:36.000Z</time>
      </trkpt>
      <trkpt lat="42.353037" lon="1.926838">
        <ele>1355.3</ele>
        <time>1970-01-01T00:25:38.000Z</time>
      </trkpt>
      <trkpt lat="42.353085" lon="1.926814">
        <ele>1354.3</ele>
        <time>1970-01-01T00:25:40.000Z</time>
      </trkpt>
      <trkpt lat="42.353134" lon="1.926789">
        <ele>1353.3</ele>
        <time>1970-01-01T00:25:44.000Z</time>
      </trkpt>
      <trkpt lat="42.353183" lon="1.926766">
        <ele>1352.3</ele>
        <time>1970-01-01T00:25:50.000Z</time>
      </trkpt>
      <trkpt lat="42.353225" lon="1.926735">
        <ele>1351.4</ele>
        <time>1970-01-01T00:25:58.000Z</time>
      </trkpt>
      <trkpt lat="42.353275" lon="1.926708">
        <ele>1350.6</ele>
        <time>1970-01-01T00:26:02.000Z</time>
      </trkpt>
      <trkpt lat="42.353322" lon="1.926656">
        <ele>1349.6</ele>
        <time>1970-01-01T00:26:05.000Z</time>
      </trkpt>
      <trkpt lat="42.35336" lon="1.926621">
        <ele>1348.9</ele>
        <time>1970-01-01T00:26:07.000Z</time>
      </trkpt>
      <trkpt lat="42.353407" lon="1.9266">
        <ele>1348.2</ele>
        <time>1970-01-01T00:26:09.000Z</time>
      </trkpt>
      <trkpt lat="42.353463" lon="1.926591">
        <ele>1347.3</ele>
        <time>1970-01-01T00:26:11.000Z</time>
      </trkpt>
      <trkpt lat="42.353532" lon="1.926575">
        <ele>1346.4</ele>
        <time>1970-01-01T00:26:13.000Z</time>
      </trkpt>
      <trkpt lat="42.353595" lon="1.926556">
        <ele>1345.6</ele>
        <time>1970-01-01T00:26:15.000Z</time>
      </trkpt>
      <trkpt lat="42.353657" lon="1.926531">
        <ele>1344.8</ele>
        <time>1970-01-01T00:26:17.000Z</time>
      </trkpt>
      <trkpt lat="42.35373" lon="1.926497">
        <ele>1344</ele>
        <time>1970-01-01T00:26:19.000Z</time>
      </trkpt>
      <trkpt lat="42.353798" lon="1.926455">
        <ele>1343.2</ele>
        <time>1970-01-01T00:26:21.000Z</time>
      </trkpt>
      <trkpt lat="42.353875" lon="1.926404">
        <ele>1342.3</ele>
        <time>1970-01-01T00:26:23.000Z</time>
      </trkpt>
      <trkpt lat="42.353916" lon="1.926378">
        <ele>1341.9</ele>
        <time>1970-01-01T00:26:24.000Z</time>
      </trkpt>
      <trkpt lat="42.353957" lon="1.926353">
        <ele>1341.4</ele>
        <time>1970-01-01T00:26:25.000Z</time>
      </trkpt>
      <trkpt lat="42.354" lon="1.926328">
        <ele>1341</ele>
        <time>1970-01-01T00:26:26.000Z</time>
      </trkpt>
      <trkpt lat="42.354047" lon="1.926299">
        <ele>1340.6</ele>
        <time>1970-01-01T00:26:27.000Z</time>
      </trkpt>
      <trkpt lat="42.354095" lon="1.926265">
        <ele>1340.1</ele>
        <time>1970-01-01T00:26:28.000Z</time>
      </trkpt>
      <trkpt lat="42.354139" lon="1.926231">
        <ele>1339.8</ele>
        <time>1970-01-01T00:26:29.000Z</time>
      </trkpt>
      <trkpt lat="42.354203" lon="1.92616">
        <ele>1339.4</ele>
        <time>1970-01-01T00:26:31.000Z</time>
      </trkpt>
      <trkpt lat="42.354235" lon="1.926079">
        <ele>1339</ele>
        <time>1970-01-01T00:26:33.000Z</time>
      </trkpt>
      <trkpt lat="42.354242" lon="1.925988">
        <ele>1338.7</ele>
        <time>1970-01-01T00:26:35.000Z</time>
      </trkpt>
      <trkpt lat="42.354237" lon="1.925899">
        <ele>1338.3</ele>
        <time>1970-01-01T00:26:37.000Z</time>
      </trkpt>
      <trkpt lat="42.354236" lon="1.925824">
        <ele>1337.9</ele>
        <time>1970-01-01T00:26:39.000Z</time>
      </trkpt>
      <trkpt lat="42.354242" lon="1.925737">
        <ele>1337.6</ele>
        <time>1970-01-01T00:26:41.000Z</time>
      </trkpt>
      <trkpt lat="42.354247" lon="1.925641">
        <ele>1337.2</ele>
        <time>1970-01-01T00:26:43.000Z</time>
      </trkpt>
      <trkpt lat="42.354252" lon="1.925552">
        <ele>1336.8</ele>
        <time>1970-01-01T00:26:45.000Z</time>
      </trkpt>
      <trkpt lat="42.354255" lon="1.925465">
        <ele>1336.4</ele>
        <time>1970-01-01T00:26:47.000Z</time>
      </trkpt>
      <trkpt lat="42.354259" lon="1.925392">
        <ele>1336.2</ele>
        <time>1970-01-01T00:26:49.000Z</time>
      </trkpt>
      <trkpt lat="42.354273" lon="1.925302">
        <ele>1335.8</ele>
        <time>1970-01-01T00:26:52.000Z</time>
      </trkpt>
      <trkpt lat="42.354297" lon="1.925227">
        <ele>1335.5</ele>
        <time>1970-01-01T00:26:54.000Z</time>
      </trkpt>
      <trkpt lat="42.354325" lon="1.925158">
        <ele>1335.2</ele>
        <time>1970-01-01T00:26:56.000Z</time>
      </trkpt>
      <trkpt lat="42.354367" lon="1.925099">
        <ele>1334.9</ele>
        <time>1970-01-01T00:26:58.000Z</time>
      </trkpt>
      <trkpt lat="42.354411" lon="1.925047">
        <ele>1334.7</ele>
        <time>1970-01-01T00:27:00.000Z</time>
      </trkpt>
      <trkpt lat="42.354452" lon="1.925008">
        <ele>1334.4</ele>
        <time>1970-01-01T00:27:02.000Z</time>
      </trkpt>
      <trkpt lat="42.3545" lon="1.924969">
        <ele>1334.1</ele>
        <time>1970-01-01T00:27:04.000Z</time>
      </trkpt>
      <trkpt lat="42.354546" lon="1.924929">
        <ele>1333.8</ele>
        <time>1970-01-01T00:27:06.000Z</time>
      </trkpt>
      <trkpt lat="42.354592" lon="1.924862">
        <ele>1333.4</ele>
        <time>1970-01-01T00:27:08.000Z</time>
      </trkpt>
      <trkpt lat="42.354622" lon="1.924774">
        <ele>1332.9</ele>
        <time>1970-01-01T00:27:10.000Z</time>
      </trkpt>
      <trkpt lat="42.354649" lon="1.9247">
        <ele>1332.6</ele>
        <time>1970-01-01T00:27:12.000Z</time>
      </trkpt>
      <trkpt lat="42.354685" lon="1.924647">
        <ele>1332.3</ele>
        <time>1970-01-01T00:27:14.000Z</time>
      </trkpt>
      <trkpt lat="42.354723" lon="1.924607">
        <ele>1332.1</ele>
        <time>1970-01-01T00:27:16.000Z</time>
      </trkpt>
      <trkpt lat="42.354773" lon="1.924558">
        <ele>1331.9</ele>
        <time>1970-01-01T00:27:19.000Z</time>
      </trkpt>
      <trkpt lat="42.354816" lon="1.92452">
        <ele>1331.9</ele>
        <time>1970-01-01T00:27:22.000Z</time>
      </trkpt>
      <trkpt lat="42.354856" lon="1.924471">
        <ele>1331.9</ele>
        <time>1970-01-01T00:27:27.000Z</time>
      </trkpt>
      <trkpt lat="42.354881" lon="1.924419">
        <ele>1332</ele>
        <time>1970-01-01T00:27:32.000Z</time>
      </trkpt>
      <trkpt lat="42.354904" lon="1.924361">
        <ele>1332.2</ele>
        <time>1970-01-01T00:27:37.000Z</time>
      </trkpt>
      <trkpt lat="42.354929" lon="1.924308">
        <ele>1332.3</ele>
        <time>1970-01-01T00:27:40.000Z</time>
      </trkpt>
      <trkpt lat="42.354955" lon="1.924243">
        <ele>1332.6</ele>
        <time>1970-01-01T00:27:43.000Z</time>
      </trkpt>
      <trkpt lat="42.354978" lon="1.924191">
        <ele>1332.8</ele>
        <time>1970-01-01T00:27:45.000Z</time>
      </trkpt>
      <trkpt lat="42.355022" lon="1.924123">
        <ele>1333.1</ele>
        <time>1970-01-01T00:27:48.000Z</time>
      </trkpt>
      <trkpt lat="42.355066" lon="1.92407">
        <ele>1333.4</ele>
        <time>1970-01-01T00:27:51.000Z</time>
      </trkpt>
      <trkpt lat="42.355105" lon="1.924035">
        <ele>1333.6</ele>
        <time>1970-01-01T00:27:53.000Z</time>
      </trkpt>
      <trkpt lat="42.35515" lon="1.923996">
        <ele>1333.7</ele>
        <time>1970-01-01T00:27:55.000Z</time>
      </trkpt>
      <trkpt lat="42.355198" lon="1.923949">
        <ele>1333.8</ele>
        <time>1970-01-01T00:27:57.000Z</time>
      </trkpt>
      <trkpt lat="42.355261" lon="1.923901">
        <ele>1333.8</ele>
        <time>1970-01-01T00:27:59.000Z</time>
      </trkpt>
      <trkpt lat="42.355332" lon="1.92385">
        <ele>1333.5</ele>
        <time>1970-01-01T00:28:01.000Z</time>
      </trkpt>
      <trkpt lat="42.355406" lon="1.923791">
        <ele>1333.1</ele>
        <time>1970-01-01T00:28:03.000Z</time>
      </trkpt>
      <trkpt lat="42.355444" lon="1.923758">
        <ele>1332.8</ele>
        <time>1970-01-01T00:28:04.000Z</time>
      </trkpt>
      <trkpt lat="42.355484" lon="1.923719">
        <ele>1332.5</ele>
        <time>1970-01-01T00:28:05.000Z</time>
      </trkpt>
      <trkpt lat="42.355552" lon="1.923651">
        <ele>1332</ele>
        <time>1970-01-01T00:28:07.000Z</time>
      </trkpt>
      <trkpt lat="42.355617" lon="1.923579">
        <ele>1331.5</ele>
        <time>1970-01-01T00:28:09.000Z</time>
      </trkpt>
      <trkpt lat="42.355681" lon="1.923496">
        <ele>1331</ele>
        <time>1970-01-01T00:28:11.000Z</time>
      </trkpt>
      <trkpt lat="42.355713" lon="1.923449">
        <ele>1330.7</ele>
        <time>1970-01-01T00:28:12.000Z</time>
      </trkpt>
      <trkpt lat="42.355776" lon="1.923364">
        <ele>1330.2</ele>
        <time>1970-01-01T00:28:14.000Z</time>
      </trkpt>
      <trkpt lat="42.355827" lon="1.923284">
        <ele>1329.7</ele>
        <time>1970-01-01T00:28:16.000Z</time>
      </trkpt>
      <trkpt lat="42.355864" lon="1.923219">
        <ele>1329.3</ele>
        <time>1970-01-01T00:28:18.000Z</time>
      </trkpt>
      <trkpt lat="42.355899" lon="1.923153">
        <ele>1328.9</ele>
        <time>1970-01-01T00:28:20.000Z</time>
      </trkpt>
      <trkpt lat="42.35593" lon="1.923087">
        <ele>1328.5</ele>
        <time>1970-01-01T00:28:23.000Z</time>
      </trkpt>
      <trkpt lat="42.355953" lon="1.923031">
        <ele>1328.2</ele>
        <time>1970-01-01T00:28:29.000Z</time>
      </trkpt>
      <trkpt lat="42.355976" lon="1.922976">
        <ele>1327.9</ele>
        <time>1970-01-01T00:28:34.000Z</time>
      </trkpt>
      <trkpt lat="42.356007" lon="1.922923">
        <ele>1327.6</ele>
        <time>1970-01-01T00:28:41.000Z</time>
      </trkpt>
      <trkpt lat="42.356034" lon="1.922861">
        <ele>1327.2</ele>
        <time>1970-01-01T00:28:49.000Z</time>
      </trkpt>
      <trkpt lat="42.356051" lon="1.922805">
        <ele>1327</ele>
        <time>1970-01-01T00:28:57.000Z</time>
      </trkpt>
      <trkpt lat="42.35606" lon="1.92274">
        <ele>1326.8</ele>
        <time>1970-01-01T00:29:26.000Z</time>
      </trkpt>
      <trkpt lat="42.356069" lon="1.922674">
        <ele>1326.6</ele>
        <time>1970-01-01T00:30:02.000Z</time>
      </trkpt>
      <trkpt lat="42.356099" lon="1.922613">
        <ele>1326.5</ele>
        <time>1970-01-01T00:30:04.000Z</time>
      </trkpt>
      <trkpt lat="42.356137" lon="1.922527">
        <ele>1326.4</ele>
        <time>1970-01-01T00:30:06.000Z</time>
      </trkpt>
      <trkpt lat="42.356167" lon="1.922435">
        <ele>1326.5</ele>
        <time>1970-01-01T00:30:08.000Z</time>
      </trkpt>
      <trkpt lat="42.356188" lon="1.922358">
        <ele>1326.7</ele>
        <time>1970-01-01T00:30:10.000Z</time>
      </trkpt>
      <trkpt lat="42.356205" lon="1.92229">
        <ele>1327</ele>
        <time>1970-01-01T00:30:12.000Z</time>
      </trkpt>
      <trkpt lat="42.356224" lon="1.922213">
        <ele>1327.5</ele>
        <time>1970-01-01T00:30:15.000Z</time>
      </trkpt>
      <trkpt lat="42.356241" lon="1.922144">
        <ele>1328.1</ele>
        <time>1970-01-01T00:30:17.000Z</time>
      </trkpt>
      <trkpt lat="42.356261" lon="1.922081">
        <ele>1328.8</ele>
        <time>1970-01-01T00:30:22.000Z</time>
      </trkpt>
      <trkpt lat="42.356291" lon="1.922031">
        <ele>1329.5</ele>
        <time>1970-01-01T00:30:32.000Z</time>
      </trkpt>
      <trkpt lat="42.356293" lon="1.921962">
        <ele>1330.4</ele>
        <time>1970-01-01T00:30:38.000Z</time>
      </trkpt>
      <trkpt lat="42.356308" lon="1.92189">
        <ele>1331.3</ele>
        <time>1970-01-01T00:30:43.000Z</time>
      </trkpt>
      <trkpt lat="42.356332" lon="1.921819">
        <ele>1332.2</ele>
        <time>1970-01-01T00:30:47.000Z</time>
      </trkpt>
      <trkpt lat="42.356357" lon="1.921752">
        <ele>1332.8</ele>
        <time>1970-01-01T00:30:51.000Z</time>
      </trkpt>
      <trkpt lat="42.356374" lon="1.921686">
        <ele>1333.3</ele>
        <time>1970-01-01T00:30:54.000Z</time>
      </trkpt>
      <trkpt lat="42.356389" lon="1.92162">
        <ele>1333.8</ele>
        <time>1970-01-01T00:30:57.000Z</time>
      </trkpt>
      <trkpt lat="42.356398" lon="1.921549">
        <ele>1334.1</ele>
        <time>1970-01-01T00:31:01.000Z</time>
      </trkpt>
      <trkpt lat="42.356405" lon="1.921487">
        <ele>1334.4</ele>
        <time>1970-01-01T00:31:04.000Z</time>
      </trkpt>
      <trkpt lat="42.356415" lon="1.921411">
        <ele>1334.7</ele>
        <time>1970-01-01T00:31:07.000Z</time>
      </trkpt>
      <trkpt lat="42.356421" lon="1.921332">
        <ele>1334.9</ele>
        <time>1970-01-01T00:31:10.000Z</time>
      </trkpt>
      <trkpt lat="42.356423" lon="1.921255">
        <ele>1335.2</ele>
        <time>1970-01-01T00:31:13.000Z</time>
      </trkpt>
      <trkpt lat="42.356427" lon="1.92119">
        <ele>1335.4</ele>
        <time>1970-01-01T00:31:16.000Z</time>
      </trkpt>
      <trkpt lat="42.356433" lon="1.921126">
        <ele>1335.7</ele>
        <time>1970-01-01T00:31:20.000Z</time>
      </trkpt>
      <trkpt lat="42.356437" lon="1.921065">
        <ele>1335.9</ele>
        <time>1970-01-01T00:31:37.000Z</time>
      </trkpt>
      <trkpt lat="42.35645" lon="1.921006">
        <ele>1336.1</ele>
        <time>1970-01-01T00:31:44.000Z</time>
      </trkpt>
      <trkpt lat="42.356466" lon="1.920939">
        <ele>1336.1</ele>
        <time>1970-01-01T00:31:54.000Z</time>
      </trkpt>
      <trkpt lat="42.356472" lon="1.920876">
        <ele>1336.1</ele>
        <time>1970-01-01T00:32:32.000Z</time>
      </trkpt>
      <trkpt lat="42.356464" lon="1.920816">
        <ele>1336</ele>
        <time>1970-01-01T00:32:48.000Z</time>
      </trkpt>
      <trkpt lat="42.35647" lon="1.920749">
        <ele>1335.8</ele>
        <time>1970-01-01T00:33:03.000Z</time>
      </trkpt>
      <trkpt lat="42.35648" lon="1.920689">
        <ele>1335.6</ele>
        <time>1970-01-01T00:33:12.000Z</time>
      </trkpt>
      <trkpt lat="42.35651" lon="1.920739">
        <ele>1335.3</ele>
        <time>1970-01-01T00:33:52.000Z</time>
      </trkpt>
      <trkpt lat="42.356514" lon="1.920804">
        <ele>1335</ele>
        <time>1970-01-01T00:34:00.000Z</time>
      </trkpt>
      <trkpt lat="42.356496" lon="1.920863">
        <ele>1334.8</ele>
        <time>1970-01-01T00:34:50.000Z</time>
      </trkpt>
      <trkpt lat="42.356495" lon="1.920802">
        <ele>1334.5</ele>
        <time>1970-01-01T00:35:38.000Z</time>
      </trkpt>
      <trkpt lat="42.356528" lon="1.920753">
        <ele>1334.3</ele>
        <time>1970-01-01T00:36:01.000Z</time>
      </trkpt>
      <trkpt lat="42.356554" lon="1.920695">
        <ele>1334.1</ele>
        <time>1970-01-01T00:36:04.000Z</time>
      </trkpt>
      <trkpt lat="42.356591" lon="1.920629">
        <ele>1333.8</ele>
        <time>1970-01-01T00:36:07.000Z</time>
      </trkpt>
      <trkpt lat="42.356628" lon="1.920579">
        <ele>1333.5</ele>
        <time>1970-01-01T00:36:09.000Z</time>
      </trkpt>
      <trkpt lat="42.356668" lon="1.920524">
        <ele>1333.2</ele>
        <time>1970-01-01T00:36:11.000Z</time>
      </trkpt>
      <trkpt lat="42.356708" lon="1.920454">
        <ele>1332.9</ele>
        <time>1970-01-01T00:36:13.000Z</time>
      </trkpt>
      <trkpt lat="42.356749" lon="1.920364">
        <ele>1332.5</ele>
        <time>1970-01-01T00:36:15.000Z</time>
      </trkpt>
      <trkpt lat="42.356791" lon="1.92026">
        <ele>1332</ele>
        <time>1970-01-01T00:36:17.000Z</time>
      </trkpt>
      <trkpt lat="42.356838" lon="1.920156">
        <ele>1331.4</ele>
        <time>1970-01-01T00:36:19.000Z</time>
      </trkpt>
      <trkpt lat="42.356863" lon="1.920103">
        <ele>1331.1</ele>
        <time>1970-01-01T00:36:20.000Z</time>
      </trkpt>
      <trkpt lat="42.356886" lon="1.920049">
        <ele>1330.8</ele>
        <time>1970-01-01T00:36:21.000Z</time>
      </trkpt>
      <trkpt lat="42.356906" lon="1.919994">
        <ele>1330.5</ele>
        <time>1970-01-01T00:36:22.000Z</time>
      </trkpt>
      <trkpt lat="42.356925" lon="1.919939">
        <ele>1330.2</ele>
        <time>1970-01-01T00:36:23.000Z</time>
      </trkpt>
      <trkpt lat="42.356962" lon="1.919837">
        <ele>1329.4</ele>
        <time>1970-01-01T00:36:25.000Z</time>
      </trkpt>
      <trkpt lat="42.356998" lon="1.919734">
        <ele>1328.5</ele>
        <time>1970-01-01T00:36:27.000Z</time>
      </trkpt>
      <trkpt lat="42.35703" lon="1.919627">
        <ele>1327.6</ele>
        <time>1970-01-01T00:36:29.000Z</time>
      </trkpt>
      <trkpt lat="42.357042" lon="1.919564">
        <ele>1327.2</ele>
        <time>1970-01-01T00:36:30.000Z</time>
      </trkpt>
      <trkpt lat="42.357053" lon="1.919496">
        <ele>1326.7</ele>
        <time>1970-01-01T00:36:31.000Z</time>
      </trkpt>
      <trkpt lat="42.357061" lon="1.919426">
        <ele>1326.2</ele>
        <time>1970-01-01T00:36:32.000Z</time>
      </trkpt>
      <trkpt lat="42.357069" lon="1.919358">
        <ele>1325.7</ele>
        <time>1970-01-01T00:36:33.000Z</time>
      </trkpt>
      <trkpt lat="42.357074" lon="1.919293">
        <ele>1325.1</ele>
        <time>1970-01-01T00:36:34.000Z</time>
      </trkpt>
      <trkpt lat="42.357081" lon="1.919185">
        <ele>1324</ele>
        <time>1970-01-01T00:36:36.000Z</time>
      </trkpt>
      <trkpt lat="42.357091" lon="1.919096">
        <ele>1322.8</ele>
        <time>1970-01-01T00:36:38.000Z</time>
      </trkpt>
      <trkpt lat="42.357108" lon="1.919008">
        <ele>1321.4</ele>
        <time>1970-01-01T00:36:40.000Z</time>
      </trkpt>
      <trkpt lat="42.357126" lon="1.918918">
        <ele>1319.8</ele>
        <time>1970-01-01T00:36:42.000Z</time>
      </trkpt>
      <trkpt lat="42.357149" lon="1.918815">
        <ele>1318</ele>
        <time>1970-01-01T00:36:44.000Z</time>
      </trkpt>
      <trkpt lat="42.357169" lon="1.918709">
        <ele>1316</ele>
        <time>1970-01-01T00:36:46.000Z</time>
      </trkpt>
      <trkpt lat="42.357183" lon="1.918608">
        <ele>1314</ele>
        <time>1970-01-01T00:36:48.000Z</time>
      </trkpt>
      <trkpt lat="42.357196" lon="1.918523">
        <ele>1312</ele>
        <time>1970-01-01T00:36:50.000Z</time>
      </trkpt>
      <trkpt lat="42.357219" lon="1.918455">
        <ele>1310.3</ele>
        <time>1970-01-01T00:36:52.000Z</time>
      </trkpt>
      <trkpt lat="42.357255" lon="1.918414">
        <ele>1308.8</ele>
        <time>1970-01-01T00:36:54.000Z</time>
      </trkpt>
      <trkpt lat="42.357295" lon="1.91838">
        <ele>1307.2</ele>
        <time>1970-01-01T00:36:56.000Z</time>
      </trkpt>
      <trkpt lat="42.357334" lon="1.918332">
        <ele>1305.5</ele>
        <time>1970-01-01T00:36:58.000Z</time>
      </trkpt>
      <trkpt lat="42.357369" lon="1.91828">
        <ele>1303.7</ele>
        <time>1970-01-01T00:37:00.000Z</time>
      </trkpt>
      <trkpt lat="42.357407" lon="1.918213">
        <ele>1301.5</ele>
        <time>1970-01-01T00:37:03.000Z</time>
      </trkpt>
      <trkpt lat="42.357434" lon="1.918157">
        <ele>1299.7</ele>
        <time>1970-01-01T00:37:07.000Z</time>
      </trkpt>
      <trkpt lat="42.357467" lon="1.918109">
        <ele>1298</ele>
        <time>1970-01-01T00:37:42.000Z</time>
      </trkpt>
      <trkpt lat="42.357479" lon="1.918049">
        <ele>1296.5</ele>
        <time>1970-01-01T00:38:57.000Z</time>
      </trkpt>
      <trkpt lat="42.357521" lon="1.91802">
        <ele>1295</ele>
        <time>1970-01-01T00:39:09.000Z</time>
      </trkpt>
      <trkpt lat="42.357566" lon="1.91801">
        <ele>1293.7</ele>
        <time>1970-01-01T00:39:25.000Z</time>
      </trkpt>
      <trkpt lat="42.357615" lon="1.917992">
        <ele>1293.3</ele>
        <time>1970-01-01T00:40:11.000Z</time>
      </trkpt>
      <trkpt lat="42.357651" lon="1.918048">
        <ele>1293.3</ele>
        <time>1970-01-01T00:42:05.000Z</time>
      </trkpt>
      <trkpt lat="42.357693" lon="1.918095">
        <ele>1292.9</ele>
        <time>1970-01-01T00:42:07.000Z</time>
      </trkpt>
      <trkpt lat="42.357745" lon="1.918155">
        <ele>1292.4</ele>
        <time>1970-01-01T00:42:09.000Z</time>
      </trkpt>
      <trkpt lat="42.357806" lon="1.918215">
        <ele>1291.8</ele>
        <time>1970-01-01T00:42:11.000Z</time>
      </trkpt>
      <trkpt lat="42.357868" lon="1.918277">
        <ele>1291.1</ele>
        <time>1970-01-01T00:42:13.000Z</time>
      </trkpt>
      <trkpt lat="42.357919" lon="1.918332">
        <ele>1290.4</ele>
        <time>1970-01-01T00:42:15.000Z</time>
      </trkpt>
      <trkpt lat="42.357958" lon="1.918373">
        <ele>1289.7</ele>
        <time>1970-01-01T00:42:17.000Z</time>
      </trkpt>
      <trkpt lat="42.358004" lon="1.918415">
        <ele>1288.7</ele>
        <time>1970-01-01T00:42:21.000Z</time>
      </trkpt>
      <trkpt lat="42.358048" lon="1.918455">
        <ele>1287.6</ele>
        <time>1970-01-01T00:42:26.000Z</time>
      </trkpt>
      <trkpt lat="42.358087" lon="1.918496">
        <ele>1286.4</ele>
        <time>1970-01-01T00:42:36.000Z</time>
      </trkpt>
      <trkpt lat="42.358121" lon="1.918546">
        <ele>1285.1</ele>
        <time>1970-01-01T00:42:43.000Z</time>
      </trkpt>
      <trkpt lat="42.358153" lon="1.918594">
        <ele>1283.7</ele>
        <time>1970-01-01T00:42:46.000Z</time>
      </trkpt>
      <trkpt lat="42.358192" lon="1.918637">
        <ele>1282.1</ele>
        <time>1970-01-01T00:42:48.000Z</time>
      </trkpt>
      <trkpt lat="42.358238" lon="1.918682">
        <ele>1280.4</ele>
        <time>1970-01-01T00:42:50.000Z</time>
      </trkpt>
      <trkpt lat="42.358288" lon="1.918719">
        <ele>1278.7</ele>
        <time>1970-01-01T00:42:52.000Z</time>
      </trkpt>
      <trkpt lat="42.358339" lon="1.918746">
        <ele>1277.1</ele>
        <time>1970-01-01T00:42:54.000Z</time>
      </trkpt>
      <trkpt lat="42.35839" lon="1.918762">
        <ele>1275.7</ele>
        <time>1970-01-01T00:42:56.000Z</time>
      </trkpt>
      <trkpt lat="42.358441" lon="1.918772">
        <ele>1274.3</ele>
        <time>1970-01-01T00:42:58.000Z</time>
      </trkpt>
      <trkpt lat="42.358496" lon="1.91878">
        <ele>1272.8</ele>
        <time>1970-01-01T00:43:00.000Z</time>
      </trkpt>
      <trkpt lat="42.358548" lon="1.918788">
        <ele>1271.4</ele>
        <time>1970-01-01T00:43:02.000Z</time>
      </trkpt>
      <trkpt lat="42.358597" lon="1.918796">
        <ele>1270</ele>
        <time>1970-01-01T00:43:04.000Z</time>
      </trkpt>
      <trkpt lat="42.358649" lon="1.918803">
        <ele>1268.6</ele>
        <time>1970-01-01T00:43:06.000Z</time>
      </trkpt>
      <trkpt lat="42.358708" lon="1.918813">
        <ele>1267</ele>
        <time>1970-01-01T00:43:08.000Z</time>
      </trkpt>
      <trkpt lat="42.358756" lon="1.918831">
        <ele>1265.6</ele>
        <time>1970-01-01T00:43:10.000Z</time>
      </trkpt>
      <trkpt lat="42.358807" lon="1.918871">
        <ele>1263.9</ele>
        <time>1970-01-01T00:43:13.000Z</time>
      </trkpt>
      <trkpt lat="42.358846" lon="1.918932">
        <ele>1262.2</ele>
        <time>1970-01-01T00:43:16.000Z</time>
      </trkpt>
      <trkpt lat="42.358901" lon="1.918955">
        <ele>1260.5</ele>
        <time>1970-01-01T00:43:19.000Z</time>
      </trkpt>
      <trkpt lat="42.358946" lon="1.918949">
        <ele>1259.1</ele>
        <time>1970-01-01T00:43:21.000Z</time>
      </trkpt>
      <trkpt lat="42.359" lon="1.918931">
        <ele>1257.4</ele>
        <time>1970-01-01T00:43:23.000Z</time>
      </trkpt>
      <trkpt lat="42.359069" lon="1.918899">
        <ele>1255.4</ele>
        <time>1970-01-01T00:43:25.000Z</time>
      </trkpt>
      <trkpt lat="42.359114" lon="1.918871">
        <ele>1254.2</ele>
        <time>1970-01-01T00:43:26.000Z</time>
      </trkpt>
      <trkpt lat="42.359161" lon="1.918836">
        <ele>1252.9</ele>
        <time>1970-01-01T00:43:27.000Z</time>
      </trkpt>
      <trkpt lat="42.359204" lon="1.918799">
        <ele>1251.9</ele>
        <time>1970-01-01T00:43:28.000Z</time>
      </trkpt>
      <trkpt lat="42.359246" lon="1.918759">
        <ele>1250.9</ele>
        <time>1970-01-01T00:43:29.000Z</time>
      </trkpt>
      <trkpt lat="42.359287" lon="1.918719">
        <ele>1250</ele>
        <time>1970-01-01T00:43:30.000Z</time>
      </trkpt>
      <trkpt lat="42.359331" lon="1.918678">
        <ele>1249.1</ele>
        <time>1970-01-01T00:43:31.000Z</time>
      </trkpt>
      <trkpt lat="42.359377" lon="1.918637">
        <ele>1248.3</ele>
        <time>1970-01-01T00:43:32.000Z</time>
      </trkpt>
      <trkpt lat="42.359419" lon="1.918603">
        <ele>1247.7</ele>
        <time>1970-01-01T00:43:33.000Z</time>
      </trkpt>
      <trkpt lat="42.35946" lon="1.91857">
        <ele>1247</ele>
        <time>1970-01-01T00:43:34.000Z</time>
      </trkpt>
      <trkpt lat="42.359502" lon="1.918536">
        <ele>1246.4</ele>
        <time>1970-01-01T00:43:35.000Z</time>
      </trkpt>
      <trkpt lat="42.359542" lon="1.9185">
        <ele>1245.8</ele>
        <time>1970-01-01T00:43:36.000Z</time>
      </trkpt>
      <trkpt lat="42.35958" lon="1.918462">
        <ele>1245.1</ele>
        <time>1970-01-01T00:43:37.000Z</time>
      </trkpt>
      <trkpt lat="42.359616" lon="1.918418">
        <ele>1244.4</ele>
        <time>1970-01-01T00:43:38.000Z</time>
      </trkpt>
      <trkpt lat="42.359706" lon="1.918307">
        <ele>1242.8</ele>
        <time>1970-01-01T00:43:39.000Z</time>
      </trkpt>
      <trkpt lat="42.359795" lon="1.918195">
        <ele>1241.2</ele>
        <time>1970-01-01T00:43:40.000Z</time>
      </trkpt>
      <trkpt lat="42.359826" lon="1.918146">
        <ele>1240.6</ele>
        <time>1970-01-01T00:43:41.000Z</time>
      </trkpt>
      <trkpt lat="42.359861" lon="1.918097">
        <ele>1240</ele>
        <time>1970-01-01T00:43:46.000Z</time>
      </trkpt>
      <trkpt lat="42.35989" lon="1.918044">
        <ele>1239.4</ele>
        <time>1970-01-01T00:44:47.000Z</time>
      </trkpt>
      <trkpt lat="42.359845" lon="1.918058">
        <ele>1238.8</ele>
        <time>1970-01-01T00:45:37.000Z</time>
      </trkpt>
      <trkpt lat="42.359885" lon="1.918024">
        <ele>1238.1</ele>
        <time>1970-01-01T00:46:19.000Z</time>
      </trkpt>
      <trkpt lat="42.359913" lon="1.917972">
        <ele>1237.4</ele>
        <time>1970-01-01T00:46:24.000Z</time>
      </trkpt>
      <trkpt lat="42.359935" lon="1.917905">
        <ele>1236.5</ele>
        <time>1970-01-01T00:46:28.000Z</time>
      </trkpt>
      <trkpt lat="42.359956" lon="1.917849">
        <ele>1235.7</ele>
        <time>1970-01-01T00:46:33.000Z</time>
      </trkpt>
      <trkpt lat="42.359981" lon="1.917787">
        <ele>1234.8</ele>
        <time>1970-01-01T00:46:37.000Z</time>
      </trkpt>
      <trkpt lat="42.360005" lon="1.917726">
        <ele>1234</ele>
        <time>1970-01-01T00:46:43.000Z</time>
      </trkpt>
      <trkpt lat="42.360018" lon="1.917667">
        <ele>1233.4</ele>
        <time>1970-01-01T00:47:00.000Z</time>
      </trkpt>
      <trkpt lat="42.360011" lon="1.917728">
        <ele>1232.9</ele>
        <time>1970-01-01T00:47:19.000Z</time>
      </trkpt>
      <trkpt lat="42.359995" lon="1.917801">
        <ele>1232.4</ele>
        <time>1970-01-01T00:47:24.000Z</time>
      </trkpt>
      <trkpt lat="42.359987" lon="1.917871">
        <ele>1232.1</ele>
        <time>1970-01-01T00:47:30.000Z</time>
      </trkpt>
      <trkpt lat="42.360015" lon="1.917823">
        <ele>1231.8</ele>
        <time>1970-01-01T00:48:03.000Z</time>
      </trkpt>
      <trkpt lat="42.360035" lon="1.917768">
        <ele>1231.6</ele>
        <time>1970-01-01T00:48:07.000Z</time>
      </trkpt>
      <trkpt lat="42.360053" lon="1.91771">
        <ele>1231.4</ele>
        <time>1970-01-01T00:48:24.000Z</time>
      </trkpt>
      <trkpt lat="42.360076" lon="1.917652">
        <ele>1231.2</ele>
        <time>1970-01-01T00:48:50.000Z</time>
      </trkpt>
      <trkpt lat="42.360108" lon="1.917585">
        <ele>1231.1</ele>
        <time>1970-01-01T00:48:54.000Z</time>
      </trkpt>
      <trkpt lat="42.360131" lon="1.917532">
        <ele>1231</ele>
        <time>1970-01-01T00:48:56.000Z</time>
      </trkpt>
      <trkpt lat="42.360153" lon="1.917476">
        <ele>1230.9</ele>
        <time>1970-01-01T00:48:58.000Z</time>
      </trkpt>
      <trkpt lat="42.360175" lon="1.917413">
        <ele>1230.9</ele>
        <time>1970-01-01T00:49:00.000Z</time>
      </trkpt>
      <trkpt lat="42.360196" lon="1.917344">
        <ele>1230.8</ele>
        <time>1970-01-01T00:49:02.000Z</time>
      </trkpt>
      <trkpt lat="42.360215" lon="1.917276">
        <ele>1230.8</ele>
        <time>1970-01-01T00:49:04.000Z</time>
      </trkpt>
      <trkpt lat="42.360236" lon="1.917196">
        <ele>1230.6</ele>
        <time>1970-01-01T00:49:07.000Z</time>
      </trkpt>
      <trkpt lat="42.360251" lon="1.917135">
        <ele>1230.6</ele>
        <time>1970-01-01T00:49:10.000Z</time>
      </trkpt>
      <trkpt lat="42.360262" lon="1.917065">
        <ele>1230.5</ele>
        <time>1970-01-01T00:49:15.000Z</time>
      </trkpt>
      <trkpt lat="42.360276" lon="1.917001">
        <ele>1230.4</ele>
        <time>1970-01-01T00:49:22.000Z</time>
      </trkpt>
      <trkpt lat="42.360295" lon="1.916932">
        <ele>1230.3</ele>
        <time>1970-01-01T00:49:30.000Z</time>
      </trkpt>
      <trkpt lat="42.360308" lon="1.916865">
        <ele>1230.2</ele>
        <time>1970-01-01T00:49:33.000Z</time>
      </trkpt>
      <trkpt lat="42.360321" lon="1.916801">
        <ele>1230.2</ele>
        <time>1970-01-01T00:49:35.000Z</time>
      </trkpt>
      <trkpt lat="42.360335" lon="1.916741">
        <ele>1230.2</ele>
        <time>1970-01-01T00:49:37.000Z</time>
      </trkpt>
      <trkpt lat="42.360362" lon="1.916642">
        <ele>1230.1</ele>
        <time>1970-01-01T00:49:40.000Z</time>
      </trkpt>
      <trkpt lat="42.360382" lon="1.916581">
        <ele>1230.1</ele>
        <time>1970-01-01T00:49:43.000Z</time>
      </trkpt>
      <trkpt lat="42.360419" lon="1.916526">
        <ele>1230.1</ele>
        <time>1970-01-01T00:49:46.000Z</time>
      </trkpt>
      <trkpt lat="42.360461" lon="1.916481">
        <ele>1230</ele>
        <time>1970-01-01T00:49:49.000Z</time>
      </trkpt>
      <trkpt lat="42.360501" lon="1.916436">
        <ele>1230</ele>
        <time>1970-01-01T00:49:52.000Z</time>
      </trkpt>
      <trkpt lat="42.360549" lon="1.916389">
        <ele>1230.1</ele>
        <time>1970-01-01T00:49:55.000Z</time>
      </trkpt>
      <trkpt lat="42.360584" lon="1.916349">
        <ele>1230.1</ele>
        <time>1970-01-01T00:49:57.000Z</time>
      </trkpt>
      <trkpt lat="42.360619" lon="1.916301">
        <ele>1230.1</ele>
        <time>1970-01-01T00:49:59.000Z</time>
      </trkpt>
      <trkpt lat="42.360643" lon="1.916248">
        <ele>1230.1</ele>
        <time>1970-01-01T00:50:01.000Z</time>
      </trkpt>
      <trkpt lat="42.360653" lon="1.91617">
        <ele>1230.2</ele>
        <time>1970-01-01T00:50:04.000Z</time>
      </trkpt>
      <trkpt lat="42.360662" lon="1.916105">
        <ele>1230.2</ele>
        <time>1970-01-01T00:50:07.000Z</time>
      </trkpt>
      <trkpt lat="42.3607" lon="1.916055">
        <ele>1230.2</ele>
        <time>1970-01-01T00:50:09.000Z</time>
      </trkpt>
      <trkpt lat="42.360739" lon="1.915987">
        <ele>1230.1</ele>
        <time>1970-01-01T00:50:11.000Z</time>
      </trkpt>
      <trkpt lat="42.360767" lon="1.915906">
        <ele>1230</ele>
        <time>1970-01-01T00:50:13.000Z</time>
      </trkpt>
      <trkpt lat="42.360784" lon="1.915826">
        <ele>1229.9</ele>
        <time>1970-01-01T00:50:15.000Z</time>
      </trkpt>
      <trkpt lat="42.360794" lon="1.91575">
        <ele>1229.8</ele>
        <time>1970-01-01T00:50:17.000Z</time>
      </trkpt>
      <trkpt lat="42.360798" lon="1.915678">
        <ele>1229.7</ele>
        <time>1970-01-01T00:50:19.000Z</time>
      </trkpt>
      <trkpt lat="42.36081" lon="1.915614">
        <ele>1229.7</ele>
        <time>1970-01-01T00:50:21.000Z</time>
      </trkpt>
      <trkpt lat="42.360824" lon="1.915553">
        <ele>1229.6</ele>
        <time>1970-01-01T00:50:23.000Z</time>
      </trkpt>
      <trkpt lat="42.360841" lon="1.915484">
        <ele>1229.5</ele>
        <time>1970-01-01T00:50:25.000Z</time>
      </trkpt>
      <trkpt lat="42.360861" lon="1.91541">
        <ele>1229.4</ele>
        <time>1970-01-01T00:50:27.000Z</time>
      </trkpt>
      <trkpt lat="42.360885" lon="1.915334">
        <ele>1229.3</ele>
        <time>1970-01-01T00:50:29.000Z</time>
      </trkpt>
      <trkpt lat="42.360909" lon="1.915262">
        <ele>1229.2</ele>
        <time>1970-01-01T00:50:31.000Z</time>
      </trkpt>
      <trkpt lat="42.360928" lon="1.915198">
        <ele>1229.1</ele>
        <time>1970-01-01T00:50:33.000Z</time>
      </trkpt>
      <trkpt lat="42.360949" lon="1.915136">
        <ele>1228.8</ele>
        <time>1970-01-01T00:50:36.000Z</time>
      </trkpt>
      <trkpt lat="42.360971" lon="1.915076">
        <ele>1228.2</ele>
        <time>1970-01-01T00:50:42.000Z</time>
      </trkpt>
      <trkpt lat="42.360995" lon="1.915019">
        <ele>1227.5</ele>
        <time>1970-01-01T00:50:51.000Z</time>
      </trkpt>
      <trkpt lat="42.361043" lon="1.915001">
        <ele>1226.7</ele>
        <time>1970-01-01T00:50:58.000Z</time>
      </trkpt>
      <trkpt lat="42.361093" lon="1.91499">
        <ele>1225.7</ele>
        <time>1970-01-01T00:51:07.000Z</time>
      </trkpt>
      <trkpt lat="42.361137" lon="1.914961">
        <ele>1224.8</ele>
        <time>1970-01-01T00:51:13.000Z</time>
      </trkpt>
      <trkpt lat="42.361181" lon="1.914943">
        <ele>1223.9</ele>
        <time>1970-01-01T00:51:49.000Z</time>
      </trkpt>
      <trkpt lat="42.361224" lon="1.914919">
        <ele>1223.1</ele>
        <time>1970-01-01T00:52:17.000Z</time>
      </trkpt>
      <trkpt lat="42.36127" lon="1.914875">
        <ele>1222.3</ele>
        <time>1970-01-01T00:52:25.000Z</time>
      </trkpt>
      <trkpt lat="42.361317" lon="1.914826">
        <ele>1221.4</ele>
        <time>1970-01-01T00:52:28.000Z</time>
      </trkpt>
      <trkpt lat="42.361354" lon="1.914785">
        <ele>1220.8</ele>
        <time>1970-01-01T00:52:30.000Z</time>
      </trkpt>
      <trkpt lat="42.361395" lon="1.914737">
        <ele>1220.1</ele>
        <time>1970-01-01T00:52:32.000Z</time>
      </trkpt>
      <trkpt lat="42.361446" lon="1.914696">
        <ele>1219.4</ele>
        <time>1970-01-01T00:52:34.000Z</time>
      </trkpt>
      <trkpt lat="42.361498" lon="1.914655">
        <ele>1218.6</ele>
        <time>1970-01-01T00:52:36.000Z</time>
      </trkpt>
      <trkpt lat="42.361541" lon="1.914628">
        <ele>1217.9</ele>
        <time>1970-01-01T00:52:38.000Z</time>
      </trkpt>
      <trkpt lat="42.361582" lon="1.914598">
        <ele>1217.3</ele>
        <time>1970-01-01T00:52:42.000Z</time>
      </trkpt>
      <trkpt lat="42.361623" lon="1.914561">
        <ele>1216.6</ele>
        <time>1970-01-01T00:52:47.000Z</time>
      </trkpt>
      <trkpt lat="42.361675" lon="1.914525">
        <ele>1216</ele>
        <time>1970-01-01T00:52:50.000Z</time>
      </trkpt>
      <trkpt lat="42.361718" lon="1.914497">
        <ele>1215.6</ele>
        <time>1970-01-01T00:52:52.000Z</time>
      </trkpt>
      <trkpt lat="42.361772" lon="1.914454">
        <ele>1215.1</ele>
        <time>1970-01-01T00:52:55.000Z</time>
      </trkpt>
      <trkpt lat="42.36183" lon="1.91441">
        <ele>1214.7</ele>
        <time>1970-01-01T00:52:58.000Z</time>
      </trkpt>
      <trkpt lat="42.361886" lon="1.914372">
        <ele>1214.3</ele>
        <time>1970-01-01T00:53:01.000Z</time>
      </trkpt>
      <trkpt lat="42.361945" lon="1.914328">
        <ele>1214</ele>
        <time>1970-01-01T00:53:04.000Z</time>
      </trkpt>
      <trkpt lat="42.361986" lon="1.914294">
        <ele>1213.7</ele>
        <time>1970-01-01T00:53:06.000Z</time>
      </trkpt>
      <trkpt lat="42.362026" lon="1.914259">
        <ele>1213.5</ele>
        <time>1970-01-01T00:53:08.000Z</time>
      </trkpt>
      <trkpt lat="42.362071" lon="1.914216">
        <ele>1213.3</ele>
        <time>1970-01-01T00:53:10.000Z</time>
      </trkpt>
      <trkpt lat="42.362113" lon="1.914171">
        <ele>1213.2</ele>
        <time>1970-01-01T00:53:12.000Z</time>
      </trkpt>
      <trkpt lat="42.362151" lon="1.91412">
        <ele>1213</ele>
        <time>1970-01-01T00:53:14.000Z</time>
      </trkpt>
      <trkpt lat="42.362195" lon="1.914065">
        <ele>1212.9</ele>
        <time>1970-01-01T00:53:16.000Z</time>
      </trkpt>
      <trkpt lat="42.362235" lon="1.914017">
        <ele>1212.8</ele>
        <time>1970-01-01T00:53:18.000Z</time>
      </trkpt>
      <trkpt lat="42.362276" lon="1.91397">
        <ele>1212.7</ele>
        <time>1970-01-01T00:53:20.000Z</time>
      </trkpt>
      <trkpt lat="42.36232" lon="1.913917">
        <ele>1212.6</ele>
        <time>1970-01-01T00:53:22.000Z</time>
      </trkpt>
      <trkpt lat="42.362359" lon="1.913852">
        <ele>1212.4</ele>
        <time>1970-01-01T00:53:24.000Z</time>
      </trkpt>
      <trkpt lat="42.362386" lon="1.913789">
        <ele>1212.3</ele>
        <time>1970-01-01T00:53:26.000Z</time>
      </trkpt>
      <trkpt lat="42.362411" lon="1.913725">
        <ele>1212.2</ele>
        <time>1970-01-01T00:53:28.000Z</time>
      </trkpt>
      <trkpt lat="42.362437" lon="1.913667">
        <ele>1212.1</ele>
        <time>1970-01-01T00:53:30.000Z</time>
      </trkpt>
      <trkpt lat="42.362457" lon="1.913609">
        <ele>1212</ele>
        <time>1970-01-01T00:53:32.000Z</time>
      </trkpt>
      <trkpt lat="42.362481" lon="1.913544">
        <ele>1211.9</ele>
        <time>1970-01-01T00:53:34.000Z</time>
      </trkpt>
      <trkpt lat="42.36251" lon="1.913478">
        <ele>1211.9</ele>
        <time>1970-01-01T00:53:36.000Z</time>
      </trkpt>
      <trkpt lat="42.362538" lon="1.913403">
        <ele>1211.8</ele>
        <time>1970-01-01T00:53:38.000Z</time>
      </trkpt>
      <trkpt lat="42.362561" lon="1.913325">
        <ele>1211.8</ele>
        <time>1970-01-01T00:53:40.000Z</time>
      </trkpt>
      <trkpt lat="42.362581" lon="1.913251">
        <ele>1211.8</ele>
        <time>1970-01-01T00:53:42.000Z</time>
      </trkpt>
      <trkpt lat="42.362594" lon="1.913182">
        <ele>1211.7</ele>
        <time>1970-01-01T00:53:44.000Z</time>
      </trkpt>
      <trkpt lat="42.362605" lon="1.913114">
        <ele>1211.7</ele>
        <time>1970-01-01T00:53:46.000Z</time>
      </trkpt>
      <trkpt lat="42.362621" lon="1.913044">
        <ele>1211.7</ele>
        <time>1970-01-01T00:53:48.000Z</time>
      </trkpt>
      <trkpt lat="42.362635" lon="1.912983">
        <ele>1211.6</ele>
        <time>1970-01-01T00:53:50.000Z</time>
      </trkpt>
      <trkpt lat="42.362654" lon="1.91291">
        <ele>1211.5</ele>
        <time>1970-01-01T00:53:52.000Z</time>
      </trkpt>
      <trkpt lat="42.362677" lon="1.912814">
        <ele>1211.4</ele>
        <time>1970-01-01T00:53:54.000Z</time>
      </trkpt>
      <trkpt lat="42.362703" lon="1.912721">
        <ele>1211.3</ele>
        <time>1970-01-01T00:53:56.000Z</time>
      </trkpt>
      <trkpt lat="42.36273" lon="1.912633">
        <ele>1211.2</ele>
        <time>1970-01-01T00:53:58.000Z</time>
      </trkpt>
      <trkpt lat="42.362754" lon="1.912554">
        <ele>1211.2</ele>
        <time>1970-01-01T00:54:00.000Z</time>
      </trkpt>
      <trkpt lat="42.362778" lon="1.912462">
        <ele>1211.1</ele>
        <time>1970-01-01T00:54:02.000Z</time>
      </trkpt>
      <trkpt lat="42.362804" lon="1.912353">
        <ele>1211.1</ele>
        <time>1970-01-01T00:54:04.000Z</time>
      </trkpt>
      <trkpt lat="42.362833" lon="1.912244">
        <ele>1211.1</ele>
        <time>1970-01-01T00:54:06.000Z</time>
      </trkpt>
      <trkpt lat="42.36286" lon="1.912139">
        <ele>1211.2</ele>
        <time>1970-01-01T00:54:08.000Z</time>
      </trkpt>
      <trkpt lat="42.362885" lon="1.912034">
        <ele>1211.3</ele>
        <time>1970-01-01T00:54:10.000Z</time>
      </trkpt>
      <trkpt lat="42.36291" lon="1.911938">
        <ele>1211.4</ele>
        <time>1970-01-01T00:54:12.000Z</time>
      </trkpt>
      <trkpt lat="42.362931" lon="1.911858">
        <ele>1211.5</ele>
        <time>1970-01-01T00:54:14.000Z</time>
      </trkpt>
      <trkpt lat="42.362956" lon="1.91178">
        <ele>1211.6</ele>
        <time>1970-01-01T00:54:16.000Z</time>
      </trkpt>
      <trkpt lat="42.362976" lon="1.911711">
        <ele>1211.7</ele>
        <time>1970-01-01T00:54:18.000Z</time>
      </trkpt>
      <trkpt lat="42.363" lon="1.911644">
        <ele>1211.9</ele>
        <time>1970-01-01T00:54:20.000Z</time>
      </trkpt>
      <trkpt lat="42.363025" lon="1.911582">
        <ele>1212</ele>
        <time>1970-01-01T00:54:22.000Z</time>
      </trkpt>
      <trkpt lat="42.363049" lon="1.911529">
        <ele>1212.1</ele>
        <time>1970-01-01T00:54:24.000Z</time>
      </trkpt>
      <trkpt lat="42.363077" lon="1.911456">
        <ele>1212.2</ele>
        <time>1970-01-01T00:54:27.000Z</time>
      </trkpt>
      <trkpt lat="42.363094" lon="1.911397">
        <ele>1212.3</ele>
        <time>1970-01-01T00:54:29.000Z</time>
      </trkpt>
      <trkpt lat="42.363115" lon="1.91134">
        <ele>1212.3</ele>
        <time>1970-01-01T00:54:31.000Z</time>
      </trkpt>
      <trkpt lat="42.363134" lon="1.911275">
        <ele>1212.3</ele>
        <time>1970-01-01T00:54:34.000Z</time>
      </trkpt>
      <trkpt lat="42.363157" lon="1.911202">
        <ele>1212.3</ele>
        <time>1970-01-01T00:54:37.000Z</time>
      </trkpt>
      <trkpt lat="42.363186" lon="1.91113">
        <ele>1212.2</ele>
        <time>1970-01-01T00:54:40.000Z</time>
      </trkpt>
      <trkpt lat="42.363214" lon="1.911061">
        <ele>1211.9</ele>
        <time>1970-01-01T00:54:43.000Z</time>
      </trkpt>
      <trkpt lat="42.36325" lon="1.910993">
        <ele>1211.7</ele>
        <time>1970-01-01T00:54:46.000Z</time>
      </trkpt>
      <trkpt lat="42.363286" lon="1.910926">
        <ele>1211.4</ele>
        <time>1970-01-01T00:54:49.000Z</time>
      </trkpt>
      <trkpt lat="42.363322" lon="1.910855">
        <ele>1211.2</ele>
        <time>1970-01-01T00:54:52.000Z</time>
      </trkpt>
      <trkpt lat="42.363358" lon="1.910781">
        <ele>1211</ele>
        <time>1970-01-01T00:54:55.000Z</time>
      </trkpt>
      <trkpt lat="42.363382" lon="1.910721">
        <ele>1210.8</ele>
        <time>1970-01-01T00:54:57.000Z</time>
      </trkpt>
      <trkpt lat="42.36341" lon="1.910661">
        <ele>1210.7</ele>
        <time>1970-01-01T00:54:59.000Z</time>
      </trkpt>
      <trkpt lat="42.363441" lon="1.910591">
        <ele>1210.5</ele>
        <time>1970-01-01T00:55:01.000Z</time>
      </trkpt>
      <trkpt lat="42.363474" lon="1.91052">
        <ele>1210.3</ele>
        <time>1970-01-01T00:55:03.000Z</time>
      </trkpt>
      <trkpt lat="42.363502" lon="1.910458">
        <ele>1210.2</ele>
        <time>1970-01-01T00:55:05.000Z</time>
      </trkpt>
      <trkpt lat="42.36353" lon="1.910393">
        <ele>1210.1</ele>
        <time>1970-01-01T00:55:07.000Z</time>
      </trkpt>
      <trkpt lat="42.363553" lon="1.910322">
        <ele>1209.9</ele>
        <time>1970-01-01T00:55:09.000Z</time>
      </trkpt>
      <trkpt lat="42.363572" lon="1.910239">
        <ele>1209.8</ele>
        <time>1970-01-01T00:55:11.000Z</time>
      </trkpt>
      <trkpt lat="42.363583" lon="1.910156">
        <ele>1209.7</ele>
        <time>1970-01-01T00:55:13.000Z</time>
      </trkpt>
      <trkpt lat="42.363593" lon="1.910066">
        <ele>1209.7</ele>
        <time>1970-01-01T00:55:15.000Z</time>
      </trkpt>
      <trkpt lat="42.363607" lon="1.909995">
        <ele>1209.6</ele>
        <time>1970-01-01T00:55:17.000Z</time>
      </trkpt>
      <trkpt lat="42.363626" lon="1.909909">
        <ele>1209.6</ele>
        <time>1970-01-01T00:55:20.000Z</time>
      </trkpt>
      <trkpt lat="42.363634" lon="1.909822">
        <ele>1209.7</ele>
        <time>1970-01-01T00:55:23.000Z</time>
      </trkpt>
      <trkpt lat="42.363634" lon="1.909743">
        <ele>1209.6</ele>
        <time>1970-01-01T00:55:26.000Z</time>
      </trkpt>
      <trkpt lat="42.363634" lon="1.909679">
        <ele>1209.5</ele>
        <time>1970-01-01T00:55:29.000Z</time>
      </trkpt>
      <trkpt lat="42.363643" lon="1.909598">
        <ele>1209.3</ele>
        <time>1970-01-01T00:55:32.000Z</time>
      </trkpt>
      <trkpt lat="42.36365" lon="1.909537">
        <ele>1209.2</ele>
        <time>1970-01-01T00:55:34.000Z</time>
      </trkpt>
      <trkpt lat="42.363673" lon="1.909457">
        <ele>1208.9</ele>
        <time>1970-01-01T00:55:37.000Z</time>
      </trkpt>
      <trkpt lat="42.363702" lon="1.909391">
        <ele>1208.7</ele>
        <time>1970-01-01T00:55:39.000Z</time>
      </trkpt>
      <trkpt lat="42.363745" lon="1.909328">
        <ele>1208.5</ele>
        <time>1970-01-01T00:55:41.000Z</time>
      </trkpt>
      <trkpt lat="42.363779" lon="1.909242">
        <ele>1208.4</ele>
        <time>1970-01-01T00:55:43.000Z</time>
      </trkpt>
      <trkpt lat="42.363817" lon="1.909139">
        <ele>1208.2</ele>
        <time>1970-01-01T00:55:45.000Z</time>
      </trkpt>
      <trkpt lat="42.363859" lon="1.90905">
        <ele>1208.1</ele>
        <time>1970-01-01T00:55:47.000Z</time>
      </trkpt>
      <trkpt lat="42.363902" lon="1.908977">
        <ele>1208</ele>
        <time>1970-01-01T00:55:49.000Z</time>
      </trkpt>
      <trkpt lat="42.363947" lon="1.908909">
        <ele>1207.8</ele>
        <time>1970-01-01T00:55:51.000Z</time>
      </trkpt>
      <trkpt lat="42.36399" lon="1.908834">
        <ele>1207.7</ele>
        <time>1970-01-01T00:55:53.000Z</time>
      </trkpt>
      <trkpt lat="42.36402" lon="1.908755">
        <ele>1207.6</ele>
        <time>1970-01-01T00:55:55.000Z</time>
      </trkpt>
      <trkpt lat="42.364037" lon="1.908682">
        <ele>1207.6</ele>
        <time>1970-01-01T00:55:57.000Z</time>
      </trkpt>
      <trkpt lat="42.364049" lon="1.908611">
        <ele>1207.5</ele>
        <time>1970-01-01T00:55:59.000Z</time>
      </trkpt>
      <trkpt lat="42.364055" lon="1.908546">
        <ele>1207.5</ele>
        <time>1970-01-01T00:56:01.000Z</time>
      </trkpt>
      <trkpt lat="42.364061" lon="1.908477">
        <ele>1207.6</ele>
        <time>1970-01-01T00:56:04.000Z</time>
      </trkpt>
      <trkpt lat="42.364063" lon="1.908392">
        <ele>1207.7</ele>
        <time>1970-01-01T00:56:07.000Z</time>
      </trkpt>
      <trkpt lat="42.364055" lon="1.908327">
        <ele>1207.7</ele>
        <time>1970-01-01T00:56:09.000Z</time>
      </trkpt>
      <trkpt lat="42.364044" lon="1.908257">
        <ele>1207.7</ele>
        <time>1970-01-01T00:56:13.000Z</time>
      </trkpt>
      <trkpt lat="42.364037" lon="1.908193">
        <ele>1207.8</ele>
        <time>1970-01-01T00:56:19.000Z</time>
      </trkpt>
      <trkpt lat="42.364047" lon="1.908112">
        <ele>1207.8</ele>
        <time>1970-01-01T00:56:27.000Z</time>
      </trkpt>
      <trkpt lat="42.364068" lon="1.908056">
        <ele>1207.8</ele>
        <time>1970-01-01T00:56:29.000Z</time>
      </trkpt>
      <trkpt lat="42.364106" lon="1.907973">
        <ele>1207.7</ele>
        <time>1970-01-01T00:56:31.000Z</time>
      </trkpt>
      <trkpt lat="42.364163" lon="1.907877">
        <ele>1207.3</ele>
        <time>1970-01-01T00:56:33.000Z</time>
      </trkpt>
      <trkpt lat="42.364232" lon="1.907755">
        <ele>1206.8</ele>
        <time>1970-01-01T00:56:34.000Z</time>
      </trkpt>
      <trkpt lat="42.364301" lon="1.907633">
        <ele>1206.3</ele>
        <time>1970-01-01T00:56:35.000Z</time>
      </trkpt>
      <trkpt lat="42.36434" lon="1.907566">
        <ele>1206.1</ele>
        <time>1970-01-01T00:56:36.000Z</time>
      </trkpt>
      <trkpt lat="42.364367" lon="1.907501">
        <ele>1206</ele>
        <time>1970-01-01T00:56:37.000Z</time>
      </trkpt>
      <trkpt lat="42.364398" lon="1.907408">
        <ele>1205.9</ele>
        <time>1970-01-01T00:56:39.000Z</time>
      </trkpt>
      <trkpt lat="42.364432" lon="1.907346">
        <ele>1205.9</ele>
        <time>1970-01-01T00:56:41.000Z</time>
      </trkpt>
      <trkpt lat="42.364463" lon="1.907294">
        <ele>1205.9</ele>
        <time>1970-01-01T00:56:44.000Z</time>
      </trkpt>
      <trkpt lat="42.364503" lon="1.907227">
        <ele>1205.9</ele>
        <time>1970-01-01T00:56:47.000Z</time>
      </trkpt>
      <trkpt lat="42.364537" lon="1.907184">
        <ele>1205.9</ele>
        <time>1970-01-01T00:56:49.000Z</time>
      </trkpt>
      <trkpt lat="42.364579" lon="1.907136">
        <ele>1205.9</ele>
        <time>1970-01-01T00:56:51.000Z</time>
      </trkpt>
      <trkpt lat="42.364623" lon="1.907093">
        <ele>1205.8</ele>
        <time>1970-01-01T00:56:53.000Z</time>
      </trkpt>
      <trkpt lat="42.364661" lon="1.907016">
        <ele>1205.6</ele>
        <time>1970-01-01T00:56:57.000Z</time>
      </trkpt>
      <trkpt lat="42.364697" lon="1.906931">
        <ele>1205.2</ele>
        <time>1970-01-01T00:56:59.000Z</time>
      </trkpt>
      <trkpt lat="42.36474" lon="1.906841">
        <ele>1204.8</ele>
        <time>1970-01-01T00:57:01.000Z</time>
      </trkpt>
      <trkpt lat="42.364783" lon="1.906762">
        <ele>1204.3</ele>
        <time>1970-01-01T00:57:03.000Z</time>
      </trkpt>
      <trkpt lat="42.364826" lon="1.906687">
        <ele>1203.8</ele>
        <time>1970-01-01T00:57:05.000Z</time>
      </trkpt>
      <trkpt lat="42.364873" lon="1.906617">
        <ele>1203.5</ele>
        <time>1970-01-01T00:57:07.000Z</time>
      </trkpt>
      <trkpt lat="42.364934" lon="1.906545">
        <ele>1203.1</ele>
        <time>1970-01-01T00:57:09.000Z</time>
      </trkpt>
      <trkpt lat="42.364987" lon="1.90646">
        <ele>1202.8</ele>
        <time>1970-01-01T00:57:11.000Z</time>
      </trkpt>
      <trkpt lat="42.365026" lon="1.906378">
        <ele>1202.6</ele>
        <time>1970-01-01T00:57:13.000Z</time>
      </trkpt>
      <trkpt lat="42.36505" lon="1.90632">
        <ele>1202.4</ele>
        <time>1970-01-01T00:57:15.000Z</time>
      </trkpt>
      <trkpt lat="42.365085" lon="1.90624">
        <ele>1202.1</ele>
        <time>1970-01-01T00:57:18.000Z</time>
      </trkpt>
      <trkpt lat="42.365121" lon="1.906175">
        <ele>1201.8</ele>
        <time>1970-01-01T00:57:20.000Z</time>
      </trkpt>
      <trkpt lat="42.365166" lon="1.906114">
        <ele>1201.5</ele>
        <time>1970-01-01T00:57:22.000Z</time>
      </trkpt>
      <trkpt lat="42.365229" lon="1.906058">
        <ele>1200.9</ele>
        <time>1970-01-01T00:57:24.000Z</time>
      </trkpt>
      <trkpt lat="42.365307" lon="1.905998">
        <ele>1200.2</ele>
        <time>1970-01-01T00:57:26.000Z</time>
      </trkpt>
      <trkpt lat="42.365349" lon="1.90596">
        <ele>1199.7</ele>
        <time>1970-01-01T00:57:27.000Z</time>
      </trkpt>
      <trkpt lat="42.365395" lon="1.905916">
        <ele>1199.2</ele>
        <time>1970-01-01T00:57:28.000Z</time>
      </trkpt>
      <trkpt lat="42.365443" lon="1.905866">
        <ele>1198.7</ele>
        <time>1970-01-01T00:57:29.000Z</time>
      </trkpt>
      <trkpt lat="42.365486" lon="1.905817">
        <ele>1198.2</ele>
        <time>1970-01-01T00:57:30.000Z</time>
      </trkpt>
      <trkpt lat="42.365522" lon="1.905771">
        <ele>1197.8</ele>
        <time>1970-01-01T00:57:31.000Z</time>
      </trkpt>
      <trkpt lat="42.365584" lon="1.905688">
        <ele>1197.2</ele>
        <time>1970-01-01T00:57:32.000Z</time>
      </trkpt>
      <trkpt lat="42.365618" lon="1.905641">
        <ele>1196.8</ele>
        <time>1970-01-01T00:57:34.000Z</time>
      </trkpt>
      <trkpt lat="42.365665" lon="1.905626">
        <ele>1195.8</ele>
        <time>1970-01-01T00:57:43.000Z</time>
      </trkpt>
      <trkpt lat="42.365712" lon="1.905652">
        <ele>1195.1</ele>
        <time>1970-01-01T00:57:45.000Z</time>
      </trkpt>
      <trkpt lat="42.365807" lon="1.905697">
        <ele>1193.8</ele>
        <time>1970-01-01T00:57:46.000Z</time>
      </trkpt>
      <trkpt lat="42.365902" lon="1.905742">
        <ele>1192.8</ele>
        <time>1970-01-01T00:57:47.000Z</time>
      </trkpt>
      <trkpt lat="42.365958" lon="1.905778">
        <ele>1192.2</ele>
        <time>1970-01-01T00:57:48.000Z</time>
      </trkpt>
      <trkpt lat="42.366023" lon="1.905807">
        <ele>1191.6</ele>
        <time>1970-01-01T00:57:49.000Z</time>
      </trkpt>
      <trkpt lat="42.366084" lon="1.90583">
        <ele>1191</ele>
        <time>1970-01-01T00:57:50.000Z</time>
      </trkpt>
      <trkpt lat="42.366139" lon="1.905856">
        <ele>1190.3</ele>
        <time>1970-01-01T00:57:51.000Z</time>
      </trkpt>
      <trkpt lat="42.36619" lon="1.90587">
        <ele>1189.5</ele>
        <time>1970-01-01T00:57:52.000Z</time>
      </trkpt>
      <trkpt lat="42.366229" lon="1.905903">
        <ele>1188.6</ele>
        <time>1970-01-01T00:58:03.000Z</time>
      </trkpt>
      <trkpt lat="42.366274" lon="1.905909">
        <ele>1187.6</ele>
        <time>1970-01-01T00:58:22.000Z</time>
      </trkpt>
      <trkpt lat="42.366316" lon="1.905881">
        <ele>1186.4</ele>
        <time>1970-01-01T00:58:26.000Z</time>
      </trkpt>
      <trkpt lat="42.366358" lon="1.905853">
        <ele>1185.3</ele>
        <time>1970-01-01T00:58:35.000Z</time>
      </trkpt>
      <trkpt lat="42.366397" lon="1.905819">
        <ele>1184.4</ele>
        <time>1970-01-01T00:58:44.000Z</time>
      </trkpt>
      <trkpt lat="42.366432" lon="1.905774">
        <ele>1183.7</ele>
        <time>1970-01-01T00:58:48.000Z</time>
      </trkpt>
      <trkpt lat="42.366466" lon="1.905715">
        <ele>1183.1</ele>
        <time>1970-01-01T00:58:51.000Z</time>
      </trkpt>
      <trkpt lat="42.366494" lon="1.90566">
        <ele>1182.7</ele>
        <time>1970-01-01T00:58:53.000Z</time>
      </trkpt>
      <trkpt lat="42.366525" lon="1.905593">
        <ele>1182.4</ele>
        <time>1970-01-01T00:58:55.000Z</time>
      </trkpt>
      <trkpt lat="42.366549" lon="1.90551">
        <ele>1182.1</ele>
        <time>1970-01-01T00:58:57.000Z</time>
      </trkpt>
      <trkpt lat="42.36657" lon="1.905425">
        <ele>1181.9</ele>
        <time>1970-01-01T00:58:59.000Z</time>
      </trkpt>
      <trkpt lat="42.366589" lon="1.905339">
        <ele>1181.7</ele>
        <time>1970-01-01T00:59:01.000Z</time>
      </trkpt>
      <trkpt lat="42.366605" lon="1.905258">
        <ele>1181.6</ele>
        <time>1970-01-01T00:59:03.000Z</time>
      </trkpt>
      <trkpt lat="42.366619" lon="1.905189">
        <ele>1181.6</ele>
        <time>1970-01-01T00:59:05.000Z</time>
      </trkpt>
      <trkpt lat="42.366632" lon="1.905129">
        <ele>1181.5</ele>
        <time>1970-01-01T00:59:07.000Z</time>
      </trkpt>
      <trkpt lat="42.366663" lon="1.905042">
        <ele>1181.4</ele>
        <time>1970-01-01T00:59:10.000Z</time>
      </trkpt>
      <trkpt lat="42.366706" lon="1.904967">
        <ele>1181.3</ele>
        <time>1970-01-01T00:59:12.000Z</time>
      </trkpt>
      <trkpt lat="42.366768" lon="1.904888">
        <ele>1181.1</ele>
        <time>1970-01-01T00:59:14.000Z</time>
      </trkpt>
      <trkpt lat="42.366805" lon="1.904846">
        <ele>1181</ele>
        <time>1970-01-01T00:59:15.000Z</time>
      </trkpt>
      <trkpt lat="42.366873" lon="1.904773">
        <ele>1180.8</ele>
        <time>1970-01-01T00:59:17.000Z</time>
      </trkpt>
      <trkpt lat="42.366934" lon="1.904709">
        <ele>1180.6</ele>
        <time>1970-01-01T00:59:19.000Z</time>
      </trkpt>
      <trkpt lat="42.366983" lon="1.904648">
        <ele>1180.4</ele>
        <time>1970-01-01T00:59:21.000Z</time>
      </trkpt>
      <trkpt lat="42.367017" lon="1.904595">
        <ele>1180.4</ele>
        <time>1970-01-01T00:59:23.000Z</time>
      </trkpt>
      <trkpt lat="42.367042" lon="1.904538">
        <ele>1180.4</ele>
        <time>1970-01-01T00:59:25.000Z</time>
      </trkpt>
      <trkpt lat="42.367066" lon="1.904471">
        <ele>1180.3</ele>
        <time>1970-01-01T00:59:27.000Z</time>
      </trkpt>
      <trkpt lat="42.367092" lon="1.904392">
        <ele>1180.1</ele>
        <time>1970-01-01T00:59:29.000Z</time>
      </trkpt>
      <trkpt lat="42.367116" lon="1.904302">
        <ele>1179.9</ele>
        <time>1970-01-01T00:59:31.000Z</time>
      </trkpt>
      <trkpt lat="42.367154" lon="1.90419">
        <ele>1179.5</ele>
        <time>1970-01-01T00:59:33.000Z</time>
      </trkpt>
      <trkpt lat="42.367184" lon="1.904131">
        <ele>1179.2</ele>
        <time>1970-01-01T00:59:34.000Z</time>
      </trkpt>
      <trkpt lat="42.367219" lon="1.904075">
        <ele>1178.8</ele>
        <time>1970-01-01T00:59:35.000Z</time>
      </trkpt>
      <trkpt lat="42.367256" lon="1.904016">
        <ele>1178.3</ele>
        <time>1970-01-01T00:59:36.000Z</time>
      </trkpt>
      <trkpt lat="42.367295" lon="1.903952">
        <ele>1177.8</ele>
        <time>1970-01-01T00:59:37.000Z</time>
      </trkpt>
      <trkpt lat="42.367333" lon="1.903889">
        <ele>1177.2</ele>
        <time>1970-01-01T00:59:38.000Z</time>
      </trkpt>
      <trkpt lat="42.367429" lon="1.903715">
        <ele>1175.8</ele>
        <time>1970-01-01T00:59:39.000Z</time>
      </trkpt>
      <trkpt lat="42.367524" lon="1.903541">
        <ele>1174.6</ele>
        <time>1970-01-01T00:59:40.000Z</time>
      </trkpt>
      <trkpt lat="42.367567" lon="1.90345">
        <ele>1174.2</ele>
        <time>1970-01-01T00:59:41.000Z</time>
      </trkpt>
      <trkpt lat="42.367605" lon="1.903347">
        <ele>1173.8</ele>
        <time>1970-01-01T00:59:42.000Z</time>
      </trkpt>
      <trkpt lat="42.367636" lon="1.903262">
        <ele>1173.6</ele>
        <time>1970-01-01T00:59:43.000Z</time>
      </trkpt>
      <trkpt lat="42.367661" lon="1.90318">
        <ele>1173.3</ele>
        <time>1970-01-01T00:59:44.000Z</time>
      </trkpt>
      <trkpt lat="42.367683" lon="1.903111">
        <ele>1173.1</ele>
        <time>1970-01-01T00:59:45.000Z</time>
      </trkpt>
      <trkpt lat="42.367695" lon="1.90304">
        <ele>1172.9</ele>
        <time>1970-01-01T00:59:46.000Z</time>
      </trkpt>
      <trkpt lat="42.367706" lon="1.902968">
        <ele>1172.6</ele>
        <time>1970-01-01T00:59:47.000Z</time>
      </trkpt>
      <trkpt lat="42.367715" lon="1.902894">
        <ele>1172.3</ele>
        <time>1970-01-01T00:59:48.000Z</time>
      </trkpt>
      <trkpt lat="42.367724" lon="1.902829">
        <ele>1172</ele>
        <time>1970-01-01T00:59:49.000Z</time>
      </trkpt>
      <trkpt lat="42.367742" lon="1.902769">
        <ele>1171.7</ele>
        <time>1970-01-01T00:59:50.000Z</time>
      </trkpt>
      <trkpt lat="42.367764" lon="1.902698">
        <ele>1171.4</ele>
        <time>1970-01-01T00:59:51.000Z</time>
      </trkpt>
      <trkpt lat="42.367784" lon="1.902607">
        <ele>1171.1</ele>
        <time>1970-01-01T00:59:52.000Z</time>
      </trkpt>
      <trkpt lat="42.3678" lon="1.902527">
        <ele>1170.9</ele>
        <time>1970-01-01T00:59:53.000Z</time>
      </trkpt>
      <trkpt lat="42.367815" lon="1.902447">
        <ele>1170.6</ele>
        <time>1970-01-01T00:59:54.000Z</time>
      </trkpt>
      <trkpt lat="42.367828" lon="1.902373">
        <ele>1170.4</ele>
        <time>1970-01-01T00:59:55.000Z</time>
      </trkpt>
      <trkpt lat="42.367841" lon="1.902291">
        <ele>1170.2</ele>
        <time>1970-01-01T00:59:56.000Z</time>
      </trkpt>
      <trkpt lat="42.367856" lon="1.902216">
        <ele>1170</ele>
        <time>1970-01-01T00:59:57.000Z</time>
      </trkpt>
      <trkpt lat="42.367868" lon="1.90215">
        <ele>1169.8</ele>
        <time>1970-01-01T00:59:58.000Z</time>
      </trkpt>
      <trkpt lat="42.367876" lon="1.902087">
        <ele>1169.7</ele>
        <time>1970-01-01T00:59:59.000Z</time>
      </trkpt>
      <trkpt lat="42.367885" lon="1.902023">
        <ele>1169.6</ele>
        <time>1970-01-01T01:00:00.000Z</time>
      </trkpt>
      <trkpt lat="42.367897" lon="1.90195">
        <ele>1169.5</ele>
        <time>1970-01-01T01:00:01.000Z</time>
      </trkpt>
      <trkpt lat="42.367905" lon="1.901876">
        <ele>1169.4</ele>
        <time>1970-01-01T01:00:02.000Z</time>
      </trkpt>
      <trkpt lat="42.367912" lon="1.901799">
        <ele>1169.4</ele>
        <time>1970-01-01T01:00:03.000Z</time>
      </trkpt>
      <trkpt lat="42.367912" lon="1.901733">
        <ele>1169.3</ele>
        <time>1970-01-01T01:00:04.000Z</time>
      </trkpt>
      <trkpt lat="42.367935" lon="1.901622">
        <ele>1169.2</ele>
        <time>1970-01-01T01:00:06.000Z</time>
      </trkpt>
      <trkpt lat="42.367958" lon="1.901566">
        <ele>1169.2</ele>
        <time>1970-01-01T01:00:07.000Z</time>
      </trkpt>
      <trkpt lat="42.367981" lon="1.901511">
        <ele>1169.2</ele>
        <time>1970-01-01T01:00:08.000Z</time>
      </trkpt>
      <trkpt lat="42.368005" lon="1.901444">
        <ele>1169.1</ele>
        <time>1970-01-01T01:00:09.000Z</time>
      </trkpt>
      <trkpt lat="42.368027" lon="1.901378">
        <ele>1169.1</ele>
        <time>1970-01-01T01:00:10.000Z</time>
      </trkpt>
      <trkpt lat="42.368051" lon="1.901316">
        <ele>1169.1</ele>
        <time>1970-01-01T01:00:11.000Z</time>
      </trkpt>
      <trkpt lat="42.368072" lon="1.901255">
        <ele>1169</ele>
        <time>1970-01-01T01:00:12.000Z</time>
      </trkpt>
      <trkpt lat="42.368096" lon="1.901197">
        <ele>1169</ele>
        <time>1970-01-01T01:00:13.000Z</time>
      </trkpt>
      <trkpt lat="42.368136" lon="1.901155">
        <ele>1168.9</ele>
        <time>1970-01-01T01:00:14.000Z</time>
      </trkpt>
      <trkpt lat="42.3682" lon="1.901115">
        <ele>1168.7</ele>
        <time>1970-01-01T01:00:15.000Z</time>
      </trkpt>
      <trkpt lat="42.368256" lon="1.901067">
        <ele>1168.5</ele>
        <time>1970-01-01T01:00:16.000Z</time>
      </trkpt>
      <trkpt lat="42.368298" lon="1.901002">
        <ele>1168.3</ele>
        <time>1970-01-01T01:00:17.000Z</time>
      </trkpt>
      <trkpt lat="42.368334" lon="1.90094">
        <ele>1168.1</ele>
        <time>1970-01-01T01:00:18.000Z</time>
      </trkpt>
      <trkpt lat="42.368365" lon="1.900879">
        <ele>1168</ele>
        <time>1970-01-01T01:00:19.000Z</time>
      </trkpt>
      <trkpt lat="42.368384" lon="1.900824">
        <ele>1167.9</ele>
        <time>1970-01-01T01:00:21.000Z</time>
      </trkpt>
      <trkpt lat="42.368399" lon="1.900755">
        <ele>1167.7</ele>
        <time>1970-01-01T01:00:25.000Z</time>
      </trkpt>
      <trkpt lat="42.368405" lon="1.900678">
        <ele>1167.6</ele>
        <time>1970-01-01T01:00:28.000Z</time>
      </trkpt>
      <trkpt lat="42.368408" lon="1.900584">
        <ele>1167.4</ele>
        <time>1970-01-01T01:00:31.000Z</time>
      </trkpt>
      <trkpt lat="42.368447" lon="1.90039">
        <ele>1167</ele>
        <time>1970-01-01T01:00:33.000Z</time>
      </trkpt>
      <trkpt lat="42.368473" lon="1.900325">
        <ele>1166.8</ele>
        <time>1970-01-01T01:00:34.000Z</time>
      </trkpt>
      <trkpt lat="42.368496" lon="1.900265">
        <ele>1166.6</ele>
        <time>1970-01-01T01:00:35.000Z</time>
      </trkpt>
      <trkpt lat="42.368521" lon="1.900202">
        <ele>1166.5</ele>
        <time>1970-01-01T01:00:36.000Z</time>
      </trkpt>
      <trkpt lat="42.368547" lon="1.900138">
        <ele>1166.4</ele>
        <time>1970-01-01T01:00:37.000Z</time>
      </trkpt>
      <trkpt lat="42.368575" lon="1.900067">
        <ele>1166.2</ele>
        <time>1970-01-01T01:00:39.000Z</time>
      </trkpt>
      <trkpt lat="42.368596" lon="1.899995">
        <ele>1166.2</ele>
        <time>1970-01-01T01:00:42.000Z</time>
      </trkpt>
      <trkpt lat="42.36861" lon="1.89993">
        <ele>1166.1</ele>
        <time>1970-01-01T01:00:44.000Z</time>
      </trkpt>
      <trkpt lat="42.368627" lon="1.899857">
        <ele>1166.1</ele>
        <time>1970-01-01T01:00:46.000Z</time>
      </trkpt>
      <trkpt lat="42.368643" lon="1.89978">
        <ele>1166</ele>
        <time>1970-01-01T01:00:48.000Z</time>
      </trkpt>
      <trkpt lat="42.36866" lon="1.899697">
        <ele>1165.9</ele>
        <time>1970-01-01T01:00:50.000Z</time>
      </trkpt>
      <trkpt lat="42.36868" lon="1.899606">
        <ele>1165.8</ele>
        <time>1970-01-01T01:00:52.000Z</time>
      </trkpt>
      <trkpt lat="42.368742" lon="1.899382">
        <ele>1165.2</ele>
        <time>1970-01-01T01:00:54.000Z</time>
      </trkpt>
      <trkpt lat="42.368764" lon="1.899323">
        <ele>1165</ele>
        <time>1970-01-01T01:00:55.000Z</time>
      </trkpt>
      <trkpt lat="42.368784" lon="1.899257">
        <ele>1164.9</ele>
        <time>1970-01-01T01:00:56.000Z</time>
      </trkpt>
      <trkpt lat="42.368803" lon="1.899191">
        <ele>1164.7</ele>
        <time>1970-01-01T01:00:57.000Z</time>
      </trkpt>
      <trkpt lat="42.368838" lon="1.899088">
        <ele>1164.5</ele>
        <time>1970-01-01T01:00:59.000Z</time>
      </trkpt>
      <trkpt lat="42.368861" lon="1.89903">
        <ele>1164.4</ele>
        <time>1970-01-01T01:01:00.000Z</time>
      </trkpt>
      <trkpt lat="42.368888" lon="1.898978">
        <ele>1164.3</ele>
        <time>1970-01-01T01:01:01.000Z</time>
      </trkpt>
      <trkpt lat="42.368918" lon="1.898931">
        <ele>1164.2</ele>
        <time>1970-01-01T01:01:02.000Z</time>
      </trkpt>
      <trkpt lat="42.36896" lon="1.898872">
        <ele>1164.1</ele>
        <time>1970-01-01T01:01:04.000Z</time>
      </trkpt>
      <trkpt lat="42.369004" lon="1.898814">
        <ele>1164.1</ele>
        <time>1970-01-01T01:01:05.000Z</time>
      </trkpt>
      <trkpt lat="42.369074" lon="1.898731">
        <ele>1163.8</ele>
        <time>1970-01-01T01:01:07.000Z</time>
      </trkpt>
      <trkpt lat="42.369121" lon="1.898685">
        <ele>1163.7</ele>
        <time>1970-01-01T01:01:08.000Z</time>
      </trkpt>
      <trkpt lat="42.369171" lon="1.898635">
        <ele>1163.5</ele>
        <time>1970-01-01T01:01:09.000Z</time>
      </trkpt>
      <trkpt lat="42.369218" lon="1.898587">
        <ele>1163.3</ele>
        <time>1970-01-01T01:01:10.000Z</time>
      </trkpt>
      <trkpt lat="42.369263" lon="1.898544">
        <ele>1163.1</ele>
        <time>1970-01-01T01:01:11.000Z</time>
      </trkpt>
      <trkpt lat="42.369309" lon="1.898501">
        <ele>1162.9</ele>
        <time>1970-01-01T01:01:12.000Z</time>
      </trkpt>
      <trkpt lat="42.369359" lon="1.898461">
        <ele>1162.6</ele>
        <time>1970-01-01T01:01:13.000Z</time>
      </trkpt>
      <trkpt lat="42.369408" lon="1.898416">
        <ele>1162.3</ele>
        <time>1970-01-01T01:01:14.000Z</time>
      </trkpt>
      <trkpt lat="42.369463" lon="1.898372">
        <ele>1162</ele>
        <time>1970-01-01T01:01:15.000Z</time>
      </trkpt>
      <trkpt lat="42.369522" lon="1.898323">
        <ele>1161.7</ele>
        <time>1970-01-01T01:01:16.000Z</time>
      </trkpt>
      <trkpt lat="42.369589" lon="1.898265">
        <ele>1161.2</ele>
        <time>1970-01-01T01:01:17.000Z</time>
      </trkpt>
      <trkpt lat="42.369654" lon="1.898215">
        <ele>1160.7</ele>
        <time>1970-01-01T01:01:18.000Z</time>
      </trkpt>
      <trkpt lat="42.369724" lon="1.898182">
        <ele>1160.2</ele>
        <time>1970-01-01T01:01:19.000Z</time>
      </trkpt>
      <trkpt lat="42.369794" lon="1.898165">
        <ele>1159.7</ele>
        <time>1970-01-01T01:01:20.000Z</time>
      </trkpt>
      <trkpt lat="42.369856" lon="1.898105">
        <ele>1159.2</ele>
        <time>1970-01-01T01:01:21.000Z</time>
      </trkpt>
      <trkpt lat="42.369912" lon="1.898039">
        <ele>1158.8</ele>
        <time>1970-01-01T01:01:22.000Z</time>
      </trkpt>
      <trkpt lat="42.369976" lon="1.89799">
        <ele>1158.5</ele>
        <time>1970-01-01T01:01:23.000Z</time>
      </trkpt>
      <trkpt lat="42.370038" lon="1.897946">
        <ele>1158.2</ele>
        <time>1970-01-01T01:01:24.000Z</time>
      </trkpt>
      <trkpt lat="42.370108" lon="1.897902">
        <ele>1158</ele>
        <time>1970-01-01T01:01:25.000Z</time>
      </trkpt>
      <trkpt lat="42.370181" lon="1.897856">
        <ele>1157.8</ele>
        <time>1970-01-01T01:01:26.000Z</time>
      </trkpt>
      <trkpt lat="42.370242" lon="1.897821">
        <ele>1157.6</ele>
        <time>1970-01-01T01:01:27.000Z</time>
      </trkpt>
      <trkpt lat="42.370289" lon="1.897796">
        <ele>1157.5</ele>
        <time>1970-01-01T01:01:28.000Z</time>
      </trkpt>
      <trkpt lat="42.370331" lon="1.897772">
        <ele>1157.4</ele>
        <time>1970-01-01T01:01:29.000Z</time>
      </trkpt>
      <trkpt lat="42.370404" lon="1.897729">
        <ele>1157.1</ele>
        <time>1970-01-01T01:01:31.000Z</time>
      </trkpt>
      <trkpt lat="42.370453" lon="1.897652">
        <ele>1156.8</ele>
        <time>1970-01-01T01:01:33.000Z</time>
      </trkpt>
      <trkpt lat="42.370505" lon="1.897559">
        <ele>1156.5</ele>
        <time>1970-01-01T01:01:35.000Z</time>
      </trkpt>
      <trkpt lat="42.37052" lon="1.897501">
        <ele>1156.4</ele>
        <time>1970-01-01T01:01:36.000Z</time>
      </trkpt>
      <trkpt lat="42.370535" lon="1.897438">
        <ele>1156.2</ele>
        <time>1970-01-01T01:01:37.000Z</time>
      </trkpt>
      <trkpt lat="42.370549" lon="1.897371">
        <ele>1156.1</ele>
        <time>1970-01-01T01:01:38.000Z</time>
      </trkpt>
      <trkpt lat="42.370565" lon="1.897309">
        <ele>1155.9</ele>
        <time>1970-01-01T01:01:39.000Z</time>
      </trkpt>
      <trkpt lat="42.370577" lon="1.897243">
        <ele>1155.6</ele>
        <time>1970-01-01T01:01:40.000Z</time>
      </trkpt>
      <trkpt lat="42.370594" lon="1.897174">
        <ele>1155.4</ele>
        <time>1970-01-01T01:01:42.000Z</time>
      </trkpt>
      <trkpt lat="42.370635" lon="1.897115">
        <ele>1155.3</ele>
        <time>1970-01-01T01:01:45.000Z</time>
      </trkpt>
      <trkpt lat="42.370675" lon="1.897069">
        <ele>1155.3</ele>
        <time>1970-01-01T01:01:47.000Z</time>
      </trkpt>
      <trkpt lat="42.37072" lon="1.89701">
        <ele>1155.2</ele>
        <time>1970-01-01T01:01:49.000Z</time>
      </trkpt>
      <trkpt lat="42.370759" lon="1.89694">
        <ele>1155.1</ele>
        <time>1970-01-01T01:01:51.000Z</time>
      </trkpt>
      <trkpt lat="42.370832" lon="1.896808">
        <ele>1154.8</ele>
        <time>1970-01-01T01:01:52.000Z</time>
      </trkpt>
      <trkpt lat="42.37089" lon="1.896728">
        <ele>1154.4</ele>
        <time>1970-01-01T01:01:54.000Z</time>
      </trkpt>
      <trkpt lat="42.370961" lon="1.896658">
        <ele>1154</ele>
        <time>1970-01-01T01:01:56.000Z</time>
      </trkpt>
      <trkpt lat="42.371" lon="1.896616">
        <ele>1153.7</ele>
        <time>1970-01-01T01:01:57.000Z</time>
      </trkpt>
      <trkpt lat="42.371045" lon="1.896567">
        <ele>1153.3</ele>
        <time>1970-01-01T01:01:58.000Z</time>
      </trkpt>
      <trkpt lat="42.371098" lon="1.896518">
        <ele>1152.9</ele>
        <time>1970-01-01T01:01:59.000Z</time>
      </trkpt>
      <trkpt lat="42.371153" lon="1.896472">
        <ele>1152.6</ele>
        <time>1970-01-01T01:02:00.000Z</time>
      </trkpt>
      <trkpt lat="42.371214" lon="1.896425">
        <ele>1152.2</ele>
        <time>1970-01-01T01:02:01.000Z</time>
      </trkpt>
      <trkpt lat="42.371278" lon="1.896376">
        <ele>1151.7</ele>
        <time>1970-01-01T01:02:02.000Z</time>
      </trkpt>
      <trkpt lat="42.371343" lon="1.896332">
        <ele>1151.4</ele>
        <time>1970-01-01T01:02:03.000Z</time>
      </trkpt>
      <trkpt lat="42.371401" lon="1.896298">
        <ele>1151.1</ele>
        <time>1970-01-01T01:02:04.000Z</time>
      </trkpt>
      <trkpt lat="42.371462" lon="1.896257">
        <ele>1150.8</ele>
        <time>1970-01-01T01:02:05.000Z</time>
      </trkpt>
      <trkpt lat="42.371514" lon="1.896214">
        <ele>1150.6</ele>
        <time>1970-01-01T01:02:06.000Z</time>
      </trkpt>
      <trkpt lat="42.371563" lon="1.896175">
        <ele>1150.4</ele>
        <time>1970-01-01T01:02:07.000Z</time>
      </trkpt>
      <trkpt lat="42.37162" lon="1.896141">
        <ele>1150.1</ele>
        <time>1970-01-01T01:02:08.000Z</time>
      </trkpt>
      <trkpt lat="42.371665" lon="1.896115">
        <ele>1150</ele>
        <time>1970-01-01T01:02:09.000Z</time>
      </trkpt>
      <trkpt lat="42.371696" lon="1.896063">
        <ele>1149.8</ele>
        <time>1970-01-01T01:02:13.000Z</time>
      </trkpt>
      <trkpt lat="42.371731" lon="1.896022">
        <ele>1149.6</ele>
        <time>1970-01-01T01:02:16.000Z</time>
      </trkpt>
      <trkpt lat="42.37182" lon="1.895898">
        <ele>1149.2</ele>
        <time>1970-01-01T01:02:18.000Z</time>
      </trkpt>
      <trkpt lat="42.371852" lon="1.895848">
        <ele>1149</ele>
        <time>1970-01-01T01:02:19.000Z</time>
      </trkpt>
      <trkpt lat="42.371887" lon="1.895798">
        <ele>1148.8</ele>
        <time>1970-01-01T01:02:20.000Z</time>
      </trkpt>
      <trkpt lat="42.371922" lon="1.895746">
        <ele>1148.7</ele>
        <time>1970-01-01T01:02:21.000Z</time>
      </trkpt>
      <trkpt lat="42.371952" lon="1.895699">
        <ele>1148.6</ele>
        <time>1970-01-01T01:02:22.000Z</time>
      </trkpt>
      <trkpt lat="42.372008" lon="1.895596">
        <ele>1148.5</ele>
        <time>1970-01-01T01:02:24.000Z</time>
      </trkpt>
      <trkpt lat="42.372039" lon="1.895531">
        <ele>1148.5</ele>
        <time>1970-01-01T01:02:25.000Z</time>
      </trkpt>
      <trkpt lat="42.372078" lon="1.895471">
        <ele>1148.5</ele>
        <time>1970-01-01T01:02:26.000Z</time>
      </trkpt>
      <trkpt lat="42.372115" lon="1.895415">
        <ele>1148.5</ele>
        <time>1970-01-01T01:02:27.000Z</time>
      </trkpt>
      <trkpt lat="42.372152" lon="1.89536">
        <ele>1148.6</ele>
        <time>1970-01-01T01:02:28.000Z</time>
      </trkpt>
      <trkpt lat="42.372183" lon="1.895312">
        <ele>1148.7</ele>
        <time>1970-01-01T01:02:29.000Z</time>
      </trkpt>
      <trkpt lat="42.372208" lon="1.89526">
        <ele>1148.7</ele>
        <time>1970-01-01T01:02:30.000Z</time>
      </trkpt>
      <trkpt lat="42.372231" lon="1.895207">
        <ele>1148.8</ele>
        <time>1970-01-01T01:02:31.000Z</time>
      </trkpt>
      <trkpt lat="42.372256" lon="1.895153">
        <ele>1149</ele>
        <time>1970-01-01T01:02:32.000Z</time>
      </trkpt>
      <trkpt lat="42.372282" lon="1.8951">
        <ele>1149.1</ele>
        <time>1970-01-01T01:02:33.000Z</time>
      </trkpt>
      <trkpt lat="42.372306" lon="1.895048">
        <ele>1149.3</ele>
        <time>1970-01-01T01:02:34.000Z</time>
      </trkpt>
      <trkpt lat="42.372351" lon="1.894952">
        <ele>1149.7</ele>
        <time>1970-01-01T01:02:36.000Z</time>
      </trkpt>
      <trkpt lat="42.372391" lon="1.894869">
        <ele>1150</ele>
        <time>1970-01-01T01:02:38.000Z</time>
      </trkpt>
      <trkpt lat="42.372414" lon="1.894801">
        <ele>1150.4</ele>
        <time>1970-01-01T01:02:40.000Z</time>
      </trkpt>
      <trkpt lat="42.372432" lon="1.894719">
        <ele>1150.8</ele>
        <time>1970-01-01T01:02:43.000Z</time>
      </trkpt>
      <trkpt lat="42.372446" lon="1.894658">
        <ele>1151.1</ele>
        <time>1970-01-01T01:02:45.000Z</time>
      </trkpt>
      <trkpt lat="42.372458" lon="1.894583">
        <ele>1151.4</ele>
        <time>1970-01-01T01:02:48.000Z</time>
      </trkpt>
      <trkpt lat="42.372463" lon="1.89451">
        <ele>1151.8</ele>
        <time>1970-01-01T01:02:51.000Z</time>
      </trkpt>
      <trkpt lat="42.372469" lon="1.894422">
        <ele>1152.2</ele>
        <time>1970-01-01T01:02:54.000Z</time>
      </trkpt>
      <trkpt lat="42.37248" lon="1.894356">
        <ele>1152.5</ele>
        <time>1970-01-01T01:02:55.000Z</time>
      </trkpt>
      <trkpt lat="42.372488" lon="1.89429">
        <ele>1152.8</ele>
        <time>1970-01-01T01:02:57.000Z</time>
      </trkpt>
      <trkpt lat="42.37249" lon="1.894205">
        <ele>1153.2</ele>
        <time>1970-01-01T01:03:00.000Z</time>
      </trkpt>
      <trkpt lat="42.372501" lon="1.894114">
        <ele>1153.6</ele>
        <time>1970-01-01T01:03:03.000Z</time>
      </trkpt>
      <trkpt lat="42.372525" lon="1.894047">
        <ele>1153.9</ele>
        <time>1970-01-01T01:03:05.000Z</time>
      </trkpt>
      <trkpt lat="42.372543" lon="1.893984">
        <ele>1154.2</ele>
        <time>1970-01-01T01:03:07.000Z</time>
      </trkpt>
      <trkpt lat="42.372573" lon="1.893912">
        <ele>1154.4</ele>
        <time>1970-01-01T01:03:09.000Z</time>
      </trkpt>
      <trkpt lat="42.372607" lon="1.893843">
        <ele>1154.6</ele>
        <time>1970-01-01T01:03:11.000Z</time>
      </trkpt>
      <trkpt lat="42.372642" lon="1.893773">
        <ele>1154.9</ele>
        <time>1970-01-01T01:03:13.000Z</time>
      </trkpt>
      <trkpt lat="42.372684" lon="1.893693">
        <ele>1155.1</ele>
        <time>1970-01-01T01:03:15.000Z</time>
      </trkpt>
      <trkpt lat="42.37273" lon="1.893611">
        <ele>1155.3</ele>
        <time>1970-01-01T01:03:17.000Z</time>
      </trkpt>
      <trkpt lat="42.372773" lon="1.89353">
        <ele>1155.5</ele>
        <time>1970-01-01T01:03:19.000Z</time>
      </trkpt>
      <trkpt lat="42.372815" lon="1.893444">
        <ele>1155.7</ele>
        <time>1970-01-01T01:03:21.000Z</time>
      </trkpt>
      <trkpt lat="42.372855" lon="1.893359">
        <ele>1155.9</ele>
        <time>1970-01-01T01:03:23.000Z</time>
      </trkpt>
      <trkpt lat="42.372892" lon="1.893279">
        <ele>1156</ele>
        <time>1970-01-01T01:03:25.000Z</time>
      </trkpt>
      <trkpt lat="42.372925" lon="1.893199">
        <ele>1156.2</ele>
        <time>1970-01-01T01:03:27.000Z</time>
      </trkpt>
      <trkpt lat="42.372957" lon="1.89312">
        <ele>1156.3</ele>
        <time>1970-01-01T01:03:29.000Z</time>
      </trkpt>
      <trkpt lat="42.372991" lon="1.893037">
        <ele>1156.4</ele>
        <time>1970-01-01T01:03:31.000Z</time>
      </trkpt>
      <trkpt lat="42.373053" lon="1.892889">
        <ele>1156.4</ele>
        <time>1970-01-01T01:03:32.000Z</time>
      </trkpt>
      <trkpt lat="42.373094" lon="1.892814">
        <ele>1156.3</ele>
        <time>1970-01-01T01:03:35.000Z</time>
      </trkpt>
      <trkpt lat="42.373129" lon="1.892756">
        <ele>1156.2</ele>
        <time>1970-01-01T01:03:37.000Z</time>
      </trkpt>
      <trkpt lat="42.37318" lon="1.892699">
        <ele>1156.1</ele>
        <time>1970-01-01T01:03:39.000Z</time>
      </trkpt>
      <trkpt lat="42.373276" lon="1.892609">
        <ele>1155.6</ele>
        <time>1970-01-01T01:03:40.000Z</time>
      </trkpt>
      <trkpt lat="42.373321" lon="1.892567">
        <ele>1155.4</ele>
        <time>1970-01-01T01:03:41.000Z</time>
      </trkpt>
      <trkpt lat="42.373367" lon="1.892519">
        <ele>1155.1</ele>
        <time>1970-01-01T01:03:42.000Z</time>
      </trkpt>
      <trkpt lat="42.373414" lon="1.892471">
        <ele>1154.8</ele>
        <time>1970-01-01T01:03:43.000Z</time>
      </trkpt>
      <trkpt lat="42.373463" lon="1.892427">
        <ele>1154.6</ele>
        <time>1970-01-01T01:03:44.000Z</time>
      </trkpt>
      <trkpt lat="42.373512" lon="1.89238">
        <ele>1154.3</ele>
        <time>1970-01-01T01:03:45.000Z</time>
      </trkpt>
      <trkpt lat="42.37356" lon="1.892332">
        <ele>1154.1</ele>
        <time>1970-01-01T01:03:46.000Z</time>
      </trkpt>
      <trkpt lat="42.373611" lon="1.89228">
        <ele>1153.8</ele>
        <time>1970-01-01T01:03:47.000Z</time>
      </trkpt>
      <trkpt lat="42.373659" lon="1.89223">
        <ele>1153.6</ele>
        <time>1970-01-01T01:03:48.000Z</time>
      </trkpt>
      <trkpt lat="42.373704" lon="1.892171">
        <ele>1153.3</ele>
        <time>1970-01-01T01:03:49.000Z</time>
      </trkpt>
      <trkpt lat="42.373748" lon="1.89211">
        <ele>1153</ele>
        <time>1970-01-01T01:03:50.000Z</time>
      </trkpt>
      <trkpt lat="42.373793" lon="1.892052">
        <ele>1152.7</ele>
        <time>1970-01-01T01:03:51.000Z</time>
      </trkpt>
      <trkpt lat="42.373841" lon="1.891994">
        <ele>1152.3</ele>
        <time>1970-01-01T01:03:52.000Z</time>
      </trkpt>
      <trkpt lat="42.373887" lon="1.891938">
        <ele>1151.9</ele>
        <time>1970-01-01T01:03:53.000Z</time>
      </trkpt>
      <trkpt lat="42.373934" lon="1.891885">
        <ele>1151.6</ele>
        <time>1970-01-01T01:03:54.000Z</time>
      </trkpt>
      <trkpt lat="42.37398" lon="1.891829">
        <ele>1151.2</ele>
        <time>1970-01-01T01:03:55.000Z</time>
      </trkpt>
      <trkpt lat="42.374025" lon="1.891767">
        <ele>1150.9</ele>
        <time>1970-01-01T01:03:56.000Z</time>
      </trkpt>
      <trkpt lat="42.374071" lon="1.891702">
        <ele>1150.5</ele>
        <time>1970-01-01T01:03:57.000Z</time>
      </trkpt>
      <trkpt lat="42.374118" lon="1.891636">
        <ele>1150.2</ele>
        <time>1970-01-01T01:03:58.000Z</time>
      </trkpt>
      <trkpt lat="42.374169" lon="1.891572">
        <ele>1149.9</ele>
        <time>1970-01-01T01:03:59.000Z</time>
      </trkpt>
      <trkpt lat="42.374217" lon="1.891508">
        <ele>1149.7</ele>
        <time>1970-01-01T01:04:00.000Z</time>
      </trkpt>
      <trkpt lat="42.374261" lon="1.891445">
        <ele>1149.5</ele>
        <time>1970-01-01T01:04:01.000Z</time>
      </trkpt>
      <trkpt lat="42.374299" lon="1.891378">
        <ele>1149.4</ele>
        <time>1970-01-01T01:04:02.000Z</time>
      </trkpt>
      <trkpt lat="42.37433" lon="1.891317">
        <ele>1149.1</ele>
        <time>1970-01-01T01:04:03.000Z</time>
      </trkpt>
      <trkpt lat="42.374356" lon="1.891258">
        <ele>1148.9</ele>
        <time>1970-01-01T01:04:04.000Z</time>
      </trkpt>
      <trkpt lat="42.374385" lon="1.891195">
        <ele>1148.6</ele>
        <time>1970-01-01T01:04:05.000Z</time>
      </trkpt>
      <trkpt lat="42.374413" lon="1.891138">
        <ele>1148.4</ele>
        <time>1970-01-01T01:04:06.000Z</time>
      </trkpt>
      <trkpt lat="42.374442" lon="1.891084">
        <ele>1148.2</ele>
        <time>1970-01-01T01:04:07.000Z</time>
      </trkpt>
      <trkpt lat="42.3745" lon="1.891015">
        <ele>1147.8</ele>
        <time>1970-01-01T01:04:09.000Z</time>
      </trkpt>
      <trkpt lat="42.374546" lon="1.890938">
        <ele>1147.8</ele>
        <time>1970-01-01T01:04:11.000Z</time>
      </trkpt>
      <trkpt lat="42.37458" lon="1.89088">
        <ele>1147.8</ele>
        <time>1970-01-01T01:04:14.000Z</time>
      </trkpt>
      <trkpt lat="42.374614" lon="1.890813">
        <ele>1147.8</ele>
        <time>1970-01-01T01:04:22.000Z</time>
      </trkpt>
      <trkpt lat="42.374709" lon="1.890788">
        <ele>1147.9</ele>
        <time>1970-01-01T01:06:04.000Z</time>
      </trkpt>
      <trkpt lat="42.374758" lon="1.890788">
        <ele>1147.7</ele>
        <time>1970-01-01T01:06:33.000Z</time>
      </trkpt>
      <trkpt lat="42.374803" lon="1.890798">
        <ele>1147.7</ele>
        <time>1970-01-01T01:06:35.000Z</time>
      </trkpt>
      <trkpt lat="42.374856" lon="1.89081">
        <ele>1147.7</ele>
        <time>1970-01-01T01:06:38.000Z</time>
      </trkpt>
      <trkpt lat="42.374795" lon="1.890791">
        <ele>1147.7</ele>
        <time>1970-01-01T01:06:47.000Z</time>
      </trkpt>
      <trkpt lat="42.374733" lon="1.890786">
        <ele>1147.7</ele>
        <time>1970-01-01T01:06:49.000Z</time>
      </trkpt>
      <trkpt lat="42.374667" lon="1.890772">
        <ele>1148.4</ele>
        <time>1970-01-01T01:06:51.000Z</time>
      </trkpt>
      <trkpt lat="42.374604" lon="1.89075">
        <ele>1148.9</ele>
        <time>1970-01-01T01:06:53.000Z</time>
      </trkpt>
      <trkpt lat="42.374546" lon="1.89072">
        <ele>1149.3</ele>
        <time>1970-01-01T01:06:55.000Z</time>
      </trkpt>
      <trkpt lat="42.374493" lon="1.890694">
        <ele>1149.7</ele>
        <time>1970-01-01T01:06:57.000Z</time>
      </trkpt>
      <trkpt lat="42.374442" lon="1.890665">
        <ele>1150.1</ele>
        <time>1970-01-01T01:06:59.000Z</time>
      </trkpt>
      <trkpt lat="42.37439" lon="1.890635">
        <ele>1150.5</ele>
        <time>1970-01-01T01:07:01.000Z</time>
      </trkpt>
      <trkpt lat="42.374337" lon="1.890598">
        <ele>1151</ele>
        <time>1970-01-01T01:07:03.000Z</time>
      </trkpt>
      <trkpt lat="42.374288" lon="1.890567">
        <ele>1151.5</ele>
        <time>1970-01-01T01:07:05.000Z</time>
      </trkpt>
      <trkpt lat="42.374243" lon="1.890529">
        <ele>1152.7</ele>
        <time>1970-01-01T01:07:07.000Z</time>
      </trkpt>
      <trkpt lat="42.374208" lon="1.89048">
        <ele>1153.1</ele>
        <time>1970-01-01T01:07:09.000Z</time>
      </trkpt>
      <trkpt lat="42.37418" lon="1.890427">
        <ele>1153.5</ele>
        <time>1970-01-01T01:07:11.000Z</time>
      </trkpt>
      <trkpt lat="42.374156" lon="1.890343">
        <ele>1154</ele>
        <time>1970-01-01T01:07:14.000Z</time>
      </trkpt>
      <trkpt lat="42.374146" lon="1.890283">
        <ele>1154.3</ele>
        <time>1970-01-01T01:07:16.000Z</time>
      </trkpt>
      <trkpt lat="42.374136" lon="1.89022">
        <ele>1154.7</ele>
        <time>1970-01-01T01:07:18.000Z</time>
      </trkpt>
      <trkpt lat="42.374122" lon="1.890149">
        <ele>1155.1</ele>
        <time>1970-01-01T01:07:20.000Z</time>
      </trkpt>
      <trkpt lat="42.374106" lon="1.890081">
        <ele>1155.4</ele>
        <time>1970-01-01T01:07:22.000Z</time>
      </trkpt>
      <trkpt lat="42.374089" lon="1.89001">
        <ele>1155.8</ele>
        <time>1970-01-01T01:07:24.000Z</time>
      </trkpt>
      <trkpt lat="42.374075" lon="1.889945">
        <ele>1156.2</ele>
        <time>1970-01-01T01:07:26.000Z</time>
      </trkpt>
      <trkpt lat="42.374059" lon="1.889874">
        <ele>1156.5</ele>
        <time>1970-01-01T01:07:28.000Z</time>
      </trkpt>
      <trkpt lat="42.374042" lon="1.8898">
        <ele>1156.9</ele>
        <time>1970-01-01T01:07:30.000Z</time>
      </trkpt>
      <trkpt lat="42.374027" lon="1.889726">
        <ele>1157.3</ele>
        <time>1970-01-01T01:07:32.000Z</time>
      </trkpt>
      <trkpt lat="42.374009" lon="1.889665">
        <ele>1157.6</ele>
        <time>1970-01-01T01:07:34.000Z</time>
      </trkpt>
      <trkpt lat="42.373991" lon="1.889602">
        <ele>1157.9</ele>
        <time>1970-01-01T01:07:36.000Z</time>
      </trkpt>
      <trkpt lat="42.373965" lon="1.889535">
        <ele>1158.3</ele>
        <time>1970-01-01T01:07:38.000Z</time>
      </trkpt>
      <trkpt lat="42.373928" lon="1.889462">
        <ele>1158.7</ele>
        <time>1970-01-01T01:07:40.000Z</time>
      </trkpt>
      <trkpt lat="42.373889" lon="1.889401">
        <ele>1159</ele>
        <time>1970-01-01T01:07:42.000Z</time>
      </trkpt>
      <trkpt lat="42.373856" lon="1.889341">
        <ele>1159.3</ele>
        <time>1970-01-01T01:07:44.000Z</time>
      </trkpt>
      <trkpt lat="42.373823" lon="1.889282">
        <ele>1159.6</ele>
        <time>1970-01-01T01:07:46.000Z</time>
      </trkpt>
      <trkpt lat="42.373783" lon="1.889223">
        <ele>1160</ele>
        <time>1970-01-01T01:07:48.000Z</time>
      </trkpt>
      <trkpt lat="42.373742" lon="1.889163">
        <ele>1160.3</ele>
        <time>1970-01-01T01:07:50.000Z</time>
      </trkpt>
      <trkpt lat="42.373701" lon="1.889108">
        <ele>1160.5</ele>
        <time>1970-01-01T01:07:52.000Z</time>
      </trkpt>
      <trkpt lat="42.373664" lon="1.889058">
        <ele>1160.8</ele>
        <time>1970-01-01T01:07:54.000Z</time>
      </trkpt>
      <trkpt lat="42.37363" lon="1.889012">
        <ele>1161</ele>
        <time>1970-01-01T01:07:56.000Z</time>
      </trkpt>
      <trkpt lat="42.37359" lon="1.888952">
        <ele>1161.3</ele>
        <time>1970-01-01T01:07:59.000Z</time>
      </trkpt>
      <trkpt lat="42.373544" lon="1.888895">
        <ele>1161.6</ele>
        <time>1970-01-01T01:08:02.000Z</time>
      </trkpt>
      <trkpt lat="42.3735" lon="1.888822">
        <ele>1161.9</ele>
        <time>1970-01-01T01:08:05.000Z</time>
      </trkpt>
      <trkpt lat="42.373468" lon="1.888763">
        <ele>1162.2</ele>
        <time>1970-01-01T01:08:07.000Z</time>
      </trkpt>
      <trkpt lat="42.373434" lon="1.888704">
        <ele>1162.5</ele>
        <time>1970-01-01T01:08:09.000Z</time>
      </trkpt>
      <trkpt lat="42.373398" lon="1.888644">
        <ele>1162.8</ele>
        <time>1970-01-01T01:08:11.000Z</time>
      </trkpt>
      <trkpt lat="42.373361" lon="1.888577">
        <ele>1163.1</ele>
        <time>1970-01-01T01:08:14.000Z</time>
      </trkpt>
      <trkpt lat="42.373331" lon="1.888512">
        <ele>1163.5</ele>
        <time>1970-01-01T01:08:17.000Z</time>
      </trkpt>
      <trkpt lat="42.375397" lon="1.887954">
        <ele>1145</ele>
        <time>1970-01-01T00:00:00.000Z</time>
      </trkpt>
      <trkpt lat="42.375355" lon="1.887948">
        <ele>1145.3</ele>
        <time>1970-01-01T00:00:01.000Z</time>
      </trkpt>
      <trkpt lat="42.37532" lon="1.887947">
        <ele>1145.6</ele>
        <time>1970-01-01T00:00:02.000Z</time>
      </trkpt>
      <trkpt lat="42.375278" lon="1.887949">
        <ele>1145.9</ele>
        <time>1970-01-01T00:00:03.000Z</time>
      </trkpt>
      <trkpt lat="42.375244" lon="1.88795">
        <ele>1146.2</ele>
        <time>1970-01-01T00:00:04.000Z</time>
      </trkpt>
      <trkpt lat="42.375217" lon="1.88795">
        <ele>1146.4</ele>
        <time>1970-01-01T00:00:05.000Z</time>
      </trkpt>
      <trkpt lat="42.375187" lon="1.887944">
        <ele>1146.6</ele>
        <time>1970-01-01T00:00:06.000Z</time>
      </trkpt>
      <trkpt lat="42.375156" lon="1.887934">
        <ele>1146.9</ele>
        <time>1970-01-01T00:00:07.000Z</time>
      </trkpt>
      <trkpt lat="42.375126" lon="1.887914">
        <ele>1147.2</ele>
        <time>1970-01-01T00:00:08.000Z</time>
      </trkpt>
      <trkpt lat="42.375095" lon="1.887896">
        <ele>1147.4</ele>
        <time>1970-01-01T00:00:09.000Z</time>
      </trkpt>
      <trkpt lat="42.375061" lon="1.88788">
        <ele>1147.6</ele>
        <time>1970-01-01T00:00:10.000Z</time>
      </trkpt>
      <trkpt lat="42.375027" lon="1.887863">
        <ele>1147.8</ele>
        <time>1970-01-01T00:00:11.000Z</time>
      </trkpt>
      <trkpt lat="42.374996" lon="1.887841">
        <ele>1148</ele>
        <time>1970-01-01T00:00:12.000Z</time>
      </trkpt>
      <trkpt lat="42.374962" lon="1.887811">
        <ele>1148.3</ele>
        <time>1970-01-01T00:00:13.000Z</time>
      </trkpt>
      <trkpt lat="42.374931" lon="1.887782">
        <ele>1148.5</ele>
        <time>1970-01-01T00:00:14.000Z</time>
      </trkpt>
      <trkpt lat="42.374901" lon="1.887755">
        <ele>1148.7</ele>
        <time>1970-01-01T00:00:15.000Z</time>
      </trkpt>
      <trkpt lat="42.37487" lon="1.887727">
        <ele>1148.9</ele>
        <time>1970-01-01T00:00:16.000Z</time>
      </trkpt>
      <trkpt lat="42.374836" lon="1.887709">
        <ele>1149.1</ele>
        <time>1970-01-01T00:00:17.000Z</time>
      </trkpt>
      <trkpt lat="42.374794" lon="1.887688">
        <ele>1149.4</ele>
        <time>1970-01-01T00:00:18.000Z</time>
      </trkpt>
      <trkpt lat="42.37476" lon="1.887668">
        <ele>1149.6</ele>
        <time>1970-01-01T00:00:19.000Z</time>
      </trkpt>
      <trkpt lat="42.374725" lon="1.887641">
        <ele>1149.8</ele>
        <time>1970-01-01T00:00:20.000Z</time>
      </trkpt>
      <trkpt lat="42.374687" lon="1.887611">
        <ele>1150.1</ele>
        <time>1970-01-01T00:00:21.000Z</time>
      </trkpt>
      <trkpt lat="42.374657" lon="1.887579">
        <ele>1150.3</ele>
        <time>1970-01-01T00:00:22.000Z</time>
      </trkpt>
      <trkpt lat="42.374626" lon="1.887547">
        <ele>1150.6</ele>
        <time>1970-01-01T00:00:23.000Z</time>
      </trkpt>
      <trkpt lat="42.374599" lon="1.887521">
        <ele>1150.8</ele>
        <time>1970-01-01T00:00:24.000Z</time>
      </trkpt>
      <trkpt lat="42.374569" lon="1.887502">
        <ele>1151.1</ele>
        <time>1970-01-01T00:00:25.000Z</time>
      </trkpt>
      <trkpt lat="42.374542" lon="1.887483">
        <ele>1151.4</ele>
        <time>1970-01-01T00:00:26.000Z</time>
      </trkpt>
      <trkpt lat="42.374516" lon="1.887467">
        <ele>1151.6</ele>
        <time>1970-01-01T00:00:27.000Z</time>
      </trkpt>
      <trkpt lat="42.374489" lon="1.88745">
        <ele>1151.9</ele>
        <time>1970-01-01T00:00:28.000Z</time>
      </trkpt>
      <trkpt lat="42.374466" lon="1.887437">
        <ele>1152.1</ele>
        <time>1970-01-01T00:00:29.000Z</time>
      </trkpt>
      <trkpt lat="42.374447" lon="1.887422">
        <ele>1152.3</ele>
        <time>1970-01-01T00:00:30.000Z</time>
      </trkpt>
      <trkpt lat="42.374424" lon="1.887409">
        <ele>1152.6</ele>
        <time>1970-01-01T00:00:31.000Z</time>
      </trkpt>
      <trkpt lat="42.374401" lon="1.887395">
        <ele>1152.8</ele>
        <time>1970-01-01T00:00:32.000Z</time>
      </trkpt>
      <trkpt lat="42.374371" lon="1.887382">
        <ele>1153.1</ele>
        <time>1970-01-01T00:00:33.000Z</time>
      </trkpt>
      <trkpt lat="42.374348" lon="1.887372">
        <ele>1153.3</ele>
        <time>1970-01-01T00:00:34.000Z</time>
      </trkpt>
      <trkpt lat="42.374317" lon="1.887362">
        <ele>1153.6</ele>
        <time>1970-01-01T00:00:35.000Z</time>
      </trkpt>
      <trkpt lat="42.374287" lon="1.887359">
        <ele>1153.9</ele>
        <time>1970-01-01T00:00:36.000Z</time>
      </trkpt>
      <trkpt lat="42.374256" lon="1.88736">
        <ele>1154.1</ele>
        <time>1970-01-01T00:00:37.000Z</time>
      </trkpt>
      <trkpt lat="42.374229" lon="1.88737">
        <ele>1154.4</ele>
        <time>1970-01-01T00:00:38.000Z</time>
      </trkpt>
      <trkpt lat="42.374199" lon="1.88739">
        <ele>1154.7</ele>
        <time>1970-01-01T00:00:39.000Z</time>
      </trkpt>
      <trkpt lat="42.374172" lon="1.887405">
        <ele>1154.9</ele>
        <time>1970-01-01T00:00:40.000Z</time>
      </trkpt>
      <trkpt lat="42.374149" lon="1.887414">
        <ele>1155.1</ele>
        <time>1970-01-01T00:00:41.000Z</time>
      </trkpt>
      <trkpt lat="42.37413" lon="1.88742">
        <ele>1155.3</ele>
        <time>1970-01-01T00:00:42.000Z</time>
      </trkpt>
      <trkpt lat="42.374107" lon="1.887428">
        <ele>1155.5</ele>
        <time>1970-01-01T00:00:43.000Z</time>
      </trkpt>
      <trkpt lat="42.374084" lon="1.887436">
        <ele>1155.8</ele>
        <time>1970-01-01T00:00:44.000Z</time>
      </trkpt>
      <trkpt lat="42.374062" lon="1.887448">
        <ele>1156</ele>
        <time>1970-01-01T00:00:45.000Z</time>
      </trkpt>
      <trkpt lat="42.374039" lon="1.887462">
        <ele>1156.2</ele>
        <time>1970-01-01T00:00:46.000Z</time>
      </trkpt>
      <trkpt lat="42.374012" lon="1.887476">
        <ele>1156.5</ele>
        <time>1970-01-01T00:00:47.000Z</time>
      </trkpt>
      <trkpt lat="42.373985" lon="1.887487">
        <ele>1156.8</ele>
        <time>1970-01-01T00:00:48.000Z</time>
      </trkpt>
      <trkpt lat="42.373966" lon="1.887496">
        <ele>1157</ele>
        <time>1970-01-01T00:00:49.000Z</time>
      </trkpt>
      <trkpt lat="42.37394" lon="1.887495">
        <ele>1157.3</ele>
        <time>1970-01-01T00:00:50.000Z</time>
      </trkpt>
      <trkpt lat="42.373917" lon="1.887507">
        <ele>1157.6</ele>
        <time>1970-01-01T00:00:51.000Z</time>
      </trkpt>
      <trkpt lat="42.373894" lon="1.887519">
        <ele>1157.9</ele>
        <time>1970-01-01T00:00:52.000Z</time>
      </trkpt>
      <trkpt lat="42.373871" lon="1.887534">
        <ele>1158.2</ele>
        <time>1970-01-01T00:00:53.000Z</time>
      </trkpt>
      <trkpt lat="42.373848" lon="1.887552">
        <ele>1158.5</ele>
        <time>1970-01-01T00:00:54.000Z</time>
      </trkpt>
      <trkpt lat="42.373821" lon="1.887568">
        <ele>1158.8</ele>
        <time>1970-01-01T00:00:55.000Z</time>
      </trkpt>
      <trkpt lat="42.373795" lon="1.887582">
        <ele>1159.2</ele>
        <time>1970-01-01T00:00:56.000Z</time>
      </trkpt>
      <trkpt lat="42.373768" lon="1.887595">
        <ele>1159.5</ele>
        <time>1970-01-01T00:00:57.000Z</time>
      </trkpt>
      <trkpt lat="42.373741" lon="1.887607">
        <ele>1159.9</ele>
        <time>1970-01-01T00:00:58.000Z</time>
      </trkpt>
      <trkpt lat="42.373718" lon="1.887617">
        <ele>1160.1</ele>
        <time>1970-01-01T00:00:59.000Z</time>
      </trkpt>
      <trkpt lat="42.373695" lon="1.887628">
        <ele>1160.4</ele>
        <time>1970-01-01T00:01:00.000Z</time>
      </trkpt>
      <trkpt lat="42.373676" lon="1.887641">
        <ele>1160.7</ele>
        <time>1970-01-01T00:01:01.000Z</time>
      </trkpt>
      <trkpt lat="42.373657" lon="1.887654">
        <ele>1160.9</ele>
        <time>1970-01-01T00:01:02.000Z</time>
      </trkpt>
      <trkpt lat="42.373631" lon="1.887673">
        <ele>1161.2</ele>
        <time>1970-01-01T00:01:03.000Z</time>
      </trkpt>
      <trkpt lat="42.373611" lon="1.887691">
        <ele>1161.5</ele>
        <time>1970-01-01T00:01:04.000Z</time>
      </trkpt>
      <trkpt lat="42.373592" lon="1.887702">
        <ele>1161.7</ele>
        <time>1970-01-01T00:01:05.000Z</time>
      </trkpt>
      <trkpt lat="42.373566" lon="1.88771">
        <ele>1162</ele>
        <time>1970-01-01T00:01:06.000Z</time>
      </trkpt>
      <trkpt lat="42.373547" lon="1.887718">
        <ele>1162.2</ele>
        <time>1970-01-01T00:01:07.000Z</time>
      </trkpt>
      <trkpt lat="42.373524" lon="1.887725">
        <ele>1162.5</ele>
        <time>1970-01-01T00:01:08.000Z</time>
      </trkpt>
      <trkpt lat="42.373501" lon="1.887731">
        <ele>1162.8</ele>
        <time>1970-01-01T00:01:09.000Z</time>
      </trkpt>
      <trkpt lat="42.373482" lon="1.887745">
        <ele>1163</ele>
        <time>1970-01-01T00:01:10.000Z</time>
      </trkpt>
      <trkpt lat="42.373459" lon="1.88776">
        <ele>1163.3</ele>
        <time>1970-01-01T00:01:11.000Z</time>
      </trkpt>
      <trkpt lat="42.373436" lon="1.887775">
        <ele>1163.6</ele>
        <time>1970-01-01T00:01:12.000Z</time>
      </trkpt>
      <trkpt lat="42.373417" lon="1.88779">
        <ele>1163.9</ele>
        <time>1970-01-01T00:01:13.000Z</time>
      </trkpt>
      <trkpt lat="42.373398" lon="1.887803">
        <ele>1164.1</ele>
        <time>1970-01-01T00:01:14.000Z</time>
      </trkpt>
      <trkpt lat="42.373375" lon="1.887818">
        <ele>1164.3</ele>
        <time>1970-01-01T00:01:15.000Z</time>
      </trkpt>
      <trkpt lat="42.373352" lon="1.887833">
        <ele>1164.5</ele>
        <time>1970-01-01T00:01:16.000Z</time>
      </trkpt>
      <trkpt lat="42.373333" lon="1.887849">
        <ele>1164.7</ele>
        <time>1970-01-01T00:01:17.000Z</time>
      </trkpt>
      <trkpt lat="42.373314" lon="1.887864">
        <ele>1165</ele>
        <time>1970-01-01T00:01:18.000Z</time>
      </trkpt>
      <trkpt lat="42.373291" lon="1.887878">
        <ele>1165.2</ele>
        <time>1970-01-01T00:01:19.000Z</time>
      </trkpt>
      <trkpt lat="42.373268" lon="1.887887">
        <ele>1165.5</ele>
        <time>1970-01-01T00:01:20.000Z</time>
      </trkpt>
      <trkpt lat="42.373249" lon="1.887897">
        <ele>1165.7</ele>
        <time>1970-01-01T00:01:21.000Z</time>
      </trkpt>
      <trkpt lat="42.37323" lon="1.887909">
        <ele>1165.9</ele>
        <time>1970-01-01T00:01:22.000Z</time>
      </trkpt>
      <trkpt lat="42.373207" lon="1.887922">
        <ele>1166.2</ele>
        <time>1970-01-01T00:01:23.000Z</time>
      </trkpt>
      <trkpt lat="42.373188" lon="1.887929">
        <ele>1166.4</ele>
        <time>1970-01-01T00:01:24.000Z</time>
      </trkpt>
      <trkpt lat="42.373169" lon="1.887935">
        <ele>1166.5</ele>
        <time>1970-01-01T00:01:25.000Z</time>
      </trkpt>
      <trkpt lat="42.373146" lon="1.887942">
        <ele>1166.8</ele>
        <time>1970-01-01T00:01:26.000Z</time>
      </trkpt>
      <trkpt lat="42.373127" lon="1.887952">
        <ele>1166.9</ele>
        <time>1970-01-01T00:01:27.000Z</time>
      </trkpt>
      <trkpt lat="42.373104" lon="1.88796">
        <ele>1167.1</ele>
        <time>1970-01-01T00:01:28.000Z</time>
      </trkpt>
      <trkpt lat="42.373081" lon="1.887976">
        <ele>1167.4</ele>
        <time>1970-01-01T00:01:29.000Z</time>
      </trkpt>
      <trkpt lat="42.373058" lon="1.887987">
        <ele>1167.7</ele>
        <time>1970-01-01T00:01:30.000Z</time>
      </trkpt>
      <trkpt lat="42.373032" lon="1.887997">
        <ele>1168</ele>
        <time>1970-01-01T00:01:31.000Z</time>
      </trkpt>
      <trkpt lat="42.373005" lon="1.888009">
        <ele>1168.4</ele>
        <time>1970-01-01T00:01:32.000Z</time>
      </trkpt>
      <trkpt lat="42.372982" lon="1.888023">
        <ele>1168.7</ele>
        <time>1970-01-01T00:01:33.000Z</time>
      </trkpt>
      <trkpt lat="42.372955" lon="1.888036">
        <ele>1169.1</ele>
        <time>1970-01-01T00:01:34.000Z</time>
      </trkpt>
      <trkpt lat="42.372936" lon="1.888049">
        <ele>1169.4</ele>
        <time>1970-01-01T00:01:35.000Z</time>
      </trkpt>
      <trkpt lat="42.372913" lon="1.888064">
        <ele>1169.7</ele>
        <time>1970-01-01T00:01:36.000Z</time>
      </trkpt>
      <trkpt lat="42.372894" lon="1.888081">
        <ele>1170</ele>
        <time>1970-01-01T00:01:37.000Z</time>
      </trkpt>
      <trkpt lat="42.372875" lon="1.888095">
        <ele>1170.3</ele>
        <time>1970-01-01T00:01:38.000Z</time>
      </trkpt>
      <trkpt lat="42.372852" lon="1.888107">
        <ele>1170.7</ele>
        <time>1970-01-01T00:01:39.000Z</time>
      </trkpt>
      <trkpt lat="42.372829" lon="1.888114">
        <ele>1171</ele>
        <time>1970-01-01T00:01:40.000Z</time>
      </trkpt>
      <trkpt lat="42.37281" lon="1.888124">
        <ele>1171.2</ele>
        <time>1970-01-01T00:01:41.000Z</time>
      </trkpt>
      <trkpt lat="42.372788" lon="1.888135">
        <ele>1171.6</ele>
        <time>1970-01-01T00:01:42.000Z</time>
      </trkpt>
      <trkpt lat="42.372765" lon="1.888147">
        <ele>1171.9</ele>
        <time>1970-01-01T00:01:43.000Z</time>
      </trkpt>
      <trkpt lat="42.372738" lon="1.88816">
        <ele>1172.3</ele>
        <time>1970-01-01T00:01:44.000Z</time>
      </trkpt>
      <trkpt lat="42.372715" lon="1.888172">
        <ele>1172.7</ele>
        <time>1970-01-01T00:01:45.000Z</time>
      </trkpt>
      <trkpt lat="42.372692" lon="1.888189">
        <ele>1173</ele>
        <time>1970-01-01T00:01:46.000Z</time>
      </trkpt>
      <trkpt lat="42.372673" lon="1.88821">
        <ele>1173.3</ele>
        <time>1970-01-01T00:01:47.000Z</time>
      </trkpt>
      <trkpt lat="42.372654" lon="1.888234">
        <ele>1173.7</ele>
        <time>1970-01-01T00:01:48.000Z</time>
      </trkpt>
      <trkpt lat="42.372639" lon="1.888258">
        <ele>1173.9</ele>
        <time>1970-01-01T00:01:49.000Z</time>
      </trkpt>
      <trkpt lat="42.372623" lon="1.888285">
        <ele>1174.3</ele>
        <time>1970-01-01T00:01:50.000Z</time>
      </trkpt>
      <trkpt lat="42.372612" lon="1.888312">
        <ele>1174.5</ele>
        <time>1970-01-01T00:01:51.000Z</time>
      </trkpt>
      <trkpt lat="42.372604" lon="1.88834">
        <ele>1174.8</ele>
        <time>1970-01-01T00:01:52.000Z</time>
      </trkpt>
      <trkpt lat="42.372589" lon="1.888371">
        <ele>1175.1</ele>
        <time>1970-01-01T00:01:53.000Z</time>
      </trkpt>
      <trkpt lat="42.372581" lon="1.888401">
        <ele>1175.3</ele>
        <time>1970-01-01T00:01:54.000Z</time>
      </trkpt>
      <trkpt lat="42.372574" lon="1.888433">
        <ele>1175.5</ele>
        <time>1970-01-01T00:01:55.000Z</time>
      </trkpt>
      <trkpt lat="42.37257" lon="1.888466">
        <ele>1175.8</ele>
        <time>1970-01-01T00:01:56.000Z</time>
      </trkpt>
      <trkpt lat="42.372566" lon="1.888499">
        <ele>1176</ele>
        <time>1970-01-01T00:01:57.000Z</time>
      </trkpt>
      <trkpt lat="42.372562" lon="1.888534">
        <ele>1176.2</ele>
        <time>1970-01-01T00:01:58.000Z</time>
      </trkpt>
      <trkpt lat="42.372562" lon="1.888569">
        <ele>1176.5</ele>
        <time>1970-01-01T00:01:59.000Z</time>
      </trkpt>
      <trkpt lat="42.372562" lon="1.888603">
        <ele>1176.7</ele>
        <time>1970-01-01T00:02:00.000Z</time>
      </trkpt>
      <trkpt lat="42.372566" lon="1.888635">
        <ele>1176.9</ele>
        <time>1970-01-01T00:02:01.000Z</time>
      </trkpt>
      <trkpt lat="42.372574" lon="1.88867">
        <ele>1177.1</ele>
        <time>1970-01-01T00:02:02.000Z</time>
      </trkpt>
      <trkpt lat="42.372581" lon="1.888704">
        <ele>1177.3</ele>
        <time>1970-01-01T00:02:03.000Z</time>
      </trkpt>
      <trkpt lat="42.372593" lon="1.888738">
        <ele>1177.6</ele>
        <time>1970-01-01T00:02:04.000Z</time>
      </trkpt>
      <trkpt lat="42.372597" lon="1.88877">
        <ele>1177.8</ele>
        <time>1970-01-01T00:02:05.000Z</time>
      </trkpt>
      <trkpt lat="42.372604" lon="1.888803">
        <ele>1178</ele>
        <time>1970-01-01T00:02:06.000Z</time>
      </trkpt>
      <trkpt lat="42.37262" lon="1.888837">
        <ele>1178.3</ele>
        <time>1970-01-01T00:02:07.000Z</time>
      </trkpt>
      <trkpt lat="42.372635" lon="1.888871">
        <ele>1178.5</ele>
        <time>1970-01-01T00:02:08.000Z</time>
      </trkpt>
      <trkpt lat="42.372642" lon="1.888904">
        <ele>1178.8</ele>
        <time>1970-01-01T00:02:09.000Z</time>
      </trkpt>
      <trkpt lat="42.372646" lon="1.888941">
        <ele>1179</ele>
        <time>1970-01-01T00:02:10.000Z</time>
      </trkpt>
      <trkpt lat="42.372654" lon="1.888974">
        <ele>1179.2</ele>
        <time>1970-01-01T00:02:11.000Z</time>
      </trkpt>
      <trkpt lat="42.372662" lon="1.88901">
        <ele>1179.4</ele>
        <time>1970-01-01T00:02:12.000Z</time>
      </trkpt>
      <trkpt lat="42.372665" lon="1.889049">
        <ele>1179.7</ele>
        <time>1970-01-01T00:02:13.000Z</time>
      </trkpt>
      <trkpt lat="42.372673" lon="1.889088">
        <ele>1179.9</ele>
        <time>1970-01-01T00:02:14.000Z</time>
      </trkpt>
      <trkpt lat="42.372677" lon="1.889125">
        <ele>1180.2</ele>
        <time>1970-01-01T00:02:15.000Z</time>
      </trkpt>
      <trkpt lat="42.372681" lon="1.889163">
        <ele>1180.4</ele>
        <time>1970-01-01T00:02:16.000Z</time>
      </trkpt>
      <trkpt lat="42.372688" lon="1.889199">
        <ele>1180.6</ele>
        <time>1970-01-01T00:02:17.000Z</time>
      </trkpt>
      <trkpt lat="42.372692" lon="1.889236">
        <ele>1180.9</ele>
        <time>1970-01-01T00:02:18.000Z</time>
      </trkpt>
      <trkpt lat="42.372692" lon="1.889272">
        <ele>1181.1</ele>
        <time>1970-01-01T00:02:19.000Z</time>
      </trkpt>
      <trkpt lat="42.3727" lon="1.889308">
        <ele>1181.4</ele>
        <time>1970-01-01T00:02:20.000Z</time>
      </trkpt>
      <trkpt lat="42.372704" lon="1.889348">
        <ele>1181.6</ele>
        <time>1970-01-01T00:02:21.000Z</time>
      </trkpt>
      <trkpt lat="42.372704" lon="1.889383">
        <ele>1181.8</ele>
        <time>1970-01-01T00:02:22.000Z</time>
      </trkpt>
      <trkpt lat="42.372707" lon="1.889419">
        <ele>1182.1</ele>
        <time>1970-01-01T00:02:23.000Z</time>
      </trkpt>
      <trkpt lat="42.372707" lon="1.889454">
        <ele>1182.3</ele>
        <time>1970-01-01T00:02:24.000Z</time>
      </trkpt>
      <trkpt lat="42.372707" lon="1.889489">
        <ele>1182.6</ele>
        <time>1970-01-01T00:02:25.000Z</time>
      </trkpt>
      <trkpt lat="42.372704" lon="1.889524">
        <ele>1182.8</ele>
        <time>1970-01-01T00:02:26.000Z</time>
      </trkpt>
      <trkpt lat="42.372704" lon="1.889557">
        <ele>1183</ele>
        <time>1970-01-01T00:02:27.000Z</time>
      </trkpt>
      <trkpt lat="42.3727" lon="1.889591">
        <ele>1183.3</ele>
        <time>1970-01-01T00:02:28.000Z</time>
      </trkpt>
      <trkpt lat="42.372696" lon="1.889623">
        <ele>1183.5</ele>
        <time>1970-01-01T00:02:29.000Z</time>
      </trkpt>
      <trkpt lat="42.372692" lon="1.889653">
        <ele>1183.7</ele>
        <time>1970-01-01T00:02:30.000Z</time>
      </trkpt>
      <trkpt lat="42.372688" lon="1.889683">
        <ele>1184</ele>
        <time>1970-01-01T00:02:31.000Z</time>
      </trkpt>
      <trkpt lat="42.372681" lon="1.889714">
        <ele>1184.2</ele>
        <time>1970-01-01T00:02:32.000Z</time>
      </trkpt>
      <trkpt lat="42.372677" lon="1.889747">
        <ele>1184.4</ele>
        <time>1970-01-01T00:02:33.000Z</time>
      </trkpt>
      <trkpt lat="42.372677" lon="1.889782">
        <ele>1184.7</ele>
        <time>1970-01-01T00:02:34.000Z</time>
      </trkpt>
      <trkpt lat="42.372681" lon="1.889814">
        <ele>1184.9</ele>
        <time>1970-01-01T00:02:35.000Z</time>
      </trkpt>
      <trkpt lat="42.372677" lon="1.889848">
        <ele>1185.1</ele>
        <time>1970-01-01T00:02:36.000Z</time>
      </trkpt>
      <trkpt lat="42.372673" lon="1.889885">
        <ele>1185.4</ele>
        <time>1970-01-01T00:02:37.000Z</time>
      </trkpt>
      <trkpt lat="42.372673" lon="1.889924">
        <ele>1185.6</ele>
        <time>1970-01-01T00:02:38.000Z</time>
      </trkpt>
      <trkpt lat="42.372673" lon="1.889963">
        <ele>1185.9</ele>
        <time>1970-01-01T00:02:39.000Z</time>
      </trkpt>
      <trkpt lat="42.372677" lon="1.89">
        <ele>1186.1</ele>
        <time>1970-01-01T00:02:40.000Z</time>
      </trkpt>
      <trkpt lat="42.372684" lon="1.890036">
        <ele>1186.3</ele>
        <time>1970-01-01T00:02:41.000Z</time>
      </trkpt>
      <trkpt lat="42.372692" lon="1.890073">
        <ele>1186.6</ele>
        <time>1970-01-01T00:02:42.000Z</time>
      </trkpt>
      <trkpt lat="42.3727" lon="1.890111">
        <ele>1186.8</ele>
        <time>1970-01-01T00:02:43.000Z</time>
      </trkpt>
      <trkpt lat="42.372707" lon="1.890149">
        <ele>1187</ele>
        <time>1970-01-01T00:02:44.000Z</time>
      </trkpt>
      <trkpt lat="42.372719" lon="1.890181">
        <ele>1187.2</ele>
        <time>1970-01-01T00:02:45.000Z</time>
      </trkpt>
      <trkpt lat="42.37273" lon="1.890214">
        <ele>1187.4</ele>
        <time>1970-01-01T00:02:46.000Z</time>
      </trkpt>
      <trkpt lat="42.372746" lon="1.890249">
        <ele>1187.7</ele>
        <time>1970-01-01T00:02:47.000Z</time>
      </trkpt>
      <trkpt lat="42.372761" lon="1.890278">
        <ele>1187.9</ele>
        <time>1970-01-01T00:02:48.000Z</time>
      </trkpt>
      <trkpt lat="42.372768" lon="1.890307">
        <ele>1188</ele>
        <time>1970-01-01T00:02:49.000Z</time>
      </trkpt>
      <trkpt lat="42.37278" lon="1.890336">
        <ele>1188.2</ele>
        <time>1970-01-01T00:02:50.000Z</time>
      </trkpt>
      <trkpt lat="42.372795" lon="1.890367">
        <ele>1188.4</ele>
        <time>1970-01-01T00:02:51.000Z</time>
      </trkpt>
      <trkpt lat="42.372807" lon="1.890399">
        <ele>1188.6</ele>
        <time>1970-01-01T00:02:52.000Z</time>
      </trkpt>
      <trkpt lat="42.372822" lon="1.890427">
        <ele>1188.8</ele>
        <time>1970-01-01T00:02:53.000Z</time>
      </trkpt>
      <trkpt lat="42.372841" lon="1.890461">
        <ele>1189.1</ele>
        <time>1970-01-01T00:02:54.000Z</time>
      </trkpt>
      <trkpt lat="42.372852" lon="1.890494">
        <ele>1189.3</ele>
        <time>1970-01-01T00:02:55.000Z</time>
      </trkpt>
      <trkpt lat="42.372871" lon="1.890532">
        <ele>1189.6</ele>
        <time>1970-01-01T00:02:56.000Z</time>
      </trkpt>
      <trkpt lat="42.372887" lon="1.890557">
        <ele>1189.7</ele>
        <time>1970-01-01T00:02:57.000Z</time>
      </trkpt>
      <trkpt lat="42.372902" lon="1.890584">
        <ele>1189.9</ele>
        <time>1970-01-01T00:02:58.000Z</time>
      </trkpt>
      <trkpt lat="42.372917" lon="1.890615">
        <ele>1190.1</ele>
        <time>1970-01-01T00:02:59.000Z</time>
      </trkpt>
      <trkpt lat="42.372936" lon="1.890642">
        <ele>1190.3</ele>
        <time>1970-01-01T00:03:00.000Z</time>
      </trkpt>
      <trkpt lat="42.372952" lon="1.890665">
        <ele>1190.5</ele>
        <time>1970-01-01T00:03:01.000Z</time>
      </trkpt>
      <trkpt lat="42.372967" lon="1.890693">
        <ele>1190.7</ele>
        <time>1970-01-01T00:03:02.000Z</time>
      </trkpt>
      <trkpt lat="42.372982" lon="1.890723">
        <ele>1190.9</ele>
        <time>1970-01-01T00:03:03.000Z</time>
      </trkpt>
      <trkpt lat="42.372993" lon="1.890757">
        <ele>1191.1</ele>
        <time>1970-01-01T00:03:04.000Z</time>
      </trkpt>
      <trkpt lat="42.373009" lon="1.89079">
        <ele>1191.3</ele>
        <time>1970-01-01T00:03:05.000Z</time>
      </trkpt>
      <trkpt lat="42.373028" lon="1.89082">
        <ele>1191.5</ele>
        <time>1970-01-01T00:03:06.000Z</time>
      </trkpt>
      <trkpt lat="42.373047" lon="1.890852">
        <ele>1191.8</ele>
        <time>1970-01-01T00:03:07.000Z</time>
      </trkpt>
      <trkpt lat="42.373062" lon="1.890888">
        <ele>1192</ele>
        <time>1970-01-01T00:03:08.000Z</time>
      </trkpt>
      <trkpt lat="42.373077" lon="1.890924">
        <ele>1192.2</ele>
        <time>1970-01-01T00:03:09.000Z</time>
      </trkpt>
      <trkpt lat="42.373093" lon="1.890958">
        <ele>1192.5</ele>
        <time>1970-01-01T00:03:10.000Z</time>
      </trkpt>
      <trkpt lat="42.373108" lon="1.890992">
        <ele>1192.7</ele>
        <time>1970-01-01T00:03:11.000Z</time>
      </trkpt>
      <trkpt lat="42.373123" lon="1.891018">
        <ele>1192.9</ele>
        <time>1970-01-01T00:03:12.000Z</time>
      </trkpt>
      <trkpt lat="42.373138" lon="1.891045">
        <ele>1193.1</ele>
        <time>1970-01-01T00:03:13.000Z</time>
      </trkpt>
      <trkpt lat="42.37315" lon="1.89107">
        <ele>1193.3</ele>
        <time>1970-01-01T00:03:14.000Z</time>
      </trkpt>
      <trkpt lat="42.373161" lon="1.891095">
        <ele>1193.4</ele>
        <time>1970-01-01T00:03:15.000Z</time>
      </trkpt>
      <trkpt lat="42.373173" lon="1.891123">
        <ele>1193.6</ele>
        <time>1970-01-01T00:03:16.000Z</time>
      </trkpt>
      <trkpt lat="42.373188" lon="1.891161">
        <ele>1193.9</ele>
        <time>1970-01-01T00:03:17.000Z</time>
      </trkpt>
      <trkpt lat="42.373196" lon="1.891195">
        <ele>1194.1</ele>
        <time>1970-01-01T00:03:18.000Z</time>
      </trkpt>
      <trkpt lat="42.373203" lon="1.891228">
        <ele>1194.3</ele>
        <time>1970-01-01T00:03:19.000Z</time>
      </trkpt>
      <trkpt lat="42.373203" lon="1.891265">
        <ele>1194.5</ele>
        <time>1970-01-01T00:03:20.000Z</time>
      </trkpt>
      <trkpt lat="42.373203" lon="1.891297">
        <ele>1194.7</ele>
        <time>1970-01-01T00:03:21.000Z</time>
      </trkpt>
      <trkpt lat="42.373196" lon="1.891333">
        <ele>1195</ele>
        <time>1970-01-01T00:03:22.000Z</time>
      </trkpt>
      <trkpt lat="42.373188" lon="1.891368">
        <ele>1195.2</ele>
        <time>1970-01-01T00:03:23.000Z</time>
      </trkpt>
      <trkpt lat="42.37318" lon="1.891397">
        <ele>1195.4</ele>
        <time>1970-01-01T00:03:24.000Z</time>
      </trkpt>
      <trkpt lat="42.373169" lon="1.891426">
        <ele>1195.6</ele>
        <time>1970-01-01T00:03:25.000Z</time>
      </trkpt>
      <trkpt lat="42.373154" lon="1.891456">
        <ele>1195.8</ele>
        <time>1970-01-01T00:03:26.000Z</time>
      </trkpt>
      <trkpt lat="42.373142" lon="1.891482">
        <ele>1196</ele>
        <time>1970-01-01T00:03:27.000Z</time>
      </trkpt>
      <trkpt lat="42.373127" lon="1.891508">
        <ele>1196.1</ele>
        <time>1970-01-01T00:03:28.000Z</time>
      </trkpt>
      <trkpt lat="42.373112" lon="1.891536">
        <ele>1196.3</ele>
        <time>1970-01-01T00:03:29.000Z</time>
      </trkpt>
      <trkpt lat="42.373093" lon="1.891564">
        <ele>1196.6</ele>
        <time>1970-01-01T00:03:30.000Z</time>
      </trkpt>
      <trkpt lat="42.373074" lon="1.891586">
        <ele>1196.8</ele>
        <time>1970-01-01T00:03:31.000Z</time>
      </trkpt>
      <trkpt lat="42.373054" lon="1.891605">
        <ele>1197</ele>
        <time>1970-01-01T00:03:32.000Z</time>
      </trkpt>
      <trkpt lat="42.373028" lon="1.891623">
        <ele>1197.2</ele>
        <time>1970-01-01T00:03:33.000Z</time>
      </trkpt>
      <trkpt lat="42.373005" lon="1.891639">
        <ele>1197.3</ele>
        <time>1970-01-01T00:03:34.000Z</time>
      </trkpt>
      <trkpt lat="42.372982" lon="1.891654">
        <ele>1197.5</ele>
        <time>1970-01-01T00:03:35.000Z</time>
      </trkpt>
      <trkpt lat="42.372955" lon="1.89167">
        <ele>1197.7</ele>
        <time>1970-01-01T00:03:36.000Z</time>
      </trkpt>
      <trkpt lat="42.372929" lon="1.891688">
        <ele>1197.9</ele>
        <time>1970-01-01T00:03:37.000Z</time>
      </trkpt>
      <trkpt lat="42.372906" lon="1.891704">
        <ele>1198.1</ele>
        <time>1970-01-01T00:03:38.000Z</time>
      </trkpt>
      <trkpt lat="42.372879" lon="1.891721">
        <ele>1198.3</ele>
        <time>1970-01-01T00:03:39.000Z</time>
      </trkpt>
      <trkpt lat="42.372852" lon="1.891737">
        <ele>1198.5</ele>
        <time>1970-01-01T00:03:40.000Z</time>
      </trkpt>
      <trkpt lat="42.372829" lon="1.891751">
        <ele>1198.7</ele>
        <time>1970-01-01T00:03:41.000Z</time>
      </trkpt>
      <trkpt lat="42.372807" lon="1.891765">
        <ele>1198.8</ele>
        <time>1970-01-01T00:03:42.000Z</time>
      </trkpt>
      <trkpt lat="42.372784" lon="1.891778">
        <ele>1199</ele>
        <time>1970-01-01T00:03:43.000Z</time>
      </trkpt>
      <trkpt lat="42.372761" lon="1.891792">
        <ele>1199.2</ele>
        <time>1970-01-01T00:03:44.000Z</time>
      </trkpt>
      <trkpt lat="42.372734" lon="1.8918">
        <ele>1199.4</ele>
        <time>1970-01-01T00:03:45.000Z</time>
      </trkpt>
      <trkpt lat="42.372711" lon="1.891811">
        <ele>1199.5</ele>
        <time>1970-01-01T00:03:46.000Z</time>
      </trkpt>
      <trkpt lat="42.372688" lon="1.891827">
        <ele>1199.7</ele>
        <time>1970-01-01T00:03:47.000Z</time>
      </trkpt>
      <trkpt lat="42.372662" lon="1.89184">
        <ele>1199.9</ele>
        <time>1970-01-01T00:03:48.000Z</time>
      </trkpt>
      <trkpt lat="42.372639" lon="1.891853">
        <ele>1200.1</ele>
        <time>1970-01-01T00:03:49.000Z</time>
      </trkpt>
      <trkpt lat="42.372612" lon="1.891866">
        <ele>1200.3</ele>
        <time>1970-01-01T00:03:50.000Z</time>
      </trkpt>
      <trkpt lat="42.372585" lon="1.891878">
        <ele>1200.5</ele>
        <time>1970-01-01T00:03:51.000Z</time>
      </trkpt>
      <trkpt lat="42.372562" lon="1.89189">
        <ele>1200.6</ele>
        <time>1970-01-01T00:03:52.000Z</time>
      </trkpt>
      <trkpt lat="42.372536" lon="1.891903">
        <ele>1200.8</ele>
        <time>1970-01-01T00:03:53.000Z</time>
      </trkpt>
      <trkpt lat="42.372509" lon="1.891915">
        <ele>1201</ele>
        <time>1970-01-01T00:03:54.000Z</time>
      </trkpt>
      <trkpt lat="42.372486" lon="1.891928">
        <ele>1201.2</ele>
        <time>1970-01-01T00:03:55.000Z</time>
      </trkpt>
      <trkpt lat="42.372459" lon="1.891939">
        <ele>1201.4</ele>
        <time>1970-01-01T00:03:56.000Z</time>
      </trkpt>
      <trkpt lat="42.372433" lon="1.89195">
        <ele>1201.6</ele>
        <time>1970-01-01T00:03:57.000Z</time>
      </trkpt>
      <trkpt lat="42.37241" lon="1.891963">
        <ele>1201.8</ele>
        <time>1970-01-01T00:03:58.000Z</time>
      </trkpt>
      <trkpt lat="42.372383" lon="1.891981">
        <ele>1202</ele>
        <time>1970-01-01T00:03:59.000Z</time>
      </trkpt>
      <trkpt lat="42.37236" lon="1.891999">
        <ele>1202.2</ele>
        <time>1970-01-01T00:04:00.000Z</time>
      </trkpt>
      <trkpt lat="42.372337" lon="1.892018">
        <ele>1202.3</ele>
        <time>1970-01-01T00:04:01.000Z</time>
      </trkpt>
      <trkpt lat="42.372314" lon="1.89204">
        <ele>1202.5</ele>
        <time>1970-01-01T00:04:02.000Z</time>
      </trkpt>
      <trkpt lat="42.372292" lon="1.892058">
        <ele>1202.7</ele>
        <time>1970-01-01T00:04:03.000Z</time>
      </trkpt>
      <trkpt lat="42.372269" lon="1.892076">
        <ele>1202.9</ele>
        <time>1970-01-01T00:04:04.000Z</time>
      </trkpt>
      <trkpt lat="42.372246" lon="1.892096">
        <ele>1203.1</ele>
        <time>1970-01-01T00:04:05.000Z</time>
      </trkpt>
      <trkpt lat="42.372227" lon="1.892117">
        <ele>1203.2</ele>
        <time>1970-01-01T00:04:06.000Z</time>
      </trkpt>
      <trkpt lat="42.372204" lon="1.892136">
        <ele>1203.4</ele>
        <time>1970-01-01T00:04:07.000Z</time>
      </trkpt>
      <trkpt lat="42.372181" lon="1.892154">
        <ele>1203.6</ele>
        <time>1970-01-01T00:04:08.000Z</time>
      </trkpt>
      <trkpt lat="42.372158" lon="1.89217">
        <ele>1203.8</ele>
        <time>1970-01-01T00:04:09.000Z</time>
      </trkpt>
      <trkpt lat="42.372135" lon="1.892188">
        <ele>1204</ele>
        <time>1970-01-01T00:04:10.000Z</time>
      </trkpt>
      <trkpt lat="42.372112" lon="1.892204">
        <ele>1204.2</ele>
        <time>1970-01-01T00:04:11.000Z</time>
      </trkpt>
      <trkpt lat="42.372089" lon="1.892221">
        <ele>1204.4</ele>
        <time>1970-01-01T00:04:12.000Z</time>
      </trkpt>
      <trkpt lat="42.372066" lon="1.892238">
        <ele>1204.6</ele>
        <time>1970-01-01T00:04:13.000Z</time>
      </trkpt>
      <trkpt lat="42.372044" lon="1.89225">
        <ele>1204.8</ele>
        <time>1970-01-01T00:04:14.000Z</time>
      </trkpt>
      <trkpt lat="42.372021" lon="1.89226">
        <ele>1205</ele>
        <time>1970-01-01T00:04:15.000Z</time>
      </trkpt>
      <trkpt lat="42.371998" lon="1.892269">
        <ele>1205.2</ele>
        <time>1970-01-01T00:04:16.000Z</time>
      </trkpt>
      <trkpt lat="42.371967" lon="1.89228">
        <ele>1205.4</ele>
        <time>1970-01-01T00:04:17.000Z</time>
      </trkpt>
      <trkpt lat="42.371944" lon="1.892289">
        <ele>1205.6</ele>
        <time>1970-01-01T00:04:18.000Z</time>
      </trkpt>
      <trkpt lat="42.371918" lon="1.892297">
        <ele>1205.8</ele>
        <time>1970-01-01T00:04:19.000Z</time>
      </trkpt>
      <trkpt lat="42.371895" lon="1.892304">
        <ele>1205.9</ele>
        <time>1970-01-01T00:04:20.000Z</time>
      </trkpt>
      <trkpt lat="42.371868" lon="1.892312">
        <ele>1206.1</ele>
        <time>1970-01-01T00:04:21.000Z</time>
      </trkpt>
      <trkpt lat="42.371841" lon="1.892318">
        <ele>1206.3</ele>
        <time>1970-01-01T00:04:22.000Z</time>
      </trkpt>
      <trkpt lat="42.371815" lon="1.89232">
        <ele>1206.5</ele>
        <time>1970-01-01T00:04:23.000Z</time>
      </trkpt>
      <trkpt lat="42.371788" lon="1.892319">
        <ele>1206.7</ele>
        <time>1970-01-01T00:04:24.000Z</time>
      </trkpt>
      <trkpt lat="42.371761" lon="1.892317">
        <ele>1206.9</ele>
        <time>1970-01-01T00:04:25.000Z</time>
      </trkpt>
      <trkpt lat="42.371738" lon="1.892318">
        <ele>1207.1</ele>
        <time>1970-01-01T00:04:26.000Z</time>
      </trkpt>
      <trkpt lat="42.371712" lon="1.892321">
        <ele>1207.2</ele>
        <time>1970-01-01T00:04:27.000Z</time>
      </trkpt>
      <trkpt lat="42.371685" lon="1.892325">
        <ele>1207.4</ele>
        <time>1970-01-01T00:04:28.000Z</time>
      </trkpt>
      <trkpt lat="42.371658" lon="1.892328">
        <ele>1207.6</ele>
        <time>1970-01-01T00:04:29.000Z</time>
      </trkpt>
      <trkpt lat="42.371628" lon="1.892333">
        <ele>1207.8</ele>
        <time>1970-01-01T00:04:30.000Z</time>
      </trkpt>
      <trkpt lat="42.371597" lon="1.892338">
        <ele>1208</ele>
        <time>1970-01-01T00:04:31.000Z</time>
      </trkpt>
      <trkpt lat="42.371571" lon="1.89234">
        <ele>1208.2</ele>
        <time>1970-01-01T00:04:32.000Z</time>
      </trkpt>
      <trkpt lat="42.37154" lon="1.892341">
        <ele>1208.4</ele>
        <time>1970-01-01T00:04:33.000Z</time>
      </trkpt>
      <trkpt lat="42.371513" lon="1.892343">
        <ele>1208.6</ele>
        <time>1970-01-01T00:04:34.000Z</time>
      </trkpt>
      <trkpt lat="42.371483" lon="1.892348">
        <ele>1208.8</ele>
        <time>1970-01-01T00:04:35.000Z</time>
      </trkpt>
      <trkpt lat="42.371452" lon="1.892351">
        <ele>1209</ele>
        <time>1970-01-01T00:04:36.000Z</time>
      </trkpt>
      <trkpt lat="42.371422" lon="1.892352">
        <ele>1209.2</ele>
        <time>1970-01-01T00:04:37.000Z</time>
      </trkpt>
      <trkpt lat="42.371395" lon="1.892353">
        <ele>1209.4</ele>
        <time>1970-01-01T00:04:38.000Z</time>
      </trkpt>
      <trkpt lat="42.371368" lon="1.892353">
        <ele>1209.6</ele>
        <time>1970-01-01T00:04:39.000Z</time>
      </trkpt>
      <trkpt lat="42.371342" lon="1.892356">
        <ele>1209.8</ele>
        <time>1970-01-01T00:04:40.000Z</time>
      </trkpt>
      <trkpt lat="42.371311" lon="1.892359">
        <ele>1210</ele>
        <time>1970-01-01T00:04:41.000Z</time>
      </trkpt>
      <trkpt lat="42.371284" lon="1.892363">
        <ele>1210.3</ele>
        <time>1970-01-01T00:04:42.000Z</time>
      </trkpt>
      <trkpt lat="42.371258" lon="1.892368">
        <ele>1210.5</ele>
        <time>1970-01-01T00:04:43.000Z</time>
      </trkpt>
      <trkpt lat="42.371231" lon="1.892373">
        <ele>1210.7</ele>
        <time>1970-01-01T00:04:44.000Z</time>
      </trkpt>
      <trkpt lat="42.371208" lon="1.892381">
        <ele>1210.9</ele>
        <time>1970-01-01T00:04:45.000Z</time>
      </trkpt>
      <trkpt lat="42.371182" lon="1.892387">
        <ele>1211.1</ele>
        <time>1970-01-01T00:04:46.000Z</time>
      </trkpt>
      <trkpt lat="42.371155" lon="1.892394">
        <ele>1211.3</ele>
        <time>1970-01-01T00:04:47.000Z</time>
      </trkpt>
      <trkpt lat="42.371128" lon="1.892403">
        <ele>1211.5</ele>
        <time>1970-01-01T00:04:48.000Z</time>
      </trkpt>
      <trkpt lat="42.371101" lon="1.892418">
        <ele>1211.7</ele>
        <time>1970-01-01T00:04:49.000Z</time>
      </trkpt>
      <trkpt lat="42.371075" lon="1.892432">
        <ele>1211.9</ele>
        <time>1970-01-01T00:04:50.000Z</time>
      </trkpt>
      <trkpt lat="42.371052" lon="1.892448">
        <ele>1212.2</ele>
        <time>1970-01-01T00:04:51.000Z</time>
      </trkpt>
      <trkpt lat="42.371029" lon="1.892466">
        <ele>1212.4</ele>
        <time>1970-01-01T00:04:52.000Z</time>
      </trkpt>
      <trkpt lat="42.371006" lon="1.892484">
        <ele>1212.6</ele>
        <time>1970-01-01T00:04:53.000Z</time>
      </trkpt>
      <trkpt lat="42.370983" lon="1.892501">
        <ele>1212.8</ele>
        <time>1970-01-01T00:04:54.000Z</time>
      </trkpt>
      <trkpt lat="42.370964" lon="1.892522">
        <ele>1213</ele>
        <time>1970-01-01T00:04:55.000Z</time>
      </trkpt>
      <trkpt lat="42.370945" lon="1.892548">
        <ele>1213.2</ele>
        <time>1970-01-01T00:04:56.000Z</time>
      </trkpt>
      <trkpt lat="42.37093" lon="1.892578">
        <ele>1213.4</ele>
        <time>1970-01-01T00:04:57.000Z</time>
      </trkpt>
      <trkpt lat="42.370914" lon="1.892604">
        <ele>1213.6</ele>
        <time>1970-01-01T00:04:58.000Z</time>
      </trkpt>
      <trkpt lat="42.370895" lon="1.892632">
        <ele>1213.8</ele>
        <time>1970-01-01T00:04:59.000Z</time>
      </trkpt>
      <trkpt lat="42.37088" lon="1.892657">
        <ele>1214</ele>
        <time>1970-01-01T00:05:00.000Z</time>
      </trkpt>
      <trkpt lat="42.370869" lon="1.892682">
        <ele>1214.2</ele>
        <time>1970-01-01T00:05:01.000Z</time>
      </trkpt>
      <trkpt lat="42.370853" lon="1.892709">
        <ele>1214.4</ele>
        <time>1970-01-01T00:05:02.000Z</time>
      </trkpt>
      <trkpt lat="42.37085" lon="1.89274">
        <ele>1214.6</ele>
        <time>1970-01-01T00:05:03.000Z</time>
      </trkpt>
      <trkpt lat="42.370842" lon="1.892771">
        <ele>1214.7</ele>
        <time>1970-01-01T00:05:04.000Z</time>
      </trkpt>
      <trkpt lat="42.370834" lon="1.8928">
        <ele>1214.9</ele>
        <time>1970-01-01T00:05:05.000Z</time>
      </trkpt>
      <trkpt lat="42.37083" lon="1.892827">
        <ele>1215</ele>
        <time>1970-01-01T00:05:06.000Z</time>
      </trkpt>
      <trkpt lat="42.37083" lon="1.892856">
        <ele>1215.2</ele>
        <time>1970-01-01T00:05:07.000Z</time>
      </trkpt>
      <trkpt lat="42.37083" lon="1.892889">
        <ele>1215.4</ele>
        <time>1970-01-01T00:05:08.000Z</time>
      </trkpt>
      <trkpt lat="42.370834" lon="1.892922">
        <ele>1215.5</ele>
        <time>1970-01-01T00:05:09.000Z</time>
      </trkpt>
      <trkpt lat="42.370838" lon="1.892959">
        <ele>1215.7</ele>
        <time>1970-01-01T00:05:10.000Z</time>
      </trkpt>
      <trkpt lat="42.370842" lon="1.892995">
        <ele>1215.9</ele>
        <time>1970-01-01T00:05:11.000Z</time>
      </trkpt>
      <trkpt lat="42.37085" lon="1.893033">
        <ele>1216.1</ele>
        <time>1970-01-01T00:05:12.000Z</time>
      </trkpt>
      <trkpt lat="42.370853" lon="1.89307">
        <ele>1216.3</ele>
        <time>1970-01-01T00:05:13.000Z</time>
      </trkpt>
      <trkpt lat="42.370861" lon="1.893106">
        <ele>1216.5</ele>
        <time>1970-01-01T00:05:14.000Z</time>
      </trkpt>
      <trkpt lat="42.370865" lon="1.893142">
        <ele>1216.7</ele>
        <time>1970-01-01T00:05:15.000Z</time>
      </trkpt>
      <trkpt lat="42.370865" lon="1.893177">
        <ele>1216.9</ele>
        <time>1970-01-01T00:05:16.000Z</time>
      </trkpt>
      <trkpt lat="42.370865" lon="1.893213">
        <ele>1217.1</ele>
        <time>1970-01-01T00:05:17.000Z</time>
      </trkpt>
      <trkpt lat="42.370869" lon="1.893247">
        <ele>1217.2</ele>
        <time>1970-01-01T00:05:18.000Z</time>
      </trkpt>
      <trkpt lat="42.370869" lon="1.89328">
        <ele>1217.4</ele>
        <time>1970-01-01T00:05:19.000Z</time>
      </trkpt>
      <trkpt lat="42.370865" lon="1.893314">
        <ele>1217.6</ele>
        <time>1970-01-01T00:05:20.000Z</time>
      </trkpt>
      <trkpt lat="42.370865" lon="1.893346">
        <ele>1217.8</ele>
        <time>1970-01-01T00:05:21.000Z</time>
      </trkpt>
      <trkpt lat="42.370857" lon="1.893379">
        <ele>1217.9</ele>
        <time>1970-01-01T00:05:22.000Z</time>
      </trkpt>
      <trkpt lat="42.370853" lon="1.893411">
        <ele>1218.1</ele>
        <time>1970-01-01T00:05:23.000Z</time>
      </trkpt>
      <trkpt lat="42.370846" lon="1.893444">
        <ele>1218.3</ele>
        <time>1970-01-01T00:05:24.000Z</time>
      </trkpt>
      <trkpt lat="42.370838" lon="1.893479">
        <ele>1218.5</ele>
        <time>1970-01-01T00:05:25.000Z</time>
      </trkpt>
      <trkpt lat="42.37083" lon="1.893514">
        <ele>1218.7</ele>
        <time>1970-01-01T00:05:26.000Z</time>
      </trkpt>
      <trkpt lat="42.370823" lon="1.893548">
        <ele>1218.9</ele>
        <time>1970-01-01T00:05:27.000Z</time>
      </trkpt>
      <trkpt lat="42.370811" lon="1.893579">
        <ele>1219</ele>
        <time>1970-01-01T00:05:28.000Z</time>
      </trkpt>
      <trkpt lat="42.370796" lon="1.89361">
        <ele>1219.2</ele>
        <time>1970-01-01T00:05:29.000Z</time>
      </trkpt>
      <trkpt lat="42.370781" lon="1.893638">
        <ele>1219.4</ele>
        <time>1970-01-01T00:05:30.000Z</time>
      </trkpt>
      <trkpt lat="42.370762" lon="1.893668">
        <ele>1219.6</ele>
        <time>1970-01-01T00:05:31.000Z</time>
      </trkpt>
      <trkpt lat="42.370747" lon="1.893695">
        <ele>1219.8</ele>
        <time>1970-01-01T00:05:32.000Z</time>
      </trkpt>
      <trkpt lat="42.370728" lon="1.893722">
        <ele>1220</ele>
        <time>1970-01-01T00:05:33.000Z</time>
      </trkpt>
      <trkpt lat="42.370708" lon="1.893747">
        <ele>1220.2</ele>
        <time>1970-01-01T00:05:34.000Z</time>
      </trkpt>
      <trkpt lat="42.370689" lon="1.893775">
        <ele>1220.4</ele>
        <time>1970-01-01T00:05:35.000Z</time>
      </trkpt>
      <trkpt lat="42.37067" lon="1.893799">
        <ele>1220.6</ele>
        <time>1970-01-01T00:05:36.000Z</time>
      </trkpt>
      <trkpt lat="42.370655" lon="1.893823">
        <ele>1220.8</ele>
        <time>1970-01-01T00:05:37.000Z</time>
      </trkpt>
      <trkpt lat="42.370636" lon="1.893851">
        <ele>1221</ele>
        <time>1970-01-01T00:05:38.000Z</time>
      </trkpt>
      <trkpt lat="42.370617" lon="1.893874">
        <ele>1221.2</ele>
        <time>1970-01-01T00:05:39.000Z</time>
      </trkpt>
      <trkpt lat="42.370594" lon="1.893901">
        <ele>1221.4</ele>
        <time>1970-01-01T00:05:40.000Z</time>
      </trkpt>
      <trkpt lat="42.370579" lon="1.893925">
        <ele>1221.5</ele>
        <time>1970-01-01T00:05:41.000Z</time>
      </trkpt>
      <trkpt lat="42.37056" lon="1.893951">
        <ele>1221.7</ele>
        <time>1970-01-01T00:05:42.000Z</time>
      </trkpt>
      <trkpt lat="42.370541" lon="1.89398">
        <ele>1221.9</ele>
        <time>1970-01-01T00:05:43.000Z</time>
      </trkpt>
      <trkpt lat="42.370522" lon="1.894004">
        <ele>1222.1</ele>
        <time>1970-01-01T00:05:44.000Z</time>
      </trkpt>
      <trkpt lat="42.370503" lon="1.894025">
        <ele>1222.3</ele>
        <time>1970-01-01T00:05:45.000Z</time>
      </trkpt>
      <trkpt lat="42.370487" lon="1.89405">
        <ele>1222.5</ele>
        <time>1970-01-01T00:05:46.000Z</time>
      </trkpt>
      <trkpt lat="42.370472" lon="1.894074">
        <ele>1222.6</ele>
        <time>1970-01-01T00:05:47.000Z</time>
      </trkpt>
      <trkpt lat="42.370453" lon="1.894099">
        <ele>1222.8</ele>
        <time>1970-01-01T00:05:48.000Z</time>
      </trkpt>
      <trkpt lat="42.370434" lon="1.894122">
        <ele>1223</ele>
        <time>1970-01-01T00:05:49.000Z</time>
      </trkpt>
      <trkpt lat="42.370415" lon="1.894147">
        <ele>1223.2</ele>
        <time>1970-01-01T00:05:50.000Z</time>
      </trkpt>
      <trkpt lat="42.370399" lon="1.894173">
        <ele>1223.4</ele>
        <time>1970-01-01T00:05:51.000Z</time>
      </trkpt>
      <trkpt lat="42.370384" lon="1.894199">
        <ele>1223.6</ele>
        <time>1970-01-01T00:05:52.000Z</time>
      </trkpt>
      <trkpt lat="42.370369" lon="1.894228">
        <ele>1223.8</ele>
        <time>1970-01-01T00:05:53.000Z</time>
      </trkpt>
      <trkpt lat="42.37035" lon="1.894257">
        <ele>1224</ele>
        <time>1970-01-01T00:05:54.000Z</time>
      </trkpt>
      <trkpt lat="42.370335" lon="1.894283">
        <ele>1224.2</ele>
        <time>1970-01-01T00:05:55.000Z</time>
      </trkpt>
      <trkpt lat="42.370319" lon="1.894312">
        <ele>1224.4</ele>
        <time>1970-01-01T00:05:56.000Z</time>
      </trkpt>
      <trkpt lat="42.370308" lon="1.894341">
        <ele>1224.5</ele>
        <time>1970-01-01T00:05:57.000Z</time>
      </trkpt>
      <trkpt lat="42.370289" lon="1.89437">
        <ele>1224.7</ele>
        <time>1970-01-01T00:05:58.000Z</time>
      </trkpt>
      <trkpt lat="42.37027" lon="1.894398">
        <ele>1225</ele>
        <time>1970-01-01T00:05:59.000Z</time>
      </trkpt>
      <trkpt lat="42.370251" lon="1.894423">
        <ele>1225.2</ele>
        <time>1970-01-01T00:06:00.000Z</time>
      </trkpt>
      <trkpt lat="42.370235" lon="1.894448">
        <ele>1225.3</ele>
        <time>1970-01-01T00:06:01.000Z</time>
      </trkpt>
      <trkpt lat="42.37022" lon="1.894477">
        <ele>1225.5</ele>
        <time>1970-01-01T00:06:02.000Z</time>
      </trkpt>
      <trkpt lat="42.370205" lon="1.894505">
        <ele>1225.7</ele>
        <time>1970-01-01T00:06:03.000Z</time>
      </trkpt>
      <trkpt lat="42.370193" lon="1.894533">
        <ele>1225.9</ele>
        <time>1970-01-01T00:06:04.000Z</time>
      </trkpt>
      <trkpt lat="42.370174" lon="1.89456">
        <ele>1226.1</ele>
        <time>1970-01-01T00:06:05.000Z</time>
      </trkpt>
      <trkpt lat="42.370159" lon="1.894588">
        <ele>1226.3</ele>
        <time>1970-01-01T00:06:06.000Z</time>
      </trkpt>
      <trkpt lat="42.370144" lon="1.894612">
        <ele>1226.5</ele>
        <time>1970-01-01T00:06:07.000Z</time>
      </trkpt>
      <trkpt lat="42.370125" lon="1.894638">
        <ele>1226.7</ele>
        <time>1970-01-01T00:06:08.000Z</time>
      </trkpt>
      <trkpt lat="42.370106" lon="1.894662">
        <ele>1226.9</ele>
        <time>1970-01-01T00:06:09.000Z</time>
      </trkpt>
      <trkpt lat="42.37009" lon="1.894684">
        <ele>1227.1</ele>
        <time>1970-01-01T00:06:10.000Z</time>
      </trkpt>
      <trkpt lat="42.370068" lon="1.894704">
        <ele>1227.4</ele>
        <time>1970-01-01T00:06:11.000Z</time>
      </trkpt>
      <trkpt lat="42.370052" lon="1.89472">
        <ele>1227.5</ele>
        <time>1970-01-01T00:06:12.000Z</time>
      </trkpt>
      <trkpt lat="42.370037" lon="1.894732">
        <ele>1227.7</ele>
        <time>1970-01-01T00:06:13.000Z</time>
      </trkpt>
      <trkpt lat="42.370014" lon="1.89474">
        <ele>1227.9</ele>
        <time>1970-01-01T00:06:14.000Z</time>
      </trkpt>
      <trkpt lat="42.369991" lon="1.894743">
        <ele>1228.1</ele>
        <time>1970-01-01T00:06:15.000Z</time>
      </trkpt>
      <trkpt lat="42.369965" lon="1.89474">
        <ele>1228.3</ele>
        <time>1970-01-01T00:06:16.000Z</time>
      </trkpt>
      <trkpt lat="42.369938" lon="1.894734">
        <ele>1228.5</ele>
        <time>1970-01-01T00:06:17.000Z</time>
      </trkpt>
      <trkpt lat="42.369911" lon="1.894726">
        <ele>1228.7</ele>
        <time>1970-01-01T00:06:18.000Z</time>
      </trkpt>
      <trkpt lat="42.369888" lon="1.894715">
        <ele>1228.9</ele>
        <time>1970-01-01T00:06:19.000Z</time>
      </trkpt>
      <trkpt lat="42.369865" lon="1.894702">
        <ele>1228.9</ele>
        <time>1970-01-01T00:06:20.000Z</time>
      </trkpt>
      <trkpt lat="42.36985" lon="1.894684">
        <ele>1228.8</ele>
        <time>1970-01-01T00:06:21.000Z</time>
      </trkpt>
      <trkpt lat="42.369835" lon="1.894663">
        <ele>1229</ele>
        <time>1970-01-01T00:06:22.000Z</time>
      </trkpt>
      <trkpt lat="42.36982" lon="1.894636">
        <ele>1229.2</ele>
        <time>1970-01-01T00:06:23.000Z</time>
      </trkpt>
      <trkpt lat="42.369808" lon="1.894605">
        <ele>1229.4</ele>
        <time>1970-01-01T00:06:24.000Z</time>
      </trkpt>
      <trkpt lat="42.369801" lon="1.894577">
        <ele>1229.6</ele>
        <time>1970-01-01T00:06:25.000Z</time>
      </trkpt>
      <trkpt lat="42.369797" lon="1.894544">
        <ele>1229.8</ele>
        <time>1970-01-01T00:06:26.000Z</time>
      </trkpt>
      <trkpt lat="42.369797" lon="1.894514">
        <ele>1230</ele>
        <time>1970-01-01T00:06:27.000Z</time>
      </trkpt>
      <trkpt lat="42.369801" lon="1.894482">
        <ele>1230.1</ele>
        <time>1970-01-01T00:06:28.000Z</time>
      </trkpt>
      <trkpt lat="42.369808" lon="1.894451">
        <ele>1230.3</ele>
        <time>1970-01-01T00:06:29.000Z</time>
      </trkpt>
      <trkpt lat="42.369812" lon="1.894421">
        <ele>1230.5</ele>
        <time>1970-01-01T00:06:30.000Z</time>
      </trkpt>
      <trkpt lat="42.36982" lon="1.894391">
        <ele>1230.6</ele>
        <time>1970-01-01T00:06:31.000Z</time>
      </trkpt>
      <trkpt lat="42.369827" lon="1.894361">
        <ele>1230.8</ele>
        <time>1970-01-01T00:06:32.000Z</time>
      </trkpt>
      <trkpt lat="42.369839" lon="1.894333">
        <ele>1230.9</ele>
        <time>1970-01-01T00:06:33.000Z</time>
      </trkpt>
      <trkpt lat="42.36985" lon="1.894306">
        <ele>1231.1</ele>
        <time>1970-01-01T00:06:34.000Z</time>
      </trkpt>
      <trkpt lat="42.369865" lon="1.894281">
        <ele>1231.2</ele>
        <time>1970-01-01T00:06:35.000Z</time>
      </trkpt>
      <trkpt lat="42.369885" lon="1.894254">
        <ele>1231.4</ele>
        <time>1970-01-01T00:06:36.000Z</time>
      </trkpt>
      <trkpt lat="42.369904" lon="1.894222">
        <ele>1231.6</ele>
        <time>1970-01-01T00:06:37.000Z</time>
      </trkpt>
      <trkpt lat="42.369923" lon="1.894189">
        <ele>1231.8</ele>
        <time>1970-01-01T00:06:38.000Z</time>
      </trkpt>
      <trkpt lat="42.369934" lon="1.894159">
        <ele>1231.9</ele>
        <time>1970-01-01T00:06:39.000Z</time>
      </trkpt>
      <trkpt lat="42.369949" lon="1.894126">
        <ele>1232.1</ele>
        <time>1970-01-01T00:06:40.000Z</time>
      </trkpt>
      <trkpt lat="42.369961" lon="1.894094">
        <ele>1232.3</ele>
        <time>1970-01-01T00:06:41.000Z</time>
      </trkpt>
      <trkpt lat="42.36998" lon="1.894065">
        <ele>1232.5</ele>
        <time>1970-01-01T00:06:42.000Z</time>
      </trkpt>
      <trkpt lat="42.369995" lon="1.894038">
        <ele>1232.7</ele>
        <time>1970-01-01T00:06:43.000Z</time>
      </trkpt>
      <trkpt lat="42.370014" lon="1.894012">
        <ele>1232.8</ele>
        <time>1970-01-01T00:06:44.000Z</time>
      </trkpt>
      <trkpt lat="42.370029" lon="1.893981">
        <ele>1233</ele>
        <time>1970-01-01T00:06:45.000Z</time>
      </trkpt>
      <trkpt lat="42.370045" lon="1.893949">
        <ele>1233.2</ele>
        <time>1970-01-01T00:06:46.000Z</time>
      </trkpt>
      <trkpt lat="42.370056" lon="1.893919">
        <ele>1233.4</ele>
        <time>1970-01-01T00:06:47.000Z</time>
      </trkpt>
      <trkpt lat="42.370071" lon="1.893889">
        <ele>1233.6</ele>
        <time>1970-01-01T00:06:48.000Z</time>
      </trkpt>
      <trkpt lat="42.37009" lon="1.89386">
        <ele>1233.8</ele>
        <time>1970-01-01T00:06:49.000Z</time>
      </trkpt>
      <trkpt lat="42.37011" lon="1.893829">
        <ele>1233.9</ele>
        <time>1970-01-01T00:06:50.000Z</time>
      </trkpt>
      <trkpt lat="42.370129" lon="1.893799">
        <ele>1234.1</ele>
        <time>1970-01-01T00:06:51.000Z</time>
      </trkpt>
      <trkpt lat="42.370144" lon="1.893771">
        <ele>1234.3</ele>
        <time>1970-01-01T00:06:52.000Z</time>
      </trkpt>
      <trkpt lat="42.370159" lon="1.89374">
        <ele>1234.4</ele>
        <time>1970-01-01T00:06:53.000Z</time>
      </trkpt>
      <trkpt lat="42.370178" lon="1.89371">
        <ele>1234.5</ele>
        <time>1970-01-01T00:06:54.000Z</time>
      </trkpt>
      <trkpt lat="42.370193" lon="1.893682">
        <ele>1234.8</ele>
        <time>1970-01-01T00:06:55.000Z</time>
      </trkpt>
      <trkpt lat="42.370205" lon="1.893654">
        <ele>1235.1</ele>
        <time>1970-01-01T00:06:56.000Z</time>
      </trkpt>
      <trkpt lat="42.370224" lon="1.893621">
        <ele>1235.4</ele>
        <time>1970-01-01T00:06:57.000Z</time>
      </trkpt>
      <trkpt lat="42.370235" lon="1.893589">
        <ele>1235.7</ele>
        <time>1970-01-01T00:06:58.000Z</time>
      </trkpt>
      <trkpt lat="42.370251" lon="1.893556">
        <ele>1235.9</ele>
        <time>1970-01-01T00:06:59.000Z</time>
      </trkpt>
      <trkpt lat="42.37027" lon="1.893522">
        <ele>1236.2</ele>
        <time>1970-01-01T00:07:00.000Z</time>
      </trkpt>
      <trkpt lat="42.370281" lon="1.893491">
        <ele>1236.5</ele>
        <time>1970-01-01T00:07:01.000Z</time>
      </trkpt>
      <trkpt lat="42.370293" lon="1.893458">
        <ele>1236.7</ele>
        <time>1970-01-01T00:07:02.000Z</time>
      </trkpt>
      <trkpt lat="42.370304" lon="1.893426">
        <ele>1237</ele>
        <time>1970-01-01T00:07:03.000Z</time>
      </trkpt>
      <trkpt lat="42.370316" lon="1.893391">
        <ele>1237.2</ele>
        <time>1970-01-01T00:07:04.000Z</time>
      </trkpt>
      <trkpt lat="42.370323" lon="1.893356">
        <ele>1237.5</ele>
        <time>1970-01-01T00:07:05.000Z</time>
      </trkpt>
      <trkpt lat="42.370331" lon="1.893318">
        <ele>1237.7</ele>
        <time>1970-01-01T00:07:06.000Z</time>
      </trkpt>
      <trkpt lat="42.370335" lon="1.893283">
        <ele>1238</ele>
        <time>1970-01-01T00:07:07.000Z</time>
      </trkpt>
      <trkpt lat="42.370338" lon="1.893248">
        <ele>1238.2</ele>
        <time>1970-01-01T00:07:08.000Z</time>
      </trkpt>
      <trkpt lat="42.370342" lon="1.893211">
        <ele>1238.5</ele>
        <time>1970-01-01T00:07:09.000Z</time>
      </trkpt>
      <trkpt lat="42.370342" lon="1.893172">
        <ele>1238.7</ele>
        <time>1970-01-01T00:07:10.000Z</time>
      </trkpt>
      <trkpt lat="42.370342" lon="1.893135">
        <ele>1239</ele>
        <time>1970-01-01T00:07:11.000Z</time>
      </trkpt>
      <trkpt lat="42.370346" lon="1.893099">
        <ele>1239.2</ele>
        <time>1970-01-01T00:07:12.000Z</time>
      </trkpt>
      <trkpt lat="42.370346" lon="1.893061">
        <ele>1239.4</ele>
        <time>1970-01-01T00:07:13.000Z</time>
      </trkpt>
      <trkpt lat="42.370342" lon="1.893022">
        <ele>1239.7</ele>
        <time>1970-01-01T00:07:14.000Z</time>
      </trkpt>
      <trkpt lat="42.370342" lon="1.892982">
        <ele>1240</ele>
        <time>1970-01-01T00:07:15.000Z</time>
      </trkpt>
      <trkpt lat="42.370342" lon="1.892947">
        <ele>1240.2</ele>
        <time>1970-01-01T00:07:16.000Z</time>
      </trkpt>
      <trkpt lat="42.370346" lon="1.892909">
        <ele>1240.4</ele>
        <time>1970-01-01T00:07:17.000Z</time>
      </trkpt>
      <trkpt lat="42.37035" lon="1.892871">
        <ele>1240.7</ele>
        <time>1970-01-01T00:07:18.000Z</time>
      </trkpt>
      <trkpt lat="42.37035" lon="1.892837">
        <ele>1240.9</ele>
        <time>1970-01-01T00:07:19.000Z</time>
      </trkpt>
      <trkpt lat="42.370346" lon="1.8928">
        <ele>1241.2</ele>
        <time>1970-01-01T00:07:20.000Z</time>
      </trkpt>
      <trkpt lat="42.370346" lon="1.892763">
        <ele>1241.4</ele>
        <time>1970-01-01T00:07:21.000Z</time>
      </trkpt>
      <trkpt lat="42.370346" lon="1.892728">
        <ele>1241.7</ele>
        <time>1970-01-01T00:07:22.000Z</time>
      </trkpt>
      <trkpt lat="42.370346" lon="1.89269">
        <ele>1241.9</ele>
        <time>1970-01-01T00:07:23.000Z</time>
      </trkpt>
      <trkpt lat="42.370346" lon="1.892651">
        <ele>1242.2</ele>
        <time>1970-01-01T00:07:24.000Z</time>
      </trkpt>
      <trkpt lat="42.370342" lon="1.892613">
        <ele>1242.4</ele>
        <time>1970-01-01T00:07:25.000Z</time>
      </trkpt>
      <trkpt lat="42.370346" lon="1.892575">
        <ele>1242.7</ele>
        <time>1970-01-01T00:07:26.000Z</time>
      </trkpt>
      <trkpt lat="42.37035" lon="1.892541">
        <ele>1242.9</ele>
        <time>1970-01-01T00:07:27.000Z</time>
      </trkpt>
      <trkpt lat="42.370358" lon="1.892506">
        <ele>1243.2</ele>
        <time>1970-01-01T00:07:28.000Z</time>
      </trkpt>
      <trkpt lat="42.370365" lon="1.89247">
        <ele>1243.4</ele>
        <time>1970-01-01T00:07:29.000Z</time>
      </trkpt>
      <trkpt lat="42.370377" lon="1.892437">
        <ele>1243.7</ele>
        <time>1970-01-01T00:07:30.000Z</time>
      </trkpt>
      <trkpt lat="42.370388" lon="1.892404">
        <ele>1243.9</ele>
        <time>1970-01-01T00:07:31.000Z</time>
      </trkpt>
      <trkpt lat="42.370392" lon="1.892377">
        <ele>1244.1</ele>
        <time>1970-01-01T00:07:32.000Z</time>
      </trkpt>
      <trkpt lat="42.370403" lon="1.892343">
        <ele>1244.4</ele>
        <time>1970-01-01T00:07:33.000Z</time>
      </trkpt>
      <trkpt lat="42.370422" lon="1.892308">
        <ele>1244.7</ele>
        <time>1970-01-01T00:07:34.000Z</time>
      </trkpt>
      <trkpt lat="42.370434" lon="1.892274">
        <ele>1244.9</ele>
        <time>1970-01-01T00:07:35.000Z</time>
      </trkpt>
      <trkpt lat="42.370449" lon="1.892242">
        <ele>1245.2</ele>
        <time>1970-01-01T00:07:36.000Z</time>
      </trkpt>
      <trkpt lat="42.370461" lon="1.89221">
        <ele>1245.5</ele>
        <time>1970-01-01T00:07:37.000Z</time>
      </trkpt>
      <trkpt lat="42.370468" lon="1.892178">
        <ele>1245.7</ele>
        <time>1970-01-01T00:07:38.000Z</time>
      </trkpt>
      <trkpt lat="42.37048" lon="1.892143">
        <ele>1246</ele>
        <time>1970-01-01T00:07:39.000Z</time>
      </trkpt>
      <trkpt lat="42.370495" lon="1.892112">
        <ele>1246.3</ele>
        <time>1970-01-01T00:07:40.000Z</time>
      </trkpt>
      <trkpt lat="42.37051" lon="1.892079">
        <ele>1246.5</ele>
        <time>1970-01-01T00:07:41.000Z</time>
      </trkpt>
      <trkpt lat="42.370522" lon="1.892047">
        <ele>1246.8</ele>
        <time>1970-01-01T00:07:42.000Z</time>
      </trkpt>
      <trkpt lat="42.370529" lon="1.89202">
        <ele>1247</ele>
        <time>1970-01-01T00:07:43.000Z</time>
      </trkpt>
      <trkpt lat="42.370544" lon="1.89199">
        <ele>1247.3</ele>
        <time>1970-01-01T00:07:44.000Z</time>
      </trkpt>
      <trkpt lat="42.37056" lon="1.891961">
        <ele>1247.5</ele>
        <time>1970-01-01T00:07:45.000Z</time>
      </trkpt>
      <trkpt lat="42.370571" lon="1.891932">
        <ele>1247.8</ele>
        <time>1970-01-01T00:07:46.000Z</time>
      </trkpt>
      <trkpt lat="42.370579" lon="1.891901">
        <ele>1248</ele>
        <time>1970-01-01T00:07:47.000Z</time>
      </trkpt>
      <trkpt lat="42.37059" lon="1.891866">
        <ele>1248.2</ele>
        <time>1970-01-01T00:07:48.000Z</time>
      </trkpt>
      <trkpt lat="42.370602" lon="1.891837">
        <ele>1248.5</ele>
        <time>1970-01-01T00:07:49.000Z</time>
      </trkpt>
      <trkpt lat="42.370617" lon="1.891807">
        <ele>1248.7</ele>
        <time>1970-01-01T00:07:50.000Z</time>
      </trkpt>
      <trkpt lat="42.370632" lon="1.891778">
        <ele>1248.9</ele>
        <time>1970-01-01T00:07:51.000Z</time>
      </trkpt>
      <trkpt lat="42.370644" lon="1.891746">
        <ele>1249.1</ele>
        <time>1970-01-01T00:07:52.000Z</time>
      </trkpt>
      <trkpt lat="42.370655" lon="1.891712">
        <ele>1249.3</ele>
        <time>1970-01-01T00:07:53.000Z</time>
      </trkpt>
      <trkpt lat="42.370667" lon="1.89168">
        <ele>1249.5</ele>
        <time>1970-01-01T00:07:54.000Z</time>
      </trkpt>
      <trkpt lat="42.370682" lon="1.89165">
        <ele>1249.7</ele>
        <time>1970-01-01T00:07:55.000Z</time>
      </trkpt>
      <trkpt lat="42.370705" lon="1.891626">
        <ele>1249.9</ele>
        <time>1970-01-01T00:07:56.000Z</time>
      </trkpt>
      <trkpt lat="42.370724" lon="1.891598">
        <ele>1250.2</ele>
        <time>1970-01-01T00:07:57.000Z</time>
      </trkpt>
      <trkpt lat="42.370743" lon="1.891575">
        <ele>1250.4</ele>
        <time>1970-01-01T00:07:58.000Z</time>
      </trkpt>
      <trkpt lat="42.370762" lon="1.891549">
        <ele>1250.6</ele>
        <time>1970-01-01T00:07:59.000Z</time>
      </trkpt>
      <trkpt lat="42.370781" lon="1.891519">
        <ele>1250.9</ele>
        <time>1970-01-01T00:08:00.000Z</time>
      </trkpt>
      <trkpt lat="42.3708" lon="1.891489">
        <ele>1251.1</ele>
        <time>1970-01-01T00:08:01.000Z</time>
      </trkpt>
      <trkpt lat="42.370815" lon="1.89146">
        <ele>1251.3</ele>
        <time>1970-01-01T00:08:02.000Z</time>
      </trkpt>
      <trkpt lat="42.37083" lon="1.891432">
        <ele>1251.6</ele>
        <time>1970-01-01T00:08:03.000Z</time>
      </trkpt>
      <trkpt lat="42.370846" lon="1.891405">
        <ele>1251.8</ele>
        <time>1970-01-01T00:08:04.000Z</time>
      </trkpt>
      <trkpt lat="42.370861" lon="1.891378">
        <ele>1252</ele>
        <time>1970-01-01T00:08:05.000Z</time>
      </trkpt>
      <trkpt lat="42.37088" lon="1.891353">
        <ele>1252.3</ele>
        <time>1970-01-01T00:08:06.000Z</time>
      </trkpt>
      <trkpt lat="42.370895" lon="1.891328">
        <ele>1252.5</ele>
        <time>1970-01-01T00:08:07.000Z</time>
      </trkpt>
      <trkpt lat="42.370914" lon="1.891302">
        <ele>1252.7</ele>
        <time>1970-01-01T00:08:08.000Z</time>
      </trkpt>
      <trkpt lat="42.37093" lon="1.891273">
        <ele>1253</ele>
        <time>1970-01-01T00:08:09.000Z</time>
      </trkpt>
      <trkpt lat="42.370945" lon="1.891241">
        <ele>1253.2</ele>
        <time>1970-01-01T00:08:10.000Z</time>
      </trkpt>
      <trkpt lat="42.370964" lon="1.891212">
        <ele>1253.5</ele>
        <time>1970-01-01T00:08:11.000Z</time>
      </trkpt>
      <trkpt lat="42.370983" lon="1.891182">
        <ele>1253.8</ele>
        <time>1970-01-01T00:08:12.000Z</time>
      </trkpt>
      <trkpt lat="42.370998" lon="1.891152">
        <ele>1254</ele>
        <time>1970-01-01T00:08:13.000Z</time>
      </trkpt>
      <trkpt lat="42.37101" lon="1.891122">
        <ele>1254.3</ele>
        <time>1970-01-01T00:08:14.000Z</time>
      </trkpt>
      <trkpt lat="42.371021" lon="1.891091">
        <ele>1254.5</ele>
        <time>1970-01-01T00:08:15.000Z</time>
      </trkpt>
      <trkpt lat="42.371037" lon="1.89106">
        <ele>1254.8</ele>
        <time>1970-01-01T00:08:16.000Z</time>
      </trkpt>
      <trkpt lat="42.37104" lon="1.891029">
        <ele>1255</ele>
        <time>1970-01-01T00:08:17.000Z</time>
      </trkpt>
      <trkpt lat="42.371048" lon="1.890997">
        <ele>1255.2</ele>
        <time>1970-01-01T00:08:18.000Z</time>
      </trkpt>
      <trkpt lat="42.371052" lon="1.890963">
        <ele>1255.5</ele>
        <time>1970-01-01T00:08:19.000Z</time>
      </trkpt>
      <trkpt lat="42.371052" lon="1.890928">
        <ele>1255.7</ele>
        <time>1970-01-01T00:08:20.000Z</time>
      </trkpt>
      <trkpt lat="42.371044" lon="1.890891">
        <ele>1256</ele>
        <time>1970-01-01T00:08:21.000Z</time>
      </trkpt>
      <trkpt lat="42.371037" lon="1.890859">
        <ele>1256.3</ele>
        <time>1970-01-01T00:08:22.000Z</time>
      </trkpt>
      <trkpt lat="42.371021" lon="1.89083">
        <ele>1256.5</ele>
        <time>1970-01-01T00:08:23.000Z</time>
      </trkpt>
      <trkpt lat="42.371002" lon="1.890803">
        <ele>1256.8</ele>
        <time>1970-01-01T00:08:24.000Z</time>
      </trkpt>
      <trkpt lat="42.370983" lon="1.890786">
        <ele>1257</ele>
        <time>1970-01-01T00:08:25.000Z</time>
      </trkpt>
      <trkpt lat="42.370964" lon="1.890773">
        <ele>1257.2</ele>
        <time>1970-01-01T00:08:26.000Z</time>
      </trkpt>
      <trkpt lat="42.370937" lon="1.890764">
        <ele>1257.5</ele>
        <time>1970-01-01T00:08:27.000Z</time>
      </trkpt>
      <trkpt lat="42.370911" lon="1.890762">
        <ele>1257.8</ele>
        <time>1970-01-01T00:08:28.000Z</time>
      </trkpt>
      <trkpt lat="42.370888" lon="1.890765">
        <ele>1258</ele>
        <time>1970-01-01T00:08:29.000Z</time>
      </trkpt>
      <trkpt lat="42.370869" lon="1.890774">
        <ele>1258.2</ele>
        <time>1970-01-01T00:08:30.000Z</time>
      </trkpt>
      <trkpt lat="42.370846" lon="1.89079">
        <ele>1258.4</ele>
        <time>1970-01-01T00:08:31.000Z</time>
      </trkpt>
      <trkpt lat="42.370827" lon="1.890811">
        <ele>1258.7</ele>
        <time>1970-01-01T00:08:32.000Z</time>
      </trkpt>
      <trkpt lat="42.370811" lon="1.890828">
        <ele>1258.9</ele>
        <time>1970-01-01T00:08:33.000Z</time>
      </trkpt>
      <trkpt lat="42.370792" lon="1.890844">
        <ele>1259.1</ele>
        <time>1970-01-01T00:08:34.000Z</time>
      </trkpt>
      <trkpt lat="42.370773" lon="1.890865">
        <ele>1259.3</ele>
        <time>1970-01-01T00:08:35.000Z</time>
      </trkpt>
      <trkpt lat="42.370754" lon="1.890883">
        <ele>1259.5</ele>
        <time>1970-01-01T00:08:36.000Z</time>
      </trkpt>
      <trkpt lat="42.370739" lon="1.890903">
        <ele>1259.7</ele>
        <time>1970-01-01T00:08:37.000Z</time>
      </trkpt>
      <trkpt lat="42.37072" lon="1.890925">
        <ele>1260</ele>
        <time>1970-01-01T00:08:38.000Z</time>
      </trkpt>
      <trkpt lat="42.370701" lon="1.89095">
        <ele>1260.2</ele>
        <time>1970-01-01T00:08:39.000Z</time>
      </trkpt>
      <trkpt lat="42.370686" lon="1.890974">
        <ele>1260.4</ele>
        <time>1970-01-01T00:08:40.000Z</time>
      </trkpt>
      <trkpt lat="42.370674" lon="1.890998">
        <ele>1260.6</ele>
        <time>1970-01-01T00:08:41.000Z</time>
      </trkpt>
      <trkpt lat="42.370659" lon="1.891019">
        <ele>1260.8</ele>
        <time>1970-01-01T00:08:42.000Z</time>
      </trkpt>
      <trkpt lat="42.37064" lon="1.891042">
        <ele>1261</ele>
        <time>1970-01-01T00:08:43.000Z</time>
      </trkpt>
      <trkpt lat="42.370625" lon="1.891067">
        <ele>1261.2</ele>
        <time>1970-01-01T00:08:44.000Z</time>
      </trkpt>
      <trkpt lat="42.370609" lon="1.891089">
        <ele>1261.4</ele>
        <time>1970-01-01T00:08:45.000Z</time>
      </trkpt>
      <trkpt lat="42.370594" lon="1.891118">
        <ele>1261.6</ele>
        <time>1970-01-01T00:08:46.000Z</time>
      </trkpt>
      <trkpt lat="42.370583" lon="1.891145">
        <ele>1261.8</ele>
        <time>1970-01-01T00:08:47.000Z</time>
      </trkpt>
      <trkpt lat="42.370567" lon="1.891177">
        <ele>1262</ele>
        <time>1970-01-01T00:08:48.000Z</time>
      </trkpt>
      <trkpt lat="42.370552" lon="1.891206">
        <ele>1262.2</ele>
        <time>1970-01-01T00:08:49.000Z</time>
      </trkpt>
      <trkpt lat="42.370541" lon="1.891233">
        <ele>1262.4</ele>
        <time>1970-01-01T00:08:50.000Z</time>
      </trkpt>
      <trkpt lat="42.370525" lon="1.891262">
        <ele>1262.7</ele>
        <time>1970-01-01T00:08:51.000Z</time>
      </trkpt>
      <trkpt lat="42.370514" lon="1.891296">
        <ele>1262.9</ele>
        <time>1970-01-01T00:08:52.000Z</time>
      </trkpt>
      <trkpt lat="42.370495" lon="1.891328">
        <ele>1263.1</ele>
        <time>1970-01-01T00:08:53.000Z</time>
      </trkpt>
      <trkpt lat="42.37048" lon="1.891354">
        <ele>1263.4</ele>
        <time>1970-01-01T00:08:54.000Z</time>
      </trkpt>
      <trkpt lat="42.370457" lon="1.891377">
        <ele>1263.6</ele>
        <time>1970-01-01T00:08:55.000Z</time>
      </trkpt>
      <trkpt lat="42.370434" lon="1.891401">
        <ele>1263.8</ele>
        <time>1970-01-01T00:08:56.000Z</time>
      </trkpt>
      <trkpt lat="42.370419" lon="1.89143">
        <ele>1264.1</ele>
        <time>1970-01-01T00:08:57.000Z</time>
      </trkpt>
      <trkpt lat="42.370399" lon="1.891463">
        <ele>1264.3</ele>
        <time>1970-01-01T00:08:58.000Z</time>
      </trkpt>
      <trkpt lat="42.370384" lon="1.891493">
        <ele>1264.5</ele>
        <time>1970-01-01T00:08:59.000Z</time>
      </trkpt>
      <trkpt lat="42.370369" lon="1.891523">
        <ele>1264.8</ele>
        <time>1970-01-01T00:09:00.000Z</time>
      </trkpt>
      <trkpt lat="42.37035" lon="1.891556">
        <ele>1265</ele>
        <time>1970-01-01T00:09:01.000Z</time>
      </trkpt>
      <trkpt lat="42.370331" lon="1.891585">
        <ele>1265.3</ele>
        <time>1970-01-01T00:09:02.000Z</time>
      </trkpt>
      <trkpt lat="42.370316" lon="1.891615">
        <ele>1265.5</ele>
        <time>1970-01-01T00:09:03.000Z</time>
      </trkpt>
      <trkpt lat="42.370304" lon="1.891649">
        <ele>1265.8</ele>
        <time>1970-01-01T00:09:04.000Z</time>
      </trkpt>
      <trkpt lat="42.370289" lon="1.89168">
        <ele>1266</ele>
        <time>1970-01-01T00:09:05.000Z</time>
      </trkpt>
      <trkpt lat="42.370274" lon="1.89171">
        <ele>1266.2</ele>
        <time>1970-01-01T00:09:06.000Z</time>
      </trkpt>
      <trkpt lat="42.370258" lon="1.891739">
        <ele>1266.5</ele>
        <time>1970-01-01T00:09:07.000Z</time>
      </trkpt>
      <trkpt lat="42.370239" lon="1.891765">
        <ele>1266.7</ele>
        <time>1970-01-01T00:09:08.000Z</time>
      </trkpt>
      <trkpt lat="42.370224" lon="1.891787">
        <ele>1266.9</ele>
        <time>1970-01-01T00:09:09.000Z</time>
      </trkpt>
      <trkpt lat="42.370205" lon="1.891812">
        <ele>1267.1</ele>
        <time>1970-01-01T00:09:10.000Z</time>
      </trkpt>
      <trkpt lat="42.37019" lon="1.891833">
        <ele>1267.3</ele>
        <time>1970-01-01T00:09:11.000Z</time>
      </trkpt>
      <trkpt lat="42.370171" lon="1.891855">
        <ele>1267.5</ele>
        <time>1970-01-01T00:09:12.000Z</time>
      </trkpt>
      <trkpt lat="42.370152" lon="1.89188">
        <ele>1267.7</ele>
        <time>1970-01-01T00:09:13.000Z</time>
      </trkpt>
      <trkpt lat="42.370132" lon="1.891904">
        <ele>1268</ele>
        <time>1970-01-01T00:09:14.000Z</time>
      </trkpt>
      <trkpt lat="42.370117" lon="1.891933">
        <ele>1268.2</ele>
        <time>1970-01-01T00:09:15.000Z</time>
      </trkpt>
      <trkpt lat="42.370098" lon="1.891961">
        <ele>1268.4</ele>
        <time>1970-01-01T00:09:16.000Z</time>
      </trkpt>
      <trkpt lat="42.370079" lon="1.891986">
        <ele>1268.6</ele>
        <time>1970-01-01T00:09:17.000Z</time>
      </trkpt>
      <trkpt lat="42.37006" lon="1.892011">
        <ele>1268.9</ele>
        <time>1970-01-01T00:09:18.000Z</time>
      </trkpt>
      <trkpt lat="42.370037" lon="1.892031">
        <ele>1269.1</ele>
        <time>1970-01-01T00:09:19.000Z</time>
      </trkpt>
      <trkpt lat="42.370014" lon="1.892049">
        <ele>1269.3</ele>
        <time>1970-01-01T00:09:20.000Z</time>
      </trkpt>
      <trkpt lat="42.369999" lon="1.892072">
        <ele>1269.5</ele>
        <time>1970-01-01T00:09:21.000Z</time>
      </trkpt>
      <trkpt lat="42.369984" lon="1.892093">
        <ele>1269.7</ele>
        <time>1970-01-01T00:09:22.000Z</time>
      </trkpt>
      <trkpt lat="42.369968" lon="1.892118">
        <ele>1269.9</ele>
        <time>1970-01-01T00:09:23.000Z</time>
      </trkpt>
      <trkpt lat="42.369949" lon="1.892144">
        <ele>1270.1</ele>
        <time>1970-01-01T00:09:24.000Z</time>
      </trkpt>
      <trkpt lat="42.369934" lon="1.892168">
        <ele>1270.3</ele>
        <time>1970-01-01T00:09:25.000Z</time>
      </trkpt>
      <trkpt lat="42.369919" lon="1.892192">
        <ele>1270.5</ele>
        <time>1970-01-01T00:09:26.000Z</time>
      </trkpt>
      <trkpt lat="42.3699" lon="1.892218">
        <ele>1270.8</ele>
        <time>1970-01-01T00:09:27.000Z</time>
      </trkpt>
      <trkpt lat="42.369881" lon="1.892242">
        <ele>1271</ele>
        <time>1970-01-01T00:09:28.000Z</time>
      </trkpt>
      <trkpt lat="42.369862" lon="1.892263">
        <ele>1271.3</ele>
        <time>1970-01-01T00:09:29.000Z</time>
      </trkpt>
      <trkpt lat="42.369843" lon="1.892278">
        <ele>1271.5</ele>
        <time>1970-01-01T00:09:30.000Z</time>
      </trkpt>
      <trkpt lat="42.369823" lon="1.892295">
        <ele>1271.7</ele>
        <time>1970-01-01T00:09:31.000Z</time>
      </trkpt>
      <trkpt lat="42.369801" lon="1.892307">
        <ele>1271.9</ele>
        <time>1970-01-01T00:09:32.000Z</time>
      </trkpt>
      <trkpt lat="42.369778" lon="1.892319">
        <ele>1272.1</ele>
        <time>1970-01-01T00:09:33.000Z</time>
      </trkpt>
      <trkpt lat="42.369755" lon="1.892329">
        <ele>1272.4</ele>
        <time>1970-01-01T00:09:34.000Z</time>
      </trkpt>
      <trkpt lat="42.369736" lon="1.892339">
        <ele>1272.6</ele>
        <time>1970-01-01T00:09:35.000Z</time>
      </trkpt>
      <trkpt lat="42.369713" lon="1.892346">
        <ele>1272.8</ele>
        <time>1970-01-01T00:09:36.000Z</time>
      </trkpt>
      <trkpt lat="42.369694" lon="1.892351">
        <ele>1273</ele>
        <time>1970-01-01T00:09:37.000Z</time>
      </trkpt>
      <trkpt lat="42.369671" lon="1.892352">
        <ele>1273.2</ele>
        <time>1970-01-01T00:09:38.000Z</time>
      </trkpt>
      <trkpt lat="42.369652" lon="1.892352">
        <ele>1273.4</ele>
        <time>1970-01-01T00:09:39.000Z</time>
      </trkpt>
      <trkpt lat="42.369629" lon="1.892349">
        <ele>1273.6</ele>
        <time>1970-01-01T00:09:40.000Z</time>
      </trkpt>
      <trkpt lat="42.369606" lon="1.892341">
        <ele>1273.8</ele>
        <time>1970-01-01T00:09:41.000Z</time>
      </trkpt>
      <trkpt lat="42.369587" lon="1.892334">
        <ele>1274</ele>
        <time>1970-01-01T00:09:42.000Z</time>
      </trkpt>
      <trkpt lat="42.36956" lon="1.892326">
        <ele>1274.3</ele>
        <time>1970-01-01T00:09:43.000Z</time>
      </trkpt>
      <trkpt lat="42.369537" lon="1.892318">
        <ele>1274.5</ele>
        <time>1970-01-01T00:09:44.000Z</time>
      </trkpt>
      <trkpt lat="42.369514" lon="1.892305">
        <ele>1274.7</ele>
        <time>1970-01-01T00:09:45.000Z</time>
      </trkpt>
      <trkpt lat="42.369492" lon="1.892292">
        <ele>1274.9</ele>
        <time>1970-01-01T00:09:46.000Z</time>
      </trkpt>
      <trkpt lat="42.369469" lon="1.892281">
        <ele>1275.2</ele>
        <time>1970-01-01T00:09:47.000Z</time>
      </trkpt>
      <trkpt lat="42.369446" lon="1.892271">
        <ele>1275.4</ele>
        <time>1970-01-01T00:09:48.000Z</time>
      </trkpt>
      <trkpt lat="42.369423" lon="1.89226">
        <ele>1275.6</ele>
        <time>1970-01-01T00:09:49.000Z</time>
      </trkpt>
      <trkpt lat="42.3694" lon="1.89225">
        <ele>1275.8</ele>
        <time>1970-01-01T00:09:50.000Z</time>
      </trkpt>
      <trkpt lat="42.369377" lon="1.892238">
        <ele>1276.1</ele>
        <time>1970-01-01T00:09:51.000Z</time>
      </trkpt>
      <trkpt lat="42.369358" lon="1.892225">
        <ele>1276.3</ele>
        <time>1970-01-01T00:09:52.000Z</time>
      </trkpt>
      <trkpt lat="42.369339" lon="1.892213">
        <ele>1276.5</ele>
        <time>1970-01-01T00:09:53.000Z</time>
      </trkpt>
      <trkpt lat="42.369316" lon="1.892202">
        <ele>1276.7</ele>
        <time>1970-01-01T00:09:54.000Z</time>
      </trkpt>
      <trkpt lat="42.369289" lon="1.892191">
        <ele>1276.9</ele>
        <time>1970-01-01T00:09:55.000Z</time>
      </trkpt>
      <trkpt lat="42.36927" lon="1.892186">
        <ele>1277.1</ele>
        <time>1970-01-01T00:09:56.000Z</time>
      </trkpt>
      <trkpt lat="42.369244" lon="1.892176">
        <ele>1277.4</ele>
        <time>1970-01-01T00:09:57.000Z</time>
      </trkpt>
      <trkpt lat="42.369221" lon="1.892168">
        <ele>1277.6</ele>
        <time>1970-01-01T00:09:58.000Z</time>
      </trkpt>
      <trkpt lat="42.369194" lon="1.892161">
        <ele>1277.9</ele>
        <time>1970-01-01T00:09:59.000Z</time>
      </trkpt>
      <trkpt lat="42.369171" lon="1.892157">
        <ele>1278.1</ele>
        <time>1970-01-01T00:10:00.000Z</time>
      </trkpt>
      <trkpt lat="42.369144" lon="1.892154">
        <ele>1278.3</ele>
        <time>1970-01-01T00:10:01.000Z</time>
      </trkpt>
      <trkpt lat="42.369118" lon="1.89215">
        <ele>1278.6</ele>
        <time>1970-01-01T00:10:02.000Z</time>
      </trkpt>
      <trkpt lat="42.369091" lon="1.892146">
        <ele>1278.9</ele>
        <time>1970-01-01T00:10:03.000Z</time>
      </trkpt>
      <trkpt lat="42.369068" lon="1.892139">
        <ele>1279.1</ele>
        <time>1970-01-01T00:10:04.000Z</time>
      </trkpt>
      <trkpt lat="42.369045" lon="1.892136">
        <ele>1279.3</ele>
        <time>1970-01-01T00:10:05.000Z</time>
      </trkpt>
      <trkpt lat="42.369022" lon="1.892135">
        <ele>1279.5</ele>
        <time>1970-01-01T00:10:06.000Z</time>
      </trkpt>
      <trkpt lat="42.368999" lon="1.892135">
        <ele>1279.7</ele>
        <time>1970-01-01T00:10:07.000Z</time>
      </trkpt>
      <trkpt lat="42.368977" lon="1.892134">
        <ele>1280</ele>
        <time>1970-01-01T00:10:08.000Z</time>
      </trkpt>
      <trkpt lat="42.368958" lon="1.892129">
        <ele>1280.1</ele>
        <time>1970-01-01T00:10:09.000Z</time>
      </trkpt>
      <trkpt lat="42.368938" lon="1.89212">
        <ele>1280.3</ele>
        <time>1970-01-01T00:10:10.000Z</time>
      </trkpt>
      <trkpt lat="42.368916" lon="1.892115">
        <ele>1280.6</ele>
        <time>1970-01-01T00:10:11.000Z</time>
      </trkpt>
      <trkpt lat="42.368893" lon="1.892111">
        <ele>1280.8</ele>
        <time>1970-01-01T00:10:12.000Z</time>
      </trkpt>
      <trkpt lat="42.368874" lon="1.892101">
        <ele>1281</ele>
        <time>1970-01-01T00:10:13.000Z</time>
      </trkpt>
      <trkpt lat="42.368851" lon="1.89209">
        <ele>1281.2</ele>
        <time>1970-01-01T00:10:14.000Z</time>
      </trkpt>
      <trkpt lat="42.368828" lon="1.892078">
        <ele>1281.4</ele>
        <time>1970-01-01T00:10:15.000Z</time>
      </trkpt>
      <trkpt lat="42.368809" lon="1.892066">
        <ele>1281.7</ele>
        <time>1970-01-01T00:10:16.000Z</time>
      </trkpt>
      <trkpt lat="42.368786" lon="1.892049">
        <ele>1281.9</ele>
        <time>1970-01-01T00:10:17.000Z</time>
      </trkpt>
      <trkpt lat="42.368763" lon="1.892035">
        <ele>1282.1</ele>
        <time>1970-01-01T00:10:18.000Z</time>
      </trkpt>
      <trkpt lat="42.36874" lon="1.892023">
        <ele>1282.4</ele>
        <time>1970-01-01T00:10:19.000Z</time>
      </trkpt>
      <trkpt lat="42.368721" lon="1.89201">
        <ele>1282.6</ele>
        <time>1970-01-01T00:10:20.000Z</time>
      </trkpt>
      <trkpt lat="42.368702" lon="1.892001">
        <ele>1282.7</ele>
        <time>1970-01-01T00:10:21.000Z</time>
      </trkpt>
      <trkpt lat="42.368679" lon="1.89199">
        <ele>1283</ele>
        <time>1970-01-01T00:10:22.000Z</time>
      </trkpt>
      <trkpt lat="42.36866" lon="1.891975">
        <ele>1283.2</ele>
        <time>1970-01-01T00:10:23.000Z</time>
      </trkpt>
      <trkpt lat="42.368637" lon="1.89196">
        <ele>1283.4</ele>
        <time>1970-01-01T00:10:24.000Z</time>
      </trkpt>
      <trkpt lat="42.368618" lon="1.891948">
        <ele>1283.6</ele>
        <time>1970-01-01T00:10:25.000Z</time>
      </trkpt>
      <trkpt lat="42.368595" lon="1.891942">
        <ele>1283.8</ele>
        <time>1970-01-01T00:10:26.000Z</time>
      </trkpt>
      <trkpt lat="42.368572" lon="1.891942">
        <ele>1284</ele>
        <time>1970-01-01T00:10:27.000Z</time>
      </trkpt>
      <trkpt lat="42.368549" lon="1.891936">
        <ele>1284.2</ele>
        <time>1970-01-01T00:10:28.000Z</time>
      </trkpt>
      <trkpt lat="42.368526" lon="1.891925">
        <ele>1284.5</ele>
        <time>1970-01-01T00:10:29.000Z</time>
      </trkpt>
      <trkpt lat="42.368507" lon="1.891912">
        <ele>1284.7</ele>
        <time>1970-01-01T00:10:30.000Z</time>
      </trkpt>
      <trkpt lat="42.368488" lon="1.891901">
        <ele>1284.8</ele>
        <time>1970-01-01T00:10:31.000Z</time>
      </trkpt>
      <trkpt lat="42.368465" lon="1.891891">
        <ele>1285.1</ele>
        <time>1970-01-01T00:10:32.000Z</time>
      </trkpt>
      <trkpt lat="42.368446" lon="1.891883">
        <ele>1285.3</ele>
        <time>1970-01-01T00:10:33.000Z</time>
      </trkpt>
      <trkpt lat="42.368423" lon="1.891874">
        <ele>1285.5</ele>
        <time>1970-01-01T00:10:34.000Z</time>
      </trkpt>
      <trkpt lat="42.368401" lon="1.891869">
        <ele>1285.7</ele>
        <time>1970-01-01T00:10:35.000Z</time>
      </trkpt>
      <trkpt lat="42.368378" lon="1.89186">
        <ele>1286</ele>
        <time>1970-01-01T00:10:36.000Z</time>
      </trkpt>
      <trkpt lat="42.368355" lon="1.891848">
        <ele>1286.2</ele>
        <time>1970-01-01T00:10:37.000Z</time>
      </trkpt>
      <trkpt lat="42.368332" lon="1.891838">
        <ele>1286.4</ele>
        <time>1970-01-01T00:10:38.000Z</time>
      </trkpt>
      <trkpt lat="42.368309" lon="1.891831">
        <ele>1286.7</ele>
        <time>1970-01-01T00:10:39.000Z</time>
      </trkpt>
      <trkpt lat="42.368282" lon="1.89182">
        <ele>1286.9</ele>
        <time>1970-01-01T00:10:40.000Z</time>
      </trkpt>
      <trkpt lat="42.368259" lon="1.89181">
        <ele>1287.2</ele>
        <time>1970-01-01T00:10:41.000Z</time>
      </trkpt>
      <trkpt lat="42.368237" lon="1.891797">
        <ele>1287.4</ele>
        <time>1970-01-01T00:10:42.000Z</time>
      </trkpt>
      <trkpt lat="42.368214" lon="1.891789">
        <ele>1287.6</ele>
        <time>1970-01-01T00:10:43.000Z</time>
      </trkpt>
      <trkpt lat="42.368187" lon="1.891783">
        <ele>1287.9</ele>
        <time>1970-01-01T00:10:44.000Z</time>
      </trkpt>
      <trkpt lat="42.368164" lon="1.891774">
        <ele>1288.1</ele>
        <time>1970-01-01T00:10:45.000Z</time>
      </trkpt>
      <trkpt lat="42.368141" lon="1.89177">
        <ele>1288.3</ele>
        <time>1970-01-01T00:10:46.000Z</time>
      </trkpt>
      <trkpt lat="42.368118" lon="1.891766">
        <ele>1288.5</ele>
        <time>1970-01-01T00:10:47.000Z</time>
      </trkpt>
      <trkpt lat="42.368095" lon="1.891756">
        <ele>1288.8</ele>
        <time>1970-01-01T00:10:48.000Z</time>
      </trkpt>
      <trkpt lat="42.368069" lon="1.891743">
        <ele>1289</ele>
        <time>1970-01-01T00:10:49.000Z</time>
      </trkpt>
      <trkpt lat="42.36805" lon="1.891734">
        <ele>1289.2</ele>
        <time>1970-01-01T00:10:50.000Z</time>
      </trkpt>
      <trkpt lat="42.368027" lon="1.891726">
        <ele>1289.5</ele>
        <time>1970-01-01T00:10:51.000Z</time>
      </trkpt>
      <trkpt lat="42.368004" lon="1.891721">
        <ele>1289.7</ele>
        <time>1970-01-01T00:10:52.000Z</time>
      </trkpt>
      <trkpt lat="42.367977" lon="1.891717">
        <ele>1290</ele>
        <time>1970-01-01T00:10:53.000Z</time>
      </trkpt>
      <trkpt lat="42.367954" lon="1.891712">
        <ele>1290.2</ele>
        <time>1970-01-01T00:10:54.000Z</time>
      </trkpt>
      <trkpt lat="42.367931" lon="1.891707">
        <ele>1290.4</ele>
        <time>1970-01-01T00:10:55.000Z</time>
      </trkpt>
      <trkpt lat="42.367908" lon="1.891698">
        <ele>1290.6</ele>
        <time>1970-01-01T00:10:56.000Z</time>
      </trkpt>
      <trkpt lat="42.367886" lon="1.891688">
        <ele>1290.9</ele>
        <time>1970-01-01T00:10:57.000Z</time>
      </trkpt>
      <trkpt lat="42.367863" lon="1.891675">
        <ele>1291.1</ele>
        <time>1970-01-01T00:10:58.000Z</time>
      </trkpt>
      <trkpt lat="42.367844" lon="1.891665">
        <ele>1291.3</ele>
        <time>1970-01-01T00:10:59.000Z</time>
      </trkpt>
      <trkpt lat="42.367825" lon="1.891659">
        <ele>1291.5</ele>
        <time>1970-01-01T00:11:00.000Z</time>
      </trkpt>
      <trkpt lat="42.367802" lon="1.891661">
        <ele>1291.7</ele>
        <time>1970-01-01T00:11:01.000Z</time>
      </trkpt>
      <trkpt lat="42.367779" lon="1.891666">
        <ele>1291.9</ele>
        <time>1970-01-01T00:11:02.000Z</time>
      </trkpt>
      <trkpt lat="42.367752" lon="1.891668">
        <ele>1292.1</ele>
        <time>1970-01-01T00:11:03.000Z</time>
      </trkpt>
      <trkpt lat="42.367725" lon="1.891665">
        <ele>1292.4</ele>
        <time>1970-01-01T00:11:04.000Z</time>
      </trkpt>
      <trkpt lat="42.367702" lon="1.891662">
        <ele>1292.6</ele>
        <time>1970-01-01T00:11:05.000Z</time>
      </trkpt>
      <trkpt lat="42.36768" lon="1.891662">
        <ele>1292.8</ele>
        <time>1970-01-01T00:11:06.000Z</time>
      </trkpt>
      <trkpt lat="42.367657" lon="1.891665">
        <ele>1293</ele>
        <time>1970-01-01T00:11:07.000Z</time>
      </trkpt>
      <trkpt lat="42.367634" lon="1.891674">
        <ele>1293.2</ele>
        <time>1970-01-01T00:11:08.000Z</time>
      </trkpt>
      <trkpt lat="42.367611" lon="1.891685">
        <ele>1293.4</ele>
        <time>1970-01-01T00:11:09.000Z</time>
      </trkpt>
      <trkpt lat="42.367584" lon="1.891694">
        <ele>1293.6</ele>
        <time>1970-01-01T00:11:10.000Z</time>
      </trkpt>
      <trkpt lat="42.367561" lon="1.891707">
        <ele>1293.8</ele>
        <time>1970-01-01T00:11:11.000Z</time>
      </trkpt>
      <trkpt lat="42.367538" lon="1.891721">
        <ele>1294</ele>
        <time>1970-01-01T00:11:12.000Z</time>
      </trkpt>
      <trkpt lat="42.367516" lon="1.891736">
        <ele>1294.2</ele>
        <time>1970-01-01T00:11:13.000Z</time>
      </trkpt>
      <trkpt lat="42.367493" lon="1.891754">
        <ele>1294.5</ele>
        <time>1970-01-01T00:11:14.000Z</time>
      </trkpt>
      <trkpt lat="42.36747" lon="1.891773">
        <ele>1294.7</ele>
        <time>1970-01-01T00:11:15.000Z</time>
      </trkpt>
      <trkpt lat="42.367451" lon="1.891794">
        <ele>1294.9</ele>
        <time>1970-01-01T00:11:16.000Z</time>
      </trkpt>
      <trkpt lat="42.367424" lon="1.891813">
        <ele>1295.1</ele>
        <time>1970-01-01T00:11:17.000Z</time>
      </trkpt>
      <trkpt lat="42.367405" lon="1.891831">
        <ele>1295.3</ele>
        <time>1970-01-01T00:11:18.000Z</time>
      </trkpt>
      <trkpt lat="42.367382" lon="1.891852">
        <ele>1295.6</ele>
        <time>1970-01-01T00:11:19.000Z</time>
      </trkpt>
      <trkpt lat="42.367359" lon="1.891871">
        <ele>1295.8</ele>
        <time>1970-01-01T00:11:20.000Z</time>
      </trkpt>
      <trkpt lat="42.36734" lon="1.891889">
        <ele>1296</ele>
        <time>1970-01-01T00:11:21.000Z</time>
      </trkpt>
      <trkpt lat="42.367321" lon="1.891909">
        <ele>1296.2</ele>
        <time>1970-01-01T00:11:22.000Z</time>
      </trkpt>
      <trkpt lat="42.367302" lon="1.891928">
        <ele>1296.4</ele>
        <time>1970-01-01T00:11:23.000Z</time>
      </trkpt>
      <trkpt lat="42.367287" lon="1.891946">
        <ele>1296.6</ele>
        <time>1970-01-01T00:11:24.000Z</time>
      </trkpt>
      <trkpt lat="42.367275" lon="1.891966">
        <ele>1296.7</ele>
        <time>1970-01-01T00:11:25.000Z</time>
      </trkpt>
      <trkpt lat="42.367256" lon="1.891987">
        <ele>1297</ele>
        <time>1970-01-01T00:11:26.000Z</time>
      </trkpt>
      <trkpt lat="42.367241" lon="1.89201">
        <ele>1297.2</ele>
        <time>1970-01-01T00:11:27.000Z</time>
      </trkpt>
      <trkpt lat="42.367226" lon="1.892031">
        <ele>1297.4</ele>
        <time>1970-01-01T00:11:28.000Z</time>
      </trkpt>
      <trkpt lat="42.36721" lon="1.892049">
        <ele>1297.6</ele>
        <time>1970-01-01T00:11:29.000Z</time>
      </trkpt>
      <trkpt lat="42.367195" lon="1.89207">
        <ele>1297.8</ele>
        <time>1970-01-01T00:11:30.000Z</time>
      </trkpt>
      <trkpt lat="42.36718" lon="1.892089">
        <ele>1297.9</ele>
        <time>1970-01-01T00:11:31.000Z</time>
      </trkpt>
      <trkpt lat="42.367165" lon="1.892108">
        <ele>1298.1</ele>
        <time>1970-01-01T00:11:32.000Z</time>
      </trkpt>
      <trkpt lat="42.367146" lon="1.892126">
        <ele>1298.3</ele>
        <time>1970-01-01T00:11:33.000Z</time>
      </trkpt>
      <trkpt lat="42.36713" lon="1.892143">
        <ele>1298.5</ele>
        <time>1970-01-01T00:11:34.000Z</time>
      </trkpt>
      <trkpt lat="42.367111" lon="1.892159">
        <ele>1298.7</ele>
        <time>1970-01-01T00:11:35.000Z</time>
      </trkpt>
      <trkpt lat="42.367092" lon="1.892175">
        <ele>1298.9</ele>
        <time>1970-01-01T00:11:36.000Z</time>
      </trkpt>
      <trkpt lat="42.367073" lon="1.892188">
        <ele>1299.1</ele>
        <time>1970-01-01T00:11:37.000Z</time>
      </trkpt>
      <trkpt lat="42.367054" lon="1.8922">
        <ele>1299.3</ele>
        <time>1970-01-01T00:11:38.000Z</time>
      </trkpt>
      <trkpt lat="42.367027" lon="1.89221">
        <ele>1299.6</ele>
        <time>1970-01-01T00:11:39.000Z</time>
      </trkpt>
      <trkpt lat="42.367004" lon="1.892212">
        <ele>1299.8</ele>
        <time>1970-01-01T00:11:40.000Z</time>
      </trkpt>
      <trkpt lat="42.366985" lon="1.892206">
        <ele>1300</ele>
        <time>1970-01-01T00:11:41.000Z</time>
      </trkpt>
      <trkpt lat="42.366962" lon="1.892198">
        <ele>1300.2</ele>
        <time>1970-01-01T00:11:42.000Z</time>
      </trkpt>
      <trkpt lat="42.366943" lon="1.892189">
        <ele>1300.4</ele>
        <time>1970-01-01T00:11:43.000Z</time>
      </trkpt>
      <trkpt lat="42.366924" lon="1.89218">
        <ele>1300.6</ele>
        <time>1970-01-01T00:11:44.000Z</time>
      </trkpt>
      <trkpt lat="42.366905" lon="1.892168">
        <ele>1300.8</ele>
        <time>1970-01-01T00:11:45.000Z</time>
      </trkpt>
      <trkpt lat="42.366886" lon="1.892155">
        <ele>1301</ele>
        <time>1970-01-01T00:11:46.000Z</time>
      </trkpt>
      <trkpt lat="42.366867" lon="1.892139">
        <ele>1301.2</ele>
        <time>1970-01-01T00:11:47.000Z</time>
      </trkpt>
      <trkpt lat="42.366848" lon="1.892121">
        <ele>1301.4</ele>
        <time>1970-01-01T00:11:48.000Z</time>
      </trkpt>
      <trkpt lat="42.366829" lon="1.892107">
        <ele>1301.6</ele>
        <time>1970-01-01T00:11:49.000Z</time>
      </trkpt>
      <trkpt lat="42.366806" lon="1.892095">
        <ele>1301.9</ele>
        <time>1970-01-01T00:11:50.000Z</time>
      </trkpt>
      <trkpt lat="42.366787" lon="1.89208">
        <ele>1302.1</ele>
        <time>1970-01-01T00:11:51.000Z</time>
      </trkpt>
      <trkpt lat="42.36676" lon="1.892065">
        <ele>1302.3</ele>
        <time>1970-01-01T00:11:52.000Z</time>
      </trkpt>
      <trkpt lat="42.366737" lon="1.892049">
        <ele>1302.6</ele>
        <time>1970-01-01T00:11:53.000Z</time>
      </trkpt>
      <trkpt lat="42.366718" lon="1.892032">
        <ele>1302.8</ele>
        <time>1970-01-01T00:11:54.000Z</time>
      </trkpt>
      <trkpt lat="42.366695" lon="1.892017">
        <ele>1303</ele>
        <time>1970-01-01T00:11:55.000Z</time>
      </trkpt>
      <trkpt lat="42.36668" lon="1.892001">
        <ele>1303.2</ele>
        <time>1970-01-01T00:11:56.000Z</time>
      </trkpt>
      <trkpt lat="42.366661" lon="1.891987">
        <ele>1303.4</ele>
        <time>1970-01-01T00:11:57.000Z</time>
      </trkpt>
      <trkpt lat="42.366642" lon="1.891976">
        <ele>1303.6</ele>
        <time>1970-01-01T00:11:58.000Z</time>
      </trkpt>
      <trkpt lat="42.366619" lon="1.891964">
        <ele>1303.8</ele>
        <time>1970-01-01T00:11:59.000Z</time>
      </trkpt>
      <trkpt lat="42.366596" lon="1.89195">
        <ele>1304</ele>
        <time>1970-01-01T00:12:00.000Z</time>
      </trkpt>
      <trkpt lat="42.366577" lon="1.891937">
        <ele>1304.2</ele>
        <time>1970-01-01T00:12:01.000Z</time>
      </trkpt>
      <trkpt lat="42.366554" lon="1.891922">
        <ele>1304.4</ele>
        <time>1970-01-01T00:12:02.000Z</time>
      </trkpt>
      <trkpt lat="42.366531" lon="1.891908">
        <ele>1304.6</ele>
        <time>1970-01-01T00:12:03.000Z</time>
      </trkpt>
      <trkpt lat="42.366505" lon="1.891902">
        <ele>1304.9</ele>
        <time>1970-01-01T00:12:04.000Z</time>
      </trkpt>
      <trkpt lat="42.366478" lon="1.8919">
        <ele>1305.1</ele>
        <time>1970-01-01T00:12:05.000Z</time>
      </trkpt>
      <trkpt lat="42.366451" lon="1.891897">
        <ele>1305.3</ele>
        <time>1970-01-01T00:12:06.000Z</time>
      </trkpt>
      <trkpt lat="42.366421" lon="1.891898">
        <ele>1305.6</ele>
        <time>1970-01-01T00:12:07.000Z</time>
      </trkpt>
      <trkpt lat="42.366394" lon="1.891904">
        <ele>1305.8</ele>
        <time>1970-01-01T00:12:08.000Z</time>
      </trkpt>
      <trkpt lat="42.366367" lon="1.891912">
        <ele>1306</ele>
        <time>1970-01-01T00:12:09.000Z</time>
      </trkpt>
      <trkpt lat="42.366341" lon="1.891922">
        <ele>1306.2</ele>
        <time>1970-01-01T00:12:10.000Z</time>
      </trkpt>
      <trkpt lat="42.366314" lon="1.89193">
        <ele>1306.4</ele>
        <time>1970-01-01T00:12:11.000Z</time>
      </trkpt>
      <trkpt lat="42.366287" lon="1.891942">
        <ele>1306.7</ele>
        <time>1970-01-01T00:12:12.000Z</time>
      </trkpt>
      <trkpt lat="42.366261" lon="1.891951">
        <ele>1306.9</ele>
        <time>1970-01-01T00:12:13.000Z</time>
      </trkpt>
      <trkpt lat="42.366238" lon="1.891962">
        <ele>1307.1</ele>
        <time>1970-01-01T00:12:14.000Z</time>
      </trkpt>
      <trkpt lat="42.366211" lon="1.891977">
        <ele>1307.3</ele>
        <time>1970-01-01T00:12:15.000Z</time>
      </trkpt>
      <trkpt lat="42.366188" lon="1.89199">
        <ele>1307.5</ele>
        <time>1970-01-01T00:12:16.000Z</time>
      </trkpt>
      <trkpt lat="42.366165" lon="1.892006">
        <ele>1307.7</ele>
        <time>1970-01-01T00:12:17.000Z</time>
      </trkpt>
      <trkpt lat="42.366138" lon="1.892021">
        <ele>1307.9</ele>
        <time>1970-01-01T00:12:18.000Z</time>
      </trkpt>
      <trkpt lat="42.366116" lon="1.892036">
        <ele>1308.1</ele>
        <time>1970-01-01T00:12:19.000Z</time>
      </trkpt>
      <trkpt lat="42.366093" lon="1.89205">
        <ele>1308.3</ele>
        <time>1970-01-01T00:12:20.000Z</time>
      </trkpt>
      <trkpt lat="42.36607" lon="1.892063">
        <ele>1308.5</ele>
        <time>1970-01-01T00:12:21.000Z</time>
      </trkpt>
      <trkpt lat="42.366047" lon="1.892076">
        <ele>1308.7</ele>
        <time>1970-01-01T00:12:22.000Z</time>
      </trkpt>
      <trkpt lat="42.366024" lon="1.892088">
        <ele>1308.9</ele>
        <time>1970-01-01T00:12:23.000Z</time>
      </trkpt>
      <trkpt lat="42.365997" lon="1.892099">
        <ele>1309.2</ele>
        <time>1970-01-01T00:12:24.000Z</time>
      </trkpt>
      <trkpt lat="42.365974" lon="1.892108">
        <ele>1309.3</ele>
        <time>1970-01-01T00:12:25.000Z</time>
      </trkpt>
      <trkpt lat="42.365952" lon="1.892119">
        <ele>1309.5</ele>
        <time>1970-01-01T00:12:26.000Z</time>
      </trkpt>
      <trkpt lat="42.365925" lon="1.892127">
        <ele>1309.8</ele>
        <time>1970-01-01T00:12:27.000Z</time>
      </trkpt>
      <trkpt lat="42.365898" lon="1.892133">
        <ele>1310</ele>
        <time>1970-01-01T00:12:28.000Z</time>
      </trkpt>
      <trkpt lat="42.365871" lon="1.892136">
        <ele>1310.2</ele>
        <time>1970-01-01T00:12:29.000Z</time>
      </trkpt>
      <trkpt lat="42.365849" lon="1.892138">
        <ele>1310.4</ele>
        <time>1970-01-01T00:12:30.000Z</time>
      </trkpt>
      <trkpt lat="42.365822" lon="1.89214">
        <ele>1310.6</ele>
        <time>1970-01-01T00:12:31.000Z</time>
      </trkpt>
      <trkpt lat="42.365795" lon="1.892136">
        <ele>1310.8</ele>
        <time>1970-01-01T00:12:32.000Z</time>
      </trkpt>
      <trkpt lat="42.365772" lon="1.892135">
        <ele>1311</ele>
        <time>1970-01-01T00:12:33.000Z</time>
      </trkpt>
      <trkpt lat="42.365746" lon="1.892134">
        <ele>1311.2</ele>
        <time>1970-01-01T00:12:34.000Z</time>
      </trkpt>
      <trkpt lat="42.365719" lon="1.892129">
        <ele>1311.5</ele>
        <time>1970-01-01T00:12:35.000Z</time>
      </trkpt>
      <trkpt lat="42.365692" lon="1.892123">
        <ele>1311.7</ele>
        <time>1970-01-01T00:12:36.000Z</time>
      </trkpt>
      <trkpt lat="42.365665" lon="1.892116">
        <ele>1311.9</ele>
        <time>1970-01-01T00:12:37.000Z</time>
      </trkpt>
      <trkpt lat="42.365643" lon="1.892111">
        <ele>1312.1</ele>
        <time>1970-01-01T00:12:38.000Z</time>
      </trkpt>
      <trkpt lat="42.36562" lon="1.892106">
        <ele>1312.3</ele>
        <time>1970-01-01T00:12:39.000Z</time>
      </trkpt>
      <trkpt lat="42.365597" lon="1.892104">
        <ele>1312.5</ele>
        <time>1970-01-01T00:12:40.000Z</time>
      </trkpt>
      <trkpt lat="42.36557" lon="1.892101">
        <ele>1312.8</ele>
        <time>1970-01-01T00:12:41.000Z</time>
      </trkpt>
      <trkpt lat="42.365547" lon="1.892093">
        <ele>1313</ele>
        <time>1970-01-01T00:12:42.000Z</time>
      </trkpt>
      <trkpt lat="42.365528" lon="1.892084">
        <ele>1313.1</ele>
        <time>1970-01-01T00:12:43.000Z</time>
      </trkpt>
      <trkpt lat="42.365505" lon="1.892083">
        <ele>1313.3</ele>
        <time>1970-01-01T00:12:44.000Z</time>
      </trkpt>
      <trkpt lat="42.365478" lon="1.892083">
        <ele>1313.6</ele>
        <time>1970-01-01T00:12:45.000Z</time>
      </trkpt>
      <trkpt lat="42.365456" lon="1.892081">
        <ele>1313.8</ele>
        <time>1970-01-01T00:12:46.000Z</time>
      </trkpt>
      <trkpt lat="42.365429" lon="1.892079">
        <ele>1314</ele>
        <time>1970-01-01T00:12:47.000Z</time>
      </trkpt>
      <trkpt lat="42.365406" lon="1.89208">
        <ele>1314.2</ele>
        <time>1970-01-01T00:12:48.000Z</time>
      </trkpt>
      <trkpt lat="42.365379" lon="1.89208">
        <ele>1314.5</ele>
        <time>1970-01-01T00:12:49.000Z</time>
      </trkpt>
      <trkpt lat="42.365356" lon="1.892081">
        <ele>1314.7</ele>
        <time>1970-01-01T00:12:50.000Z</time>
      </trkpt>
      <trkpt lat="42.365334" lon="1.892084">
        <ele>1314.9</ele>
        <time>1970-01-01T00:12:51.000Z</time>
      </trkpt>
      <trkpt lat="42.365311" lon="1.892085">
        <ele>1315.1</ele>
        <time>1970-01-01T00:12:52.000Z</time>
      </trkpt>
      <trkpt lat="42.365284" lon="1.892085">
        <ele>1315.4</ele>
        <time>1970-01-01T00:12:53.000Z</time>
      </trkpt>
      <trkpt lat="42.365257" lon="1.892088">
        <ele>1315.6</ele>
        <time>1970-01-01T00:12:54.000Z</time>
      </trkpt>
      <trkpt lat="42.365234" lon="1.89209">
        <ele>1315.8</ele>
        <time>1970-01-01T00:12:55.000Z</time>
      </trkpt>
      <trkpt lat="42.365212" lon="1.892091">
        <ele>1316.1</ele>
        <time>1970-01-01T00:12:56.000Z</time>
      </trkpt>
      <trkpt lat="42.365185" lon="1.892092">
        <ele>1316.3</ele>
        <time>1970-01-01T00:12:57.000Z</time>
      </trkpt>
      <trkpt lat="42.365162" lon="1.892096">
        <ele>1316.5</ele>
        <time>1970-01-01T00:12:58.000Z</time>
      </trkpt>
      <trkpt lat="42.365139" lon="1.892102">
        <ele>1316.7</ele>
        <time>1970-01-01T00:12:59.000Z</time>
      </trkpt>
      <trkpt lat="42.365112" lon="1.892111">
        <ele>1317</ele>
        <time>1970-01-01T00:13:00.000Z</time>
      </trkpt>
      <trkpt lat="42.365089" lon="1.89212">
        <ele>1317.2</ele>
        <time>1970-01-01T00:13:01.000Z</time>
      </trkpt>
      <trkpt lat="42.365067" lon="1.892133">
        <ele>1317.5</ele>
        <time>1970-01-01T00:13:02.000Z</time>
      </trkpt>
      <trkpt lat="42.365044" lon="1.89215">
        <ele>1317.7</ele>
        <time>1970-01-01T00:13:03.000Z</time>
      </trkpt>
      <trkpt lat="42.365021" lon="1.892165">
        <ele>1317.9</ele>
        <time>1970-01-01T00:13:04.000Z</time>
      </trkpt>
      <trkpt lat="42.365002" lon="1.89218">
        <ele>1318.1</ele>
        <time>1970-01-01T00:13:05.000Z</time>
      </trkpt>
      <trkpt lat="42.364979" lon="1.892196">
        <ele>1318.3</ele>
        <time>1970-01-01T00:13:06.000Z</time>
      </trkpt>
      <trkpt lat="42.364963" lon="1.892213">
        <ele>1318.5</ele>
        <time>1970-01-01T00:13:07.000Z</time>
      </trkpt>
      <trkpt lat="42.364944" lon="1.892234">
        <ele>1318.7</ele>
        <time>1970-01-01T00:13:08.000Z</time>
      </trkpt>
      <trkpt lat="42.364925" lon="1.892259">
        <ele>1318.9</ele>
        <time>1970-01-01T00:13:09.000Z</time>
      </trkpt>
      <trkpt lat="42.364906" lon="1.892282">
        <ele>1319.1</ele>
        <time>1970-01-01T00:13:10.000Z</time>
      </trkpt>
      <trkpt lat="42.364887" lon="1.89231">
        <ele>1319.3</ele>
        <time>1970-01-01T00:13:11.000Z</time>
      </trkpt>
      <trkpt lat="42.364872" lon="1.892337">
        <ele>1319.5</ele>
        <time>1970-01-01T00:13:12.000Z</time>
      </trkpt>
      <trkpt lat="42.364853" lon="1.892367">
        <ele>1319.7</ele>
        <time>1970-01-01T00:13:13.000Z</time>
      </trkpt>
      <trkpt lat="42.364834" lon="1.892396">
        <ele>1320</ele>
        <time>1970-01-01T00:13:14.000Z</time>
      </trkpt>
      <trkpt lat="42.364819" lon="1.892424">
        <ele>1320.2</ele>
        <time>1970-01-01T00:13:15.000Z</time>
      </trkpt>
      <trkpt lat="42.364803" lon="1.892452">
        <ele>1320.3</ele>
        <time>1970-01-01T00:13:16.000Z</time>
      </trkpt>
      <trkpt lat="42.364788" lon="1.892479">
        <ele>1320.5</ele>
        <time>1970-01-01T00:13:17.000Z</time>
      </trkpt>
      <trkpt lat="42.364769" lon="1.892507">
        <ele>1320.7</ele>
        <time>1970-01-01T00:13:18.000Z</time>
      </trkpt>
      <trkpt lat="42.36475" lon="1.892529">
        <ele>1320.9</ele>
        <time>1970-01-01T00:13:19.000Z</time>
      </trkpt>
      <trkpt lat="42.364731" lon="1.892554">
        <ele>1321.1</ele>
        <time>1970-01-01T00:13:20.000Z</time>
      </trkpt>
      <trkpt lat="42.364716" lon="1.892581">
        <ele>1321.3</ele>
        <time>1970-01-01T00:13:21.000Z</time>
      </trkpt>
      <trkpt lat="42.3647" lon="1.892609">
        <ele>1321.5</ele>
        <time>1970-01-01T00:13:22.000Z</time>
      </trkpt>
      <trkpt lat="42.364689" lon="1.892637">
        <ele>1321.7</ele>
        <time>1970-01-01T00:13:23.000Z</time>
      </trkpt>
      <trkpt lat="42.36467" lon="1.892667">
        <ele>1321.9</ele>
        <time>1970-01-01T00:13:24.000Z</time>
      </trkpt>
      <trkpt lat="42.364655" lon="1.892694">
        <ele>1322.1</ele>
        <time>1970-01-01T00:13:25.000Z</time>
      </trkpt>
      <trkpt lat="42.364635" lon="1.892722">
        <ele>1322.3</ele>
        <time>1970-01-01T00:13:26.000Z</time>
      </trkpt>
      <trkpt lat="42.36462" lon="1.892748">
        <ele>1322.5</ele>
        <time>1970-01-01T00:13:27.000Z</time>
      </trkpt>
      <trkpt lat="42.364605" lon="1.892772">
        <ele>1322.7</ele>
        <time>1970-01-01T00:13:28.000Z</time>
      </trkpt>
      <trkpt lat="42.364586" lon="1.892795">
        <ele>1322.9</ele>
        <time>1970-01-01T00:13:29.000Z</time>
      </trkpt>
      <trkpt lat="42.364563" lon="1.892819">
        <ele>1323.1</ele>
        <time>1970-01-01T00:13:30.000Z</time>
      </trkpt>
      <trkpt lat="42.364544" lon="1.892842">
        <ele>1323.3</ele>
        <time>1970-01-01T00:13:31.000Z</time>
      </trkpt>
      <trkpt lat="42.364525" lon="1.892863">
        <ele>1323.5</ele>
        <time>1970-01-01T00:13:32.000Z</time>
      </trkpt>
      <trkpt lat="42.364502" lon="1.892885">
        <ele>1323.7</ele>
        <time>1970-01-01T00:13:33.000Z</time>
      </trkpt>
      <trkpt lat="42.364479" lon="1.892903">
        <ele>1323.9</ele>
        <time>1970-01-01T00:13:34.000Z</time>
      </trkpt>
      <trkpt lat="42.364456" lon="1.89292">
        <ele>1324.2</ele>
        <time>1970-01-01T00:13:35.000Z</time>
      </trkpt>
      <trkpt lat="42.364433" lon="1.892933">
        <ele>1324.4</ele>
        <time>1970-01-01T00:13:36.000Z</time>
      </trkpt>
      <trkpt lat="42.36441" lon="1.892947">
        <ele>1324.6</ele>
        <time>1970-01-01T00:13:37.000Z</time>
      </trkpt>
      <trkpt lat="42.364384" lon="1.892954">
        <ele>1324.8</ele>
        <time>1970-01-01T00:13:38.000Z</time>
      </trkpt>
      <trkpt lat="42.364361" lon="1.892958">
        <ele>1325.1</ele>
        <time>1970-01-01T00:13:39.000Z</time>
      </trkpt>
      <trkpt lat="42.364334" lon="1.892957">
        <ele>1325.3</ele>
        <time>1970-01-01T00:13:40.000Z</time>
      </trkpt>
      <trkpt lat="42.364315" lon="1.892949">
        <ele>1325.5</ele>
        <time>1970-01-01T00:13:41.000Z</time>
      </trkpt>
      <trkpt lat="42.364292" lon="1.892944">
        <ele>1325.7</ele>
        <time>1970-01-01T00:13:42.000Z</time>
      </trkpt>
      <trkpt lat="42.364269" lon="1.892943">
        <ele>1325.9</ele>
        <time>1970-01-01T00:13:43.000Z</time>
      </trkpt>
      <trkpt lat="42.364246" lon="1.892948">
        <ele>1326.1</ele>
        <time>1970-01-01T00:13:44.000Z</time>
      </trkpt>
      <trkpt lat="42.364227" lon="1.892951">
        <ele>1326.3</ele>
        <time>1970-01-01T00:13:45.000Z</time>
      </trkpt>
      <trkpt lat="42.364204" lon="1.892953">
        <ele>1326.5</ele>
        <time>1970-01-01T00:13:46.000Z</time>
      </trkpt>
      <trkpt lat="42.364185" lon="1.892949">
        <ele>1326.8</ele>
        <time>1970-01-01T00:13:47.000Z</time>
      </trkpt>
      <trkpt lat="42.364162" lon="1.892946">
        <ele>1326.9</ele>
        <time>1970-01-01T00:13:48.000Z</time>
      </trkpt>
      <trkpt lat="42.36414" lon="1.892945">
        <ele>1327.1</ele>
        <time>1970-01-01T00:13:49.000Z</time>
      </trkpt>
      <trkpt lat="42.364117" lon="1.892945">
        <ele>1327.3</ele>
        <time>1970-01-01T00:13:50.000Z</time>
      </trkpt>
      <trkpt lat="42.364094" lon="1.892946">
        <ele>1327.4</ele>
        <time>1970-01-01T00:13:51.000Z</time>
      </trkpt>
      <trkpt lat="42.364075" lon="1.892951">
        <ele>1327.6</ele>
        <time>1970-01-01T00:13:52.000Z</time>
      </trkpt>
      <trkpt lat="42.364067" lon="1.892956">
        <ele>1327.6</ele>
        <time>1970-01-01T00:13:53.000Z</time>
      </trkpt>
      <trkpt lat="42.364071" lon="1.892965">
        <ele>1327.7</ele>
        <time>1970-01-01T00:17:29.000Z</time>
      </trkpt>
      <trkpt lat="42.364071" lon="1.892965">
        <ele>1327.7</ele>
        <time>1970-01-01T00:17:30.000Z</time>
      </trkpt>
      <trkpt lat="42.364071" lon="1.892965">
        <ele>1327.7</ele>
        <time>1970-01-01T00:17:31.000Z</time>
      </trkpt>
      <trkpt lat="42.364044" lon="1.892955">
        <ele>1327.9</ele>
        <time>1970-01-01T00:17:32.000Z</time>
      </trkpt>
      <trkpt lat="42.364025" lon="1.892956">
        <ele>1328</ele>
        <time>1970-01-01T00:17:33.000Z</time>
      </trkpt>
      <trkpt lat="42.36401" lon="1.892961">
        <ele>1328.1</ele>
        <time>1970-01-01T00:17:34.000Z</time>
      </trkpt>
      <trkpt lat="42.363987" lon="1.892976">
        <ele>1328.2</ele>
        <time>1970-01-01T00:17:35.000Z</time>
      </trkpt>
      <trkpt lat="42.363968" lon="1.89299">
        <ele>1328.3</ele>
        <time>1970-01-01T00:17:36.000Z</time>
      </trkpt>
      <trkpt lat="42.363953" lon="1.893">
        <ele>1328.4</ele>
        <time>1970-01-01T00:17:37.000Z</time>
      </trkpt>
      <trkpt lat="42.363934" lon="1.893014">
        <ele>1328.6</ele>
        <time>1970-01-01T00:17:38.000Z</time>
      </trkpt>
      <trkpt lat="42.363918" lon="1.893031">
        <ele>1328.7</ele>
        <time>1970-01-01T00:17:39.000Z</time>
      </trkpt>
      <trkpt lat="42.363899" lon="1.893049">
        <ele>1328.8</ele>
        <time>1970-01-01T00:17:40.000Z</time>
      </trkpt>
      <trkpt lat="42.363884" lon="1.893056">
        <ele>1328.9</ele>
        <time>1970-01-01T00:17:41.000Z</time>
      </trkpt>
      <trkpt lat="42.363861" lon="1.893067">
        <ele>1329</ele>
        <time>1970-01-01T00:17:42.000Z</time>
      </trkpt>
      <trkpt lat="42.363838" lon="1.89308">
        <ele>1329.1</ele>
        <time>1970-01-01T00:17:43.000Z</time>
      </trkpt>
      <trkpt lat="42.363815" lon="1.893095">
        <ele>1329.3</ele>
        <time>1970-01-01T00:17:44.000Z</time>
      </trkpt>
      <trkpt lat="42.363796" lon="1.893108">
        <ele>1329.4</ele>
        <time>1970-01-01T00:17:45.000Z</time>
      </trkpt>
      <trkpt lat="42.363777" lon="1.893127">
        <ele>1329.5</ele>
        <time>1970-01-01T00:17:46.000Z</time>
      </trkpt>
      <trkpt lat="42.363754" lon="1.89315">
        <ele>1329.7</ele>
        <time>1970-01-01T00:17:47.000Z</time>
      </trkpt>
      <trkpt lat="42.363731" lon="1.893174">
        <ele>1329.9</ele>
        <time>1970-01-01T00:17:48.000Z</time>
      </trkpt>
      <trkpt lat="42.363705" lon="1.893195">
        <ele>1330.1</ele>
        <time>1970-01-01T00:17:49.000Z</time>
      </trkpt>
      <trkpt lat="42.363674" lon="1.89322">
        <ele>1330.3</ele>
        <time>1970-01-01T00:17:50.000Z</time>
      </trkpt>
      <trkpt lat="42.363651" lon="1.893242">
        <ele>1330.5</ele>
        <time>1970-01-01T00:17:51.000Z</time>
      </trkpt>
      <trkpt lat="42.363628" lon="1.893262">
        <ele>1330.6</ele>
        <time>1970-01-01T00:17:52.000Z</time>
      </trkpt>
      <trkpt lat="42.363605" lon="1.893287">
        <ele>1330.8</ele>
        <time>1970-01-01T00:17:53.000Z</time>
      </trkpt>
      <trkpt lat="42.363586" lon="1.893312">
        <ele>1330.9</ele>
        <time>1970-01-01T00:17:54.000Z</time>
      </trkpt>
      <trkpt lat="42.363564" lon="1.893342">
        <ele>1331.1</ele>
        <time>1970-01-01T00:17:55.000Z</time>
      </trkpt>
      <trkpt lat="42.363537" lon="1.893374">
        <ele>1331.2</ele>
        <time>1970-01-01T00:17:56.000Z</time>
      </trkpt>
      <trkpt lat="42.36351" lon="1.893403">
        <ele>1331.4</ele>
        <time>1970-01-01T00:17:57.000Z</time>
      </trkpt>
      <trkpt lat="42.363476" lon="1.893428">
        <ele>1331.5</ele>
        <time>1970-01-01T00:17:58.000Z</time>
      </trkpt>
      <trkpt lat="42.363441" lon="1.893456">
        <ele>1331.6</ele>
        <time>1970-01-01T00:17:59.000Z</time>
      </trkpt>
      <trkpt lat="42.363407" lon="1.893483">
        <ele>1331.8</ele>
        <time>1970-01-01T00:18:00.000Z</time>
      </trkpt>
      <trkpt lat="42.363377" lon="1.893507">
        <ele>1331.9</ele>
        <time>1970-01-01T00:18:01.000Z</time>
      </trkpt>
      <trkpt lat="42.363338" lon="1.893533">
        <ele>1332.1</ele>
        <time>1970-01-01T00:18:02.000Z</time>
      </trkpt>
      <trkpt lat="42.3633" lon="1.893557">
        <ele>1332.3</ele>
        <time>1970-01-01T00:18:03.000Z</time>
      </trkpt>
      <trkpt lat="42.36327" lon="1.893582">
        <ele>1332.4</ele>
        <time>1970-01-01T00:18:04.000Z</time>
      </trkpt>
      <trkpt lat="42.363235" lon="1.893611">
        <ele>1332.6</ele>
        <time>1970-01-01T00:18:05.000Z</time>
      </trkpt>
      <trkpt lat="42.363209" lon="1.893635">
        <ele>1332.8</ele>
        <time>1970-01-01T00:18:06.000Z</time>
      </trkpt>
      <trkpt lat="42.363182" lon="1.893661">
        <ele>1333</ele>
        <time>1970-01-01T00:18:07.000Z</time>
      </trkpt>
      <trkpt lat="42.363155" lon="1.893682">
        <ele>1333.2</ele>
        <time>1970-01-01T00:18:08.000Z</time>
      </trkpt>
      <trkpt lat="42.363125" lon="1.893704">
        <ele>1333.4</ele>
        <time>1970-01-01T00:18:09.000Z</time>
      </trkpt>
      <trkpt lat="42.36309" lon="1.893724">
        <ele>1333.7</ele>
        <time>1970-01-01T00:18:10.000Z</time>
      </trkpt>
      <trkpt lat="42.36306" lon="1.89374">
        <ele>1333.9</ele>
        <time>1970-01-01T00:18:11.000Z</time>
      </trkpt>
      <trkpt lat="42.363026" lon="1.893753">
        <ele>1334.1</ele>
        <time>1970-01-01T00:18:12.000Z</time>
      </trkpt>
      <trkpt lat="42.362991" lon="1.893762">
        <ele>1334.4</ele>
        <time>1970-01-01T00:18:13.000Z</time>
      </trkpt>
      <trkpt lat="42.362968" lon="1.893767">
        <ele>1334.6</ele>
        <time>1970-01-01T00:18:14.000Z</time>
      </trkpt>
      <trkpt lat="42.362934" lon="1.893774">
        <ele>1334.8</ele>
        <time>1970-01-01T00:18:15.000Z</time>
      </trkpt>
      <trkpt lat="42.362911" lon="1.893775">
        <ele>1334.9</ele>
        <time>1970-01-01T00:18:16.000Z</time>
      </trkpt>
      <trkpt lat="42.362888" lon="1.893772">
        <ele>1335.1</ele>
        <time>1970-01-01T00:18:17.000Z</time>
      </trkpt>
      <trkpt lat="42.362865" lon="1.893767">
        <ele>1335.2</ele>
        <time>1970-01-01T00:18:18.000Z</time>
      </trkpt>
      <trkpt lat="42.362835" lon="1.893757">
        <ele>1335.4</ele>
        <time>1970-01-01T00:18:19.000Z</time>
      </trkpt>
      <trkpt lat="42.362808" lon="1.893752">
        <ele>1335.6</ele>
        <time>1970-01-01T00:18:20.000Z</time>
      </trkpt>
      <trkpt lat="42.362778" lon="1.893747">
        <ele>1335.7</ele>
        <time>1970-01-01T00:18:21.000Z</time>
      </trkpt>
      <trkpt lat="42.362751" lon="1.893741">
        <ele>1335.8</ele>
        <time>1970-01-01T00:18:22.000Z</time>
      </trkpt>
      <trkpt lat="42.362721" lon="1.893734">
        <ele>1336</ele>
        <time>1970-01-01T00:18:23.000Z</time>
      </trkpt>
      <trkpt lat="42.362694" lon="1.893728">
        <ele>1336.1</ele>
        <time>1970-01-01T00:18:24.000Z</time>
      </trkpt>
      <trkpt lat="42.362667" lon="1.893718">
        <ele>1336.2</ele>
        <time>1970-01-01T00:18:25.000Z</time>
      </trkpt>
      <trkpt lat="42.362637" lon="1.893707">
        <ele>1336.4</ele>
        <time>1970-01-01T00:18:26.000Z</time>
      </trkpt>
      <trkpt lat="42.36261" lon="1.893689">
        <ele>1336.5</ele>
        <time>1970-01-01T00:18:27.000Z</time>
      </trkpt>
      <trkpt lat="42.362583" lon="1.893678">
        <ele>1336.7</ele>
        <time>1970-01-01T00:18:28.000Z</time>
      </trkpt>
      <trkpt lat="42.362541" lon="1.893658">
        <ele>1336.9</ele>
        <time>1970-01-01T00:18:29.000Z</time>
      </trkpt>
      <trkpt lat="42.362499" lon="1.893646">
        <ele>1337.1</ele>
        <time>1970-01-01T00:18:30.000Z</time>
      </trkpt>
      <trkpt lat="42.362465" lon="1.893641">
        <ele>1337.2</ele>
        <time>1970-01-01T00:18:31.000Z</time>
      </trkpt>
      <trkpt lat="42.362431" lon="1.893637">
        <ele>1337.4</ele>
        <time>1970-01-01T00:18:32.000Z</time>
      </trkpt>
      <trkpt lat="42.362389" lon="1.89364">
        <ele>1337.6</ele>
        <time>1970-01-01T00:18:33.000Z</time>
      </trkpt>
      <trkpt lat="42.362358" lon="1.893644">
        <ele>1337.7</ele>
        <time>1970-01-01T00:18:34.000Z</time>
      </trkpt>
      <trkpt lat="42.362324" lon="1.893652">
        <ele>1337.9</ele>
        <time>1970-01-01T00:18:35.000Z</time>
      </trkpt>
      <trkpt lat="42.362289" lon="1.893662">
        <ele>1338.1</ele>
        <time>1970-01-01T00:18:36.000Z</time>
      </trkpt>
      <trkpt lat="42.362255" lon="1.89367">
        <ele>1338.2</ele>
        <time>1970-01-01T00:18:37.000Z</time>
      </trkpt>
      <trkpt lat="42.362225" lon="1.893679">
        <ele>1338.4</ele>
        <time>1970-01-01T00:18:38.000Z</time>
      </trkpt>
      <trkpt lat="42.36219" lon="1.893684">
        <ele>1338.5</ele>
        <time>1970-01-01T00:18:39.000Z</time>
      </trkpt>
      <trkpt lat="42.36216" lon="1.893689">
        <ele>1338.6</ele>
        <time>1970-01-01T00:18:40.000Z</time>
      </trkpt>
      <trkpt lat="42.362125" lon="1.893693">
        <ele>1338.7</ele>
        <time>1970-01-01T00:18:41.000Z</time>
      </trkpt>
      <trkpt lat="42.362091" lon="1.893693">
        <ele>1338.9</ele>
        <time>1970-01-01T00:18:42.000Z</time>
      </trkpt>
      <trkpt lat="42.362061" lon="1.893683">
        <ele>1339</ele>
        <time>1970-01-01T00:18:43.000Z</time>
      </trkpt>
      <trkpt lat="42.36203" lon="1.893684">
        <ele>1339.1</ele>
        <time>1970-01-01T00:18:44.000Z</time>
      </trkpt>
      <trkpt lat="42.361992" lon="1.893689">
        <ele>1339.2</ele>
        <time>1970-01-01T00:18:45.000Z</time>
      </trkpt>
      <trkpt lat="42.361954" lon="1.893696">
        <ele>1339.3</ele>
        <time>1970-01-01T00:18:46.000Z</time>
      </trkpt>
      <trkpt lat="42.361908" lon="1.893685">
        <ele>1339.5</ele>
        <time>1970-01-01T00:18:47.000Z</time>
      </trkpt>
      <trkpt lat="42.361874" lon="1.8937">
        <ele>1339.6</ele>
        <time>1970-01-01T00:18:48.000Z</time>
      </trkpt>
      <trkpt lat="42.361855" lon="1.893734">
        <ele>1339.8</ele>
        <time>1970-01-01T00:18:49.000Z</time>
      </trkpt>
      <trkpt lat="42.361839" lon="1.893776">
        <ele>1339.9</ele>
        <time>1970-01-01T00:18:50.000Z</time>
      </trkpt>
      <trkpt lat="42.361835" lon="1.893812">
        <ele>1340.1</ele>
        <time>1970-01-01T00:18:51.000Z</time>
      </trkpt>
      <trkpt lat="42.361843" lon="1.89385">
        <ele>1340.2</ele>
        <time>1970-01-01T00:18:52.000Z</time>
      </trkpt>
      <trkpt lat="42.361847" lon="1.893881">
        <ele>1340.4</ele>
        <time>1970-01-01T00:18:53.000Z</time>
      </trkpt>
      <trkpt lat="42.361851" lon="1.893912">
        <ele>1340.5</ele>
        <time>1970-01-01T00:18:54.000Z</time>
      </trkpt>
      <trkpt lat="42.361858" lon="1.89394">
        <ele>1340.7</ele>
        <time>1970-01-01T00:18:55.000Z</time>
      </trkpt>
      <trkpt lat="42.361862" lon="1.893962">
        <ele>1340.8</ele>
        <time>1970-01-01T00:18:56.000Z</time>
      </trkpt>
      <trkpt lat="42.36187" lon="1.89398">
        <ele>1340.9</ele>
        <time>1970-01-01T00:18:57.000Z</time>
      </trkpt>
      <trkpt lat="42.361874" lon="1.893993">
        <ele>1341</ele>
        <time>1970-01-01T00:18:58.000Z</time>
      </trkpt>
      <trkpt lat="42.361889" lon="1.893996">
        <ele>1341.1</ele>
        <time>1970-01-01T00:18:59.000Z</time>
      </trkpt>
      <trkpt lat="42.361896" lon="1.894018">
        <ele>1341.3</ele>
        <time>1970-01-01T00:19:00.000Z</time>
      </trkpt>
      <trkpt lat="42.361908" lon="1.894053">
        <ele>1341.5</ele>
        <time>1970-01-01T00:19:01.000Z</time>
      </trkpt>
      <trkpt lat="42.361912" lon="1.894084">
        <ele>1341.7</ele>
        <time>1970-01-01T00:19:02.000Z</time>
      </trkpt>
      <trkpt lat="42.361923" lon="1.894119">
        <ele>1341.9</ele>
        <time>1970-01-01T00:19:03.000Z</time>
      </trkpt>
      <trkpt lat="42.361931" lon="1.894146">
        <ele>1342.1</ele>
        <time>1970-01-01T00:19:04.000Z</time>
      </trkpt>
      <trkpt lat="42.361938" lon="1.89417">
        <ele>1342.3</ele>
        <time>1970-01-01T00:19:05.000Z</time>
      </trkpt>
      <trkpt lat="42.361946" lon="1.894192">
        <ele>1342.4</ele>
        <time>1970-01-01T00:19:06.000Z</time>
      </trkpt>
      <trkpt lat="42.361954" lon="1.894212">
        <ele>1342.6</ele>
        <time>1970-01-01T00:19:07.000Z</time>
      </trkpt>
      <trkpt lat="42.361954" lon="1.894251">
        <ele>1342.9</ele>
        <time>1970-01-01T00:19:08.000Z</time>
      </trkpt>
      <trkpt lat="42.361965" lon="1.894278">
        <ele>1343.1</ele>
        <time>1970-01-01T00:19:09.000Z</time>
      </trkpt>
      <trkpt lat="42.361973" lon="1.894302">
        <ele>1343.3</ele>
        <time>1970-01-01T00:19:10.000Z</time>
      </trkpt>
      <trkpt lat="42.36198" lon="1.894323">
        <ele>1343.5</ele>
        <time>1970-01-01T00:19:11.000Z</time>
      </trkpt>
      <trkpt lat="42.361992" lon="1.894344">
        <ele>1343.7</ele>
        <time>1970-01-01T00:19:12.000Z</time>
      </trkpt>
      <trkpt lat="42.362003" lon="1.894373">
        <ele>1344</ele>
        <time>1970-01-01T00:19:13.000Z</time>
      </trkpt>
      <trkpt lat="42.362015" lon="1.894397">
        <ele>1344.3</ele>
        <time>1970-01-01T00:19:14.000Z</time>
      </trkpt>
      <trkpt lat="42.362026" lon="1.89442">
        <ele>1344.5</ele>
        <time>1970-01-01T00:19:15.000Z</time>
      </trkpt>
      <trkpt lat="42.36203" lon="1.894439">
        <ele>1344.7</ele>
        <time>1970-01-01T00:19:16.000Z</time>
      </trkpt>
      <trkpt lat="42.362041" lon="1.894469">
        <ele>1345</ele>
        <time>1970-01-01T00:19:17.000Z</time>
      </trkpt>
      <trkpt lat="42.362045" lon="1.894489">
        <ele>1345.1</ele>
        <time>1970-01-01T00:19:18.000Z</time>
      </trkpt>
      <trkpt lat="42.362053" lon="1.894506">
        <ele>1345.3</ele>
        <time>1970-01-01T00:19:19.000Z</time>
      </trkpt>
      <trkpt lat="42.362053" lon="1.894529">
        <ele>1345.6</ele>
        <time>1970-01-01T00:19:20.000Z</time>
      </trkpt>
      <trkpt lat="42.362053" lon="1.894553">
        <ele>1345.8</ele>
        <time>1970-01-01T00:19:21.000Z</time>
      </trkpt>
      <trkpt lat="42.362064" lon="1.894596">
        <ele>1346.3</ele>
        <time>1970-01-01T00:19:22.000Z</time>
      </trkpt>
      <trkpt lat="42.362068" lon="1.894629">
        <ele>1346.6</ele>
        <time>1970-01-01T00:19:23.000Z</time>
      </trkpt>
      <trkpt lat="42.362068" lon="1.894657">
        <ele>1346.9</ele>
        <time>1970-01-01T00:19:24.000Z</time>
      </trkpt>
      <trkpt lat="42.362064" lon="1.8947">
        <ele>1347.4</ele>
        <time>1970-01-01T00:19:25.000Z</time>
      </trkpt>
      <trkpt lat="42.362064" lon="1.894732">
        <ele>1347.7</ele>
        <time>1970-01-01T00:19:26.000Z</time>
      </trkpt>
      <trkpt lat="42.362068" lon="1.894765">
        <ele>1348.1</ele>
        <time>1970-01-01T00:19:27.000Z</time>
      </trkpt>
      <trkpt lat="42.362064" lon="1.894788">
        <ele>1348.3</ele>
        <time>1970-01-01T00:19:28.000Z</time>
      </trkpt>
      <trkpt lat="42.362064" lon="1.89481">
        <ele>1348.6</ele>
        <time>1970-01-01T00:19:29.000Z</time>
      </trkpt>
      <trkpt lat="42.362061" lon="1.894835">
        <ele>1348.8</ele>
        <time>1970-01-01T00:19:30.000Z</time>
      </trkpt>
      <trkpt lat="42.362068" lon="1.894862">
        <ele>1349.1</ele>
        <time>1970-01-01T00:19:31.000Z</time>
      </trkpt>
      <trkpt lat="42.362068" lon="1.894884">
        <ele>1349.4</ele>
        <time>1970-01-01T00:19:32.000Z</time>
      </trkpt>
      <trkpt lat="42.362068" lon="1.894912">
        <ele>1349.7</ele>
        <time>1970-01-01T00:19:33.000Z</time>
      </trkpt>
      <trkpt lat="42.362068" lon="1.894936">
        <ele>1349.9</ele>
        <time>1970-01-01T00:19:34.000Z</time>
      </trkpt>
      <trkpt lat="42.362068" lon="1.894959">
        <ele>1350.1</ele>
        <time>1970-01-01T00:19:35.000Z</time>
      </trkpt>
      <trkpt lat="42.362076" lon="1.89498">
        <ele>1350.4</ele>
        <time>1970-01-01T00:19:36.000Z</time>
      </trkpt>
      <trkpt lat="42.362087" lon="1.895">
        <ele>1350.6</ele>
        <time>1970-01-01T00:19:37.000Z</time>
      </trkpt>
      <trkpt lat="42.362099" lon="1.895025">
        <ele>1350.9</ele>
        <time>1970-01-01T00:19:38.000Z</time>
      </trkpt>
      <trkpt lat="42.362106" lon="1.895052">
        <ele>1351.1</ele>
        <time>1970-01-01T00:19:39.000Z</time>
      </trkpt>
      <trkpt lat="42.362114" lon="1.895074">
        <ele>1351.4</ele>
        <time>1970-01-01T00:19:40.000Z</time>
      </trkpt>
      <trkpt lat="42.362118" lon="1.895096">
        <ele>1351.6</ele>
        <time>1970-01-01T00:19:41.000Z</time>
      </trkpt>
      <trkpt lat="42.362118" lon="1.895131">
        <ele>1351.9</ele>
        <time>1970-01-01T00:19:42.000Z</time>
      </trkpt>
      <trkpt lat="42.362125" lon="1.895158">
        <ele>1352.1</ele>
        <time>1970-01-01T00:19:43.000Z</time>
      </trkpt>
      <trkpt lat="42.362133" lon="1.895188">
        <ele>1352.4</ele>
        <time>1970-01-01T00:19:44.000Z</time>
      </trkpt>
      <trkpt lat="42.362137" lon="1.895213">
        <ele>1352.6</ele>
        <time>1970-01-01T00:19:45.000Z</time>
      </trkpt>
      <trkpt lat="42.362144" lon="1.895234">
        <ele>1352.9</ele>
        <time>1970-01-01T00:19:46.000Z</time>
      </trkpt>
      <trkpt lat="42.362148" lon="1.895267">
        <ele>1353.2</ele>
        <time>1970-01-01T00:19:47.000Z</time>
      </trkpt>
      <trkpt lat="42.362148" lon="1.895299">
        <ele>1353.5</ele>
        <time>1970-01-01T00:19:48.000Z</time>
      </trkpt>
      <trkpt lat="42.362156" lon="1.895324">
        <ele>1353.8</ele>
        <time>1970-01-01T00:19:49.000Z</time>
      </trkpt>
      <trkpt lat="42.362152" lon="1.895363">
        <ele>1354.2</ele>
        <time>1970-01-01T00:19:50.000Z</time>
      </trkpt>
      <trkpt lat="42.362156" lon="1.895388">
        <ele>1354.5</ele>
        <time>1970-01-01T00:19:51.000Z</time>
      </trkpt>
      <trkpt lat="42.362164" lon="1.895417">
        <ele>1354.8</ele>
        <time>1970-01-01T00:19:52.000Z</time>
      </trkpt>
      <trkpt lat="42.362171" lon="1.895446">
        <ele>1355.1</ele>
        <time>1970-01-01T00:19:53.000Z</time>
      </trkpt>
      <trkpt lat="42.362179" lon="1.895468">
        <ele>1355.4</ele>
        <time>1970-01-01T00:19:54.000Z</time>
      </trkpt>
      <trkpt lat="42.362186" lon="1.895488">
        <ele>1355.7</ele>
        <time>1970-01-01T00:19:55.000Z</time>
      </trkpt>
      <trkpt lat="42.36219" lon="1.895513">
        <ele>1356</ele>
        <time>1970-01-01T00:19:56.000Z</time>
      </trkpt>
      <trkpt lat="42.362198" lon="1.895529">
        <ele>1356.2</ele>
        <time>1970-01-01T00:19:57.000Z</time>
      </trkpt>
      <trkpt lat="42.362209" lon="1.895547">
        <ele>1356.4</ele>
        <time>1970-01-01T00:19:58.000Z</time>
      </trkpt>
      <trkpt lat="42.362225" lon="1.895563">
        <ele>1356.7</ele>
        <time>1970-01-01T00:19:59.000Z</time>
      </trkpt>
      <trkpt lat="42.362236" lon="1.895577">
        <ele>1357</ele>
        <time>1970-01-01T00:20:00.000Z</time>
      </trkpt>
      <trkpt lat="42.36224" lon="1.895606">
        <ele>1357.3</ele>
        <time>1970-01-01T00:20:01.000Z</time>
      </trkpt>
      <trkpt lat="42.362251" lon="1.895625">
        <ele>1357.6</ele>
        <time>1970-01-01T00:20:02.000Z</time>
      </trkpt>
      <trkpt lat="42.362259" lon="1.895639">
        <ele>1357.8</ele>
        <time>1970-01-01T00:20:03.000Z</time>
      </trkpt>
      <trkpt lat="42.362274" lon="1.895656">
        <ele>1358.1</ele>
        <time>1970-01-01T00:20:04.000Z</time>
      </trkpt>
      <trkpt lat="42.362286" lon="1.895669">
        <ele>1358.3</ele>
        <time>1970-01-01T00:20:05.000Z</time>
      </trkpt>
      <trkpt lat="42.362297" lon="1.895682">
        <ele>1358.5</ele>
        <time>1970-01-01T00:20:06.000Z</time>
      </trkpt>
      <trkpt lat="42.362312" lon="1.895698">
        <ele>1358.7</ele>
        <time>1970-01-01T00:20:07.000Z</time>
      </trkpt>
      <trkpt lat="42.362324" lon="1.895715">
        <ele>1359</ele>
        <time>1970-01-01T00:20:08.000Z</time>
      </trkpt>
      <trkpt lat="42.362335" lon="1.895731">
        <ele>1359.2</ele>
        <time>1970-01-01T00:20:09.000Z</time>
      </trkpt>
      <trkpt lat="42.36235" lon="1.895749">
        <ele>1359.4</ele>
        <time>1970-01-01T00:20:10.000Z</time>
      </trkpt>
      <trkpt lat="42.362362" lon="1.895772">
        <ele>1359.7</ele>
        <time>1970-01-01T00:20:11.000Z</time>
      </trkpt>
      <trkpt lat="42.36237" lon="1.895788">
        <ele>1359.8</ele>
        <time>1970-01-01T00:20:12.000Z</time>
      </trkpt>
      <trkpt lat="42.362385" lon="1.895802">
        <ele>1360</ele>
        <time>1970-01-01T00:20:13.000Z</time>
      </trkpt>
      <trkpt lat="42.3624" lon="1.895821">
        <ele>1360.2</ele>
        <time>1970-01-01T00:20:14.000Z</time>
      </trkpt>
      <trkpt lat="42.362411" lon="1.895838">
        <ele>1360.4</ele>
        <time>1970-01-01T00:20:15.000Z</time>
      </trkpt>
      <trkpt lat="42.362419" lon="1.895849">
        <ele>1360.5</ele>
        <time>1970-01-01T00:20:16.000Z</time>
      </trkpt>
      <trkpt lat="42.362434" lon="1.895868">
        <ele>1360.8</ele>
        <time>1970-01-01T00:20:17.000Z</time>
      </trkpt>
      <trkpt lat="42.362446" lon="1.895886">
        <ele>1361</ele>
        <time>1970-01-01T00:20:18.000Z</time>
      </trkpt>
      <trkpt lat="42.362461" lon="1.895905">
        <ele>1361.2</ele>
        <time>1970-01-01T00:20:19.000Z</time>
      </trkpt>
      <trkpt lat="42.362476" lon="1.89593">
        <ele>1361.4</ele>
        <time>1970-01-01T00:20:20.000Z</time>
      </trkpt>
      <trkpt lat="42.362488" lon="1.895949">
        <ele>1361.6</ele>
        <time>1970-01-01T00:20:21.000Z</time>
      </trkpt>
      <trkpt lat="42.362503" lon="1.895973">
        <ele>1361.9</ele>
        <time>1970-01-01T00:20:22.000Z</time>
      </trkpt>
      <trkpt lat="42.362514" lon="1.895995">
        <ele>1362.1</ele>
        <time>1970-01-01T00:20:23.000Z</time>
      </trkpt>
      <trkpt lat="42.36253" lon="1.896017">
        <ele>1362.4</ele>
        <time>1970-01-01T00:20:24.000Z</time>
      </trkpt>
      <trkpt lat="42.362545" lon="1.896038">
        <ele>1362.6</ele>
        <time>1970-01-01T00:20:25.000Z</time>
      </trkpt>
      <trkpt lat="42.36256" lon="1.896058">
        <ele>1362.9</ele>
        <time>1970-01-01T00:20:26.000Z</time>
      </trkpt>
      <trkpt lat="42.362575" lon="1.89608">
        <ele>1363.1</ele>
        <time>1970-01-01T00:20:27.000Z</time>
      </trkpt>
      <trkpt lat="42.362587" lon="1.896103">
        <ele>1363.4</ele>
        <time>1970-01-01T00:20:28.000Z</time>
      </trkpt>
      <trkpt lat="42.362598" lon="1.896128">
        <ele>1363.7</ele>
        <time>1970-01-01T00:20:29.000Z</time>
      </trkpt>
      <trkpt lat="42.362602" lon="1.896151">
        <ele>1363.9</ele>
        <time>1970-01-01T00:20:30.000Z</time>
      </trkpt>
      <trkpt lat="42.362614" lon="1.896175">
        <ele>1364.1</ele>
        <time>1970-01-01T00:20:31.000Z</time>
      </trkpt>
      <trkpt lat="42.362625" lon="1.896195">
        <ele>1364.3</ele>
        <time>1970-01-01T00:20:32.000Z</time>
      </trkpt>
      <trkpt lat="42.362637" lon="1.896222">
        <ele>1364.6</ele>
        <time>1970-01-01T00:20:33.000Z</time>
      </trkpt>
      <trkpt lat="42.362652" lon="1.896244">
        <ele>1364.9</ele>
        <time>1970-01-01T00:20:34.000Z</time>
      </trkpt>
      <trkpt lat="42.362656" lon="1.896263">
        <ele>1365.1</ele>
        <time>1970-01-01T00:20:35.000Z</time>
      </trkpt>
      <trkpt lat="42.362663" lon="1.896288">
        <ele>1365.3</ele>
        <time>1970-01-01T00:20:36.000Z</time>
      </trkpt>
      <trkpt lat="42.362671" lon="1.896317">
        <ele>1365.6</ele>
        <time>1970-01-01T00:20:37.000Z</time>
      </trkpt>
      <trkpt lat="42.362671" lon="1.896344">
        <ele>1365.8</ele>
        <time>1970-01-01T00:20:38.000Z</time>
      </trkpt>
      <trkpt lat="42.362671" lon="1.896371">
        <ele>1366.1</ele>
        <time>1970-01-01T00:20:39.000Z</time>
      </trkpt>
      <trkpt lat="42.362671" lon="1.896397">
        <ele>1366.3</ele>
        <time>1970-01-01T00:20:40.000Z</time>
      </trkpt>
      <trkpt lat="42.362671" lon="1.896423">
        <ele>1366.5</ele>
        <time>1970-01-01T00:20:41.000Z</time>
      </trkpt>
      <trkpt lat="42.362671" lon="1.896447">
        <ele>1366.7</ele>
        <time>1970-01-01T00:20:42.000Z</time>
      </trkpt>
      <trkpt lat="42.362667" lon="1.896477">
        <ele>1367</ele>
        <time>1970-01-01T00:20:43.000Z</time>
      </trkpt>
      <trkpt lat="42.362663" lon="1.896508">
        <ele>1367.3</ele>
        <time>1970-01-01T00:20:44.000Z</time>
      </trkpt>
      <trkpt lat="42.362652" lon="1.896536">
        <ele>1367.5</ele>
        <time>1970-01-01T00:20:45.000Z</time>
      </trkpt>
      <trkpt lat="42.362637" lon="1.896563">
        <ele>1367.8</ele>
        <time>1970-01-01T00:20:46.000Z</time>
      </trkpt>
      <trkpt lat="42.362621" lon="1.89659">
        <ele>1368</ele>
        <time>1970-01-01T00:20:47.000Z</time>
      </trkpt>
      <trkpt lat="42.362602" lon="1.896619">
        <ele>1368.2</ele>
        <time>1970-01-01T00:20:48.000Z</time>
      </trkpt>
      <trkpt lat="42.362583" lon="1.896647">
        <ele>1368.3</ele>
        <time>1970-01-01T00:20:49.000Z</time>
      </trkpt>
      <trkpt lat="42.36256" lon="1.896675">
        <ele>1368.5</ele>
        <time>1970-01-01T00:20:50.000Z</time>
      </trkpt>
      <trkpt lat="42.362537" lon="1.896697">
        <ele>1368.6</ele>
        <time>1970-01-01T00:20:51.000Z</time>
      </trkpt>
      <trkpt lat="42.362507" lon="1.896722">
        <ele>1368.7</ele>
        <time>1970-01-01T00:20:52.000Z</time>
      </trkpt>
      <trkpt lat="42.36248" lon="1.896741">
        <ele>1368.8</ele>
        <time>1970-01-01T00:20:53.000Z</time>
      </trkpt>
      <trkpt lat="42.362457" lon="1.896761">
        <ele>1368.9</ele>
        <time>1970-01-01T00:20:54.000Z</time>
      </trkpt>
      <trkpt lat="42.362431" lon="1.896784">
        <ele>1369</ele>
        <time>1970-01-01T00:20:55.000Z</time>
      </trkpt>
      <trkpt lat="42.362404" lon="1.896809">
        <ele>1369.1</ele>
        <time>1970-01-01T00:20:56.000Z</time>
      </trkpt>
      <trkpt lat="42.362377" lon="1.896833">
        <ele>1369.2</ele>
        <time>1970-01-01T00:20:57.000Z</time>
      </trkpt>
      <trkpt lat="42.362347" lon="1.896854">
        <ele>1369.3</ele>
        <time>1970-01-01T00:20:58.000Z</time>
      </trkpt>
      <trkpt lat="42.36232" lon="1.896876">
        <ele>1369.4</ele>
        <time>1970-01-01T00:20:59.000Z</time>
      </trkpt>
      <trkpt lat="42.362289" lon="1.896899">
        <ele>1369.5</ele>
        <time>1970-01-01T00:21:00.000Z</time>
      </trkpt>
      <trkpt lat="42.362259" lon="1.896918">
        <ele>1369.6</ele>
        <time>1970-01-01T00:21:01.000Z</time>
      </trkpt>
      <trkpt lat="42.362225" lon="1.896936">
        <ele>1369.7</ele>
        <time>1970-01-01T00:21:02.000Z</time>
      </trkpt>
      <trkpt lat="42.362183" lon="1.896956">
        <ele>1369.8</ele>
        <time>1970-01-01T00:21:03.000Z</time>
      </trkpt>
      <trkpt lat="42.362148" lon="1.896976">
        <ele>1369.9</ele>
        <time>1970-01-01T00:21:04.000Z</time>
      </trkpt>
      <trkpt lat="42.36211" lon="1.896997">
        <ele>1370.1</ele>
        <time>1970-01-01T00:21:05.000Z</time>
      </trkpt>
      <trkpt lat="42.362072" lon="1.897014">
        <ele>1370.2</ele>
        <time>1970-01-01T00:21:06.000Z</time>
      </trkpt>
      <trkpt lat="42.362034" lon="1.897031">
        <ele>1370.4</ele>
        <time>1970-01-01T00:21:07.000Z</time>
      </trkpt>
      <trkpt lat="42.361996" lon="1.897051">
        <ele>1370.6</ele>
        <time>1970-01-01T00:21:08.000Z</time>
      </trkpt>
      <trkpt lat="42.361961" lon="1.897071">
        <ele>1370.8</ele>
        <time>1970-01-01T00:21:09.000Z</time>
      </trkpt>
      <trkpt lat="42.361927" lon="1.897086">
        <ele>1371</ele>
        <time>1970-01-01T00:21:10.000Z</time>
      </trkpt>
      <trkpt lat="42.3619" lon="1.897103">
        <ele>1371.1</ele>
        <time>1970-01-01T00:21:11.000Z</time>
      </trkpt>
      <trkpt lat="42.361874" lon="1.897115">
        <ele>1371.3</ele>
        <time>1970-01-01T00:21:12.000Z</time>
      </trkpt>
      <trkpt lat="42.361843" lon="1.897131">
        <ele>1371.5</ele>
        <time>1970-01-01T00:21:13.000Z</time>
      </trkpt>
      <trkpt lat="42.361816" lon="1.897151">
        <ele>1371.7</ele>
        <time>1970-01-01T00:21:14.000Z</time>
      </trkpt>
      <trkpt lat="42.361797" lon="1.897172">
        <ele>1371.9</ele>
        <time>1970-01-01T00:21:15.000Z</time>
      </trkpt>
      <trkpt lat="42.361774" lon="1.897192">
        <ele>1372.1</ele>
        <time>1970-01-01T00:21:16.000Z</time>
      </trkpt>
      <trkpt lat="42.361748" lon="1.897215">
        <ele>1372.3</ele>
        <time>1970-01-01T00:21:17.000Z</time>
      </trkpt>
      <trkpt lat="42.361725" lon="1.897236">
        <ele>1372.6</ele>
        <time>1970-01-01T00:21:18.000Z</time>
      </trkpt>
      <trkpt lat="42.361702" lon="1.897257">
        <ele>1372.9</ele>
        <time>1970-01-01T00:21:19.000Z</time>
      </trkpt>
      <trkpt lat="42.361687" lon="1.897273">
        <ele>1373.1</ele>
        <time>1970-01-01T00:21:20.000Z</time>
      </trkpt>
      <trkpt lat="42.361671" lon="1.897289">
        <ele>1373.3</ele>
        <time>1970-01-01T00:21:21.000Z</time>
      </trkpt>
      <trkpt lat="42.361656" lon="1.897305">
        <ele>1373.5</ele>
        <time>1970-01-01T00:21:22.000Z</time>
      </trkpt>
      <trkpt lat="42.361645" lon="1.897321">
        <ele>1373.6</ele>
        <time>1970-01-01T00:21:23.000Z</time>
      </trkpt>
      <trkpt lat="42.361633" lon="1.897339">
        <ele>1373.8</ele>
        <time>1970-01-01T00:21:24.000Z</time>
      </trkpt>
      <trkpt lat="42.361622" lon="1.897356">
        <ele>1374</ele>
        <time>1970-01-01T00:21:25.000Z</time>
      </trkpt>
      <trkpt lat="42.36161" lon="1.897376">
        <ele>1374.2</ele>
        <time>1970-01-01T00:21:26.000Z</time>
      </trkpt>
      <trkpt lat="42.361599" lon="1.897394">
        <ele>1374.4</ele>
        <time>1970-01-01T00:21:27.000Z</time>
      </trkpt>
      <trkpt lat="42.361584" lon="1.897414">
        <ele>1374.7</ele>
        <time>1970-01-01T00:21:28.000Z</time>
      </trkpt>
      <trkpt lat="42.361568" lon="1.89743">
        <ele>1374.9</ele>
        <time>1970-01-01T00:21:29.000Z</time>
      </trkpt>
      <trkpt lat="42.361557" lon="1.897446">
        <ele>1375.1</ele>
        <time>1970-01-01T00:21:30.000Z</time>
      </trkpt>
      <trkpt lat="42.361538" lon="1.897461">
        <ele>1375.3</ele>
        <time>1970-01-01T00:21:31.000Z</time>
      </trkpt>
      <trkpt lat="42.361519" lon="1.897475">
        <ele>1375.6</ele>
        <time>1970-01-01T00:21:32.000Z</time>
      </trkpt>
      <trkpt lat="42.361504" lon="1.897491">
        <ele>1375.8</ele>
        <time>1970-01-01T00:21:33.000Z</time>
      </trkpt>
      <trkpt lat="42.361488" lon="1.897511">
        <ele>1376</ele>
        <time>1970-01-01T00:21:34.000Z</time>
      </trkpt>
      <trkpt lat="42.361477" lon="1.897529">
        <ele>1376.2</ele>
        <time>1970-01-01T00:21:35.000Z</time>
      </trkpt>
      <trkpt lat="42.361462" lon="1.897546">
        <ele>1376.4</ele>
        <time>1970-01-01T00:21:36.000Z</time>
      </trkpt>
      <trkpt lat="42.361443" lon="1.897563">
        <ele>1376.7</ele>
        <time>1970-01-01T00:21:37.000Z</time>
      </trkpt>
      <trkpt lat="42.361427" lon="1.897581">
        <ele>1376.9</ele>
        <time>1970-01-01T00:21:38.000Z</time>
      </trkpt>
      <trkpt lat="42.361408" lon="1.897599">
        <ele>1377.2</ele>
        <time>1970-01-01T00:21:39.000Z</time>
      </trkpt>
      <trkpt lat="42.361389" lon="1.897616">
        <ele>1377.4</ele>
        <time>1970-01-01T00:21:40.000Z</time>
      </trkpt>
      <trkpt lat="42.36137" lon="1.897631">
        <ele>1377.6</ele>
        <time>1970-01-01T00:21:41.000Z</time>
      </trkpt>
      <trkpt lat="42.361347" lon="1.897645">
        <ele>1377.9</ele>
        <time>1970-01-01T00:21:42.000Z</time>
      </trkpt>
      <trkpt lat="42.361324" lon="1.897661">
        <ele>1378.1</ele>
        <time>1970-01-01T00:21:43.000Z</time>
      </trkpt>
      <trkpt lat="42.361309" lon="1.897676">
        <ele>1378.3</ele>
        <time>1970-01-01T00:21:44.000Z</time>
      </trkpt>
      <trkpt lat="42.361282" lon="1.897696">
        <ele>1378.5</ele>
        <time>1970-01-01T00:21:45.000Z</time>
      </trkpt>
      <trkpt lat="42.361256" lon="1.89771">
        <ele>1378.7</ele>
        <time>1970-01-01T00:21:46.000Z</time>
      </trkpt>
      <trkpt lat="42.361229" lon="1.89772">
        <ele>1378.9</ele>
        <time>1970-01-01T00:21:47.000Z</time>
      </trkpt>
      <trkpt lat="42.361206" lon="1.89773">
        <ele>1379.1</ele>
        <time>1970-01-01T00:21:48.000Z</time>
      </trkpt>
      <trkpt lat="42.361179" lon="1.89774">
        <ele>1379.2</ele>
        <time>1970-01-01T00:21:49.000Z</time>
      </trkpt>
      <trkpt lat="42.361153" lon="1.897749">
        <ele>1379.4</ele>
        <time>1970-01-01T00:21:50.000Z</time>
      </trkpt>
      <trkpt lat="42.361118" lon="1.897753">
        <ele>1379.6</ele>
        <time>1970-01-01T00:21:51.000Z</time>
      </trkpt>
      <trkpt lat="42.361088" lon="1.897755">
        <ele>1379.7</ele>
        <time>1970-01-01T00:21:52.000Z</time>
      </trkpt>
      <trkpt lat="42.361057" lon="1.897755">
        <ele>1379.8</ele>
        <time>1970-01-01T00:21:53.000Z</time>
      </trkpt>
      <trkpt lat="42.361027" lon="1.897751">
        <ele>1379.9</ele>
        <time>1970-01-01T00:21:54.000Z</time>
      </trkpt>
      <trkpt lat="42.360992" lon="1.897739">
        <ele>1380</ele>
        <time>1970-01-01T00:21:55.000Z</time>
      </trkpt>
      <trkpt lat="42.360966" lon="1.897726">
        <ele>1380</ele>
        <time>1970-01-01T00:21:56.000Z</time>
      </trkpt>
      <trkpt lat="42.360931" lon="1.897712">
        <ele>1380.1</ele>
        <time>1970-01-01T00:21:57.000Z</time>
      </trkpt>
      <trkpt lat="42.360901" lon="1.897696">
        <ele>1380.1</ele>
        <time>1970-01-01T00:21:58.000Z</time>
      </trkpt>
      <trkpt lat="42.360867" lon="1.897673">
        <ele>1380.1</ele>
        <time>1970-01-01T00:21:59.000Z</time>
      </trkpt>
      <trkpt lat="42.36084" lon="1.897653">
        <ele>1380.1</ele>
        <time>1970-01-01T00:22:00.000Z</time>
      </trkpt>
      <trkpt lat="42.360809" lon="1.897623">
        <ele>1380</ele>
        <time>1970-01-01T00:22:01.000Z</time>
      </trkpt>
      <trkpt lat="42.360779" lon="1.897591">
        <ele>1379.9</ele>
        <time>1970-01-01T00:22:02.000Z</time>
      </trkpt>
      <trkpt lat="42.360752" lon="1.897559">
        <ele>1379.8</ele>
        <time>1970-01-01T00:22:03.000Z</time>
      </trkpt>
      <trkpt lat="42.360722" lon="1.897529">
        <ele>1379.7</ele>
        <time>1970-01-01T00:22:04.000Z</time>
      </trkpt>
      <trkpt lat="42.360687" lon="1.897488">
        <ele>1379.5</ele>
        <time>1970-01-01T00:22:05.000Z</time>
      </trkpt>
      <trkpt lat="42.360645" lon="1.897449">
        <ele>1379.3</ele>
        <time>1970-01-01T00:22:06.000Z</time>
      </trkpt>
      <trkpt lat="42.360603" lon="1.897414">
        <ele>1379.1</ele>
        <time>1970-01-01T00:22:07.000Z</time>
      </trkpt>
      <trkpt lat="42.360554" lon="1.897381">
        <ele>1378.9</ele>
        <time>1970-01-01T00:22:08.000Z</time>
      </trkpt>
      <trkpt lat="42.3605" lon="1.897348">
        <ele>1378.7</ele>
        <time>1970-01-01T00:22:09.000Z</time>
      </trkpt>
      <trkpt lat="42.360439" lon="1.897322">
        <ele>1378.5</ele>
        <time>1970-01-01T00:22:10.000Z</time>
      </trkpt>
      <trkpt lat="42.360382" lon="1.897297">
        <ele>1378.3</ele>
        <time>1970-01-01T00:22:11.000Z</time>
      </trkpt>
      <trkpt lat="42.360329" lon="1.897274">
        <ele>1378.1</ele>
        <time>1970-01-01T00:22:12.000Z</time>
      </trkpt>
      <trkpt lat="42.360271" lon="1.897255">
        <ele>1378</ele>
        <time>1970-01-01T00:22:13.000Z</time>
      </trkpt>
      <trkpt lat="42.360214" lon="1.897238">
        <ele>1377.9</ele>
        <time>1970-01-01T00:22:14.000Z</time>
      </trkpt>
      <trkpt lat="42.360165" lon="1.897225">
        <ele>1377.9</ele>
        <time>1970-01-01T00:22:15.000Z</time>
      </trkpt>
      <trkpt lat="42.360107" lon="1.897226">
        <ele>1377.9</ele>
        <time>1970-01-01T00:22:16.000Z</time>
      </trkpt>
      <trkpt lat="42.360058" lon="1.89724">
        <ele>1377.9</ele>
        <time>1970-01-01T00:22:17.000Z</time>
      </trkpt>
      <trkpt lat="42.360035" lon="1.897294">
        <ele>1377.7</ele>
        <time>1970-01-01T00:22:18.000Z</time>
      </trkpt>
      <trkpt lat="42.36002" lon="1.897342">
        <ele>1377.6</ele>
        <time>1970-01-01T00:22:19.000Z</time>
      </trkpt>
      <trkpt lat="42.360008" lon="1.897386">
        <ele>1377.5</ele>
        <time>1970-01-01T00:22:20.000Z</time>
      </trkpt>
      <trkpt lat="42.36002" lon="1.897435">
        <ele>1377.5</ele>
        <time>1970-01-01T00:22:21.000Z</time>
      </trkpt>
      <trkpt lat="42.360031" lon="1.897483">
        <ele>1377.5</ele>
        <time>1970-01-01T00:22:22.000Z</time>
      </trkpt>
      <trkpt lat="42.360046" lon="1.897535">
        <ele>1377.5</ele>
        <time>1970-01-01T00:22:23.000Z</time>
      </trkpt>
      <trkpt lat="42.360058" lon="1.897587">
        <ele>1377.5</ele>
        <time>1970-01-01T00:22:24.000Z</time>
      </trkpt>
      <trkpt lat="42.360073" lon="1.897642">
        <ele>1377.6</ele>
        <time>1970-01-01T00:22:25.000Z</time>
      </trkpt>
      <trkpt lat="42.360096" lon="1.897701">
        <ele>1377.8</ele>
        <time>1970-01-01T00:22:26.000Z</time>
      </trkpt>
      <trkpt lat="42.360115" lon="1.897751">
        <ele>1377.9</ele>
        <time>1970-01-01T00:22:27.000Z</time>
      </trkpt>
      <trkpt lat="42.360134" lon="1.897799">
        <ele>1378</ele>
        <time>1970-01-01T00:22:28.000Z</time>
      </trkpt>
      <trkpt lat="42.360153" lon="1.897847">
        <ele>1378.1</ele>
        <time>1970-01-01T00:22:29.000Z</time>
      </trkpt>
      <trkpt lat="42.360191" lon="1.897895">
        <ele>1378.3</ele>
        <time>1970-01-01T00:22:30.000Z</time>
      </trkpt>
      <trkpt lat="42.360214" lon="1.897938">
        <ele>1378.4</ele>
        <time>1970-01-01T00:22:31.000Z</time>
      </trkpt>
      <trkpt lat="42.360233" lon="1.89798">
        <ele>1378.5</ele>
        <time>1970-01-01T00:22:32.000Z</time>
      </trkpt>
      <trkpt lat="42.360249" lon="1.898036">
        <ele>1378.6</ele>
        <time>1970-01-01T00:22:33.000Z</time>
      </trkpt>
      <trkpt lat="42.360245" lon="1.898096">
        <ele>1378.7</ele>
        <time>1970-01-01T00:22:34.000Z</time>
      </trkpt>
      <trkpt lat="42.360237" lon="1.898149">
        <ele>1378.7</ele>
        <time>1970-01-01T00:22:35.000Z</time>
      </trkpt>
      <trkpt lat="42.360222" lon="1.89821">
        <ele>1378.7</ele>
        <time>1970-01-01T00:22:36.000Z</time>
      </trkpt>
      <trkpt lat="42.360195" lon="1.898261">
        <ele>1378.6</ele>
        <time>1970-01-01T00:22:37.000Z</time>
      </trkpt>
      <trkpt lat="42.360165" lon="1.898314">
        <ele>1378.5</ele>
        <time>1970-01-01T00:22:38.000Z</time>
      </trkpt>
      <trkpt lat="42.360138" lon="1.898373">
        <ele>1378.4</ele>
        <time>1970-01-01T00:22:39.000Z</time>
      </trkpt>
      <trkpt lat="42.360107" lon="1.898429">
        <ele>1378.3</ele>
        <time>1970-01-01T00:22:40.000Z</time>
      </trkpt>
      <trkpt lat="42.360077" lon="1.898488">
        <ele>1378.1</ele>
        <time>1970-01-01T00:22:41.000Z</time>
      </trkpt>
      <trkpt lat="42.360035" lon="1.898538">
        <ele>1378</ele>
        <time>1970-01-01T00:22:42.000Z</time>
      </trkpt>
      <trkpt lat="42.359989" lon="1.898592">
        <ele>1378</ele>
        <time>1970-01-01T00:22:43.000Z</time>
      </trkpt>
      <trkpt lat="42.359943" lon="1.898654">
        <ele>1378</ele>
        <time>1970-01-01T00:22:44.000Z</time>
      </trkpt>
      <trkpt lat="42.359894" lon="1.8987">
        <ele>1378</ele>
        <time>1970-01-01T00:22:45.000Z</time>
      </trkpt>
      <trkpt lat="42.359852" lon="1.898744">
        <ele>1378</ele>
        <time>1970-01-01T00:22:46.000Z</time>
      </trkpt>
      <trkpt lat="42.359806" lon="1.898788">
        <ele>1378.1</ele>
        <time>1970-01-01T00:22:47.000Z</time>
      </trkpt>
      <trkpt lat="42.359764" lon="1.898831">
        <ele>1378.3</ele>
        <time>1970-01-01T00:22:48.000Z</time>
      </trkpt>
      <trkpt lat="42.359734" lon="1.898879">
        <ele>1378.5</ele>
        <time>1970-01-01T00:22:49.000Z</time>
      </trkpt>
      <trkpt lat="42.359703" lon="1.898926">
        <ele>1378.7</ele>
        <time>1970-01-01T00:22:50.000Z</time>
      </trkpt>
      <trkpt lat="42.359676" lon="1.898973">
        <ele>1378.9</ele>
        <time>1970-01-01T00:22:51.000Z</time>
      </trkpt>
      <trkpt lat="42.359646" lon="1.899022">
        <ele>1379.1</ele>
        <time>1970-01-01T00:22:52.000Z</time>
      </trkpt>
      <trkpt lat="42.359619" lon="1.899069">
        <ele>1379.3</ele>
        <time>1970-01-01T00:22:53.000Z</time>
      </trkpt>
      <trkpt lat="42.359596" lon="1.899113">
        <ele>1379.4</ele>
        <time>1970-01-01T00:22:54.000Z</time>
      </trkpt>
      <trkpt lat="42.359577" lon="1.899146">
        <ele>1379.5</ele>
        <time>1970-01-01T00:22:55.000Z</time>
      </trkpt>
      <trkpt lat="42.35955" lon="1.899162">
        <ele>1379.6</ele>
        <time>1970-01-01T00:22:56.000Z</time>
      </trkpt>
      <trkpt lat="42.359524" lon="1.899181">
        <ele>1379.7</ele>
        <time>1970-01-01T00:22:57.000Z</time>
      </trkpt>
      <trkpt lat="42.359493" lon="1.899207">
        <ele>1379.8</ele>
        <time>1970-01-01T00:22:58.000Z</time>
      </trkpt>
      <trkpt lat="42.359467" lon="1.899234">
        <ele>1379.9</ele>
        <time>1970-01-01T00:22:59.000Z</time>
      </trkpt>
      <trkpt lat="42.359432" lon="1.899273">
        <ele>1380</ele>
        <time>1970-01-01T00:23:00.000Z</time>
      </trkpt>
      <trkpt lat="42.35939" lon="1.899306">
        <ele>1380</ele>
        <time>1970-01-01T00:23:01.000Z</time>
      </trkpt>
      <trkpt lat="42.359356" lon="1.899346">
        <ele>1380</ele>
        <time>1970-01-01T00:23:02.000Z</time>
      </trkpt>
      <trkpt lat="42.359318" lon="1.899384">
        <ele>1379.9</ele>
        <time>1970-01-01T00:23:03.000Z</time>
      </trkpt>
      <trkpt lat="42.359287" lon="1.899432">
        <ele>1379.8</ele>
        <time>1970-01-01T00:23:04.000Z</time>
      </trkpt>
      <trkpt lat="42.359261" lon="1.899482">
        <ele>1379.6</ele>
        <time>1970-01-01T00:23:05.000Z</time>
      </trkpt>
      <trkpt lat="42.359226" lon="1.899551">
        <ele>1379.4</ele>
        <time>1970-01-01T00:23:06.000Z</time>
      </trkpt>
      <trkpt lat="42.3592" lon="1.899616">
        <ele>1379.2</ele>
        <time>1970-01-01T00:23:07.000Z</time>
      </trkpt>
      <trkpt lat="42.359177" lon="1.89968">
        <ele>1379</ele>
        <time>1970-01-01T00:23:08.000Z</time>
      </trkpt>
      <trkpt lat="42.359161" lon="1.899741">
        <ele>1379</ele>
        <time>1970-01-01T00:23:09.000Z</time>
      </trkpt>
      <trkpt lat="42.359161" lon="1.899804">
        <ele>1379</ele>
        <time>1970-01-01T00:23:10.000Z</time>
      </trkpt>
      <trkpt lat="42.359165" lon="1.89986">
        <ele>1379</ele>
        <time>1970-01-01T00:23:11.000Z</time>
      </trkpt>
      <trkpt lat="42.359161" lon="1.899944">
        <ele>1379.2</ele>
        <time>1970-01-01T00:23:12.000Z</time>
      </trkpt>
      <trkpt lat="42.359154" lon="1.900002">
        <ele>1379.3</ele>
        <time>1970-01-01T00:23:13.000Z</time>
      </trkpt>
      <trkpt lat="42.359138" lon="1.900066">
        <ele>1379.6</ele>
        <time>1970-01-01T00:23:14.000Z</time>
      </trkpt>
      <trkpt lat="42.359123" lon="1.900115">
        <ele>1379.8</ele>
        <time>1970-01-01T00:23:15.000Z</time>
      </trkpt>
      <trkpt lat="42.359108" lon="1.900164">
        <ele>1380.1</ele>
        <time>1970-01-01T00:23:16.000Z</time>
      </trkpt>
      <trkpt lat="42.3591" lon="1.9002">
        <ele>1380.3</ele>
        <time>1970-01-01T00:23:17.000Z</time>
      </trkpt>
      <trkpt lat="42.359085" lon="1.900241">
        <ele>1380.6</ele>
        <time>1970-01-01T00:23:18.000Z</time>
      </trkpt>
      <trkpt lat="42.35907" lon="1.900273">
        <ele>1380.9</ele>
        <time>1970-01-01T00:23:19.000Z</time>
      </trkpt>
      <trkpt lat="42.359055" lon="1.900303">
        <ele>1381.2</ele>
        <time>1970-01-01T00:23:20.000Z</time>
      </trkpt>
      <trkpt lat="42.359043" lon="1.90033">
        <ele>1381.4</ele>
        <time>1970-01-01T00:23:21.000Z</time>
      </trkpt>
      <trkpt lat="42.35902" lon="1.900361">
        <ele>1381.8</ele>
        <time>1970-01-01T00:23:22.000Z</time>
      </trkpt>
      <trkpt lat="42.359005" lon="1.900388">
        <ele>1382</ele>
        <time>1970-01-01T00:23:23.000Z</time>
      </trkpt>
      <trkpt lat="42.359005" lon="1.900431">
        <ele>1382.4</ele>
        <time>1970-01-01T00:23:24.000Z</time>
      </trkpt>
      <trkpt lat="42.358994" lon="1.90046">
        <ele>1382.7</ele>
        <time>1970-01-01T00:23:25.000Z</time>
      </trkpt>
      <trkpt lat="42.358982" lon="1.90049">
        <ele>1383</ele>
        <time>1970-01-01T00:23:26.000Z</time>
      </trkpt>
      <trkpt lat="42.358978" lon="1.900514">
        <ele>1383.2</ele>
        <time>1970-01-01T00:23:27.000Z</time>
      </trkpt>
      <trkpt lat="42.358971" lon="1.900543">
        <ele>1383.5</ele>
        <time>1970-01-01T00:23:28.000Z</time>
      </trkpt>
      <trkpt lat="42.358967" lon="1.900567">
        <ele>1383.8</ele>
        <time>1970-01-01T00:23:29.000Z</time>
      </trkpt>
      <trkpt lat="42.358959" lon="1.900592">
        <ele>1384.1</ele>
        <time>1970-01-01T00:23:30.000Z</time>
      </trkpt>
      <trkpt lat="42.358959" lon="1.900629">
        <ele>1384.5</ele>
        <time>1970-01-01T00:23:31.000Z</time>
      </trkpt>
      <trkpt lat="42.358955" lon="1.900656">
        <ele>1384.8</ele>
        <time>1970-01-01T00:23:32.000Z</time>
      </trkpt>
      <trkpt lat="42.358948" lon="1.900686">
        <ele>1385.2</ele>
        <time>1970-01-01T00:23:33.000Z</time>
      </trkpt>
      <trkpt lat="42.35894" lon="1.90071">
        <ele>1385.5</ele>
        <time>1970-01-01T00:23:34.000Z</time>
      </trkpt>
      <trkpt lat="42.358929" lon="1.900728">
        <ele>1385.8</ele>
        <time>1970-01-01T00:23:35.000Z</time>
      </trkpt>
      <trkpt lat="42.358917" lon="1.900749">
        <ele>1386.1</ele>
        <time>1970-01-01T00:23:36.000Z</time>
      </trkpt>
      <trkpt lat="42.358906" lon="1.900763">
        <ele>1386.4</ele>
        <time>1970-01-01T00:23:37.000Z</time>
      </trkpt>
      <trkpt lat="42.358894" lon="1.900775">
        <ele>1386.6</ele>
        <time>1970-01-01T00:23:38.000Z</time>
      </trkpt>
      <trkpt lat="42.358883" lon="1.900788">
        <ele>1386.9</ele>
        <time>1970-01-01T00:23:39.000Z</time>
      </trkpt>
      <trkpt lat="42.358879" lon="1.900802">
        <ele>1387</ele>
        <time>1970-01-01T00:23:40.000Z</time>
      </trkpt>
      <trkpt lat="42.358883" lon="1.900822">
        <ele>1387.3</ele>
        <time>1970-01-01T00:23:41.000Z</time>
      </trkpt>
      <trkpt lat="42.358883" lon="1.900842">
        <ele>1387.5</ele>
        <time>1970-01-01T00:23:42.000Z</time>
      </trkpt>
      <trkpt lat="42.358879" lon="1.900868">
        <ele>1387.8</ele>
        <time>1970-01-01T00:23:43.000Z</time>
      </trkpt>
      <trkpt lat="42.358868" lon="1.900892">
        <ele>1388.1</ele>
        <time>1970-01-01T00:23:44.000Z</time>
      </trkpt>
      <trkpt lat="42.35886" lon="1.900912">
        <ele>1388.3</ele>
        <time>1970-01-01T00:23:45.000Z</time>
      </trkpt>
      <trkpt lat="42.358852" lon="1.900937">
        <ele>1388.6</ele>
        <time>1970-01-01T00:23:46.000Z</time>
      </trkpt>
      <trkpt lat="42.358845" lon="1.90096">
        <ele>1388.8</ele>
        <time>1970-01-01T00:23:47.000Z</time>
      </trkpt>
      <trkpt lat="42.358826" lon="1.900981">
        <ele>1389.1</ele>
        <time>1970-01-01T00:23:48.000Z</time>
      </trkpt>
      <trkpt lat="42.358807" lon="1.901005">
        <ele>1389.5</ele>
        <time>1970-01-01T00:23:49.000Z</time>
      </trkpt>
      <trkpt lat="42.358791" lon="1.90103">
        <ele>1389.7</ele>
        <time>1970-01-01T00:23:50.000Z</time>
      </trkpt>
      <trkpt lat="42.358776" lon="1.901061">
        <ele>1390</ele>
        <time>1970-01-01T00:23:51.000Z</time>
      </trkpt>
      <trkpt lat="42.358768" lon="1.901088">
        <ele>1390.3</ele>
        <time>1970-01-01T00:23:52.000Z</time>
      </trkpt>
      <trkpt lat="42.358765" lon="1.901128">
        <ele>1390.6</ele>
        <time>1970-01-01T00:23:53.000Z</time>
      </trkpt>
      <trkpt lat="42.358761" lon="1.901161">
        <ele>1390.8</ele>
        <time>1970-01-01T00:23:54.000Z</time>
      </trkpt>
      <trkpt lat="42.358753" lon="1.901194">
        <ele>1391.1</ele>
        <time>1970-01-01T00:23:55.000Z</time>
      </trkpt>
      <trkpt lat="42.358742" lon="1.901226">
        <ele>1391.4</ele>
        <time>1970-01-01T00:23:56.000Z</time>
      </trkpt>
      <trkpt lat="42.358742" lon="1.901256">
        <ele>1391.6</ele>
        <time>1970-01-01T00:23:57.000Z</time>
      </trkpt>
      <trkpt lat="42.358738" lon="1.901287">
        <ele>1391.9</ele>
        <time>1970-01-01T00:23:58.000Z</time>
      </trkpt>
      <trkpt lat="42.358738" lon="1.901315">
        <ele>1392.1</ele>
        <time>1970-01-01T00:23:59.000Z</time>
      </trkpt>
      <trkpt lat="42.35873" lon="1.901342">
        <ele>1392.3</ele>
        <time>1970-01-01T00:24:00.000Z</time>
      </trkpt>
      <trkpt lat="42.358723" lon="1.901369">
        <ele>1392.5</ele>
        <time>1970-01-01T00:24:01.000Z</time>
      </trkpt>
      <trkpt lat="42.358723" lon="1.901396">
        <ele>1392.7</ele>
        <time>1970-01-01T00:24:02.000Z</time>
      </trkpt>
      <trkpt lat="42.358715" lon="1.901428">
        <ele>1393</ele>
        <time>1970-01-01T00:24:03.000Z</time>
      </trkpt>
      <trkpt lat="42.358715" lon="1.901456">
        <ele>1393.2</ele>
        <time>1970-01-01T00:24:04.000Z</time>
      </trkpt>
      <trkpt lat="42.358707" lon="1.901488">
        <ele>1393.4</ele>
        <time>1970-01-01T00:24:05.000Z</time>
      </trkpt>
      <trkpt lat="42.358707" lon="1.901515">
        <ele>1393.6</ele>
        <time>1970-01-01T00:24:06.000Z</time>
      </trkpt>
      <trkpt lat="42.358704" lon="1.901539">
        <ele>1393.8</ele>
        <time>1970-01-01T00:24:07.000Z</time>
      </trkpt>
      <trkpt lat="42.358704" lon="1.901562">
        <ele>1394</ele>
        <time>1970-01-01T00:24:08.000Z</time>
      </trkpt>
      <trkpt lat="42.358696" lon="1.901583">
        <ele>1394.1</ele>
        <time>1970-01-01T00:24:09.000Z</time>
      </trkpt>
      <trkpt lat="42.358692" lon="1.901601">
        <ele>1394.2</ele>
        <time>1970-01-01T00:24:10.000Z</time>
      </trkpt>
      <trkpt lat="42.358688" lon="1.901623">
        <ele>1394.4</ele>
        <time>1970-01-01T00:24:11.000Z</time>
      </trkpt>
      <trkpt lat="42.358688" lon="1.901648">
        <ele>1394.6</ele>
        <time>1970-01-01T00:24:12.000Z</time>
      </trkpt>
      <trkpt lat="42.358688" lon="1.901676">
        <ele>1394.7</ele>
        <time>1970-01-01T00:24:13.000Z</time>
      </trkpt>
      <trkpt lat="42.358688" lon="1.901703">
        <ele>1394.9</ele>
        <time>1970-01-01T00:24:14.000Z</time>
      </trkpt>
      <trkpt lat="42.358681" lon="1.901742">
        <ele>1395.1</ele>
        <time>1970-01-01T00:24:15.000Z</time>
      </trkpt>
      <trkpt lat="42.358681" lon="1.901774">
        <ele>1395.3</ele>
        <time>1970-01-01T00:24:16.000Z</time>
      </trkpt>
      <trkpt lat="42.358673" lon="1.901814">
        <ele>1395.5</ele>
        <time>1970-01-01T00:24:17.000Z</time>
      </trkpt>
      <trkpt lat="42.358673" lon="1.901845">
        <ele>1395.7</ele>
        <time>1970-01-01T00:24:18.000Z</time>
      </trkpt>
      <trkpt lat="42.358669" lon="1.901884">
        <ele>1396</ele>
        <time>1970-01-01T00:24:19.000Z</time>
      </trkpt>
      <trkpt lat="42.358662" lon="1.901918">
        <ele>1396.2</ele>
        <time>1970-01-01T00:24:20.000Z</time>
      </trkpt>
      <trkpt lat="42.358654" lon="1.90195">
        <ele>1396.4</ele>
        <time>1970-01-01T00:24:21.000Z</time>
      </trkpt>
      <trkpt lat="42.358654" lon="1.901978">
        <ele>1396.6</ele>
        <time>1970-01-01T00:24:22.000Z</time>
      </trkpt>
      <trkpt lat="42.358666" lon="1.902024">
        <ele>1396.9</ele>
        <time>1970-01-01T00:24:23.000Z</time>
      </trkpt>
      <trkpt lat="42.358662" lon="1.902053">
        <ele>1397.1</ele>
        <time>1970-01-01T00:24:24.000Z</time>
      </trkpt>
      <trkpt lat="42.358658" lon="1.902086">
        <ele>1397.4</ele>
        <time>1970-01-01T00:24:25.000Z</time>
      </trkpt>
      <trkpt lat="42.358654" lon="1.90211">
        <ele>1397.6</ele>
        <time>1970-01-01T00:24:26.000Z</time>
      </trkpt>
      <trkpt lat="42.358658" lon="1.902135">
        <ele>1397.8</ele>
        <time>1970-01-01T00:24:27.000Z</time>
      </trkpt>
      <trkpt lat="42.358646" lon="1.902159">
        <ele>1398</ele>
        <time>1970-01-01T00:24:28.000Z</time>
      </trkpt>
      <trkpt lat="42.358643" lon="1.902176">
        <ele>1398.1</ele>
        <time>1970-01-01T00:24:29.000Z</time>
      </trkpt>
      <trkpt lat="42.358639" lon="1.902199">
        <ele>1398.3</ele>
        <time>1970-01-01T00:24:30.000Z</time>
      </trkpt>
      <trkpt lat="42.358635" lon="1.902221">
        <ele>1398.5</ele>
        <time>1970-01-01T00:24:31.000Z</time>
      </trkpt>
      <trkpt lat="42.358627" lon="1.902238">
        <ele>1398.6</ele>
        <time>1970-01-01T00:24:32.000Z</time>
      </trkpt>
      <trkpt lat="42.358612" lon="1.902257">
        <ele>1398.8</ele>
        <time>1970-01-01T00:24:33.000Z</time>
      </trkpt>
      <trkpt lat="42.358597" lon="1.90228">
        <ele>1399.1</ele>
        <time>1970-01-01T00:24:34.000Z</time>
      </trkpt>
      <trkpt lat="42.358578" lon="1.902305">
        <ele>1399.4</ele>
        <time>1970-01-01T00:24:35.000Z</time>
      </trkpt>
      <trkpt lat="42.358566" lon="1.902327">
        <ele>1399.6</ele>
        <time>1970-01-01T00:24:36.000Z</time>
      </trkpt>
      <trkpt lat="42.358551" lon="1.902353">
        <ele>1399.9</ele>
        <time>1970-01-01T00:24:37.000Z</time>
      </trkpt>
      <trkpt lat="42.358536" lon="1.902378">
        <ele>1400.2</ele>
        <time>1970-01-01T00:24:38.000Z</time>
      </trkpt>
      <trkpt lat="42.35852" lon="1.902401">
        <ele>1400.4</ele>
        <time>1970-01-01T00:24:39.000Z</time>
      </trkpt>
      <trkpt lat="42.358509" lon="1.902424">
        <ele>1400.6</ele>
        <time>1970-01-01T00:24:40.000Z</time>
      </trkpt>
      <trkpt lat="42.358498" lon="1.902442">
        <ele>1400.8</ele>
        <time>1970-01-01T00:24:41.000Z</time>
      </trkpt>
      <trkpt lat="42.358479" lon="1.902471">
        <ele>1401.2</ele>
        <time>1970-01-01T00:24:42.000Z</time>
      </trkpt>
      <trkpt lat="42.358467" lon="1.902493">
        <ele>1401.4</ele>
        <time>1970-01-01T00:24:43.000Z</time>
      </trkpt>
      <trkpt lat="42.358452" lon="1.902517">
        <ele>1401.7</ele>
        <time>1970-01-01T00:24:44.000Z</time>
      </trkpt>
      <trkpt lat="42.358433" lon="1.902542">
        <ele>1402</ele>
        <time>1970-01-01T00:24:45.000Z</time>
      </trkpt>
      <trkpt lat="42.358417" lon="1.902565">
        <ele>1402.2</ele>
        <time>1970-01-01T00:24:46.000Z</time>
      </trkpt>
      <trkpt lat="42.358398" lon="1.902594">
        <ele>1402.5</ele>
        <time>1970-01-01T00:24:47.000Z</time>
      </trkpt>
      <trkpt lat="42.358379" lon="1.902624">
        <ele>1402.8</ele>
        <time>1970-01-01T00:24:48.000Z</time>
      </trkpt>
      <trkpt lat="42.35836" lon="1.902652">
        <ele>1403.1</ele>
        <time>1970-01-01T00:24:49.000Z</time>
      </trkpt>
      <trkpt lat="42.358349" lon="1.902675">
        <ele>1403.3</ele>
        <time>1970-01-01T00:24:50.000Z</time>
      </trkpt>
      <trkpt lat="42.358334" lon="1.902697">
        <ele>1403.5</ele>
        <time>1970-01-01T00:24:51.000Z</time>
      </trkpt>
      <trkpt lat="42.358318" lon="1.90272">
        <ele>1403.7</ele>
        <time>1970-01-01T00:24:52.000Z</time>
      </trkpt>
      <trkpt lat="42.358307" lon="1.902744">
        <ele>1403.8</ele>
        <time>1970-01-01T00:24:53.000Z</time>
      </trkpt>
      <trkpt lat="42.358292" lon="1.902767">
        <ele>1404</ele>
        <time>1970-01-01T00:24:54.000Z</time>
      </trkpt>
      <trkpt lat="42.358284" lon="1.902792">
        <ele>1404.2</ele>
        <time>1970-01-01T00:24:55.000Z</time>
      </trkpt>
      <trkpt lat="42.358273" lon="1.90282">
        <ele>1404.4</ele>
        <time>1970-01-01T00:24:56.000Z</time>
      </trkpt>
      <trkpt lat="42.358257" lon="1.902844">
        <ele>1404.6</ele>
        <time>1970-01-01T00:24:57.000Z</time>
      </trkpt>
      <trkpt lat="42.358242" lon="1.902868">
        <ele>1404.8</ele>
        <time>1970-01-01T00:24:58.000Z</time>
      </trkpt>
      <trkpt lat="42.358231" lon="1.902888">
        <ele>1405</ele>
        <time>1970-01-01T00:24:59.000Z</time>
      </trkpt>
      <trkpt lat="42.358215" lon="1.902913">
        <ele>1405.3</ele>
        <time>1970-01-01T00:25:00.000Z</time>
      </trkpt>
      <trkpt lat="42.358208" lon="1.90294">
        <ele>1405.5</ele>
        <time>1970-01-01T00:25:01.000Z</time>
      </trkpt>
      <trkpt lat="42.358196" lon="1.902964">
        <ele>1405.7</ele>
        <time>1970-01-01T00:25:02.000Z</time>
      </trkpt>
      <trkpt lat="42.358189" lon="1.90299">
        <ele>1405.9</ele>
        <time>1970-01-01T00:25:03.000Z</time>
      </trkpt>
      <trkpt lat="42.358189" lon="1.903012">
        <ele>1406.1</ele>
        <time>1970-01-01T00:25:04.000Z</time>
      </trkpt>
      <trkpt lat="42.358177" lon="1.903035">
        <ele>1406.3</ele>
        <time>1970-01-01T00:25:05.000Z</time>
      </trkpt>
      <trkpt lat="42.358162" lon="1.90306">
        <ele>1406.6</ele>
        <time>1970-01-01T00:25:06.000Z</time>
      </trkpt>
      <trkpt lat="42.358151" lon="1.903082">
        <ele>1406.8</ele>
        <time>1970-01-01T00:25:07.000Z</time>
      </trkpt>
      <trkpt lat="42.358143" lon="1.903106">
        <ele>1407</ele>
        <time>1970-01-01T00:25:08.000Z</time>
      </trkpt>
      <trkpt lat="42.358131" lon="1.90313">
        <ele>1407.3</ele>
        <time>1970-01-01T00:25:09.000Z</time>
      </trkpt>
      <trkpt lat="42.35812" lon="1.903154">
        <ele>1407.5</ele>
        <time>1970-01-01T00:25:10.000Z</time>
      </trkpt>
      <trkpt lat="42.358112" lon="1.903182">
        <ele>1407.8</ele>
        <time>1970-01-01T00:25:11.000Z</time>
      </trkpt>
      <trkpt lat="42.358105" lon="1.903205">
        <ele>1408</ele>
        <time>1970-01-01T00:25:12.000Z</time>
      </trkpt>
      <trkpt lat="42.358093" lon="1.903228">
        <ele>1408.2</ele>
        <time>1970-01-01T00:25:13.000Z</time>
      </trkpt>
      <trkpt lat="42.358086" lon="1.903251">
        <ele>1408.4</ele>
        <time>1970-01-01T00:25:14.000Z</time>
      </trkpt>
      <trkpt lat="42.358074" lon="1.903276">
        <ele>1408.7</ele>
        <time>1970-01-01T00:25:15.000Z</time>
      </trkpt>
      <trkpt lat="42.358063" lon="1.9033">
        <ele>1408.9</ele>
        <time>1970-01-01T00:25:16.000Z</time>
      </trkpt>
      <trkpt lat="42.358055" lon="1.903327">
        <ele>1409.2</ele>
        <time>1970-01-01T00:25:17.000Z</time>
      </trkpt>
      <trkpt lat="42.35804" lon="1.903356">
        <ele>1409.5</ele>
        <time>1970-01-01T00:25:18.000Z</time>
      </trkpt>
      <trkpt lat="42.358032" lon="1.903382">
        <ele>1409.7</ele>
        <time>1970-01-01T00:25:19.000Z</time>
      </trkpt>
      <trkpt lat="42.358017" lon="1.903408">
        <ele>1410</ele>
        <time>1970-01-01T00:25:20.000Z</time>
      </trkpt>
      <trkpt lat="42.358006" lon="1.903431">
        <ele>1410.3</ele>
        <time>1970-01-01T00:25:21.000Z</time>
      </trkpt>
      <trkpt lat="42.357994" lon="1.903452">
        <ele>1410.5</ele>
        <time>1970-01-01T00:25:22.000Z</time>
      </trkpt>
      <trkpt lat="42.357979" lon="1.903477">
        <ele>1410.8</ele>
        <time>1970-01-01T00:25:23.000Z</time>
      </trkpt>
      <trkpt lat="42.357964" lon="1.903494">
        <ele>1411</ele>
        <time>1970-01-01T00:25:24.000Z</time>
      </trkpt>
      <trkpt lat="42.357944" lon="1.903505">
        <ele>1411.3</ele>
        <time>1970-01-01T00:25:25.000Z</time>
      </trkpt>
      <trkpt lat="42.357925" lon="1.903515">
        <ele>1411.5</ele>
        <time>1970-01-01T00:25:26.000Z</time>
      </trkpt>
      <trkpt lat="42.35791" lon="1.903528">
        <ele>1411.7</ele>
        <time>1970-01-01T00:25:27.000Z</time>
      </trkpt>
      <trkpt lat="42.357887" lon="1.903539">
        <ele>1412</ele>
        <time>1970-01-01T00:25:28.000Z</time>
      </trkpt>
      <trkpt lat="42.357872" lon="1.903552">
        <ele>1412.2</ele>
        <time>1970-01-01T00:25:29.000Z</time>
      </trkpt>
      <trkpt lat="42.357853" lon="1.903565">
        <ele>1412.5</ele>
        <time>1970-01-01T00:25:30.000Z</time>
      </trkpt>
      <trkpt lat="42.357838" lon="1.903577">
        <ele>1412.7</ele>
        <time>1970-01-01T00:25:31.000Z</time>
      </trkpt>
      <trkpt lat="42.357819" lon="1.903587">
        <ele>1412.9</ele>
        <time>1970-01-01T00:25:32.000Z</time>
      </trkpt>
      <trkpt lat="42.357803" lon="1.903596">
        <ele>1413.1</ele>
        <time>1970-01-01T00:25:33.000Z</time>
      </trkpt>
      <trkpt lat="42.357773" lon="1.903605">
        <ele>1413.5</ele>
        <time>1970-01-01T00:25:34.000Z</time>
      </trkpt>
      <trkpt lat="42.357754" lon="1.903615">
        <ele>1413.7</ele>
        <time>1970-01-01T00:25:35.000Z</time>
      </trkpt>
      <trkpt lat="42.357735" lon="1.903622">
        <ele>1413.9</ele>
        <time>1970-01-01T00:25:36.000Z</time>
      </trkpt>
      <trkpt lat="42.357716" lon="1.903633">
        <ele>1414.2</ele>
        <time>1970-01-01T00:25:37.000Z</time>
      </trkpt>
      <trkpt lat="42.3577" lon="1.903646">
        <ele>1414.4</ele>
        <time>1970-01-01T00:25:38.000Z</time>
      </trkpt>
      <trkpt lat="42.357685" lon="1.903657">
        <ele>1414.5</ele>
        <time>1970-01-01T00:25:39.000Z</time>
      </trkpt>
      <trkpt lat="42.35767" lon="1.90367">
        <ele>1414.7</ele>
        <time>1970-01-01T00:25:40.000Z</time>
      </trkpt>
      <trkpt lat="42.357651" lon="1.903681">
        <ele>1414.8</ele>
        <time>1970-01-01T00:25:41.000Z</time>
      </trkpt>
      <trkpt lat="42.357639" lon="1.903708">
        <ele>1415</ele>
        <time>1970-01-01T00:25:42.000Z</time>
      </trkpt>
      <trkpt lat="42.357632" lon="1.903738">
        <ele>1415.2</ele>
        <time>1970-01-01T00:25:43.000Z</time>
      </trkpt>
      <trkpt lat="42.357636" lon="1.903765">
        <ele>1415.3</ele>
        <time>1970-01-01T00:25:44.000Z</time>
      </trkpt>
      <trkpt lat="42.357643" lon="1.903811">
        <ele>1415.5</ele>
        <time>1970-01-01T00:25:45.000Z</time>
      </trkpt>
      <trkpt lat="42.357658" lon="1.903842">
        <ele>1415.7</ele>
        <time>1970-01-01T00:25:46.000Z</time>
      </trkpt>
      <trkpt lat="42.357681" lon="1.903865">
        <ele>1415.9</ele>
        <time>1970-01-01T00:25:47.000Z</time>
      </trkpt>
      <trkpt lat="42.357708" lon="1.903878">
        <ele>1416.1</ele>
        <time>1970-01-01T00:25:48.000Z</time>
      </trkpt>
      <trkpt lat="42.357746" lon="1.903886">
        <ele>1416.3</ele>
        <time>1970-01-01T00:25:49.000Z</time>
      </trkpt>
      <trkpt lat="42.357773" lon="1.903893">
        <ele>1416.5</ele>
        <time>1970-01-01T00:25:50.000Z</time>
      </trkpt>
      <trkpt lat="42.357796" lon="1.903907">
        <ele>1416.7</ele>
        <time>1970-01-01T00:25:51.000Z</time>
      </trkpt>
      <trkpt lat="42.357819" lon="1.903923">
        <ele>1416.9</ele>
        <time>1970-01-01T00:25:52.000Z</time>
      </trkpt>
      <trkpt lat="42.357849" lon="1.903941">
        <ele>1417.2</ele>
        <time>1970-01-01T00:25:53.000Z</time>
      </trkpt>
      <trkpt lat="42.357876" lon="1.903958">
        <ele>1417.4</ele>
        <time>1970-01-01T00:25:54.000Z</time>
      </trkpt>
      <trkpt lat="42.357895" lon="1.903979">
        <ele>1417.6</ele>
        <time>1970-01-01T00:25:55.000Z</time>
      </trkpt>
      <trkpt lat="42.35791" lon="1.903999">
        <ele>1417.8</ele>
        <time>1970-01-01T00:25:56.000Z</time>
      </trkpt>
      <trkpt lat="42.357933" lon="1.90402">
        <ele>1418</ele>
        <time>1970-01-01T00:25:57.000Z</time>
      </trkpt>
      <trkpt lat="42.357952" lon="1.904045">
        <ele>1418.3</ele>
        <time>1970-01-01T00:25:58.000Z</time>
      </trkpt>
      <trkpt lat="42.357967" lon="1.904072">
        <ele>1418.5</ele>
        <time>1970-01-01T00:25:59.000Z</time>
      </trkpt>
      <trkpt lat="42.357983" lon="1.904095">
        <ele>1418.7</ele>
        <time>1970-01-01T00:26:00.000Z</time>
      </trkpt>
      <trkpt lat="42.357998" lon="1.904123">
        <ele>1418.9</ele>
        <time>1970-01-01T00:26:01.000Z</time>
      </trkpt>
      <trkpt lat="42.358006" lon="1.904147">
        <ele>1419</ele>
        <time>1970-01-01T00:26:02.000Z</time>
      </trkpt>
      <trkpt lat="42.358021" lon="1.904164">
        <ele>1419.2</ele>
        <time>1970-01-01T00:26:03.000Z</time>
      </trkpt>
      <trkpt lat="42.35804" lon="1.904199">
        <ele>1419.4</ele>
        <time>1970-01-01T00:26:04.000Z</time>
      </trkpt>
      <trkpt lat="42.358055" lon="1.904223">
        <ele>1419.6</ele>
        <time>1970-01-01T00:26:05.000Z</time>
      </trkpt>
      <trkpt lat="42.35807" lon="1.904248">
        <ele>1419.8</ele>
        <time>1970-01-01T00:26:06.000Z</time>
      </trkpt>
      <trkpt lat="42.358082" lon="1.904267">
        <ele>1419.9</ele>
        <time>1970-01-01T00:26:07.000Z</time>
      </trkpt>
      <trkpt lat="42.358093" lon="1.90429">
        <ele>1420.1</ele>
        <time>1970-01-01T00:26:08.000Z</time>
      </trkpt>
      <trkpt lat="42.358101" lon="1.904315">
        <ele>1420.2</ele>
        <time>1970-01-01T00:26:09.000Z</time>
      </trkpt>
      <trkpt lat="42.358112" lon="1.904345">
        <ele>1420.4</ele>
        <time>1970-01-01T00:26:10.000Z</time>
      </trkpt>
      <trkpt lat="42.358124" lon="1.904374">
        <ele>1420.6</ele>
        <time>1970-01-01T00:26:11.000Z</time>
      </trkpt>
      <trkpt lat="42.358135" lon="1.904403">
        <ele>1420.8</ele>
        <time>1970-01-01T00:26:12.000Z</time>
      </trkpt>
      <trkpt lat="42.358143" lon="1.90443">
        <ele>1420.9</ele>
        <time>1970-01-01T00:26:13.000Z</time>
      </trkpt>
      <trkpt lat="42.358151" lon="1.904464">
        <ele>1421.1</ele>
        <time>1970-01-01T00:26:14.000Z</time>
      </trkpt>
      <trkpt lat="42.358158" lon="1.904493">
        <ele>1421.2</ele>
        <time>1970-01-01T00:26:15.000Z</time>
      </trkpt>
      <trkpt lat="42.358166" lon="1.904524">
        <ele>1421.4</ele>
        <time>1970-01-01T00:26:16.000Z</time>
      </trkpt>
      <trkpt lat="42.35817" lon="1.904548">
        <ele>1421.5</ele>
        <time>1970-01-01T00:26:17.000Z</time>
      </trkpt>
      <trkpt lat="42.358177" lon="1.904584">
        <ele>1421.7</ele>
        <time>1970-01-01T00:26:18.000Z</time>
      </trkpt>
      <trkpt lat="42.358185" lon="1.904618">
        <ele>1421.8</ele>
        <time>1970-01-01T00:26:19.000Z</time>
      </trkpt>
      <trkpt lat="42.358196" lon="1.904662">
        <ele>1422</ele>
        <time>1970-01-01T00:26:20.000Z</time>
      </trkpt>
      <trkpt lat="42.358204" lon="1.904704">
        <ele>1422.1</ele>
        <time>1970-01-01T00:26:21.000Z</time>
      </trkpt>
      <trkpt lat="42.358215" lon="1.904749">
        <ele>1422.3</ele>
        <time>1970-01-01T00:26:22.000Z</time>
      </trkpt>
      <trkpt lat="42.358231" lon="1.904819">
        <ele>1422.6</ele>
        <time>1970-01-01T00:26:23.000Z</time>
      </trkpt>
      <trkpt lat="42.35825" lon="1.904867">
        <ele>1422.9</ele>
        <time>1970-01-01T00:26:24.000Z</time>
      </trkpt>
      <trkpt lat="42.358273" lon="1.904889">
        <ele>1423.1</ele>
        <time>1970-01-01T00:26:25.000Z</time>
      </trkpt>
      <trkpt lat="42.358292" lon="1.904909">
        <ele>1423.4</ele>
        <time>1970-01-01T00:26:26.000Z</time>
      </trkpt>
      <trkpt lat="42.358315" lon="1.904925">
        <ele>1423.6</ele>
        <time>1970-01-01T00:26:27.000Z</time>
      </trkpt>
      <trkpt lat="42.358334" lon="1.904934">
        <ele>1423.8</ele>
        <time>1970-01-01T00:26:28.000Z</time>
      </trkpt>
      <trkpt lat="42.358349" lon="1.904942">
        <ele>1424</ele>
        <time>1970-01-01T00:26:29.000Z</time>
      </trkpt>
      <trkpt lat="42.358364" lon="1.904951">
        <ele>1424.1</ele>
        <time>1970-01-01T00:26:30.000Z</time>
      </trkpt>
      <trkpt lat="42.358379" lon="1.904957">
        <ele>1424.3</ele>
        <time>1970-01-01T00:26:31.000Z</time>
      </trkpt>
      <trkpt lat="42.358398" lon="1.904968">
        <ele>1424.5</ele>
        <time>1970-01-01T00:26:32.000Z</time>
      </trkpt>
      <trkpt lat="42.358421" lon="1.904989">
        <ele>1424.8</ele>
        <time>1970-01-01T00:26:33.000Z</time>
      </trkpt>
      <trkpt lat="42.35844" lon="1.905011">
        <ele>1425.1</ele>
        <time>1970-01-01T00:26:34.000Z</time>
      </trkpt>
      <trkpt lat="42.358463" lon="1.90503">
        <ele>1425.4</ele>
        <time>1970-01-01T00:26:35.000Z</time>
      </trkpt>
      <trkpt lat="42.358482" lon="1.905045">
        <ele>1425.6</ele>
        <time>1970-01-01T00:26:36.000Z</time>
      </trkpt>
      <trkpt lat="42.358501" lon="1.905064">
        <ele>1425.9</ele>
        <time>1970-01-01T00:26:37.000Z</time>
      </trkpt>
      <trkpt lat="42.35852" lon="1.90508">
        <ele>1426.2</ele>
        <time>1970-01-01T00:26:38.000Z</time>
      </trkpt>
      <trkpt lat="42.35854" lon="1.905095">
        <ele>1426.4</ele>
        <time>1970-01-01T00:26:39.000Z</time>
      </trkpt>
      <trkpt lat="42.358555" lon="1.905113">
        <ele>1426.7</ele>
        <time>1970-01-01T00:26:40.000Z</time>
      </trkpt>
      <trkpt lat="42.35857" lon="1.905135">
        <ele>1426.9</ele>
        <time>1970-01-01T00:26:41.000Z</time>
      </trkpt>
      <trkpt lat="42.358585" lon="1.905158">
        <ele>1427.2</ele>
        <time>1970-01-01T00:26:42.000Z</time>
      </trkpt>
      <trkpt lat="42.358589" lon="1.905184">
        <ele>1427.4</ele>
        <time>1970-01-01T00:26:43.000Z</time>
      </trkpt>
      <trkpt lat="42.358593" lon="1.905212">
        <ele>1427.7</ele>
        <time>1970-01-01T00:26:44.000Z</time>
      </trkpt>
      <trkpt lat="42.358597" lon="1.905235">
        <ele>1427.9</ele>
        <time>1970-01-01T00:26:45.000Z</time>
      </trkpt>
      <trkpt lat="42.358601" lon="1.905257">
        <ele>1428.1</ele>
        <time>1970-01-01T00:26:46.000Z</time>
      </trkpt>
      <trkpt lat="42.358601" lon="1.90528">
        <ele>1428.3</ele>
        <time>1970-01-01T00:26:47.000Z</time>
      </trkpt>
      <trkpt lat="42.358601" lon="1.905298">
        <ele>1428.9</ele>
        <time>1970-01-01T00:26:48.000Z</time>
      </trkpt>
      <trkpt lat="42.358597" lon="1.905318">
        <ele>1429.1</ele>
        <time>1970-01-01T00:26:49.000Z</time>
      </trkpt>
      <trkpt lat="42.358597" lon="1.905345">
        <ele>1429.4</ele>
        <time>1970-01-01T00:26:50.000Z</time>
      </trkpt>
      <trkpt lat="42.358597" lon="1.905373">
        <ele>1429.8</ele>
        <time>1970-01-01T00:26:51.000Z</time>
      </trkpt>
      <trkpt lat="42.358597" lon="1.905393">
        <ele>1430</ele>
        <time>1970-01-01T00:26:52.000Z</time>
      </trkpt>
      <trkpt lat="42.358601" lon="1.905416">
        <ele>1430.3</ele>
        <time>1970-01-01T00:26:53.000Z</time>
      </trkpt>
      <trkpt lat="42.358601" lon="1.905437">
        <ele>1430.6</ele>
        <time>1970-01-01T00:26:54.000Z</time>
      </trkpt>
      <trkpt lat="42.358601" lon="1.905457">
        <ele>1430.8</ele>
        <time>1970-01-01T00:26:55.000Z</time>
      </trkpt>
      <trkpt lat="42.358601" lon="1.905481">
        <ele>1431.1</ele>
        <time>1970-01-01T00:26:56.000Z</time>
      </trkpt>
      <trkpt lat="42.358597" lon="1.905503">
        <ele>1431.4</ele>
        <time>1970-01-01T00:26:57.000Z</time>
      </trkpt>
      <trkpt lat="42.358597" lon="1.905526">
        <ele>1431.7</ele>
        <time>1970-01-01T00:26:58.000Z</time>
      </trkpt>
      <trkpt lat="42.358597" lon="1.90555">
        <ele>1432</ele>
        <time>1970-01-01T00:26:59.000Z</time>
      </trkpt>
      <trkpt lat="42.358597" lon="1.905572">
        <ele>1432.2</ele>
        <time>1970-01-01T00:27:00.000Z</time>
      </trkpt>
      <trkpt lat="42.358593" lon="1.905596">
        <ele>1432.6</ele>
        <time>1970-01-01T00:27:01.000Z</time>
      </trkpt>
      <trkpt lat="42.358585" lon="1.905618">
        <ele>1432.9</ele>
        <time>1970-01-01T00:27:02.000Z</time>
      </trkpt>
      <trkpt lat="42.358578" lon="1.905642">
        <ele>1433.2</ele>
        <time>1970-01-01T00:27:03.000Z</time>
      </trkpt>
      <trkpt lat="42.358582" lon="1.90566">
        <ele>1433.4</ele>
        <time>1970-01-01T00:27:04.000Z</time>
      </trkpt>
      <trkpt lat="42.358582" lon="1.905679">
        <ele>1433.6</ele>
        <time>1970-01-01T00:27:05.000Z</time>
      </trkpt>
      <trkpt lat="42.358585" lon="1.905697">
        <ele>1433.9</ele>
        <time>1970-01-01T00:27:06.000Z</time>
      </trkpt>
      <trkpt lat="42.358589" lon="1.905719">
        <ele>1434.1</ele>
        <time>1970-01-01T00:27:07.000Z</time>
      </trkpt>
      <trkpt lat="42.358589" lon="1.905747">
        <ele>1434.4</ele>
        <time>1970-01-01T00:27:08.000Z</time>
      </trkpt>
      <trkpt lat="42.358585" lon="1.905776">
        <ele>1434.7</ele>
        <time>1970-01-01T00:27:09.000Z</time>
      </trkpt>
      <trkpt lat="42.358582" lon="1.905802">
        <ele>1435</ele>
        <time>1970-01-01T00:27:10.000Z</time>
      </trkpt>
      <trkpt lat="42.358582" lon="1.90583">
        <ele>1435.3</ele>
        <time>1970-01-01T00:27:11.000Z</time>
      </trkpt>
      <trkpt lat="42.358582" lon="1.905858">
        <ele>1435.6</ele>
        <time>1970-01-01T00:27:12.000Z</time>
      </trkpt>
      <trkpt lat="42.358585" lon="1.905888">
        <ele>1435.9</ele>
        <time>1970-01-01T00:27:13.000Z</time>
      </trkpt>
      <trkpt lat="42.358593" lon="1.905913">
        <ele>1436.1</ele>
        <time>1970-01-01T00:27:14.000Z</time>
      </trkpt>
      <trkpt lat="42.358601" lon="1.905937">
        <ele>1436.3</ele>
        <time>1970-01-01T00:27:15.000Z</time>
      </trkpt>
      <trkpt lat="42.358604" lon="1.90596">
        <ele>1436.6</ele>
        <time>1970-01-01T00:27:16.000Z</time>
      </trkpt>
      <trkpt lat="42.358604" lon="1.905982">
        <ele>1436.7</ele>
        <time>1970-01-01T00:27:17.000Z</time>
      </trkpt>
      <trkpt lat="42.358608" lon="1.906007">
        <ele>1437</ele>
        <time>1970-01-01T00:27:18.000Z</time>
      </trkpt>
      <trkpt lat="42.358608" lon="1.90603">
        <ele>1437.2</ele>
        <time>1970-01-01T00:27:19.000Z</time>
      </trkpt>
      <trkpt lat="42.358608" lon="1.906056">
        <ele>1437.4</ele>
        <time>1970-01-01T00:27:20.000Z</time>
      </trkpt>
      <trkpt lat="42.358604" lon="1.906083">
        <ele>1437.7</ele>
        <time>1970-01-01T00:27:21.000Z</time>
      </trkpt>
      <trkpt lat="42.358597" lon="1.906107">
        <ele>1437.9</ele>
        <time>1970-01-01T00:27:22.000Z</time>
      </trkpt>
      <trkpt lat="42.358593" lon="1.90613">
        <ele>1438.1</ele>
        <time>1970-01-01T00:27:23.000Z</time>
      </trkpt>
      <trkpt lat="42.358593" lon="1.906151">
        <ele>1438.3</ele>
        <time>1970-01-01T00:27:24.000Z</time>
      </trkpt>
      <trkpt lat="42.358582" lon="1.906169">
        <ele>1438.5</ele>
        <time>1970-01-01T00:27:25.000Z</time>
      </trkpt>
      <trkpt lat="42.358578" lon="1.906193">
        <ele>1438.7</ele>
        <time>1970-01-01T00:27:26.000Z</time>
      </trkpt>
      <trkpt lat="42.35857" lon="1.906218">
        <ele>1439</ele>
        <time>1970-01-01T00:27:27.000Z</time>
      </trkpt>
      <trkpt lat="42.358559" lon="1.90624">
        <ele>1439.2</ele>
        <time>1970-01-01T00:27:28.000Z</time>
      </trkpt>
      <trkpt lat="42.358547" lon="1.906258">
        <ele>1439.4</ele>
        <time>1970-01-01T00:27:29.000Z</time>
      </trkpt>
      <trkpt lat="42.358547" lon="1.906278">
        <ele>1439.6</ele>
        <time>1970-01-01T00:27:30.000Z</time>
      </trkpt>
      <trkpt lat="42.35854" lon="1.906303">
        <ele>1439.9</ele>
        <time>1970-01-01T00:27:31.000Z</time>
      </trkpt>
      <trkpt lat="42.358532" lon="1.906325">
        <ele>1440.1</ele>
        <time>1970-01-01T00:27:32.000Z</time>
      </trkpt>
      <trkpt lat="42.358524" lon="1.906347">
        <ele>1440.4</ele>
        <time>1970-01-01T00:27:33.000Z</time>
      </trkpt>
      <trkpt lat="42.35852" lon="1.906374">
        <ele>1440.7</ele>
        <time>1970-01-01T00:27:34.000Z</time>
      </trkpt>
      <trkpt lat="42.358517" lon="1.906394">
        <ele>1440.9</ele>
        <time>1970-01-01T00:27:35.000Z</time>
      </trkpt>
      <trkpt lat="42.358513" lon="1.906424">
        <ele>1441.2</ele>
        <time>1970-01-01T00:27:36.000Z</time>
      </trkpt>
      <trkpt lat="42.358509" lon="1.90645">
        <ele>1441.6</ele>
        <time>1970-01-01T00:27:37.000Z</time>
      </trkpt>
      <trkpt lat="42.358505" lon="1.906476">
        <ele>1441.9</ele>
        <time>1970-01-01T00:27:38.000Z</time>
      </trkpt>
      <trkpt lat="42.358501" lon="1.906499">
        <ele>1442.1</ele>
        <time>1970-01-01T00:27:39.000Z</time>
      </trkpt>
      <trkpt lat="42.358498" lon="1.906522">
        <ele>1442.4</ele>
        <time>1970-01-01T00:27:40.000Z</time>
      </trkpt>
      <trkpt lat="42.358501" lon="1.906544">
        <ele>1442.7</ele>
        <time>1970-01-01T00:27:41.000Z</time>
      </trkpt>
      <trkpt lat="42.358501" lon="1.906565">
        <ele>1442.9</ele>
        <time>1970-01-01T00:27:42.000Z</time>
      </trkpt>
      <trkpt lat="42.358501" lon="1.906591">
        <ele>1443.2</ele>
        <time>1970-01-01T00:27:43.000Z</time>
      </trkpt>
      <trkpt lat="42.358501" lon="1.906615">
        <ele>1443.5</ele>
        <time>1970-01-01T00:27:44.000Z</time>
      </trkpt>
      <trkpt lat="42.358498" lon="1.906637">
        <ele>1443.8</ele>
        <time>1970-01-01T00:27:45.000Z</time>
      </trkpt>
      <trkpt lat="42.35849" lon="1.906666">
        <ele>1444.2</ele>
        <time>1970-01-01T00:27:46.000Z</time>
      </trkpt>
      <trkpt lat="42.35849" lon="1.906687">
        <ele>1444.4</ele>
        <time>1970-01-01T00:27:47.000Z</time>
      </trkpt>
      <trkpt lat="42.358486" lon="1.906709">
        <ele>1444.7</ele>
        <time>1970-01-01T00:27:48.000Z</time>
      </trkpt>
      <trkpt lat="42.358482" lon="1.906733">
        <ele>1445</ele>
        <time>1970-01-01T00:27:49.000Z</time>
      </trkpt>
      <trkpt lat="42.358479" lon="1.906756">
        <ele>1445.2</ele>
        <time>1970-01-01T00:27:50.000Z</time>
      </trkpt>
      <trkpt lat="42.358475" lon="1.906788">
        <ele>1445.6</ele>
        <time>1970-01-01T00:27:51.000Z</time>
      </trkpt>
      <trkpt lat="42.358471" lon="1.90682">
        <ele>1446</ele>
        <time>1970-01-01T00:27:52.000Z</time>
      </trkpt>
      <trkpt lat="42.358467" lon="1.90685">
        <ele>1446.3</ele>
        <time>1970-01-01T00:27:53.000Z</time>
      </trkpt>
      <trkpt lat="42.358463" lon="1.906878">
        <ele>1446.6</ele>
        <time>1970-01-01T00:27:54.000Z</time>
      </trkpt>
      <trkpt lat="42.358459" lon="1.906904">
        <ele>1446.9</ele>
        <time>1970-01-01T00:27:55.000Z</time>
      </trkpt>
      <trkpt lat="42.358456" lon="1.906923">
        <ele>1447.2</ele>
        <time>1970-01-01T00:27:56.000Z</time>
      </trkpt>
      <trkpt lat="42.358448" lon="1.906947">
        <ele>1447.5</ele>
        <time>1970-01-01T00:27:57.000Z</time>
      </trkpt>
      <trkpt lat="42.358448" lon="1.906968">
        <ele>1447.7</ele>
        <time>1970-01-01T00:27:58.000Z</time>
      </trkpt>
      <trkpt lat="42.358448" lon="1.906989">
        <ele>1447.9</ele>
        <time>1970-01-01T00:27:59.000Z</time>
      </trkpt>
      <trkpt lat="42.358444" lon="1.907013">
        <ele>1448.2</ele>
        <time>1970-01-01T00:28:00.000Z</time>
      </trkpt>
      <trkpt lat="42.358437" lon="1.907036">
        <ele>1448.5</ele>
        <time>1970-01-01T00:28:01.000Z</time>
      </trkpt>
      <trkpt lat="42.358433" lon="1.907059">
        <ele>1448.7</ele>
        <time>1970-01-01T00:28:02.000Z</time>
      </trkpt>
      <trkpt lat="42.358425" lon="1.907085">
        <ele>1449</ele>
        <time>1970-01-01T00:28:03.000Z</time>
      </trkpt>
      <trkpt lat="42.358421" lon="1.907111">
        <ele>1449.3</ele>
        <time>1970-01-01T00:28:04.000Z</time>
      </trkpt>
      <trkpt lat="42.358421" lon="1.907135">
        <ele>1449.5</ele>
        <time>1970-01-01T00:28:05.000Z</time>
      </trkpt>
      <trkpt lat="42.358421" lon="1.907158">
        <ele>1449.8</ele>
        <time>1970-01-01T00:28:06.000Z</time>
      </trkpt>
      <trkpt lat="42.35841" lon="1.907177">
        <ele>1450</ele>
        <time>1970-01-01T00:28:07.000Z</time>
      </trkpt>
      <trkpt lat="42.358406" lon="1.907195">
        <ele>1450.2</ele>
        <time>1970-01-01T00:28:08.000Z</time>
      </trkpt>
      <trkpt lat="42.358406" lon="1.907217">
        <ele>1450.4</ele>
        <time>1970-01-01T00:28:09.000Z</time>
      </trkpt>
      <trkpt lat="42.358402" lon="1.907233">
        <ele>1450.5</ele>
        <time>1970-01-01T00:28:10.000Z</time>
      </trkpt>
      <trkpt lat="42.358395" lon="1.907249">
        <ele>1450.7</ele>
        <time>1970-01-01T00:28:11.000Z</time>
      </trkpt>
      <trkpt lat="42.358383" lon="1.907277">
        <ele>1450.9</ele>
        <time>1970-01-01T00:28:12.000Z</time>
      </trkpt>
      <trkpt lat="42.358376" lon="1.907309">
        <ele>1451.2</ele>
        <time>1970-01-01T00:28:13.000Z</time>
      </trkpt>
      <trkpt lat="42.358368" lon="1.907339">
        <ele>1451.4</ele>
        <time>1970-01-01T00:28:14.000Z</time>
      </trkpt>
      <trkpt lat="42.358364" lon="1.907368">
        <ele>1451.6</ele>
        <time>1970-01-01T00:28:15.000Z</time>
      </trkpt>
      <trkpt lat="42.358356" lon="1.907391">
        <ele>1451.8</ele>
        <time>1970-01-01T00:28:16.000Z</time>
      </trkpt>
      <trkpt lat="42.358345" lon="1.907418">
        <ele>1451.9</ele>
        <time>1970-01-01T00:28:17.000Z</time>
      </trkpt>
      <trkpt lat="42.358334" lon="1.907449">
        <ele>1452.1</ele>
        <time>1970-01-01T00:28:18.000Z</time>
      </trkpt>
      <trkpt lat="42.358322" lon="1.907481">
        <ele>1452.3</ele>
        <time>1970-01-01T00:28:19.000Z</time>
      </trkpt>
      <trkpt lat="42.358307" lon="1.90752">
        <ele>1452.6</ele>
        <time>1970-01-01T00:28:20.000Z</time>
      </trkpt>
      <trkpt lat="42.358299" lon="1.907566">
        <ele>1452.8</ele>
        <time>1970-01-01T00:28:21.000Z</time>
      </trkpt>
      <trkpt lat="42.358295" lon="1.90761">
        <ele>1453.1</ele>
        <time>1970-01-01T00:28:22.000Z</time>
      </trkpt>
      <trkpt lat="42.358288" lon="1.90765">
        <ele>1453.3</ele>
        <time>1970-01-01T00:28:23.000Z</time>
      </trkpt>
      <trkpt lat="42.358276" lon="1.907691">
        <ele>1453.6</ele>
        <time>1970-01-01T00:28:24.000Z</time>
      </trkpt>
      <trkpt lat="42.358265" lon="1.907726">
        <ele>1453.8</ele>
        <time>1970-01-01T00:28:25.000Z</time>
      </trkpt>
      <trkpt lat="42.358257" lon="1.907763">
        <ele>1454</ele>
        <time>1970-01-01T00:28:26.000Z</time>
      </trkpt>
      <trkpt lat="42.358261" lon="1.907796">
        <ele>1454.3</ele>
        <time>1970-01-01T00:28:27.000Z</time>
      </trkpt>
      <trkpt lat="42.358257" lon="1.907833">
        <ele>1454.5</ele>
        <time>1970-01-01T00:28:28.000Z</time>
      </trkpt>
      <trkpt lat="42.358257" lon="1.907865">
        <ele>1454.8</ele>
        <time>1970-01-01T00:28:29.000Z</time>
      </trkpt>
      <trkpt lat="42.358253" lon="1.907899">
        <ele>1455</ele>
        <time>1970-01-01T00:28:30.000Z</time>
      </trkpt>
      <trkpt lat="42.35825" lon="1.90794">
        <ele>1455.4</ele>
        <time>1970-01-01T00:28:31.000Z</time>
      </trkpt>
      <trkpt lat="42.358246" lon="1.907977">
        <ele>1455.7</ele>
        <time>1970-01-01T00:28:32.000Z</time>
      </trkpt>
      <trkpt lat="42.358234" lon="1.908009">
        <ele>1456</ele>
        <time>1970-01-01T00:28:33.000Z</time>
      </trkpt>
      <trkpt lat="42.358227" lon="1.908035">
        <ele>1456.2</ele>
        <time>1970-01-01T00:28:34.000Z</time>
      </trkpt>
      <trkpt lat="42.358227" lon="1.908063">
        <ele>1456.4</ele>
        <time>1970-01-01T00:28:35.000Z</time>
      </trkpt>
      <trkpt lat="42.358227" lon="1.908098">
        <ele>1456.7</ele>
        <time>1970-01-01T00:28:36.000Z</time>
      </trkpt>
      <trkpt lat="42.358219" lon="1.908127">
        <ele>1457</ele>
        <time>1970-01-01T00:28:37.000Z</time>
      </trkpt>
      <trkpt lat="42.358215" lon="1.908157">
        <ele>1457.2</ele>
        <time>1970-01-01T00:28:38.000Z</time>
      </trkpt>
      <trkpt lat="42.358208" lon="1.908187">
        <ele>1457.5</ele>
        <time>1970-01-01T00:28:39.000Z</time>
      </trkpt>
      <trkpt lat="42.358204" lon="1.908212">
        <ele>1457.7</ele>
        <time>1970-01-01T00:28:40.000Z</time>
      </trkpt>
      <trkpt lat="42.3582" lon="1.90824">
        <ele>1457.9</ele>
        <time>1970-01-01T00:28:41.000Z</time>
      </trkpt>
      <trkpt lat="42.358196" lon="1.908267">
        <ele>1458.1</ele>
        <time>1970-01-01T00:28:42.000Z</time>
      </trkpt>
      <trkpt lat="42.358189" lon="1.908295">
        <ele>1458.3</ele>
        <time>1970-01-01T00:28:43.000Z</time>
      </trkpt>
      <trkpt lat="42.358189" lon="1.90832">
        <ele>1458.5</ele>
        <time>1970-01-01T00:28:44.000Z</time>
      </trkpt>
      <trkpt lat="42.358189" lon="1.908349">
        <ele>1458.7</ele>
        <time>1970-01-01T00:28:45.000Z</time>
      </trkpt>
      <trkpt lat="42.358196" lon="1.908382">
        <ele>1459</ele>
        <time>1970-01-01T00:28:46.000Z</time>
      </trkpt>
      <trkpt lat="42.358196" lon="1.908408">
        <ele>1459.2</ele>
        <time>1970-01-01T00:28:47.000Z</time>
      </trkpt>
      <trkpt lat="42.358185" lon="1.908441">
        <ele>1459.4</ele>
        <time>1970-01-01T00:28:48.000Z</time>
      </trkpt>
      <trkpt lat="42.358173" lon="1.908471">
        <ele>1459.6</ele>
        <time>1970-01-01T00:28:49.000Z</time>
      </trkpt>
      <trkpt lat="42.358162" lon="1.908506">
        <ele>1459.9</ele>
        <time>1970-01-01T00:28:50.000Z</time>
      </trkpt>
      <trkpt lat="42.358151" lon="1.90854">
        <ele>1460.1</ele>
        <time>1970-01-01T00:28:51.000Z</time>
      </trkpt>
      <trkpt lat="42.358147" lon="1.908576">
        <ele>1460.3</ele>
        <time>1970-01-01T00:28:52.000Z</time>
      </trkpt>
      <trkpt lat="42.358139" lon="1.908612">
        <ele>1460.5</ele>
        <time>1970-01-01T00:28:53.000Z</time>
      </trkpt>
      <trkpt lat="42.358131" lon="1.908644">
        <ele>1460.7</ele>
        <time>1970-01-01T00:28:54.000Z</time>
      </trkpt>
      <trkpt lat="42.35812" lon="1.908684">
        <ele>1460.9</ele>
        <time>1970-01-01T00:28:55.000Z</time>
      </trkpt>
      <trkpt lat="42.358112" lon="1.908718">
        <ele>1461.1</ele>
        <time>1970-01-01T00:28:56.000Z</time>
      </trkpt>
      <trkpt lat="42.358105" lon="1.908762">
        <ele>1461.3</ele>
        <time>1970-01-01T00:28:57.000Z</time>
      </trkpt>
      <trkpt lat="42.358097" lon="1.908801">
        <ele>1461.5</ele>
        <time>1970-01-01T00:28:58.000Z</time>
      </trkpt>
      <trkpt lat="42.358089" lon="1.908843">
        <ele>1461.7</ele>
        <time>1970-01-01T00:28:59.000Z</time>
      </trkpt>
      <trkpt lat="42.358078" lon="1.90888">
        <ele>1461.9</ele>
        <time>1970-01-01T00:29:00.000Z</time>
      </trkpt>
      <trkpt lat="42.35807" lon="1.908915">
        <ele>1462</ele>
        <time>1970-01-01T00:29:01.000Z</time>
      </trkpt>
      <trkpt lat="42.358067" lon="1.908948">
        <ele>1462.2</ele>
        <time>1970-01-01T00:29:02.000Z</time>
      </trkpt>
      <trkpt lat="42.358059" lon="1.908975">
        <ele>1462.3</ele>
        <time>1970-01-01T00:29:03.000Z</time>
      </trkpt>
      <trkpt lat="42.358055" lon="1.909011">
        <ele>1462.5</ele>
        <time>1970-01-01T00:29:04.000Z</time>
      </trkpt>
      <trkpt lat="42.358055" lon="1.909045">
        <ele>1462.7</ele>
        <time>1970-01-01T00:29:05.000Z</time>
      </trkpt>
      <trkpt lat="42.358059" lon="1.909081">
        <ele>1462.8</ele>
        <time>1970-01-01T00:29:06.000Z</time>
      </trkpt>
      <trkpt lat="42.358055" lon="1.909122">
        <ele>1463</ele>
        <time>1970-01-01T00:29:07.000Z</time>
      </trkpt>
      <trkpt lat="42.358055" lon="1.909164">
        <ele>1463.2</ele>
        <time>1970-01-01T00:29:08.000Z</time>
      </trkpt>
      <trkpt lat="42.358051" lon="1.909191">
        <ele>1463.4</ele>
        <time>1970-01-01T00:29:09.000Z</time>
      </trkpt>
      <trkpt lat="42.358048" lon="1.909229">
        <ele>1463.6</ele>
        <time>1970-01-01T00:29:10.000Z</time>
      </trkpt>
      <trkpt lat="42.35804" lon="1.909258">
        <ele>1463.7</ele>
        <time>1970-01-01T00:29:11.000Z</time>
      </trkpt>
      <trkpt lat="42.358036" lon="1.909287">
        <ele>1463.9</ele>
        <time>1970-01-01T00:29:12.000Z</time>
      </trkpt>
      <trkpt lat="42.358032" lon="1.909316">
        <ele>1464.1</ele>
        <time>1970-01-01T00:29:13.000Z</time>
      </trkpt>
      <trkpt lat="42.358028" lon="1.909342">
        <ele>1464.2</ele>
        <time>1970-01-01T00:29:14.000Z</time>
      </trkpt>
      <trkpt lat="42.358025" lon="1.909373">
        <ele>1464.4</ele>
        <time>1970-01-01T00:29:15.000Z</time>
      </trkpt>
      <trkpt lat="42.358021" lon="1.909405">
        <ele>1464.7</ele>
        <time>1970-01-01T00:29:16.000Z</time>
      </trkpt>
      <trkpt lat="42.358017" lon="1.909428">
        <ele>1464.8</ele>
        <time>1970-01-01T00:29:17.000Z</time>
      </trkpt>
      <trkpt lat="42.358009" lon="1.909454">
        <ele>1465</ele>
        <time>1970-01-01T00:29:18.000Z</time>
      </trkpt>
      <trkpt lat="42.358002" lon="1.90948">
        <ele>1465.2</ele>
        <time>1970-01-01T00:29:19.000Z</time>
      </trkpt>
      <trkpt lat="42.357994" lon="1.909511">
        <ele>1465.5</ele>
        <time>1970-01-01T00:29:20.000Z</time>
      </trkpt>
      <trkpt lat="42.357983" lon="1.909541">
        <ele>1465.7</ele>
        <time>1970-01-01T00:29:21.000Z</time>
      </trkpt>
      <trkpt lat="42.357971" lon="1.909565">
        <ele>1465.9</ele>
        <time>1970-01-01T00:29:22.000Z</time>
      </trkpt>
      <trkpt lat="42.357956" lon="1.909593">
        <ele>1466.2</ele>
        <time>1970-01-01T00:29:23.000Z</time>
      </trkpt>
      <trkpt lat="42.357944" lon="1.909624">
        <ele>1466.5</ele>
        <time>1970-01-01T00:29:24.000Z</time>
      </trkpt>
      <trkpt lat="42.357929" lon="1.909653">
        <ele>1466.7</ele>
        <time>1970-01-01T00:29:25.000Z</time>
      </trkpt>
      <trkpt lat="42.357922" lon="1.909684">
        <ele>1467</ele>
        <time>1970-01-01T00:29:26.000Z</time>
      </trkpt>
      <trkpt lat="42.35791" lon="1.909717">
        <ele>1467.2</ele>
        <time>1970-01-01T00:29:27.000Z</time>
      </trkpt>
      <trkpt lat="42.357899" lon="1.909743">
        <ele>1467.4</ele>
        <time>1970-01-01T00:29:28.000Z</time>
      </trkpt>
      <trkpt lat="42.357883" lon="1.909766">
        <ele>1467.6</ele>
        <time>1970-01-01T00:29:29.000Z</time>
      </trkpt>
      <trkpt lat="42.357872" lon="1.90979">
        <ele>1467.8</ele>
        <time>1970-01-01T00:29:30.000Z</time>
      </trkpt>
      <trkpt lat="42.357861" lon="1.909813">
        <ele>1467.9</ele>
        <time>1970-01-01T00:29:31.000Z</time>
      </trkpt>
      <trkpt lat="42.357849" lon="1.909841">
        <ele>1468.1</ele>
        <time>1970-01-01T00:29:32.000Z</time>
      </trkpt>
      <trkpt lat="42.357838" lon="1.909866">
        <ele>1468.2</ele>
        <time>1970-01-01T00:29:33.000Z</time>
      </trkpt>
      <trkpt lat="42.357822" lon="1.909893">
        <ele>1468.4</ele>
        <time>1970-01-01T00:29:34.000Z</time>
      </trkpt>
      <trkpt lat="42.357807" lon="1.909919">
        <ele>1468.6</ele>
        <time>1970-01-01T00:29:35.000Z</time>
      </trkpt>
      <trkpt lat="42.357796" lon="1.909948">
        <ele>1468.8</ele>
        <time>1970-01-01T00:29:36.000Z</time>
      </trkpt>
      <trkpt lat="42.35778" lon="1.909973">
        <ele>1468.9</ele>
        <time>1970-01-01T00:29:37.000Z</time>
      </trkpt>
      <trkpt lat="42.357765" lon="1.910003">
        <ele>1469.1</ele>
        <time>1970-01-01T00:29:38.000Z</time>
      </trkpt>
      <trkpt lat="42.357754" lon="1.910032">
        <ele>1469.3</ele>
        <time>1970-01-01T00:29:39.000Z</time>
      </trkpt>
      <trkpt lat="42.357738" lon="1.910063">
        <ele>1469.5</ele>
        <time>1970-01-01T00:29:40.000Z</time>
      </trkpt>
      <trkpt lat="42.357723" lon="1.91009">
        <ele>1469.6</ele>
        <time>1970-01-01T00:29:41.000Z</time>
      </trkpt>
      <trkpt lat="42.357704" lon="1.910115">
        <ele>1469.8</ele>
        <time>1970-01-01T00:29:42.000Z</time>
      </trkpt>
      <trkpt lat="42.357685" lon="1.910136">
        <ele>1470</ele>
        <time>1970-01-01T00:29:43.000Z</time>
      </trkpt>
      <trkpt lat="42.357662" lon="1.91016">
        <ele>1470.2</ele>
        <time>1970-01-01T00:29:44.000Z</time>
      </trkpt>
      <trkpt lat="42.357647" lon="1.910177">
        <ele>1470.3</ele>
        <time>1970-01-01T00:29:45.000Z</time>
      </trkpt>
      <trkpt lat="42.357542" lon="1.910337">
        <ele>1471.4</ele>
        <time>1970-01-01T00:41:07.000Z</time>
      </trkpt>
      <trkpt lat="42.357517" lon="1.910377">
        <ele>1471.7</ele>
        <time>1970-01-01T00:41:08.000Z</time>
      </trkpt>
      <trkpt lat="42.357498" lon="1.910394">
        <ele>1471.9</ele>
        <time>1970-01-01T00:41:09.000Z</time>
      </trkpt>
      <trkpt lat="42.357491" lon="1.910401">
        <ele>1472</ele>
        <time>1970-01-01T00:41:10.000Z</time>
      </trkpt>
      <trkpt lat="42.357472" lon="1.91041">
        <ele>1472.1</ele>
        <time>1970-01-01T00:41:11.000Z</time>
      </trkpt>
      <trkpt lat="42.357452" lon="1.91042">
        <ele>1472.3</ele>
        <time>1970-01-01T00:41:12.000Z</time>
      </trkpt>
      <trkpt lat="42.35743" lon="1.910436">
        <ele>1472.5</ele>
        <time>1970-01-01T00:41:13.000Z</time>
      </trkpt>
      <trkpt lat="42.357407" lon="1.910454">
        <ele>1472.8</ele>
        <time>1970-01-01T00:41:14.000Z</time>
      </trkpt>
      <trkpt lat="42.357388" lon="1.910468">
        <ele>1472.9</ele>
        <time>1970-01-01T00:41:15.000Z</time>
      </trkpt>
      <trkpt lat="42.357368" lon="1.910479">
        <ele>1473.1</ele>
        <time>1970-01-01T00:41:16.000Z</time>
      </trkpt>
      <trkpt lat="42.357342" lon="1.910495">
        <ele>1473.4</ele>
        <time>1970-01-01T00:41:17.000Z</time>
      </trkpt>
      <trkpt lat="42.357319" lon="1.910503">
        <ele>1473.6</ele>
        <time>1970-01-01T00:41:18.000Z</time>
      </trkpt>
      <trkpt lat="42.357296" lon="1.910521">
        <ele>1473.9</ele>
        <time>1970-01-01T00:41:19.000Z</time>
      </trkpt>
      <trkpt lat="42.357281" lon="1.910543">
        <ele>1474.1</ele>
        <time>1970-01-01T00:41:20.000Z</time>
      </trkpt>
      <trkpt lat="42.357262" lon="1.910563">
        <ele>1474.4</ele>
        <time>1970-01-01T00:41:21.000Z</time>
      </trkpt>
      <trkpt lat="42.357243" lon="1.910583">
        <ele>1474.6</ele>
        <time>1970-01-01T00:41:22.000Z</time>
      </trkpt>
      <trkpt lat="42.35722" lon="1.910602">
        <ele>1474.9</ele>
        <time>1970-01-01T00:41:23.000Z</time>
      </trkpt>
      <trkpt lat="42.357197" lon="1.910617">
        <ele>1475.2</ele>
        <time>1970-01-01T00:41:24.000Z</time>
      </trkpt>
      <trkpt lat="42.357178" lon="1.910627">
        <ele>1475.5</ele>
        <time>1970-01-01T00:41:25.000Z</time>
      </trkpt>
      <trkpt lat="42.357159" lon="1.910628">
        <ele>1475.7</ele>
        <time>1970-01-01T00:41:26.000Z</time>
      </trkpt>
      <trkpt lat="42.357143" lon="1.910621">
        <ele>1476</ele>
        <time>1970-01-01T00:41:27.000Z</time>
      </trkpt>
      <trkpt lat="42.357128" lon="1.910613">
        <ele>1476.2</ele>
        <time>1970-01-01T00:41:28.000Z</time>
      </trkpt>
      <trkpt lat="42.357121" lon="1.910604">
        <ele>1476.3</ele>
        <time>1970-01-01T00:41:29.000Z</time>
      </trkpt>
      <trkpt lat="42.357109" lon="1.910595">
        <ele>1476.5</ele>
        <time>1970-01-01T00:41:30.000Z</time>
      </trkpt>
      <trkpt lat="42.357094" lon="1.910588">
        <ele>1476.7</ele>
        <time>1970-01-01T00:41:31.000Z</time>
      </trkpt>
      <trkpt lat="42.357082" lon="1.910572">
        <ele>1478.6</ele>
        <time>1970-01-01T00:41:32.000Z</time>
      </trkpt>
      <trkpt lat="42.357079" lon="1.910556">
        <ele>1478.8</ele>
        <time>1970-01-01T00:41:33.000Z</time>
      </trkpt>
      <trkpt lat="42.357079" lon="1.910536">
        <ele>1479.1</ele>
        <time>1970-01-01T00:41:34.000Z</time>
      </trkpt>
      <trkpt lat="42.357086" lon="1.910515">
        <ele>1479.3</ele>
        <time>1970-01-01T00:41:35.000Z</time>
      </trkpt>
      <trkpt lat="42.357094" lon="1.910493">
        <ele>1479.6</ele>
        <time>1970-01-01T00:41:36.000Z</time>
      </trkpt>
      <trkpt lat="42.357101" lon="1.91047">
        <ele>1479.9</ele>
        <time>1970-01-01T00:41:37.000Z</time>
      </trkpt>
      <trkpt lat="42.357105" lon="1.910449">
        <ele>1480.1</ele>
        <time>1970-01-01T00:41:38.000Z</time>
      </trkpt>
      <trkpt lat="42.357117" lon="1.910422">
        <ele>1480.4</ele>
        <time>1970-01-01T00:41:39.000Z</time>
      </trkpt>
      <trkpt lat="42.357128" lon="1.910393">
        <ele>1480.6</ele>
        <time>1970-01-01T00:41:40.000Z</time>
      </trkpt>
      <trkpt lat="42.357143" lon="1.910364">
        <ele>1480.9</ele>
        <time>1970-01-01T00:41:41.000Z</time>
      </trkpt>
      <trkpt lat="42.357159" lon="1.910331">
        <ele>1481.2</ele>
        <time>1970-01-01T00:41:42.000Z</time>
      </trkpt>
      <trkpt lat="42.357174" lon="1.910305">
        <ele>1481.5</ele>
        <time>1970-01-01T00:41:43.000Z</time>
      </trkpt>
      <trkpt lat="42.357182" lon="1.910281">
        <ele>1481.7</ele>
        <time>1970-01-01T00:41:44.000Z</time>
      </trkpt>
      <trkpt lat="42.357193" lon="1.910255">
        <ele>1481.8</ele>
        <time>1970-01-01T00:41:45.000Z</time>
      </trkpt>
      <trkpt lat="42.357197" lon="1.910228">
        <ele>1482</ele>
        <time>1970-01-01T00:41:46.000Z</time>
      </trkpt>
      <trkpt lat="42.357208" lon="1.9102">
        <ele>1482.2</ele>
        <time>1970-01-01T00:41:47.000Z</time>
      </trkpt>
      <trkpt lat="42.357216" lon="1.910173">
        <ele>1482.4</ele>
        <time>1970-01-01T00:41:48.000Z</time>
      </trkpt>
      <trkpt lat="42.357223" lon="1.910146">
        <ele>1482.6</ele>
        <time>1970-01-01T00:41:49.000Z</time>
      </trkpt>
      <trkpt lat="42.357235" lon="1.910114">
        <ele>1482.8</ele>
        <time>1970-01-01T00:41:50.000Z</time>
      </trkpt>
      <trkpt lat="42.357243" lon="1.910078">
        <ele>1483</ele>
        <time>1970-01-01T00:41:51.000Z</time>
      </trkpt>
      <trkpt lat="42.357246" lon="1.910044">
        <ele>1483.2</ele>
        <time>1970-01-01T00:41:52.000Z</time>
      </trkpt>
      <trkpt lat="42.357254" lon="1.91001">
        <ele>1483.4</ele>
        <time>1970-01-01T00:41:53.000Z</time>
      </trkpt>
      <trkpt lat="42.357254" lon="1.909976">
        <ele>1483.7</ele>
        <time>1970-01-01T00:41:54.000Z</time>
      </trkpt>
      <trkpt lat="42.357258" lon="1.909941">
        <ele>1483.9</ele>
        <time>1970-01-01T00:41:55.000Z</time>
      </trkpt>
      <trkpt lat="42.357262" lon="1.909911">
        <ele>1484.1</ele>
        <time>1970-01-01T00:41:56.000Z</time>
      </trkpt>
      <trkpt lat="42.357265" lon="1.909878">
        <ele>1484.3</ele>
        <time>1970-01-01T00:41:57.000Z</time>
      </trkpt>
      <trkpt lat="42.357265" lon="1.909848">
        <ele>1484.5</ele>
        <time>1970-01-01T00:41:58.000Z</time>
      </trkpt>
      <trkpt lat="42.357265" lon="1.909817">
        <ele>1484.7</ele>
        <time>1970-01-01T00:41:59.000Z</time>
      </trkpt>
      <trkpt lat="42.357265" lon="1.909789">
        <ele>1484.9</ele>
        <time>1970-01-01T00:42:00.000Z</time>
      </trkpt>
      <trkpt lat="42.357262" lon="1.90976">
        <ele>1485.1</ele>
        <time>1970-01-01T00:42:01.000Z</time>
      </trkpt>
      <trkpt lat="42.357254" lon="1.909736">
        <ele>1485.3</ele>
        <time>1970-01-01T00:42:02.000Z</time>
      </trkpt>
      <trkpt lat="42.357246" lon="1.909716">
        <ele>1485.4</ele>
        <time>1970-01-01T00:42:03.000Z</time>
      </trkpt>
      <trkpt lat="42.357239" lon="1.909697">
        <ele>1485.6</ele>
        <time>1970-01-01T00:42:04.000Z</time>
      </trkpt>
      <trkpt lat="42.357235" lon="1.909674">
        <ele>1485.7</ele>
        <time>1970-01-01T00:42:05.000Z</time>
      </trkpt>
      <trkpt lat="42.357243" lon="1.909623">
        <ele>1486.1</ele>
        <time>1970-01-01T00:42:06.000Z</time>
      </trkpt>
      <trkpt lat="42.357239" lon="1.909586">
        <ele>1486.3</ele>
        <time>1970-01-01T00:42:07.000Z</time>
      </trkpt>
      <trkpt lat="42.357235" lon="1.909552">
        <ele>1486.6</ele>
        <time>1970-01-01T00:42:08.000Z</time>
      </trkpt>
      <trkpt lat="42.357227" lon="1.909522">
        <ele>1486.8</ele>
        <time>1970-01-01T00:42:09.000Z</time>
      </trkpt>
      <trkpt lat="42.357223" lon="1.909486">
        <ele>1487.1</ele>
        <time>1970-01-01T00:42:10.000Z</time>
      </trkpt>
      <trkpt lat="42.357231" lon="1.909439">
        <ele>1487.4</ele>
        <time>1970-01-01T00:42:11.000Z</time>
      </trkpt>
      <trkpt lat="42.357227" lon="1.909401">
        <ele>1487.7</ele>
        <time>1970-01-01T00:42:12.000Z</time>
      </trkpt>
      <trkpt lat="42.357223" lon="1.909364">
        <ele>1488</ele>
        <time>1970-01-01T00:42:13.000Z</time>
      </trkpt>
      <trkpt lat="42.357212" lon="1.909321">
        <ele>1488.3</ele>
        <time>1970-01-01T00:42:14.000Z</time>
      </trkpt>
      <trkpt lat="42.357201" lon="1.909288">
        <ele>1488.6</ele>
        <time>1970-01-01T00:42:15.000Z</time>
      </trkpt>
      <trkpt lat="42.357189" lon="1.909255">
        <ele>1488.9</ele>
        <time>1970-01-01T00:42:16.000Z</time>
      </trkpt>
      <trkpt lat="42.357174" lon="1.909234">
        <ele>1489.1</ele>
        <time>1970-01-01T00:42:17.000Z</time>
      </trkpt>
      <trkpt lat="42.357162" lon="1.909211">
        <ele>1489.3</ele>
        <time>1970-01-01T00:42:18.000Z</time>
      </trkpt>
      <trkpt lat="42.357151" lon="1.909191">
        <ele>1489.5</ele>
        <time>1970-01-01T00:42:19.000Z</time>
      </trkpt>
      <trkpt lat="42.35714" lon="1.909174">
        <ele>1489.6</ele>
        <time>1970-01-01T00:42:20.000Z</time>
      </trkpt>
      <trkpt lat="42.357124" lon="1.909142">
        <ele>1489.9</ele>
        <time>1970-01-01T00:42:21.000Z</time>
      </trkpt>
      <trkpt lat="42.357105" lon="1.909109">
        <ele>1490.3</ele>
        <time>1970-01-01T00:42:22.000Z</time>
      </trkpt>
      <trkpt lat="42.357098" lon="1.909079">
        <ele>1490.5</ele>
        <time>1970-01-01T00:42:23.000Z</time>
      </trkpt>
      <trkpt lat="42.357086" lon="1.909053">
        <ele>1490.7</ele>
        <time>1970-01-01T00:42:24.000Z</time>
      </trkpt>
      <trkpt lat="42.357079" lon="1.90903">
        <ele>1490.9</ele>
        <time>1970-01-01T00:42:25.000Z</time>
      </trkpt>
      <trkpt lat="42.357063" lon="1.909006">
        <ele>1491.2</ele>
        <time>1970-01-01T00:42:26.000Z</time>
      </trkpt>
      <trkpt lat="42.357056" lon="1.908989">
        <ele>1491.3</ele>
        <time>1970-01-01T00:42:27.000Z</time>
      </trkpt>
      <trkpt lat="42.357044" lon="1.908975">
        <ele>1491.5</ele>
        <time>1970-01-01T00:42:28.000Z</time>
      </trkpt>
      <trkpt lat="42.357037" lon="1.908955">
        <ele>1491.7</ele>
        <time>1970-01-01T00:42:29.000Z</time>
      </trkpt>
      <trkpt lat="42.357021" lon="1.908933">
        <ele>1491.9</ele>
        <time>1970-01-01T00:42:30.000Z</time>
      </trkpt>
      <trkpt lat="42.35701" lon="1.908908">
        <ele>1492.2</ele>
        <time>1970-01-01T00:42:31.000Z</time>
      </trkpt>
      <trkpt lat="42.356998" lon="1.90888">
        <ele>1492.4</ele>
        <time>1970-01-01T00:42:32.000Z</time>
      </trkpt>
      <trkpt lat="42.356987" lon="1.908858">
        <ele>1492.7</ele>
        <time>1970-01-01T00:42:33.000Z</time>
      </trkpt>
      <trkpt lat="42.356972" lon="1.90884">
        <ele>1492.9</ele>
        <time>1970-01-01T00:42:34.000Z</time>
      </trkpt>
      <trkpt lat="42.35696" lon="1.908827">
        <ele>1493.1</ele>
        <time>1970-01-01T00:42:35.000Z</time>
      </trkpt>
      <trkpt lat="42.356934" lon="1.908821">
        <ele>1493.5</ele>
        <time>1970-01-01T00:42:36.000Z</time>
      </trkpt>
      <trkpt lat="42.356918" lon="1.908801">
        <ele>1493.7</ele>
        <time>1970-01-01T00:42:37.000Z</time>
      </trkpt>
      <trkpt lat="42.356903" lon="1.908772">
        <ele>1494.1</ele>
        <time>1970-01-01T00:42:38.000Z</time>
      </trkpt>
      <trkpt lat="42.356888" lon="1.908744">
        <ele>1494.4</ele>
        <time>1970-01-01T00:42:39.000Z</time>
      </trkpt>
      <trkpt lat="42.35688" lon="1.908707">
        <ele>1494.8</ele>
        <time>1970-01-01T00:42:40.000Z</time>
      </trkpt>
      <trkpt lat="42.356869" lon="1.908679">
        <ele>1495.2</ele>
        <time>1970-01-01T00:42:41.000Z</time>
      </trkpt>
      <trkpt lat="42.356854" lon="1.908659">
        <ele>1495.5</ele>
        <time>1970-01-01T00:42:42.000Z</time>
      </trkpt>
      <trkpt lat="42.356842" lon="1.908639">
        <ele>1495.8</ele>
        <time>1970-01-01T00:42:43.000Z</time>
      </trkpt>
      <trkpt lat="42.356827" lon="1.908621">
        <ele>1496.1</ele>
        <time>1970-01-01T00:42:44.000Z</time>
      </trkpt>
      <trkpt lat="42.356808" lon="1.908603">
        <ele>1496.5</ele>
        <time>1970-01-01T00:42:45.000Z</time>
      </trkpt>
      <trkpt lat="42.356792" lon="1.908585">
        <ele>1496.8</ele>
        <time>1970-01-01T00:42:46.000Z</time>
      </trkpt>
      <trkpt lat="42.356777" lon="1.908567">
        <ele>1497.1</ele>
        <time>1970-01-01T00:42:47.000Z</time>
      </trkpt>
      <trkpt lat="42.356766" lon="1.908548">
        <ele>1497.4</ele>
        <time>1970-01-01T00:42:48.000Z</time>
      </trkpt>
      <trkpt lat="42.35675" lon="1.908532">
        <ele>1497.8</ele>
        <time>1970-01-01T00:42:49.000Z</time>
      </trkpt>
      <trkpt lat="42.356731" lon="1.908511">
        <ele>1498.2</ele>
        <time>1970-01-01T00:42:50.000Z</time>
      </trkpt>
      <trkpt lat="42.35672" lon="1.908492">
        <ele>1498.5</ele>
        <time>1970-01-01T00:42:51.000Z</time>
      </trkpt>
      <trkpt lat="42.356708" lon="1.908475">
        <ele>1498.8</ele>
        <time>1970-01-01T00:42:52.000Z</time>
      </trkpt>
      <trkpt lat="42.356697" lon="1.908453">
        <ele>1499.2</ele>
        <time>1970-01-01T00:42:53.000Z</time>
      </trkpt>
      <trkpt lat="42.356682" lon="1.908437">
        <ele>1499.5</ele>
        <time>1970-01-01T00:42:54.000Z</time>
      </trkpt>
      <trkpt lat="42.356674" lon="1.908416">
        <ele>1499.8</ele>
        <time>1970-01-01T00:42:55.000Z</time>
      </trkpt>
      <trkpt lat="42.356659" lon="1.908395">
        <ele>1500.2</ele>
        <time>1970-01-01T00:42:56.000Z</time>
      </trkpt>
      <trkpt lat="42.356644" lon="1.908372">
        <ele>1500.6</ele>
        <time>1970-01-01T00:42:57.000Z</time>
      </trkpt>
      <trkpt lat="42.356625" lon="1.908351">
        <ele>1501.1</ele>
        <time>1970-01-01T00:42:58.000Z</time>
      </trkpt>
      <trkpt lat="42.356609" lon="1.908334">
        <ele>1501.4</ele>
        <time>1970-01-01T00:42:59.000Z</time>
      </trkpt>
      <trkpt lat="42.356594" lon="1.908323">
        <ele>1501.7</ele>
        <time>1970-01-01T00:43:00.000Z</time>
      </trkpt>
      <trkpt lat="42.356586" lon="1.90831">
        <ele>1501.9</ele>
        <time>1970-01-01T00:43:01.000Z</time>
      </trkpt>
      <trkpt lat="42.356575" lon="1.9083">
        <ele>1502.2</ele>
        <time>1970-01-01T00:43:02.000Z</time>
      </trkpt>
      <trkpt lat="42.356556" lon="1.908291">
        <ele>1502.5</ele>
        <time>1970-01-01T00:43:03.000Z</time>
      </trkpt>
      <trkpt lat="42.356541" lon="1.908281">
        <ele>1502.8</ele>
        <time>1970-01-01T00:43:04.000Z</time>
      </trkpt>
      <trkpt lat="42.356525" lon="1.90827">
        <ele>1503.1</ele>
        <time>1970-01-01T00:43:05.000Z</time>
      </trkpt>
      <trkpt lat="42.356503" lon="1.908262">
        <ele>1503.5</ele>
        <time>1970-01-01T00:43:06.000Z</time>
      </trkpt>
      <trkpt lat="42.356487" lon="1.90825">
        <ele>1503.8</ele>
        <time>1970-01-01T00:43:07.000Z</time>
      </trkpt>
      <trkpt lat="42.356472" lon="1.908238">
        <ele>1504.1</ele>
        <time>1970-01-01T00:43:08.000Z</time>
      </trkpt>
      <trkpt lat="42.356468" lon="1.908219">
        <ele>1504.3</ele>
        <time>1970-01-01T00:43:09.000Z</time>
      </trkpt>
      <trkpt lat="42.356453" lon="1.908206">
        <ele>1504.6</ele>
        <time>1970-01-01T00:43:10.000Z</time>
      </trkpt>
      <trkpt lat="42.356438" lon="1.908188">
        <ele>1505</ele>
        <time>1970-01-01T00:43:11.000Z</time>
      </trkpt>
      <trkpt lat="42.35643" lon="1.908173">
        <ele>1505.2</ele>
        <time>1970-01-01T00:43:12.000Z</time>
      </trkpt>
      <trkpt lat="42.356415" lon="1.90816">
        <ele>1505.5</ele>
        <time>1970-01-01T00:43:13.000Z</time>
      </trkpt>
      <trkpt lat="42.3564" lon="1.90814">
        <ele>1505.8</ele>
        <time>1970-01-01T00:43:14.000Z</time>
      </trkpt>
      <trkpt lat="42.35638" lon="1.908119">
        <ele>1506.3</ele>
        <time>1970-01-01T00:43:15.000Z</time>
      </trkpt>
      <trkpt lat="42.356365" lon="1.908104">
        <ele>1506.6</ele>
        <time>1970-01-01T00:43:16.000Z</time>
      </trkpt>
      <trkpt lat="42.35635" lon="1.908087">
        <ele>1506.9</ele>
        <time>1970-01-01T00:43:17.000Z</time>
      </trkpt>
      <trkpt lat="42.356339" lon="1.908074">
        <ele>1507.2</ele>
        <time>1970-01-01T00:43:18.000Z</time>
      </trkpt>
      <trkpt lat="42.356331" lon="1.908062">
        <ele>1507.4</ele>
        <time>1970-01-01T00:43:19.000Z</time>
      </trkpt>
      <trkpt lat="42.356319" lon="1.908048">
        <ele>1507.6</ele>
        <time>1970-01-01T00:43:20.000Z</time>
      </trkpt>
      <trkpt lat="42.356304" lon="1.908029">
        <ele>1508</ele>
        <time>1970-01-01T00:43:21.000Z</time>
      </trkpt>
      <trkpt lat="42.356289" lon="1.908013">
        <ele>1508.3</ele>
        <time>1970-01-01T00:43:22.000Z</time>
      </trkpt>
      <trkpt lat="42.356281" lon="1.907999">
        <ele>1508.6</ele>
        <time>1970-01-01T00:43:23.000Z</time>
      </trkpt>
      <trkpt lat="42.35627" lon="1.907984">
        <ele>1508.8</ele>
        <time>1970-01-01T00:43:24.000Z</time>
      </trkpt>
      <trkpt lat="42.356258" lon="1.907967">
        <ele>1509.1</ele>
        <time>1970-01-01T00:43:25.000Z</time>
      </trkpt>
      <trkpt lat="42.356247" lon="1.907948">
        <ele>1509.4</ele>
        <time>1970-01-01T00:43:26.000Z</time>
      </trkpt>
      <trkpt lat="42.356239" lon="1.907928">
        <ele>1509.7</ele>
        <time>1970-01-01T00:43:27.000Z</time>
      </trkpt>
      <trkpt lat="42.356228" lon="1.907909">
        <ele>1510</ele>
        <time>1970-01-01T00:43:28.000Z</time>
      </trkpt>
      <trkpt lat="42.356216" lon="1.907897">
        <ele>1510.3</ele>
        <time>1970-01-01T00:43:29.000Z</time>
      </trkpt>
      <trkpt lat="42.356201" lon="1.907881">
        <ele>1510.6</ele>
        <time>1970-01-01T00:43:30.000Z</time>
      </trkpt>
      <trkpt lat="42.356194" lon="1.907858">
        <ele>1510.9</ele>
        <time>1970-01-01T00:43:31.000Z</time>
      </trkpt>
      <trkpt lat="42.356182" lon="1.907841">
        <ele>1511.2</ele>
        <time>1970-01-01T00:43:32.000Z</time>
      </trkpt>
      <trkpt lat="42.356167" lon="1.907824">
        <ele>1511.5</ele>
        <time>1970-01-01T00:43:33.000Z</time>
      </trkpt>
      <trkpt lat="42.356152" lon="1.907804">
        <ele>1511.9</ele>
        <time>1970-01-01T00:43:34.000Z</time>
      </trkpt>
      <trkpt lat="42.356132" lon="1.907786">
        <ele>1512.3</ele>
        <time>1970-01-01T00:43:35.000Z</time>
      </trkpt>
      <trkpt lat="42.356113" lon="1.90777">
        <ele>1512.6</ele>
        <time>1970-01-01T00:43:36.000Z</time>
      </trkpt>
      <trkpt lat="42.356098" lon="1.907752">
        <ele>1512.9</ele>
        <time>1970-01-01T00:43:37.000Z</time>
      </trkpt>
      <trkpt lat="42.356087" lon="1.907732">
        <ele>1513.2</ele>
        <time>1970-01-01T00:43:38.000Z</time>
      </trkpt>
      <trkpt lat="42.356083" lon="1.907714">
        <ele>1513.4</ele>
        <time>1970-01-01T00:43:39.000Z</time>
      </trkpt>
      <trkpt lat="42.356075" lon="1.907699">
        <ele>1513.7</ele>
        <time>1970-01-01T00:43:40.000Z</time>
      </trkpt>
      <trkpt lat="42.356068" lon="1.907681">
        <ele>1513.9</ele>
        <time>1970-01-01T00:43:41.000Z</time>
      </trkpt>
      <trkpt lat="42.35606" lon="1.907659">
        <ele>1514.2</ele>
        <time>1970-01-01T00:43:42.000Z</time>
      </trkpt>
      <trkpt lat="42.356045" lon="1.907648">
        <ele>1514.4</ele>
        <time>1970-01-01T00:43:43.000Z</time>
      </trkpt>
      <trkpt lat="42.356037" lon="1.907634">
        <ele>1514.6</ele>
        <time>1970-01-01T00:43:44.000Z</time>
      </trkpt>
      <trkpt lat="42.356029" lon="1.907615">
        <ele>1514.8</ele>
        <time>1970-01-01T00:43:45.000Z</time>
      </trkpt>
      <trkpt lat="42.356018" lon="1.907597">
        <ele>1515.1</ele>
        <time>1970-01-01T00:43:46.000Z</time>
      </trkpt>
      <trkpt lat="42.356003" lon="1.907575">
        <ele>1515.4</ele>
        <time>1970-01-01T00:43:47.000Z</time>
      </trkpt>
      <trkpt lat="42.355995" lon="1.907548">
        <ele>1515.7</ele>
        <time>1970-01-01T00:43:48.000Z</time>
      </trkpt>
      <trkpt lat="42.355984" lon="1.907533">
        <ele>1515.9</ele>
        <time>1970-01-01T00:43:49.000Z</time>
      </trkpt>
      <trkpt lat="42.355965" lon="1.907517">
        <ele>1516.2</ele>
        <time>1970-01-01T00:43:50.000Z</time>
      </trkpt>
      <trkpt lat="42.355949" lon="1.907486">
        <ele>1516.6</ele>
        <time>1970-01-01T00:43:51.000Z</time>
      </trkpt>
      <trkpt lat="42.35593" lon="1.90746">
        <ele>1517</ele>
        <time>1970-01-01T00:43:52.000Z</time>
      </trkpt>
      <trkpt lat="42.355904" lon="1.907435">
        <ele>1517.4</ele>
        <time>1970-01-01T00:43:53.000Z</time>
      </trkpt>
      <trkpt lat="42.355885" lon="1.907414">
        <ele>1517.8</ele>
        <time>1970-01-01T00:43:54.000Z</time>
      </trkpt>
      <trkpt lat="42.355873" lon="1.907394">
        <ele>1518</ele>
        <time>1970-01-01T00:43:55.000Z</time>
      </trkpt>
      <trkpt lat="42.355854" lon="1.907377">
        <ele>1518.3</ele>
        <time>1970-01-01T00:43:56.000Z</time>
      </trkpt>
      <trkpt lat="42.355835" lon="1.907359">
        <ele>1518.6</ele>
        <time>1970-01-01T00:43:57.000Z</time>
      </trkpt>
      <trkpt lat="42.35582" lon="1.907331">
        <ele>1519</ele>
        <time>1970-01-01T00:43:58.000Z</time>
      </trkpt>
      <trkpt lat="42.355804" lon="1.907314">
        <ele>1519.3</ele>
        <time>1970-01-01T00:43:59.000Z</time>
      </trkpt>
      <trkpt lat="42.355785" lon="1.90729">
        <ele>1519.6</ele>
        <time>1970-01-01T00:44:00.000Z</time>
      </trkpt>
      <trkpt lat="42.355774" lon="1.907272">
        <ele>1519.8</ele>
        <time>1970-01-01T00:44:01.000Z</time>
      </trkpt>
      <trkpt lat="42.355755" lon="1.907257">
        <ele>1520.1</ele>
        <time>1970-01-01T00:44:02.000Z</time>
      </trkpt>
      <trkpt lat="42.35574" lon="1.907245">
        <ele>1520.3</ele>
        <time>1970-01-01T00:44:03.000Z</time>
      </trkpt>
      <trkpt lat="42.355732" lon="1.90722">
        <ele>1520.6</ele>
        <time>1970-01-01T00:44:04.000Z</time>
      </trkpt>
      <trkpt lat="42.355717" lon="1.907201">
        <ele>1520.9</ele>
        <time>1970-01-01T00:44:05.000Z</time>
      </trkpt>
      <trkpt lat="42.355701" lon="1.907177">
        <ele>1521.2</ele>
        <time>1970-01-01T00:44:06.000Z</time>
      </trkpt>
      <trkpt lat="42.355682" lon="1.907151">
        <ele>1521.5</ele>
        <time>1970-01-01T00:44:07.000Z</time>
      </trkpt>
      <trkpt lat="42.355667" lon="1.907129">
        <ele>1521.8</ele>
        <time>1970-01-01T00:44:08.000Z</time>
      </trkpt>
      <trkpt lat="42.355656" lon="1.907114">
        <ele>1522.1</ele>
        <time>1970-01-01T00:44:09.000Z</time>
      </trkpt>
      <trkpt lat="42.35564" lon="1.907092">
        <ele>1522.4</ele>
        <time>1970-01-01T00:44:10.000Z</time>
      </trkpt>
      <trkpt lat="42.355621" lon="1.907071">
        <ele>1522.6</ele>
        <time>1970-01-01T00:44:11.000Z</time>
      </trkpt>
      <trkpt lat="42.35561" lon="1.907052">
        <ele>1522.8</ele>
        <time>1970-01-01T00:44:12.000Z</time>
      </trkpt>
      <trkpt lat="42.355598" lon="1.90704">
        <ele>1523</ele>
        <time>1970-01-01T00:44:13.000Z</time>
      </trkpt>
      <trkpt lat="42.355583" lon="1.907029">
        <ele>1523.2</ele>
        <time>1970-01-01T00:44:14.000Z</time>
      </trkpt>
      <trkpt lat="42.355572" lon="1.90702">
        <ele>1523.4</ele>
        <time>1970-01-01T00:44:15.000Z</time>
      </trkpt>
      <trkpt lat="42.35556" lon="1.907005">
        <ele>1523.6</ele>
        <time>1970-01-01T00:44:16.000Z</time>
      </trkpt>
      <trkpt lat="42.355553" lon="1.906996">
        <ele>1523.7</ele>
        <time>1970-01-01T00:44:17.000Z</time>
      </trkpt>
      <trkpt lat="42.355541" lon="1.906989">
        <ele>1523.9</ele>
        <time>1970-01-01T00:44:18.000Z</time>
      </trkpt>
      <trkpt lat="42.35553" lon="1.906978">
        <ele>1524.1</ele>
        <time>1970-01-01T00:44:19.000Z</time>
      </trkpt>
      <trkpt lat="42.355514" lon="1.906968">
        <ele>1524.3</ele>
        <time>1970-01-01T00:44:20.000Z</time>
      </trkpt>
      <trkpt lat="42.355499" lon="1.906954">
        <ele>1524.5</ele>
        <time>1970-01-01T00:44:21.000Z</time>
      </trkpt>
      <trkpt lat="42.355484" lon="1.906943">
        <ele>1524.8</ele>
        <time>1970-01-01T00:44:22.000Z</time>
      </trkpt>
      <trkpt lat="42.355473" lon="1.90693">
        <ele>1524.9</ele>
        <time>1970-01-01T00:44:23.000Z</time>
      </trkpt>
      <trkpt lat="42.355453" lon="1.906917">
        <ele>1525.2</ele>
        <time>1970-01-01T00:44:24.000Z</time>
      </trkpt>
      <trkpt lat="42.355438" lon="1.9069">
        <ele>1525.5</ele>
        <time>1970-01-01T00:44:25.000Z</time>
      </trkpt>
      <trkpt lat="42.355427" lon="1.906888">
        <ele>1525.7</ele>
        <time>1970-01-01T00:44:26.000Z</time>
      </trkpt>
      <trkpt lat="42.355415" lon="1.906875">
        <ele>1525.9</ele>
        <time>1970-01-01T00:44:27.000Z</time>
      </trkpt>
      <trkpt lat="42.355404" lon="1.906859">
        <ele>1526.1</ele>
        <time>1970-01-01T00:44:28.000Z</time>
      </trkpt>
      <trkpt lat="42.355389" lon="1.906844">
        <ele>1526.4</ele>
        <time>1970-01-01T00:44:29.000Z</time>
      </trkpt>
      <trkpt lat="42.355377" lon="1.90683">
        <ele>1526.6</ele>
        <time>1970-01-01T00:44:30.000Z</time>
      </trkpt>
      <trkpt lat="42.355366" lon="1.906814">
        <ele>1526.8</ele>
        <time>1970-01-01T00:44:31.000Z</time>
      </trkpt>
      <trkpt lat="42.355354" lon="1.906793">
        <ele>1527.1</ele>
        <time>1970-01-01T00:44:32.000Z</time>
      </trkpt>
      <trkpt lat="42.355343" lon="1.906772">
        <ele>1527.3</ele>
        <time>1970-01-01T00:44:33.000Z</time>
      </trkpt>
      <trkpt lat="42.355335" lon="1.906755">
        <ele>1527.5</ele>
        <time>1970-01-01T00:44:34.000Z</time>
      </trkpt>
      <trkpt lat="42.355324" lon="1.906742">
        <ele>1527.7</ele>
        <time>1970-01-01T00:44:35.000Z</time>
      </trkpt>
      <trkpt lat="42.355309" lon="1.906726">
        <ele>1528</ele>
        <time>1970-01-01T00:44:36.000Z</time>
      </trkpt>
      <trkpt lat="42.355293" lon="1.906708">
        <ele>1528.3</ele>
        <time>1970-01-01T00:44:37.000Z</time>
      </trkpt>
      <trkpt lat="42.355274" lon="1.906692">
        <ele>1528.6</ele>
        <time>1970-01-01T00:44:38.000Z</time>
      </trkpt>
      <trkpt lat="42.355259" lon="1.906677">
        <ele>1528.8</ele>
        <time>1970-01-01T00:44:39.000Z</time>
      </trkpt>
      <trkpt lat="42.355244" lon="1.906663">
        <ele>1529</ele>
        <time>1970-01-01T00:44:40.000Z</time>
      </trkpt>
      <trkpt lat="42.355225" lon="1.906653">
        <ele>1529.3</ele>
        <time>1970-01-01T00:44:41.000Z</time>
      </trkpt>
      <trkpt lat="42.355206" lon="1.906636">
        <ele>1529.6</ele>
        <time>1970-01-01T00:44:42.000Z</time>
      </trkpt>
      <trkpt lat="42.355186" lon="1.906616">
        <ele>1529.9</ele>
        <time>1970-01-01T00:44:43.000Z</time>
      </trkpt>
      <trkpt lat="42.355171" lon="1.90659">
        <ele>1530.2</ele>
        <time>1970-01-01T00:44:44.000Z</time>
      </trkpt>
      <trkpt lat="42.355156" lon="1.906561">
        <ele>1530.6</ele>
        <time>1970-01-01T00:44:45.000Z</time>
      </trkpt>
      <trkpt lat="42.355141" lon="1.906536">
        <ele>1530.9</ele>
        <time>1970-01-01T00:44:46.000Z</time>
      </trkpt>
      <trkpt lat="42.355129" lon="1.906504">
        <ele>1531.3</ele>
        <time>1970-01-01T00:44:47.000Z</time>
      </trkpt>
      <trkpt lat="42.355118" lon="1.906474">
        <ele>1531.6</ele>
        <time>1970-01-01T00:44:48.000Z</time>
      </trkpt>
      <trkpt lat="42.355106" lon="1.906448">
        <ele>1531.9</ele>
        <time>1970-01-01T00:44:49.000Z</time>
      </trkpt>
      <trkpt lat="42.355091" lon="1.906426">
        <ele>1532.2</ele>
        <time>1970-01-01T00:44:50.000Z</time>
      </trkpt>
      <trkpt lat="42.355076" lon="1.906399">
        <ele>1532.5</ele>
        <time>1970-01-01T00:44:51.000Z</time>
      </trkpt>
      <trkpt lat="42.355057" lon="1.906376">
        <ele>1532.9</ele>
        <time>1970-01-01T00:44:52.000Z</time>
      </trkpt>
      <trkpt lat="42.355034" lon="1.906353">
        <ele>1533.3</ele>
        <time>1970-01-01T00:44:53.000Z</time>
      </trkpt>
      <trkpt lat="42.355015" lon="1.906335">
        <ele>1533.6</ele>
        <time>1970-01-01T00:44:54.000Z</time>
      </trkpt>
      <trkpt lat="42.354996" lon="1.906315">
        <ele>1533.9</ele>
        <time>1970-01-01T00:44:55.000Z</time>
      </trkpt>
      <trkpt lat="42.354977" lon="1.90629">
        <ele>1534.3</ele>
        <time>1970-01-01T00:44:56.000Z</time>
      </trkpt>
      <trkpt lat="42.354961" lon="1.906263">
        <ele>1534.6</ele>
        <time>1970-01-01T00:44:57.000Z</time>
      </trkpt>
      <trkpt lat="42.35495" lon="1.906244">
        <ele>1534.9</ele>
        <time>1970-01-01T00:44:58.000Z</time>
      </trkpt>
      <trkpt lat="42.354938" lon="1.906226">
        <ele>1535.1</ele>
        <time>1970-01-01T00:44:59.000Z</time>
      </trkpt>
      <trkpt lat="42.354923" lon="1.906208">
        <ele>1535.4</ele>
        <time>1970-01-01T00:45:00.000Z</time>
      </trkpt>
      <trkpt lat="42.354912" lon="1.906188">
        <ele>1535.6</ele>
        <time>1970-01-01T00:45:01.000Z</time>
      </trkpt>
      <trkpt lat="42.354897" lon="1.906165">
        <ele>1535.9</ele>
        <time>1970-01-01T00:45:02.000Z</time>
      </trkpt>
      <trkpt lat="42.354885" lon="1.906143">
        <ele>1536.2</ele>
        <time>1970-01-01T00:45:03.000Z</time>
      </trkpt>
      <trkpt lat="42.354874" lon="1.906111">
        <ele>1536.5</ele>
        <time>1970-01-01T00:45:04.000Z</time>
      </trkpt>
      <trkpt lat="42.354866" lon="1.906084">
        <ele>1536.8</ele>
        <time>1970-01-01T00:45:05.000Z</time>
      </trkpt>
      <trkpt lat="42.354855" lon="1.906057">
        <ele>1537.1</ele>
        <time>1970-01-01T00:45:06.000Z</time>
      </trkpt>
      <trkpt lat="42.354843" lon="1.906031">
        <ele>1537.3</ele>
        <time>1970-01-01T00:45:07.000Z</time>
      </trkpt>
      <trkpt lat="42.354824" lon="1.906011">
        <ele>1537.6</ele>
        <time>1970-01-01T00:45:08.000Z</time>
      </trkpt>
      <trkpt lat="42.354809" lon="1.905992">
        <ele>1537.8</ele>
        <time>1970-01-01T00:45:09.000Z</time>
      </trkpt>
      <trkpt lat="42.35479" lon="1.905978">
        <ele>1538.1</ele>
        <time>1970-01-01T00:45:10.000Z</time>
      </trkpt>
      <trkpt lat="42.354778" lon="1.905961">
        <ele>1538.3</ele>
        <time>1970-01-01T00:45:11.000Z</time>
      </trkpt>
      <trkpt lat="42.354767" lon="1.905942">
        <ele>1538.5</ele>
        <time>1970-01-01T00:45:12.000Z</time>
      </trkpt>
      <trkpt lat="42.354748" lon="1.905924">
        <ele>1538.8</ele>
        <time>1970-01-01T00:45:13.000Z</time>
      </trkpt>
      <trkpt lat="42.354729" lon="1.905904">
        <ele>1539.1</ele>
        <time>1970-01-01T00:45:14.000Z</time>
      </trkpt>
      <trkpt lat="42.35471" lon="1.905892">
        <ele>1539.3</ele>
        <time>1970-01-01T00:45:15.000Z</time>
      </trkpt>
      <trkpt lat="42.354691" lon="1.905878">
        <ele>1539.6</ele>
        <time>1970-01-01T00:45:16.000Z</time>
      </trkpt>
      <trkpt lat="42.354675" lon="1.905864">
        <ele>1539.8</ele>
        <time>1970-01-01T00:45:17.000Z</time>
      </trkpt>
      <trkpt lat="42.354656" lon="1.905853">
        <ele>1540.1</ele>
        <time>1970-01-01T00:45:18.000Z</time>
      </trkpt>
      <trkpt lat="42.354641" lon="1.90584">
        <ele>1540.3</ele>
        <time>1970-01-01T00:45:19.000Z</time>
      </trkpt>
      <trkpt lat="42.354626" lon="1.905828">
        <ele>1540.5</ele>
        <time>1970-01-01T00:45:20.000Z</time>
      </trkpt>
      <trkpt lat="42.354603" lon="1.905824">
        <ele>1540.8</ele>
        <time>1970-01-01T00:45:21.000Z</time>
      </trkpt>
      <trkpt lat="42.35458" lon="1.905822">
        <ele>1541.1</ele>
        <time>1970-01-01T00:45:22.000Z</time>
      </trkpt>
      <trkpt lat="42.354561" lon="1.905819">
        <ele>1541.3</ele>
        <time>1970-01-01T00:45:23.000Z</time>
      </trkpt>
      <trkpt lat="42.354542" lon="1.905818">
        <ele>1541.5</ele>
        <time>1970-01-01T00:45:24.000Z</time>
      </trkpt>
      <trkpt lat="42.354511" lon="1.905821">
        <ele>1541.9</ele>
        <time>1970-01-01T00:45:25.000Z</time>
      </trkpt>
      <trkpt lat="42.354492" lon="1.905822">
        <ele>1542.1</ele>
        <time>1970-01-01T00:45:26.000Z</time>
      </trkpt>
      <trkpt lat="42.354465" lon="1.905806">
        <ele>1542.4</ele>
        <time>1970-01-01T00:45:27.000Z</time>
      </trkpt>
      <trkpt lat="42.354443" lon="1.905796">
        <ele>1542.6</ele>
        <time>1970-01-01T00:45:28.000Z</time>
      </trkpt>
      <trkpt lat="42.354424" lon="1.905791">
        <ele>1542.8</ele>
        <time>1970-01-01T00:45:29.000Z</time>
      </trkpt>
      <trkpt lat="42.354401" lon="1.905796">
        <ele>1543</ele>
        <time>1970-01-01T00:45:30.000Z</time>
      </trkpt>
      <trkpt lat="42.35437" lon="1.905792">
        <ele>1543.3</ele>
        <time>1970-01-01T00:45:31.000Z</time>
      </trkpt>
      <trkpt lat="42.354343" lon="1.905793">
        <ele>1543.6</ele>
        <time>1970-01-01T00:45:32.000Z</time>
      </trkpt>
      <trkpt lat="42.35432" lon="1.905801">
        <ele>1543.8</ele>
        <time>1970-01-01T00:45:33.000Z</time>
      </trkpt>
      <trkpt lat="42.354298" lon="1.905812">
        <ele>1544</ele>
        <time>1970-01-01T00:45:34.000Z</time>
      </trkpt>
      <trkpt lat="42.354282" lon="1.905833">
        <ele>1544</ele>
        <time>1970-01-01T00:45:35.000Z</time>
      </trkpt>
      <trkpt lat="42.354263" lon="1.905857">
        <ele>1544</ele>
        <time>1970-01-01T00:45:36.000Z</time>
      </trkpt>
      <trkpt lat="42.354248" lon="1.905885">
        <ele>1544</ele>
        <time>1970-01-01T00:45:37.000Z</time>
      </trkpt>
      <trkpt lat="42.354221" lon="1.905906">
        <ele>1544</ele>
        <time>1970-01-01T00:45:38.000Z</time>
      </trkpt>
      <trkpt lat="42.354202" lon="1.905933">
        <ele>1544</ele>
        <time>1970-01-01T00:45:39.000Z</time>
      </trkpt>
      <trkpt lat="42.354183" lon="1.905964">
        <ele>1544</ele>
        <time>1970-01-01T00:45:40.000Z</time>
      </trkpt>
      <trkpt lat="42.354172" lon="1.905996">
        <ele>1544</ele>
        <time>1970-01-01T00:45:41.000Z</time>
      </trkpt>
      <trkpt lat="42.35416" lon="1.906028">
        <ele>1544</ele>
        <time>1970-01-01T00:45:42.000Z</time>
      </trkpt>
      <trkpt lat="42.354156" lon="1.906061">
        <ele>1544</ele>
        <time>1970-01-01T00:45:43.000Z</time>
      </trkpt>
      <trkpt lat="42.354153" lon="1.906092">
        <ele>1544</ele>
        <time>1970-01-01T00:45:44.000Z</time>
      </trkpt>
      <trkpt lat="42.354149" lon="1.90612">
        <ele>1544.1</ele>
        <time>1970-01-01T00:45:45.000Z</time>
      </trkpt>
      <trkpt lat="42.354145" lon="1.906145">
        <ele>1544.1</ele>
        <time>1970-01-01T00:45:46.000Z</time>
      </trkpt>
      <trkpt lat="42.354141" lon="1.906167">
        <ele>1544.2</ele>
        <time>1970-01-01T00:45:47.000Z</time>
      </trkpt>
      <trkpt lat="42.354141" lon="1.906188">
        <ele>1544.2</ele>
        <time>1970-01-01T00:45:48.000Z</time>
      </trkpt>
      <trkpt lat="42.354141" lon="1.906202">
        <ele>1544.2</ele>
        <time>1970-01-01T00:45:49.000Z</time>
      </trkpt>
      <trkpt lat="42.354145" lon="1.906212">
        <ele>1544.3</ele>
        <time>1970-01-01T00:45:50.000Z</time>
      </trkpt>
      <trkpt lat="42.354145" lon="1.906237">
        <ele>1544.3</ele>
        <time>1970-01-01T00:45:51.000Z</time>
      </trkpt>
      <trkpt lat="42.354149" lon="1.906252">
        <ele>1544.4</ele>
        <time>1970-01-01T00:45:52.000Z</time>
      </trkpt>
      <trkpt lat="42.354156" lon="1.906267">
        <ele>1544.4</ele>
        <time>1970-01-01T00:45:53.000Z</time>
      </trkpt>
      <trkpt lat="42.35416" lon="1.906284">
        <ele>1544.5</ele>
        <time>1970-01-01T00:45:54.000Z</time>
      </trkpt>
      <trkpt lat="42.354164" lon="1.906307">
        <ele>1544.5</ele>
        <time>1970-01-01T00:45:55.000Z</time>
      </trkpt>
      <trkpt lat="42.35416" lon="1.906332">
        <ele>1544.6</ele>
        <time>1970-01-01T00:45:56.000Z</time>
      </trkpt>
      <trkpt lat="42.354172" lon="1.906341">
        <ele>1544.7</ele>
        <time>1970-01-01T00:45:57.000Z</time>
      </trkpt>
      <trkpt lat="42.354176" lon="1.906354">
        <ele>1544.8</ele>
        <time>1970-01-01T00:45:58.000Z</time>
      </trkpt>
      <trkpt lat="42.354183" lon="1.906372">
        <ele>1544.9</ele>
        <time>1970-01-01T00:45:59.000Z</time>
      </trkpt>
      <trkpt lat="42.354191" lon="1.906384">
        <ele>1545</ele>
        <time>1970-01-01T00:46:00.000Z</time>
      </trkpt>
      <trkpt lat="42.354202" lon="1.906397">
        <ele>1545.1</ele>
        <time>1970-01-01T00:46:01.000Z</time>
      </trkpt>
      <trkpt lat="42.35421" lon="1.906409">
        <ele>1545.1</ele>
        <time>1970-01-01T00:46:02.000Z</time>
      </trkpt>
      <trkpt lat="42.354214" lon="1.906424">
        <ele>1545.2</ele>
        <time>1970-01-01T00:46:03.000Z</time>
      </trkpt>
      <trkpt lat="42.354221" lon="1.906438">
        <ele>1545.3</ele>
        <time>1970-01-01T00:46:04.000Z</time>
      </trkpt>
      <trkpt lat="42.354225" lon="1.906453">
        <ele>1545.4</ele>
        <time>1970-01-01T00:46:05.000Z</time>
      </trkpt>
      <trkpt lat="42.354233" lon="1.906472">
        <ele>1545.5</ele>
        <time>1970-01-01T00:46:06.000Z</time>
      </trkpt>
      <trkpt lat="42.35424" lon="1.906482">
        <ele>1545.6</ele>
        <time>1970-01-01T00:46:07.000Z</time>
      </trkpt>
      <trkpt lat="42.354244" lon="1.906489">
        <ele>1545.7</ele>
        <time>1970-01-01T00:46:08.000Z</time>
      </trkpt>
      <trkpt lat="42.354252" lon="1.906494">
        <ele>1545.7</ele>
        <time>1970-01-01T00:46:09.000Z</time>
      </trkpt>
      <trkpt lat="42.354256" lon="1.906505">
        <ele>1545.8</ele>
        <time>1970-01-01T00:46:10.000Z</time>
      </trkpt>
      <trkpt lat="42.354252" lon="1.906525">
        <ele>1545.9</ele>
        <time>1970-01-01T00:46:11.000Z</time>
      </trkpt>
      <trkpt lat="42.354244" lon="1.906544">
        <ele>1546.1</ele>
        <time>1970-01-01T00:46:12.000Z</time>
      </trkpt>
      <trkpt lat="42.354237" lon="1.906583">
        <ele>1546.3</ele>
        <time>1970-01-01T00:46:13.000Z</time>
      </trkpt>
      <trkpt lat="42.354229" lon="1.906606">
        <ele>1546.5</ele>
        <time>1970-01-01T00:46:14.000Z</time>
      </trkpt>
      <trkpt lat="42.354229" lon="1.906633">
        <ele>1546.6</ele>
        <time>1970-01-01T00:46:15.000Z</time>
      </trkpt>
      <trkpt lat="42.354221" lon="1.906654">
        <ele>1546.8</ele>
        <time>1970-01-01T00:46:16.000Z</time>
      </trkpt>
      <trkpt lat="42.35421" lon="1.906664">
        <ele>1549.4</ele>
        <time>1970-01-01T00:46:17.000Z</time>
      </trkpt>
      <trkpt lat="42.354198" lon="1.906677">
        <ele>1549.6</ele>
        <time>1970-01-01T00:46:18.000Z</time>
      </trkpt>
      <trkpt lat="42.354187" lon="1.906695">
        <ele>1550</ele>
        <time>1970-01-01T00:46:19.000Z</time>
      </trkpt>
      <trkpt lat="42.354168" lon="1.906718">
        <ele>1550.4</ele>
        <time>1970-01-01T00:46:20.000Z</time>
      </trkpt>
      <trkpt lat="42.354149" lon="1.906739">
        <ele>1550.9</ele>
        <time>1970-01-01T00:46:21.000Z</time>
      </trkpt>
      <trkpt lat="42.354134" lon="1.906782">
        <ele>1551.5</ele>
        <time>1970-01-01T00:46:22.000Z</time>
      </trkpt>
      <trkpt lat="42.354122" lon="1.906823">
        <ele>1552</ele>
        <time>1970-01-01T00:46:23.000Z</time>
      </trkpt>
      <trkpt lat="42.354111" lon="1.906849">
        <ele>1552.4</ele>
        <time>1970-01-01T00:46:24.000Z</time>
      </trkpt>
      <trkpt lat="42.354095" lon="1.906867">
        <ele>1552.8</ele>
        <time>1970-01-01T00:46:25.000Z</time>
      </trkpt>
      <trkpt lat="42.354084" lon="1.906882">
        <ele>1553</ele>
        <time>1970-01-01T00:46:26.000Z</time>
      </trkpt>
      <trkpt lat="42.354069" lon="1.906894">
        <ele>1553.3</ele>
        <time>1970-01-01T00:46:27.000Z</time>
      </trkpt>
      <trkpt lat="42.35405" lon="1.906904">
        <ele>1553.7</ele>
        <time>1970-01-01T00:46:28.000Z</time>
      </trkpt>
      <trkpt lat="42.354038" lon="1.906912">
        <ele>1553.9</ele>
        <time>1970-01-01T00:46:29.000Z</time>
      </trkpt>
      <trkpt lat="42.354027" lon="1.906922">
        <ele>1554.1</ele>
        <time>1970-01-01T00:46:30.000Z</time>
      </trkpt>
      <trkpt lat="42.354012" lon="1.906932">
        <ele>1554.4</ele>
        <time>1970-01-01T00:46:31.000Z</time>
      </trkpt>
      <trkpt lat="42.354" lon="1.906938">
        <ele>1554.6</ele>
        <time>1970-01-01T00:46:32.000Z</time>
      </trkpt>
      <trkpt lat="42.353996" lon="1.906957">
        <ele>1554.9</ele>
        <time>1970-01-01T00:46:33.000Z</time>
      </trkpt>
      <trkpt lat="42.353989" lon="1.906978">
        <ele>1555.1</ele>
        <time>1970-01-01T00:46:34.000Z</time>
      </trkpt>
      <trkpt lat="42.353977" lon="1.90699">
        <ele>1555.4</ele>
        <time>1970-01-01T00:46:35.000Z</time>
      </trkpt>
      <trkpt lat="42.353966" lon="1.907005">
        <ele>1555.6</ele>
        <time>1970-01-01T00:46:36.000Z</time>
      </trkpt>
      <trkpt lat="42.353951" lon="1.907018">
        <ele>1555.9</ele>
        <time>1970-01-01T00:46:37.000Z</time>
      </trkpt>
      <trkpt lat="42.353939" lon="1.907043">
        <ele>1556.3</ele>
        <time>1970-01-01T00:46:38.000Z</time>
      </trkpt>
      <trkpt lat="42.353931" lon="1.907066">
        <ele>1556.6</ele>
        <time>1970-01-01T00:46:39.000Z</time>
      </trkpt>
      <trkpt lat="42.35392" lon="1.907089">
        <ele>1556.9</ele>
        <time>1970-01-01T00:46:40.000Z</time>
      </trkpt>
      <trkpt lat="42.353909" lon="1.907099">
        <ele>1557.1</ele>
        <time>1970-01-01T00:46:41.000Z</time>
      </trkpt>
      <trkpt lat="42.353893" lon="1.907117">
        <ele>1557.4</ele>
        <time>1970-01-01T00:46:42.000Z</time>
      </trkpt>
      <trkpt lat="42.353882" lon="1.90713">
        <ele>1557.7</ele>
        <time>1970-01-01T00:46:43.000Z</time>
      </trkpt>
      <trkpt lat="42.35387" lon="1.907143">
        <ele>1557.9</ele>
        <time>1970-01-01T00:46:44.000Z</time>
      </trkpt>
      <trkpt lat="42.353859" lon="1.90716">
        <ele>1558.2</ele>
        <time>1970-01-01T00:46:45.000Z</time>
      </trkpt>
      <trkpt lat="42.353848" lon="1.907182">
        <ele>1558.6</ele>
        <time>1970-01-01T00:46:46.000Z</time>
      </trkpt>
      <trkpt lat="42.353836" lon="1.907193">
        <ele>1558.8</ele>
        <time>1970-01-01T00:46:47.000Z</time>
      </trkpt>
      <trkpt lat="42.353821" lon="1.907212">
        <ele>1559.2</ele>
        <time>1970-01-01T00:46:48.000Z</time>
      </trkpt>
      <trkpt lat="42.353809" lon="1.907228">
        <ele>1559.5</ele>
        <time>1970-01-01T00:46:49.000Z</time>
      </trkpt>
      <trkpt lat="42.35379" lon="1.907246">
        <ele>1559.9</ele>
        <time>1970-01-01T00:46:50.000Z</time>
      </trkpt>
      <trkpt lat="42.353771" lon="1.907267">
        <ele>1560.3</ele>
        <time>1970-01-01T00:46:51.000Z</time>
      </trkpt>
      <trkpt lat="42.35376" lon="1.907285">
        <ele>1560.6</ele>
        <time>1970-01-01T00:46:52.000Z</time>
      </trkpt>
      <trkpt lat="42.353752" lon="1.907301">
        <ele>1560.9</ele>
        <time>1970-01-01T00:46:53.000Z</time>
      </trkpt>
      <trkpt lat="42.353741" lon="1.907316">
        <ele>1561.2</ele>
        <time>1970-01-01T00:46:54.000Z</time>
      </trkpt>
      <trkpt lat="42.353729" lon="1.907328">
        <ele>1561.4</ele>
        <time>1970-01-01T00:46:55.000Z</time>
      </trkpt>
      <trkpt lat="42.35371" lon="1.907337">
        <ele>1561.7</ele>
        <time>1970-01-01T00:46:56.000Z</time>
      </trkpt>
      <trkpt lat="42.353691" lon="1.90734">
        <ele>1562</ele>
        <time>1970-01-01T00:46:57.000Z</time>
      </trkpt>
      <trkpt lat="42.353676" lon="1.907349">
        <ele>1562.2</ele>
        <time>1970-01-01T00:46:58.000Z</time>
      </trkpt>
      <trkpt lat="42.353661" lon="1.907355">
        <ele>1562.5</ele>
        <time>1970-01-01T00:46:59.000Z</time>
      </trkpt>
      <trkpt lat="42.353649" lon="1.907377">
        <ele>1562.8</ele>
        <time>1970-01-01T00:47:00.000Z</time>
      </trkpt>
      <trkpt lat="42.353634" lon="1.907395">
        <ele>1563.1</ele>
        <time>1970-01-01T00:47:01.000Z</time>
      </trkpt>
      <trkpt lat="42.353619" lon="1.907405">
        <ele>1563.3</ele>
        <time>1970-01-01T00:47:02.000Z</time>
      </trkpt>
      <trkpt lat="42.353603" lon="1.907413">
        <ele>1563.5</ele>
        <time>1970-01-01T00:47:03.000Z</time>
      </trkpt>
      <trkpt lat="42.353588" lon="1.907429">
        <ele>1563.8</ele>
        <time>1970-01-01T00:47:04.000Z</time>
      </trkpt>
      <trkpt lat="42.353569" lon="1.907439">
        <ele>1564.1</ele>
        <time>1970-01-01T00:47:05.000Z</time>
      </trkpt>
      <trkpt lat="42.353558" lon="1.907447">
        <ele>1564.2</ele>
        <time>1970-01-01T00:47:06.000Z</time>
      </trkpt>
      <trkpt lat="42.353546" lon="1.907457">
        <ele>1564.4</ele>
        <time>1970-01-01T00:47:07.000Z</time>
      </trkpt>
      <trkpt lat="42.353531" lon="1.907469">
        <ele>1564.7</ele>
        <time>1970-01-01T00:47:08.000Z</time>
      </trkpt>
      <trkpt lat="42.353516" lon="1.907473">
        <ele>1564.9</ele>
        <time>1970-01-01T00:47:09.000Z</time>
      </trkpt>
      <trkpt lat="42.3535" lon="1.907475">
        <ele>1565.1</ele>
        <time>1970-01-01T00:47:10.000Z</time>
      </trkpt>
      <trkpt lat="42.353485" lon="1.907488">
        <ele>1565.4</ele>
        <time>1970-01-01T00:47:11.000Z</time>
      </trkpt>
      <trkpt lat="42.353466" lon="1.907491">
        <ele>1565.6</ele>
        <time>1970-01-01T00:47:12.000Z</time>
      </trkpt>
      <trkpt lat="42.353447" lon="1.907492">
        <ele>1565.9</ele>
        <time>1970-01-01T00:47:13.000Z</time>
      </trkpt>
      <trkpt lat="42.353436" lon="1.907492">
        <ele>1566.1</ele>
        <time>1970-01-01T00:47:14.000Z</time>
      </trkpt>
      <trkpt lat="42.353416" lon="1.907486">
        <ele>1566.4</ele>
        <time>1970-01-01T00:47:15.000Z</time>
      </trkpt>
      <trkpt lat="42.353401" lon="1.907489">
        <ele>1566.6</ele>
        <time>1970-01-01T00:47:16.000Z</time>
      </trkpt>
      <trkpt lat="42.353386" lon="1.907487">
        <ele>1566.8</ele>
        <time>1970-01-01T00:47:17.000Z</time>
      </trkpt>
      <trkpt lat="42.353378" lon="1.907485">
        <ele>1566.9</ele>
        <time>1970-01-01T00:47:18.000Z</time>
      </trkpt>
      <trkpt lat="42.353367" lon="1.907475">
        <ele>1567.1</ele>
        <time>1970-01-01T00:47:19.000Z</time>
      </trkpt>
      <trkpt lat="42.353352" lon="1.907468">
        <ele>1567.3</ele>
        <time>1970-01-01T00:47:20.000Z</time>
      </trkpt>
      <trkpt lat="42.35334" lon="1.907459">
        <ele>1567.5</ele>
        <time>1970-01-01T00:47:21.000Z</time>
      </trkpt>
      <trkpt lat="42.353329" lon="1.907452">
        <ele>1567.6</ele>
        <time>1970-01-01T00:47:22.000Z</time>
      </trkpt>
      <trkpt lat="42.353321" lon="1.907447">
        <ele>1567.7</ele>
        <time>1970-01-01T00:47:23.000Z</time>
      </trkpt>
      <trkpt lat="42.353313" lon="1.907431">
        <ele>1567.9</ele>
        <time>1970-01-01T00:47:24.000Z</time>
      </trkpt>
      <trkpt lat="42.353302" lon="1.907409">
        <ele>1568.1</ele>
        <time>1970-01-01T00:47:25.000Z</time>
      </trkpt>
      <trkpt lat="42.353283" lon="1.907391">
        <ele>1568.4</ele>
        <time>1970-01-01T00:47:26.000Z</time>
      </trkpt>
      <trkpt lat="42.353271" lon="1.907371">
        <ele>1568.7</ele>
        <time>1970-01-01T00:47:27.000Z</time>
      </trkpt>
      <trkpt lat="42.353264" lon="1.907351">
        <ele>1568.9</ele>
        <time>1970-01-01T00:47:28.000Z</time>
      </trkpt>
      <trkpt lat="42.353256" lon="1.907332">
        <ele>1569.1</ele>
        <time>1970-01-01T00:47:29.000Z</time>
      </trkpt>
      <trkpt lat="42.353245" lon="1.907321">
        <ele>1569.2</ele>
        <time>1970-01-01T00:47:30.000Z</time>
      </trkpt>
      <trkpt lat="42.353237" lon="1.907307">
        <ele>1569.4</ele>
        <time>1970-01-01T00:47:31.000Z</time>
      </trkpt>
      <trkpt lat="42.35323" lon="1.907294">
        <ele>1569.5</ele>
        <time>1970-01-01T00:47:32.000Z</time>
      </trkpt>
      <trkpt lat="42.353218" lon="1.907276">
        <ele>1569.8</ele>
        <time>1970-01-01T00:47:33.000Z</time>
      </trkpt>
      <trkpt lat="42.353214" lon="1.90725">
        <ele>1570</ele>
        <time>1970-01-01T00:47:34.000Z</time>
      </trkpt>
      <trkpt lat="42.353207" lon="1.907226">
        <ele>1570.3</ele>
        <time>1970-01-01T00:47:35.000Z</time>
      </trkpt>
      <trkpt lat="42.353199" lon="1.9072">
        <ele>1570.5</ele>
        <time>1970-01-01T00:47:36.000Z</time>
      </trkpt>
      <trkpt lat="42.353184" lon="1.907175">
        <ele>1570.8</ele>
        <time>1970-01-01T00:47:37.000Z</time>
      </trkpt>
      <trkpt lat="42.353168" lon="1.907159">
        <ele>1571.1</ele>
        <time>1970-01-01T00:47:38.000Z</time>
      </trkpt>
      <trkpt lat="42.353157" lon="1.907143">
        <ele>1571.3</ele>
        <time>1970-01-01T00:47:39.000Z</time>
      </trkpt>
      <trkpt lat="42.353146" lon="1.90713">
        <ele>1571.5</ele>
        <time>1970-01-01T00:47:40.000Z</time>
      </trkpt>
      <trkpt lat="42.353134" lon="1.90712">
        <ele>1571.7</ele>
        <time>1970-01-01T00:47:41.000Z</time>
      </trkpt>
      <trkpt lat="42.353119" lon="1.907111">
        <ele>1571.9</ele>
        <time>1970-01-01T00:47:42.000Z</time>
      </trkpt>
      <trkpt lat="42.353104" lon="1.907106">
        <ele>1572.1</ele>
        <time>1970-01-01T00:47:43.000Z</time>
      </trkpt>
      <trkpt lat="42.353092" lon="1.907099">
        <ele>1572.3</ele>
        <time>1970-01-01T00:47:44.000Z</time>
      </trkpt>
      <trkpt lat="42.353085" lon="1.90709">
        <ele>1572.4</ele>
        <time>1970-01-01T00:47:45.000Z</time>
      </trkpt>
      <trkpt lat="42.353073" lon="1.907077">
        <ele>1572.6</ele>
        <time>1970-01-01T00:47:46.000Z</time>
      </trkpt>
      <trkpt lat="42.353058" lon="1.907059">
        <ele>1572.9</ele>
        <time>1970-01-01T00:47:47.000Z</time>
      </trkpt>
      <trkpt lat="42.353046" lon="1.907043">
        <ele>1573.1</ele>
        <time>1970-01-01T00:47:48.000Z</time>
      </trkpt>
      <trkpt lat="42.353035" lon="1.907026">
        <ele>1573.3</ele>
        <time>1970-01-01T00:47:49.000Z</time>
      </trkpt>
      <trkpt lat="42.353024" lon="1.907006">
        <ele>1573.6</ele>
        <time>1970-01-01T00:47:50.000Z</time>
      </trkpt>
      <trkpt lat="42.353008" lon="1.906989">
        <ele>1573.8</ele>
        <time>1970-01-01T00:47:51.000Z</time>
      </trkpt>
      <trkpt lat="42.353001" lon="1.906972">
        <ele>1574</ele>
        <time>1970-01-01T00:47:52.000Z</time>
      </trkpt>
      <trkpt lat="42.352985" lon="1.906955">
        <ele>1574.3</ele>
        <time>1970-01-01T00:47:53.000Z</time>
      </trkpt>
      <trkpt lat="42.352974" lon="1.906943">
        <ele>1574.5</ele>
        <time>1970-01-01T00:47:54.000Z</time>
      </trkpt>
      <trkpt lat="42.352959" lon="1.906935">
        <ele>1574.7</ele>
        <time>1970-01-01T00:47:55.000Z</time>
      </trkpt>
      <trkpt lat="42.352951" lon="1.906926">
        <ele>1574.8</ele>
        <time>1970-01-01T00:47:56.000Z</time>
      </trkpt>
      <trkpt lat="42.35294" lon="1.906918">
        <ele>1575</ele>
        <time>1970-01-01T00:47:57.000Z</time>
      </trkpt>
      <trkpt lat="42.352928" lon="1.906917">
        <ele>1575.1</ele>
        <time>1970-01-01T00:47:58.000Z</time>
      </trkpt>
      <trkpt lat="42.352928" lon="1.906917">
        <ele>1575.1</ele>
        <time>1970-01-01T00:47:59.000Z</time>
      </trkpt>
      <trkpt lat="42.352928" lon="1.906917">
        <ele>1575.1</ele>
        <time>1970-01-01T00:48:00.000Z</time>
      </trkpt>
      <trkpt lat="42.352898" lon="1.906891">
        <ele>1575.6</ele>
        <time>1970-01-01T00:48:01.000Z</time>
      </trkpt>
      <trkpt lat="42.352882" lon="1.906878">
        <ele>1575.8</ele>
        <time>1970-01-01T00:48:02.000Z</time>
      </trkpt>
      <trkpt lat="42.352879" lon="1.906864">
        <ele>1576</ele>
        <time>1970-01-01T00:48:03.000Z</time>
      </trkpt>
      <trkpt lat="42.352871" lon="1.906852">
        <ele>1576.1</ele>
        <time>1970-01-01T00:48:04.000Z</time>
      </trkpt>
      <trkpt lat="42.352856" lon="1.906841">
        <ele>1576.4</ele>
        <time>1970-01-01T00:48:05.000Z</time>
      </trkpt>
      <trkpt lat="42.352856" lon="1.90684">
        <ele>1576.4</ele>
        <time>1970-01-01T00:48:06.000Z</time>
      </trkpt>
      <trkpt lat="42.352829" lon="1.906815">
        <ele>1576.9</ele>
        <time>1970-01-01T00:48:07.000Z</time>
      </trkpt>
      <trkpt lat="42.352814" lon="1.906799">
        <ele>1577.2</ele>
        <time>1970-01-01T00:48:08.000Z</time>
      </trkpt>
      <trkpt lat="42.352779" lon="1.906751">
        <ele>1577.9</ele>
        <time>1970-01-01T00:48:09.000Z</time>
      </trkpt>
      <trkpt lat="42.352749" lon="1.906699">
        <ele>1578.7</ele>
        <time>1970-01-01T00:48:10.000Z</time>
      </trkpt>
      <trkpt lat="42.352715" lon="1.906647">
        <ele>1579.5</ele>
        <time>1970-01-01T00:48:11.000Z</time>
      </trkpt>
      <trkpt lat="42.35268" lon="1.906598">
        <ele>1580.2</ele>
        <time>1970-01-01T00:48:12.000Z</time>
      </trkpt>
      <trkpt lat="42.352657" lon="1.906561">
        <ele>1580.7</ele>
        <time>1970-01-01T00:48:13.000Z</time>
      </trkpt>
      <trkpt lat="42.352657" lon="1.906532">
        <ele>1581.1</ele>
        <time>1970-01-01T00:48:14.000Z</time>
      </trkpt>
      <trkpt lat="42.352554" lon="1.90662">
        <ele>1582.9</ele>
        <time>1970-01-01T00:48:15.000Z</time>
      </trkpt>
      <trkpt lat="42.352451" lon="1.906708">
        <ele>1584.6</ele>
        <time>1970-01-01T00:48:16.000Z</time>
      </trkpt>
      <trkpt lat="42.352497" lon="1.906675">
        <ele>1585.3</ele>
        <time>1970-01-01T00:48:17.000Z</time>
      </trkpt>
      <trkpt lat="42.35255" lon="1.906635">
        <ele>1586.2</ele>
        <time>1970-01-01T00:48:18.000Z</time>
      </trkpt>
      <trkpt lat="42.352547" lon="1.906619">
        <ele>1586.4</ele>
        <time>1970-01-01T00:48:19.000Z</time>
      </trkpt>
      <trkpt lat="42.352509" lon="1.90663">
        <ele>1586.9</ele>
        <time>1970-01-01T00:48:20.000Z</time>
      </trkpt>
      <trkpt lat="42.352505" lon="1.906598">
        <ele>1587.3</ele>
        <time>1970-01-01T00:48:21.000Z</time>
      </trkpt>
      <trkpt lat="42.352509" lon="1.906574">
        <ele>1587.5</ele>
        <time>1970-01-01T00:48:22.000Z</time>
      </trkpt>
      <trkpt lat="42.352497" lon="1.906554">
        <ele>1587.8</ele>
        <time>1970-01-01T00:48:23.000Z</time>
      </trkpt>
      <trkpt lat="42.352486" lon="1.906537">
        <ele>1588.1</ele>
        <time>1970-01-01T00:48:24.000Z</time>
      </trkpt>
      <trkpt lat="42.352482" lon="1.906523">
        <ele>1588.2</ele>
        <time>1970-01-01T00:48:25.000Z</time>
      </trkpt>
      <trkpt lat="42.35247" lon="1.90651">
        <ele>1588.4</ele>
        <time>1970-01-01T00:48:26.000Z</time>
      </trkpt>
      <trkpt lat="42.352451" lon="1.906508">
        <ele>1588.7</ele>
        <time>1970-01-01T00:48:27.000Z</time>
      </trkpt>
      <trkpt lat="42.35244" lon="1.906505">
        <ele>1588.9</ele>
        <time>1970-01-01T00:48:28.000Z</time>
      </trkpt>
      <trkpt lat="42.352425" lon="1.906499">
        <ele>1589.1</ele>
        <time>1970-01-01T00:48:29.000Z</time>
      </trkpt>
      <trkpt lat="42.352383" lon="1.906526">
        <ele>1589.8</ele>
        <time>1970-01-01T00:48:30.000Z</time>
      </trkpt>
      <trkpt lat="42.352364" lon="1.906525">
        <ele>1590.1</ele>
        <time>1970-01-01T00:48:31.000Z</time>
      </trkpt>
      <trkpt lat="42.352341" lon="1.906519">
        <ele>1590.5</ele>
        <time>1970-01-01T00:48:32.000Z</time>
      </trkpt>
      <trkpt lat="42.352322" lon="1.90651">
        <ele>1590.8</ele>
        <time>1970-01-01T00:48:33.000Z</time>
      </trkpt>
      <trkpt lat="42.352303" lon="1.906498">
        <ele>1591.1</ele>
        <time>1970-01-01T00:48:34.000Z</time>
      </trkpt>
      <trkpt lat="42.352287" lon="1.906485">
        <ele>1591.4</ele>
        <time>1970-01-01T00:48:35.000Z</time>
      </trkpt>
      <trkpt lat="42.352264" lon="1.906482">
        <ele>1591.8</ele>
        <time>1970-01-01T00:48:36.000Z</time>
      </trkpt>
      <trkpt lat="42.352238" lon="1.906492">
        <ele>1592.2</ele>
        <time>1970-01-01T00:48:37.000Z</time>
      </trkpt>
      <trkpt lat="42.352219" lon="1.906496">
        <ele>1592.5</ele>
        <time>1970-01-01T00:48:38.000Z</time>
      </trkpt>
      <trkpt lat="42.352192" lon="1.906504">
        <ele>1592.9</ele>
        <time>1970-01-01T00:48:39.000Z</time>
      </trkpt>
      <trkpt lat="42.352177" lon="1.906505">
        <ele>1593.1</ele>
        <time>1970-01-01T00:48:40.000Z</time>
      </trkpt>
      <trkpt lat="42.352165" lon="1.906508">
        <ele>1593.3</ele>
        <time>1970-01-01T00:48:41.000Z</time>
      </trkpt>
      <trkpt lat="42.352154" lon="1.906498">
        <ele>1593.5</ele>
        <time>1970-01-01T00:48:42.000Z</time>
      </trkpt>
      <trkpt lat="42.352135" lon="1.906499">
        <ele>1593.8</ele>
        <time>1970-01-01T00:48:43.000Z</time>
      </trkpt>
      <trkpt lat="42.352116" lon="1.9065">
        <ele>1594</ele>
        <time>1970-01-01T00:48:44.000Z</time>
      </trkpt>
      <trkpt lat="42.352085" lon="1.906521">
        <ele>1594.5</ele>
        <time>1970-01-01T00:48:45.000Z</time>
      </trkpt>
      <trkpt lat="42.352066" lon="1.906526">
        <ele>1594.8</ele>
        <time>1970-01-01T00:48:46.000Z</time>
      </trkpt>
      <trkpt lat="42.352055" lon="1.90653">
        <ele>1594.9</ele>
        <time>1970-01-01T00:48:47.000Z</time>
      </trkpt>
      <trkpt lat="42.352036" lon="1.906549">
        <ele>1595.3</ele>
        <time>1970-01-01T00:48:48.000Z</time>
      </trkpt>
      <trkpt lat="42.352009" lon="1.906568">
        <ele>1595.7</ele>
        <time>1970-01-01T00:48:49.000Z</time>
      </trkpt>
      <trkpt lat="42.351997" lon="1.906567">
        <ele>1595.9</ele>
        <time>1970-01-01T00:48:50.000Z</time>
      </trkpt>
      <trkpt lat="42.351978" lon="1.906565">
        <ele>1596.2</ele>
        <time>1970-01-01T00:48:51.000Z</time>
      </trkpt>
      <trkpt lat="42.351963" lon="1.906561">
        <ele>1596.4</ele>
        <time>1970-01-01T00:48:52.000Z</time>
      </trkpt>
      <trkpt lat="42.351944" lon="1.90656">
        <ele>1596.7</ele>
        <time>1970-01-01T00:48:53.000Z</time>
      </trkpt>
      <trkpt lat="42.351925" lon="1.906564">
        <ele>1596.9</ele>
        <time>1970-01-01T00:48:54.000Z</time>
      </trkpt>
      <trkpt lat="42.351906" lon="1.906574">
        <ele>1597.2</ele>
        <time>1970-01-01T00:48:55.000Z</time>
      </trkpt>
      <trkpt lat="42.351891" lon="1.906582">
        <ele>1597.5</ele>
        <time>1970-01-01T00:48:56.000Z</time>
      </trkpt>
      <trkpt lat="42.351875" lon="1.906579">
        <ele>1597.7</ele>
        <time>1970-01-01T00:48:57.000Z</time>
      </trkpt>
      <trkpt lat="42.351856" lon="1.906581">
        <ele>1598</ele>
        <time>1970-01-01T00:48:58.000Z</time>
      </trkpt>
      <trkpt lat="42.351837" lon="1.906592">
        <ele>1598.3</ele>
        <time>1970-01-01T00:48:59.000Z</time>
      </trkpt>
      <trkpt lat="42.351822" lon="1.906592">
        <ele>1598.5</ele>
        <time>1970-01-01T00:49:00.000Z</time>
      </trkpt>
      <trkpt lat="42.35181" lon="1.906593">
        <ele>1598.7</ele>
        <time>1970-01-01T00:49:01.000Z</time>
      </trkpt>
      <trkpt lat="42.351784" lon="1.906607">
        <ele>1599.1</ele>
        <time>1970-01-01T00:49:02.000Z</time>
      </trkpt>
      <trkpt lat="42.351768" lon="1.906603">
        <ele>1599.4</ele>
        <time>1970-01-01T00:49:03.000Z</time>
      </trkpt>
      <trkpt lat="42.351757" lon="1.906594">
        <ele>1599.5</ele>
        <time>1970-01-01T00:49:04.000Z</time>
      </trkpt>
      <trkpt lat="42.351746" lon="1.906579">
        <ele>1599.8</ele>
        <time>1970-01-01T00:49:05.000Z</time>
      </trkpt>
      <trkpt lat="42.351742" lon="1.906565">
        <ele>1599.9</ele>
        <time>1970-01-01T00:49:06.000Z</time>
      </trkpt>
      <trkpt lat="42.351734" lon="1.906548">
        <ele>1600.2</ele>
        <time>1970-01-01T00:49:07.000Z</time>
      </trkpt>
      <trkpt lat="42.351727" lon="1.906544">
        <ele>1600.3</ele>
        <time>1970-01-01T00:49:08.000Z</time>
      </trkpt>
      <trkpt lat="42.351719" lon="1.906543">
        <ele>1600.4</ele>
        <time>1970-01-01T00:49:09.000Z</time>
      </trkpt>
      <trkpt lat="42.351707" lon="1.906536">
        <ele>1600.6</ele>
        <time>1970-01-01T00:49:10.000Z</time>
      </trkpt>
      <trkpt lat="42.351696" lon="1.906522">
        <ele>1600.8</ele>
        <time>1970-01-01T00:49:11.000Z</time>
      </trkpt>
      <trkpt lat="42.351685" lon="1.906517">
        <ele>1601</ele>
        <time>1970-01-01T00:49:12.000Z</time>
      </trkpt>
      <trkpt lat="42.351669" lon="1.906512">
        <ele>1601.2</ele>
        <time>1970-01-01T00:49:13.000Z</time>
      </trkpt>
      <trkpt lat="42.351658" lon="1.906505">
        <ele>1601.4</ele>
        <time>1970-01-01T00:49:14.000Z</time>
      </trkpt>
      <trkpt lat="42.351643" lon="1.906492">
        <ele>1601.7</ele>
        <time>1970-01-01T00:49:15.000Z</time>
      </trkpt>
      <trkpt lat="42.351616" lon="1.90649">
        <ele>1602</ele>
        <time>1970-01-01T00:49:16.000Z</time>
      </trkpt>
      <trkpt lat="42.351597" lon="1.906481">
        <ele>1602.3</ele>
        <time>1970-01-01T00:49:17.000Z</time>
      </trkpt>
      <trkpt lat="42.351582" lon="1.906466">
        <ele>1602.6</ele>
        <time>1970-01-01T00:49:18.000Z</time>
      </trkpt>
      <trkpt lat="42.351566" lon="1.906461">
        <ele>1602.8</ele>
        <time>1970-01-01T00:49:19.000Z</time>
      </trkpt>
      <trkpt lat="42.351547" lon="1.906457">
        <ele>1603.1</ele>
        <time>1970-01-01T00:49:20.000Z</time>
      </trkpt>
      <trkpt lat="42.351532" lon="1.906447">
        <ele>1603.3</ele>
        <time>1970-01-01T00:49:21.000Z</time>
      </trkpt>
      <trkpt lat="42.351517" lon="1.906438">
        <ele>1603.6</ele>
        <time>1970-01-01T00:49:22.000Z</time>
      </trkpt>
      <trkpt lat="42.351505" lon="1.90643">
        <ele>1603.7</ele>
        <time>1970-01-01T00:49:23.000Z</time>
      </trkpt>
      <trkpt lat="42.351494" lon="1.906415">
        <ele>1604</ele>
        <time>1970-01-01T00:49:24.000Z</time>
      </trkpt>
      <trkpt lat="42.351479" lon="1.906405">
        <ele>1604.2</ele>
        <time>1970-01-01T00:49:25.000Z</time>
      </trkpt>
      <trkpt lat="42.351459" lon="1.906396">
        <ele>1604.6</ele>
        <time>1970-01-01T00:49:26.000Z</time>
      </trkpt>
      <trkpt lat="42.35144" lon="1.906388">
        <ele>1604.9</ele>
        <time>1970-01-01T00:49:27.000Z</time>
      </trkpt>
      <trkpt lat="42.351421" lon="1.906381">
        <ele>1605.2</ele>
        <time>1970-01-01T00:49:28.000Z</time>
      </trkpt>
      <trkpt lat="42.351402" lon="1.906373">
        <ele>1605.5</ele>
        <time>1970-01-01T00:49:29.000Z</time>
      </trkpt>
      <trkpt lat="42.351387" lon="1.906367">
        <ele>1605.7</ele>
        <time>1970-01-01T00:49:30.000Z</time>
      </trkpt>
      <trkpt lat="42.351376" lon="1.906356">
        <ele>1606</ele>
        <time>1970-01-01T00:49:31.000Z</time>
      </trkpt>
      <trkpt lat="42.351364" lon="1.906339">
        <ele>1606.2</ele>
        <time>1970-01-01T00:49:32.000Z</time>
      </trkpt>
      <trkpt lat="42.351356" lon="1.906327">
        <ele>1606.4</ele>
        <time>1970-01-01T00:49:33.000Z</time>
      </trkpt>
      <trkpt lat="42.351341" lon="1.90632">
        <ele>1606.7</ele>
        <time>1970-01-01T00:49:34.000Z</time>
      </trkpt>
      <trkpt lat="42.351326" lon="1.906304">
        <ele>1607</ele>
        <time>1970-01-01T00:49:35.000Z</time>
      </trkpt>
      <trkpt lat="42.351311" lon="1.906292">
        <ele>1607.3</ele>
        <time>1970-01-01T00:49:36.000Z</time>
      </trkpt>
      <trkpt lat="42.351295" lon="1.906283">
        <ele>1607.6</ele>
        <time>1970-01-01T00:49:37.000Z</time>
      </trkpt>
      <trkpt lat="42.35128" lon="1.906271">
        <ele>1607.9</ele>
        <time>1970-01-01T00:49:38.000Z</time>
      </trkpt>
      <trkpt lat="42.351269" lon="1.906258">
        <ele>1608.1</ele>
        <time>1970-01-01T00:49:39.000Z</time>
      </trkpt>
      <trkpt lat="42.351257" lon="1.906247">
        <ele>1608.4</ele>
        <time>1970-01-01T00:49:40.000Z</time>
      </trkpt>
      <trkpt lat="42.351242" lon="1.906234">
        <ele>1608.7</ele>
        <time>1970-01-01T00:49:41.000Z</time>
      </trkpt>
      <trkpt lat="42.351231" lon="1.906222">
        <ele>1608.9</ele>
        <time>1970-01-01T00:49:42.000Z</time>
      </trkpt>
      <trkpt lat="42.351215" lon="1.906215">
        <ele>1609.2</ele>
        <time>1970-01-01T00:49:43.000Z</time>
      </trkpt>
      <trkpt lat="42.351204" lon="1.906207">
        <ele>1609.4</ele>
        <time>1970-01-01T00:49:44.000Z</time>
      </trkpt>
      <trkpt lat="42.351196" lon="1.906197">
        <ele>1609.6</ele>
        <time>1970-01-01T00:49:45.000Z</time>
      </trkpt>
      <trkpt lat="42.351185" lon="1.906188">
        <ele>1609.8</ele>
        <time>1970-01-01T00:49:46.000Z</time>
      </trkpt>
      <trkpt lat="42.351173" lon="1.906177">
        <ele>1610.1</ele>
        <time>1970-01-01T00:49:47.000Z</time>
      </trkpt>
      <trkpt lat="42.351162" lon="1.906168">
        <ele>1610.3</ele>
        <time>1970-01-01T00:49:48.000Z</time>
      </trkpt>
      <trkpt lat="42.351154" lon="1.906163">
        <ele>1610.5</ele>
        <time>1970-01-01T00:49:49.000Z</time>
      </trkpt>
      <trkpt lat="42.351139" lon="1.906159">
        <ele>1610.8</ele>
        <time>1970-01-01T00:49:50.000Z</time>
      </trkpt>
      <trkpt lat="42.351128" lon="1.906153">
        <ele>1611</ele>
        <time>1970-01-01T00:49:51.000Z</time>
      </trkpt>
      <trkpt lat="42.351112" lon="1.906147">
        <ele>1611.3</ele>
        <time>1970-01-01T00:49:52.000Z</time>
      </trkpt>
      <trkpt lat="42.351105" lon="1.906144">
        <ele>1611.5</ele>
        <time>1970-01-01T00:49:53.000Z</time>
      </trkpt>
      <trkpt lat="42.351093" lon="1.906147">
        <ele>1611.7</ele>
        <time>1970-01-01T00:49:54.000Z</time>
      </trkpt>
      <trkpt lat="42.351082" lon="1.906146">
        <ele>1611.9</ele>
        <time>1970-01-01T00:49:55.000Z</time>
      </trkpt>
      <trkpt lat="42.35107" lon="1.906139">
        <ele>1612.2</ele>
        <time>1970-01-01T00:49:56.000Z</time>
      </trkpt>
      <trkpt lat="42.351059" lon="1.90613">
        <ele>1612.4</ele>
        <time>1970-01-01T00:49:57.000Z</time>
      </trkpt>
      <trkpt lat="42.351048" lon="1.906125">
        <ele>1612.6</ele>
        <time>1970-01-01T00:49:58.000Z</time>
      </trkpt>
      <trkpt lat="42.351036" lon="1.906122">
        <ele>1612.9</ele>
        <time>1970-01-01T00:49:59.000Z</time>
      </trkpt>
      <trkpt lat="42.351025" lon="1.906126">
        <ele>1613.1</ele>
        <time>1970-01-01T00:50:00.000Z</time>
      </trkpt>
      <trkpt lat="42.351009" lon="1.906127">
        <ele>1613.4</ele>
        <time>1970-01-01T00:50:01.000Z</time>
      </trkpt>
      <trkpt lat="42.350994" lon="1.906124">
        <ele>1613.6</ele>
        <time>1970-01-01T00:50:02.000Z</time>
      </trkpt>
      <trkpt lat="42.350987" lon="1.906119">
        <ele>1613.7</ele>
        <time>1970-01-01T00:50:03.000Z</time>
      </trkpt>
      <trkpt lat="42.350975" lon="1.906116">
        <ele>1614</ele>
        <time>1970-01-01T00:50:04.000Z</time>
      </trkpt>
      <trkpt lat="42.350964" lon="1.906111">
        <ele>1614.1</ele>
        <time>1970-01-01T00:50:05.000Z</time>
      </trkpt>
      <trkpt lat="42.350948" lon="1.906106">
        <ele>1614.4</ele>
        <time>1970-01-01T00:50:06.000Z</time>
      </trkpt>
      <trkpt lat="42.350933" lon="1.906103">
        <ele>1614.7</ele>
        <time>1970-01-01T00:50:07.000Z</time>
      </trkpt>
      <trkpt lat="42.350918" lon="1.9061">
        <ele>1614.9</ele>
        <time>1970-01-01T00:50:08.000Z</time>
      </trkpt>
      <trkpt lat="42.350903" lon="1.906096">
        <ele>1615.2</ele>
        <time>1970-01-01T00:50:09.000Z</time>
      </trkpt>
      <trkpt lat="42.350883" lon="1.906091">
        <ele>1615.6</ele>
        <time>1970-01-01T00:50:10.000Z</time>
      </trkpt>
      <trkpt lat="42.350864" lon="1.906089">
        <ele>1616</ele>
        <time>1970-01-01T00:50:11.000Z</time>
      </trkpt>
      <trkpt lat="42.350849" lon="1.906086">
        <ele>1616.3</ele>
        <time>1970-01-01T00:50:12.000Z</time>
      </trkpt>
      <trkpt lat="42.350834" lon="1.906084">
        <ele>1616.7</ele>
        <time>1970-01-01T00:50:13.000Z</time>
      </trkpt>
      <trkpt lat="42.350815" lon="1.906091">
        <ele>1617.1</ele>
        <time>1970-01-01T00:50:14.000Z</time>
      </trkpt>
      <trkpt lat="42.350796" lon="1.906099">
        <ele>1617.5</ele>
        <time>1970-01-01T00:50:15.000Z</time>
      </trkpt>
      <trkpt lat="42.350777" lon="1.9061">
        <ele>1617.8</ele>
        <time>1970-01-01T00:50:16.000Z</time>
      </trkpt>
      <trkpt lat="42.350754" lon="1.906106">
        <ele>1618.3</ele>
        <time>1970-01-01T00:50:17.000Z</time>
      </trkpt>
      <trkpt lat="42.350735" lon="1.90611">
        <ele>1618.6</ele>
        <time>1970-01-01T00:50:18.000Z</time>
      </trkpt>
      <trkpt lat="42.350716" lon="1.906109">
        <ele>1619</ele>
        <time>1970-01-01T00:50:19.000Z</time>
      </trkpt>
      <trkpt lat="42.350697" lon="1.906107">
        <ele>1619.4</ele>
        <time>1970-01-01T00:50:20.000Z</time>
      </trkpt>
      <trkpt lat="42.350685" lon="1.906104">
        <ele>1619.6</ele>
        <time>1970-01-01T00:50:21.000Z</time>
      </trkpt>
      <trkpt lat="42.350662" lon="1.9061">
        <ele>1620.1</ele>
        <time>1970-01-01T00:50:22.000Z</time>
      </trkpt>
      <trkpt lat="42.350643" lon="1.906096">
        <ele>1620.4</ele>
        <time>1970-01-01T00:50:23.000Z</time>
      </trkpt>
      <trkpt lat="42.35062" lon="1.906093">
        <ele>1620.9</ele>
        <time>1970-01-01T00:50:24.000Z</time>
      </trkpt>
      <trkpt lat="42.350601" lon="1.90609">
        <ele>1621.2</ele>
        <time>1970-01-01T00:50:25.000Z</time>
      </trkpt>
      <trkpt lat="42.350578" lon="1.906089">
        <ele>1621.6</ele>
        <time>1970-01-01T00:50:26.000Z</time>
      </trkpt>
      <trkpt lat="42.350548" lon="1.90609">
        <ele>1622.2</ele>
        <time>1970-01-01T00:50:27.000Z</time>
      </trkpt>
      <trkpt lat="42.350521" lon="1.906091">
        <ele>1622.7</ele>
        <time>1970-01-01T00:50:28.000Z</time>
      </trkpt>
      <trkpt lat="42.350494" lon="1.906093">
        <ele>1623.2</ele>
        <time>1970-01-01T00:50:29.000Z</time>
      </trkpt>
      <trkpt lat="42.350464" lon="1.906093">
        <ele>1623.7</ele>
        <time>1970-01-01T00:50:30.000Z</time>
      </trkpt>
      <trkpt lat="42.350437" lon="1.906095">
        <ele>1624.2</ele>
        <time>1970-01-01T00:50:31.000Z</time>
      </trkpt>
      <trkpt lat="42.350418" lon="1.906094">
        <ele>1624.5</ele>
        <time>1970-01-01T00:50:32.000Z</time>
      </trkpt>
      <trkpt lat="42.350399" lon="1.906092">
        <ele>1624.7</ele>
        <time>1970-01-01T00:50:33.000Z</time>
      </trkpt>
      <trkpt lat="42.35038" lon="1.906087">
        <ele>1625</ele>
        <time>1970-01-01T00:50:34.000Z</time>
      </trkpt>
      <trkpt lat="42.350357" lon="1.906093">
        <ele>1625.3</ele>
        <time>1970-01-01T00:50:35.000Z</time>
      </trkpt>
      <trkpt lat="42.35033" lon="1.906102">
        <ele>1625.6</ele>
        <time>1970-01-01T00:50:36.000Z</time>
      </trkpt>
      <trkpt lat="42.350304" lon="1.906114">
        <ele>1625.8</ele>
        <time>1970-01-01T00:50:37.000Z</time>
      </trkpt>
      <trkpt lat="42.350277" lon="1.906124">
        <ele>1625.8</ele>
        <time>1970-01-01T00:50:38.000Z</time>
      </trkpt>
      <trkpt lat="42.350254" lon="1.906145">
        <ele>1625.8</ele>
        <time>1970-01-01T00:50:39.000Z</time>
      </trkpt>
      <trkpt lat="42.350235" lon="1.90617">
        <ele>1625.8</ele>
        <time>1970-01-01T00:50:40.000Z</time>
      </trkpt>
      <trkpt lat="42.350208" lon="1.906189">
        <ele>1625.9</ele>
        <time>1970-01-01T00:50:41.000Z</time>
      </trkpt>
      <trkpt lat="42.350189" lon="1.90619">
        <ele>1625.9</ele>
        <time>1970-01-01T00:50:42.000Z</time>
      </trkpt>
      <trkpt lat="42.350174" lon="1.90619">
        <ele>1625.9</ele>
        <time>1970-01-01T00:50:43.000Z</time>
      </trkpt>
      <trkpt lat="42.35017" lon="1.906189">
        <ele>1625.9</ele>
        <time>1970-01-01T00:50:44.000Z</time>
      </trkpt>
      <trkpt lat="42.35017" lon="1.906188">
        <ele>1625.9</ele>
        <time>1970-01-01T00:50:45.000Z</time>
      </trkpt>
      <trkpt lat="42.35017" lon="1.906193">
        <ele>1625.9</ele>
        <time>1970-01-01T00:50:46.000Z</time>
      </trkpt>
      <trkpt lat="42.35017" lon="1.906196">
        <ele>1625.9</ele>
        <time>1970-01-01T00:50:47.000Z</time>
      </trkpt>
      <trkpt lat="42.35017" lon="1.906197">
        <ele>1625.9</ele>
        <time>1970-01-01T00:50:48.000Z</time>
      </trkpt>
      <trkpt lat="42.350124" lon="1.906097">
        <ele>1626.1</ele>
        <time>1970-01-01T00:52:06.000Z</time>
      </trkpt>
      <trkpt lat="42.350101" lon="1.9061">
        <ele>1626.2</ele>
        <time>1970-01-01T00:52:07.000Z</time>
      </trkpt>
      <trkpt lat="42.350079" lon="1.90611">
        <ele>1626.3</ele>
        <time>1970-01-01T00:52:08.000Z</time>
      </trkpt>
      <trkpt lat="42.350044" lon="1.906112">
        <ele>1626.4</ele>
        <time>1970-01-01T00:52:09.000Z</time>
      </trkpt>
      <trkpt lat="42.350014" lon="1.906115">
        <ele>1626.6</ele>
        <time>1970-01-01T00:52:10.000Z</time>
      </trkpt>
      <trkpt lat="42.349983" lon="1.906121">
        <ele>1626.7</ele>
        <time>1970-01-01T00:52:11.000Z</time>
      </trkpt>
      <trkpt lat="42.34996" lon="1.906124">
        <ele>1626.9</ele>
        <time>1970-01-01T00:52:12.000Z</time>
      </trkpt>
      <trkpt lat="42.349926" lon="1.906121">
        <ele>1627.1</ele>
        <time>1970-01-01T00:52:13.000Z</time>
      </trkpt>
      <trkpt lat="42.349907" lon="1.906113">
        <ele>1627.2</ele>
        <time>1970-01-01T00:52:14.000Z</time>
      </trkpt>
      <trkpt lat="42.349888" lon="1.906093">
        <ele>1627.4</ele>
        <time>1970-01-01T00:52:15.000Z</time>
      </trkpt>
      <trkpt lat="42.349869" lon="1.906073">
        <ele>1627.5</ele>
        <time>1970-01-01T00:52:16.000Z</time>
      </trkpt>
      <trkpt lat="42.349854" lon="1.906054">
        <ele>1627.7</ele>
        <time>1970-01-01T00:52:17.000Z</time>
      </trkpt>
      <trkpt lat="42.349842" lon="1.906036">
        <ele>1627.8</ele>
        <time>1970-01-01T00:52:18.000Z</time>
      </trkpt>
      <trkpt lat="42.349838" lon="1.906023">
        <ele>1627.8</ele>
        <time>1970-01-01T00:52:19.000Z</time>
      </trkpt>
      <trkpt lat="42.349846" lon="1.90602">
        <ele>1627.9</ele>
        <time>1970-01-01T00:52:20.000Z</time>
      </trkpt>
      <trkpt lat="42.34985" lon="1.906003">
        <ele>1628</ele>
        <time>1970-01-01T00:52:21.000Z</time>
      </trkpt>
      <trkpt lat="42.349854" lon="1.90598">
        <ele>1628.1</ele>
        <time>1970-01-01T00:52:22.000Z</time>
      </trkpt>
      <trkpt lat="42.349857" lon="1.905958">
        <ele>1628.2</ele>
        <time>1970-01-01T00:52:23.000Z</time>
      </trkpt>
      <trkpt lat="42.349865" lon="1.905943">
        <ele>1628.3</ele>
        <time>1970-01-01T00:52:24.000Z</time>
      </trkpt>
      <trkpt lat="42.349869" lon="1.905926">
        <ele>1628.4</ele>
        <time>1970-01-01T00:52:25.000Z</time>
      </trkpt>
      <trkpt lat="42.349873" lon="1.905911">
        <ele>1628.4</ele>
        <time>1970-01-01T00:52:26.000Z</time>
      </trkpt>
      <trkpt lat="42.34988" lon="1.905892">
        <ele>1628.5</ele>
        <time>1970-01-01T00:52:27.000Z</time>
      </trkpt>
      <trkpt lat="42.34988" lon="1.90587">
        <ele>1628.6</ele>
        <time>1970-01-01T00:52:28.000Z</time>
      </trkpt>
      <trkpt lat="42.349884" lon="1.905847">
        <ele>1628.7</ele>
        <time>1970-01-01T00:52:29.000Z</time>
      </trkpt>
      <trkpt lat="42.349888" lon="1.905823">
        <ele>1628.8</ele>
        <time>1970-01-01T00:52:30.000Z</time>
      </trkpt>
      <trkpt lat="42.349884" lon="1.905798">
        <ele>1628.9</ele>
        <time>1970-01-01T00:52:31.000Z</time>
      </trkpt>
      <trkpt lat="42.349884" lon="1.905772">
        <ele>1629</ele>
        <time>1970-01-01T00:52:32.000Z</time>
      </trkpt>
      <trkpt lat="42.349884" lon="1.905744">
        <ele>1629.1</ele>
        <time>1970-01-01T00:52:33.000Z</time>
      </trkpt>
      <trkpt lat="42.349888" lon="1.905718">
        <ele>1629.2</ele>
        <time>1970-01-01T00:52:34.000Z</time>
      </trkpt>
      <trkpt lat="42.349888" lon="1.905693">
        <ele>1629.3</ele>
        <time>1970-01-01T00:52:35.000Z</time>
      </trkpt>
      <trkpt lat="42.349888" lon="1.905668">
        <ele>1629.4</ele>
        <time>1970-01-01T00:52:36.000Z</time>
      </trkpt>
      <trkpt lat="42.349888" lon="1.905642">
        <ele>1629.5</ele>
        <time>1970-01-01T00:52:37.000Z</time>
      </trkpt>
      <trkpt lat="42.349888" lon="1.905614">
        <ele>1629.6</ele>
        <time>1970-01-01T00:52:38.000Z</time>
      </trkpt>
      <trkpt lat="42.349884" lon="1.905588">
        <ele>1629.6</ele>
        <time>1970-01-01T00:52:39.000Z</time>
      </trkpt>
      <trkpt lat="42.34988" lon="1.905562">
        <ele>1629.7</ele>
        <time>1970-01-01T00:52:40.000Z</time>
      </trkpt>
      <trkpt lat="42.349876" lon="1.905539">
        <ele>1629.7</ele>
        <time>1970-01-01T00:52:41.000Z</time>
      </trkpt>
      <trkpt lat="42.34988" lon="1.905503">
        <ele>1629.8</ele>
        <time>1970-01-01T00:52:42.000Z</time>
      </trkpt>
      <trkpt lat="42.349876" lon="1.905467">
        <ele>1629.9</ele>
        <time>1970-01-01T00:52:43.000Z</time>
      </trkpt>
      <trkpt lat="42.349869" lon="1.905439">
        <ele>1629.9</ele>
        <time>1970-01-01T00:52:44.000Z</time>
      </trkpt>
      <trkpt lat="42.349857" lon="1.905412">
        <ele>1630</ele>
        <time>1970-01-01T00:52:45.000Z</time>
      </trkpt>
      <trkpt lat="42.349846" lon="1.905387">
        <ele>1630</ele>
        <time>1970-01-01T00:52:46.000Z</time>
      </trkpt>
      <trkpt lat="42.349838" lon="1.90536">
        <ele>1630</ele>
        <time>1970-01-01T00:52:47.000Z</time>
      </trkpt>
      <trkpt lat="42.349842" lon="1.905326">
        <ele>1630</ele>
        <time>1970-01-01T00:52:48.000Z</time>
      </trkpt>
      <trkpt lat="42.349846" lon="1.905286">
        <ele>1630</ele>
        <time>1970-01-01T00:52:49.000Z</time>
      </trkpt>
      <trkpt lat="42.349846" lon="1.905247">
        <ele>1630</ele>
        <time>1970-01-01T00:52:50.000Z</time>
      </trkpt>
      <trkpt lat="42.349842" lon="1.905213">
        <ele>1630.1</ele>
        <time>1970-01-01T00:52:51.000Z</time>
      </trkpt>
      <trkpt lat="42.349842" lon="1.905174">
        <ele>1630.1</ele>
        <time>1970-01-01T00:52:52.000Z</time>
      </trkpt>
      <trkpt lat="42.349842" lon="1.905136">
        <ele>1630.1</ele>
        <time>1970-01-01T00:52:53.000Z</time>
      </trkpt>
      <trkpt lat="42.349842" lon="1.905099">
        <ele>1630.1</ele>
        <time>1970-01-01T00:52:54.000Z</time>
      </trkpt>
      <trkpt lat="42.349842" lon="1.905067">
        <ele>1630.1</ele>
        <time>1970-01-01T00:52:55.000Z</time>
      </trkpt>
      <trkpt lat="42.349846" lon="1.905032">
        <ele>1630.1</ele>
        <time>1970-01-01T00:52:56.000Z</time>
      </trkpt>
      <trkpt lat="42.34985" lon="1.904997">
        <ele>1630.1</ele>
        <time>1970-01-01T00:52:57.000Z</time>
      </trkpt>
      <trkpt lat="42.349854" lon="1.904952">
        <ele>1630</ele>
        <time>1970-01-01T00:52:58.000Z</time>
      </trkpt>
      <trkpt lat="42.349857" lon="1.904909">
        <ele>1630</ele>
        <time>1970-01-01T00:52:59.000Z</time>
      </trkpt>
      <trkpt lat="42.349861" lon="1.90486">
        <ele>1630</ele>
        <time>1970-01-01T00:53:00.000Z</time>
      </trkpt>
      <trkpt lat="42.349869" lon="1.904816">
        <ele>1630</ele>
        <time>1970-01-01T00:53:01.000Z</time>
      </trkpt>
      <trkpt lat="42.349876" lon="1.904768">
        <ele>1630</ele>
        <time>1970-01-01T00:53:02.000Z</time>
      </trkpt>
      <trkpt lat="42.349876" lon="1.904721">
        <ele>1629.9</ele>
        <time>1970-01-01T00:53:03.000Z</time>
      </trkpt>
      <trkpt lat="42.349873" lon="1.904672">
        <ele>1629.9</ele>
        <time>1970-01-01T00:53:04.000Z</time>
      </trkpt>
      <trkpt lat="42.349869" lon="1.904624">
        <ele>1629.9</ele>
        <time>1970-01-01T00:53:05.000Z</time>
      </trkpt>
      <trkpt lat="42.349857" lon="1.904583">
        <ele>1629.8</ele>
        <time>1970-01-01T00:53:06.000Z</time>
      </trkpt>
      <trkpt lat="42.349854" lon="1.904547">
        <ele>1629.8</ele>
        <time>1970-01-01T00:53:07.000Z</time>
      </trkpt>
      <trkpt lat="42.349842" lon="1.904516">
        <ele>1629.8</ele>
        <time>1970-01-01T00:53:08.000Z</time>
      </trkpt>
      <trkpt lat="42.349831" lon="1.904502">
        <ele>1629.8</ele>
        <time>1970-01-01T00:53:09.000Z</time>
      </trkpt>
      <trkpt lat="42.349815" lon="1.90449">
        <ele>1632.2</ele>
        <time>1970-01-01T00:53:10.000Z</time>
      </trkpt>
      <trkpt lat="42.349804" lon="1.904477">
        <ele>1632.4</ele>
        <time>1970-01-01T00:53:11.000Z</time>
      </trkpt>
      <trkpt lat="42.349793" lon="1.90447">
        <ele>1632.5</ele>
        <time>1970-01-01T00:53:12.000Z</time>
      </trkpt>
      <trkpt lat="42.349777" lon="1.90446">
        <ele>1632.6</ele>
        <time>1970-01-01T00:53:13.000Z</time>
      </trkpt>
      <trkpt lat="42.349766" lon="1.904451">
        <ele>1632.7</ele>
        <time>1970-01-01T00:53:14.000Z</time>
      </trkpt>
      <trkpt lat="42.349754" lon="1.90445">
        <ele>1632.8</ele>
        <time>1970-01-01T00:53:15.000Z</time>
      </trkpt>
      <trkpt lat="42.349743" lon="1.90446">
        <ele>1633</ele>
        <time>1970-01-01T00:53:16.000Z</time>
      </trkpt>
      <trkpt lat="42.349739" lon="1.904469">
        <ele>1633</ele>
        <time>1970-01-01T00:53:17.000Z</time>
      </trkpt>
      <trkpt lat="42.349731" lon="1.904482">
        <ele>1633.1</ele>
        <time>1970-01-01T00:53:18.000Z</time>
      </trkpt>
      <trkpt lat="42.349728" lon="1.904502">
        <ele>1633.2</ele>
        <time>1970-01-01T00:53:19.000Z</time>
      </trkpt>
      <trkpt lat="42.349728" lon="1.904522">
        <ele>1633.4</ele>
        <time>1970-01-01T00:53:20.000Z</time>
      </trkpt>
      <trkpt lat="42.349728" lon="1.904542">
        <ele>1633.5</ele>
        <time>1970-01-01T00:53:21.000Z</time>
      </trkpt>
      <trkpt lat="42.349724" lon="1.904563">
        <ele>1633.6</ele>
        <time>1970-01-01T00:53:22.000Z</time>
      </trkpt>
      <trkpt lat="42.34972" lon="1.904582">
        <ele>1633.7</ele>
        <time>1970-01-01T00:53:23.000Z</time>
      </trkpt>
      <trkpt lat="42.34972" lon="1.904604">
        <ele>1633.9</ele>
        <time>1970-01-01T00:53:24.000Z</time>
      </trkpt>
      <trkpt lat="42.34972" lon="1.90463">
        <ele>1634</ele>
        <time>1970-01-01T00:53:25.000Z</time>
      </trkpt>
      <trkpt lat="42.34972" lon="1.90465">
        <ele>1634.1</ele>
        <time>1970-01-01T00:53:26.000Z</time>
      </trkpt>
      <trkpt lat="42.34972" lon="1.904675">
        <ele>1634.2</ele>
        <time>1970-01-01T00:53:27.000Z</time>
      </trkpt>
      <trkpt lat="42.34972" lon="1.904699">
        <ele>1634.4</ele>
        <time>1970-01-01T00:53:28.000Z</time>
      </trkpt>
      <trkpt lat="42.349724" lon="1.904721">
        <ele>1634.9</ele>
        <time>1970-01-01T00:53:29.000Z</time>
      </trkpt>
      <trkpt lat="42.349724" lon="1.904746">
        <ele>1635.2</ele>
        <time>1970-01-01T00:53:30.000Z</time>
      </trkpt>
      <trkpt lat="42.349724" lon="1.904773">
        <ele>1635.5</ele>
        <time>1970-01-01T00:53:31.000Z</time>
      </trkpt>
      <trkpt lat="42.34972" lon="1.904798">
        <ele>1635.8</ele>
        <time>1970-01-01T00:53:32.000Z</time>
      </trkpt>
      <trkpt lat="42.349716" lon="1.904825">
        <ele>1636.1</ele>
        <time>1970-01-01T00:53:33.000Z</time>
      </trkpt>
      <trkpt lat="42.349716" lon="1.904853">
        <ele>1636.4</ele>
        <time>1970-01-01T00:53:34.000Z</time>
      </trkpt>
      <trkpt lat="42.34972" lon="1.904878">
        <ele>1636.7</ele>
        <time>1970-01-01T00:53:35.000Z</time>
      </trkpt>
      <trkpt lat="42.349716" lon="1.904905">
        <ele>1637</ele>
        <time>1970-01-01T00:53:36.000Z</time>
      </trkpt>
      <trkpt lat="42.349716" lon="1.904934">
        <ele>1637.2</ele>
        <time>1970-01-01T00:53:37.000Z</time>
      </trkpt>
      <trkpt lat="42.349712" lon="1.904963">
        <ele>1637.5</ele>
        <time>1970-01-01T00:53:38.000Z</time>
      </trkpt>
      <trkpt lat="42.349716" lon="1.904992">
        <ele>1637.8</ele>
        <time>1970-01-01T00:53:39.000Z</time>
      </trkpt>
      <trkpt lat="42.349716" lon="1.905021">
        <ele>1638.1</ele>
        <time>1970-01-01T00:53:40.000Z</time>
      </trkpt>
      <trkpt lat="42.349716" lon="1.90505">
        <ele>1638.4</ele>
        <time>1970-01-01T00:53:41.000Z</time>
      </trkpt>
      <trkpt lat="42.349716" lon="1.905079">
        <ele>1638.6</ele>
        <time>1970-01-01T00:53:42.000Z</time>
      </trkpt>
      <trkpt lat="42.349716" lon="1.90511">
        <ele>1638.9</ele>
        <time>1970-01-01T00:53:43.000Z</time>
      </trkpt>
      <trkpt lat="42.349716" lon="1.905141">
        <ele>1639.2</ele>
        <time>1970-01-01T00:53:44.000Z</time>
      </trkpt>
      <trkpt lat="42.34972" lon="1.905172">
        <ele>1639.5</ele>
        <time>1970-01-01T00:53:45.000Z</time>
      </trkpt>
      <trkpt lat="42.34972" lon="1.905203">
        <ele>1639.7</ele>
        <time>1970-01-01T00:53:46.000Z</time>
      </trkpt>
      <trkpt lat="42.34972" lon="1.905234">
        <ele>1640</ele>
        <time>1970-01-01T00:53:47.000Z</time>
      </trkpt>
      <trkpt lat="42.349724" lon="1.905263">
        <ele>1640.2</ele>
        <time>1970-01-01T00:53:48.000Z</time>
      </trkpt>
      <trkpt lat="42.349728" lon="1.905297">
        <ele>1640.5</ele>
        <time>1970-01-01T00:53:49.000Z</time>
      </trkpt>
      <trkpt lat="42.349728" lon="1.905327">
        <ele>1640.8</ele>
        <time>1970-01-01T00:53:50.000Z</time>
      </trkpt>
      <trkpt lat="42.349731" lon="1.905361">
        <ele>1641.1</ele>
        <time>1970-01-01T00:53:51.000Z</time>
      </trkpt>
      <trkpt lat="42.349735" lon="1.90539">
        <ele>1641.3</ele>
        <time>1970-01-01T00:53:52.000Z</time>
      </trkpt>
      <trkpt lat="42.349739" lon="1.905424">
        <ele>1641.6</ele>
        <time>1970-01-01T00:53:53.000Z</time>
      </trkpt>
      <trkpt lat="42.349735" lon="1.90545">
        <ele>1641.9</ele>
        <time>1970-01-01T00:53:54.000Z</time>
      </trkpt>
      <trkpt lat="42.349735" lon="1.905478">
        <ele>1642.1</ele>
        <time>1970-01-01T00:53:55.000Z</time>
      </trkpt>
      <trkpt lat="42.349731" lon="1.905506">
        <ele>1642.4</ele>
        <time>1970-01-01T00:53:56.000Z</time>
      </trkpt>
      <trkpt lat="42.349731" lon="1.90553">
        <ele>1642.6</ele>
        <time>1970-01-01T00:53:57.000Z</time>
      </trkpt>
      <trkpt lat="42.349724" lon="1.905558">
        <ele>1642.9</ele>
        <time>1970-01-01T00:53:58.000Z</time>
      </trkpt>
      <trkpt lat="42.349716" lon="1.905585">
        <ele>1643.2</ele>
        <time>1970-01-01T00:53:59.000Z</time>
      </trkpt>
      <trkpt lat="42.349712" lon="1.90561">
        <ele>1643.5</ele>
        <time>1970-01-01T00:54:00.000Z</time>
      </trkpt>
      <trkpt lat="42.349709" lon="1.905634">
        <ele>1643.7</ele>
        <time>1970-01-01T00:54:01.000Z</time>
      </trkpt>
      <trkpt lat="42.349701" lon="1.905655">
        <ele>1644</ele>
        <time>1970-01-01T00:54:02.000Z</time>
      </trkpt>
      <trkpt lat="42.349689" lon="1.905677">
        <ele>1644.2</ele>
        <time>1970-01-01T00:54:03.000Z</time>
      </trkpt>
      <trkpt lat="42.349674" lon="1.905691">
        <ele>1644.5</ele>
        <time>1970-01-01T00:54:04.000Z</time>
      </trkpt>
      <trkpt lat="42.349651" lon="1.905711">
        <ele>1644.9</ele>
        <time>1970-01-01T00:54:05.000Z</time>
      </trkpt>
      <trkpt lat="42.349632" lon="1.905716">
        <ele>1645.1</ele>
        <time>1970-01-01T00:54:06.000Z</time>
      </trkpt>
      <trkpt lat="42.349613" lon="1.905714">
        <ele>1645.4</ele>
        <time>1970-01-01T00:54:07.000Z</time>
      </trkpt>
      <trkpt lat="42.349598" lon="1.905705">
        <ele>1645.6</ele>
        <time>1970-01-01T00:54:08.000Z</time>
      </trkpt>
      <trkpt lat="42.349583" lon="1.905693">
        <ele>1645.9</ele>
        <time>1970-01-01T00:54:09.000Z</time>
      </trkpt>
      <trkpt lat="42.349575" lon="1.90568">
        <ele>1646.1</ele>
        <time>1970-01-01T00:54:10.000Z</time>
      </trkpt>
      <trkpt lat="42.349564" lon="1.905664">
        <ele>1646.3</ele>
        <time>1970-01-01T00:54:11.000Z</time>
      </trkpt>
      <trkpt lat="42.349548" lon="1.905644">
        <ele>1646.6</ele>
        <time>1970-01-01T00:54:12.000Z</time>
      </trkpt>
      <trkpt lat="42.349537" lon="1.905623">
        <ele>1646.9</ele>
        <time>1970-01-01T00:54:13.000Z</time>
      </trkpt>
      <trkpt lat="42.349525" lon="1.905601">
        <ele>1647.2</ele>
        <time>1970-01-01T00:54:14.000Z</time>
      </trkpt>
      <trkpt lat="42.349518" lon="1.905582">
        <ele>1647.4</ele>
        <time>1970-01-01T00:54:15.000Z</time>
      </trkpt>
      <trkpt lat="42.34951" lon="1.905564">
        <ele>1647.6</ele>
        <time>1970-01-01T00:54:16.000Z</time>
      </trkpt>
      <trkpt lat="42.349503" lon="1.905546">
        <ele>1647.8</ele>
        <time>1970-01-01T00:54:17.000Z</time>
      </trkpt>
      <trkpt lat="42.349499" lon="1.905526">
        <ele>1648</ele>
        <time>1970-01-01T00:54:18.000Z</time>
      </trkpt>
      <trkpt lat="42.349487" lon="1.905505">
        <ele>1648.2</ele>
        <time>1970-01-01T00:54:19.000Z</time>
      </trkpt>
      <trkpt lat="42.349487" lon="1.905479">
        <ele>1648.5</ele>
        <time>1970-01-01T00:54:20.000Z</time>
      </trkpt>
      <trkpt lat="42.349483" lon="1.905453">
        <ele>1648.7</ele>
        <time>1970-01-01T00:54:21.000Z</time>
      </trkpt>
      <trkpt lat="42.34948" lon="1.905425">
        <ele>1648.9</ele>
        <time>1970-01-01T00:54:22.000Z</time>
      </trkpt>
      <trkpt lat="42.349476" lon="1.9054">
        <ele>1649.2</ele>
        <time>1970-01-01T00:54:23.000Z</time>
      </trkpt>
      <trkpt lat="42.349468" lon="1.905375">
        <ele>1649.4</ele>
        <time>1970-01-01T00:54:24.000Z</time>
      </trkpt>
      <trkpt lat="42.349461" lon="1.905349">
        <ele>1649.6</ele>
        <time>1970-01-01T00:54:25.000Z</time>
      </trkpt>
      <trkpt lat="42.349453" lon="1.905322">
        <ele>1649.8</ele>
        <time>1970-01-01T00:54:26.000Z</time>
      </trkpt>
      <trkpt lat="42.349445" lon="1.905296">
        <ele>1650.1</ele>
        <time>1970-01-01T00:54:27.000Z</time>
      </trkpt>
      <trkpt lat="42.349434" lon="1.90527">
        <ele>1650.3</ele>
        <time>1970-01-01T00:54:28.000Z</time>
      </trkpt>
      <trkpt lat="42.349426" lon="1.905241">
        <ele>1650.5</ele>
        <time>1970-01-01T00:54:29.000Z</time>
      </trkpt>
      <trkpt lat="42.349419" lon="1.90521">
        <ele>1650.8</ele>
        <time>1970-01-01T00:54:30.000Z</time>
      </trkpt>
      <trkpt lat="42.349407" lon="1.905183">
        <ele>1651</ele>
        <time>1970-01-01T00:54:31.000Z</time>
      </trkpt>
      <trkpt lat="42.349396" lon="1.905159">
        <ele>1651.2</ele>
        <time>1970-01-01T00:54:32.000Z</time>
      </trkpt>
      <trkpt lat="42.349384" lon="1.905132">
        <ele>1651.4</ele>
        <time>1970-01-01T00:54:33.000Z</time>
      </trkpt>
      <trkpt lat="42.349373" lon="1.905101">
        <ele>1651.7</ele>
        <time>1970-01-01T00:54:34.000Z</time>
      </trkpt>
      <trkpt lat="42.349365" lon="1.905074">
        <ele>1651.9</ele>
        <time>1970-01-01T00:54:35.000Z</time>
      </trkpt>
      <trkpt lat="42.349354" lon="1.90504">
        <ele>1652.2</ele>
        <time>1970-01-01T00:54:36.000Z</time>
      </trkpt>
      <trkpt lat="42.349342" lon="1.905009">
        <ele>1652.5</ele>
        <time>1970-01-01T00:54:37.000Z</time>
      </trkpt>
      <trkpt lat="42.349339" lon="1.904982">
        <ele>1652.7</ele>
        <time>1970-01-01T00:54:38.000Z</time>
      </trkpt>
      <trkpt lat="42.349331" lon="1.904952">
        <ele>1652.9</ele>
        <time>1970-01-01T00:54:39.000Z</time>
      </trkpt>
      <trkpt lat="42.349323" lon="1.904918">
        <ele>1653.3</ele>
        <time>1970-01-01T00:54:40.000Z</time>
      </trkpt>
      <trkpt lat="42.349316" lon="1.904893">
        <ele>1653.5</ele>
        <time>1970-01-01T00:54:41.000Z</time>
      </trkpt>
      <trkpt lat="42.3493" lon="1.904868">
        <ele>1653.7</ele>
        <time>1970-01-01T00:54:42.000Z</time>
      </trkpt>
      <trkpt lat="42.349293" lon="1.90483">
        <ele>1654</ele>
        <time>1970-01-01T00:54:43.000Z</time>
      </trkpt>
      <trkpt lat="42.349281" lon="1.904787">
        <ele>1654.3</ele>
        <time>1970-01-01T00:54:44.000Z</time>
      </trkpt>
      <trkpt lat="42.349266" lon="1.904763">
        <ele>1654.5</ele>
        <time>1970-01-01T00:54:45.000Z</time>
      </trkpt>
      <trkpt lat="42.349255" lon="1.904755">
        <ele>1654.6</ele>
        <time>1970-01-01T00:54:46.000Z</time>
      </trkpt>
      <trkpt lat="42.349243" lon="1.904763">
        <ele>1656.5</ele>
        <time>1970-01-01T00:54:47.000Z</time>
      </trkpt>
      <trkpt lat="42.349232" lon="1.904781">
        <ele>1656.8</ele>
        <time>1970-01-01T00:54:48.000Z</time>
      </trkpt>
      <trkpt lat="42.34922" lon="1.904792">
        <ele>1657.1</ele>
        <time>1970-01-01T00:54:49.000Z</time>
      </trkpt>
      <trkpt lat="42.349209" lon="1.904804">
        <ele>1657.3</ele>
        <time>1970-01-01T00:54:50.000Z</time>
      </trkpt>
      <trkpt lat="42.349197" lon="1.904809">
        <ele>1657.5</ele>
        <time>1970-01-01T00:54:51.000Z</time>
      </trkpt>
      <trkpt lat="42.349182" lon="1.904816">
        <ele>1657.7</ele>
        <time>1970-01-01T00:54:52.000Z</time>
      </trkpt>
      <trkpt lat="42.349171" lon="1.904823">
        <ele>1658</ele>
        <time>1970-01-01T00:54:53.000Z</time>
      </trkpt>
      <trkpt lat="42.349159" lon="1.904835">
        <ele>1658.2</ele>
        <time>1970-01-01T00:54:54.000Z</time>
      </trkpt>
      <trkpt lat="42.349152" lon="1.904849">
        <ele>1658.4</ele>
        <time>1970-01-01T00:54:55.000Z</time>
      </trkpt>
      <trkpt lat="42.349148" lon="1.904866">
        <ele>1658.7</ele>
        <time>1970-01-01T00:54:56.000Z</time>
      </trkpt>
      <trkpt lat="42.349144" lon="1.904881">
        <ele>1658.9</ele>
        <time>1970-01-01T00:54:57.000Z</time>
      </trkpt>
      <trkpt lat="42.349144" lon="1.904901">
        <ele>1659.1</ele>
        <time>1970-01-01T00:54:58.000Z</time>
      </trkpt>
      <trkpt lat="42.349144" lon="1.90492">
        <ele>1659.4</ele>
        <time>1970-01-01T00:54:59.000Z</time>
      </trkpt>
      <trkpt lat="42.349144" lon="1.90494">
        <ele>1659.6</ele>
        <time>1970-01-01T00:55:00.000Z</time>
      </trkpt>
      <trkpt lat="42.349144" lon="1.904956">
        <ele>1659.8</ele>
        <time>1970-01-01T00:55:01.000Z</time>
      </trkpt>
      <trkpt lat="42.34914" lon="1.90497">
        <ele>1660</ele>
        <time>1970-01-01T00:55:02.000Z</time>
      </trkpt>
      <trkpt lat="42.349136" lon="1.904986">
        <ele>1660.3</ele>
        <time>1970-01-01T00:55:03.000Z</time>
      </trkpt>
      <trkpt lat="42.349136" lon="1.905001">
        <ele>1660.5</ele>
        <time>1970-01-01T00:55:04.000Z</time>
      </trkpt>
      <trkpt lat="42.349133" lon="1.905016">
        <ele>1660.7</ele>
        <time>1970-01-01T00:55:05.000Z</time>
      </trkpt>
      <trkpt lat="42.349129" lon="1.905031">
        <ele>1660.9</ele>
        <time>1970-01-01T00:55:06.000Z</time>
      </trkpt>
      <trkpt lat="42.349125" lon="1.905048">
        <ele>1661.1</ele>
        <time>1970-01-01T00:55:07.000Z</time>
      </trkpt>
      <trkpt lat="42.349121" lon="1.905064">
        <ele>1661.4</ele>
        <time>1970-01-01T00:55:08.000Z</time>
      </trkpt>
      <trkpt lat="42.349117" lon="1.90508">
        <ele>1661.6</ele>
        <time>1970-01-01T00:55:09.000Z</time>
      </trkpt>
      <trkpt lat="42.349113" lon="1.905095">
        <ele>1661.8</ele>
        <time>1970-01-01T00:55:10.000Z</time>
      </trkpt>
      <trkpt lat="42.34911" lon="1.905113">
        <ele>1662.1</ele>
        <time>1970-01-01T00:55:11.000Z</time>
      </trkpt>
      <trkpt lat="42.349106" lon="1.90513">
        <ele>1662.4</ele>
        <time>1970-01-01T00:55:12.000Z</time>
      </trkpt>
      <trkpt lat="42.349098" lon="1.905154">
        <ele>1662.8</ele>
        <time>1970-01-01T00:55:13.000Z</time>
      </trkpt>
      <trkpt lat="42.349094" lon="1.905172">
        <ele>1663.1</ele>
        <time>1970-01-01T00:55:14.000Z</time>
      </trkpt>
      <trkpt lat="42.349087" lon="1.905189">
        <ele>1663.4</ele>
        <time>1970-01-01T00:55:15.000Z</time>
      </trkpt>
      <trkpt lat="42.349083" lon="1.905206">
        <ele>1663.7</ele>
        <time>1970-01-01T00:55:16.000Z</time>
      </trkpt>
      <trkpt lat="42.349075" lon="1.905223">
        <ele>1664</ele>
        <time>1970-01-01T00:55:17.000Z</time>
      </trkpt>
      <trkpt lat="42.349068" lon="1.905239">
        <ele>1664.3</ele>
        <time>1970-01-01T00:55:18.000Z</time>
      </trkpt>
      <trkpt lat="42.34906" lon="1.905255">
        <ele>1664.6</ele>
        <time>1970-01-01T00:55:19.000Z</time>
      </trkpt>
      <trkpt lat="42.349056" lon="1.905271">
        <ele>1664.8</ele>
        <time>1970-01-01T00:55:20.000Z</time>
      </trkpt>
      <trkpt lat="42.349049" lon="1.905287">
        <ele>1665.1</ele>
        <time>1970-01-01T00:55:21.000Z</time>
      </trkpt>
      <trkpt lat="42.349041" lon="1.905304">
        <ele>1665.4</ele>
        <time>1970-01-01T00:55:22.000Z</time>
      </trkpt>
      <trkpt lat="42.34903" lon="1.905318">
        <ele>1665.7</ele>
        <time>1970-01-01T00:55:23.000Z</time>
      </trkpt>
      <trkpt lat="42.349022" lon="1.905332">
        <ele>1666</ele>
        <time>1970-01-01T00:55:24.000Z</time>
      </trkpt>
      <trkpt lat="42.34901" lon="1.905347">
        <ele>1666.3</ele>
        <time>1970-01-01T00:55:25.000Z</time>
      </trkpt>
      <trkpt lat="42.348995" lon="1.905363">
        <ele>1666.7</ele>
        <time>1970-01-01T00:55:26.000Z</time>
      </trkpt>
      <trkpt lat="42.348984" lon="1.905375">
        <ele>1666.9</ele>
        <time>1970-01-01T00:55:27.000Z</time>
      </trkpt>
      <trkpt lat="42.348972" lon="1.905388">
        <ele>1667.2</ele>
        <time>1970-01-01T00:55:28.000Z</time>
      </trkpt>
      <trkpt lat="42.348961" lon="1.905402">
        <ele>1667.5</ele>
        <time>1970-01-01T00:55:29.000Z</time>
      </trkpt>
      <trkpt lat="42.348946" lon="1.905418">
        <ele>1667.9</ele>
        <time>1970-01-01T00:55:30.000Z</time>
      </trkpt>
      <trkpt lat="42.348938" lon="1.905435">
        <ele>1668.1</ele>
        <time>1970-01-01T00:55:31.000Z</time>
      </trkpt>
      <trkpt lat="42.348934" lon="1.905451">
        <ele>1668.4</ele>
        <time>1970-01-01T00:55:32.000Z</time>
      </trkpt>
      <trkpt lat="42.348927" lon="1.905463">
        <ele>1668.6</ele>
        <time>1970-01-01T00:55:33.000Z</time>
      </trkpt>
      <trkpt lat="42.348919" lon="1.905475">
        <ele>1668.8</ele>
        <time>1970-01-01T00:55:34.000Z</time>
      </trkpt>
      <trkpt lat="42.348907" lon="1.905486">
        <ele>1669.1</ele>
        <time>1970-01-01T00:55:35.000Z</time>
      </trkpt>
      <trkpt lat="42.348896" lon="1.905497">
        <ele>1669.3</ele>
        <time>1970-01-01T00:55:36.000Z</time>
      </trkpt>
      <trkpt lat="42.348885" lon="1.90551">
        <ele>1669.6</ele>
        <time>1970-01-01T00:55:37.000Z</time>
      </trkpt>
      <trkpt lat="42.348873" lon="1.905522">
        <ele>1669.9</ele>
        <time>1970-01-01T00:55:38.000Z</time>
      </trkpt>
      <trkpt lat="42.348866" lon="1.905531">
        <ele>1670</ele>
        <time>1970-01-01T00:55:39.000Z</time>
      </trkpt>
      <trkpt lat="42.348854" lon="1.905544">
        <ele>1670.3</ele>
        <time>1970-01-01T00:55:40.000Z</time>
      </trkpt>
      <trkpt lat="42.348843" lon="1.90556">
        <ele>1670.6</ele>
        <time>1970-01-01T00:55:41.000Z</time>
      </trkpt>
      <trkpt lat="42.348835" lon="1.905572">
        <ele>1670.9</ele>
        <time>1970-01-01T00:55:42.000Z</time>
      </trkpt>
      <trkpt lat="42.348827" lon="1.905582">
        <ele>1671.1</ele>
        <time>1970-01-01T00:55:43.000Z</time>
      </trkpt>
      <trkpt lat="42.348812" lon="1.905595">
        <ele>1671.4</ele>
        <time>1970-01-01T00:55:44.000Z</time>
      </trkpt>
      <trkpt lat="42.348801" lon="1.905607">
        <ele>1671.7</ele>
        <time>1970-01-01T00:55:45.000Z</time>
      </trkpt>
      <trkpt lat="42.348789" lon="1.905618">
        <ele>1671.9</ele>
        <time>1970-01-01T00:55:46.000Z</time>
      </trkpt>
      <trkpt lat="42.348782" lon="1.905632">
        <ele>1672.2</ele>
        <time>1970-01-01T00:55:47.000Z</time>
      </trkpt>
      <trkpt lat="42.348774" lon="1.905644">
        <ele>1672.4</ele>
        <time>1970-01-01T00:55:48.000Z</time>
      </trkpt>
      <trkpt lat="42.348763" lon="1.905658">
        <ele>1672.7</ele>
        <time>1970-01-01T00:55:49.000Z</time>
      </trkpt>
      <trkpt lat="42.348755" lon="1.905673">
        <ele>1673</ele>
        <time>1970-01-01T00:55:50.000Z</time>
      </trkpt>
      <trkpt lat="42.348747" lon="1.90569">
        <ele>1673.2</ele>
        <time>1970-01-01T00:55:51.000Z</time>
      </trkpt>
      <trkpt lat="42.348736" lon="1.905709">
        <ele>1673.6</ele>
        <time>1970-01-01T00:55:52.000Z</time>
      </trkpt>
      <trkpt lat="42.348728" lon="1.905721">
        <ele>1673.8</ele>
        <time>1970-01-01T00:55:53.000Z</time>
      </trkpt>
      <trkpt lat="42.348717" lon="1.905732">
        <ele>1674.1</ele>
        <time>1970-01-01T00:55:54.000Z</time>
      </trkpt>
      <trkpt lat="42.348709" lon="1.905741">
        <ele>1674.3</ele>
        <time>1970-01-01T00:55:55.000Z</time>
      </trkpt>
      <trkpt lat="42.348694" lon="1.905752">
        <ele>1674.7</ele>
        <time>1970-01-01T00:55:56.000Z</time>
      </trkpt>
      <trkpt lat="42.348686" lon="1.905765">
        <ele>1674.9</ele>
        <time>1970-01-01T00:55:57.000Z</time>
      </trkpt>
      <trkpt lat="42.348679" lon="1.905779">
        <ele>1675.2</ele>
        <time>1970-01-01T00:55:58.000Z</time>
      </trkpt>
      <trkpt lat="42.348675" lon="1.905795">
        <ele>1675.5</ele>
        <time>1970-01-01T00:55:59.000Z</time>
      </trkpt>
      <trkpt lat="42.348671" lon="1.905813">
        <ele>1675.7</ele>
        <time>1970-01-01T00:56:00.000Z</time>
      </trkpt>
      <trkpt lat="42.348663" lon="1.905827">
        <ele>1676</ele>
        <time>1970-01-01T00:56:01.000Z</time>
      </trkpt>
      <trkpt lat="42.348652" lon="1.905843">
        <ele>1676.3</ele>
        <time>1970-01-01T00:56:02.000Z</time>
      </trkpt>
      <trkpt lat="42.348648" lon="1.905855">
        <ele>1676.5</ele>
        <time>1970-01-01T00:56:03.000Z</time>
      </trkpt>
      <trkpt lat="42.348637" lon="1.905872">
        <ele>1676.9</ele>
        <time>1970-01-01T00:56:04.000Z</time>
      </trkpt>
      <trkpt lat="42.348629" lon="1.905887">
        <ele>1677.2</ele>
        <time>1970-01-01T00:56:05.000Z</time>
      </trkpt>
      <trkpt lat="42.348621" lon="1.905904">
        <ele>1677.5</ele>
        <time>1970-01-01T00:56:06.000Z</time>
      </trkpt>
      <trkpt lat="42.348618" lon="1.905921">
        <ele>1677.7</ele>
        <time>1970-01-01T00:56:07.000Z</time>
      </trkpt>
      <trkpt lat="42.348614" lon="1.905936">
        <ele>1678</ele>
        <time>1970-01-01T00:56:08.000Z</time>
      </trkpt>
      <trkpt lat="42.348602" lon="1.905955">
        <ele>1678.4</ele>
        <time>1970-01-01T00:56:09.000Z</time>
      </trkpt>
      <trkpt lat="42.348599" lon="1.905975">
        <ele>1678.7</ele>
        <time>1970-01-01T00:56:10.000Z</time>
      </trkpt>
      <trkpt lat="42.348591" lon="1.905994">
        <ele>1679</ele>
        <time>1970-01-01T00:56:11.000Z</time>
      </trkpt>
      <trkpt lat="42.348583" lon="1.906012">
        <ele>1679.3</ele>
        <time>1970-01-01T00:56:12.000Z</time>
      </trkpt>
      <trkpt lat="42.348576" lon="1.906027">
        <ele>1679.5</ele>
        <time>1970-01-01T00:56:13.000Z</time>
      </trkpt>
      <trkpt lat="42.348564" lon="1.906043">
        <ele>1679.9</ele>
        <time>1970-01-01T00:56:14.000Z</time>
      </trkpt>
      <trkpt lat="42.348553" lon="1.90606">
        <ele>1680.2</ele>
        <time>1970-01-01T00:56:15.000Z</time>
      </trkpt>
      <trkpt lat="42.348545" lon="1.906077">
        <ele>1680.5</ele>
        <time>1970-01-01T00:56:16.000Z</time>
      </trkpt>
      <trkpt lat="42.348537" lon="1.906093">
        <ele>1680.8</ele>
        <time>1970-01-01T00:56:17.000Z</time>
      </trkpt>
      <trkpt lat="42.34853" lon="1.90611">
        <ele>1681.1</ele>
        <time>1970-01-01T00:56:18.000Z</time>
      </trkpt>
      <trkpt lat="42.348522" lon="1.906126">
        <ele>1681.3</ele>
        <time>1970-01-01T00:56:19.000Z</time>
      </trkpt>
      <trkpt lat="42.348515" lon="1.906141">
        <ele>1681.6</ele>
        <time>1970-01-01T00:56:20.000Z</time>
      </trkpt>
      <trkpt lat="42.348507" lon="1.906158">
        <ele>1681.9</ele>
        <time>1970-01-01T00:56:21.000Z</time>
      </trkpt>
      <trkpt lat="42.348495" lon="1.906175">
        <ele>1682.2</ele>
        <time>1970-01-01T00:56:22.000Z</time>
      </trkpt>
      <trkpt lat="42.348488" lon="1.906188">
        <ele>1682.4</ele>
        <time>1970-01-01T00:56:23.000Z</time>
      </trkpt>
      <trkpt lat="42.34848" lon="1.906204">
        <ele>1682.7</ele>
        <time>1970-01-01T00:56:24.000Z</time>
      </trkpt>
      <trkpt lat="42.348473" lon="1.906219">
        <ele>1682.9</ele>
        <time>1970-01-01T00:56:25.000Z</time>
      </trkpt>
      <trkpt lat="42.348465" lon="1.906233">
        <ele>1683.2</ele>
        <time>1970-01-01T00:56:26.000Z</time>
      </trkpt>
      <trkpt lat="42.348453" lon="1.906245">
        <ele>1683.5</ele>
        <time>1970-01-01T00:56:27.000Z</time>
      </trkpt>
      <trkpt lat="42.348446" lon="1.906256">
        <ele>1683.7</ele>
        <time>1970-01-01T00:56:28.000Z</time>
      </trkpt>
      <trkpt lat="42.348431" lon="1.906268">
        <ele>1684</ele>
        <time>1970-01-01T00:56:29.000Z</time>
      </trkpt>
      <trkpt lat="42.348415" lon="1.90628">
        <ele>1684.3</ele>
        <time>1970-01-01T00:56:30.000Z</time>
      </trkpt>
      <trkpt lat="42.348408" lon="1.906294">
        <ele>1684.6</ele>
        <time>1970-01-01T00:56:31.000Z</time>
      </trkpt>
      <trkpt lat="42.348404" lon="1.906312">
        <ele>1684.8</ele>
        <time>1970-01-01T00:56:32.000Z</time>
      </trkpt>
      <trkpt lat="42.348404" lon="1.906334">
        <ele>1685.1</ele>
        <time>1970-01-01T00:56:33.000Z</time>
      </trkpt>
      <trkpt lat="42.3484" lon="1.906356">
        <ele>1685.4</ele>
        <time>1970-01-01T00:56:34.000Z</time>
      </trkpt>
      <trkpt lat="42.3484" lon="1.906379">
        <ele>1685.8</ele>
        <time>1970-01-01T00:56:35.000Z</time>
      </trkpt>
      <trkpt lat="42.3484" lon="1.906398">
        <ele>1686</ele>
        <time>1970-01-01T00:56:36.000Z</time>
      </trkpt>
      <trkpt lat="42.3484" lon="1.906421">
        <ele>1686.3</ele>
        <time>1970-01-01T00:56:37.000Z</time>
      </trkpt>
      <trkpt lat="42.3484" lon="1.906445">
        <ele>1686.7</ele>
        <time>1970-01-01T00:56:38.000Z</time>
      </trkpt>
      <trkpt lat="42.3484" lon="1.906463">
        <ele>1686.9</ele>
        <time>1970-01-01T00:56:39.000Z</time>
      </trkpt>
      <trkpt lat="42.348392" lon="1.906485">
        <ele>1687.3</ele>
        <time>1970-01-01T00:56:40.000Z</time>
      </trkpt>
      <trkpt lat="42.348385" lon="1.906503">
        <ele>1687.6</ele>
        <time>1970-01-01T00:56:41.000Z</time>
      </trkpt>
      <trkpt lat="42.348381" lon="1.90652">
        <ele>1687.8</ele>
        <time>1970-01-01T00:56:42.000Z</time>
      </trkpt>
      <trkpt lat="42.348373" lon="1.906536">
        <ele>1688.1</ele>
        <time>1970-01-01T00:56:43.000Z</time>
      </trkpt>
      <trkpt lat="42.348366" lon="1.906553">
        <ele>1688.3</ele>
        <time>1970-01-01T00:56:44.000Z</time>
      </trkpt>
      <trkpt lat="42.348354" lon="1.906568">
        <ele>1688.6</ele>
        <time>1970-01-01T00:56:45.000Z</time>
      </trkpt>
      <trkpt lat="42.348347" lon="1.906586">
        <ele>1688.9</ele>
        <time>1970-01-01T00:56:46.000Z</time>
      </trkpt>
      <trkpt lat="42.348343" lon="1.9066">
        <ele>1689.1</ele>
        <time>1970-01-01T00:56:47.000Z</time>
      </trkpt>
      <trkpt lat="42.348331" lon="1.906622">
        <ele>1689.4</ele>
        <time>1970-01-01T00:56:48.000Z</time>
      </trkpt>
      <trkpt lat="42.348324" lon="1.906639">
        <ele>1689.7</ele>
        <time>1970-01-01T00:56:49.000Z</time>
      </trkpt>
      <trkpt lat="42.34832" lon="1.906652">
        <ele>1689.9</ele>
        <time>1970-01-01T00:56:50.000Z</time>
      </trkpt>
      <trkpt lat="42.348312" lon="1.906668">
        <ele>1690.1</ele>
        <time>1970-01-01T00:56:51.000Z</time>
      </trkpt>
      <trkpt lat="42.348309" lon="1.906684">
        <ele>1690.4</ele>
        <time>1970-01-01T00:56:52.000Z</time>
      </trkpt>
      <trkpt lat="42.348301" lon="1.906701">
        <ele>1690.6</ele>
        <time>1970-01-01T00:56:53.000Z</time>
      </trkpt>
      <trkpt lat="42.348293" lon="1.906717">
        <ele>1690.9</ele>
        <time>1970-01-01T00:56:54.000Z</time>
      </trkpt>
      <trkpt lat="42.348282" lon="1.906731">
        <ele>1691.1</ele>
        <time>1970-01-01T00:56:55.000Z</time>
      </trkpt>
      <trkpt lat="42.348267" lon="1.906746">
        <ele>1691.5</ele>
        <time>1970-01-01T00:56:56.000Z</time>
      </trkpt>
      <trkpt lat="42.348259" lon="1.90676">
        <ele>1691.7</ele>
        <time>1970-01-01T00:56:57.000Z</time>
      </trkpt>
      <trkpt lat="42.348251" lon="1.906775">
        <ele>1691.9</ele>
        <time>1970-01-01T00:56:58.000Z</time>
      </trkpt>
      <trkpt lat="42.34824" lon="1.906788">
        <ele>1692.2</ele>
        <time>1970-01-01T00:56:59.000Z</time>
      </trkpt>
      <trkpt lat="42.348232" lon="1.906801">
        <ele>1692.4</ele>
        <time>1970-01-01T00:57:00.000Z</time>
      </trkpt>
      <trkpt lat="42.348221" lon="1.906814">
        <ele>1692.6</ele>
        <time>1970-01-01T00:57:01.000Z</time>
      </trkpt>
      <trkpt lat="42.348209" lon="1.906829">
        <ele>1692.8</ele>
        <time>1970-01-01T00:57:02.000Z</time>
      </trkpt>
      <trkpt lat="42.348198" lon="1.906843">
        <ele>1693.1</ele>
        <time>1970-01-01T00:57:03.000Z</time>
      </trkpt>
      <trkpt lat="42.348187" lon="1.906855">
        <ele>1693.3</ele>
        <time>1970-01-01T00:57:04.000Z</time>
      </trkpt>
      <trkpt lat="42.348175" lon="1.906868">
        <ele>1693.5</ele>
        <time>1970-01-01T00:57:05.000Z</time>
      </trkpt>
      <trkpt lat="42.348164" lon="1.906884">
        <ele>1693.8</ele>
        <time>1970-01-01T00:57:06.000Z</time>
      </trkpt>
      <trkpt lat="42.348156" lon="1.906901">
        <ele>1694</ele>
        <time>1970-01-01T00:57:07.000Z</time>
      </trkpt>
      <trkpt lat="42.348148" lon="1.90692">
        <ele>1694.3</ele>
        <time>1970-01-01T00:57:08.000Z</time>
      </trkpt>
      <trkpt lat="42.348145" lon="1.906941">
        <ele>1694.5</ele>
        <time>1970-01-01T00:57:09.000Z</time>
      </trkpt>
      <trkpt lat="42.348137" lon="1.906962">
        <ele>1694.8</ele>
        <time>1970-01-01T00:57:10.000Z</time>
      </trkpt>
      <trkpt lat="42.348137" lon="1.906983">
        <ele>1695</ele>
        <time>1970-01-01T00:57:11.000Z</time>
      </trkpt>
      <trkpt lat="42.348129" lon="1.907003">
        <ele>1695.3</ele>
        <time>1970-01-01T00:57:12.000Z</time>
      </trkpt>
      <trkpt lat="42.348125" lon="1.907022">
        <ele>1695.5</ele>
        <time>1970-01-01T00:57:13.000Z</time>
      </trkpt>
      <trkpt lat="42.348122" lon="1.907042">
        <ele>1695.7</ele>
        <time>1970-01-01T00:57:14.000Z</time>
      </trkpt>
      <trkpt lat="42.348114" lon="1.907061">
        <ele>1696</ele>
        <time>1970-01-01T00:57:15.000Z</time>
      </trkpt>
      <trkpt lat="42.348106" lon="1.907078">
        <ele>1696.2</ele>
        <time>1970-01-01T00:57:16.000Z</time>
      </trkpt>
      <trkpt lat="42.348103" lon="1.907095">
        <ele>1696.4</ele>
        <time>1970-01-01T00:57:17.000Z</time>
      </trkpt>
      <trkpt lat="42.348095" lon="1.907117">
        <ele>1696.7</ele>
        <time>1970-01-01T00:57:18.000Z</time>
      </trkpt>
      <trkpt lat="42.348087" lon="1.907136">
        <ele>1696.9</ele>
        <time>1970-01-01T00:57:19.000Z</time>
      </trkpt>
      <trkpt lat="42.348084" lon="1.907151">
        <ele>1697.1</ele>
        <time>1970-01-01T00:57:20.000Z</time>
      </trkpt>
      <trkpt lat="42.348076" lon="1.907171">
        <ele>1697.3</ele>
        <time>1970-01-01T00:57:21.000Z</time>
      </trkpt>
      <trkpt lat="42.348068" lon="1.90719">
        <ele>1697.6</ele>
        <time>1970-01-01T00:57:22.000Z</time>
      </trkpt>
      <trkpt lat="42.348061" lon="1.907208">
        <ele>1697.8</ele>
        <time>1970-01-01T00:57:23.000Z</time>
      </trkpt>
      <trkpt lat="42.348053" lon="1.907229">
        <ele>1698</ele>
        <time>1970-01-01T00:57:24.000Z</time>
      </trkpt>
      <trkpt lat="42.348045" lon="1.907249">
        <ele>1698.3</ele>
        <time>1970-01-01T00:57:25.000Z</time>
      </trkpt>
      <trkpt lat="42.348038" lon="1.907267">
        <ele>1698.5</ele>
        <time>1970-01-01T00:57:26.000Z</time>
      </trkpt>
      <trkpt lat="42.348034" lon="1.907284">
        <ele>1698.7</ele>
        <time>1970-01-01T00:57:27.000Z</time>
      </trkpt>
      <trkpt lat="42.348022" lon="1.907304">
        <ele>1699</ele>
        <time>1970-01-01T00:57:28.000Z</time>
      </trkpt>
      <trkpt lat="42.348015" lon="1.907321">
        <ele>1699.2</ele>
        <time>1970-01-01T00:57:29.000Z</time>
      </trkpt>
      <trkpt lat="42.348007" lon="1.907336">
        <ele>1699.4</ele>
        <time>1970-01-01T00:57:30.000Z</time>
      </trkpt>
      <trkpt lat="42.348003" lon="1.907352">
        <ele>1699.5</ele>
        <time>1970-01-01T00:57:31.000Z</time>
      </trkpt>
      <trkpt lat="42.348" lon="1.907371">
        <ele>1699.7</ele>
        <time>1970-01-01T00:57:32.000Z</time>
      </trkpt>
      <trkpt lat="42.347996" lon="1.907387">
        <ele>1699.9</ele>
        <time>1970-01-01T00:57:33.000Z</time>
      </trkpt>
      <trkpt lat="42.347988" lon="1.907405">
        <ele>1700.2</ele>
        <time>1970-01-01T00:57:34.000Z</time>
      </trkpt>
      <trkpt lat="42.347981" lon="1.907422">
        <ele>1700.4</ele>
        <time>1970-01-01T00:57:35.000Z</time>
      </trkpt>
      <trkpt lat="42.347973" lon="1.907439">
        <ele>1700.6</ele>
        <time>1970-01-01T00:57:36.000Z</time>
      </trkpt>
      <trkpt lat="42.347965" lon="1.907458">
        <ele>1700.8</ele>
        <time>1970-01-01T00:57:37.000Z</time>
      </trkpt>
      <trkpt lat="42.347961" lon="1.907476">
        <ele>1701</ele>
        <time>1970-01-01T00:57:38.000Z</time>
      </trkpt>
      <trkpt lat="42.347958" lon="1.907494">
        <ele>1701.2</ele>
        <time>1970-01-01T00:57:39.000Z</time>
      </trkpt>
      <trkpt lat="42.34795" lon="1.907509">
        <ele>1701.4</ele>
        <time>1970-01-01T00:57:40.000Z</time>
      </trkpt>
      <trkpt lat="42.347946" lon="1.907524">
        <ele>1701.6</ele>
        <time>1970-01-01T00:57:41.000Z</time>
      </trkpt>
      <trkpt lat="42.347939" lon="1.907542">
        <ele>1701.8</ele>
        <time>1970-01-01T00:57:42.000Z</time>
      </trkpt>
      <trkpt lat="42.347939" lon="1.907558">
        <ele>1702</ele>
        <time>1970-01-01T00:57:43.000Z</time>
      </trkpt>
      <trkpt lat="42.347931" lon="1.907576">
        <ele>1702.2</ele>
        <time>1970-01-01T00:57:44.000Z</time>
      </trkpt>
      <trkpt lat="42.347927" lon="1.907589">
        <ele>1702.4</ele>
        <time>1970-01-01T00:57:45.000Z</time>
      </trkpt>
      <trkpt lat="42.347919" lon="1.907603">
        <ele>1702.6</ele>
        <time>1970-01-01T00:57:46.000Z</time>
      </trkpt>
      <trkpt lat="42.347916" lon="1.907617">
        <ele>1702.7</ele>
        <time>1970-01-01T00:57:47.000Z</time>
      </trkpt>
      <trkpt lat="42.347912" lon="1.907635">
        <ele>1702.9</ele>
        <time>1970-01-01T00:57:48.000Z</time>
      </trkpt>
      <trkpt lat="42.347904" lon="1.907653">
        <ele>1703.2</ele>
        <time>1970-01-01T00:57:49.000Z</time>
      </trkpt>
      <trkpt lat="42.3479" lon="1.907666">
        <ele>1703.3</ele>
        <time>1970-01-01T00:57:50.000Z</time>
      </trkpt>
      <trkpt lat="42.347893" lon="1.907683">
        <ele>1703.5</ele>
        <time>1970-01-01T00:57:51.000Z</time>
      </trkpt>
      <trkpt lat="42.347885" lon="1.907698">
        <ele>1703.7</ele>
        <time>1970-01-01T00:57:52.000Z</time>
      </trkpt>
      <trkpt lat="42.347881" lon="1.907715">
        <ele>1703.9</ele>
        <time>1970-01-01T00:57:53.000Z</time>
      </trkpt>
      <trkpt lat="42.347877" lon="1.907732">
        <ele>1704.1</ele>
        <time>1970-01-01T00:57:54.000Z</time>
      </trkpt>
      <trkpt lat="42.34787" lon="1.907751">
        <ele>1704.3</ele>
        <time>1970-01-01T00:57:55.000Z</time>
      </trkpt>
      <trkpt lat="42.347866" lon="1.907766">
        <ele>1704.5</ele>
        <time>1970-01-01T00:57:56.000Z</time>
      </trkpt>
      <trkpt lat="42.347858" lon="1.907785">
        <ele>1704.7</ele>
        <time>1970-01-01T00:57:57.000Z</time>
      </trkpt>
      <trkpt lat="42.347855" lon="1.907802">
        <ele>1704.9</ele>
        <time>1970-01-01T00:57:58.000Z</time>
      </trkpt>
      <trkpt lat="42.347847" lon="1.907818">
        <ele>1705.1</ele>
        <time>1970-01-01T00:57:59.000Z</time>
      </trkpt>
      <trkpt lat="42.347843" lon="1.907837">
        <ele>1705.3</ele>
        <time>1970-01-01T00:58:00.000Z</time>
      </trkpt>
      <trkpt lat="42.347836" lon="1.907857">
        <ele>1705.5</ele>
        <time>1970-01-01T00:58:01.000Z</time>
      </trkpt>
      <trkpt lat="42.347832" lon="1.907872">
        <ele>1705.6</ele>
        <time>1970-01-01T00:58:02.000Z</time>
      </trkpt>
      <trkpt lat="42.347824" lon="1.907887">
        <ele>1705.8</ele>
        <time>1970-01-01T00:58:03.000Z</time>
      </trkpt>
      <trkpt lat="42.347816" lon="1.907902">
        <ele>1706</ele>
        <time>1970-01-01T00:58:04.000Z</time>
      </trkpt>
      <trkpt lat="42.347809" lon="1.907918">
        <ele>1706.2</ele>
        <time>1970-01-01T00:58:05.000Z</time>
      </trkpt>
      <trkpt lat="42.347801" lon="1.907934">
        <ele>1706.4</ele>
        <time>1970-01-01T00:58:06.000Z</time>
      </trkpt>
      <trkpt lat="42.347794" lon="1.907949">
        <ele>1706.5</ele>
        <time>1970-01-01T00:58:07.000Z</time>
      </trkpt>
      <trkpt lat="42.347782" lon="1.907962">
        <ele>1706.7</ele>
        <time>1970-01-01T00:58:08.000Z</time>
      </trkpt>
      <trkpt lat="42.347778" lon="1.907977">
        <ele>1706.9</ele>
        <time>1970-01-01T00:58:09.000Z</time>
      </trkpt>
      <trkpt lat="42.347774" lon="1.907992">
        <ele>1707.1</ele>
        <time>1970-01-01T00:58:10.000Z</time>
      </trkpt>
      <trkpt lat="42.347767" lon="1.908009">
        <ele>1707.3</ele>
        <time>1970-01-01T00:58:11.000Z</time>
      </trkpt>
      <trkpt lat="42.347763" lon="1.908028">
        <ele>1707.4</ele>
        <time>1970-01-01T00:58:12.000Z</time>
      </trkpt>
      <trkpt lat="42.347759" lon="1.908048">
        <ele>1707.6</ele>
        <time>1970-01-01T00:58:13.000Z</time>
      </trkpt>
      <trkpt lat="42.347755" lon="1.908068">
        <ele>1707.9</ele>
        <time>1970-01-01T00:58:14.000Z</time>
      </trkpt>
      <trkpt lat="42.347752" lon="1.90809">
        <ele>1708.1</ele>
        <time>1970-01-01T00:58:15.000Z</time>
      </trkpt>
      <trkpt lat="42.347748" lon="1.908111">
        <ele>1708.3</ele>
        <time>1970-01-01T00:58:16.000Z</time>
      </trkpt>
      <trkpt lat="42.347744" lon="1.908135">
        <ele>1708.5</ele>
        <time>1970-01-01T00:58:17.000Z</time>
      </trkpt>
      <trkpt lat="42.347736" lon="1.908162">
        <ele>1708.8</ele>
        <time>1970-01-01T00:58:18.000Z</time>
      </trkpt>
      <trkpt lat="42.347729" lon="1.908185">
        <ele>1709.1</ele>
        <time>1970-01-01T00:58:19.000Z</time>
      </trkpt>
      <trkpt lat="42.347725" lon="1.908206">
        <ele>1709.3</ele>
        <time>1970-01-01T00:58:20.000Z</time>
      </trkpt>
      <trkpt lat="42.347717" lon="1.908228">
        <ele>1709.6</ele>
        <time>1970-01-01T00:58:21.000Z</time>
      </trkpt>
      <trkpt lat="42.34771" lon="1.90825">
        <ele>1709.8</ele>
        <time>1970-01-01T00:58:22.000Z</time>
      </trkpt>
      <trkpt lat="42.347702" lon="1.908268">
        <ele>1710.1</ele>
        <time>1970-01-01T00:58:23.000Z</time>
      </trkpt>
      <trkpt lat="42.347698" lon="1.908289">
        <ele>1710.3</ele>
        <time>1970-01-01T00:58:24.000Z</time>
      </trkpt>
      <trkpt lat="42.347694" lon="1.908308">
        <ele>1710.5</ele>
        <time>1970-01-01T00:58:25.000Z</time>
      </trkpt>
      <trkpt lat="42.347698" lon="1.908329">
        <ele>1710.8</ele>
        <time>1970-01-01T00:58:26.000Z</time>
      </trkpt>
      <trkpt lat="42.347698" lon="1.90835">
        <ele>1711</ele>
        <time>1970-01-01T00:58:27.000Z</time>
      </trkpt>
      <trkpt lat="42.347698" lon="1.90837">
        <ele>1711.2</ele>
        <time>1970-01-01T00:58:28.000Z</time>
      </trkpt>
      <trkpt lat="42.347691" lon="1.908389">
        <ele>1711.5</ele>
        <time>1970-01-01T00:58:29.000Z</time>
      </trkpt>
      <trkpt lat="42.347683" lon="1.908409">
        <ele>1711.7</ele>
        <time>1970-01-01T00:58:30.000Z</time>
      </trkpt>
      <trkpt lat="42.347672" lon="1.908428">
        <ele>1712</ele>
        <time>1970-01-01T00:58:31.000Z</time>
      </trkpt>
      <trkpt lat="42.347664" lon="1.908445">
        <ele>1712.2</ele>
        <time>1970-01-01T00:58:32.000Z</time>
      </trkpt>
      <trkpt lat="42.34766" lon="1.908467">
        <ele>1712.4</ele>
        <time>1970-01-01T00:58:33.000Z</time>
      </trkpt>
      <trkpt lat="42.347656" lon="1.908488">
        <ele>1712.7</ele>
        <time>1970-01-01T00:58:34.000Z</time>
      </trkpt>
      <trkpt lat="42.347652" lon="1.908508">
        <ele>1712.9</ele>
        <time>1970-01-01T00:58:35.000Z</time>
      </trkpt>
      <trkpt lat="42.347649" lon="1.908528">
        <ele>1713.1</ele>
        <time>1970-01-01T00:58:36.000Z</time>
      </trkpt>
      <trkpt lat="42.347645" lon="1.90855">
        <ele>1713.4</ele>
        <time>1970-01-01T00:58:37.000Z</time>
      </trkpt>
      <trkpt lat="42.347645" lon="1.90857">
        <ele>1713.6</ele>
        <time>1970-01-01T00:58:38.000Z</time>
      </trkpt>
      <trkpt lat="42.347645" lon="1.908594">
        <ele>1713.9</ele>
        <time>1970-01-01T00:58:39.000Z</time>
      </trkpt>
      <trkpt lat="42.347645" lon="1.908616">
        <ele>1714.1</ele>
        <time>1970-01-01T00:58:40.000Z</time>
      </trkpt>
      <trkpt lat="42.347641" lon="1.908637">
        <ele>1714.4</ele>
        <time>1970-01-01T00:58:41.000Z</time>
      </trkpt>
      <trkpt lat="42.347641" lon="1.908658">
        <ele>1714.6</ele>
        <time>1970-01-01T00:58:42.000Z</time>
      </trkpt>
      <trkpt lat="42.347637" lon="1.908678">
        <ele>1714.8</ele>
        <time>1970-01-01T00:58:43.000Z</time>
      </trkpt>
      <trkpt lat="42.347637" lon="1.908694">
        <ele>1715</ele>
        <time>1970-01-01T00:58:44.000Z</time>
      </trkpt>
      <trkpt lat="42.347633" lon="1.908714">
        <ele>1715.2</ele>
        <time>1970-01-01T00:58:45.000Z</time>
      </trkpt>
      <trkpt lat="42.34763" lon="1.908734">
        <ele>1715.4</ele>
        <time>1970-01-01T00:58:46.000Z</time>
      </trkpt>
      <trkpt lat="42.347626" lon="1.908755">
        <ele>1715.6</ele>
        <time>1970-01-01T00:58:47.000Z</time>
      </trkpt>
      <trkpt lat="42.347622" lon="1.908771">
        <ele>1715.8</ele>
        <time>1970-01-01T00:58:48.000Z</time>
      </trkpt>
      <trkpt lat="42.347622" lon="1.908791">
        <ele>1716</ele>
        <time>1970-01-01T00:58:49.000Z</time>
      </trkpt>
      <trkpt lat="42.347618" lon="1.908811">
        <ele>1716.2</ele>
        <time>1970-01-01T00:58:50.000Z</time>
      </trkpt>
      <trkpt lat="42.347618" lon="1.908828">
        <ele>1716.4</ele>
        <time>1970-01-01T00:58:51.000Z</time>
      </trkpt>
      <trkpt lat="42.347618" lon="1.908849">
        <ele>1716.6</ele>
        <time>1970-01-01T00:58:52.000Z</time>
      </trkpt>
      <trkpt lat="42.347614" lon="1.908873">
        <ele>1716.9</ele>
        <time>1970-01-01T00:58:53.000Z</time>
      </trkpt>
      <trkpt lat="42.34761" lon="1.908895">
        <ele>1717.1</ele>
        <time>1970-01-01T00:58:54.000Z</time>
      </trkpt>
      <trkpt lat="42.347607" lon="1.908913">
        <ele>1717.3</ele>
        <time>1970-01-01T00:58:55.000Z</time>
      </trkpt>
      <trkpt lat="42.347607" lon="1.90893">
        <ele>1717.5</ele>
        <time>1970-01-01T00:58:56.000Z</time>
      </trkpt>
      <trkpt lat="42.347607" lon="1.90895">
        <ele>1717.7</ele>
        <time>1970-01-01T00:58:57.000Z</time>
      </trkpt>
      <trkpt lat="42.347603" lon="1.908973">
        <ele>1718</ele>
        <time>1970-01-01T00:58:58.000Z</time>
      </trkpt>
      <trkpt lat="42.347607" lon="1.908995">
        <ele>1718.2</ele>
        <time>1970-01-01T00:58:59.000Z</time>
      </trkpt>
      <trkpt lat="42.34761" lon="1.909017">
        <ele>1718.5</ele>
        <time>1970-01-01T00:59:00.000Z</time>
      </trkpt>
      <trkpt lat="42.347618" lon="1.909041">
        <ele>1718.8</ele>
        <time>1970-01-01T00:59:01.000Z</time>
      </trkpt>
      <trkpt lat="42.347618" lon="1.909069">
        <ele>1719.1</ele>
        <time>1970-01-01T00:59:02.000Z</time>
      </trkpt>
      <trkpt lat="42.347618" lon="1.909096">
        <ele>1719.4</ele>
        <time>1970-01-01T00:59:03.000Z</time>
      </trkpt>
      <trkpt lat="42.347618" lon="1.90912">
        <ele>1719.7</ele>
        <time>1970-01-01T00:59:04.000Z</time>
      </trkpt>
      <trkpt lat="42.347618" lon="1.909143">
        <ele>1720</ele>
        <time>1970-01-01T00:59:05.000Z</time>
      </trkpt>
      <trkpt lat="42.347618" lon="1.909163">
        <ele>1720.3</ele>
        <time>1970-01-01T00:59:06.000Z</time>
      </trkpt>
      <trkpt lat="42.347618" lon="1.909182">
        <ele>1720.6</ele>
        <time>1970-01-01T00:59:07.000Z</time>
      </trkpt>
      <trkpt lat="42.347618" lon="1.909202">
        <ele>1720.8</ele>
        <time>1970-01-01T00:59:08.000Z</time>
      </trkpt>
      <trkpt lat="42.347618" lon="1.909222">
        <ele>1721.1</ele>
        <time>1970-01-01T00:59:09.000Z</time>
      </trkpt>
      <trkpt lat="42.347618" lon="1.909243">
        <ele>1721.4</ele>
        <time>1970-01-01T00:59:10.000Z</time>
      </trkpt>
      <trkpt lat="42.347618" lon="1.90926">
        <ele>1721.6</ele>
        <time>1970-01-01T00:59:11.000Z</time>
      </trkpt>
      <trkpt lat="42.347618" lon="1.909279">
        <ele>1721.9</ele>
        <time>1970-01-01T00:59:12.000Z</time>
      </trkpt>
      <trkpt lat="42.347614" lon="1.909303">
        <ele>1722.2</ele>
        <time>1970-01-01T00:59:13.000Z</time>
      </trkpt>
      <trkpt lat="42.347618" lon="1.909326">
        <ele>1722.6</ele>
        <time>1970-01-01T00:59:14.000Z</time>
      </trkpt>
      <trkpt lat="42.347618" lon="1.90935">
        <ele>1722.9</ele>
        <time>1970-01-01T00:59:15.000Z</time>
      </trkpt>
      <trkpt lat="42.347622" lon="1.909371">
        <ele>1723.1</ele>
        <time>1970-01-01T00:59:16.000Z</time>
      </trkpt>
      <trkpt lat="42.347618" lon="1.909391">
        <ele>1723.4</ele>
        <time>1970-01-01T00:59:17.000Z</time>
      </trkpt>
      <trkpt lat="42.347622" lon="1.909412">
        <ele>1723.7</ele>
        <time>1970-01-01T00:59:18.000Z</time>
      </trkpt>
      <trkpt lat="42.347626" lon="1.909435">
        <ele>1724</ele>
        <time>1970-01-01T00:59:19.000Z</time>
      </trkpt>
      <trkpt lat="42.347633" lon="1.909456">
        <ele>1724.2</ele>
        <time>1970-01-01T00:59:20.000Z</time>
      </trkpt>
      <trkpt lat="42.347641" lon="1.90948">
        <ele>1724.6</ele>
        <time>1970-01-01T00:59:21.000Z</time>
      </trkpt>
      <trkpt lat="42.347645" lon="1.909502">
        <ele>1724.8</ele>
        <time>1970-01-01T00:59:22.000Z</time>
      </trkpt>
      <trkpt lat="42.347649" lon="1.909525">
        <ele>1725.1</ele>
        <time>1970-01-01T00:59:23.000Z</time>
      </trkpt>
      <trkpt lat="42.347649" lon="1.90955">
        <ele>1725.4</ele>
        <time>1970-01-01T00:59:24.000Z</time>
      </trkpt>
      <trkpt lat="42.347656" lon="1.909574">
        <ele>1725.7</ele>
        <time>1970-01-01T00:59:25.000Z</time>
      </trkpt>
      <trkpt lat="42.34766" lon="1.909594">
        <ele>1725.9</ele>
        <time>1970-01-01T00:59:26.000Z</time>
      </trkpt>
      <trkpt lat="42.347664" lon="1.90961">
        <ele>1726.1</ele>
        <time>1970-01-01T00:59:27.000Z</time>
      </trkpt>
      <trkpt lat="42.347672" lon="1.90963">
        <ele>1726.3</ele>
        <time>1970-01-01T00:59:28.000Z</time>
      </trkpt>
      <trkpt lat="42.347679" lon="1.909651">
        <ele>1726.6</ele>
        <time>1970-01-01T00:59:29.000Z</time>
      </trkpt>
      <trkpt lat="42.347694" lon="1.909674">
        <ele>1727</ele>
        <time>1970-01-01T00:59:30.000Z</time>
      </trkpt>
      <trkpt lat="42.347698" lon="1.909696">
        <ele>1727.2</ele>
        <time>1970-01-01T00:59:31.000Z</time>
      </trkpt>
      <trkpt lat="42.347702" lon="1.909715">
        <ele>1727.5</ele>
        <time>1970-01-01T00:59:32.000Z</time>
      </trkpt>
      <trkpt lat="42.347702" lon="1.909737">
        <ele>1727.7</ele>
        <time>1970-01-01T00:59:33.000Z</time>
      </trkpt>
      <trkpt lat="42.347702" lon="1.90976">
        <ele>1728</ele>
        <time>1970-01-01T00:59:34.000Z</time>
      </trkpt>
      <trkpt lat="42.347698" lon="1.909785">
        <ele>1728.3</ele>
        <time>1970-01-01T00:59:35.000Z</time>
      </trkpt>
      <trkpt lat="42.347698" lon="1.909806">
        <ele>1728.6</ele>
        <time>1970-01-01T00:59:36.000Z</time>
      </trkpt>
      <trkpt lat="42.347694" lon="1.909825">
        <ele>1728.8</ele>
        <time>1970-01-01T00:59:37.000Z</time>
      </trkpt>
      <trkpt lat="42.347691" lon="1.909844">
        <ele>1729</ele>
        <time>1970-01-01T00:59:38.000Z</time>
      </trkpt>
      <trkpt lat="42.347687" lon="1.909861">
        <ele>1729.3</ele>
        <time>1970-01-01T00:59:39.000Z</time>
      </trkpt>
      <trkpt lat="42.347687" lon="1.909879">
        <ele>1729.5</ele>
        <time>1970-01-01T00:59:40.000Z</time>
      </trkpt>
      <trkpt lat="42.347683" lon="1.909898">
        <ele>1729.7</ele>
        <time>1970-01-01T00:59:41.000Z</time>
      </trkpt>
      <trkpt lat="42.347679" lon="1.909914">
        <ele>1729.9</ele>
        <time>1970-01-01T00:59:42.000Z</time>
      </trkpt>
      <trkpt lat="42.347672" lon="1.909933">
        <ele>1730.1</ele>
        <time>1970-01-01T00:59:43.000Z</time>
      </trkpt>
      <trkpt lat="42.347672" lon="1.909949">
        <ele>1730.3</ele>
        <time>1970-01-01T00:59:44.000Z</time>
      </trkpt>
      <trkpt lat="42.347672" lon="1.909966">
        <ele>1730.5</ele>
        <time>1970-01-01T00:59:45.000Z</time>
      </trkpt>
      <trkpt lat="42.347668" lon="1.909979">
        <ele>1730.7</ele>
        <time>1970-01-01T00:59:46.000Z</time>
      </trkpt>
      <trkpt lat="42.34766" lon="1.909991">
        <ele>1730.9</ele>
        <time>1970-01-01T00:59:47.000Z</time>
      </trkpt>
      <trkpt lat="42.347656" lon="1.910006">
        <ele>1731</ele>
        <time>1970-01-01T00:59:48.000Z</time>
      </trkpt>
      <trkpt lat="42.347649" lon="1.910024">
        <ele>1731.3</ele>
        <time>1970-01-01T00:59:49.000Z</time>
      </trkpt>
      <trkpt lat="42.347645" lon="1.910043">
        <ele>1731.5</ele>
        <time>1970-01-01T00:59:50.000Z</time>
      </trkpt>
      <trkpt lat="42.347633" lon="1.91006">
        <ele>1731.7</ele>
        <time>1970-01-01T00:59:51.000Z</time>
      </trkpt>
      <trkpt lat="42.347622" lon="1.910076">
        <ele>1732</ele>
        <time>1970-01-01T00:59:52.000Z</time>
      </trkpt>
      <trkpt lat="42.34761" lon="1.910091">
        <ele>1732.2</ele>
        <time>1970-01-01T00:59:53.000Z</time>
      </trkpt>
      <trkpt lat="42.347599" lon="1.910105">
        <ele>1732.4</ele>
        <time>1970-01-01T00:59:54.000Z</time>
      </trkpt>
      <trkpt lat="42.347588" lon="1.910119">
        <ele>1732.6</ele>
        <time>1970-01-01T00:59:55.000Z</time>
      </trkpt>
      <trkpt lat="42.347576" lon="1.910136">
        <ele>1732.9</ele>
        <time>1970-01-01T00:59:56.000Z</time>
      </trkpt>
      <trkpt lat="42.347569" lon="1.910153">
        <ele>1733.1</ele>
        <time>1970-01-01T00:59:57.000Z</time>
      </trkpt>
      <trkpt lat="42.347557" lon="1.910168">
        <ele>1733.3</ele>
        <time>1970-01-01T00:59:58.000Z</time>
      </trkpt>
      <trkpt lat="42.347542" lon="1.910184">
        <ele>1733.5</ele>
        <time>1970-01-01T00:59:59.000Z</time>
      </trkpt>
      <trkpt lat="42.347534" lon="1.910198">
        <ele>1733.7</ele>
        <time>1970-01-01T01:00:00.000Z</time>
      </trkpt>
      <trkpt lat="42.347527" lon="1.910212">
        <ele>1733.9</ele>
        <time>1970-01-01T01:00:01.000Z</time>
      </trkpt>
      <trkpt lat="42.347515" lon="1.910223">
        <ele>1734.1</ele>
        <time>1970-01-01T01:00:02.000Z</time>
      </trkpt>
      <trkpt lat="42.347508" lon="1.910236">
        <ele>1734.2</ele>
        <time>1970-01-01T01:00:03.000Z</time>
      </trkpt>
      <trkpt lat="42.347496" lon="1.91025">
        <ele>1734.5</ele>
        <time>1970-01-01T01:00:04.000Z</time>
      </trkpt>
      <trkpt lat="42.347481" lon="1.910263">
        <ele>1734.7</ele>
        <time>1970-01-01T01:00:05.000Z</time>
      </trkpt>
      <trkpt lat="42.347469" lon="1.910278">
        <ele>1734.9</ele>
        <time>1970-01-01T01:00:06.000Z</time>
      </trkpt>
      <trkpt lat="42.347462" lon="1.910292">
        <ele>1735.1</ele>
        <time>1970-01-01T01:00:07.000Z</time>
      </trkpt>
      <trkpt lat="42.347458" lon="1.910309">
        <ele>1735.2</ele>
        <time>1970-01-01T01:00:08.000Z</time>
      </trkpt>
      <trkpt lat="42.347458" lon="1.910332">
        <ele>1735.4</ele>
        <time>1970-01-01T01:00:09.000Z</time>
      </trkpt>
      <trkpt lat="42.34745" lon="1.910352">
        <ele>1735.6</ele>
        <time>1970-01-01T01:00:10.000Z</time>
      </trkpt>
      <trkpt lat="42.347446" lon="1.910371">
        <ele>1735.8</ele>
        <time>1970-01-01T01:00:11.000Z</time>
      </trkpt>
      <trkpt lat="42.347435" lon="1.910389">
        <ele>1736</ele>
        <time>1970-01-01T01:00:12.000Z</time>
      </trkpt>
      <trkpt lat="42.347431" lon="1.910408">
        <ele>1736.2</ele>
        <time>1970-01-01T01:00:13.000Z</time>
      </trkpt>
      <trkpt lat="42.347424" lon="1.910428">
        <ele>1736.4</ele>
        <time>1970-01-01T01:00:14.000Z</time>
      </trkpt>
      <trkpt lat="42.347416" lon="1.910449">
        <ele>1736.6</ele>
        <time>1970-01-01T01:00:15.000Z</time>
      </trkpt>
      <trkpt lat="42.347408" lon="1.910471">
        <ele>1736.8</ele>
        <time>1970-01-01T01:00:16.000Z</time>
      </trkpt>
      <trkpt lat="42.347405" lon="1.910492">
        <ele>1737</ele>
        <time>1970-01-01T01:00:17.000Z</time>
      </trkpt>
      <trkpt lat="42.347405" lon="1.910515">
        <ele>1737.2</ele>
        <time>1970-01-01T01:00:18.000Z</time>
      </trkpt>
      <trkpt lat="42.347405" lon="1.91054">
        <ele>1737.5</ele>
        <time>1970-01-01T01:00:19.000Z</time>
      </trkpt>
      <trkpt lat="42.347405" lon="1.910565">
        <ele>1737.7</ele>
        <time>1970-01-01T01:00:20.000Z</time>
      </trkpt>
      <trkpt lat="42.347401" lon="1.910588">
        <ele>1738</ele>
        <time>1970-01-01T01:00:21.000Z</time>
      </trkpt>
      <trkpt lat="42.347397" lon="1.910609">
        <ele>1738.2</ele>
        <time>1970-01-01T01:00:22.000Z</time>
      </trkpt>
      <trkpt lat="42.347389" lon="1.910628">
        <ele>1738.4</ele>
        <time>1970-01-01T01:00:23.000Z</time>
      </trkpt>
      <trkpt lat="42.347382" lon="1.910646">
        <ele>1738.6</ele>
        <time>1970-01-01T01:00:24.000Z</time>
      </trkpt>
      <trkpt lat="42.347378" lon="1.910667">
        <ele>1738.9</ele>
        <time>1970-01-01T01:00:25.000Z</time>
      </trkpt>
      <trkpt lat="42.34737" lon="1.910686">
        <ele>1739.1</ele>
        <time>1970-01-01T01:00:26.000Z</time>
      </trkpt>
      <trkpt lat="42.347355" lon="1.910702">
        <ele>1739.4</ele>
        <time>1970-01-01T01:00:27.000Z</time>
      </trkpt>
      <trkpt lat="42.347343" lon="1.910715">
        <ele>1739.6</ele>
        <time>1970-01-01T01:00:28.000Z</time>
      </trkpt>
      <trkpt lat="42.347328" lon="1.910731">
        <ele>1740</ele>
        <time>1970-01-01T01:00:29.000Z</time>
      </trkpt>
      <trkpt lat="42.347317" lon="1.910748">
        <ele>1740.2</ele>
        <time>1970-01-01T01:00:30.000Z</time>
      </trkpt>
      <trkpt lat="42.347301" lon="1.910768">
        <ele>1740.6</ele>
        <time>1970-01-01T01:00:31.000Z</time>
      </trkpt>
      <trkpt lat="42.34729" lon="1.910783">
        <ele>1740.9</ele>
        <time>1970-01-01T01:00:32.000Z</time>
      </trkpt>
      <trkpt lat="42.347279" lon="1.910799">
        <ele>1741.1</ele>
        <time>1970-01-01T01:00:33.000Z</time>
      </trkpt>
      <trkpt lat="42.347263" lon="1.910815">
        <ele>1741.4</ele>
        <time>1970-01-01T01:00:34.000Z</time>
      </trkpt>
      <trkpt lat="42.347248" lon="1.910834">
        <ele>1741.8</ele>
        <time>1970-01-01T01:00:35.000Z</time>
      </trkpt>
      <trkpt lat="42.347233" lon="1.910853">
        <ele>1742.1</ele>
        <time>1970-01-01T01:00:36.000Z</time>
      </trkpt>
      <trkpt lat="42.347214" lon="1.910871">
        <ele>1742.5</ele>
        <time>1970-01-01T01:00:37.000Z</time>
      </trkpt>
      <trkpt lat="42.347198" lon="1.910888">
        <ele>1742.8</ele>
        <time>1970-01-01T01:00:38.000Z</time>
      </trkpt>
      <trkpt lat="42.347183" lon="1.910904">
        <ele>1743.2</ele>
        <time>1970-01-01T01:00:39.000Z</time>
      </trkpt>
      <trkpt lat="42.347168" lon="1.91092">
        <ele>1743.5</ele>
        <time>1970-01-01T01:00:40.000Z</time>
      </trkpt>
      <trkpt lat="42.347149" lon="1.910938">
        <ele>1743.9</ele>
        <time>1970-01-01T01:00:41.000Z</time>
      </trkpt>
      <trkpt lat="42.34713" lon="1.910956">
        <ele>1744.2</ele>
        <time>1970-01-01T01:00:42.000Z</time>
      </trkpt>
      <trkpt lat="42.347115" lon="1.910977">
        <ele>1744.6</ele>
        <time>1970-01-01T01:00:43.000Z</time>
      </trkpt>
      <trkpt lat="42.347099" lon="1.911002">
        <ele>1745</ele>
        <time>1970-01-01T01:00:44.000Z</time>
      </trkpt>
      <trkpt lat="42.347088" lon="1.911024">
        <ele>1745.3</ele>
        <time>1970-01-01T01:00:45.000Z</time>
      </trkpt>
      <trkpt lat="42.347069" lon="1.911041">
        <ele>1745.6</ele>
        <time>1970-01-01T01:00:46.000Z</time>
      </trkpt>
      <trkpt lat="42.347054" lon="1.911054">
        <ele>1745.9</ele>
        <time>1970-01-01T01:00:47.000Z</time>
      </trkpt>
      <trkpt lat="42.347034" lon="1.911068">
        <ele>1746.2</ele>
        <time>1970-01-01T01:00:48.000Z</time>
      </trkpt>
      <trkpt lat="42.347015" lon="1.911088">
        <ele>1746.5</ele>
        <time>1970-01-01T01:00:49.000Z</time>
      </trkpt>
      <trkpt lat="42.347" lon="1.911104">
        <ele>1746.8</ele>
        <time>1970-01-01T01:00:50.000Z</time>
      </trkpt>
      <trkpt lat="42.346985" lon="1.911123">
        <ele>1747</ele>
        <time>1970-01-01T01:00:51.000Z</time>
      </trkpt>
      <trkpt lat="42.34697" lon="1.911135">
        <ele>1747.2</ele>
        <time>1970-01-01T01:00:52.000Z</time>
      </trkpt>
      <trkpt lat="42.346958" lon="1.911151">
        <ele>1747.4</ele>
        <time>1970-01-01T01:00:53.000Z</time>
      </trkpt>
      <trkpt lat="42.346939" lon="1.911171">
        <ele>1747.7</ele>
        <time>1970-01-01T01:00:54.000Z</time>
      </trkpt>
      <trkpt lat="42.346924" lon="1.911193">
        <ele>1748</ele>
        <time>1970-01-01T01:00:55.000Z</time>
      </trkpt>
      <trkpt lat="42.346909" lon="1.911213">
        <ele>1748.3</ele>
        <time>1970-01-01T01:00:56.000Z</time>
      </trkpt>
      <trkpt lat="42.346893" lon="1.911228">
        <ele>1748.5</ele>
        <time>1970-01-01T01:00:57.000Z</time>
      </trkpt>
      <trkpt lat="42.346874" lon="1.91124">
        <ele>1748.8</ele>
        <time>1970-01-01T01:00:58.000Z</time>
      </trkpt>
      <trkpt lat="42.346855" lon="1.91125">
        <ele>1749</ele>
        <time>1970-01-01T01:00:59.000Z</time>
      </trkpt>
      <trkpt lat="42.34684" lon="1.911253">
        <ele>1749.2</ele>
        <time>1970-01-01T01:01:00.000Z</time>
      </trkpt>
      <trkpt lat="42.346817" lon="1.911253">
        <ele>1749.5</ele>
        <time>1970-01-01T01:01:01.000Z</time>
      </trkpt>
      <trkpt lat="42.346798" lon="1.911253">
        <ele>1749.7</ele>
        <time>1970-01-01T01:01:02.000Z</time>
      </trkpt>
      <trkpt lat="42.346779" lon="1.911256">
        <ele>1749.9</ele>
        <time>1970-01-01T01:01:03.000Z</time>
      </trkpt>
      <trkpt lat="42.34676" lon="1.911263">
        <ele>1750.1</ele>
        <time>1970-01-01T01:01:04.000Z</time>
      </trkpt>
      <trkpt lat="42.346745" lon="1.911268">
        <ele>1750.3</ele>
        <time>1970-01-01T01:01:05.000Z</time>
      </trkpt>
      <trkpt lat="42.346729" lon="1.911274">
        <ele>1750.5</ele>
        <time>1970-01-01T01:01:06.000Z</time>
      </trkpt>
      <trkpt lat="42.34671" lon="1.911281">
        <ele>1750.7</ele>
        <time>1970-01-01T01:01:07.000Z</time>
      </trkpt>
      <trkpt lat="42.346695" lon="1.91129">
        <ele>1750.9</ele>
        <time>1970-01-01T01:01:08.000Z</time>
      </trkpt>
      <trkpt lat="42.346676" lon="1.9113">
        <ele>1751.1</ele>
        <time>1970-01-01T01:01:09.000Z</time>
      </trkpt>
      <trkpt lat="42.346661" lon="1.911307">
        <ele>1751.3</ele>
        <time>1970-01-01T01:01:10.000Z</time>
      </trkpt>
      <trkpt lat="42.346642" lon="1.911314">
        <ele>1751.5</ele>
        <time>1970-01-01T01:01:11.000Z</time>
      </trkpt>
      <trkpt lat="42.346622" lon="1.911322">
        <ele>1751.7</ele>
        <time>1970-01-01T01:01:12.000Z</time>
      </trkpt>
      <trkpt lat="42.346603" lon="1.911329">
        <ele>1751.9</ele>
        <time>1970-01-01T01:01:13.000Z</time>
      </trkpt>
      <trkpt lat="42.346584" lon="1.911333">
        <ele>1752.2</ele>
        <time>1970-01-01T01:01:14.000Z</time>
      </trkpt>
      <trkpt lat="42.346565" lon="1.911341">
        <ele>1752.4</ele>
        <time>1970-01-01T01:01:15.000Z</time>
      </trkpt>
      <trkpt lat="42.34655" lon="1.911352">
        <ele>1752.6</ele>
        <time>1970-01-01T01:01:16.000Z</time>
      </trkpt>
      <trkpt lat="42.346535" lon="1.911362">
        <ele>1752.7</ele>
        <time>1970-01-01T01:01:17.000Z</time>
      </trkpt>
      <trkpt lat="42.346519" lon="1.911369">
        <ele>1752.9</ele>
        <time>1970-01-01T01:01:18.000Z</time>
      </trkpt>
      <trkpt lat="42.346504" lon="1.911372">
        <ele>1753.1</ele>
        <time>1970-01-01T01:01:19.000Z</time>
      </trkpt>
      <trkpt lat="42.346489" lon="1.911378">
        <ele>1753.2</ele>
        <time>1970-01-01T01:01:20.000Z</time>
      </trkpt>
      <trkpt lat="42.346474" lon="1.911382">
        <ele>1753.4</ele>
        <time>1970-01-01T01:01:21.000Z</time>
      </trkpt>
      <trkpt lat="42.346458" lon="1.911389">
        <ele>1753.6</ele>
        <time>1970-01-01T01:01:22.000Z</time>
      </trkpt>
      <trkpt lat="42.346443" lon="1.911394">
        <ele>1753.7</ele>
        <time>1970-01-01T01:01:23.000Z</time>
      </trkpt>
      <trkpt lat="42.34642" lon="1.911392">
        <ele>1754</ele>
        <time>1970-01-01T01:01:24.000Z</time>
      </trkpt>
      <trkpt lat="42.346405" lon="1.911393">
        <ele>1754.1</ele>
        <time>1970-01-01T01:01:25.000Z</time>
      </trkpt>
      <trkpt lat="42.346394" lon="1.911395">
        <ele>1754.2</ele>
        <time>1970-01-01T01:01:26.000Z</time>
      </trkpt>
      <trkpt lat="42.346378" lon="1.911395">
        <ele>1754.4</ele>
        <time>1970-01-01T01:01:27.000Z</time>
      </trkpt>
      <trkpt lat="42.346363" lon="1.911394">
        <ele>1754.6</ele>
        <time>1970-01-01T01:01:28.000Z</time>
      </trkpt>
      <trkpt lat="42.346348" lon="1.911392">
        <ele>1754.7</ele>
        <time>1970-01-01T01:01:29.000Z</time>
      </trkpt>
      <trkpt lat="42.346329" lon="1.911387">
        <ele>1754.9</ele>
        <time>1970-01-01T01:01:30.000Z</time>
      </trkpt>
      <trkpt lat="42.346306" lon="1.911375">
        <ele>1755.2</ele>
        <time>1970-01-01T01:01:31.000Z</time>
      </trkpt>
      <trkpt lat="42.346287" lon="1.91137">
        <ele>1755.4</ele>
        <time>1970-01-01T01:01:32.000Z</time>
      </trkpt>
      <trkpt lat="42.346268" lon="1.911371">
        <ele>1755.6</ele>
        <time>1970-01-01T01:01:33.000Z</time>
      </trkpt>
      <trkpt lat="42.346252" lon="1.911372">
        <ele>1755.8</ele>
        <time>1970-01-01T01:01:34.000Z</time>
      </trkpt>
      <trkpt lat="42.346237" lon="1.911372">
        <ele>1755.9</ele>
        <time>1970-01-01T01:01:35.000Z</time>
      </trkpt>
      <trkpt lat="42.346222" lon="1.911373">
        <ele>1756.1</ele>
        <time>1970-01-01T01:01:36.000Z</time>
      </trkpt>
      <trkpt lat="42.346199" lon="1.911378">
        <ele>1756.3</ele>
        <time>1970-01-01T01:01:37.000Z</time>
      </trkpt>
      <trkpt lat="42.34618" lon="1.911377">
        <ele>1756.6</ele>
        <time>1970-01-01T01:01:38.000Z</time>
      </trkpt>
      <trkpt lat="42.346161" lon="1.911381">
        <ele>1756.8</ele>
        <time>1970-01-01T01:01:39.000Z</time>
      </trkpt>
      <trkpt lat="42.346142" lon="1.911385">
        <ele>1757</ele>
        <time>1970-01-01T01:01:40.000Z</time>
      </trkpt>
      <trkpt lat="42.346115" lon="1.911381">
        <ele>1757.3</ele>
        <time>1970-01-01T01:01:41.000Z</time>
      </trkpt>
      <trkpt lat="42.346092" lon="1.911379">
        <ele>1757.5</ele>
        <time>1970-01-01T01:01:42.000Z</time>
      </trkpt>
      <trkpt lat="42.346073" lon="1.911371">
        <ele>1757.8</ele>
        <time>1970-01-01T01:01:43.000Z</time>
      </trkpt>
      <trkpt lat="42.346054" lon="1.911366">
        <ele>1758</ele>
        <time>1970-01-01T01:01:44.000Z</time>
      </trkpt>
      <trkpt lat="42.346039" lon="1.911371">
        <ele>1758.1</ele>
        <time>1970-01-01T01:01:45.000Z</time>
      </trkpt>
      <trkpt lat="42.34602" lon="1.911375">
        <ele>1758.4</ele>
        <time>1970-01-01T01:01:46.000Z</time>
      </trkpt>
      <trkpt lat="42.346001" lon="1.911371">
        <ele>1758.6</ele>
        <time>1970-01-01T01:01:47.000Z</time>
      </trkpt>
      <trkpt lat="42.345985" lon="1.911369">
        <ele>1758.7</ele>
        <time>1970-01-01T01:01:48.000Z</time>
      </trkpt>
      <trkpt lat="42.345966" lon="1.911366">
        <ele>1759</ele>
        <time>1970-01-01T01:01:49.000Z</time>
      </trkpt>
      <trkpt lat="42.345951" lon="1.911362">
        <ele>1759.1</ele>
        <time>1970-01-01T01:01:50.000Z</time>
      </trkpt>
      <trkpt lat="42.345932" lon="1.911357">
        <ele>1759.3</ele>
        <time>1970-01-01T01:01:51.000Z</time>
      </trkpt>
      <trkpt lat="42.345917" lon="1.911351">
        <ele>1759.5</ele>
        <time>1970-01-01T01:01:52.000Z</time>
      </trkpt>
      <trkpt lat="42.345898" lon="1.911344">
        <ele>1759.7</ele>
        <time>1970-01-01T01:01:53.000Z</time>
      </trkpt>
      <trkpt lat="42.345882" lon="1.911343">
        <ele>1759.9</ele>
        <time>1970-01-01T01:01:54.000Z</time>
      </trkpt>
      <trkpt lat="42.345867" lon="1.911343">
        <ele>1760.1</ele>
        <time>1970-01-01T01:01:55.000Z</time>
      </trkpt>
      <trkpt lat="42.345852" lon="1.911339">
        <ele>1760.2</ele>
        <time>1970-01-01T01:01:56.000Z</time>
      </trkpt>
      <trkpt lat="42.345837" lon="1.91133">
        <ele>1760.4</ele>
        <time>1970-01-01T01:01:57.000Z</time>
      </trkpt>
      <trkpt lat="42.345821" lon="1.911321">
        <ele>1760.6</ele>
        <time>1970-01-01T01:01:58.000Z</time>
      </trkpt>
      <trkpt lat="42.34581" lon="1.911314">
        <ele>1760.7</ele>
        <time>1970-01-01T01:01:59.000Z</time>
      </trkpt>
      <trkpt lat="42.345791" lon="1.911308">
        <ele>1761</ele>
        <time>1970-01-01T01:02:00.000Z</time>
      </trkpt>
      <trkpt lat="42.345776" lon="1.9113">
        <ele>1761.1</ele>
        <time>1970-01-01T01:02:01.000Z</time>
      </trkpt>
      <trkpt lat="42.34576" lon="1.911293">
        <ele>1761.3</ele>
        <time>1970-01-01T01:02:02.000Z</time>
      </trkpt>
      <trkpt lat="42.345745" lon="1.911288">
        <ele>1761.5</ele>
        <time>1970-01-01T01:02:03.000Z</time>
      </trkpt>
      <trkpt lat="42.34573" lon="1.911283">
        <ele>1761.7</ele>
        <time>1970-01-01T01:02:04.000Z</time>
      </trkpt>
      <trkpt lat="42.345715" lon="1.911279">
        <ele>1761.9</ele>
        <time>1970-01-01T01:02:05.000Z</time>
      </trkpt>
      <trkpt lat="42.345699" lon="1.911274">
        <ele>1762.1</ele>
        <time>1970-01-01T01:02:06.000Z</time>
      </trkpt>
      <trkpt lat="42.345688" lon="1.91127">
        <ele>1762.2</ele>
        <time>1970-01-01T01:02:07.000Z</time>
      </trkpt>
      <trkpt lat="42.345673" lon="1.911267">
        <ele>1762.4</ele>
        <time>1970-01-01T01:02:08.000Z</time>
      </trkpt>
      <trkpt lat="42.345661" lon="1.911262">
        <ele>1762.6</ele>
        <time>1970-01-01T01:02:09.000Z</time>
      </trkpt>
      <trkpt lat="42.345646" lon="1.911263">
        <ele>1762.7</ele>
        <time>1970-01-01T01:02:10.000Z</time>
      </trkpt>
      <trkpt lat="42.345631" lon="1.911269">
        <ele>1762.9</ele>
        <time>1970-01-01T01:02:11.000Z</time>
      </trkpt>
      <trkpt lat="42.345619" lon="1.911274">
        <ele>1763.1</ele>
        <time>1970-01-01T01:02:12.000Z</time>
      </trkpt>
      <trkpt lat="42.345608" lon="1.911276">
        <ele>1763.2</ele>
        <time>1970-01-01T01:02:13.000Z</time>
      </trkpt>
      <trkpt lat="42.345593" lon="1.911278">
        <ele>1763.4</ele>
        <time>1970-01-01T01:02:14.000Z</time>
      </trkpt>
      <trkpt lat="42.345577" lon="1.911281">
        <ele>1763.7</ele>
        <time>1970-01-01T01:02:15.000Z</time>
      </trkpt>
      <trkpt lat="42.345566" lon="1.911285">
        <ele>1763.8</ele>
        <time>1970-01-01T01:02:16.000Z</time>
      </trkpt>
      <trkpt lat="42.345551" lon="1.911288">
        <ele>1764</ele>
        <time>1970-01-01T01:02:17.000Z</time>
      </trkpt>
      <trkpt lat="42.345535" lon="1.91129">
        <ele>1764.2</ele>
        <time>1970-01-01T01:02:18.000Z</time>
      </trkpt>
      <trkpt lat="42.345524" lon="1.9113">
        <ele>1764.4</ele>
        <time>1970-01-01T01:02:19.000Z</time>
      </trkpt>
      <trkpt lat="42.345512" lon="1.91131">
        <ele>1764.6</ele>
        <time>1970-01-01T01:02:20.000Z</time>
      </trkpt>
      <trkpt lat="42.345497" lon="1.911314">
        <ele>1764.8</ele>
        <time>1970-01-01T01:02:21.000Z</time>
      </trkpt>
      <trkpt lat="42.345482" lon="1.911316">
        <ele>1765</ele>
        <time>1970-01-01T01:02:22.000Z</time>
      </trkpt>
      <trkpt lat="42.345467" lon="1.911321">
        <ele>1765.2</ele>
        <time>1970-01-01T01:02:23.000Z</time>
      </trkpt>
      <trkpt lat="42.345451" lon="1.911326">
        <ele>1765.5</ele>
        <time>1970-01-01T01:02:24.000Z</time>
      </trkpt>
      <trkpt lat="42.345436" lon="1.911329">
        <ele>1765.7</ele>
        <time>1970-01-01T01:02:25.000Z</time>
      </trkpt>
      <trkpt lat="42.345417" lon="1.911336">
        <ele>1765.9</ele>
        <time>1970-01-01T01:02:26.000Z</time>
      </trkpt>
      <trkpt lat="42.345402" lon="1.911338">
        <ele>1766.1</ele>
        <time>1970-01-01T01:02:27.000Z</time>
      </trkpt>
      <trkpt lat="42.34539" lon="1.911336">
        <ele>1766.3</ele>
        <time>1970-01-01T01:02:28.000Z</time>
      </trkpt>
      <trkpt lat="42.345375" lon="1.911332">
        <ele>1766.5</ele>
        <time>1970-01-01T01:02:29.000Z</time>
      </trkpt>
      <trkpt lat="42.345356" lon="1.911329">
        <ele>1766.8</ele>
        <time>1970-01-01T01:02:30.000Z</time>
      </trkpt>
      <trkpt lat="42.345341" lon="1.911328">
        <ele>1767</ele>
        <time>1970-01-01T01:02:31.000Z</time>
      </trkpt>
      <trkpt lat="42.345322" lon="1.911328">
        <ele>1767.2</ele>
        <time>1970-01-01T01:02:32.000Z</time>
      </trkpt>
      <trkpt lat="42.345306" lon="1.911327">
        <ele>1767.5</ele>
        <time>1970-01-01T01:02:33.000Z</time>
      </trkpt>
      <trkpt lat="42.345291" lon="1.911325">
        <ele>1767.7</ele>
        <time>1970-01-01T01:02:34.000Z</time>
      </trkpt>
      <trkpt lat="42.345272" lon="1.911322">
        <ele>1767.9</ele>
        <time>1970-01-01T01:02:35.000Z</time>
      </trkpt>
      <trkpt lat="42.345261" lon="1.91132">
        <ele>1768.1</ele>
        <time>1970-01-01T01:02:36.000Z</time>
      </trkpt>
      <trkpt lat="42.345245" lon="1.911316">
        <ele>1768.3</ele>
        <time>1970-01-01T01:02:37.000Z</time>
      </trkpt>
      <trkpt lat="42.34523" lon="1.911314">
        <ele>1768.5</ele>
        <time>1970-01-01T01:02:38.000Z</time>
      </trkpt>
      <trkpt lat="42.345215" lon="1.91131">
        <ele>1768.7</ele>
        <time>1970-01-01T01:02:39.000Z</time>
      </trkpt>
      <trkpt lat="42.3452" lon="1.911304">
        <ele>1768.9</ele>
        <time>1970-01-01T01:02:40.000Z</time>
      </trkpt>
      <trkpt lat="42.345184" lon="1.911296">
        <ele>1769.1</ele>
        <time>1970-01-01T01:02:41.000Z</time>
      </trkpt>
      <trkpt lat="42.345169" lon="1.911287">
        <ele>1769.3</ele>
        <time>1970-01-01T01:02:42.000Z</time>
      </trkpt>
      <trkpt lat="42.345154" lon="1.911275">
        <ele>1769.6</ele>
        <time>1970-01-01T01:02:43.000Z</time>
      </trkpt>
      <trkpt lat="42.345139" lon="1.911266">
        <ele>1769.8</ele>
        <time>1970-01-01T01:02:44.000Z</time>
      </trkpt>
      <trkpt lat="42.345127" lon="1.911259">
        <ele>1770</ele>
        <time>1970-01-01T01:02:45.000Z</time>
      </trkpt>
      <trkpt lat="42.345112" lon="1.911253">
        <ele>1770.2</ele>
        <time>1970-01-01T01:02:46.000Z</time>
      </trkpt>
      <trkpt lat="42.3451" lon="1.911247">
        <ele>1770.3</ele>
        <time>1970-01-01T01:02:47.000Z</time>
      </trkpt>
      <trkpt lat="42.345085" lon="1.911241">
        <ele>1770.5</ele>
        <time>1970-01-01T01:02:48.000Z</time>
      </trkpt>
      <trkpt lat="42.345074" lon="1.911235">
        <ele>1770.7</ele>
        <time>1970-01-01T01:02:49.000Z</time>
      </trkpt>
      <trkpt lat="42.345058" lon="1.911229">
        <ele>1770.9</ele>
        <time>1970-01-01T01:02:50.000Z</time>
      </trkpt>
      <trkpt lat="42.345043" lon="1.911221">
        <ele>1771.1</ele>
        <time>1970-01-01T01:02:51.000Z</time>
      </trkpt>
      <trkpt lat="42.345032" lon="1.911211">
        <ele>1771.3</ele>
        <time>1970-01-01T01:02:52.000Z</time>
      </trkpt>
      <trkpt lat="42.345016" lon="1.9112">
        <ele>1771.5</ele>
        <time>1970-01-01T01:02:53.000Z</time>
      </trkpt>
      <trkpt lat="42.345001" lon="1.911187">
        <ele>1771.8</ele>
        <time>1970-01-01T01:02:54.000Z</time>
      </trkpt>
      <trkpt lat="42.34499" lon="1.911178">
        <ele>1771.9</ele>
        <time>1970-01-01T01:02:55.000Z</time>
      </trkpt>
      <trkpt lat="42.344978" lon="1.911172">
        <ele>1772.1</ele>
        <time>1970-01-01T01:02:56.000Z</time>
      </trkpt>
      <trkpt lat="42.344963" lon="1.911166">
        <ele>1772.3</ele>
        <time>1970-01-01T01:02:57.000Z</time>
      </trkpt>
      <trkpt lat="42.344948" lon="1.911159">
        <ele>1772.5</ele>
        <time>1970-01-01T01:02:58.000Z</time>
      </trkpt>
      <trkpt lat="42.344933" lon="1.911151">
        <ele>1772.7</ele>
        <time>1970-01-01T01:02:59.000Z</time>
      </trkpt>
      <trkpt lat="42.344913" lon="1.911146">
        <ele>1773</ele>
        <time>1970-01-01T01:03:00.000Z</time>
      </trkpt>
      <trkpt lat="42.344898" lon="1.911139">
        <ele>1773.2</ele>
        <time>1970-01-01T01:03:01.000Z</time>
      </trkpt>
      <trkpt lat="42.344883" lon="1.911135">
        <ele>1773.4</ele>
        <time>1970-01-01T01:03:02.000Z</time>
      </trkpt>
      <trkpt lat="42.344868" lon="1.91113">
        <ele>1773.6</ele>
        <time>1970-01-01T01:03:03.000Z</time>
      </trkpt>
      <trkpt lat="42.344849" lon="1.911124">
        <ele>1773.8</ele>
        <time>1970-01-01T01:03:04.000Z</time>
      </trkpt>
      <trkpt lat="42.344833" lon="1.911118">
        <ele>1774.1</ele>
        <time>1970-01-01T01:03:05.000Z</time>
      </trkpt>
      <trkpt lat="42.344818" lon="1.911111">
        <ele>1774.3</ele>
        <time>1970-01-01T01:03:06.000Z</time>
      </trkpt>
      <trkpt lat="42.344799" lon="1.911103">
        <ele>1774.5</ele>
        <time>1970-01-01T01:03:07.000Z</time>
      </trkpt>
      <trkpt lat="42.344784" lon="1.911097">
        <ele>1774.7</ele>
        <time>1970-01-01T01:03:08.000Z</time>
      </trkpt>
      <trkpt lat="42.344769" lon="1.911091">
        <ele>1774.9</ele>
        <time>1970-01-01T01:03:09.000Z</time>
      </trkpt>
      <trkpt lat="42.344749" lon="1.91108">
        <ele>1775.2</ele>
        <time>1970-01-01T01:03:10.000Z</time>
      </trkpt>
      <trkpt lat="42.344738" lon="1.911067">
        <ele>1775.4</ele>
        <time>1970-01-01T01:03:11.000Z</time>
      </trkpt>
      <trkpt lat="42.344727" lon="1.911052">
        <ele>1775.6</ele>
        <time>1970-01-01T01:03:12.000Z</time>
      </trkpt>
      <trkpt lat="42.344719" lon="1.911039">
        <ele>1775.7</ele>
        <time>1970-01-01T01:03:13.000Z</time>
      </trkpt>
      <trkpt lat="42.344711" lon="1.911022">
        <ele>1775.9</ele>
        <time>1970-01-01T01:03:14.000Z</time>
      </trkpt>
      <trkpt lat="42.344707" lon="1.911004">
        <ele>1776.1</ele>
        <time>1970-01-01T01:03:15.000Z</time>
      </trkpt>
      <trkpt lat="42.344707" lon="1.910983">
        <ele>1776.4</ele>
        <time>1970-01-01T01:03:16.000Z</time>
      </trkpt>
      <trkpt lat="42.344707" lon="1.910961">
        <ele>1776.6</ele>
        <time>1970-01-01T01:03:17.000Z</time>
      </trkpt>
      <trkpt lat="42.344711" lon="1.910939">
        <ele>1776.9</ele>
        <time>1970-01-01T01:03:18.000Z</time>
      </trkpt>
      <trkpt lat="42.344715" lon="1.910919">
        <ele>1777.1</ele>
        <time>1970-01-01T01:03:19.000Z</time>
      </trkpt>
      <trkpt lat="42.344715" lon="1.910898">
        <ele>1777.3</ele>
        <time>1970-01-01T01:03:20.000Z</time>
      </trkpt>
      <trkpt lat="42.344719" lon="1.910876">
        <ele>1777.6</ele>
        <time>1970-01-01T01:03:21.000Z</time>
      </trkpt>
      <trkpt lat="42.344727" lon="1.910856">
        <ele>1777.9</ele>
        <time>1970-01-01T01:03:22.000Z</time>
      </trkpt>
      <trkpt lat="42.344738" lon="1.910836">
        <ele>1778.1</ele>
        <time>1970-01-01T01:03:23.000Z</time>
      </trkpt>
      <trkpt lat="42.344753" lon="1.910816">
        <ele>1778.5</ele>
        <time>1970-01-01T01:03:24.000Z</time>
      </trkpt>
      <trkpt lat="42.344765" lon="1.910797">
        <ele>1778.7</ele>
        <time>1970-01-01T01:03:25.000Z</time>
      </trkpt>
      <trkpt lat="42.344776" lon="1.910776">
        <ele>1779</ele>
        <time>1970-01-01T01:03:26.000Z</time>
      </trkpt>
      <trkpt lat="42.344788" lon="1.910756">
        <ele>1779.3</ele>
        <time>1970-01-01T01:03:27.000Z</time>
      </trkpt>
      <trkpt lat="42.344795" lon="1.910737">
        <ele>1779.5</ele>
        <time>1970-01-01T01:03:28.000Z</time>
      </trkpt>
      <trkpt lat="42.344803" lon="1.91072">
        <ele>1779.7</ele>
        <time>1970-01-01T01:03:29.000Z</time>
      </trkpt>
      <trkpt lat="42.344814" lon="1.910704">
        <ele>1779.9</ele>
        <time>1970-01-01T01:03:30.000Z</time>
      </trkpt>
      <trkpt lat="42.344826" lon="1.910686">
        <ele>1780.1</ele>
        <time>1970-01-01T01:03:31.000Z</time>
      </trkpt>
      <trkpt lat="42.344837" lon="1.910668">
        <ele>1780.4</ele>
        <time>1970-01-01T01:03:32.000Z</time>
      </trkpt>
      <trkpt lat="42.344845" lon="1.91065">
        <ele>1780.6</ele>
        <time>1970-01-01T01:03:33.000Z</time>
      </trkpt>
      <trkpt lat="42.344856" lon="1.910631">
        <ele>1780.8</ele>
        <time>1970-01-01T01:03:34.000Z</time>
      </trkpt>
      <trkpt lat="42.34486" lon="1.910612">
        <ele>1781</ele>
        <time>1970-01-01T01:03:35.000Z</time>
      </trkpt>
      <trkpt lat="42.344868" lon="1.910594">
        <ele>1781.2</ele>
        <time>1970-01-01T01:03:36.000Z</time>
      </trkpt>
      <trkpt lat="42.344875" lon="1.910576">
        <ele>1781.5</ele>
        <time>1970-01-01T01:03:37.000Z</time>
      </trkpt>
      <trkpt lat="42.344883" lon="1.910558">
        <ele>1781.7</ele>
        <time>1970-01-01T01:03:38.000Z</time>
      </trkpt>
      <trkpt lat="42.344894" lon="1.910538">
        <ele>1781.9</ele>
        <time>1970-01-01T01:03:39.000Z</time>
      </trkpt>
      <trkpt lat="42.344906" lon="1.910512">
        <ele>1782.3</ele>
        <time>1970-01-01T01:03:40.000Z</time>
      </trkpt>
      <trkpt lat="42.344917" lon="1.910482">
        <ele>1782.6</ele>
        <time>1970-01-01T01:03:41.000Z</time>
      </trkpt>
      <trkpt lat="42.344933" lon="1.910451">
        <ele>1783</ele>
        <time>1970-01-01T01:03:42.000Z</time>
      </trkpt>
      <trkpt lat="42.344944" lon="1.910425">
        <ele>1783.3</ele>
        <time>1970-01-01T01:03:43.000Z</time>
      </trkpt>
      <trkpt lat="42.344963" lon="1.910402">
        <ele>1783.7</ele>
        <time>1970-01-01T01:03:44.000Z</time>
      </trkpt>
      <trkpt lat="42.344986" lon="1.910375">
        <ele>1784.1</ele>
        <time>1970-01-01T01:03:45.000Z</time>
      </trkpt>
      <trkpt lat="42.345001" lon="1.910344">
        <ele>1784.4</ele>
        <time>1970-01-01T01:03:46.000Z</time>
      </trkpt>
      <trkpt lat="42.345016" lon="1.910317">
        <ele>1784.8</ele>
        <time>1970-01-01T01:03:47.000Z</time>
      </trkpt>
      <trkpt lat="42.345032" lon="1.91029">
        <ele>1785.1</ele>
        <time>1970-01-01T01:03:48.000Z</time>
      </trkpt>
      <trkpt lat="42.345047" lon="1.910262">
        <ele>1785.4</ele>
        <time>1970-01-01T01:03:49.000Z</time>
      </trkpt>
      <trkpt lat="42.345051" lon="1.910237">
        <ele>1785.7</ele>
        <time>1970-01-01T01:03:50.000Z</time>
      </trkpt>
      <trkpt lat="42.345058" lon="1.910212">
        <ele>1785.9</ele>
        <time>1970-01-01T01:03:51.000Z</time>
      </trkpt>
      <trkpt lat="42.345066" lon="1.910186">
        <ele>1786.2</ele>
        <time>1970-01-01T01:03:52.000Z</time>
      </trkpt>
      <trkpt lat="42.345078" lon="1.910159">
        <ele>1786.6</ele>
        <time>1970-01-01T01:03:53.000Z</time>
      </trkpt>
      <trkpt lat="42.345085" lon="1.910132">
        <ele>1786.9</ele>
        <time>1970-01-01T01:03:54.000Z</time>
      </trkpt>
      <trkpt lat="42.345089" lon="1.910104">
        <ele>1787.1</ele>
        <time>1970-01-01T01:03:55.000Z</time>
      </trkpt>
      <trkpt lat="42.345097" lon="1.910077">
        <ele>1787.5</ele>
        <time>1970-01-01T01:03:56.000Z</time>
      </trkpt>
      <trkpt lat="42.345104" lon="1.910049">
        <ele>1787.8</ele>
        <time>1970-01-01T01:03:57.000Z</time>
      </trkpt>
      <trkpt lat="42.345112" lon="1.91002">
        <ele>1788.1</ele>
        <time>1970-01-01T01:03:58.000Z</time>
      </trkpt>
      <trkpt lat="42.345116" lon="1.909993">
        <ele>1788.4</ele>
        <time>1970-01-01T01:03:59.000Z</time>
      </trkpt>
      <trkpt lat="42.345123" lon="1.909968">
        <ele>1788.7</ele>
        <time>1970-01-01T01:04:00.000Z</time>
      </trkpt>
      <trkpt lat="42.345123" lon="1.90994">
        <ele>1788.9</ele>
        <time>1970-01-01T01:04:01.000Z</time>
      </trkpt>
      <trkpt lat="42.345131" lon="1.90991">
        <ele>1789.3</ele>
        <time>1970-01-01T01:04:02.000Z</time>
      </trkpt>
      <trkpt lat="42.345139" lon="1.909884">
        <ele>1789.6</ele>
        <time>1970-01-01T01:04:03.000Z</time>
      </trkpt>
      <trkpt lat="42.345146" lon="1.909857">
        <ele>1789.9</ele>
        <time>1970-01-01T01:04:04.000Z</time>
      </trkpt>
      <trkpt lat="42.345154" lon="1.909829">
        <ele>1790.1</ele>
        <time>1970-01-01T01:04:05.000Z</time>
      </trkpt>
      <trkpt lat="42.345161" lon="1.909799">
        <ele>1790.3</ele>
        <time>1970-01-01T01:04:06.000Z</time>
      </trkpt>
      <trkpt lat="42.345165" lon="1.909775">
        <ele>1790.5</ele>
        <time>1970-01-01T01:04:07.000Z</time>
      </trkpt>
      <trkpt lat="42.345177" lon="1.909747">
        <ele>1790.7</ele>
        <time>1970-01-01T01:04:08.000Z</time>
      </trkpt>
      <trkpt lat="42.345184" lon="1.909717">
        <ele>1790.9</ele>
        <time>1970-01-01T01:04:09.000Z</time>
      </trkpt>
      <trkpt lat="42.345188" lon="1.909684">
        <ele>1791.1</ele>
        <time>1970-01-01T01:04:10.000Z</time>
      </trkpt>
      <trkpt lat="42.3452" lon="1.909654">
        <ele>1791.3</ele>
        <time>1970-01-01T01:04:11.000Z</time>
      </trkpt>
      <trkpt lat="42.345203" lon="1.909627">
        <ele>1791.5</ele>
        <time>1970-01-01T01:04:12.000Z</time>
      </trkpt>
      <trkpt lat="42.345211" lon="1.909602">
        <ele>1791.7</ele>
        <time>1970-01-01T01:04:13.000Z</time>
      </trkpt>
      <trkpt lat="42.345215" lon="1.909576">
        <ele>1791.8</ele>
        <time>1970-01-01T01:04:14.000Z</time>
      </trkpt>
      <trkpt lat="42.345219" lon="1.909552">
        <ele>1792</ele>
        <time>1970-01-01T01:04:15.000Z</time>
      </trkpt>
      <trkpt lat="42.345222" lon="1.909527">
        <ele>1792.2</ele>
        <time>1970-01-01T01:04:16.000Z</time>
      </trkpt>
      <trkpt lat="42.345226" lon="1.909504">
        <ele>1792.4</ele>
        <time>1970-01-01T01:04:17.000Z</time>
      </trkpt>
      <trkpt lat="42.34523" lon="1.90948">
        <ele>1792.5</ele>
        <time>1970-01-01T01:04:18.000Z</time>
      </trkpt>
      <trkpt lat="42.345238" lon="1.909456">
        <ele>1792.7</ele>
        <time>1970-01-01T01:04:19.000Z</time>
      </trkpt>
      <trkpt lat="42.345242" lon="1.909434">
        <ele>1792.9</ele>
        <time>1970-01-01T01:04:20.000Z</time>
      </trkpt>
      <trkpt lat="42.345253" lon="1.909408">
        <ele>1793.1</ele>
        <time>1970-01-01T01:04:21.000Z</time>
      </trkpt>
      <trkpt lat="42.345261" lon="1.909385">
        <ele>1793.4</ele>
        <time>1970-01-01T01:04:22.000Z</time>
      </trkpt>
      <trkpt lat="42.345268" lon="1.909362">
        <ele>1793.6</ele>
        <time>1970-01-01T01:04:23.000Z</time>
      </trkpt>
      <trkpt lat="42.345268" lon="1.909336">
        <ele>1793.8</ele>
        <time>1970-01-01T01:04:24.000Z</time>
      </trkpt>
      <trkpt lat="42.345272" lon="1.909311">
        <ele>1794</ele>
        <time>1970-01-01T01:04:25.000Z</time>
      </trkpt>
      <trkpt lat="42.345272" lon="1.909289">
        <ele>1794.2</ele>
        <time>1970-01-01T01:04:26.000Z</time>
      </trkpt>
      <trkpt lat="42.345272" lon="1.909274">
        <ele>1794.3</ele>
        <time>1970-01-01T01:04:27.000Z</time>
      </trkpt>
      <trkpt lat="42.345268" lon="1.909255">
        <ele>1794.5</ele>
        <time>1970-01-01T01:04:28.000Z</time>
      </trkpt>
      <trkpt lat="42.345264" lon="1.909231">
        <ele>1794.7</ele>
        <time>1970-01-01T01:04:29.000Z</time>
      </trkpt>
      <trkpt lat="42.345264" lon="1.909208">
        <ele>1794.9</ele>
        <time>1970-01-01T01:04:30.000Z</time>
      </trkpt>
      <trkpt lat="42.345261" lon="1.909186">
        <ele>1795.1</ele>
        <time>1970-01-01T01:04:31.000Z</time>
      </trkpt>
      <trkpt lat="42.345257" lon="1.909166">
        <ele>1795.3</ele>
        <time>1970-01-01T01:04:32.000Z</time>
      </trkpt>
      <trkpt lat="42.345249" lon="1.909147">
        <ele>1795.5</ele>
        <time>1970-01-01T01:04:33.000Z</time>
      </trkpt>
      <trkpt lat="42.345242" lon="1.909122">
        <ele>1795.8</ele>
        <time>1970-01-01T01:04:34.000Z</time>
      </trkpt>
      <trkpt lat="42.345242" lon="1.909096">
        <ele>1796</ele>
        <time>1970-01-01T01:04:35.000Z</time>
      </trkpt>
      <trkpt lat="42.345234" lon="1.909073">
        <ele>1796.3</ele>
        <time>1970-01-01T01:04:36.000Z</time>
      </trkpt>
      <trkpt lat="42.345226" lon="1.909052">
        <ele>1796.5</ele>
        <time>1970-01-01T01:04:37.000Z</time>
      </trkpt>
      <trkpt lat="42.345215" lon="1.909033">
        <ele>1796.8</ele>
        <time>1970-01-01T01:04:38.000Z</time>
      </trkpt>
      <trkpt lat="42.345207" lon="1.909013">
        <ele>1797</ele>
        <time>1970-01-01T01:04:39.000Z</time>
      </trkpt>
      <trkpt lat="42.345203" lon="1.908989">
        <ele>1797.3</ele>
        <time>1970-01-01T01:04:40.000Z</time>
      </trkpt>
      <trkpt lat="42.3452" lon="1.908962">
        <ele>1797.6</ele>
        <time>1970-01-01T01:04:41.000Z</time>
      </trkpt>
      <trkpt lat="42.345188" lon="1.908936">
        <ele>1798</ele>
        <time>1970-01-01T01:04:42.000Z</time>
      </trkpt>
      <trkpt lat="42.345181" lon="1.908915">
        <ele>1798.2</ele>
        <time>1970-01-01T01:04:43.000Z</time>
      </trkpt>
      <trkpt lat="42.345173" lon="1.908894">
        <ele>1798.5</ele>
        <time>1970-01-01T01:04:44.000Z</time>
      </trkpt>
      <trkpt lat="42.345165" lon="1.908871">
        <ele>1798.8</ele>
        <time>1970-01-01T01:04:45.000Z</time>
      </trkpt>
      <trkpt lat="42.345161" lon="1.908843">
        <ele>1799.2</ele>
        <time>1970-01-01T01:04:46.000Z</time>
      </trkpt>
      <trkpt lat="42.345158" lon="1.908816">
        <ele>1799.5</ele>
        <time>1970-01-01T01:04:47.000Z</time>
      </trkpt>
      <trkpt lat="42.345154" lon="1.90879">
        <ele>1799.8</ele>
        <time>1970-01-01T01:04:48.000Z</time>
      </trkpt>
      <trkpt lat="42.345154" lon="1.908768">
        <ele>1800.1</ele>
        <time>1970-01-01T01:04:49.000Z</time>
      </trkpt>
      <trkpt lat="42.345161" lon="1.908746">
        <ele>1800.4</ele>
        <time>1970-01-01T01:04:50.000Z</time>
      </trkpt>
      <trkpt lat="42.345165" lon="1.908723">
        <ele>1800.7</ele>
        <time>1970-01-01T01:04:51.000Z</time>
      </trkpt>
      <trkpt lat="42.345165" lon="1.908701">
        <ele>1801</ele>
        <time>1970-01-01T01:04:52.000Z</time>
      </trkpt>
      <trkpt lat="42.345169" lon="1.908676">
        <ele>1801.4</ele>
        <time>1970-01-01T01:04:53.000Z</time>
      </trkpt>
      <trkpt lat="42.345173" lon="1.908653">
        <ele>1801.7</ele>
        <time>1970-01-01T01:04:54.000Z</time>
      </trkpt>
      <trkpt lat="42.345173" lon="1.90863">
        <ele>1802</ele>
        <time>1970-01-01T01:04:55.000Z</time>
      </trkpt>
      <trkpt lat="42.345173" lon="1.908606">
        <ele>1802.3</ele>
        <time>1970-01-01T01:04:56.000Z</time>
      </trkpt>
      <trkpt lat="42.345177" lon="1.908584">
        <ele>1802.7</ele>
        <time>1970-01-01T01:04:57.000Z</time>
      </trkpt>
      <trkpt lat="42.345173" lon="1.908561">
        <ele>1803</ele>
        <time>1970-01-01T01:04:58.000Z</time>
      </trkpt>
      <trkpt lat="42.345177" lon="1.908536">
        <ele>1803.3</ele>
        <time>1970-01-01T01:04:59.000Z</time>
      </trkpt>
      <trkpt lat="42.345177" lon="1.908513">
        <ele>1803.7</ele>
        <time>1970-01-01T01:05:00.000Z</time>
      </trkpt>
      <trkpt lat="42.345173" lon="1.908492">
        <ele>1804</ele>
        <time>1970-01-01T01:05:01.000Z</time>
      </trkpt>
      <trkpt lat="42.345169" lon="1.908471">
        <ele>1804.3</ele>
        <time>1970-01-01T01:05:02.000Z</time>
      </trkpt>
      <trkpt lat="42.345169" lon="1.908452">
        <ele>1804.5</ele>
        <time>1970-01-01T01:05:03.000Z</time>
      </trkpt>
      <trkpt lat="42.345165" lon="1.908434">
        <ele>1804.8</ele>
        <time>1970-01-01T01:05:04.000Z</time>
      </trkpt>
      <trkpt lat="42.345165" lon="1.908414">
        <ele>1805.1</ele>
        <time>1970-01-01T01:05:05.000Z</time>
      </trkpt>
      <trkpt lat="42.345161" lon="1.908393">
        <ele>1805.4</ele>
        <time>1970-01-01T01:05:06.000Z</time>
      </trkpt>
      <trkpt lat="42.345158" lon="1.908373">
        <ele>1805.7</ele>
        <time>1970-01-01T01:05:07.000Z</time>
      </trkpt>
      <trkpt lat="42.345158" lon="1.908353">
        <ele>1806</ele>
        <time>1970-01-01T01:05:08.000Z</time>
      </trkpt>
      <trkpt lat="42.34515" lon="1.908334">
        <ele>1806.3</ele>
        <time>1970-01-01T01:05:09.000Z</time>
      </trkpt>
      <trkpt lat="42.345142" lon="1.908317">
        <ele>1806.6</ele>
        <time>1970-01-01T01:05:10.000Z</time>
      </trkpt>
      <trkpt lat="42.345135" lon="1.908298">
        <ele>1806.9</ele>
        <time>1970-01-01T01:05:11.000Z</time>
      </trkpt>
      <trkpt lat="42.345127" lon="1.908279">
        <ele>1807.2</ele>
        <time>1970-01-01T01:05:12.000Z</time>
      </trkpt>
      <trkpt lat="42.345123" lon="1.908262">
        <ele>1807.5</ele>
        <time>1970-01-01T01:05:13.000Z</time>
      </trkpt>
      <trkpt lat="42.34512" lon="1.908244">
        <ele>1807.7</ele>
        <time>1970-01-01T01:05:14.000Z</time>
      </trkpt>
      <trkpt lat="42.345116" lon="1.908226">
        <ele>1808</ele>
        <time>1970-01-01T01:05:15.000Z</time>
      </trkpt>
      <trkpt lat="42.345116" lon="1.908207">
        <ele>1808.3</ele>
        <time>1970-01-01T01:05:16.000Z</time>
      </trkpt>
      <trkpt lat="42.345116" lon="1.908188">
        <ele>1808.5</ele>
        <time>1970-01-01T01:05:17.000Z</time>
      </trkpt>
      <trkpt lat="42.345116" lon="1.908166">
        <ele>1808.8</ele>
        <time>1970-01-01T01:05:18.000Z</time>
      </trkpt>
      <trkpt lat="42.345112" lon="1.908146">
        <ele>1809.1</ele>
        <time>1970-01-01T01:05:19.000Z</time>
      </trkpt>
      <trkpt lat="42.345116" lon="1.90813">
        <ele>1809.3</ele>
        <time>1970-01-01T01:05:20.000Z</time>
      </trkpt>
      <trkpt lat="42.345116" lon="1.908115">
        <ele>1809.5</ele>
        <time>1970-01-01T01:05:21.000Z</time>
      </trkpt>
      <trkpt lat="42.34512" lon="1.908096">
        <ele>1809.7</ele>
        <time>1970-01-01T01:05:22.000Z</time>
      </trkpt>
      <trkpt lat="42.345127" lon="1.908076">
        <ele>1810</ele>
        <time>1970-01-01T01:05:23.000Z</time>
      </trkpt>
      <trkpt lat="42.345139" lon="1.90806">
        <ele>1810.3</ele>
        <time>1970-01-01T01:05:24.000Z</time>
      </trkpt>
      <trkpt lat="42.345146" lon="1.908045">
        <ele>1810.5</ele>
        <time>1970-01-01T01:05:25.000Z</time>
      </trkpt>
      <trkpt lat="42.34515" lon="1.908029">
        <ele>1810.6</ele>
        <time>1970-01-01T01:05:26.000Z</time>
      </trkpt>
      <trkpt lat="42.345158" lon="1.908011">
        <ele>1810.9</ele>
        <time>1970-01-01T01:05:27.000Z</time>
      </trkpt>
      <trkpt lat="42.345165" lon="1.907992">
        <ele>1811.1</ele>
        <time>1970-01-01T01:05:28.000Z</time>
      </trkpt>
      <trkpt lat="42.345173" lon="1.907974">
        <ele>1811.3</ele>
        <time>1970-01-01T01:05:29.000Z</time>
      </trkpt>
      <trkpt lat="42.345181" lon="1.907957">
        <ele>1811.5</ele>
        <time>1970-01-01T01:05:30.000Z</time>
      </trkpt>
      <trkpt lat="42.345181" lon="1.907942">
        <ele>1811.7</ele>
        <time>1970-01-01T01:05:31.000Z</time>
      </trkpt>
      <trkpt lat="42.345181" lon="1.907924">
        <ele>1811.8</ele>
        <time>1970-01-01T01:05:32.000Z</time>
      </trkpt>
      <trkpt lat="42.345177" lon="1.907907">
        <ele>1812</ele>
        <time>1970-01-01T01:05:33.000Z</time>
      </trkpt>
      <trkpt lat="42.345169" lon="1.907889">
        <ele>1812.2</ele>
        <time>1970-01-01T01:05:34.000Z</time>
      </trkpt>
      <trkpt lat="42.345158" lon="1.907876">
        <ele>1812.4</ele>
        <time>1970-01-01T01:05:35.000Z</time>
      </trkpt>
      <trkpt lat="42.345146" lon="1.907866">
        <ele>1812.6</ele>
        <time>1970-01-01T01:05:36.000Z</time>
      </trkpt>
      <trkpt lat="42.345135" lon="1.907859">
        <ele>1812.8</ele>
        <time>1970-01-01T01:05:37.000Z</time>
      </trkpt>
      <trkpt lat="42.345123" lon="1.907854">
        <ele>1812.9</ele>
        <time>1970-01-01T01:05:38.000Z</time>
      </trkpt>
      <trkpt lat="42.345112" lon="1.907853">
        <ele>1813</ele>
        <time>1970-01-01T01:05:39.000Z</time>
      </trkpt>
      <trkpt lat="42.3451" lon="1.90785">
        <ele>1813.2</ele>
        <time>1970-01-01T01:05:40.000Z</time>
      </trkpt>
      <trkpt lat="42.345085" lon="1.907853">
        <ele>1813.3</ele>
        <time>1970-01-01T01:05:41.000Z</time>
      </trkpt>
      <trkpt lat="42.34507" lon="1.907858">
        <ele>1813.5</ele>
        <time>1970-01-01T01:05:42.000Z</time>
      </trkpt>
      <trkpt lat="42.345055" lon="1.907858">
        <ele>1813.7</ele>
        <time>1970-01-01T01:05:43.000Z</time>
      </trkpt>
      <trkpt lat="42.345043" lon="1.907863">
        <ele>1813.8</ele>
        <time>1970-01-01T01:05:44.000Z</time>
      </trkpt>
      <trkpt lat="42.345028" lon="1.907872">
        <ele>1814</ele>
        <time>1970-01-01T01:05:45.000Z</time>
      </trkpt>
      <trkpt lat="42.345016" lon="1.907884">
        <ele>1814.1</ele>
        <time>1970-01-01T01:05:46.000Z</time>
      </trkpt>
      <trkpt lat="42.345009" lon="1.907892">
        <ele>1814.2</ele>
        <time>1970-01-01T01:05:47.000Z</time>
      </trkpt>
      <trkpt lat="42.345001" lon="1.9079">
        <ele>1814.3</ele>
        <time>1970-01-01T01:05:48.000Z</time>
      </trkpt>
      <trkpt lat="42.34499" lon="1.907904">
        <ele>1814.4</ele>
        <time>1970-01-01T01:05:49.000Z</time>
      </trkpt>
      <trkpt lat="42.344978" lon="1.907911">
        <ele>1814.5</ele>
        <time>1970-01-01T01:05:50.000Z</time>
      </trkpt>
      <trkpt lat="42.344967" lon="1.907917">
        <ele>1814.6</ele>
        <time>1970-01-01T01:05:51.000Z</time>
      </trkpt>
      <trkpt lat="42.344955" lon="1.907932">
        <ele>1814.7</ele>
        <time>1970-01-01T01:05:52.000Z</time>
      </trkpt>
      <trkpt lat="42.34494" lon="1.907945">
        <ele>1814.8</ele>
        <time>1970-01-01T01:05:53.000Z</time>
      </trkpt>
      <trkpt lat="42.344917" lon="1.907954">
        <ele>1814.9</ele>
        <time>1970-01-01T01:05:54.000Z</time>
      </trkpt>
      <trkpt lat="42.344898" lon="1.907956">
        <ele>1815</ele>
        <time>1970-01-01T01:05:55.000Z</time>
      </trkpt>
      <trkpt lat="42.344871" lon="1.907957">
        <ele>1815.2</ele>
        <time>1970-01-01T01:05:56.000Z</time>
      </trkpt>
      <trkpt lat="42.344845" lon="1.907955">
        <ele>1815.3</ele>
        <time>1970-01-01T01:05:57.000Z</time>
      </trkpt>
      <trkpt lat="42.344818" lon="1.907956">
        <ele>1815.4</ele>
        <time>1970-01-01T01:05:58.000Z</time>
      </trkpt>
      <trkpt lat="42.344799" lon="1.907955">
        <ele>1815.4</ele>
        <time>1970-01-01T01:05:59.000Z</time>
      </trkpt>
      <trkpt lat="42.34478" lon="1.907952">
        <ele>1815.5</ele>
        <time>1970-01-01T01:06:00.000Z</time>
      </trkpt>
      <trkpt lat="42.344761" lon="1.907953">
        <ele>1815.5</ele>
        <time>1970-01-01T01:06:01.000Z</time>
      </trkpt>
      <trkpt lat="42.344746" lon="1.90795">
        <ele>1815.6</ele>
        <time>1970-01-01T01:06:02.000Z</time>
      </trkpt>
      <trkpt lat="42.344723" lon="1.907953">
        <ele>1815.7</ele>
        <time>1970-01-01T01:06:03.000Z</time>
      </trkpt>
      <trkpt lat="42.344704" lon="1.907961">
        <ele>1815.8</ele>
        <time>1970-01-01T01:06:04.000Z</time>
      </trkpt>
      <trkpt lat="42.344688" lon="1.907973">
        <ele>1815.9</ele>
        <time>1970-01-01T01:06:05.000Z</time>
      </trkpt>
      <trkpt lat="42.344681" lon="1.907991">
        <ele>1816</ele>
        <time>1970-01-01T01:06:06.000Z</time>
      </trkpt>
      <trkpt lat="42.344669" lon="1.908012">
        <ele>1816.1</ele>
        <time>1970-01-01T01:06:07.000Z</time>
      </trkpt>
      <trkpt lat="42.344658" lon="1.908034">
        <ele>1816.2</ele>
        <time>1970-01-01T01:06:08.000Z</time>
      </trkpt>
      <trkpt lat="42.344639" lon="1.90805">
        <ele>1816.3</ele>
        <time>1970-01-01T01:06:09.000Z</time>
      </trkpt>
      <trkpt lat="42.344624" lon="1.908068">
        <ele>1816.5</ele>
        <time>1970-01-01T01:06:10.000Z</time>
      </trkpt>
      <trkpt lat="42.344608" lon="1.908087">
        <ele>1816.6</ele>
        <time>1970-01-01T01:06:11.000Z</time>
      </trkpt>
      <trkpt lat="42.344585" lon="1.908107">
        <ele>1816.8</ele>
        <time>1970-01-01T01:06:12.000Z</time>
      </trkpt>
      <trkpt lat="42.344563" lon="1.908122">
        <ele>1817</ele>
        <time>1970-01-01T01:06:13.000Z</time>
      </trkpt>
      <trkpt lat="42.344543" lon="1.908133">
        <ele>1817.2</ele>
        <time>1970-01-01T01:06:14.000Z</time>
      </trkpt>
      <trkpt lat="42.344524" lon="1.908142">
        <ele>1817.4</ele>
        <time>1970-01-01T01:06:15.000Z</time>
      </trkpt>
      <trkpt lat="42.344505" lon="1.908149">
        <ele>1817.6</ele>
        <time>1970-01-01T01:06:16.000Z</time>
      </trkpt>
      <trkpt lat="42.34449" lon="1.908159">
        <ele>1817.8</ele>
        <time>1970-01-01T01:06:17.000Z</time>
      </trkpt>
      <trkpt lat="42.344467" lon="1.908166">
        <ele>1818.1</ele>
        <time>1970-01-01T01:06:18.000Z</time>
      </trkpt>
      <trkpt lat="42.344448" lon="1.908171">
        <ele>1818.3</ele>
        <time>1970-01-01T01:06:19.000Z</time>
      </trkpt>
      <trkpt lat="42.344429" lon="1.908176">
        <ele>1818.5</ele>
        <time>1970-01-01T01:06:20.000Z</time>
      </trkpt>
      <trkpt lat="42.34441" lon="1.908177">
        <ele>1818.7</ele>
        <time>1970-01-01T01:06:21.000Z</time>
      </trkpt>
      <trkpt lat="42.344391" lon="1.908175">
        <ele>1818.9</ele>
        <time>1970-01-01T01:06:22.000Z</time>
      </trkpt>
      <trkpt lat="42.344372" lon="1.908174">
        <ele>1819.1</ele>
        <time>1970-01-01T01:06:23.000Z</time>
      </trkpt>
      <trkpt lat="42.344353" lon="1.908167">
        <ele>1819.4</ele>
        <time>1970-01-01T01:06:24.000Z</time>
      </trkpt>
      <trkpt lat="42.344334" lon="1.908154">
        <ele>1819.6</ele>
        <time>1970-01-01T01:06:25.000Z</time>
      </trkpt>
      <trkpt lat="42.344315" lon="1.908143">
        <ele>1819.8</ele>
        <time>1970-01-01T01:06:26.000Z</time>
      </trkpt>
      <trkpt lat="42.344295" lon="1.908137">
        <ele>1820</ele>
        <time>1970-01-01T01:06:27.000Z</time>
      </trkpt>
      <trkpt lat="42.344273" lon="1.908132">
        <ele>1820.3</ele>
        <time>1970-01-01T01:06:28.000Z</time>
      </trkpt>
      <trkpt lat="42.344254" lon="1.908129">
        <ele>1820.5</ele>
        <time>1970-01-01T01:06:29.000Z</time>
      </trkpt>
      <trkpt lat="42.344231" lon="1.908127">
        <ele>1820.7</ele>
        <time>1970-01-01T01:06:30.000Z</time>
      </trkpt>
      <trkpt lat="42.344212" lon="1.908124">
        <ele>1820.9</ele>
        <time>1970-01-01T01:06:31.000Z</time>
      </trkpt>
      <trkpt lat="42.344189" lon="1.908119">
        <ele>1821.2</ele>
        <time>1970-01-01T01:06:32.000Z</time>
      </trkpt>
      <trkpt lat="42.34417" lon="1.908115">
        <ele>1821.4</ele>
        <time>1970-01-01T01:06:33.000Z</time>
      </trkpt>
      <trkpt lat="42.344151" lon="1.908109">
        <ele>1821.6</ele>
        <time>1970-01-01T01:06:34.000Z</time>
      </trkpt>
      <trkpt lat="42.344131" lon="1.908104">
        <ele>1821.9</ele>
        <time>1970-01-01T01:06:35.000Z</time>
      </trkpt>
      <trkpt lat="42.344109" lon="1.908102">
        <ele>1822.1</ele>
        <time>1970-01-01T01:06:36.000Z</time>
      </trkpt>
      <trkpt lat="42.34409" lon="1.908102">
        <ele>1822.3</ele>
        <time>1970-01-01T01:06:37.000Z</time>
      </trkpt>
      <trkpt lat="42.344074" lon="1.908103">
        <ele>1822.5</ele>
        <time>1970-01-01T01:06:38.000Z</time>
      </trkpt>
      <trkpt lat="42.344055" lon="1.908098">
        <ele>1822.7</ele>
        <time>1970-01-01T01:06:39.000Z</time>
      </trkpt>
      <trkpt lat="42.344036" lon="1.908089">
        <ele>1823</ele>
        <time>1970-01-01T01:06:40.000Z</time>
      </trkpt>
      <trkpt lat="42.344021" lon="1.908085">
        <ele>1823.2</ele>
        <time>1970-01-01T01:06:41.000Z</time>
      </trkpt>
      <trkpt lat="42.344002" lon="1.908076">
        <ele>1823.4</ele>
        <time>1970-01-01T01:06:42.000Z</time>
      </trkpt>
      <trkpt lat="42.343983" lon="1.908063">
        <ele>1823.6</ele>
        <time>1970-01-01T01:06:43.000Z</time>
      </trkpt>
      <trkpt lat="42.343964" lon="1.908051">
        <ele>1823.9</ele>
        <time>1970-01-01T01:06:44.000Z</time>
      </trkpt>
      <trkpt lat="42.343945" lon="1.908041">
        <ele>1824.1</ele>
        <time>1970-01-01T01:06:45.000Z</time>
      </trkpt>
      <trkpt lat="42.343933" lon="1.908036">
        <ele>1824.3</ele>
        <time>1970-01-01T01:06:46.000Z</time>
      </trkpt>
      <trkpt lat="42.343918" lon="1.908028">
        <ele>1824.5</ele>
        <time>1970-01-01T01:06:47.000Z</time>
      </trkpt>
      <trkpt lat="42.343899" lon="1.908025">
        <ele>1824.7</ele>
        <time>1970-01-01T01:06:48.000Z</time>
      </trkpt>
      <trkpt lat="42.34388" lon="1.908025">
        <ele>1825</ele>
        <time>1970-01-01T01:06:49.000Z</time>
      </trkpt>
      <trkpt lat="42.343864" lon="1.908022">
        <ele>1825.2</ele>
        <time>1970-01-01T01:06:50.000Z</time>
      </trkpt>
      <trkpt lat="42.343845" lon="1.908017">
        <ele>1825.4</ele>
        <time>1970-01-01T01:06:51.000Z</time>
      </trkpt>
      <trkpt lat="42.34383" lon="1.908015">
        <ele>1825.6</ele>
        <time>1970-01-01T01:06:52.000Z</time>
      </trkpt>
      <trkpt lat="42.343811" lon="1.908015">
        <ele>1825.8</ele>
        <time>1970-01-01T01:06:53.000Z</time>
      </trkpt>
      <trkpt lat="42.343792" lon="1.908014">
        <ele>1826.1</ele>
        <time>1970-01-01T01:06:54.000Z</time>
      </trkpt>
      <trkpt lat="42.343777" lon="1.908011">
        <ele>1826.3</ele>
        <time>1970-01-01T01:06:55.000Z</time>
      </trkpt>
      <trkpt lat="42.343761" lon="1.908009">
        <ele>1826.5</ele>
        <time>1970-01-01T01:06:56.000Z</time>
      </trkpt>
      <trkpt lat="42.343746" lon="1.908008">
        <ele>1826.7</ele>
        <time>1970-01-01T01:06:57.000Z</time>
      </trkpt>
      <trkpt lat="42.343727" lon="1.908007">
        <ele>1826.9</ele>
        <time>1970-01-01T01:06:58.000Z</time>
      </trkpt>
      <trkpt lat="42.343712" lon="1.908004">
        <ele>1827.1</ele>
        <time>1970-01-01T01:06:59.000Z</time>
      </trkpt>
      <trkpt lat="42.343689" lon="1.907998">
        <ele>1827.4</ele>
        <time>1970-01-01T01:07:00.000Z</time>
      </trkpt>
      <trkpt lat="42.343674" lon="1.907994">
        <ele>1827.6</ele>
        <time>1970-01-01T01:07:01.000Z</time>
      </trkpt>
      <trkpt lat="42.343655" lon="1.907991">
        <ele>1827.9</ele>
        <time>1970-01-01T01:07:02.000Z</time>
      </trkpt>
      <trkpt lat="42.343636" lon="1.907987">
        <ele>1828.1</ele>
        <time>1970-01-01T01:07:03.000Z</time>
      </trkpt>
      <trkpt lat="42.34362" lon="1.907987">
        <ele>1828.4</ele>
        <time>1970-01-01T01:07:04.000Z</time>
      </trkpt>
      <trkpt lat="42.343605" lon="1.907988">
        <ele>1828.6</ele>
        <time>1970-01-01T01:07:05.000Z</time>
      </trkpt>
      <trkpt lat="42.343582" lon="1.907987">
        <ele>1829</ele>
        <time>1970-01-01T01:07:06.000Z</time>
      </trkpt>
      <trkpt lat="42.343567" lon="1.907984">
        <ele>1829.2</ele>
        <time>1970-01-01T01:07:07.000Z</time>
      </trkpt>
      <trkpt lat="42.343552" lon="1.907975">
        <ele>1829.4</ele>
        <time>1970-01-01T01:07:08.000Z</time>
      </trkpt>
      <trkpt lat="42.34354" lon="1.907965">
        <ele>1829.7</ele>
        <time>1970-01-01T01:07:09.000Z</time>
      </trkpt>
      <trkpt lat="42.343525" lon="1.907955">
        <ele>1829.9</ele>
        <time>1970-01-01T01:07:10.000Z</time>
      </trkpt>
      <trkpt lat="42.34351" lon="1.907946">
        <ele>1830.2</ele>
        <time>1970-01-01T01:07:11.000Z</time>
      </trkpt>
      <trkpt lat="42.343491" lon="1.907941">
        <ele>1830.5</ele>
        <time>1970-01-01T01:07:12.000Z</time>
      </trkpt>
      <trkpt lat="42.343479" lon="1.907936">
        <ele>1830.7</ele>
        <time>1970-01-01T01:07:13.000Z</time>
      </trkpt>
      <trkpt lat="42.343464" lon="1.907931">
        <ele>1830.9</ele>
        <time>1970-01-01T01:07:14.000Z</time>
      </trkpt>
      <trkpt lat="42.343449" lon="1.907923">
        <ele>1831.2</ele>
        <time>1970-01-01T01:07:15.000Z</time>
      </trkpt>
      <trkpt lat="42.343433" lon="1.907916">
        <ele>1831.5</ele>
        <time>1970-01-01T01:07:16.000Z</time>
      </trkpt>
      <trkpt lat="42.343418" lon="1.907908">
        <ele>1831.7</ele>
        <time>1970-01-01T01:07:17.000Z</time>
      </trkpt>
      <trkpt lat="42.343403" lon="1.907904">
        <ele>1831.9</ele>
        <time>1970-01-01T01:07:18.000Z</time>
      </trkpt>
      <trkpt lat="42.343391" lon="1.907905">
        <ele>1832.1</ele>
        <time>1970-01-01T01:07:19.000Z</time>
      </trkpt>
      <trkpt lat="42.343376" lon="1.907904">
        <ele>1832.4</ele>
        <time>1970-01-01T01:07:20.000Z</time>
      </trkpt>
      <trkpt lat="42.343357" lon="1.907899">
        <ele>1832.7</ele>
        <time>1970-01-01T01:07:21.000Z</time>
      </trkpt>
      <trkpt lat="42.343342" lon="1.907895">
        <ele>1832.9</ele>
        <time>1970-01-01T01:07:22.000Z</time>
      </trkpt>
      <trkpt lat="42.343323" lon="1.907894">
        <ele>1833.2</ele>
        <time>1970-01-01T01:07:23.000Z</time>
      </trkpt>
      <trkpt lat="42.343304" lon="1.907893">
        <ele>1833.5</ele>
        <time>1970-01-01T01:07:24.000Z</time>
      </trkpt>
      <trkpt lat="42.343292" lon="1.90789">
        <ele>1833.7</ele>
        <time>1970-01-01T01:07:25.000Z</time>
      </trkpt>
      <trkpt lat="42.343273" lon="1.907883">
        <ele>1834</ele>
        <time>1970-01-01T01:07:26.000Z</time>
      </trkpt>
      <trkpt lat="42.343254" lon="1.907876">
        <ele>1834.3</ele>
        <time>1970-01-01T01:07:27.000Z</time>
      </trkpt>
      <trkpt lat="42.343235" lon="1.907875">
        <ele>1834.5</ele>
        <time>1970-01-01T01:07:28.000Z</time>
      </trkpt>
      <trkpt lat="42.34322" lon="1.907876">
        <ele>1834.8</ele>
        <time>1970-01-01T01:07:29.000Z</time>
      </trkpt>
      <trkpt lat="42.343204" lon="1.907878">
        <ele>1835</ele>
        <time>1970-01-01T01:07:30.000Z</time>
      </trkpt>
      <trkpt lat="42.343193" lon="1.907887">
        <ele>1835.2</ele>
        <time>1970-01-01T01:07:31.000Z</time>
      </trkpt>
      <trkpt lat="42.343178" lon="1.90789">
        <ele>1835.4</ele>
        <time>1970-01-01T01:07:32.000Z</time>
      </trkpt>
      <trkpt lat="42.343163" lon="1.907891">
        <ele>1835.6</ele>
        <time>1970-01-01T01:07:33.000Z</time>
      </trkpt>
      <trkpt lat="42.343147" lon="1.907889">
        <ele>1835.8</ele>
        <time>1970-01-01T01:07:34.000Z</time>
      </trkpt>
      <trkpt lat="42.343132" lon="1.90788">
        <ele>1836</ele>
        <time>1970-01-01T01:07:35.000Z</time>
      </trkpt>
      <trkpt lat="42.343113" lon="1.907873">
        <ele>1836.3</ele>
        <time>1970-01-01T01:07:36.000Z</time>
      </trkpt>
      <trkpt lat="42.343098" lon="1.907867">
        <ele>1836.5</ele>
        <time>1970-01-01T01:07:37.000Z</time>
      </trkpt>
      <trkpt lat="42.343079" lon="1.907862">
        <ele>1836.7</ele>
        <time>1970-01-01T01:07:38.000Z</time>
      </trkpt>
      <trkpt lat="42.34306" lon="1.907857">
        <ele>1836.9</ele>
        <time>1970-01-01T01:07:39.000Z</time>
      </trkpt>
      <trkpt lat="42.34304" lon="1.907851">
        <ele>1837.2</ele>
        <time>1970-01-01T01:07:40.000Z</time>
      </trkpt>
      <trkpt lat="42.343025" lon="1.907843">
        <ele>1837.4</ele>
        <time>1970-01-01T01:07:41.000Z</time>
      </trkpt>
      <trkpt lat="42.343006" lon="1.907835">
        <ele>1837.6</ele>
        <time>1970-01-01T01:07:42.000Z</time>
      </trkpt>
      <trkpt lat="42.342987" lon="1.907826">
        <ele>1837.9</ele>
        <time>1970-01-01T01:07:43.000Z</time>
      </trkpt>
      <trkpt lat="42.342972" lon="1.907816">
        <ele>1838.1</ele>
        <time>1970-01-01T01:07:44.000Z</time>
      </trkpt>
      <trkpt lat="42.342957" lon="1.9078">
        <ele>1838.3</ele>
        <time>1970-01-01T01:07:45.000Z</time>
      </trkpt>
      <trkpt lat="42.342941" lon="1.907784">
        <ele>1838.5</ele>
        <time>1970-01-01T01:07:46.000Z</time>
      </trkpt>
      <trkpt lat="42.342922" lon="1.907771">
        <ele>1838.7</ele>
        <time>1970-01-01T01:07:47.000Z</time>
      </trkpt>
      <trkpt lat="42.342907" lon="1.907761">
        <ele>1838.9</ele>
        <time>1970-01-01T01:07:48.000Z</time>
      </trkpt>
      <trkpt lat="42.342892" lon="1.907756">
        <ele>1839.1</ele>
        <time>1970-01-01T01:07:49.000Z</time>
      </trkpt>
      <trkpt lat="42.342869" lon="1.907747">
        <ele>1839.3</ele>
        <time>1970-01-01T01:07:50.000Z</time>
      </trkpt>
      <trkpt lat="42.34285" lon="1.907741">
        <ele>1839.5</ele>
        <time>1970-01-01T01:07:51.000Z</time>
      </trkpt>
      <trkpt lat="42.342834" lon="1.907735">
        <ele>1839.6</ele>
        <time>1970-01-01T01:07:52.000Z</time>
      </trkpt>
      <trkpt lat="42.342819" lon="1.90773">
        <ele>1839.8</ele>
        <time>1970-01-01T01:07:53.000Z</time>
      </trkpt>
      <trkpt lat="42.3428" lon="1.907727">
        <ele>1840</ele>
        <time>1970-01-01T01:07:54.000Z</time>
      </trkpt>
      <trkpt lat="42.342781" lon="1.907724">
        <ele>1840.2</ele>
        <time>1970-01-01T01:07:55.000Z</time>
      </trkpt>
      <trkpt lat="42.342762" lon="1.907723">
        <ele>1840.4</ele>
        <time>1970-01-01T01:07:56.000Z</time>
      </trkpt>
      <trkpt lat="42.342739" lon="1.907726">
        <ele>1840.6</ele>
        <time>1970-01-01T01:07:57.000Z</time>
      </trkpt>
      <trkpt lat="42.342724" lon="1.907737">
        <ele>1840.8</ele>
        <time>1970-01-01T01:07:58.000Z</time>
      </trkpt>
      <trkpt lat="42.342709" lon="1.90775">
        <ele>1841</ele>
        <time>1970-01-01T01:07:59.000Z</time>
      </trkpt>
      <trkpt lat="42.34269" lon="1.907763">
        <ele>1841.3</ele>
        <time>1970-01-01T01:08:00.000Z</time>
      </trkpt>
      <trkpt lat="42.342674" lon="1.907778">
        <ele>1841.6</ele>
        <time>1970-01-01T01:08:01.000Z</time>
      </trkpt>
      <trkpt lat="42.342663" lon="1.90779">
        <ele>1841.8</ele>
        <time>1970-01-01T01:08:02.000Z</time>
      </trkpt>
      <trkpt lat="42.342651" lon="1.907805">
        <ele>1842</ele>
        <time>1970-01-01T01:08:03.000Z</time>
      </trkpt>
      <trkpt lat="42.342644" lon="1.907824">
        <ele>1842.3</ele>
        <time>1970-01-01T01:08:04.000Z</time>
      </trkpt>
      <trkpt lat="42.34264" lon="1.907844">
        <ele>1842.5</ele>
        <time>1970-01-01T01:08:05.000Z</time>
      </trkpt>
      <trkpt lat="42.342636" lon="1.90786">
        <ele>1842.7</ele>
        <time>1970-01-01T01:08:06.000Z</time>
      </trkpt>
      <trkpt lat="42.342636" lon="1.907876">
        <ele>1842.9</ele>
        <time>1970-01-01T01:08:07.000Z</time>
      </trkpt>
      <trkpt lat="42.342632" lon="1.907896">
        <ele>1843.2</ele>
        <time>1970-01-01T01:08:08.000Z</time>
      </trkpt>
      <trkpt lat="42.342632" lon="1.907913">
        <ele>1843.4</ele>
        <time>1970-01-01T01:08:09.000Z</time>
      </trkpt>
      <trkpt lat="42.342636" lon="1.907931">
        <ele>1843.7</ele>
        <time>1970-01-01T01:08:10.000Z</time>
      </trkpt>
      <trkpt lat="42.34264" lon="1.907951">
        <ele>1844</ele>
        <time>1970-01-01T01:08:11.000Z</time>
      </trkpt>
      <trkpt lat="42.34264" lon="1.907971">
        <ele>1844.3</ele>
        <time>1970-01-01T01:08:12.000Z</time>
      </trkpt>
      <trkpt lat="42.34264" lon="1.907997">
        <ele>1844.7</ele>
        <time>1970-01-01T01:08:13.000Z</time>
      </trkpt>
      <trkpt lat="42.34264" lon="1.908021">
        <ele>1845</ele>
        <time>1970-01-01T01:08:14.000Z</time>
      </trkpt>
      <trkpt lat="42.34264" lon="1.908048">
        <ele>1845.5</ele>
        <time>1970-01-01T01:08:15.000Z</time>
      </trkpt>
      <trkpt lat="42.34264" lon="1.908072">
        <ele>1845.8</ele>
        <time>1970-01-01T01:08:16.000Z</time>
      </trkpt>
      <trkpt lat="42.34264" lon="1.908095">
        <ele>1846.2</ele>
        <time>1970-01-01T01:08:17.000Z</time>
      </trkpt>
      <trkpt lat="42.34264" lon="1.908114">
        <ele>1846.5</ele>
        <time>1970-01-01T01:08:18.000Z</time>
      </trkpt>
      <trkpt lat="42.342644" lon="1.90813">
        <ele>1846.8</ele>
        <time>1970-01-01T01:08:19.000Z</time>
      </trkpt>
      <trkpt lat="42.342655" lon="1.908143">
        <ele>1847.2</ele>
        <time>1970-01-01T01:08:20.000Z</time>
      </trkpt>
      <trkpt lat="42.342659" lon="1.908159">
        <ele>1847.5</ele>
        <time>1970-01-01T01:08:21.000Z</time>
      </trkpt>
      <trkpt lat="42.342667" lon="1.908176">
        <ele>1847.8</ele>
        <time>1970-01-01T01:08:22.000Z</time>
      </trkpt>
      <trkpt lat="42.342674" lon="1.908196">
        <ele>1848.2</ele>
        <time>1970-01-01T01:08:23.000Z</time>
      </trkpt>
      <trkpt lat="42.342678" lon="1.908216">
        <ele>1848.5</ele>
        <time>1970-01-01T01:08:24.000Z</time>
      </trkpt>
      <trkpt lat="42.342686" lon="1.908233">
        <ele>1848.9</ele>
        <time>1970-01-01T01:08:25.000Z</time>
      </trkpt>
      <trkpt lat="42.342693" lon="1.908251">
        <ele>1849.2</ele>
        <time>1970-01-01T01:08:26.000Z</time>
      </trkpt>
      <trkpt lat="42.342705" lon="1.908268">
        <ele>1849.6</ele>
        <time>1970-01-01T01:08:27.000Z</time>
      </trkpt>
      <trkpt lat="42.342716" lon="1.908283">
        <ele>1850</ele>
        <time>1970-01-01T01:08:28.000Z</time>
      </trkpt>
      <trkpt lat="42.342724" lon="1.908298">
        <ele>1850.2</ele>
        <time>1970-01-01T01:08:29.000Z</time>
      </trkpt>
      <trkpt lat="42.342732" lon="1.908312">
        <ele>1850.5</ele>
        <time>1970-01-01T01:08:30.000Z</time>
      </trkpt>
      <trkpt lat="42.342743" lon="1.908325">
        <ele>1850.8</ele>
        <time>1970-01-01T01:08:31.000Z</time>
      </trkpt>
      <trkpt lat="42.342747" lon="1.908339">
        <ele>1851.1</ele>
        <time>1970-01-01T01:08:32.000Z</time>
      </trkpt>
      <trkpt lat="42.342758" lon="1.908354">
        <ele>1851.4</ele>
        <time>1970-01-01T01:08:33.000Z</time>
      </trkpt>
      <trkpt lat="42.342766" lon="1.90837">
        <ele>1851.6</ele>
        <time>1970-01-01T01:08:34.000Z</time>
      </trkpt>
      <trkpt lat="42.342777" lon="1.908386">
        <ele>1852</ele>
        <time>1970-01-01T01:08:35.000Z</time>
      </trkpt>
      <trkpt lat="42.342785" lon="1.908406">
        <ele>1852.3</ele>
        <time>1970-01-01T01:08:36.000Z</time>
      </trkpt>
      <trkpt lat="42.342796" lon="1.908426">
        <ele>1852.6</ele>
        <time>1970-01-01T01:08:37.000Z</time>
      </trkpt>
      <trkpt lat="42.3428" lon="1.908442">
        <ele>1852.9</ele>
        <time>1970-01-01T01:08:38.000Z</time>
      </trkpt>
      <trkpt lat="42.342804" lon="1.90846">
        <ele>1853.1</ele>
        <time>1970-01-01T01:08:39.000Z</time>
      </trkpt>
      <trkpt lat="42.342808" lon="1.908476">
        <ele>1853.4</ele>
        <time>1970-01-01T01:08:40.000Z</time>
      </trkpt>
      <trkpt lat="42.342812" lon="1.908495">
        <ele>1853.7</ele>
        <time>1970-01-01T01:08:41.000Z</time>
      </trkpt>
      <trkpt lat="42.342812" lon="1.908514">
        <ele>1853.9</ele>
        <time>1970-01-01T01:08:42.000Z</time>
      </trkpt>
      <trkpt lat="42.342815" lon="1.908534">
        <ele>1854.2</ele>
        <time>1970-01-01T01:08:43.000Z</time>
      </trkpt>
      <trkpt lat="42.342815" lon="1.908551">
        <ele>1854.5</ele>
        <time>1970-01-01T01:08:44.000Z</time>
      </trkpt>
      <trkpt lat="42.342819" lon="1.908569">
        <ele>1854.7</ele>
        <time>1970-01-01T01:08:45.000Z</time>
      </trkpt>
      <trkpt lat="42.342815" lon="1.908588">
        <ele>1855</ele>
        <time>1970-01-01T01:08:46.000Z</time>
      </trkpt>
      <trkpt lat="42.342812" lon="1.908609">
        <ele>1855.3</ele>
        <time>1970-01-01T01:08:47.000Z</time>
      </trkpt>
      <trkpt lat="42.342808" lon="1.908629">
        <ele>1855.6</ele>
        <time>1970-01-01T01:08:48.000Z</time>
      </trkpt>
      <trkpt lat="42.342808" lon="1.908648">
        <ele>1855.9</ele>
        <time>1970-01-01T01:08:49.000Z</time>
      </trkpt>
      <trkpt lat="42.342808" lon="1.908663">
        <ele>1856.1</ele>
        <time>1970-01-01T01:08:50.000Z</time>
      </trkpt>
      <trkpt lat="42.342808" lon="1.908678">
        <ele>1856.3</ele>
        <time>1970-01-01T01:08:51.000Z</time>
      </trkpt>
      <trkpt lat="42.3428" lon="1.908694">
        <ele>1856.6</ele>
        <time>1970-01-01T01:08:52.000Z</time>
      </trkpt>
      <trkpt lat="42.342796" lon="1.908709">
        <ele>1856.8</ele>
        <time>1970-01-01T01:08:53.000Z</time>
      </trkpt>
      <trkpt lat="42.342796" lon="1.908725">
        <ele>1857</ele>
        <time>1970-01-01T01:08:54.000Z</time>
      </trkpt>
      <trkpt lat="42.342796" lon="1.908737">
        <ele>1857.2</ele>
        <time>1970-01-01T01:08:55.000Z</time>
      </trkpt>
      <trkpt lat="42.342785" lon="1.908749">
        <ele>1857.4</ele>
        <time>1970-01-01T01:08:56.000Z</time>
      </trkpt>
      <trkpt lat="42.342773" lon="1.90876">
        <ele>1857.7</ele>
        <time>1970-01-01T01:08:57.000Z</time>
      </trkpt>
      <trkpt lat="42.342766" lon="1.908769">
        <ele>1857.9</ele>
        <time>1970-01-01T01:08:58.000Z</time>
      </trkpt>
      <trkpt lat="42.342751" lon="1.908779">
        <ele>1858.2</ele>
        <time>1970-01-01T01:08:59.000Z</time>
      </trkpt>
      <trkpt lat="42.342739" lon="1.90879">
        <ele>1858.4</ele>
        <time>1970-01-01T01:09:00.000Z</time>
      </trkpt>
      <trkpt lat="42.342732" lon="1.908803">
        <ele>1858.7</ele>
        <time>1970-01-01T01:09:01.000Z</time>
      </trkpt>
      <trkpt lat="42.342724" lon="1.908814">
        <ele>1858.9</ele>
        <time>1970-01-01T01:09:02.000Z</time>
      </trkpt>
      <trkpt lat="42.342716" lon="1.908822">
        <ele>1859.1</ele>
        <time>1970-01-01T01:09:03.000Z</time>
      </trkpt>
      <trkpt lat="42.342705" lon="1.908829">
        <ele>1859.3</ele>
        <time>1970-01-01T01:09:04.000Z</time>
      </trkpt>
      <trkpt lat="42.342697" lon="1.908837">
        <ele>1859.5</ele>
        <time>1970-01-01T01:09:05.000Z</time>
      </trkpt>
      <trkpt lat="42.342686" lon="1.908849">
        <ele>1859.7</ele>
        <time>1970-01-01T01:09:06.000Z</time>
      </trkpt>
      <trkpt lat="42.342682" lon="1.908862">
        <ele>1859.9</ele>
        <time>1970-01-01T01:09:07.000Z</time>
      </trkpt>
      <trkpt lat="42.342674" lon="1.908875">
        <ele>1860.1</ele>
        <time>1970-01-01T01:09:08.000Z</time>
      </trkpt>
      <trkpt lat="42.342667" lon="1.908882">
        <ele>1860.3</ele>
        <time>1970-01-01T01:09:09.000Z</time>
      </trkpt>
      <trkpt lat="42.342651" lon="1.908885">
        <ele>1860.6</ele>
        <time>1970-01-01T01:09:10.000Z</time>
      </trkpt>
      <trkpt lat="42.342632" lon="1.908884">
        <ele>1861</ele>
        <time>1970-01-01T01:09:11.000Z</time>
      </trkpt>
      <trkpt lat="42.342617" lon="1.908882">
        <ele>1861.2</ele>
        <time>1970-01-01T01:09:12.000Z</time>
      </trkpt>
      <trkpt lat="42.342598" lon="1.90888">
        <ele>1861.6</ele>
        <time>1970-01-01T01:09:13.000Z</time>
      </trkpt>
      <trkpt lat="42.342586" lon="1.908879">
        <ele>1861.9</ele>
        <time>1970-01-01T01:09:14.000Z</time>
      </trkpt>
      <trkpt lat="42.342567" lon="1.908875">
        <ele>1862.2</ele>
        <time>1970-01-01T01:09:15.000Z</time>
      </trkpt>
      <trkpt lat="42.342552" lon="1.908874">
        <ele>1862.5</ele>
        <time>1970-01-01T01:09:16.000Z</time>
      </trkpt>
      <trkpt lat="42.342537" lon="1.90887">
        <ele>1862.9</ele>
        <time>1970-01-01T01:09:17.000Z</time>
      </trkpt>
      <trkpt lat="42.342525" lon="1.908869">
        <ele>1863.1</ele>
        <time>1970-01-01T01:09:18.000Z</time>
      </trkpt>
      <trkpt lat="42.34251" lon="1.90887">
        <ele>1863.4</ele>
        <time>1970-01-01T01:09:19.000Z</time>
      </trkpt>
      <trkpt lat="42.342499" lon="1.90887">
        <ele>1863.6</ele>
        <time>1970-01-01T01:09:20.000Z</time>
      </trkpt>
      <trkpt lat="42.342491" lon="1.908871">
        <ele>1863.8</ele>
        <time>1970-01-01T01:09:21.000Z</time>
      </trkpt>
      <trkpt lat="42.342483" lon="1.90887">
        <ele>1863.9</ele>
        <time>1970-01-01T01:09:22.000Z</time>
      </trkpt>
      <trkpt lat="42.342472" lon="1.90887">
        <ele>1864.2</ele>
        <time>1970-01-01T01:09:23.000Z</time>
      </trkpt>
      <trkpt lat="42.342461" lon="1.908867">
        <ele>1864.4</ele>
        <time>1970-01-01T01:09:24.000Z</time>
      </trkpt>
      <trkpt lat="42.342457" lon="1.908865">
        <ele>1864.5</ele>
        <time>1970-01-01T01:09:25.000Z</time>
      </trkpt>
      <trkpt lat="42.342445" lon="1.908862">
        <ele>1864.7</ele>
        <time>1970-01-01T01:09:26.000Z</time>
      </trkpt>
      <trkpt lat="42.342442" lon="1.908857">
        <ele>1864.8</ele>
        <time>1970-01-01T01:09:27.000Z</time>
      </trkpt>
      <trkpt lat="42.342434" lon="1.908851">
        <ele>1865</ele>
        <time>1970-01-01T01:09:28.000Z</time>
      </trkpt>
      <trkpt lat="42.342422" lon="1.908854">
        <ele>1865.2</ele>
        <time>1970-01-01T01:09:29.000Z</time>
      </trkpt>
      <trkpt lat="42.342411" lon="1.908854">
        <ele>1865.5</ele>
        <time>1970-01-01T01:09:30.000Z</time>
      </trkpt>
      <trkpt lat="42.3424" lon="1.908853">
        <ele>1865.7</ele>
        <time>1970-01-01T01:09:31.000Z</time>
      </trkpt>
      <trkpt lat="42.342384" lon="1.90885">
        <ele>1866</ele>
        <time>1970-01-01T01:09:32.000Z</time>
      </trkpt>
      <trkpt lat="42.342373" lon="1.90885">
        <ele>1866.2</ele>
        <time>1970-01-01T01:09:33.000Z</time>
      </trkpt>
      <trkpt lat="42.342361" lon="1.908849">
        <ele>1866.5</ele>
        <time>1970-01-01T01:09:34.000Z</time>
      </trkpt>
      <trkpt lat="42.342346" lon="1.908851">
        <ele>1866.7</ele>
        <time>1970-01-01T01:09:35.000Z</time>
      </trkpt>
      <trkpt lat="42.342335" lon="1.908855">
        <ele>1867</ele>
        <time>1970-01-01T01:09:36.000Z</time>
      </trkpt>
      <trkpt lat="42.342323" lon="1.908855">
        <ele>1867.2</ele>
        <time>1970-01-01T01:09:37.000Z</time>
      </trkpt>
      <trkpt lat="42.342312" lon="1.908852">
        <ele>1867.4</ele>
        <time>1970-01-01T01:09:38.000Z</time>
      </trkpt>
      <trkpt lat="42.3423" lon="1.908846">
        <ele>1867.7</ele>
        <time>1970-01-01T01:09:39.000Z</time>
      </trkpt>
      <trkpt lat="42.342293" lon="1.908836">
        <ele>1867.9</ele>
        <time>1970-01-01T01:09:40.000Z</time>
      </trkpt>
      <trkpt lat="42.342285" lon="1.908829">
        <ele>1868.1</ele>
        <time>1970-01-01T01:09:41.000Z</time>
      </trkpt>
      <trkpt lat="42.342274" lon="1.908824">
        <ele>1868.3</ele>
        <time>1970-01-01T01:09:42.000Z</time>
      </trkpt>
      <trkpt lat="42.342262" lon="1.908821">
        <ele>1868.5</ele>
        <time>1970-01-01T01:09:43.000Z</time>
      </trkpt>
      <trkpt lat="42.342251" lon="1.90882">
        <ele>1868.8</ele>
        <time>1970-01-01T01:09:44.000Z</time>
      </trkpt>
      <trkpt lat="42.342239" lon="1.90882">
        <ele>1869</ele>
        <time>1970-01-01T01:09:45.000Z</time>
      </trkpt>
      <trkpt lat="42.342232" lon="1.908819">
        <ele>1869.1</ele>
        <time>1970-01-01T01:09:46.000Z</time>
      </trkpt>
      <trkpt lat="42.34222" lon="1.908811">
        <ele>1869.4</ele>
        <time>1970-01-01T01:09:47.000Z</time>
      </trkpt>
      <trkpt lat="42.342205" lon="1.908804">
        <ele>1869.7</ele>
        <time>1970-01-01T01:09:48.000Z</time>
      </trkpt>
      <trkpt lat="42.342186" lon="1.908799">
        <ele>1870.1</ele>
        <time>1970-01-01T01:09:49.000Z</time>
      </trkpt>
      <trkpt lat="42.342171" lon="1.908795">
        <ele>1870.4</ele>
        <time>1970-01-01T01:09:50.000Z</time>
      </trkpt>
      <trkpt lat="42.342155" lon="1.908789">
        <ele>1870.7</ele>
        <time>1970-01-01T01:09:51.000Z</time>
      </trkpt>
      <trkpt lat="42.342144" lon="1.908785">
        <ele>1870.9</ele>
        <time>1970-01-01T01:09:52.000Z</time>
      </trkpt>
      <trkpt lat="42.342133" lon="1.908777">
        <ele>1871.2</ele>
        <time>1970-01-01T01:09:53.000Z</time>
      </trkpt>
      <trkpt lat="42.342125" lon="1.908771">
        <ele>1871.4</ele>
        <time>1970-01-01T01:09:54.000Z</time>
      </trkpt>
      <trkpt lat="42.342114" lon="1.908764">
        <ele>1871.6</ele>
        <time>1970-01-01T01:09:55.000Z</time>
      </trkpt>
      <trkpt lat="42.342098" lon="1.908763">
        <ele>1871.9</ele>
        <time>1970-01-01T01:09:56.000Z</time>
      </trkpt>
      <trkpt lat="42.342087" lon="1.908759">
        <ele>1872.2</ele>
        <time>1970-01-01T01:09:57.000Z</time>
      </trkpt>
      <trkpt lat="42.342075" lon="1.908754">
        <ele>1872.4</ele>
        <time>1970-01-01T01:09:58.000Z</time>
      </trkpt>
      <trkpt lat="42.342068" lon="1.908751">
        <ele>1872.6</ele>
        <time>1970-01-01T01:09:59.000Z</time>
      </trkpt>
      <trkpt lat="42.342056" lon="1.908747">
        <ele>1872.8</ele>
        <time>1970-01-01T01:10:00.000Z</time>
      </trkpt>
      <trkpt lat="42.342049" lon="1.908742">
        <ele>1873</ele>
        <time>1970-01-01T01:10:01.000Z</time>
      </trkpt>
      <trkpt lat="42.342033" lon="1.908739">
        <ele>1873.3</ele>
        <time>1970-01-01T01:10:02.000Z</time>
      </trkpt>
      <trkpt lat="42.342022" lon="1.908727">
        <ele>1873.6</ele>
        <time>1970-01-01T01:10:03.000Z</time>
      </trkpt>
      <trkpt lat="42.342007" lon="1.908718">
        <ele>1874</ele>
        <time>1970-01-01T01:10:04.000Z</time>
      </trkpt>
      <trkpt lat="42.341991" lon="1.908712">
        <ele>1874.3</ele>
        <time>1970-01-01T01:10:05.000Z</time>
      </trkpt>
      <trkpt lat="42.341976" lon="1.908706">
        <ele>1874.7</ele>
        <time>1970-01-01T01:10:06.000Z</time>
      </trkpt>
      <trkpt lat="42.341961" lon="1.908698">
        <ele>1875</ele>
        <time>1970-01-01T01:10:07.000Z</time>
      </trkpt>
      <trkpt lat="42.341949" lon="1.908694">
        <ele>1875.3</ele>
        <time>1970-01-01T01:10:08.000Z</time>
      </trkpt>
      <trkpt lat="42.341938" lon="1.908693">
        <ele>1875.5</ele>
        <time>1970-01-01T01:10:09.000Z</time>
      </trkpt>
      <trkpt lat="42.341927" lon="1.908702">
        <ele>1875.8</ele>
        <time>1970-01-01T01:10:10.000Z</time>
      </trkpt>
      <trkpt lat="42.341915" lon="1.908705">
        <ele>1876</ele>
        <time>1970-01-01T01:10:11.000Z</time>
      </trkpt>
      <trkpt lat="42.341904" lon="1.908701">
        <ele>1876.3</ele>
        <time>1970-01-01T01:10:12.000Z</time>
      </trkpt>
      <trkpt lat="42.341892" lon="1.908696">
        <ele>1876.6</ele>
        <time>1970-01-01T01:10:13.000Z</time>
      </trkpt>
      <trkpt lat="42.341885" lon="1.908695">
        <ele>1876.7</ele>
        <time>1970-01-01T01:10:14.000Z</time>
      </trkpt>
      <trkpt lat="42.341873" lon="1.908695">
        <ele>1877</ele>
        <time>1970-01-01T01:10:15.000Z</time>
      </trkpt>
      <trkpt lat="42.341862" lon="1.908694">
        <ele>1877.2</ele>
        <time>1970-01-01T01:10:16.000Z</time>
      </trkpt>
      <trkpt lat="42.341858" lon="1.908705">
        <ele>1877.4</ele>
        <time>1970-01-01T01:10:17.000Z</time>
      </trkpt>
      <trkpt lat="42.34185" lon="1.908705">
        <ele>1877.5</ele>
        <time>1970-01-01T01:10:18.000Z</time>
      </trkpt>
      <trkpt lat="42.341835" lon="1.908704">
        <ele>1877.8</ele>
        <time>1970-01-01T01:10:19.000Z</time>
      </trkpt>
      <trkpt lat="42.341824" lon="1.908703">
        <ele>1878.1</ele>
        <time>1970-01-01T01:10:20.000Z</time>
      </trkpt>
      <trkpt lat="42.341812" lon="1.908696">
        <ele>1878.3</ele>
        <time>1970-01-01T01:10:21.000Z</time>
      </trkpt>
      <trkpt lat="42.341793" lon="1.908691">
        <ele>1878.7</ele>
        <time>1970-01-01T01:10:22.000Z</time>
      </trkpt>
      <trkpt lat="42.341782" lon="1.90869">
        <ele>1878.9</ele>
        <time>1970-01-01T01:10:23.000Z</time>
      </trkpt>
      <trkpt lat="42.34177" lon="1.908691">
        <ele>1879.2</ele>
        <time>1970-01-01T01:10:24.000Z</time>
      </trkpt>
      <trkpt lat="42.341759" lon="1.90869">
        <ele>1879.4</ele>
        <time>1970-01-01T01:10:25.000Z</time>
      </trkpt>
      <trkpt lat="42.341747" lon="1.908686">
        <ele>1879.6</ele>
        <time>1970-01-01T01:10:26.000Z</time>
      </trkpt>
      <trkpt lat="42.341736" lon="1.908684">
        <ele>1879.9</ele>
        <time>1970-01-01T01:10:27.000Z</time>
      </trkpt>
      <trkpt lat="42.341728" lon="1.90868">
        <ele>1880</ele>
        <time>1970-01-01T01:10:28.000Z</time>
      </trkpt>
      <trkpt lat="42.341717" lon="1.908677">
        <ele>1880.3</ele>
        <time>1970-01-01T01:10:29.000Z</time>
      </trkpt>
      <trkpt lat="42.341709" lon="1.908678">
        <ele>1880.4</ele>
        <time>1970-01-01T01:10:30.000Z</time>
      </trkpt>
      <trkpt lat="42.341698" lon="1.908677">
        <ele>1880.6</ele>
        <time>1970-01-01T01:10:31.000Z</time>
      </trkpt>
      <trkpt lat="42.34169" lon="1.908684">
        <ele>1880.8</ele>
        <time>1970-01-01T01:10:32.000Z</time>
      </trkpt>
      <trkpt lat="42.341679" lon="1.908685">
        <ele>1881.1</ele>
        <time>1970-01-01T01:10:33.000Z</time>
      </trkpt>
      <trkpt lat="42.341663" lon="1.908678">
        <ele>1881.4</ele>
        <time>1970-01-01T01:10:34.000Z</time>
      </trkpt>
      <trkpt lat="42.341652" lon="1.908672">
        <ele>1881.6</ele>
        <time>1970-01-01T01:10:35.000Z</time>
      </trkpt>
      <trkpt lat="42.34164" lon="1.908666">
        <ele>1881.9</ele>
        <time>1970-01-01T01:10:36.000Z</time>
      </trkpt>
      <trkpt lat="42.341625" lon="1.908659">
        <ele>1882.2</ele>
        <time>1970-01-01T01:10:37.000Z</time>
      </trkpt>
      <trkpt lat="42.341614" lon="1.908654">
        <ele>1882.4</ele>
        <time>1970-01-01T01:10:38.000Z</time>
      </trkpt>
      <trkpt lat="42.341599" lon="1.908649">
        <ele>1882.7</ele>
        <time>1970-01-01T01:10:39.000Z</time>
      </trkpt>
      <trkpt lat="42.341583" lon="1.908643">
        <ele>1883.1</ele>
        <time>1970-01-01T01:10:40.000Z</time>
      </trkpt>
      <trkpt lat="42.341568" lon="1.90864">
        <ele>1883.4</ele>
        <time>1970-01-01T01:10:41.000Z</time>
      </trkpt>
      <trkpt lat="42.341553" lon="1.908637">
        <ele>1883.7</ele>
        <time>1970-01-01T01:10:42.000Z</time>
      </trkpt>
      <trkpt lat="42.341538" lon="1.90863">
        <ele>1884</ele>
        <time>1970-01-01T01:10:43.000Z</time>
      </trkpt>
      <trkpt lat="42.341522" lon="1.908624">
        <ele>1884.4</ele>
        <time>1970-01-01T01:10:44.000Z</time>
      </trkpt>
      <trkpt lat="42.341507" lon="1.908619">
        <ele>1884.7</ele>
        <time>1970-01-01T01:10:45.000Z</time>
      </trkpt>
      <trkpt lat="42.341492" lon="1.90862">
        <ele>1885</ele>
        <time>1970-01-01T01:10:46.000Z</time>
      </trkpt>
      <trkpt lat="42.341476" lon="1.908623">
        <ele>1885.3</ele>
        <time>1970-01-01T01:10:47.000Z</time>
      </trkpt>
      <trkpt lat="42.341465" lon="1.908625">
        <ele>1885.6</ele>
        <time>1970-01-01T01:10:48.000Z</time>
      </trkpt>
      <trkpt lat="42.341454" lon="1.908625">
        <ele>1885.8</ele>
        <time>1970-01-01T01:10:49.000Z</time>
      </trkpt>
      <trkpt lat="42.341434" lon="1.908619">
        <ele>1886.2</ele>
        <time>1970-01-01T01:10:50.000Z</time>
      </trkpt>
      <trkpt lat="42.341423" lon="1.908616">
        <ele>1886.4</ele>
        <time>1970-01-01T01:10:51.000Z</time>
      </trkpt>
      <trkpt lat="42.341412" lon="1.908614">
        <ele>1886.7</ele>
        <time>1970-01-01T01:10:52.000Z</time>
      </trkpt>
      <trkpt lat="42.341404" lon="1.908612">
        <ele>1886.8</ele>
        <time>1970-01-01T01:10:53.000Z</time>
      </trkpt>
      <trkpt lat="42.341392" lon="1.908609">
        <ele>1887.1</ele>
        <time>1970-01-01T01:10:54.000Z</time>
      </trkpt>
      <trkpt lat="42.341385" lon="1.90861">
        <ele>1887.2</ele>
        <time>1970-01-01T01:10:55.000Z</time>
      </trkpt>
      <trkpt lat="42.341373" lon="1.908609">
        <ele>1887.5</ele>
        <time>1970-01-01T01:10:56.000Z</time>
      </trkpt>
      <trkpt lat="42.341358" lon="1.90861">
        <ele>1887.8</ele>
        <time>1970-01-01T01:10:57.000Z</time>
      </trkpt>
      <trkpt lat="42.341347" lon="1.908613">
        <ele>1888</ele>
        <time>1970-01-01T01:10:58.000Z</time>
      </trkpt>
      <trkpt lat="42.341335" lon="1.908613">
        <ele>1888.3</ele>
        <time>1970-01-01T01:10:59.000Z</time>
      </trkpt>
      <trkpt lat="42.34132" lon="1.908603">
        <ele>1888.6</ele>
        <time>1970-01-01T01:11:00.000Z</time>
      </trkpt>
      <trkpt lat="42.341305" lon="1.908603">
        <ele>1888.9</ele>
        <time>1970-01-01T01:11:01.000Z</time>
      </trkpt>
      <trkpt lat="42.341293" lon="1.908605">
        <ele>1889.2</ele>
        <time>1970-01-01T01:11:02.000Z</time>
      </trkpt>
      <trkpt lat="42.341286" lon="1.908605">
        <ele>1889.3</ele>
        <time>1970-01-01T01:11:03.000Z</time>
      </trkpt>
      <trkpt lat="42.34127" lon="1.908602">
        <ele>1889.6</ele>
        <time>1970-01-01T01:11:04.000Z</time>
      </trkpt>
      <trkpt lat="42.341255" lon="1.9086">
        <ele>1890</ele>
        <time>1970-01-01T01:11:05.000Z</time>
      </trkpt>
      <trkpt lat="42.34124" lon="1.908603">
        <ele>1890.3</ele>
        <time>1970-01-01T01:11:06.000Z</time>
      </trkpt>
      <trkpt lat="42.341225" lon="1.908603">
        <ele>1890.6</ele>
        <time>1970-01-01T01:11:07.000Z</time>
      </trkpt>
      <trkpt lat="42.341213" lon="1.908603">
        <ele>1890.8</ele>
        <time>1970-01-01T01:11:08.000Z</time>
      </trkpt>
      <trkpt lat="42.341202" lon="1.9086">
        <ele>1891.1</ele>
        <time>1970-01-01T01:11:09.000Z</time>
      </trkpt>
      <trkpt lat="42.341187" lon="1.908591">
        <ele>1891.4</ele>
        <time>1970-01-01T01:11:10.000Z</time>
      </trkpt>
      <trkpt lat="42.341171" lon="1.908581">
        <ele>1891.8</ele>
        <time>1970-01-01T01:11:11.000Z</time>
      </trkpt>
      <trkpt lat="42.34116" lon="1.908573">
        <ele>1892.1</ele>
        <time>1970-01-01T01:11:12.000Z</time>
      </trkpt>
      <trkpt lat="42.341148" lon="1.908567">
        <ele>1892.3</ele>
        <time>1970-01-01T01:11:13.000Z</time>
      </trkpt>
      <trkpt lat="42.341137" lon="1.908565">
        <ele>1892.6</ele>
        <time>1970-01-01T01:11:14.000Z</time>
      </trkpt>
      <trkpt lat="42.341122" lon="1.908559">
        <ele>1892.9</ele>
        <time>1970-01-01T01:11:15.000Z</time>
      </trkpt>
      <trkpt lat="42.34111" lon="1.908554">
        <ele>1893.2</ele>
        <time>1970-01-01T01:11:16.000Z</time>
      </trkpt>
      <trkpt lat="42.341099" lon="1.908552">
        <ele>1893.5</ele>
        <time>1970-01-01T01:11:17.000Z</time>
      </trkpt>
      <trkpt lat="42.341084" lon="1.908553">
        <ele>1893.8</ele>
        <time>1970-01-01T01:11:18.000Z</time>
      </trkpt>
      <trkpt lat="42.341068" lon="1.908552">
        <ele>1894.2</ele>
        <time>1970-01-01T01:11:19.000Z</time>
      </trkpt>
      <trkpt lat="42.341053" lon="1.908553">
        <ele>1894.5</ele>
        <time>1970-01-01T01:11:20.000Z</time>
      </trkpt>
      <trkpt lat="42.341038" lon="1.908555">
        <ele>1894.9</ele>
        <time>1970-01-01T01:11:21.000Z</time>
      </trkpt>
      <trkpt lat="42.341026" lon="1.908557">
        <ele>1895.1</ele>
        <time>1970-01-01T01:11:22.000Z</time>
      </trkpt>
      <trkpt lat="42.341011" lon="1.908557">
        <ele>1895.5</ele>
        <time>1970-01-01T01:11:23.000Z</time>
      </trkpt>
      <trkpt lat="42.340996" lon="1.908557">
        <ele>1895.8</ele>
        <time>1970-01-01T01:11:24.000Z</time>
      </trkpt>
      <trkpt lat="42.340984" lon="1.908566">
        <ele>1896.1</ele>
        <time>1970-01-01T01:11:25.000Z</time>
      </trkpt>
      <trkpt lat="42.340973" lon="1.908571">
        <ele>1896.4</ele>
        <time>1970-01-01T01:11:26.000Z</time>
      </trkpt>
      <trkpt lat="42.340961" lon="1.908572">
        <ele>1896.6</ele>
        <time>1970-01-01T01:11:27.000Z</time>
      </trkpt>
      <trkpt lat="42.34095" lon="1.908566">
        <ele>1896.8</ele>
        <time>1970-01-01T01:11:28.000Z</time>
      </trkpt>
      <trkpt lat="42.340942" lon="1.908562">
        <ele>1897</ele>
        <time>1970-01-01T01:11:29.000Z</time>
      </trkpt>
      <trkpt lat="42.340931" lon="1.908565">
        <ele>1897.2</ele>
        <time>1970-01-01T01:11:30.000Z</time>
      </trkpt>
      <trkpt lat="42.340923" lon="1.908568">
        <ele>1897.4</ele>
        <time>1970-01-01T01:11:31.000Z</time>
      </trkpt>
      <trkpt lat="42.340912" lon="1.908574">
        <ele>1897.6</ele>
        <time>1970-01-01T01:11:32.000Z</time>
      </trkpt>
      <trkpt lat="42.3409" lon="1.908572">
        <ele>1897.9</ele>
        <time>1970-01-01T01:11:33.000Z</time>
      </trkpt>
      <trkpt lat="42.340889" lon="1.908572">
        <ele>1898.1</ele>
        <time>1970-01-01T01:11:34.000Z</time>
      </trkpt>
      <trkpt lat="42.340881" lon="1.908565">
        <ele>1898.3</ele>
        <time>1970-01-01T01:11:35.000Z</time>
      </trkpt>
      <trkpt lat="42.34087" lon="1.908559">
        <ele>1898.5</ele>
        <time>1970-01-01T01:11:36.000Z</time>
      </trkpt>
      <trkpt lat="42.340862" lon="1.908555">
        <ele>1898.6</ele>
        <time>1970-01-01T01:11:37.000Z</time>
      </trkpt>
      <trkpt lat="42.340851" lon="1.908551">
        <ele>1898.8</ele>
        <time>1970-01-01T01:11:38.000Z</time>
      </trkpt>
      <trkpt lat="42.340836" lon="1.908549">
        <ele>1899.1</ele>
        <time>1970-01-01T01:11:39.000Z</time>
      </trkpt>
      <trkpt lat="42.34082" lon="1.908546">
        <ele>1899.4</ele>
        <time>1970-01-01T01:11:40.000Z</time>
      </trkpt>
      <trkpt lat="42.340805" lon="1.908545">
        <ele>1899.7</ele>
        <time>1970-01-01T01:11:41.000Z</time>
      </trkpt>
      <trkpt lat="42.34079" lon="1.908548">
        <ele>1900</ele>
        <time>1970-01-01T01:11:42.000Z</time>
      </trkpt>
      <trkpt lat="42.340778" lon="1.908551">
        <ele>1900.2</ele>
        <time>1970-01-01T01:11:43.000Z</time>
      </trkpt>
      <trkpt lat="42.340767" lon="1.908549">
        <ele>1900.4</ele>
        <time>1970-01-01T01:11:44.000Z</time>
      </trkpt>
      <trkpt lat="42.340752" lon="1.908546">
        <ele>1900.7</ele>
        <time>1970-01-01T01:11:45.000Z</time>
      </trkpt>
      <trkpt lat="42.34074" lon="1.908538">
        <ele>1900.9</ele>
        <time>1970-01-01T01:11:46.000Z</time>
      </trkpt>
      <trkpt lat="42.340725" lon="1.908531">
        <ele>1901.2</ele>
        <time>1970-01-01T01:11:47.000Z</time>
      </trkpt>
      <trkpt lat="42.340713" lon="1.908523">
        <ele>1901.4</ele>
        <time>1970-01-01T01:11:48.000Z</time>
      </trkpt>
      <trkpt lat="42.340702" lon="1.908515">
        <ele>1901.7</ele>
        <time>1970-01-01T01:11:49.000Z</time>
      </trkpt>
      <trkpt lat="42.340691" lon="1.908508">
        <ele>1901.9</ele>
        <time>1970-01-01T01:11:50.000Z</time>
      </trkpt>
      <trkpt lat="42.340679" lon="1.908502">
        <ele>1902.1</ele>
        <time>1970-01-01T01:11:51.000Z</time>
      </trkpt>
      <trkpt lat="42.340664" lon="1.908499">
        <ele>1902.4</ele>
        <time>1970-01-01T01:11:52.000Z</time>
      </trkpt>
      <trkpt lat="42.340652" lon="1.908495">
        <ele>1902.6</ele>
        <time>1970-01-01T01:11:53.000Z</time>
      </trkpt>
      <trkpt lat="42.340633" lon="1.908495">
        <ele>1903</ele>
        <time>1970-01-01T01:11:54.000Z</time>
      </trkpt>
      <trkpt lat="42.340622" lon="1.908491">
        <ele>1903.2</ele>
        <time>1970-01-01T01:11:55.000Z</time>
      </trkpt>
      <trkpt lat="42.340607" lon="1.908487">
        <ele>1903.4</ele>
        <time>1970-01-01T01:11:56.000Z</time>
      </trkpt>
      <trkpt lat="42.340595" lon="1.908481">
        <ele>1903.6</ele>
        <time>1970-01-01T01:11:57.000Z</time>
      </trkpt>
      <trkpt lat="42.34058" lon="1.908461">
        <ele>1904</ele>
        <time>1970-01-01T01:11:58.000Z</time>
      </trkpt>
      <trkpt lat="42.340569" lon="1.908441">
        <ele>1904.2</ele>
        <time>1970-01-01T01:11:59.000Z</time>
      </trkpt>
      <trkpt lat="42.340557" lon="1.908428">
        <ele>1904.5</ele>
        <time>1970-01-01T01:12:00.000Z</time>
      </trkpt>
      <trkpt lat="42.340538" lon="1.908421">
        <ele>1904.8</ele>
        <time>1970-01-01T01:12:01.000Z</time>
      </trkpt>
      <trkpt lat="42.340527" lon="1.908413">
        <ele>1905</ele>
        <time>1970-01-01T01:12:02.000Z</time>
      </trkpt>
      <trkpt lat="42.340515" lon="1.9084">
        <ele>1905.2</ele>
        <time>1970-01-01T01:12:03.000Z</time>
      </trkpt>
      <trkpt lat="42.340504" lon="1.908383">
        <ele>1905.5</ele>
        <time>1970-01-01T01:12:04.000Z</time>
      </trkpt>
      <trkpt lat="42.340492" lon="1.908368">
        <ele>1905.7</ele>
        <time>1970-01-01T01:12:05.000Z</time>
      </trkpt>
      <trkpt lat="42.340477" lon="1.908364">
        <ele>1905.9</ele>
        <time>1970-01-01T01:12:06.000Z</time>
      </trkpt>
      <trkpt lat="42.340462" lon="1.908359">
        <ele>1906.2</ele>
        <time>1970-01-01T01:12:07.000Z</time>
      </trkpt>
      <trkpt lat="42.34045" lon="1.908352">
        <ele>1906.4</ele>
        <time>1970-01-01T01:12:08.000Z</time>
      </trkpt>
      <trkpt lat="42.340431" lon="1.908344">
        <ele>1906.7</ele>
        <time>1970-01-01T01:12:09.000Z</time>
      </trkpt>
      <trkpt lat="42.34042" lon="1.908336">
        <ele>1906.9</ele>
        <time>1970-01-01T01:12:10.000Z</time>
      </trkpt>
      <trkpt lat="42.340408" lon="1.908329">
        <ele>1907.1</ele>
        <time>1970-01-01T01:12:11.000Z</time>
      </trkpt>
      <trkpt lat="42.340397" lon="1.908322">
        <ele>1907.3</ele>
        <time>1970-01-01T01:12:12.000Z</time>
      </trkpt>
      <trkpt lat="42.340385" lon="1.908319">
        <ele>1907.4</ele>
        <time>1970-01-01T01:12:13.000Z</time>
      </trkpt>
      <trkpt lat="42.34037" lon="1.908317">
        <ele>1907.7</ele>
        <time>1970-01-01T01:12:14.000Z</time>
      </trkpt>
      <trkpt lat="42.340355" lon="1.908312">
        <ele>1907.9</ele>
        <time>1970-01-01T01:12:15.000Z</time>
      </trkpt>
      <trkpt lat="42.340344" lon="1.90831">
        <ele>1908.1</ele>
        <time>1970-01-01T01:12:16.000Z</time>
      </trkpt>
      <trkpt lat="42.340332" lon="1.908309">
        <ele>1908.3</ele>
        <time>1970-01-01T01:12:17.000Z</time>
      </trkpt>
      <trkpt lat="42.340317" lon="1.908303">
        <ele>1908.5</ele>
        <time>1970-01-01T01:12:18.000Z</time>
      </trkpt>
      <trkpt lat="42.340302" lon="1.908299">
        <ele>1908.7</ele>
        <time>1970-01-01T01:12:19.000Z</time>
      </trkpt>
      <trkpt lat="42.340286" lon="1.908294">
        <ele>1909</ele>
        <time>1970-01-01T01:12:20.000Z</time>
      </trkpt>
      <trkpt lat="42.340275" lon="1.90829">
        <ele>1909.1</ele>
        <time>1970-01-01T01:12:21.000Z</time>
      </trkpt>
      <trkpt lat="42.340263" lon="1.908289">
        <ele>1909.3</ele>
        <time>1970-01-01T01:12:22.000Z</time>
      </trkpt>
      <trkpt lat="42.340252" lon="1.908284">
        <ele>1909.4</ele>
        <time>1970-01-01T01:12:23.000Z</time>
      </trkpt>
      <trkpt lat="42.34024" lon="1.90828">
        <ele>1909.6</ele>
        <time>1970-01-01T01:12:24.000Z</time>
      </trkpt>
      <trkpt lat="42.340233" lon="1.908281">
        <ele>1909.7</ele>
        <time>1970-01-01T01:12:25.000Z</time>
      </trkpt>
      <trkpt lat="42.340221" lon="1.908283">
        <ele>1909.9</ele>
        <time>1970-01-01T01:12:26.000Z</time>
      </trkpt>
      <trkpt lat="42.340214" lon="1.908282">
        <ele>1909.9</ele>
        <time>1970-01-01T01:12:27.000Z</time>
      </trkpt>
      <trkpt lat="42.340198" lon="1.908272">
        <ele>1910.2</ele>
        <time>1970-01-01T01:12:28.000Z</time>
      </trkpt>
      <trkpt lat="42.340183" lon="1.908258">
        <ele>1910.4</ele>
        <time>1970-01-01T01:12:29.000Z</time>
      </trkpt>
      <trkpt lat="42.340168" lon="1.908249">
        <ele>1910.6</ele>
        <time>1970-01-01T01:12:30.000Z</time>
      </trkpt>
      <trkpt lat="42.340153" lon="1.908241">
        <ele>1910.8</ele>
        <time>1970-01-01T01:12:31.000Z</time>
      </trkpt>
      <trkpt lat="42.340137" lon="1.90823">
        <ele>1911</ele>
        <time>1970-01-01T01:12:32.000Z</time>
      </trkpt>
      <trkpt lat="42.340122" lon="1.90822">
        <ele>1911.2</ele>
        <time>1970-01-01T01:12:33.000Z</time>
      </trkpt>
      <trkpt lat="42.340111" lon="1.908211">
        <ele>1911.3</ele>
        <time>1970-01-01T01:12:34.000Z</time>
      </trkpt>
      <trkpt lat="42.340099" lon="1.908201">
        <ele>1911.5</ele>
        <time>1970-01-01T01:12:35.000Z</time>
      </trkpt>
      <trkpt lat="42.340084" lon="1.908188">
        <ele>1911.7</ele>
        <time>1970-01-01T01:12:36.000Z</time>
      </trkpt>
      <trkpt lat="42.340073" lon="1.908169">
        <ele>1911.9</ele>
        <time>1970-01-01T01:12:37.000Z</time>
      </trkpt>
      <trkpt lat="42.340057" lon="1.908151">
        <ele>1912.1</ele>
        <time>1970-01-01T01:12:38.000Z</time>
      </trkpt>
      <trkpt lat="42.340046" lon="1.908131">
        <ele>1912.3</ele>
        <time>1970-01-01T01:12:39.000Z</time>
      </trkpt>
      <trkpt lat="42.340031" lon="1.908117">
        <ele>1912.5</ele>
        <time>1970-01-01T01:12:40.000Z</time>
      </trkpt>
      <trkpt lat="42.340019" lon="1.908105">
        <ele>1912.7</ele>
        <time>1970-01-01T01:12:41.000Z</time>
      </trkpt>
      <trkpt lat="42.340008" lon="1.908094">
        <ele>1912.8</ele>
        <time>1970-01-01T01:12:42.000Z</time>
      </trkpt>
      <trkpt lat="42.34" lon="1.908082">
        <ele>1912.9</ele>
        <time>1970-01-01T01:12:43.000Z</time>
      </trkpt>
      <trkpt lat="42.339985" lon="1.908074">
        <ele>1913.1</ele>
        <time>1970-01-01T01:12:44.000Z</time>
      </trkpt>
      <trkpt lat="42.339973" lon="1.908062">
        <ele>1913.3</ele>
        <time>1970-01-01T01:12:45.000Z</time>
      </trkpt>
      <trkpt lat="42.339958" lon="1.908047">
        <ele>1913.5</ele>
        <time>1970-01-01T01:12:46.000Z</time>
      </trkpt>
      <trkpt lat="42.339943" lon="1.908033">
        <ele>1913.7</ele>
        <time>1970-01-01T01:12:47.000Z</time>
      </trkpt>
      <trkpt lat="42.339924" lon="1.90802">
        <ele>1913.9</ele>
        <time>1970-01-01T01:12:48.000Z</time>
      </trkpt>
      <trkpt lat="42.339912" lon="1.908004">
        <ele>1914</ele>
        <time>1970-01-01T01:12:49.000Z</time>
      </trkpt>
      <trkpt lat="42.339901" lon="1.90799">
        <ele>1914.2</ele>
        <time>1970-01-01T01:12:50.000Z</time>
      </trkpt>
      <trkpt lat="42.33989" lon="1.907975">
        <ele>1914.3</ele>
        <time>1970-01-01T01:12:51.000Z</time>
      </trkpt>
      <trkpt lat="42.339882" lon="1.90796">
        <ele>1914.4</ele>
        <time>1970-01-01T01:12:52.000Z</time>
      </trkpt>
      <trkpt lat="42.339867" lon="1.907944">
        <ele>1914.6</ele>
        <time>1970-01-01T01:12:53.000Z</time>
      </trkpt>
      <trkpt lat="42.339855" lon="1.907931">
        <ele>1914.8</ele>
        <time>1970-01-01T01:12:54.000Z</time>
      </trkpt>
      <trkpt lat="42.339844" lon="1.907911">
        <ele>1914.9</ele>
        <time>1970-01-01T01:12:55.000Z</time>
      </trkpt>
      <trkpt lat="42.339829" lon="1.907892">
        <ele>1915</ele>
        <time>1970-01-01T01:12:56.000Z</time>
      </trkpt>
      <trkpt lat="42.339817" lon="1.90787">
        <ele>1915.2</ele>
        <time>1970-01-01T01:12:57.000Z</time>
      </trkpt>
      <trkpt lat="42.339802" lon="1.907848">
        <ele>1915.4</ele>
        <time>1970-01-01T01:12:58.000Z</time>
      </trkpt>
      <trkpt lat="42.33979" lon="1.907825">
        <ele>1915.6</ele>
        <time>1970-01-01T01:12:59.000Z</time>
      </trkpt>
      <trkpt lat="42.339779" lon="1.90781">
        <ele>1915.8</ele>
        <time>1970-01-01T01:13:00.000Z</time>
      </trkpt>
      <trkpt lat="42.339767" lon="1.907791">
        <ele>1916</ele>
        <time>1970-01-01T01:13:01.000Z</time>
      </trkpt>
      <trkpt lat="42.339756" lon="1.907771">
        <ele>1916.2</ele>
        <time>1970-01-01T01:13:02.000Z</time>
      </trkpt>
      <trkpt lat="42.339748" lon="1.907753">
        <ele>1916.3</ele>
        <time>1970-01-01T01:13:03.000Z</time>
      </trkpt>
      <trkpt lat="42.339737" lon="1.907734">
        <ele>1916.5</ele>
        <time>1970-01-01T01:13:04.000Z</time>
      </trkpt>
      <trkpt lat="42.339726" lon="1.907714">
        <ele>1916.7</ele>
        <time>1970-01-01T01:13:05.000Z</time>
      </trkpt>
      <trkpt lat="42.339714" lon="1.907693">
        <ele>1916.9</ele>
        <time>1970-01-01T01:13:06.000Z</time>
      </trkpt>
      <trkpt lat="42.339706" lon="1.907674">
        <ele>1917.1</ele>
        <time>1970-01-01T01:13:07.000Z</time>
      </trkpt>
      <trkpt lat="42.339695" lon="1.907654">
        <ele>1917.3</ele>
        <time>1970-01-01T01:13:08.000Z</time>
      </trkpt>
      <trkpt lat="42.339684" lon="1.907636">
        <ele>1917.4</ele>
        <time>1970-01-01T01:13:09.000Z</time>
      </trkpt>
      <trkpt lat="42.339672" lon="1.907616">
        <ele>1917.6</ele>
        <time>1970-01-01T01:13:10.000Z</time>
      </trkpt>
      <trkpt lat="42.339661" lon="1.907589">
        <ele>1917.9</ele>
        <time>1970-01-01T01:13:11.000Z</time>
      </trkpt>
      <trkpt lat="42.339649" lon="1.907564">
        <ele>1918.1</ele>
        <time>1970-01-01T01:13:12.000Z</time>
      </trkpt>
      <trkpt lat="42.339638" lon="1.907537">
        <ele>1918.4</ele>
        <time>1970-01-01T01:13:13.000Z</time>
      </trkpt>
      <trkpt lat="42.339622" lon="1.907482">
        <ele>1918.8</ele>
        <time>1970-01-01T01:13:14.000Z</time>
      </trkpt>
      <trkpt lat="42.339611" lon="1.907446">
        <ele>1919.2</ele>
        <time>1970-01-01T01:13:15.000Z</time>
      </trkpt>
      <trkpt lat="42.3396" lon="1.907418">
        <ele>1919.4</ele>
        <time>1970-01-01T01:13:16.000Z</time>
      </trkpt>
      <trkpt lat="42.339584" lon="1.907393">
        <ele>1919.7</ele>
        <time>1970-01-01T01:13:17.000Z</time>
      </trkpt>
      <trkpt lat="42.339569" lon="1.907371">
        <ele>1919.9</ele>
        <time>1970-01-01T01:13:18.000Z</time>
      </trkpt>
      <trkpt lat="42.339554" lon="1.907354">
        <ele>1920.2</ele>
        <time>1970-01-01T01:13:19.000Z</time>
      </trkpt>
      <trkpt lat="42.339542" lon="1.907339">
        <ele>1920.3</ele>
        <time>1970-01-01T01:13:20.000Z</time>
      </trkpt>
      <trkpt lat="42.339531" lon="1.907327">
        <ele>1920.5</ele>
        <time>1970-01-01T01:13:21.000Z</time>
      </trkpt>
      <trkpt lat="42.339516" lon="1.907315">
        <ele>1920.6</ele>
        <time>1970-01-01T01:13:22.000Z</time>
      </trkpt>
      <trkpt lat="42.339497" lon="1.9073">
        <ele>1920.8</ele>
        <time>1970-01-01T01:13:23.000Z</time>
      </trkpt>
      <trkpt lat="42.339478" lon="1.907284">
        <ele>1921</ele>
        <time>1970-01-01T01:13:24.000Z</time>
      </trkpt>
      <trkpt lat="42.339458" lon="1.907267">
        <ele>1921.2</ele>
        <time>1970-01-01T01:13:25.000Z</time>
      </trkpt>
      <trkpt lat="42.339436" lon="1.907253">
        <ele>1921.4</ele>
        <time>1970-01-01T01:13:26.000Z</time>
      </trkpt>
      <trkpt lat="42.339409" lon="1.907237">
        <ele>1921.6</ele>
        <time>1970-01-01T01:13:27.000Z</time>
      </trkpt>
      <trkpt lat="42.339386" lon="1.907225">
        <ele>1921.8</ele>
        <time>1970-01-01T01:13:28.000Z</time>
      </trkpt>
      <trkpt lat="42.339367" lon="1.907213">
        <ele>1921.9</ele>
        <time>1970-01-01T01:13:29.000Z</time>
      </trkpt>
      <trkpt lat="42.339348" lon="1.907202">
        <ele>1922</ele>
        <time>1970-01-01T01:13:30.000Z</time>
      </trkpt>
      <trkpt lat="42.339333" lon="1.907192">
        <ele>1922.1</ele>
        <time>1970-01-01T01:13:31.000Z</time>
      </trkpt>
      <trkpt lat="42.33931" lon="1.907181">
        <ele>1922.2</ele>
        <time>1970-01-01T01:13:32.000Z</time>
      </trkpt>
      <trkpt lat="42.339291" lon="1.907172">
        <ele>1922.3</ele>
        <time>1970-01-01T01:13:33.000Z</time>
      </trkpt>
      <trkpt lat="42.339264" lon="1.907164">
        <ele>1922.5</ele>
        <time>1970-01-01T01:13:34.000Z</time>
      </trkpt>
      <trkpt lat="42.339241" lon="1.907157">
        <ele>1922.6</ele>
        <time>1970-01-01T01:13:35.000Z</time>
      </trkpt>
      <trkpt lat="42.339222" lon="1.90715">
        <ele>1922.8</ele>
        <time>1970-01-01T01:13:36.000Z</time>
      </trkpt>
      <trkpt lat="42.339207" lon="1.907142">
        <ele>1922.9</ele>
        <time>1970-01-01T01:13:37.000Z</time>
      </trkpt>
      <trkpt lat="42.339188" lon="1.907135">
        <ele>1923</ele>
        <time>1970-01-01T01:13:38.000Z</time>
      </trkpt>
      <trkpt lat="42.339172" lon="1.907125">
        <ele>1923.1</ele>
        <time>1970-01-01T01:13:39.000Z</time>
      </trkpt>
      <trkpt lat="42.339153" lon="1.907115">
        <ele>1923.3</ele>
        <time>1970-01-01T01:13:40.000Z</time>
      </trkpt>
      <trkpt lat="42.339134" lon="1.907111">
        <ele>1923.4</ele>
        <time>1970-01-01T01:13:41.000Z</time>
      </trkpt>
      <trkpt lat="42.339119" lon="1.907107">
        <ele>1923.6</ele>
        <time>1970-01-01T01:13:42.000Z</time>
      </trkpt>
      <trkpt lat="42.3391" lon="1.907104">
        <ele>1923.7</ele>
        <time>1970-01-01T01:13:43.000Z</time>
      </trkpt>
      <trkpt lat="42.339085" lon="1.907096">
        <ele>1923.9</ele>
        <time>1970-01-01T01:13:44.000Z</time>
      </trkpt>
      <trkpt lat="42.339069" lon="1.907086">
        <ele>1924</ele>
        <time>1970-01-01T01:13:45.000Z</time>
      </trkpt>
      <trkpt lat="42.339058" lon="1.90708">
        <ele>1924.1</ele>
        <time>1970-01-01T01:13:46.000Z</time>
      </trkpt>
      <trkpt lat="42.339043" lon="1.907074">
        <ele>1924.3</ele>
        <time>1970-01-01T01:13:47.000Z</time>
      </trkpt>
      <trkpt lat="42.339024" lon="1.907068">
        <ele>1924.5</ele>
        <time>1970-01-01T01:13:48.000Z</time>
      </trkpt>
      <trkpt lat="42.339008" lon="1.907058">
        <ele>1924.7</ele>
        <time>1970-01-01T01:13:49.000Z</time>
      </trkpt>
      <trkpt lat="42.338993" lon="1.907046">
        <ele>1924.8</ele>
        <time>1970-01-01T01:13:50.000Z</time>
      </trkpt>
      <trkpt lat="42.338982" lon="1.907035">
        <ele>1925</ele>
        <time>1970-01-01T01:13:51.000Z</time>
      </trkpt>
      <trkpt lat="42.338966" lon="1.907023">
        <ele>1925.1</ele>
        <time>1970-01-01T01:13:52.000Z</time>
      </trkpt>
      <trkpt lat="42.338955" lon="1.907012">
        <ele>1925.3</ele>
        <time>1970-01-01T01:13:53.000Z</time>
      </trkpt>
      <trkpt lat="42.33894" lon="1.906997">
        <ele>1925.5</ele>
        <time>1970-01-01T01:13:54.000Z</time>
      </trkpt>
      <trkpt lat="42.338928" lon="1.906984">
        <ele>1925.6</ele>
        <time>1970-01-01T01:13:55.000Z</time>
      </trkpt>
      <trkpt lat="42.338913" lon="1.906971">
        <ele>1925.8</ele>
        <time>1970-01-01T01:13:56.000Z</time>
      </trkpt>
      <trkpt lat="42.338898" lon="1.906956">
        <ele>1925.9</ele>
        <time>1970-01-01T01:13:57.000Z</time>
      </trkpt>
      <trkpt lat="42.338882" lon="1.906941">
        <ele>1926.1</ele>
        <time>1970-01-01T01:13:58.000Z</time>
      </trkpt>
      <trkpt lat="42.338867" lon="1.906922">
        <ele>1926.3</ele>
        <time>1970-01-01T01:13:59.000Z</time>
      </trkpt>
      <trkpt lat="42.33886" lon="1.9069">
        <ele>1926.4</ele>
        <time>1970-01-01T01:14:00.000Z</time>
      </trkpt>
      <trkpt lat="42.338848" lon="1.906885">
        <ele>1926.6</ele>
        <time>1970-01-01T01:14:01.000Z</time>
      </trkpt>
      <trkpt lat="42.338837" lon="1.906871">
        <ele>1926.7</ele>
        <time>1970-01-01T01:14:02.000Z</time>
      </trkpt>
      <trkpt lat="42.338825" lon="1.906856">
        <ele>1926.8</ele>
        <time>1970-01-01T01:14:03.000Z</time>
      </trkpt>
      <trkpt lat="42.33881" lon="1.90684">
        <ele>1927</ele>
        <time>1970-01-01T01:14:04.000Z</time>
      </trkpt>
      <trkpt lat="42.338802" lon="1.90682">
        <ele>1927.1</ele>
        <time>1970-01-01T01:14:05.000Z</time>
      </trkpt>
      <trkpt lat="42.338791" lon="1.906798">
        <ele>1927.2</ele>
        <time>1970-01-01T01:14:06.000Z</time>
      </trkpt>
      <trkpt lat="42.338776" lon="1.906775">
        <ele>1927.4</ele>
        <time>1970-01-01T01:14:07.000Z</time>
      </trkpt>
      <trkpt lat="42.338764" lon="1.906751">
        <ele>1927.5</ele>
        <time>1970-01-01T01:14:08.000Z</time>
      </trkpt>
      <trkpt lat="42.338753" lon="1.906724">
        <ele>1927.6</ele>
        <time>1970-01-01T01:14:09.000Z</time>
      </trkpt>
      <trkpt lat="42.338745" lon="1.906694">
        <ele>1927.8</ele>
        <time>1970-01-01T01:14:10.000Z</time>
      </trkpt>
      <trkpt lat="42.338738" lon="1.906663">
        <ele>1927.9</ele>
        <time>1970-01-01T01:14:11.000Z</time>
      </trkpt>
      <trkpt lat="42.338726" lon="1.906635">
        <ele>1928.1</ele>
        <time>1970-01-01T01:14:12.000Z</time>
      </trkpt>
      <trkpt lat="42.338718" lon="1.906599">
        <ele>1928.2</ele>
        <time>1970-01-01T01:14:13.000Z</time>
      </trkpt>
      <trkpt lat="42.338707" lon="1.906568">
        <ele>1928.4</ele>
        <time>1970-01-01T01:14:14.000Z</time>
      </trkpt>
      <trkpt lat="42.338692" lon="1.906539">
        <ele>1928.5</ele>
        <time>1970-01-01T01:14:15.000Z</time>
      </trkpt>
      <trkpt lat="42.338684" lon="1.906515">
        <ele>1928.7</ele>
        <time>1970-01-01T01:14:16.000Z</time>
      </trkpt>
      <trkpt lat="42.338673" lon="1.906483">
        <ele>1928.8</ele>
        <time>1970-01-01T01:14:17.000Z</time>
      </trkpt>
      <trkpt lat="42.338657" lon="1.906459">
        <ele>1929</ele>
        <time>1970-01-01T01:14:18.000Z</time>
      </trkpt>
      <trkpt lat="42.338642" lon="1.906435">
        <ele>1929.2</ele>
        <time>1970-01-01T01:14:19.000Z</time>
      </trkpt>
      <trkpt lat="42.338627" lon="1.906416">
        <ele>1929.3</ele>
        <time>1970-01-01T01:14:20.000Z</time>
      </trkpt>
      <trkpt lat="42.338612" lon="1.906392">
        <ele>1929.5</ele>
        <time>1970-01-01T01:14:21.000Z</time>
      </trkpt>
      <trkpt lat="42.338596" lon="1.906365">
        <ele>1929.6</ele>
        <time>1970-01-01T01:14:22.000Z</time>
      </trkpt>
      <trkpt lat="42.338577" lon="1.90634">
        <ele>1929.8</ele>
        <time>1970-01-01T01:14:23.000Z</time>
      </trkpt>
      <trkpt lat="42.338558" lon="1.906314">
        <ele>1930</ele>
        <time>1970-01-01T01:14:24.000Z</time>
      </trkpt>
      <trkpt lat="42.338539" lon="1.906294">
        <ele>1930.1</ele>
        <time>1970-01-01T01:14:25.000Z</time>
      </trkpt>
      <trkpt lat="42.338524" lon="1.906266">
        <ele>1930.3</ele>
        <time>1970-01-01T01:14:26.000Z</time>
      </trkpt>
      <trkpt lat="42.338505" lon="1.90624">
        <ele>1930.5</ele>
        <time>1970-01-01T01:14:27.000Z</time>
      </trkpt>
      <trkpt lat="42.338486" lon="1.90621">
        <ele>1930.7</ele>
        <time>1970-01-01T01:14:28.000Z</time>
      </trkpt>
      <trkpt lat="42.338467" lon="1.906185">
        <ele>1930.8</ele>
        <time>1970-01-01T01:14:29.000Z</time>
      </trkpt>
      <trkpt lat="42.338444" lon="1.906158">
        <ele>1931</ele>
        <time>1970-01-01T01:14:30.000Z</time>
      </trkpt>
      <trkpt lat="42.338425" lon="1.906134">
        <ele>1931.2</ele>
        <time>1970-01-01T01:14:31.000Z</time>
      </trkpt>
      <trkpt lat="42.338409" lon="1.906104">
        <ele>1931.4</ele>
        <time>1970-01-01T01:14:32.000Z</time>
      </trkpt>
      <trkpt lat="42.33839" lon="1.90608">
        <ele>1931.6</ele>
        <time>1970-01-01T01:14:33.000Z</time>
      </trkpt>
      <trkpt lat="42.338371" lon="1.906053">
        <ele>1931.7</ele>
        <time>1970-01-01T01:14:34.000Z</time>
      </trkpt>
      <trkpt lat="42.338352" lon="1.90603">
        <ele>1931.9</ele>
        <time>1970-01-01T01:14:35.000Z</time>
      </trkpt>
      <trkpt lat="42.338337" lon="1.906002">
        <ele>1932.1</ele>
        <time>1970-01-01T01:14:36.000Z</time>
      </trkpt>
      <trkpt lat="42.338322" lon="1.905977">
        <ele>1932.3</ele>
        <time>1970-01-01T01:14:37.000Z</time>
      </trkpt>
      <trkpt lat="42.338303" lon="1.90595">
        <ele>1932.4</ele>
        <time>1970-01-01T01:14:38.000Z</time>
      </trkpt>
      <trkpt lat="42.338284" lon="1.905929">
        <ele>1932.6</ele>
        <time>1970-01-01T01:14:39.000Z</time>
      </trkpt>
      <trkpt lat="42.338261" lon="1.905907">
        <ele>1932.8</ele>
        <time>1970-01-01T01:14:40.000Z</time>
      </trkpt>
      <trkpt lat="42.338238" lon="1.905885">
        <ele>1933</ele>
        <time>1970-01-01T01:14:41.000Z</time>
      </trkpt>
      <trkpt lat="42.338219" lon="1.905862">
        <ele>1933.2</ele>
        <time>1970-01-01T01:14:42.000Z</time>
      </trkpt>
      <trkpt lat="42.338192" lon="1.905842">
        <ele>1933.4</ele>
        <time>1970-01-01T01:14:43.000Z</time>
      </trkpt>
      <trkpt lat="42.338169" lon="1.905826">
        <ele>1933.6</ele>
        <time>1970-01-01T01:14:44.000Z</time>
      </trkpt>
      <trkpt lat="42.338146" lon="1.905813">
        <ele>1933.8</ele>
        <time>1970-01-01T01:14:45.000Z</time>
      </trkpt>
      <trkpt lat="42.338127" lon="1.905799">
        <ele>1933.9</ele>
        <time>1970-01-01T01:14:46.000Z</time>
      </trkpt>
      <trkpt lat="42.338108" lon="1.905788">
        <ele>1934.1</ele>
        <time>1970-01-01T01:14:47.000Z</time>
      </trkpt>
      <trkpt lat="42.338089" lon="1.905778">
        <ele>1934.3</ele>
        <time>1970-01-01T01:14:48.000Z</time>
      </trkpt>
      <trkpt lat="42.338066" lon="1.905769">
        <ele>1934.5</ele>
        <time>1970-01-01T01:14:49.000Z</time>
      </trkpt>
      <trkpt lat="42.338043" lon="1.905766">
        <ele>1934.7</ele>
        <time>1970-01-01T01:14:50.000Z</time>
      </trkpt>
      <trkpt lat="42.338024" lon="1.905765">
        <ele>1934.8</ele>
        <time>1970-01-01T01:14:51.000Z</time>
      </trkpt>
      <trkpt lat="42.338005" lon="1.905765">
        <ele>1935</ele>
        <time>1970-01-01T01:14:52.000Z</time>
      </trkpt>
      <trkpt lat="42.337982" lon="1.905768">
        <ele>1935.2</ele>
        <time>1970-01-01T01:14:53.000Z</time>
      </trkpt>
      <trkpt lat="42.337963" lon="1.905768">
        <ele>1935.4</ele>
        <time>1970-01-01T01:14:54.000Z</time>
      </trkpt>
      <trkpt lat="42.337944" lon="1.905768">
        <ele>1935.6</ele>
        <time>1970-01-01T01:14:55.000Z</time>
      </trkpt>
      <trkpt lat="42.337925" lon="1.905768">
        <ele>1935.8</ele>
        <time>1970-01-01T01:14:56.000Z</time>
      </trkpt>
      <trkpt lat="42.337906" lon="1.905768">
        <ele>1936</ele>
        <time>1970-01-01T01:14:57.000Z</time>
      </trkpt>
      <trkpt lat="42.337891" lon="1.90577">
        <ele>1936.1</ele>
        <time>1970-01-01T01:14:58.000Z</time>
      </trkpt>
      <trkpt lat="42.337872" lon="1.905775">
        <ele>1936.3</ele>
        <time>1970-01-01T01:14:59.000Z</time>
      </trkpt>
      <trkpt lat="42.337849" lon="1.905782">
        <ele>1936.6</ele>
        <time>1970-01-01T01:15:00.000Z</time>
      </trkpt>
      <trkpt lat="42.33783" lon="1.905789">
        <ele>1936.8</ele>
        <time>1970-01-01T01:15:01.000Z</time>
      </trkpt>
      <trkpt lat="42.337814" lon="1.905797">
        <ele>1937</ele>
        <time>1970-01-01T01:15:02.000Z</time>
      </trkpt>
      <trkpt lat="42.337799" lon="1.905807">
        <ele>1937.2</ele>
        <time>1970-01-01T01:15:03.000Z</time>
      </trkpt>
      <trkpt lat="42.337788" lon="1.905818">
        <ele>1937.4</ele>
        <time>1970-01-01T01:15:04.000Z</time>
      </trkpt>
      <trkpt lat="42.337772" lon="1.905829">
        <ele>1937.6</ele>
        <time>1970-01-01T01:15:05.000Z</time>
      </trkpt>
      <trkpt lat="42.337761" lon="1.905845">
        <ele>1937.8</ele>
        <time>1970-01-01T01:15:06.000Z</time>
      </trkpt>
      <trkpt lat="42.337749" lon="1.905863">
        <ele>1938</ele>
        <time>1970-01-01T01:15:07.000Z</time>
      </trkpt>
      <trkpt lat="42.337738" lon="1.905877">
        <ele>1938.2</ele>
        <time>1970-01-01T01:15:08.000Z</time>
      </trkpt>
      <trkpt lat="42.337723" lon="1.905891">
        <ele>1938.5</ele>
        <time>1970-01-01T01:15:09.000Z</time>
      </trkpt>
      <trkpt lat="42.337708" lon="1.905901">
        <ele>1938.8</ele>
        <time>1970-01-01T01:15:10.000Z</time>
      </trkpt>
      <trkpt lat="42.337692" lon="1.905907">
        <ele>1939.1</ele>
        <time>1970-01-01T01:15:11.000Z</time>
      </trkpt>
      <trkpt lat="42.337673" lon="1.905916">
        <ele>1939.5</ele>
        <time>1970-01-01T01:15:12.000Z</time>
      </trkpt>
      <trkpt lat="42.337658" lon="1.905924">
        <ele>1939.8</ele>
        <time>1970-01-01T01:15:13.000Z</time>
      </trkpt>
      <trkpt lat="42.337646" lon="1.905932">
        <ele>1940</ele>
        <time>1970-01-01T01:15:14.000Z</time>
      </trkpt>
      <trkpt lat="42.337639" lon="1.905942">
        <ele>1940.2</ele>
        <time>1970-01-01T01:15:15.000Z</time>
      </trkpt>
      <trkpt lat="42.337631" lon="1.90595">
        <ele>1940.4</ele>
        <time>1970-01-01T01:15:16.000Z</time>
      </trkpt>
      <trkpt lat="42.33762" lon="1.905953">
        <ele>1940.6</ele>
        <time>1970-01-01T01:15:17.000Z</time>
      </trkpt>
      <trkpt lat="42.337608" lon="1.905956">
        <ele>1940.8</ele>
        <time>1970-01-01T01:15:18.000Z</time>
      </trkpt>
      <trkpt lat="42.337605" lon="1.905961">
        <ele>1940.9</ele>
        <time>1970-01-01T01:15:19.000Z</time>
      </trkpt>
      <trkpt lat="42.337601" lon="1.90597">
        <ele>1941</ele>
        <time>1970-01-01T01:15:20.000Z</time>
      </trkpt>
      <trkpt lat="42.337589" lon="1.905982">
        <ele>1941.3</ele>
        <time>1970-01-01T01:15:21.000Z</time>
      </trkpt>
      <trkpt lat="42.337582" lon="1.905995">
        <ele>1941.5</ele>
        <time>1970-01-01T01:15:22.000Z</time>
      </trkpt>
      <trkpt lat="42.33757" lon="1.906002">
        <ele>1941.8</ele>
        <time>1970-01-01T01:15:23.000Z</time>
      </trkpt>
      <trkpt lat="42.337563" lon="1.906006">
        <ele>1941.9</ele>
        <time>1970-01-01T01:15:24.000Z</time>
      </trkpt>
      <trkpt lat="42.337555" lon="1.90601">
        <ele>1942.1</ele>
        <time>1970-01-01T01:15:25.000Z</time>
      </trkpt>
      <trkpt lat="42.33754" lon="1.906021">
        <ele>1942.4</ele>
        <time>1970-01-01T01:15:26.000Z</time>
      </trkpt>
      <trkpt lat="42.337528" lon="1.906031">
        <ele>1942.7</ele>
        <time>1970-01-01T01:15:27.000Z</time>
      </trkpt>
      <trkpt lat="42.337513" lon="1.906043">
        <ele>1943</ele>
        <time>1970-01-01T01:15:28.000Z</time>
      </trkpt>
      <trkpt lat="42.337502" lon="1.906056">
        <ele>1943.3</ele>
        <time>1970-01-01T01:15:29.000Z</time>
      </trkpt>
      <trkpt lat="42.337494" lon="1.906067">
        <ele>1943.5</ele>
        <time>1970-01-01T01:15:30.000Z</time>
      </trkpt>
      <trkpt lat="42.337482" lon="1.906078">
        <ele>1943.8</ele>
        <time>1970-01-01T01:15:31.000Z</time>
      </trkpt>
      <trkpt lat="42.337471" lon="1.906091">
        <ele>1944</ele>
        <time>1970-01-01T01:15:32.000Z</time>
      </trkpt>
      <trkpt lat="42.337456" lon="1.906102">
        <ele>1944.4</ele>
        <time>1970-01-01T01:15:33.000Z</time>
      </trkpt>
      <trkpt lat="42.337444" lon="1.90611">
        <ele>1944.6</ele>
        <time>1970-01-01T01:15:34.000Z</time>
      </trkpt>
      <trkpt lat="42.337437" lon="1.906119">
        <ele>1944.8</ele>
        <time>1970-01-01T01:15:35.000Z</time>
      </trkpt>
      <trkpt lat="42.337425" lon="1.906129">
        <ele>1945</ele>
        <time>1970-01-01T01:15:36.000Z</time>
      </trkpt>
      <trkpt lat="42.337414" lon="1.906139">
        <ele>1945.3</ele>
        <time>1970-01-01T01:15:37.000Z</time>
      </trkpt>
      <trkpt lat="42.337402" lon="1.906146">
        <ele>1945.5</ele>
        <time>1970-01-01T01:15:38.000Z</time>
      </trkpt>
      <trkpt lat="42.337395" lon="1.906154">
        <ele>1945.7</ele>
        <time>1970-01-01T01:15:39.000Z</time>
      </trkpt>
      <trkpt lat="42.337387" lon="1.906163">
        <ele>1945.9</ele>
        <time>1970-01-01T01:15:40.000Z</time>
      </trkpt>
      <trkpt lat="42.337376" lon="1.906175">
        <ele>1946.2</ele>
        <time>1970-01-01T01:15:41.000Z</time>
      </trkpt>
      <trkpt lat="42.337368" lon="1.906184">
        <ele>1946.4</ele>
        <time>1970-01-01T01:15:42.000Z</time>
      </trkpt>
      <trkpt lat="42.337357" lon="1.906194">
        <ele>1946.6</ele>
        <time>1970-01-01T01:15:43.000Z</time>
      </trkpt>
      <trkpt lat="42.337349" lon="1.906203">
        <ele>1946.8</ele>
        <time>1970-01-01T01:15:44.000Z</time>
      </trkpt>
      <trkpt lat="42.337341" lon="1.906212">
        <ele>1947</ele>
        <time>1970-01-01T01:15:45.000Z</time>
      </trkpt>
      <trkpt lat="42.33733" lon="1.906222">
        <ele>1947.2</ele>
        <time>1970-01-01T01:15:46.000Z</time>
      </trkpt>
      <trkpt lat="42.337322" lon="1.906231">
        <ele>1947.4</ele>
        <time>1970-01-01T01:15:47.000Z</time>
      </trkpt>
      <trkpt lat="42.337311" lon="1.906242">
        <ele>1947.7</ele>
        <time>1970-01-01T01:15:48.000Z</time>
      </trkpt>
      <trkpt lat="42.337299" lon="1.906258">
        <ele>1948</ele>
        <time>1970-01-01T01:15:49.000Z</time>
      </trkpt>
      <trkpt lat="42.337288" lon="1.906271">
        <ele>1948.3</ele>
        <time>1970-01-01T01:15:50.000Z</time>
      </trkpt>
      <trkpt lat="42.33728" lon="1.906284">
        <ele>1948.5</ele>
        <time>1970-01-01T01:15:51.000Z</time>
      </trkpt>
      <trkpt lat="42.337269" lon="1.906297">
        <ele>1948.7</ele>
        <time>1970-01-01T01:15:52.000Z</time>
      </trkpt>
      <trkpt lat="42.337254" lon="1.90631">
        <ele>1949.1</ele>
        <time>1970-01-01T01:15:53.000Z</time>
      </trkpt>
      <trkpt lat="42.337242" lon="1.906322">
        <ele>1949.3</ele>
        <time>1970-01-01T01:15:54.000Z</time>
      </trkpt>
      <trkpt lat="42.337234" lon="1.906332">
        <ele>1949.5</ele>
        <time>1970-01-01T01:15:55.000Z</time>
      </trkpt>
      <trkpt lat="42.337223" lon="1.906343">
        <ele>1949.7</ele>
        <time>1970-01-01T01:15:56.000Z</time>
      </trkpt>
      <trkpt lat="42.337212" lon="1.906353">
        <ele>1950</ele>
        <time>1970-01-01T01:15:57.000Z</time>
      </trkpt>
      <trkpt lat="42.3372" lon="1.906362">
        <ele>1950.2</ele>
        <time>1970-01-01T01:15:58.000Z</time>
      </trkpt>
      <trkpt lat="42.337193" lon="1.906369">
        <ele>1950.3</ele>
        <time>1970-01-01T01:15:59.000Z</time>
      </trkpt>
      <trkpt lat="42.337181" lon="1.906377">
        <ele>1950.5</ele>
        <time>1970-01-01T01:16:00.000Z</time>
      </trkpt>
      <trkpt lat="42.33717" lon="1.906384">
        <ele>1950.7</ele>
        <time>1970-01-01T01:16:01.000Z</time>
      </trkpt>
      <trkpt lat="42.337154" lon="1.90639">
        <ele>1951</ele>
        <time>1970-01-01T01:16:02.000Z</time>
      </trkpt>
      <trkpt lat="42.337143" lon="1.906398">
        <ele>1951.2</ele>
        <time>1970-01-01T01:16:03.000Z</time>
      </trkpt>
      <trkpt lat="42.337128" lon="1.906406">
        <ele>1951.5</ele>
        <time>1970-01-01T01:16:04.000Z</time>
      </trkpt>
      <trkpt lat="42.337112" lon="1.906415">
        <ele>1951.7</ele>
        <time>1970-01-01T01:16:05.000Z</time>
      </trkpt>
      <trkpt lat="42.337105" lon="1.906422">
        <ele>1951.8</ele>
        <time>1970-01-01T01:16:06.000Z</time>
      </trkpt>
      <trkpt lat="42.337097" lon="1.906433">
        <ele>1952</ele>
        <time>1970-01-01T01:16:07.000Z</time>
      </trkpt>
      <trkpt lat="42.337082" lon="1.906445">
        <ele>1952.2</ele>
        <time>1970-01-01T01:16:08.000Z</time>
      </trkpt>
      <trkpt lat="42.337067" lon="1.906455">
        <ele>1952.5</ele>
        <time>1970-01-01T01:16:09.000Z</time>
      </trkpt>
      <trkpt lat="42.337059" lon="1.906465">
        <ele>1952.6</ele>
        <time>1970-01-01T01:16:10.000Z</time>
      </trkpt>
      <trkpt lat="42.337044" lon="1.906475">
        <ele>1952.8</ele>
        <time>1970-01-01T01:16:11.000Z</time>
      </trkpt>
      <trkpt lat="42.337029" lon="1.906485">
        <ele>1953</ele>
        <time>1970-01-01T01:16:12.000Z</time>
      </trkpt>
      <trkpt lat="42.337017" lon="1.906495">
        <ele>1953.2</ele>
        <time>1970-01-01T01:16:13.000Z</time>
      </trkpt>
      <trkpt lat="42.337006" lon="1.906506">
        <ele>1953.4</ele>
        <time>1970-01-01T01:16:14.000Z</time>
      </trkpt>
      <trkpt lat="42.336994" lon="1.906515">
        <ele>1953.6</ele>
        <time>1970-01-01T01:16:15.000Z</time>
      </trkpt>
      <trkpt lat="42.336979" lon="1.906522">
        <ele>1953.8</ele>
        <time>1970-01-01T01:16:16.000Z</time>
      </trkpt>
      <trkpt lat="42.336964" lon="1.906536">
        <ele>1954</ele>
        <time>1970-01-01T01:16:17.000Z</time>
      </trkpt>
      <trkpt lat="42.336956" lon="1.906552">
        <ele>1954.2</ele>
        <time>1970-01-01T01:16:18.000Z</time>
      </trkpt>
      <trkpt lat="42.336945" lon="1.906572">
        <ele>1954.4</ele>
        <time>1970-01-01T01:16:19.000Z</time>
      </trkpt>
      <trkpt lat="42.336933" lon="1.906589">
        <ele>1954.6</ele>
        <time>1970-01-01T01:16:20.000Z</time>
      </trkpt>
      <trkpt lat="42.336926" lon="1.906601">
        <ele>1954.8</ele>
        <time>1970-01-01T01:16:21.000Z</time>
      </trkpt>
      <trkpt lat="42.33691" lon="1.906613">
        <ele>1955</ele>
        <time>1970-01-01T01:16:22.000Z</time>
      </trkpt>
      <trkpt lat="42.336899" lon="1.906631">
        <ele>1955.2</ele>
        <time>1970-01-01T01:16:23.000Z</time>
      </trkpt>
      <trkpt lat="42.336891" lon="1.906644">
        <ele>1955.3</ele>
        <time>1970-01-01T01:16:24.000Z</time>
      </trkpt>
      <trkpt lat="42.336884" lon="1.906655">
        <ele>1955.5</ele>
        <time>1970-01-01T01:16:25.000Z</time>
      </trkpt>
      <trkpt lat="42.336872" lon="1.906664">
        <ele>1955.6</ele>
        <time>1970-01-01T01:16:26.000Z</time>
      </trkpt>
      <trkpt lat="42.336861" lon="1.906675">
        <ele>1955.8</ele>
        <time>1970-01-01T01:16:27.000Z</time>
      </trkpt>
      <trkpt lat="42.336853" lon="1.906687">
        <ele>1956</ele>
        <time>1970-01-01T01:16:28.000Z</time>
      </trkpt>
      <trkpt lat="42.336845" lon="1.906702">
        <ele>1956.1</ele>
        <time>1970-01-01T01:16:29.000Z</time>
      </trkpt>
      <trkpt lat="42.336834" lon="1.906718">
        <ele>1956.3</ele>
        <time>1970-01-01T01:16:30.000Z</time>
      </trkpt>
      <trkpt lat="42.336823" lon="1.906732">
        <ele>1956.5</ele>
        <time>1970-01-01T01:16:31.000Z</time>
      </trkpt>
      <trkpt lat="42.336811" lon="1.906744">
        <ele>1956.7</ele>
        <time>1970-01-01T01:16:32.000Z</time>
      </trkpt>
      <trkpt lat="42.3368" lon="1.90676">
        <ele>1956.9</ele>
        <time>1970-01-01T01:16:33.000Z</time>
      </trkpt>
      <trkpt lat="42.336788" lon="1.906776">
        <ele>1957.1</ele>
        <time>1970-01-01T01:16:34.000Z</time>
      </trkpt>
      <trkpt lat="42.336781" lon="1.90679">
        <ele>1957.3</ele>
        <time>1970-01-01T01:16:35.000Z</time>
      </trkpt>
      <trkpt lat="42.336769" lon="1.906808">
        <ele>1957.5</ele>
        <time>1970-01-01T01:16:36.000Z</time>
      </trkpt>
      <trkpt lat="42.336758" lon="1.906824">
        <ele>1957.7</ele>
        <time>1970-01-01T01:16:37.000Z</time>
      </trkpt>
      <trkpt lat="42.336746" lon="1.906837">
        <ele>1957.9</ele>
        <time>1970-01-01T01:16:38.000Z</time>
      </trkpt>
      <trkpt lat="42.336735" lon="1.906849">
        <ele>1958.1</ele>
        <time>1970-01-01T01:16:39.000Z</time>
      </trkpt>
      <trkpt lat="42.33672" lon="1.906862">
        <ele>1958.3</ele>
        <time>1970-01-01T01:16:40.000Z</time>
      </trkpt>
      <trkpt lat="42.336708" lon="1.906877">
        <ele>1958.5</ele>
        <time>1970-01-01T01:16:41.000Z</time>
      </trkpt>
      <trkpt lat="42.336697" lon="1.906897">
        <ele>1958.8</ele>
        <time>1970-01-01T01:16:42.000Z</time>
      </trkpt>
      <trkpt lat="42.336689" lon="1.906911">
        <ele>1959</ele>
        <time>1970-01-01T01:16:43.000Z</time>
      </trkpt>
      <trkpt lat="42.336678" lon="1.906927">
        <ele>1959.2</ele>
        <time>1970-01-01T01:16:44.000Z</time>
      </trkpt>
      <trkpt lat="42.33667" lon="1.906939">
        <ele>1959.3</ele>
        <time>1970-01-01T01:16:45.000Z</time>
      </trkpt>
      <trkpt lat="42.336662" lon="1.906952">
        <ele>1959.5</ele>
        <time>1970-01-01T01:16:46.000Z</time>
      </trkpt>
      <trkpt lat="42.336655" lon="1.906966">
        <ele>1959.7</ele>
        <time>1970-01-01T01:16:47.000Z</time>
      </trkpt>
      <trkpt lat="42.336647" lon="1.906978">
        <ele>1959.8</ele>
        <time>1970-01-01T01:16:48.000Z</time>
      </trkpt>
      <trkpt lat="42.336639" lon="1.906989">
        <ele>1960</ele>
        <time>1970-01-01T01:16:49.000Z</time>
      </trkpt>
      <trkpt lat="42.336628" lon="1.907001">
        <ele>1960.2</ele>
        <time>1970-01-01T01:16:50.000Z</time>
      </trkpt>
      <trkpt lat="42.336613" lon="1.907013">
        <ele>1960.4</ele>
        <time>1970-01-01T01:16:51.000Z</time>
      </trkpt>
      <trkpt lat="42.336609" lon="1.907032">
        <ele>1960.6</ele>
        <time>1970-01-01T01:16:52.000Z</time>
      </trkpt>
      <trkpt lat="42.336609" lon="1.907052">
        <ele>1960.7</ele>
        <time>1970-01-01T01:16:53.000Z</time>
      </trkpt>
      <trkpt lat="42.336605" lon="1.907071">
        <ele>1960.9</ele>
        <time>1970-01-01T01:16:54.000Z</time>
      </trkpt>
      <trkpt lat="42.336605" lon="1.907086">
        <ele>1961.1</ele>
        <time>1970-01-01T01:16:55.000Z</time>
      </trkpt>
      <trkpt lat="42.336601" lon="1.907106">
        <ele>1961.3</ele>
        <time>1970-01-01T01:16:56.000Z</time>
      </trkpt>
      <trkpt lat="42.336597" lon="1.907123">
        <ele>1961.4</ele>
        <time>1970-01-01T01:16:57.000Z</time>
      </trkpt>
      <trkpt lat="42.336594" lon="1.907143">
        <ele>1961.6</ele>
        <time>1970-01-01T01:16:58.000Z</time>
      </trkpt>
      <trkpt lat="42.336597" lon="1.907165">
        <ele>1961.8</ele>
        <time>1970-01-01T01:16:59.000Z</time>
      </trkpt>
      <trkpt lat="42.33659" lon="1.907187">
        <ele>1962</ele>
        <time>1970-01-01T01:17:00.000Z</time>
      </trkpt>
      <trkpt lat="42.336586" lon="1.907207">
        <ele>1962.2</ele>
        <time>1970-01-01T01:17:01.000Z</time>
      </trkpt>
      <trkpt lat="42.336586" lon="1.907226">
        <ele>1962.4</ele>
        <time>1970-01-01T01:17:02.000Z</time>
      </trkpt>
      <trkpt lat="42.336586" lon="1.907243">
        <ele>1962.6</ele>
        <time>1970-01-01T01:17:03.000Z</time>
      </trkpt>
      <trkpt lat="42.336586" lon="1.90726">
        <ele>1962.7</ele>
        <time>1970-01-01T01:17:04.000Z</time>
      </trkpt>
      <trkpt lat="42.336586" lon="1.907277">
        <ele>1962.9</ele>
        <time>1970-01-01T01:17:05.000Z</time>
      </trkpt>
      <trkpt lat="42.336586" lon="1.907296">
        <ele>1963.1</ele>
        <time>1970-01-01T01:17:06.000Z</time>
      </trkpt>
      <trkpt lat="42.336586" lon="1.907316">
        <ele>1963.3</ele>
        <time>1970-01-01T01:17:07.000Z</time>
      </trkpt>
      <trkpt lat="42.336582" lon="1.907334">
        <ele>1963.4</ele>
        <time>1970-01-01T01:17:08.000Z</time>
      </trkpt>
      <trkpt lat="42.33659" lon="1.907348">
        <ele>1963.6</ele>
        <time>1970-01-01T01:17:09.000Z</time>
      </trkpt>
      <trkpt lat="42.336586" lon="1.90737">
        <ele>1963.9</ele>
        <time>1970-01-01T01:17:10.000Z</time>
      </trkpt>
      <trkpt lat="42.33659" lon="1.907388">
        <ele>1964.1</ele>
        <time>1970-01-01T01:17:11.000Z</time>
      </trkpt>
      <trkpt lat="42.336594" lon="1.907406">
        <ele>1964.3</ele>
        <time>1970-01-01T01:17:12.000Z</time>
      </trkpt>
      <trkpt lat="42.336601" lon="1.90742">
        <ele>1964.4</ele>
        <time>1970-01-01T01:17:13.000Z</time>
      </trkpt>
      <trkpt lat="42.336601" lon="1.907443">
        <ele>1964.7</ele>
        <time>1970-01-01T01:17:14.000Z</time>
      </trkpt>
      <trkpt lat="42.336605" lon="1.907464">
        <ele>1964.9</ele>
        <time>1970-01-01T01:17:15.000Z</time>
      </trkpt>
      <trkpt lat="42.336609" lon="1.907484">
        <ele>1965.2</ele>
        <time>1970-01-01T01:17:16.000Z</time>
      </trkpt>
      <trkpt lat="42.336613" lon="1.907498">
        <ele>1965.3</ele>
        <time>1970-01-01T01:17:17.000Z</time>
      </trkpt>
      <trkpt lat="42.33662" lon="1.907516">
        <ele>1965.6</ele>
        <time>1970-01-01T01:17:18.000Z</time>
      </trkpt>
      <trkpt lat="42.336628" lon="1.907532">
        <ele>1965.8</ele>
        <time>1970-01-01T01:17:19.000Z</time>
      </trkpt>
      <trkpt lat="42.336632" lon="1.907552">
        <ele>1966</ele>
        <time>1970-01-01T01:17:20.000Z</time>
      </trkpt>
      <trkpt lat="42.336632" lon="1.907571">
        <ele>1966.2</ele>
        <time>1970-01-01T01:17:21.000Z</time>
      </trkpt>
      <trkpt lat="42.336639" lon="1.90759">
        <ele>1966.5</ele>
        <time>1970-01-01T01:17:22.000Z</time>
      </trkpt>
      <trkpt lat="42.336647" lon="1.907614">
        <ele>1966.8</ele>
        <time>1970-01-01T01:17:23.000Z</time>
      </trkpt>
      <trkpt lat="42.336655" lon="1.907636">
        <ele>1967.1</ele>
        <time>1970-01-01T01:17:24.000Z</time>
      </trkpt>
      <trkpt lat="42.336662" lon="1.907656">
        <ele>1967.4</ele>
        <time>1970-01-01T01:17:25.000Z</time>
      </trkpt>
      <trkpt lat="42.33667" lon="1.907674">
        <ele>1967.6</ele>
        <time>1970-01-01T01:17:26.000Z</time>
      </trkpt>
      <trkpt lat="42.336678" lon="1.907689">
        <ele>1967.9</ele>
        <time>1970-01-01T01:17:27.000Z</time>
      </trkpt>
      <trkpt lat="42.336685" lon="1.907708">
        <ele>1968.1</ele>
        <time>1970-01-01T01:17:28.000Z</time>
      </trkpt>
      <trkpt lat="42.336697" lon="1.907727">
        <ele>1968.5</ele>
        <time>1970-01-01T01:17:29.000Z</time>
      </trkpt>
      <trkpt lat="42.336704" lon="1.907743">
        <ele>1968.7</ele>
        <time>1970-01-01T01:17:30.000Z</time>
      </trkpt>
      <trkpt lat="42.336708" lon="1.907762">
        <ele>1969</ele>
        <time>1970-01-01T01:17:31.000Z</time>
      </trkpt>
      <trkpt lat="42.336712" lon="1.907786">
        <ele>1969.3</ele>
        <time>1970-01-01T01:17:32.000Z</time>
      </trkpt>
      <trkpt lat="42.33672" lon="1.907806">
        <ele>1969.6</ele>
        <time>1970-01-01T01:17:33.000Z</time>
      </trkpt>
      <trkpt lat="42.336723" lon="1.907824">
        <ele>1969.8</ele>
        <time>1970-01-01T01:17:34.000Z</time>
      </trkpt>
      <trkpt lat="42.336727" lon="1.907845">
        <ele>1970.1</ele>
        <time>1970-01-01T01:17:35.000Z</time>
      </trkpt>
      <trkpt lat="42.336723" lon="1.907863">
        <ele>1970.3</ele>
        <time>1970-01-01T01:17:36.000Z</time>
      </trkpt>
      <trkpt lat="42.336723" lon="1.907887">
        <ele>1970.6</ele>
        <time>1970-01-01T01:17:37.000Z</time>
      </trkpt>
      <trkpt lat="42.336723" lon="1.907907">
        <ele>1970.8</ele>
        <time>1970-01-01T01:17:38.000Z</time>
      </trkpt>
      <trkpt lat="42.336727" lon="1.907924">
        <ele>1971</ele>
        <time>1970-01-01T01:17:39.000Z</time>
      </trkpt>
      <trkpt lat="42.336731" lon="1.907942">
        <ele>1971.3</ele>
        <time>1970-01-01T01:17:40.000Z</time>
      </trkpt>
      <trkpt lat="42.336742" lon="1.907952">
        <ele>1971.5</ele>
        <time>1970-01-01T01:17:41.000Z</time>
      </trkpt>
      <trkpt lat="42.33675" lon="1.907965">
        <ele>1971.7</ele>
        <time>1970-01-01T01:17:42.000Z</time>
      </trkpt>
      <trkpt lat="42.336754" lon="1.907979">
        <ele>1971.8</ele>
        <time>1970-01-01T01:17:43.000Z</time>
      </trkpt>
      <trkpt lat="42.336761" lon="1.907997">
        <ele>1972</ele>
        <time>1970-01-01T01:17:44.000Z</time>
      </trkpt>
      <trkpt lat="42.336761" lon="1.908017">
        <ele>1972.2</ele>
        <time>1970-01-01T01:17:45.000Z</time>
      </trkpt>
      <trkpt lat="42.336761" lon="1.908037">
        <ele>1972.4</ele>
        <time>1970-01-01T01:17:46.000Z</time>
      </trkpt>
      <trkpt lat="42.336765" lon="1.908053">
        <ele>1972.6</ele>
        <time>1970-01-01T01:17:47.000Z</time>
      </trkpt>
      <trkpt lat="42.336769" lon="1.908072">
        <ele>1972.8</ele>
        <time>1970-01-01T01:17:48.000Z</time>
      </trkpt>
      <trkpt lat="42.336777" lon="1.908094">
        <ele>1973</ele>
        <time>1970-01-01T01:17:49.000Z</time>
      </trkpt>
      <trkpt lat="42.336781" lon="1.908118">
        <ele>1973.1</ele>
        <time>1970-01-01T01:17:50.000Z</time>
      </trkpt>
      <trkpt lat="42.336784" lon="1.908148">
        <ele>1973.3</ele>
        <time>1970-01-01T01:17:51.000Z</time>
      </trkpt>
      <trkpt lat="42.336792" lon="1.90818">
        <ele>1973.5</ele>
        <time>1970-01-01T01:17:52.000Z</time>
      </trkpt>
      <trkpt lat="42.3368" lon="1.908216">
        <ele>1973.6</ele>
        <time>1970-01-01T01:17:53.000Z</time>
      </trkpt>
      <trkpt lat="42.336819" lon="1.908264">
        <ele>1973.7</ele>
        <time>1970-01-01T01:17:54.000Z</time>
      </trkpt>
      <trkpt lat="42.336834" lon="1.908317">
        <ele>1973.8</ele>
        <time>1970-01-01T01:17:55.000Z</time>
      </trkpt>
      <trkpt lat="42.336849" lon="1.908379">
        <ele>1973.7</ele>
        <time>1970-01-01T01:17:56.000Z</time>
      </trkpt>
      <trkpt lat="42.336865" lon="1.908436">
        <ele>1973.7</ele>
        <time>1970-01-01T01:17:57.000Z</time>
      </trkpt>
      <trkpt lat="42.33688" lon="1.9085">
        <ele>1973.6</ele>
        <time>1970-01-01T01:17:58.000Z</time>
      </trkpt>
      <trkpt lat="42.336899" lon="1.908562">
        <ele>1973.6</ele>
        <time>1970-01-01T01:17:59.000Z</time>
      </trkpt>
      <trkpt lat="42.336914" lon="1.908619">
        <ele>1973.5</ele>
        <time>1970-01-01T01:18:00.000Z</time>
      </trkpt>
      <trkpt lat="42.336929" lon="1.90868">
        <ele>1973.5</ele>
        <time>1970-01-01T01:18:01.000Z</time>
      </trkpt>
      <trkpt lat="42.336941" lon="1.908738">
        <ele>1973.5</ele>
        <time>1970-01-01T01:18:02.000Z</time>
      </trkpt>
      <trkpt lat="42.336952" lon="1.908795">
        <ele>1973.5</ele>
        <time>1970-01-01T01:18:03.000Z</time>
      </trkpt>
      <trkpt lat="42.33696" lon="1.908841">
        <ele>1973.6</ele>
        <time>1970-01-01T01:18:04.000Z</time>
      </trkpt>
      <trkpt lat="42.336971" lon="1.908889">
        <ele>1973.7</ele>
        <time>1970-01-01T01:18:05.000Z</time>
      </trkpt>
      <trkpt lat="42.336983" lon="1.908928">
        <ele>1973.8</ele>
        <time>1970-01-01T01:18:06.000Z</time>
      </trkpt>
      <trkpt lat="42.336998" lon="1.908967">
        <ele>1973.9</ele>
        <time>1970-01-01T01:18:07.000Z</time>
      </trkpt>
      <trkpt lat="42.337009" lon="1.909002">
        <ele>1974.1</ele>
        <time>1970-01-01T01:18:08.000Z</time>
      </trkpt>
      <trkpt lat="42.337025" lon="1.909039">
        <ele>1974.2</ele>
        <time>1970-01-01T01:18:09.000Z</time>
      </trkpt>
      <trkpt lat="42.337036" lon="1.909073">
        <ele>1974.4</ele>
        <time>1970-01-01T01:18:10.000Z</time>
      </trkpt>
      <trkpt lat="42.337044" lon="1.90911">
        <ele>1974.6</ele>
        <time>1970-01-01T01:18:11.000Z</time>
      </trkpt>
      <trkpt lat="42.337051" lon="1.90914">
        <ele>1974.8</ele>
        <time>1970-01-01T01:18:12.000Z</time>
      </trkpt>
      <trkpt lat="42.337059" lon="1.909172">
        <ele>1975</ele>
        <time>1970-01-01T01:18:13.000Z</time>
      </trkpt>
      <trkpt lat="42.337063" lon="1.909202">
        <ele>1975.1</ele>
        <time>1970-01-01T01:18:14.000Z</time>
      </trkpt>
      <trkpt lat="42.33707" lon="1.909234">
        <ele>1975.3</ele>
        <time>1970-01-01T01:18:15.000Z</time>
      </trkpt>
      <trkpt lat="42.337078" lon="1.909262">
        <ele>1975.5</ele>
        <time>1970-01-01T01:18:16.000Z</time>
      </trkpt>
      <trkpt lat="42.33709" lon="1.909286">
        <ele>1975.6</ele>
        <time>1970-01-01T01:18:17.000Z</time>
      </trkpt>
      <trkpt lat="42.337101" lon="1.909315">
        <ele>1975.8</ele>
        <time>1970-01-01T01:18:18.000Z</time>
      </trkpt>
      <trkpt lat="42.337116" lon="1.909343">
        <ele>1976</ele>
        <time>1970-01-01T01:18:19.000Z</time>
      </trkpt>
      <trkpt lat="42.337128" lon="1.90937">
        <ele>1976.2</ele>
        <time>1970-01-01T01:18:20.000Z</time>
      </trkpt>
      <trkpt lat="42.337131" lon="1.909399">
        <ele>1976.4</ele>
        <time>1970-01-01T01:18:21.000Z</time>
      </trkpt>
      <trkpt lat="42.337139" lon="1.90943">
        <ele>1976.5</ele>
        <time>1970-01-01T01:18:22.000Z</time>
      </trkpt>
      <trkpt lat="42.337147" lon="1.909458">
        <ele>1976.7</ele>
        <time>1970-01-01T01:18:23.000Z</time>
      </trkpt>
      <trkpt lat="42.337151" lon="1.909489">
        <ele>1976.9</ele>
        <time>1970-01-01T01:18:24.000Z</time>
      </trkpt>
      <trkpt lat="42.337154" lon="1.909519">
        <ele>1977</ele>
        <time>1970-01-01T01:18:25.000Z</time>
      </trkpt>
      <trkpt lat="42.337154" lon="1.909552">
        <ele>1977.2</ele>
        <time>1970-01-01T01:18:26.000Z</time>
      </trkpt>
      <trkpt lat="42.337151" lon="1.909583">
        <ele>1977.4</ele>
        <time>1970-01-01T01:18:27.000Z</time>
      </trkpt>
      <trkpt lat="42.337139" lon="1.90961">
        <ele>1977.5</ele>
        <time>1970-01-01T01:18:28.000Z</time>
      </trkpt>
      <trkpt lat="42.33712" lon="1.909637">
        <ele>1977.7</ele>
        <time>1970-01-01T01:18:29.000Z</time>
      </trkpt>
      <trkpt lat="42.337093" lon="1.909656">
        <ele>1977.9</ele>
        <time>1970-01-01T01:18:30.000Z</time>
      </trkpt>
      <trkpt lat="42.337067" lon="1.909672">
        <ele>1978.1</ele>
        <time>1970-01-01T01:18:31.000Z</time>
      </trkpt>
      <trkpt lat="42.337044" lon="1.909683">
        <ele>1980.2</ele>
        <time>1970-01-01T01:18:32.000Z</time>
      </trkpt>
      <trkpt lat="42.337013" lon="1.909686">
        <ele>1980.7</ele>
        <time>1970-01-01T01:18:33.000Z</time>
      </trkpt>
      <trkpt lat="42.33699" lon="1.909685">
        <ele>1981.2</ele>
        <time>1970-01-01T01:18:34.000Z</time>
      </trkpt>
      <trkpt lat="42.336971" lon="1.90968">
        <ele>1981.6</ele>
        <time>1970-01-01T01:18:35.000Z</time>
      </trkpt>
      <trkpt lat="42.336948" lon="1.909674">
        <ele>1982</ele>
        <time>1970-01-01T01:18:36.000Z</time>
      </trkpt>
      <trkpt lat="42.336929" lon="1.90967">
        <ele>1982.4</ele>
        <time>1970-01-01T01:18:37.000Z</time>
      </trkpt>
      <trkpt lat="42.33691" lon="1.909666">
        <ele>1982.7</ele>
        <time>1970-01-01T01:18:38.000Z</time>
      </trkpt>
      <trkpt lat="42.336895" lon="1.909661">
        <ele>1983</ele>
        <time>1970-01-01T01:18:39.000Z</time>
      </trkpt>
      <trkpt lat="42.336876" lon="1.909656">
        <ele>1983.4</ele>
        <time>1970-01-01T01:18:40.000Z</time>
      </trkpt>
      <trkpt lat="42.336861" lon="1.909651">
        <ele>1983.7</ele>
        <time>1970-01-01T01:18:41.000Z</time>
      </trkpt>
      <trkpt lat="42.336842" lon="1.909647">
        <ele>1984</ele>
        <time>1970-01-01T01:18:42.000Z</time>
      </trkpt>
      <trkpt lat="42.336826" lon="1.909643">
        <ele>1984.3</ele>
        <time>1970-01-01T01:18:43.000Z</time>
      </trkpt>
      <trkpt lat="42.336807" lon="1.909636">
        <ele>1984.7</ele>
        <time>1970-01-01T01:18:44.000Z</time>
      </trkpt>
      <trkpt lat="42.336792" lon="1.909632">
        <ele>1985</ele>
        <time>1970-01-01T01:18:45.000Z</time>
      </trkpt>
      <trkpt lat="42.336777" lon="1.909629">
        <ele>1985.2</ele>
        <time>1970-01-01T01:18:46.000Z</time>
      </trkpt>
      <trkpt lat="42.336765" lon="1.909624">
        <ele>1985.5</ele>
        <time>1970-01-01T01:18:47.000Z</time>
      </trkpt>
      <trkpt lat="42.336746" lon="1.909619">
        <ele>1985.8</ele>
        <time>1970-01-01T01:18:48.000Z</time>
      </trkpt>
      <trkpt lat="42.336731" lon="1.909617">
        <ele>1986.1</ele>
        <time>1970-01-01T01:18:49.000Z</time>
      </trkpt>
      <trkpt lat="42.336712" lon="1.909615">
        <ele>1986.5</ele>
        <time>1970-01-01T01:18:50.000Z</time>
      </trkpt>
      <trkpt lat="42.3367" lon="1.90961">
        <ele>1986.7</ele>
        <time>1970-01-01T01:18:51.000Z</time>
      </trkpt>
      <trkpt lat="42.336685" lon="1.9096">
        <ele>1987</ele>
        <time>1970-01-01T01:18:52.000Z</time>
      </trkpt>
      <trkpt lat="42.33667" lon="1.90959">
        <ele>1987.3</ele>
        <time>1970-01-01T01:18:53.000Z</time>
      </trkpt>
      <trkpt lat="42.336655" lon="1.909583">
        <ele>1987.6</ele>
        <time>1970-01-01T01:18:54.000Z</time>
      </trkpt>
      <trkpt lat="42.336643" lon="1.909575">
        <ele>1987.9</ele>
        <time>1970-01-01T01:18:55.000Z</time>
      </trkpt>
      <trkpt lat="42.336628" lon="1.909565">
        <ele>1988.2</ele>
        <time>1970-01-01T01:18:56.000Z</time>
      </trkpt>
      <trkpt lat="42.336616" lon="1.909553">
        <ele>1988.5</ele>
        <time>1970-01-01T01:18:57.000Z</time>
      </trkpt>
      <trkpt lat="42.336609" lon="1.909539">
        <ele>1988.7</ele>
        <time>1970-01-01T01:18:58.000Z</time>
      </trkpt>
      <trkpt lat="42.336597" lon="1.909522">
        <ele>1989</ele>
        <time>1970-01-01T01:18:59.000Z</time>
      </trkpt>
      <trkpt lat="42.336586" lon="1.909501">
        <ele>1989.4</ele>
        <time>1970-01-01T01:19:00.000Z</time>
      </trkpt>
      <trkpt lat="42.336575" lon="1.909479">
        <ele>1989.7</ele>
        <time>1970-01-01T01:19:01.000Z</time>
      </trkpt>
      <trkpt lat="42.336567" lon="1.909462">
        <ele>1990</ele>
        <time>1970-01-01T01:19:02.000Z</time>
      </trkpt>
      <trkpt lat="42.336555" lon="1.909444">
        <ele>1990.4</ele>
        <time>1970-01-01T01:19:03.000Z</time>
      </trkpt>
      <trkpt lat="42.336544" lon="1.909423">
        <ele>1990.7</ele>
        <time>1970-01-01T01:19:04.000Z</time>
      </trkpt>
      <trkpt lat="42.336533" lon="1.9094">
        <ele>1991.1</ele>
        <time>1970-01-01T01:19:05.000Z</time>
      </trkpt>
      <trkpt lat="42.336525" lon="1.909379">
        <ele>1991.4</ele>
        <time>1970-01-01T01:19:06.000Z</time>
      </trkpt>
      <trkpt lat="42.336517" lon="1.90936">
        <ele>1991.7</ele>
        <time>1970-01-01T01:19:07.000Z</time>
      </trkpt>
      <trkpt lat="42.336506" lon="1.909341">
        <ele>1992</ele>
        <time>1970-01-01T01:19:08.000Z</time>
      </trkpt>
      <trkpt lat="42.336494" lon="1.90932">
        <ele>1992.4</ele>
        <time>1970-01-01T01:19:09.000Z</time>
      </trkpt>
      <trkpt lat="42.336487" lon="1.909298">
        <ele>1992.7</ele>
        <time>1970-01-01T01:19:10.000Z</time>
      </trkpt>
      <trkpt lat="42.336475" lon="1.909281">
        <ele>1993.1</ele>
        <time>1970-01-01T01:19:11.000Z</time>
      </trkpt>
      <trkpt lat="42.336464" lon="1.909264">
        <ele>1993.4</ele>
        <time>1970-01-01T01:19:12.000Z</time>
      </trkpt>
      <trkpt lat="42.336452" lon="1.909247">
        <ele>1993.7</ele>
        <time>1970-01-01T01:19:13.000Z</time>
      </trkpt>
      <trkpt lat="42.336449" lon="1.909231">
        <ele>1993.9</ele>
        <time>1970-01-01T01:19:14.000Z</time>
      </trkpt>
      <trkpt lat="42.336437" lon="1.909211">
        <ele>1994.3</ele>
        <time>1970-01-01T01:19:15.000Z</time>
      </trkpt>
      <trkpt lat="42.33643" lon="1.909189">
        <ele>1994.6</ele>
        <time>1970-01-01T01:19:16.000Z</time>
      </trkpt>
      <trkpt lat="42.336422" lon="1.909172">
        <ele>1994.9</ele>
        <time>1970-01-01T01:19:17.000Z</time>
      </trkpt>
      <trkpt lat="42.336411" lon="1.909157">
        <ele>1995.1</ele>
        <time>1970-01-01T01:19:18.000Z</time>
      </trkpt>
      <trkpt lat="42.336399" lon="1.909147">
        <ele>1995.4</ele>
        <time>1970-01-01T01:19:19.000Z</time>
      </trkpt>
      <trkpt lat="42.336384" lon="1.909137">
        <ele>1995.7</ele>
        <time>1970-01-01T01:19:20.000Z</time>
      </trkpt>
      <trkpt lat="42.336372" lon="1.909125">
        <ele>1995.9</ele>
        <time>1970-01-01T01:19:21.000Z</time>
      </trkpt>
      <trkpt lat="42.336357" lon="1.909113">
        <ele>1996.2</ele>
        <time>1970-01-01T01:19:22.000Z</time>
      </trkpt>
      <trkpt lat="42.33635" lon="1.909104">
        <ele>1996.4</ele>
        <time>1970-01-01T01:19:23.000Z</time>
      </trkpt>
      <trkpt lat="42.336338" lon="1.909092">
        <ele>1996.7</ele>
        <time>1970-01-01T01:19:24.000Z</time>
      </trkpt>
      <trkpt lat="42.336327" lon="1.909077">
        <ele>1996.9</ele>
        <time>1970-01-01T01:19:25.000Z</time>
      </trkpt>
      <trkpt lat="42.336323" lon="1.909063">
        <ele>1997.1</ele>
        <time>1970-01-01T01:19:26.000Z</time>
      </trkpt>
      <trkpt lat="42.336315" lon="1.909051">
        <ele>1997.3</ele>
        <time>1970-01-01T01:19:27.000Z</time>
      </trkpt>
      <trkpt lat="42.336304" lon="1.909036">
        <ele>1997.6</ele>
        <time>1970-01-01T01:19:28.000Z</time>
      </trkpt>
      <trkpt lat="42.336296" lon="1.909021">
        <ele>1997.9</ele>
        <time>1970-01-01T01:19:29.000Z</time>
      </trkpt>
      <trkpt lat="42.336288" lon="1.909007">
        <ele>1998.1</ele>
        <time>1970-01-01T01:19:30.000Z</time>
      </trkpt>
      <trkpt lat="42.336277" lon="1.908997">
        <ele>1998.3</ele>
        <time>1970-01-01T01:19:31.000Z</time>
      </trkpt>
      <trkpt lat="42.336266" lon="1.90899">
        <ele>1998.5</ele>
        <time>1970-01-01T01:19:32.000Z</time>
      </trkpt>
      <trkpt lat="42.336254" lon="1.908979">
        <ele>1998.8</ele>
        <time>1970-01-01T01:19:33.000Z</time>
      </trkpt>
      <trkpt lat="42.336239" lon="1.90897">
        <ele>1999.1</ele>
        <time>1970-01-01T01:19:34.000Z</time>
      </trkpt>
      <trkpt lat="42.336227" lon="1.908964">
        <ele>1999.3</ele>
        <time>1970-01-01T01:19:35.000Z</time>
      </trkpt>
      <trkpt lat="42.336212" lon="1.908963">
        <ele>1999.6</ele>
        <time>1970-01-01T01:19:36.000Z</time>
      </trkpt>
      <trkpt lat="42.336201" lon="1.908966">
        <ele>1999.8</ele>
        <time>1970-01-01T01:19:37.000Z</time>
      </trkpt>
      <trkpt lat="42.336185" lon="1.908972">
        <ele>2000.1</ele>
        <time>1970-01-01T01:19:38.000Z</time>
      </trkpt>
      <trkpt lat="42.33617" lon="1.908976">
        <ele>2000.4</ele>
        <time>1970-01-01T01:19:39.000Z</time>
      </trkpt>
      <trkpt lat="42.336159" lon="1.908977">
        <ele>2000.6</ele>
        <time>1970-01-01T01:19:40.000Z</time>
      </trkpt>
      <trkpt lat="42.336147" lon="1.908982">
        <ele>2000.8</ele>
        <time>1970-01-01T01:19:41.000Z</time>
      </trkpt>
      <trkpt lat="42.33614" lon="1.908996">
        <ele>2001</ele>
        <time>1970-01-01T01:19:42.000Z</time>
      </trkpt>
      <trkpt lat="42.336136" lon="1.909008">
        <ele>2001.2</ele>
        <time>1970-01-01T01:19:43.000Z</time>
      </trkpt>
      <trkpt lat="42.336128" lon="1.909025">
        <ele>2001.5</ele>
        <time>1970-01-01T01:19:44.000Z</time>
      </trkpt>
      <trkpt lat="42.336121" lon="1.90904">
        <ele>2001.7</ele>
        <time>1970-01-01T01:19:45.000Z</time>
      </trkpt>
      <trkpt lat="42.336117" lon="1.909054">
        <ele>2001.9</ele>
        <time>1970-01-01T01:19:46.000Z</time>
      </trkpt>
      <trkpt lat="42.336113" lon="1.909068">
        <ele>2002.1</ele>
        <time>1970-01-01T01:19:47.000Z</time>
      </trkpt>
      <trkpt lat="42.336109" lon="1.909086">
        <ele>2002.4</ele>
        <time>1970-01-01T01:19:48.000Z</time>
      </trkpt>
      <trkpt lat="42.336105" lon="1.909103">
        <ele>2002.6</ele>
        <time>1970-01-01T01:19:49.000Z</time>
      </trkpt>
      <trkpt lat="42.336098" lon="1.909118">
        <ele>2002.9</ele>
        <time>1970-01-01T01:19:50.000Z</time>
      </trkpt>
      <trkpt lat="42.33609" lon="1.909133">
        <ele>2003.1</ele>
        <time>1970-01-01T01:19:51.000Z</time>
      </trkpt>
      <trkpt lat="42.336082" lon="1.909149">
        <ele>2003.4</ele>
        <time>1970-01-01T01:19:52.000Z</time>
      </trkpt>
      <trkpt lat="42.336075" lon="1.909164">
        <ele>2003.7</ele>
        <time>1970-01-01T01:19:53.000Z</time>
      </trkpt>
      <trkpt lat="42.336067" lon="1.909175">
        <ele>2003.9</ele>
        <time>1970-01-01T01:19:54.000Z</time>
      </trkpt>
      <trkpt lat="42.336052" lon="1.909184">
        <ele>2004.2</ele>
        <time>1970-01-01T01:19:55.000Z</time>
      </trkpt>
      <trkpt lat="42.33604" lon="1.909193">
        <ele>2004.5</ele>
        <time>1970-01-01T01:19:56.000Z</time>
      </trkpt>
      <trkpt lat="42.336029" lon="1.909204">
        <ele>2004.7</ele>
        <time>1970-01-01T01:19:57.000Z</time>
      </trkpt>
      <trkpt lat="42.336018" lon="1.909216">
        <ele>2005</ele>
        <time>1970-01-01T01:19:58.000Z</time>
      </trkpt>
      <trkpt lat="42.336006" lon="1.909228">
        <ele>2005.3</ele>
        <time>1970-01-01T01:19:59.000Z</time>
      </trkpt>
      <trkpt lat="42.335999" lon="1.909245">
        <ele>2005.5</ele>
        <time>1970-01-01T01:20:00.000Z</time>
      </trkpt>
      <trkpt lat="42.335987" lon="1.909262">
        <ele>2005.9</ele>
        <time>1970-01-01T01:20:01.000Z</time>
      </trkpt>
      <trkpt lat="42.335979" lon="1.909277">
        <ele>2006.1</ele>
        <time>1970-01-01T01:20:02.000Z</time>
      </trkpt>
      <trkpt lat="42.335968" lon="1.909294">
        <ele>2006.5</ele>
        <time>1970-01-01T01:20:03.000Z</time>
      </trkpt>
      <trkpt lat="42.335964" lon="1.909309">
        <ele>2006.7</ele>
        <time>1970-01-01T01:20:04.000Z</time>
      </trkpt>
      <trkpt lat="42.335957" lon="1.909326">
        <ele>2007</ele>
        <time>1970-01-01T01:20:05.000Z</time>
      </trkpt>
      <trkpt lat="42.335953" lon="1.909343">
        <ele>2007.2</ele>
        <time>1970-01-01T01:20:06.000Z</time>
      </trkpt>
      <trkpt lat="42.335941" lon="1.909361">
        <ele>2007.6</ele>
        <time>1970-01-01T01:20:07.000Z</time>
      </trkpt>
      <trkpt lat="42.335934" lon="1.909377">
        <ele>2007.9</ele>
        <time>1970-01-01T01:20:08.000Z</time>
      </trkpt>
      <trkpt lat="42.335926" lon="1.909392">
        <ele>2008.1</ele>
        <time>1970-01-01T01:20:09.000Z</time>
      </trkpt>
      <trkpt lat="42.335915" lon="1.909409">
        <ele>2008.5</ele>
        <time>1970-01-01T01:20:10.000Z</time>
      </trkpt>
      <trkpt lat="42.335903" lon="1.909423">
        <ele>2008.8</ele>
        <time>1970-01-01T01:20:11.000Z</time>
      </trkpt>
      <trkpt lat="42.335896" lon="1.909437">
        <ele>2009</ele>
        <time>1970-01-01T01:20:12.000Z</time>
      </trkpt>
      <trkpt lat="42.335892" lon="1.909454">
        <ele>2009.3</ele>
        <time>1970-01-01T01:20:13.000Z</time>
      </trkpt>
      <trkpt lat="42.335888" lon="1.909473">
        <ele>2009.5</ele>
        <time>1970-01-01T01:20:14.000Z</time>
      </trkpt>
      <trkpt lat="42.335884" lon="1.909491">
        <ele>2009.8</ele>
        <time>1970-01-01T01:20:15.000Z</time>
      </trkpt>
      <trkpt lat="42.335876" lon="1.909502">
        <ele>2010</ele>
        <time>1970-01-01T01:20:16.000Z</time>
      </trkpt>
      <trkpt lat="42.335869" lon="1.909511">
        <ele>2010.2</ele>
        <time>1970-01-01T01:20:17.000Z</time>
      </trkpt>
      <trkpt lat="42.335857" lon="1.909521">
        <ele>2010.5</ele>
        <time>1970-01-01T01:20:18.000Z</time>
      </trkpt>
      <trkpt lat="42.335846" lon="1.909535">
        <ele>2010.8</ele>
        <time>1970-01-01T01:20:19.000Z</time>
      </trkpt>
      <trkpt lat="42.335846" lon="1.909551">
        <ele>2011</ele>
        <time>1970-01-01T01:20:20.000Z</time>
      </trkpt>
      <trkpt lat="42.335842" lon="1.909567">
        <ele>2011.2</ele>
        <time>1970-01-01T01:20:21.000Z</time>
      </trkpt>
      <trkpt lat="42.335842" lon="1.909584">
        <ele>2011.5</ele>
        <time>1970-01-01T01:20:22.000Z</time>
      </trkpt>
      <trkpt lat="42.335842" lon="1.909597">
        <ele>2011.6</ele>
        <time>1970-01-01T01:20:23.000Z</time>
      </trkpt>
      <trkpt lat="42.335838" lon="1.90961">
        <ele>2011.8</ele>
        <time>1970-01-01T01:20:24.000Z</time>
      </trkpt>
      <trkpt lat="42.335838" lon="1.909625">
        <ele>2012</ele>
        <time>1970-01-01T01:20:25.000Z</time>
      </trkpt>
      <trkpt lat="42.335838" lon="1.909638">
        <ele>2012.2</ele>
        <time>1970-01-01T01:20:26.000Z</time>
      </trkpt>
      <trkpt lat="42.335835" lon="1.909652">
        <ele>2012.4</ele>
        <time>1970-01-01T01:20:27.000Z</time>
      </trkpt>
      <trkpt lat="42.335827" lon="1.909666">
        <ele>2012.6</ele>
        <time>1970-01-01T01:20:28.000Z</time>
      </trkpt>
      <trkpt lat="42.335819" lon="1.909676">
        <ele>2012.8</ele>
        <time>1970-01-01T01:20:29.000Z</time>
      </trkpt>
      <trkpt lat="42.335812" lon="1.909684">
        <ele>2013</ele>
        <time>1970-01-01T01:20:30.000Z</time>
      </trkpt>
      <trkpt lat="42.335812" lon="1.909695">
        <ele>2013.1</ele>
        <time>1970-01-01T01:20:31.000Z</time>
      </trkpt>
      <trkpt lat="42.335808" lon="1.909711">
        <ele>2013.4</ele>
        <time>1970-01-01T01:20:32.000Z</time>
      </trkpt>
      <trkpt lat="42.3358" lon="1.909728">
        <ele>2013.6</ele>
        <time>1970-01-01T01:20:33.000Z</time>
      </trkpt>
      <trkpt lat="42.335793" lon="1.909748">
        <ele>2013.9</ele>
        <time>1970-01-01T01:20:34.000Z</time>
      </trkpt>
      <trkpt lat="42.335789" lon="1.909766">
        <ele>2014.2</ele>
        <time>1970-01-01T01:20:35.000Z</time>
      </trkpt>
      <trkpt lat="42.335785" lon="1.909785">
        <ele>2014.4</ele>
        <time>1970-01-01T01:20:36.000Z</time>
      </trkpt>
      <trkpt lat="42.335781" lon="1.909803">
        <ele>2014.7</ele>
        <time>1970-01-01T01:20:37.000Z</time>
      </trkpt>
      <trkpt lat="42.335777" lon="1.909824">
        <ele>2014.9</ele>
        <time>1970-01-01T01:20:38.000Z</time>
      </trkpt>
      <trkpt lat="42.335773" lon="1.909837">
        <ele>2015.1</ele>
        <time>1970-01-01T01:20:39.000Z</time>
      </trkpt>
      <trkpt lat="42.335766" lon="1.90986">
        <ele>2015.5</ele>
        <time>1970-01-01T01:20:40.000Z</time>
      </trkpt>
      <trkpt lat="42.335754" lon="1.909878">
        <ele>2015.8</ele>
        <time>1970-01-01T01:20:41.000Z</time>
      </trkpt>
      <trkpt lat="42.335747" lon="1.909898">
        <ele>2016</ele>
        <time>1970-01-01T01:20:42.000Z</time>
      </trkpt>
      <trkpt lat="42.335743" lon="1.909914">
        <ele>2016.3</ele>
        <time>1970-01-01T01:20:43.000Z</time>
      </trkpt>
      <trkpt lat="42.335735" lon="1.909933">
        <ele>2016.5</ele>
        <time>1970-01-01T01:20:44.000Z</time>
      </trkpt>
      <trkpt lat="42.335728" lon="1.909952">
        <ele>2016.8</ele>
        <time>1970-01-01T01:20:45.000Z</time>
      </trkpt>
      <trkpt lat="42.33572" lon="1.90997">
        <ele>2017.1</ele>
        <time>1970-01-01T01:20:46.000Z</time>
      </trkpt>
      <trkpt lat="42.335709" lon="1.909989">
        <ele>2017.4</ele>
        <time>1970-01-01T01:20:47.000Z</time>
      </trkpt>
      <trkpt lat="42.335701" lon="1.910006">
        <ele>2017.6</ele>
        <time>1970-01-01T01:20:48.000Z</time>
      </trkpt>
      <trkpt lat="42.335693" lon="1.910021">
        <ele>2017.9</ele>
        <time>1970-01-01T01:20:49.000Z</time>
      </trkpt>
      <trkpt lat="42.335686" lon="1.910038">
        <ele>2018.1</ele>
        <time>1970-01-01T01:20:50.000Z</time>
      </trkpt>
      <trkpt lat="42.335678" lon="1.910054">
        <ele>2018.4</ele>
        <time>1970-01-01T01:20:51.000Z</time>
      </trkpt>
      <trkpt lat="42.335667" lon="1.910069">
        <ele>2018.6</ele>
        <time>1970-01-01T01:20:52.000Z</time>
      </trkpt>
      <trkpt lat="42.335663" lon="1.910084">
        <ele>2018.8</ele>
        <time>1970-01-01T01:20:53.000Z</time>
      </trkpt>
      <trkpt lat="42.335655" lon="1.910101">
        <ele>2019.1</ele>
        <time>1970-01-01T01:20:54.000Z</time>
      </trkpt>
      <trkpt lat="42.335648" lon="1.910117">
        <ele>2019.3</ele>
        <time>1970-01-01T01:20:55.000Z</time>
      </trkpt>
      <trkpt lat="42.33564" lon="1.910132">
        <ele>2019.6</ele>
        <time>1970-01-01T01:20:56.000Z</time>
      </trkpt>
      <trkpt lat="42.335636" lon="1.910147">
        <ele>2019.8</ele>
        <time>1970-01-01T01:20:57.000Z</time>
      </trkpt>
      <trkpt lat="42.335629" lon="1.910167">
        <ele>2020.1</ele>
        <time>1970-01-01T01:20:58.000Z</time>
      </trkpt>
      <trkpt lat="42.335621" lon="1.910187">
        <ele>2020.4</ele>
        <time>1970-01-01T01:20:59.000Z</time>
      </trkpt>
      <trkpt lat="42.335613" lon="1.910208">
        <ele>2020.7</ele>
        <time>1970-01-01T01:21:00.000Z</time>
      </trkpt>
      <trkpt lat="42.335606" lon="1.910228">
        <ele>2021</ele>
        <time>1970-01-01T01:21:01.000Z</time>
      </trkpt>
      <trkpt lat="42.335602" lon="1.910248">
        <ele>2021.3</ele>
        <time>1970-01-01T01:21:02.000Z</time>
      </trkpt>
      <trkpt lat="42.335594" lon="1.910265">
        <ele>2021.6</ele>
        <time>1970-01-01T01:21:03.000Z</time>
      </trkpt>
      <trkpt lat="42.335587" lon="1.910283">
        <ele>2021.8</ele>
        <time>1970-01-01T01:21:04.000Z</time>
      </trkpt>
      <trkpt lat="42.335583" lon="1.910303">
        <ele>2022.1</ele>
        <time>1970-01-01T01:21:05.000Z</time>
      </trkpt>
      <trkpt lat="42.335579" lon="1.910322">
        <ele>2022.4</ele>
        <time>1970-01-01T01:21:06.000Z</time>
      </trkpt>
      <trkpt lat="42.335575" lon="1.910345">
        <ele>2022.7</ele>
        <time>1970-01-01T01:21:07.000Z</time>
      </trkpt>
      <trkpt lat="42.335567" lon="1.910365">
        <ele>2023</ele>
        <time>1970-01-01T01:21:08.000Z</time>
      </trkpt>
      <trkpt lat="42.335564" lon="1.910386">
        <ele>2023.3</ele>
        <time>1970-01-01T01:21:09.000Z</time>
      </trkpt>
      <trkpt lat="42.33556" lon="1.910406">
        <ele>2023.6</ele>
        <time>1970-01-01T01:21:10.000Z</time>
      </trkpt>
      <trkpt lat="42.335552" lon="1.910434">
        <ele>2024</ele>
        <time>1970-01-01T01:21:11.000Z</time>
      </trkpt>
      <trkpt lat="42.335541" lon="1.910458">
        <ele>2024.4</ele>
        <time>1970-01-01T01:21:12.000Z</time>
      </trkpt>
      <trkpt lat="42.335537" lon="1.910479">
        <ele>2024.7</ele>
        <time>1970-01-01T01:21:13.000Z</time>
      </trkpt>
      <trkpt lat="42.335525" lon="1.910505">
        <ele>2025.1</ele>
        <time>1970-01-01T01:21:14.000Z</time>
      </trkpt>
      <trkpt lat="42.335514" lon="1.910529">
        <ele>2025.5</ele>
        <time>1970-01-01T01:21:15.000Z</time>
      </trkpt>
      <trkpt lat="42.335503" lon="1.910541">
        <ele>2025.8</ele>
        <time>1970-01-01T01:21:16.000Z</time>
      </trkpt>
      <trkpt lat="42.335491" lon="1.910556">
        <ele>2026.1</ele>
        <time>1970-01-01T01:21:17.000Z</time>
      </trkpt>
      <trkpt lat="42.335484" lon="1.910574">
        <ele>2026.3</ele>
        <time>1970-01-01T01:21:18.000Z</time>
      </trkpt>
      <trkpt lat="42.335472" lon="1.910593">
        <ele>2026.7</ele>
        <time>1970-01-01T01:21:19.000Z</time>
      </trkpt>
      <trkpt lat="42.335457" lon="1.910615">
        <ele>2027.1</ele>
        <time>1970-01-01T01:21:20.000Z</time>
      </trkpt>
      <trkpt lat="42.335449" lon="1.910636">
        <ele>2027.4</ele>
        <time>1970-01-01T01:21:21.000Z</time>
      </trkpt>
      <trkpt lat="42.335445" lon="1.910653">
        <ele>2027.6</ele>
        <time>1970-01-01T01:21:22.000Z</time>
      </trkpt>
      <trkpt lat="42.335434" lon="1.910676">
        <ele>2028</ele>
        <time>1970-01-01T01:21:23.000Z</time>
      </trkpt>
      <trkpt lat="42.335434" lon="1.910698">
        <ele>2028.3</ele>
        <time>1970-01-01T01:21:24.000Z</time>
      </trkpt>
      <trkpt lat="42.335434" lon="1.91072">
        <ele>2028.5</ele>
        <time>1970-01-01T01:21:25.000Z</time>
      </trkpt>
      <trkpt lat="42.335442" lon="1.910739">
        <ele>2028.8</ele>
        <time>1970-01-01T01:21:26.000Z</time>
      </trkpt>
      <trkpt lat="42.335449" lon="1.910757">
        <ele>2029.1</ele>
        <time>1970-01-01T01:21:27.000Z</time>
      </trkpt>
      <trkpt lat="42.335453" lon="1.910776">
        <ele>2029.4</ele>
        <time>1970-01-01T01:21:28.000Z</time>
      </trkpt>
      <trkpt lat="42.335457" lon="1.910797">
        <ele>2029.7</ele>
        <time>1970-01-01T01:21:29.000Z</time>
      </trkpt>
      <trkpt lat="42.335464" lon="1.910819">
        <ele>2030</ele>
        <time>1970-01-01T01:21:30.000Z</time>
      </trkpt>
      <trkpt lat="42.335472" lon="1.910839">
        <ele>2030.3</ele>
        <time>1970-01-01T01:21:31.000Z</time>
      </trkpt>
      <trkpt lat="42.335476" lon="1.910854">
        <ele>2030.5</ele>
        <time>1970-01-01T01:21:32.000Z</time>
      </trkpt>
      <trkpt lat="42.335484" lon="1.910875">
        <ele>2030.8</ele>
        <time>1970-01-01T01:21:33.000Z</time>
      </trkpt>
      <trkpt lat="42.335484" lon="1.910893">
        <ele>2031</ele>
        <time>1970-01-01T01:21:34.000Z</time>
      </trkpt>
      <trkpt lat="42.335476" lon="1.910905">
        <ele>2031.2</ele>
        <time>1970-01-01T01:21:35.000Z</time>
      </trkpt>
      <trkpt lat="42.335464" lon="1.910915">
        <ele>2031.5</ele>
        <time>1970-01-01T01:21:36.000Z</time>
      </trkpt>
      <trkpt lat="42.335453" lon="1.910924">
        <ele>2031.7</ele>
        <time>1970-01-01T01:21:37.000Z</time>
      </trkpt>
      <trkpt lat="42.335442" lon="1.910938">
        <ele>2031.9</ele>
        <time>1970-01-01T01:21:38.000Z</time>
      </trkpt>
      <trkpt lat="42.335438" lon="1.910954">
        <ele>2032.2</ele>
        <time>1970-01-01T01:21:39.000Z</time>
      </trkpt>
      <trkpt lat="42.33543" lon="1.910967">
        <ele>2032.4</ele>
        <time>1970-01-01T01:21:40.000Z</time>
      </trkpt>
      <trkpt lat="42.335426" lon="1.910981">
        <ele>2032.6</ele>
        <time>1970-01-01T01:21:41.000Z</time>
      </trkpt>
      <trkpt lat="42.335426" lon="1.911001">
        <ele>2032.8</ele>
        <time>1970-01-01T01:21:42.000Z</time>
      </trkpt>
      <trkpt lat="42.335422" lon="1.911021">
        <ele>2033.1</ele>
        <time>1970-01-01T01:21:43.000Z</time>
      </trkpt>
      <trkpt lat="42.335422" lon="1.911037">
        <ele>2033.2</ele>
        <time>1970-01-01T01:21:44.000Z</time>
      </trkpt>
      <trkpt lat="42.335422" lon="1.911056">
        <ele>2033.5</ele>
        <time>1970-01-01T01:21:45.000Z</time>
      </trkpt>
      <trkpt lat="42.335422" lon="1.911077">
        <ele>2033.7</ele>
        <time>1970-01-01T01:21:46.000Z</time>
      </trkpt>
      <trkpt lat="42.335415" lon="1.911095">
        <ele>2034</ele>
        <time>1970-01-01T01:21:47.000Z</time>
      </trkpt>
      <trkpt lat="42.335415" lon="1.911113">
        <ele>2034.2</ele>
        <time>1970-01-01T01:21:48.000Z</time>
      </trkpt>
      <trkpt lat="42.335403" lon="1.911131">
        <ele>2034.5</ele>
        <time>1970-01-01T01:21:49.000Z</time>
      </trkpt>
      <trkpt lat="42.3354" lon="1.911149">
        <ele>2034.7</ele>
        <time>1970-01-01T01:21:50.000Z</time>
      </trkpt>
      <trkpt lat="42.3354" lon="1.911166">
        <ele>2034.9</ele>
        <time>1970-01-01T01:21:51.000Z</time>
      </trkpt>
      <trkpt lat="42.335396" lon="1.911183">
        <ele>2035.1</ele>
        <time>1970-01-01T01:21:52.000Z</time>
      </trkpt>
      <trkpt lat="42.335388" lon="1.9112">
        <ele>2035.4</ele>
        <time>1970-01-01T01:21:53.000Z</time>
      </trkpt>
      <trkpt lat="42.335377" lon="1.911216">
        <ele>2035.6</ele>
        <time>1970-01-01T01:21:54.000Z</time>
      </trkpt>
      <trkpt lat="42.335369" lon="1.911234">
        <ele>2035.9</ele>
        <time>1970-01-01T01:21:55.000Z</time>
      </trkpt>
      <trkpt lat="42.335365" lon="1.911251">
        <ele>2036.1</ele>
        <time>1970-01-01T01:21:56.000Z</time>
      </trkpt>
      <trkpt lat="42.335354" lon="1.911274">
        <ele>2036.4</ele>
        <time>1970-01-01T01:21:57.000Z</time>
      </trkpt>
      <trkpt lat="42.335346" lon="1.911294">
        <ele>2036.7</ele>
        <time>1970-01-01T01:21:58.000Z</time>
      </trkpt>
      <trkpt lat="42.335335" lon="1.911313">
        <ele>2036.9</ele>
        <time>1970-01-01T01:21:59.000Z</time>
      </trkpt>
      <trkpt lat="42.335323" lon="1.911328">
        <ele>2037.2</ele>
        <time>1970-01-01T01:22:00.000Z</time>
      </trkpt>
      <trkpt lat="42.335316" lon="1.91134">
        <ele>2037.4</ele>
        <time>1970-01-01T01:22:01.000Z</time>
      </trkpt>
      <trkpt lat="42.335312" lon="1.911353">
        <ele>2037.5</ele>
        <time>1970-01-01T01:22:02.000Z</time>
      </trkpt>
      <trkpt lat="42.335304" lon="1.911367">
        <ele>2037.7</ele>
        <time>1970-01-01T01:22:03.000Z</time>
      </trkpt>
      <trkpt lat="42.335297" lon="1.911383">
        <ele>2038</ele>
        <time>1970-01-01T01:22:04.000Z</time>
      </trkpt>
      <trkpt lat="42.335297" lon="1.911401">
        <ele>2038.2</ele>
        <time>1970-01-01T01:22:05.000Z</time>
      </trkpt>
      <trkpt lat="42.335293" lon="1.911421">
        <ele>2038.4</ele>
        <time>1970-01-01T01:22:06.000Z</time>
      </trkpt>
      <trkpt lat="42.335293" lon="1.911439">
        <ele>2038.6</ele>
        <time>1970-01-01T01:22:07.000Z</time>
      </trkpt>
      <trkpt lat="42.335297" lon="1.911452">
        <ele>2038.8</ele>
        <time>1970-01-01T01:22:08.000Z</time>
      </trkpt>
      <trkpt lat="42.335297" lon="1.911464">
        <ele>2038.9</ele>
        <time>1970-01-01T01:22:09.000Z</time>
      </trkpt>
      <trkpt lat="42.335297" lon="1.911475">
        <ele>2039.1</ele>
        <time>1970-01-01T01:22:10.000Z</time>
      </trkpt>
      <trkpt lat="42.335297" lon="1.91149">
        <ele>2039.2</ele>
        <time>1970-01-01T01:22:11.000Z</time>
      </trkpt>
      <trkpt lat="42.335297" lon="1.911508">
        <ele>2039.4</ele>
        <time>1970-01-01T01:22:12.000Z</time>
      </trkpt>
      <trkpt lat="42.335293" lon="1.911526">
        <ele>2039.7</ele>
        <time>1970-01-01T01:22:13.000Z</time>
      </trkpt>
      <trkpt lat="42.335289" lon="1.911544">
        <ele>2039.9</ele>
        <time>1970-01-01T01:22:14.000Z</time>
      </trkpt>
      <trkpt lat="42.335289" lon="1.911561">
        <ele>2040.1</ele>
        <time>1970-01-01T01:22:15.000Z</time>
      </trkpt>
      <trkpt lat="42.335289" lon="1.911581">
        <ele>2040.3</ele>
        <time>1970-01-01T01:22:16.000Z</time>
      </trkpt>
      <trkpt lat="42.335289" lon="1.911598">
        <ele>2040.5</ele>
        <time>1970-01-01T01:22:17.000Z</time>
      </trkpt>
      <trkpt lat="42.335289" lon="1.911612">
        <ele>2040.7</ele>
        <time>1970-01-01T01:22:18.000Z</time>
      </trkpt>
      <trkpt lat="42.335289" lon="1.911626">
        <ele>2040.9</ele>
        <time>1970-01-01T01:22:19.000Z</time>
      </trkpt>
      <trkpt lat="42.335285" lon="1.91164">
        <ele>2041</ele>
        <time>1970-01-01T01:22:20.000Z</time>
      </trkpt>
      <trkpt lat="42.335285" lon="1.911653">
        <ele>2041.2</ele>
        <time>1970-01-01T01:22:21.000Z</time>
      </trkpt>
      <trkpt lat="42.335281" lon="1.911665">
        <ele>2041.4</ele>
        <time>1970-01-01T01:22:22.000Z</time>
      </trkpt>
      <trkpt lat="42.335278" lon="1.91168">
        <ele>2041.5</ele>
        <time>1970-01-01T01:22:23.000Z</time>
      </trkpt>
      <trkpt lat="42.335278" lon="1.911693">
        <ele>2041.7</ele>
        <time>1970-01-01T01:22:24.000Z</time>
      </trkpt>
      <trkpt lat="42.335274" lon="1.911705">
        <ele>2041.9</ele>
        <time>1970-01-01T01:22:25.000Z</time>
      </trkpt>
      <trkpt lat="42.33527" lon="1.911718">
        <ele>2042</ele>
        <time>1970-01-01T01:22:26.000Z</time>
      </trkpt>
      <trkpt lat="42.335266" lon="1.911735">
        <ele>2042.3</ele>
        <time>1970-01-01T01:22:27.000Z</time>
      </trkpt>
      <trkpt lat="42.33527" lon="1.911754">
        <ele>2042.5</ele>
        <time>1970-01-01T01:22:28.000Z</time>
      </trkpt>
      <trkpt lat="42.335278" lon="1.91177">
        <ele>2042.7</ele>
        <time>1970-01-01T01:22:29.000Z</time>
      </trkpt>
      <trkpt lat="42.335285" lon="1.911785">
        <ele>2042.9</ele>
        <time>1970-01-01T01:22:30.000Z</time>
      </trkpt>
      <trkpt lat="42.335293" lon="1.911805">
        <ele>2043.2</ele>
        <time>1970-01-01T01:22:31.000Z</time>
      </trkpt>
      <trkpt lat="42.3353" lon="1.911829">
        <ele>2043.5</ele>
        <time>1970-01-01T01:22:32.000Z</time>
      </trkpt>
      <trkpt lat="42.3353" lon="1.911849">
        <ele>2043.8</ele>
        <time>1970-01-01T01:22:33.000Z</time>
      </trkpt>
      <trkpt lat="42.335297" lon="1.911868">
        <ele>2044</ele>
        <time>1970-01-01T01:22:34.000Z</time>
      </trkpt>
      <trkpt lat="42.335293" lon="1.911889">
        <ele>2044.3</ele>
        <time>1970-01-01T01:22:35.000Z</time>
      </trkpt>
      <trkpt lat="42.335289" lon="1.911908">
        <ele>2044.5</ele>
        <time>1970-01-01T01:22:36.000Z</time>
      </trkpt>
      <trkpt lat="42.335281" lon="1.911929">
        <ele>2044.8</ele>
        <time>1970-01-01T01:22:37.000Z</time>
      </trkpt>
      <trkpt lat="42.335274" lon="1.911952">
        <ele>2045.1</ele>
        <time>1970-01-01T01:22:38.000Z</time>
      </trkpt>
      <trkpt lat="42.33527" lon="1.911969">
        <ele>2045.3</ele>
        <time>1970-01-01T01:22:39.000Z</time>
      </trkpt>
      <trkpt lat="42.335266" lon="1.911988">
        <ele>2045.5</ele>
        <time>1970-01-01T01:22:40.000Z</time>
      </trkpt>
      <trkpt lat="42.335258" lon="1.912007">
        <ele>2045.8</ele>
        <time>1970-01-01T01:22:41.000Z</time>
      </trkpt>
      <trkpt lat="42.335251" lon="1.912026">
        <ele>2046</ele>
        <time>1970-01-01T01:22:42.000Z</time>
      </trkpt>
      <trkpt lat="42.335243" lon="1.912045">
        <ele>2046.3</ele>
        <time>1970-01-01T01:22:43.000Z</time>
      </trkpt>
      <trkpt lat="42.335239" lon="1.912063">
        <ele>2046.5</ele>
        <time>1970-01-01T01:22:44.000Z</time>
      </trkpt>
      <trkpt lat="42.335232" lon="1.912082">
        <ele>2046.7</ele>
        <time>1970-01-01T01:22:45.000Z</time>
      </trkpt>
      <trkpt lat="42.335224" lon="1.912101">
        <ele>2047</ele>
        <time>1970-01-01T01:22:46.000Z</time>
      </trkpt>
      <trkpt lat="42.335217" lon="1.912118">
        <ele>2047.2</ele>
        <time>1970-01-01T01:22:47.000Z</time>
      </trkpt>
      <trkpt lat="42.335209" lon="1.912135">
        <ele>2047.4</ele>
        <time>1970-01-01T01:22:48.000Z</time>
      </trkpt>
      <trkpt lat="42.335201" lon="1.912153">
        <ele>2047.7</ele>
        <time>1970-01-01T01:22:49.000Z</time>
      </trkpt>
      <trkpt lat="42.335194" lon="1.91217">
        <ele>2047.9</ele>
        <time>1970-01-01T01:22:50.000Z</time>
      </trkpt>
      <trkpt lat="42.335186" lon="1.912186">
        <ele>2048.1</ele>
        <time>1970-01-01T01:22:51.000Z</time>
      </trkpt>
      <trkpt lat="42.335178" lon="1.912203">
        <ele>2048.4</ele>
        <time>1970-01-01T01:22:52.000Z</time>
      </trkpt>
      <trkpt lat="42.335171" lon="1.912218">
        <ele>2048.6</ele>
        <time>1970-01-01T01:22:53.000Z</time>
      </trkpt>
      <trkpt lat="42.335159" lon="1.912235">
        <ele>2048.9</ele>
        <time>1970-01-01T01:22:54.000Z</time>
      </trkpt>
      <trkpt lat="42.335152" lon="1.91225">
        <ele>2049.1</ele>
        <time>1970-01-01T01:22:55.000Z</time>
      </trkpt>
      <trkpt lat="42.335144" lon="1.912268">
        <ele>2049.4</ele>
        <time>1970-01-01T01:22:56.000Z</time>
      </trkpt>
      <trkpt lat="42.33514" lon="1.912287">
        <ele>2049.6</ele>
        <time>1970-01-01T01:22:57.000Z</time>
      </trkpt>
      <trkpt lat="42.335133" lon="1.912304">
        <ele>2049.8</ele>
        <time>1970-01-01T01:22:58.000Z</time>
      </trkpt>
      <trkpt lat="42.335121" lon="1.91232">
        <ele>2050.1</ele>
        <time>1970-01-01T01:22:59.000Z</time>
      </trkpt>
      <trkpt lat="42.33511" lon="1.912333">
        <ele>2050.3</ele>
        <time>1970-01-01T01:23:00.000Z</time>
      </trkpt>
      <trkpt lat="42.335098" lon="1.912347">
        <ele>2050.6</ele>
        <time>1970-01-01T01:23:01.000Z</time>
      </trkpt>
      <trkpt lat="42.335087" lon="1.91236">
        <ele>2050.8</ele>
        <time>1970-01-01T01:23:02.000Z</time>
      </trkpt>
      <trkpt lat="42.335072" lon="1.912376">
        <ele>2051.1</ele>
        <time>1970-01-01T01:23:03.000Z</time>
      </trkpt>
      <trkpt lat="42.33506" lon="1.912389">
        <ele>2051.4</ele>
        <time>1970-01-01T01:23:04.000Z</time>
      </trkpt>
      <trkpt lat="42.335049" lon="1.9124">
        <ele>2051.6</ele>
        <time>1970-01-01T01:23:05.000Z</time>
      </trkpt>
      <trkpt lat="42.335037" lon="1.912412">
        <ele>2051.8</ele>
        <time>1970-01-01T01:23:06.000Z</time>
      </trkpt>
      <trkpt lat="42.335026" lon="1.912427">
        <ele>2052.1</ele>
        <time>1970-01-01T01:23:07.000Z</time>
      </trkpt>
      <trkpt lat="42.335018" lon="1.912443">
        <ele>2052.3</ele>
        <time>1970-01-01T01:23:08.000Z</time>
      </trkpt>
      <trkpt lat="42.335007" lon="1.912459">
        <ele>2052.6</ele>
        <time>1970-01-01T01:23:09.000Z</time>
      </trkpt>
      <trkpt lat="42.334995" lon="1.912473">
        <ele>2052.8</ele>
        <time>1970-01-01T01:23:10.000Z</time>
      </trkpt>
      <trkpt lat="42.334984" lon="1.912484">
        <ele>2053.1</ele>
        <time>1970-01-01T01:23:11.000Z</time>
      </trkpt>
      <trkpt lat="42.334969" lon="1.912495">
        <ele>2053.3</ele>
        <time>1970-01-01T01:23:12.000Z</time>
      </trkpt>
      <trkpt lat="42.334957" lon="1.912508">
        <ele>2053.6</ele>
        <time>1970-01-01T01:23:13.000Z</time>
      </trkpt>
      <trkpt lat="42.334946" lon="1.91252">
        <ele>2053.8</ele>
        <time>1970-01-01T01:23:14.000Z</time>
      </trkpt>
      <trkpt lat="42.33493" lon="1.91253">
        <ele>2054.1</ele>
        <time>1970-01-01T01:23:15.000Z</time>
      </trkpt>
      <trkpt lat="42.334919" lon="1.912542">
        <ele>2054.3</ele>
        <time>1970-01-01T01:23:16.000Z</time>
      </trkpt>
      <trkpt lat="42.334908" lon="1.912552">
        <ele>2054.6</ele>
        <time>1970-01-01T01:23:17.000Z</time>
      </trkpt>
      <trkpt lat="42.334896" lon="1.912566">
        <ele>2054.8</ele>
        <time>1970-01-01T01:23:18.000Z</time>
      </trkpt>
      <trkpt lat="42.334888" lon="1.912575">
        <ele>2055</ele>
        <time>1970-01-01T01:23:19.000Z</time>
      </trkpt>
      <trkpt lat="42.334873" lon="1.912581">
        <ele>2055.3</ele>
        <time>1970-01-01T01:23:20.000Z</time>
      </trkpt>
      <trkpt lat="42.334862" lon="1.912582">
        <ele>2055.5</ele>
        <time>1970-01-01T01:23:21.000Z</time>
      </trkpt>
      <trkpt lat="42.33485" lon="1.912584">
        <ele>2055.7</ele>
        <time>1970-01-01T01:23:22.000Z</time>
      </trkpt>
      <trkpt lat="42.334835" lon="1.912592">
        <ele>2056</ele>
        <time>1970-01-01T01:23:23.000Z</time>
      </trkpt>
      <trkpt lat="42.33482" lon="1.912604">
        <ele>2056.3</ele>
        <time>1970-01-01T01:23:24.000Z</time>
      </trkpt>
      <trkpt lat="42.334808" lon="1.912616">
        <ele>2056.5</ele>
        <time>1970-01-01T01:23:25.000Z</time>
      </trkpt>
      <trkpt lat="42.334797" lon="1.912627">
        <ele>2056.8</ele>
        <time>1970-01-01T01:23:26.000Z</time>
      </trkpt>
      <trkpt lat="42.334785" lon="1.912639">
        <ele>2057</ele>
        <time>1970-01-01T01:23:27.000Z</time>
      </trkpt>
      <trkpt lat="42.334774" lon="1.912649">
        <ele>2057.3</ele>
        <time>1970-01-01T01:23:28.000Z</time>
      </trkpt>
      <trkpt lat="42.334759" lon="1.912656">
        <ele>2057.5</ele>
        <time>1970-01-01T01:23:29.000Z</time>
      </trkpt>
      <trkpt lat="42.334747" lon="1.912665">
        <ele>2057.8</ele>
        <time>1970-01-01T01:23:30.000Z</time>
      </trkpt>
      <trkpt lat="42.334736" lon="1.912675">
        <ele>2058</ele>
        <time>1970-01-01T01:23:31.000Z</time>
      </trkpt>
      <trkpt lat="42.334724" lon="1.912686">
        <ele>2058.3</ele>
        <time>1970-01-01T01:23:32.000Z</time>
      </trkpt>
      <trkpt lat="42.334713" lon="1.912694">
        <ele>2058.5</ele>
        <time>1970-01-01T01:23:33.000Z</time>
      </trkpt>
      <trkpt lat="42.334702" lon="1.912705">
        <ele>2058.7</ele>
        <time>1970-01-01T01:23:34.000Z</time>
      </trkpt>
      <trkpt lat="42.33469" lon="1.912714">
        <ele>2059</ele>
        <time>1970-01-01T01:23:35.000Z</time>
      </trkpt>
      <trkpt lat="42.334679" lon="1.912724">
        <ele>2059.2</ele>
        <time>1970-01-01T01:23:36.000Z</time>
      </trkpt>
      <trkpt lat="42.334667" lon="1.912734">
        <ele>2059.4</ele>
        <time>1970-01-01T01:23:37.000Z</time>
      </trkpt>
      <trkpt lat="42.334656" lon="1.912747">
        <ele>2059.7</ele>
        <time>1970-01-01T01:23:38.000Z</time>
      </trkpt>
      <trkpt lat="42.334644" lon="1.912759">
        <ele>2059.9</ele>
        <time>1970-01-01T01:23:39.000Z</time>
      </trkpt>
      <trkpt lat="42.334637" lon="1.91277">
        <ele>2060.1</ele>
        <time>1970-01-01T01:23:40.000Z</time>
      </trkpt>
      <trkpt lat="42.334621" lon="1.912779">
        <ele>2060.4</ele>
        <time>1970-01-01T01:23:41.000Z</time>
      </trkpt>
      <trkpt lat="42.33461" lon="1.912787">
        <ele>2060.6</ele>
        <time>1970-01-01T01:23:42.000Z</time>
      </trkpt>
      <trkpt lat="42.334599" lon="1.9128">
        <ele>2060.9</ele>
        <time>1970-01-01T01:23:43.000Z</time>
      </trkpt>
      <trkpt lat="42.334587" lon="1.912812">
        <ele>2061.2</ele>
        <time>1970-01-01T01:23:44.000Z</time>
      </trkpt>
      <trkpt lat="42.334579" lon="1.912828">
        <ele>2061.4</ele>
        <time>1970-01-01T01:23:45.000Z</time>
      </trkpt>
      <trkpt lat="42.334568" lon="1.912837">
        <ele>2061.6</ele>
        <time>1970-01-01T01:23:46.000Z</time>
      </trkpt>
      <trkpt lat="42.334557" lon="1.912847">
        <ele>2061.9</ele>
        <time>1970-01-01T01:23:47.000Z</time>
      </trkpt>
      <trkpt lat="42.334545" lon="1.912857">
        <ele>2062.1</ele>
        <time>1970-01-01T01:23:48.000Z</time>
      </trkpt>
      <trkpt lat="42.33453" lon="1.912867">
        <ele>2062.4</ele>
        <time>1970-01-01T01:23:49.000Z</time>
      </trkpt>
      <trkpt lat="42.334518" lon="1.912879">
        <ele>2062.7</ele>
        <time>1970-01-01T01:23:50.000Z</time>
      </trkpt>
      <trkpt lat="42.334511" lon="1.91289">
        <ele>2062.8</ele>
        <time>1970-01-01T01:23:51.000Z</time>
      </trkpt>
      <trkpt lat="42.334499" lon="1.912897">
        <ele>2063.1</ele>
        <time>1970-01-01T01:23:52.000Z</time>
      </trkpt>
      <trkpt lat="42.334488" lon="1.912901">
        <ele>2063.2</ele>
        <time>1970-01-01T01:23:53.000Z</time>
      </trkpt>
      <trkpt lat="42.334477" lon="1.912906">
        <ele>2063.4</ele>
        <time>1970-01-01T01:23:54.000Z</time>
      </trkpt>
      <trkpt lat="42.334469" lon="1.912915">
        <ele>2063.6</ele>
        <time>1970-01-01T01:23:55.000Z</time>
      </trkpt>
      <trkpt lat="42.334457" lon="1.912928">
        <ele>2063.8</ele>
        <time>1970-01-01T01:23:56.000Z</time>
      </trkpt>
      <trkpt lat="42.334446" lon="1.912937">
        <ele>2064</ele>
        <time>1970-01-01T01:23:57.000Z</time>
      </trkpt>
      <trkpt lat="42.334435" lon="1.912944">
        <ele>2064.2</ele>
        <time>1970-01-01T01:23:58.000Z</time>
      </trkpt>
      <trkpt lat="42.334423" lon="1.912951">
        <ele>2064.5</ele>
        <time>1970-01-01T01:23:59.000Z</time>
      </trkpt>
      <trkpt lat="42.334404" lon="1.912953">
        <ele>2064.8</ele>
        <time>1970-01-01T01:24:00.000Z</time>
      </trkpt>
      <trkpt lat="42.334393" lon="1.912953">
        <ele>2064.9</ele>
        <time>1970-01-01T01:24:01.000Z</time>
      </trkpt>
      <trkpt lat="42.334373" lon="1.912952">
        <ele>2065.3</ele>
        <time>1970-01-01T01:24:02.000Z</time>
      </trkpt>
      <trkpt lat="42.334362" lon="1.912955">
        <ele>2065.4</ele>
        <time>1970-01-01T01:24:03.000Z</time>
      </trkpt>
      <trkpt lat="42.334351" lon="1.912958">
        <ele>2065.6</ele>
        <time>1970-01-01T01:24:04.000Z</time>
      </trkpt>
      <trkpt lat="42.334335" lon="1.912967">
        <ele>2065.9</ele>
        <time>1970-01-01T01:24:05.000Z</time>
      </trkpt>
      <trkpt lat="42.334328" lon="1.91298">
        <ele>2066.1</ele>
        <time>1970-01-01T01:24:06.000Z</time>
      </trkpt>
      <trkpt lat="42.33432" lon="1.912995">
        <ele>2066.3</ele>
        <time>1970-01-01T01:24:07.000Z</time>
      </trkpt>
      <trkpt lat="42.334312" lon="1.913008">
        <ele>2066.5</ele>
        <time>1970-01-01T01:24:08.000Z</time>
      </trkpt>
      <trkpt lat="42.334301" lon="1.913022">
        <ele>2066.8</ele>
        <time>1970-01-01T01:24:09.000Z</time>
      </trkpt>
      <trkpt lat="42.33429" lon="1.913031">
        <ele>2067</ele>
        <time>1970-01-01T01:24:10.000Z</time>
      </trkpt>
      <trkpt lat="42.334278" lon="1.913035">
        <ele>2067.2</ele>
        <time>1970-01-01T01:24:11.000Z</time>
      </trkpt>
      <trkpt lat="42.334263" lon="1.913035">
        <ele>2067.5</ele>
        <time>1970-01-01T01:24:12.000Z</time>
      </trkpt>
      <trkpt lat="42.334251" lon="1.913039">
        <ele>2067.7</ele>
        <time>1970-01-01T01:24:13.000Z</time>
      </trkpt>
      <trkpt lat="42.33424" lon="1.913049">
        <ele>2067.9</ele>
        <time>1970-01-01T01:24:14.000Z</time>
      </trkpt>
      <trkpt lat="42.334228" lon="1.913057">
        <ele>2068.1</ele>
        <time>1970-01-01T01:24:15.000Z</time>
      </trkpt>
      <trkpt lat="42.334217" lon="1.913065">
        <ele>2068.3</ele>
        <time>1970-01-01T01:24:16.000Z</time>
      </trkpt>
      <trkpt lat="42.334206" lon="1.913074">
        <ele>2068.5</ele>
        <time>1970-01-01T01:24:17.000Z</time>
      </trkpt>
      <trkpt lat="42.334194" lon="1.913082">
        <ele>2068.8</ele>
        <time>1970-01-01T01:24:18.000Z</time>
      </trkpt>
      <trkpt lat="42.334187" lon="1.913096">
        <ele>2069</ele>
        <time>1970-01-01T01:24:19.000Z</time>
      </trkpt>
      <trkpt lat="42.334175" lon="1.913108">
        <ele>2069.2</ele>
        <time>1970-01-01T01:24:20.000Z</time>
      </trkpt>
      <trkpt lat="42.334164" lon="1.913116">
        <ele>2069.4</ele>
        <time>1970-01-01T01:24:21.000Z</time>
      </trkpt>
      <trkpt lat="42.334152" lon="1.913124">
        <ele>2069.7</ele>
        <time>1970-01-01T01:24:22.000Z</time>
      </trkpt>
      <trkpt lat="42.334141" lon="1.913132">
        <ele>2069.9</ele>
        <time>1970-01-01T01:24:23.000Z</time>
      </trkpt>
      <trkpt lat="42.334126" lon="1.913141">
        <ele>2070.2</ele>
        <time>1970-01-01T01:24:24.000Z</time>
      </trkpt>
      <trkpt lat="42.334114" lon="1.91315">
        <ele>2070.4</ele>
        <time>1970-01-01T01:24:25.000Z</time>
      </trkpt>
      <trkpt lat="42.334103" lon="1.913159">
        <ele>2070.6</ele>
        <time>1970-01-01T01:24:26.000Z</time>
      </trkpt>
      <trkpt lat="42.334091" lon="1.913167">
        <ele>2070.9</ele>
        <time>1970-01-01T01:24:27.000Z</time>
      </trkpt>
      <trkpt lat="42.334076" lon="1.913178">
        <ele>2071.2</ele>
        <time>1970-01-01T01:24:28.000Z</time>
      </trkpt>
      <trkpt lat="42.334061" lon="1.91319">
        <ele>2071.5</ele>
        <time>1970-01-01T01:24:29.000Z</time>
      </trkpt>
      <trkpt lat="42.334045" lon="1.913199">
        <ele>2071.8</ele>
        <time>1970-01-01T01:24:30.000Z</time>
      </trkpt>
      <trkpt lat="42.334038" lon="1.913204">
        <ele>2071.9</ele>
        <time>1970-01-01T01:24:31.000Z</time>
      </trkpt>
      <trkpt lat="42.334023" lon="1.913211">
        <ele>2072.2</ele>
        <time>1970-01-01T01:24:32.000Z</time>
      </trkpt>
      <trkpt lat="42.334007" lon="1.913217">
        <ele>2072.6</ele>
        <time>1970-01-01T01:24:33.000Z</time>
      </trkpt>
      <trkpt lat="42.333992" lon="1.913227">
        <ele>2072.9</ele>
        <time>1970-01-01T01:24:34.000Z</time>
      </trkpt>
      <trkpt lat="42.333981" lon="1.913233">
        <ele>2073.1</ele>
        <time>1970-01-01T01:24:35.000Z</time>
      </trkpt>
      <trkpt lat="42.333965" lon="1.913239">
        <ele>2073.4</ele>
        <time>1970-01-01T01:24:36.000Z</time>
      </trkpt>
      <trkpt lat="42.33395" lon="1.913246">
        <ele>2073.7</ele>
        <time>1970-01-01T01:24:37.000Z</time>
      </trkpt>
      <trkpt lat="42.333935" lon="1.913252">
        <ele>2074</ele>
        <time>1970-01-01T01:24:38.000Z</time>
      </trkpt>
      <trkpt lat="42.33392" lon="1.913256">
        <ele>2074.3</ele>
        <time>1970-01-01T01:24:39.000Z</time>
      </trkpt>
      <trkpt lat="42.3339" lon="1.913258">
        <ele>2074.7</ele>
        <time>1970-01-01T01:24:40.000Z</time>
      </trkpt>
      <trkpt lat="42.333885" lon="1.913261">
        <ele>2075</ele>
        <time>1970-01-01T01:24:41.000Z</time>
      </trkpt>
      <trkpt lat="42.333874" lon="1.913265">
        <ele>2075.3</ele>
        <time>1970-01-01T01:24:42.000Z</time>
      </trkpt>
      <trkpt lat="42.333859" lon="1.913269">
        <ele>2075.6</ele>
        <time>1970-01-01T01:24:43.000Z</time>
      </trkpt>
      <trkpt lat="42.333843" lon="1.913274">
        <ele>2075.9</ele>
        <time>1970-01-01T01:24:44.000Z</time>
      </trkpt>
      <trkpt lat="42.333828" lon="1.913276">
        <ele>2076.2</ele>
        <time>1970-01-01T01:24:45.000Z</time>
      </trkpt>
      <trkpt lat="42.333813" lon="1.913277">
        <ele>2076.5</ele>
        <time>1970-01-01T01:24:46.000Z</time>
      </trkpt>
      <trkpt lat="42.333801" lon="1.913275">
        <ele>2076.7</ele>
        <time>1970-01-01T01:24:47.000Z</time>
      </trkpt>
      <trkpt lat="42.333782" lon="1.913276">
        <ele>2077.1</ele>
        <time>1970-01-01T01:24:48.000Z</time>
      </trkpt>
      <trkpt lat="42.333767" lon="1.913277">
        <ele>2077.4</ele>
        <time>1970-01-01T01:24:49.000Z</time>
      </trkpt>
      <trkpt lat="42.333752" lon="1.913278">
        <ele>2077.6</ele>
        <time>1970-01-01T01:24:50.000Z</time>
      </trkpt>
      <trkpt lat="42.333733" lon="1.913277">
        <ele>2078</ele>
        <time>1970-01-01T01:24:51.000Z</time>
      </trkpt>
      <trkpt lat="42.333713" lon="1.913278">
        <ele>2078.4</ele>
        <time>1970-01-01T01:24:52.000Z</time>
      </trkpt>
      <trkpt lat="42.333702" lon="1.913274">
        <ele>2078.6</ele>
        <time>1970-01-01T01:24:53.000Z</time>
      </trkpt>
      <trkpt lat="42.333683" lon="1.913275">
        <ele>2078.9</ele>
        <time>1970-01-01T01:24:54.000Z</time>
      </trkpt>
      <trkpt lat="42.333668" lon="1.913275">
        <ele>2079.2</ele>
        <time>1970-01-01T01:24:55.000Z</time>
      </trkpt>
      <trkpt lat="42.333652" lon="1.913274">
        <ele>2079.5</ele>
        <time>1970-01-01T01:24:56.000Z</time>
      </trkpt>
      <trkpt lat="42.333637" lon="1.913267">
        <ele>2079.8</ele>
        <time>1970-01-01T01:24:57.000Z</time>
      </trkpt>
      <trkpt lat="42.333626" lon="1.913262">
        <ele>2080</ele>
        <time>1970-01-01T01:24:58.000Z</time>
      </trkpt>
      <trkpt lat="42.333611" lon="1.913257">
        <ele>2080.3</ele>
        <time>1970-01-01T01:24:59.000Z</time>
      </trkpt>
      <trkpt lat="42.333595" lon="1.913252">
        <ele>2080.6</ele>
        <time>1970-01-01T01:25:00.000Z</time>
      </trkpt>
      <trkpt lat="42.33358" lon="1.913252">
        <ele>2080.9</ele>
        <time>1970-01-01T01:25:01.000Z</time>
      </trkpt>
      <trkpt lat="42.333561" lon="1.91325">
        <ele>2081.3</ele>
        <time>1970-01-01T01:25:02.000Z</time>
      </trkpt>
      <trkpt lat="42.333549" lon="1.913246">
        <ele>2081.5</ele>
        <time>1970-01-01T01:25:03.000Z</time>
      </trkpt>
      <trkpt lat="42.333534" lon="1.913241">
        <ele>2081.8</ele>
        <time>1970-01-01T01:25:04.000Z</time>
      </trkpt>
      <trkpt lat="42.333519" lon="1.913236">
        <ele>2082.1</ele>
        <time>1970-01-01T01:25:05.000Z</time>
      </trkpt>
      <trkpt lat="42.333508" lon="1.913232">
        <ele>2082.3</ele>
        <time>1970-01-01T01:25:06.000Z</time>
      </trkpt>
      <trkpt lat="42.333496" lon="1.91323">
        <ele>2082.6</ele>
        <time>1970-01-01T01:25:07.000Z</time>
      </trkpt>
      <trkpt lat="42.333485" lon="1.91323">
        <ele>2082.8</ele>
        <time>1970-01-01T01:25:08.000Z</time>
      </trkpt>
      <trkpt lat="42.333477" lon="1.913229">
        <ele>2082.9</ele>
        <time>1970-01-01T01:25:09.000Z</time>
      </trkpt>
      <trkpt lat="42.333462" lon="1.913227">
        <ele>2083.2</ele>
        <time>1970-01-01T01:25:10.000Z</time>
      </trkpt>
      <trkpt lat="42.33345" lon="1.913225">
        <ele>2083.5</ele>
        <time>1970-01-01T01:25:11.000Z</time>
      </trkpt>
      <trkpt lat="42.333439" lon="1.913222">
        <ele>2083.7</ele>
        <time>1970-01-01T01:25:12.000Z</time>
      </trkpt>
      <trkpt lat="42.333424" lon="1.913219">
        <ele>2084</ele>
        <time>1970-01-01T01:25:13.000Z</time>
      </trkpt>
      <trkpt lat="42.333416" lon="1.913221">
        <ele>2084.1</ele>
        <time>1970-01-01T01:25:14.000Z</time>
      </trkpt>
      <trkpt lat="42.333405" lon="1.913223">
        <ele>2084.4</ele>
        <time>1970-01-01T01:25:15.000Z</time>
      </trkpt>
      <trkpt lat="42.333393" lon="1.913221">
        <ele>2084.6</ele>
        <time>1970-01-01T01:25:16.000Z</time>
      </trkpt>
      <trkpt lat="42.333382" lon="1.913216">
        <ele>2084.8</ele>
        <time>1970-01-01T01:25:17.000Z</time>
      </trkpt>
      <trkpt lat="42.33337" lon="1.913212">
        <ele>2085.1</ele>
        <time>1970-01-01T01:25:18.000Z</time>
      </trkpt>
      <trkpt lat="42.333359" lon="1.913209">
        <ele>2085.3</ele>
        <time>1970-01-01T01:25:19.000Z</time>
      </trkpt>
      <trkpt lat="42.333347" lon="1.913204">
        <ele>2085.6</ele>
        <time>1970-01-01T01:25:20.000Z</time>
      </trkpt>
      <trkpt lat="42.333332" lon="1.9132">
        <ele>2085.9</ele>
        <time>1970-01-01T01:25:21.000Z</time>
      </trkpt>
      <trkpt lat="42.333317" lon="1.913197">
        <ele>2086.2</ele>
        <time>1970-01-01T01:25:22.000Z</time>
      </trkpt>
      <trkpt lat="42.333305" lon="1.913192">
        <ele>2086.5</ele>
        <time>1970-01-01T01:25:23.000Z</time>
      </trkpt>
      <trkpt lat="42.33329" lon="1.913186">
        <ele>2086.8</ele>
        <time>1970-01-01T01:25:24.000Z</time>
      </trkpt>
      <trkpt lat="42.333283" lon="1.913184">
        <ele>2086.9</ele>
        <time>1970-01-01T01:25:25.000Z</time>
      </trkpt>
      <trkpt lat="42.333267" lon="1.913182">
        <ele>2087.3</ele>
        <time>1970-01-01T01:25:26.000Z</time>
      </trkpt>
      <trkpt lat="42.333252" lon="1.913177">
        <ele>2087.6</ele>
        <time>1970-01-01T01:25:27.000Z</time>
      </trkpt>
      <trkpt lat="42.333237" lon="1.913174">
        <ele>2087.9</ele>
        <time>1970-01-01T01:25:28.000Z</time>
      </trkpt>
      <trkpt lat="42.333221" lon="1.913167">
        <ele>2088.3</ele>
        <time>1970-01-01T01:25:29.000Z</time>
      </trkpt>
      <trkpt lat="42.33321" lon="1.913162">
        <ele>2088.5</ele>
        <time>1970-01-01T01:25:30.000Z</time>
      </trkpt>
      <trkpt lat="42.333199" lon="1.913157">
        <ele>2088.8</ele>
        <time>1970-01-01T01:25:31.000Z</time>
      </trkpt>
      <trkpt lat="42.333183" lon="1.913149">
        <ele>2089.2</ele>
        <time>1970-01-01T01:25:32.000Z</time>
      </trkpt>
      <trkpt lat="42.333168" lon="1.913144">
        <ele>2089.5</ele>
        <time>1970-01-01T01:25:33.000Z</time>
      </trkpt>
      <trkpt lat="42.333149" lon="1.91314">
        <ele>2089.9</ele>
        <time>1970-01-01T01:25:34.000Z</time>
      </trkpt>
      <trkpt lat="42.33313" lon="1.913139">
        <ele>2090.3</ele>
        <time>1970-01-01T01:25:35.000Z</time>
      </trkpt>
      <trkpt lat="42.333118" lon="1.913144">
        <ele>2090.6</ele>
        <time>1970-01-01T01:25:36.000Z</time>
      </trkpt>
      <trkpt lat="42.333103" lon="1.913148">
        <ele>2090.9</ele>
        <time>1970-01-01T01:25:37.000Z</time>
      </trkpt>
      <trkpt lat="42.333088" lon="1.913147">
        <ele>2091.2</ele>
        <time>1970-01-01T01:25:38.000Z</time>
      </trkpt>
      <trkpt lat="42.333073" lon="1.913144">
        <ele>2091.6</ele>
        <time>1970-01-01T01:25:39.000Z</time>
      </trkpt>
      <trkpt lat="42.333061" lon="1.913141">
        <ele>2091.8</ele>
        <time>1970-01-01T01:25:40.000Z</time>
      </trkpt>
      <trkpt lat="42.333046" lon="1.913133">
        <ele>2092.1</ele>
        <time>1970-01-01T01:25:41.000Z</time>
      </trkpt>
      <trkpt lat="42.333031" lon="1.91312">
        <ele>2092.5</ele>
        <time>1970-01-01T01:25:42.000Z</time>
      </trkpt>
      <trkpt lat="42.333019" lon="1.913099">
        <ele>2092.9</ele>
        <time>1970-01-01T01:25:43.000Z</time>
      </trkpt>
      <trkpt lat="42.333015" lon="1.913076">
        <ele>2093.2</ele>
        <time>1970-01-01T01:25:44.000Z</time>
      </trkpt>
      <trkpt lat="42.333008" lon="1.913054">
        <ele>2093.6</ele>
        <time>1970-01-01T01:25:45.000Z</time>
      </trkpt>
      <trkpt lat="42.332996" lon="1.913034">
        <ele>2094</ele>
        <time>1970-01-01T01:25:46.000Z</time>
      </trkpt>
      <trkpt lat="42.332985" lon="1.913023">
        <ele>2094.2</ele>
        <time>1970-01-01T01:25:47.000Z</time>
      </trkpt>
      <trkpt lat="42.33297" lon="1.913017">
        <ele>2094.5</ele>
        <time>1970-01-01T01:25:48.000Z</time>
      </trkpt>
      <trkpt lat="42.332954" lon="1.913014">
        <ele>2094.8</ele>
        <time>1970-01-01T01:25:49.000Z</time>
      </trkpt>
      <trkpt lat="42.332943" lon="1.913006">
        <ele>2095.1</ele>
        <time>1970-01-01T01:25:50.000Z</time>
      </trkpt>
      <trkpt lat="42.332932" lon="1.912996">
        <ele>2095.3</ele>
        <time>1970-01-01T01:25:51.000Z</time>
      </trkpt>
      <trkpt lat="42.33292" lon="1.912985">
        <ele>2095.6</ele>
        <time>1970-01-01T01:25:52.000Z</time>
      </trkpt>
      <trkpt lat="42.332909" lon="1.91297">
        <ele>2095.9</ele>
        <time>1970-01-01T01:25:53.000Z</time>
      </trkpt>
      <trkpt lat="42.332901" lon="1.912954">
        <ele>2096.2</ele>
        <time>1970-01-01T01:25:54.000Z</time>
      </trkpt>
      <trkpt lat="42.332893" lon="1.912937">
        <ele>2096.5</ele>
        <time>1970-01-01T01:25:55.000Z</time>
      </trkpt>
      <trkpt lat="42.332882" lon="1.91292">
        <ele>2096.8</ele>
        <time>1970-01-01T01:25:56.000Z</time>
      </trkpt>
      <trkpt lat="42.33287" lon="1.912908">
        <ele>2097.1</ele>
        <time>1970-01-01T01:25:57.000Z</time>
      </trkpt>
      <trkpt lat="42.332859" lon="1.912899">
        <ele>2097.4</ele>
        <time>1970-01-01T01:25:58.000Z</time>
      </trkpt>
      <trkpt lat="42.332844" lon="1.91289">
        <ele>2097.7</ele>
        <time>1970-01-01T01:25:59.000Z</time>
      </trkpt>
      <trkpt lat="42.332832" lon="1.912879">
        <ele>2098</ele>
        <time>1970-01-01T01:26:00.000Z</time>
      </trkpt>
      <trkpt lat="42.332817" lon="1.912868">
        <ele>2098.3</ele>
        <time>1970-01-01T01:26:01.000Z</time>
      </trkpt>
      <trkpt lat="42.332806" lon="1.912855">
        <ele>2098.6</ele>
        <time>1970-01-01T01:26:02.000Z</time>
      </trkpt>
      <trkpt lat="42.332794" lon="1.912843">
        <ele>2098.9</ele>
        <time>1970-01-01T01:26:03.000Z</time>
      </trkpt>
      <trkpt lat="42.332783" lon="1.912833">
        <ele>2099.2</ele>
        <time>1970-01-01T01:26:04.000Z</time>
      </trkpt>
      <trkpt lat="42.332768" lon="1.912821">
        <ele>2099.5</ele>
        <time>1970-01-01T01:26:05.000Z</time>
      </trkpt>
      <trkpt lat="42.33276" lon="1.91281">
        <ele>2099.7</ele>
        <time>1970-01-01T01:26:06.000Z</time>
      </trkpt>
      <trkpt lat="42.332748" lon="1.912797">
        <ele>2100</ele>
        <time>1970-01-01T01:26:07.000Z</time>
      </trkpt>
      <trkpt lat="42.332737" lon="1.912783">
        <ele>2100.3</ele>
        <time>1970-01-01T01:26:08.000Z</time>
      </trkpt>
      <trkpt lat="42.332726" lon="1.91277">
        <ele>2100.6</ele>
        <time>1970-01-01T01:26:09.000Z</time>
      </trkpt>
      <trkpt lat="42.332714" lon="1.912763">
        <ele>2100.9</ele>
        <time>1970-01-01T01:26:10.000Z</time>
      </trkpt>
      <trkpt lat="42.332703" lon="1.912762">
        <ele>2101.1</ele>
        <time>1970-01-01T01:26:11.000Z</time>
      </trkpt>
      <trkpt lat="42.332687" lon="1.91276">
        <ele>2101.4</ele>
        <time>1970-01-01T01:26:12.000Z</time>
      </trkpt>
      <trkpt lat="42.332672" lon="1.912759">
        <ele>2101.7</ele>
        <time>1970-01-01T01:26:13.000Z</time>
      </trkpt>
      <trkpt lat="42.332657" lon="1.912757">
        <ele>2102</ele>
        <time>1970-01-01T01:26:14.000Z</time>
      </trkpt>
      <trkpt lat="42.332649" lon="1.912753">
        <ele>2102.2</ele>
        <time>1970-01-01T01:26:15.000Z</time>
      </trkpt>
      <trkpt lat="42.332634" lon="1.912743">
        <ele>2102.5</ele>
        <time>1970-01-01T01:26:16.000Z</time>
      </trkpt>
      <trkpt lat="42.332623" lon="1.912736">
        <ele>2102.7</ele>
        <time>1970-01-01T01:26:17.000Z</time>
      </trkpt>
      <trkpt lat="42.332611" lon="1.912729">
        <ele>2103</ele>
        <time>1970-01-01T01:26:18.000Z</time>
      </trkpt>
      <trkpt lat="42.3326" lon="1.912727">
        <ele>2103.2</ele>
        <time>1970-01-01T01:26:19.000Z</time>
      </trkpt>
      <trkpt lat="42.332584" lon="1.912728">
        <ele>2103.5</ele>
        <time>1970-01-01T01:26:20.000Z</time>
      </trkpt>
      <trkpt lat="42.332569" lon="1.912731">
        <ele>2103.8</ele>
        <time>1970-01-01T01:26:21.000Z</time>
      </trkpt>
      <trkpt lat="42.332558" lon="1.912733">
        <ele>2104</ele>
        <time>1970-01-01T01:26:22.000Z</time>
      </trkpt>
      <trkpt lat="42.332546" lon="1.91274">
        <ele>2104.3</ele>
        <time>1970-01-01T01:26:23.000Z</time>
      </trkpt>
      <trkpt lat="42.332539" lon="1.91275">
        <ele>2104.5</ele>
        <time>1970-01-01T01:26:24.000Z</time>
      </trkpt>
      <trkpt lat="42.332523" lon="1.91276">
        <ele>2104.8</ele>
        <time>1970-01-01T01:26:25.000Z</time>
      </trkpt>
      <trkpt lat="42.332512" lon="1.912765">
        <ele>2105</ele>
        <time>1970-01-01T01:26:26.000Z</time>
      </trkpt>
      <trkpt lat="42.3325" lon="1.912765">
        <ele>2105.3</ele>
        <time>1970-01-01T01:26:27.000Z</time>
      </trkpt>
      <trkpt lat="42.332485" lon="1.912764">
        <ele>2105.6</ele>
        <time>1970-01-01T01:26:28.000Z</time>
      </trkpt>
      <trkpt lat="42.332474" lon="1.912763">
        <ele>2105.8</ele>
        <time>1970-01-01T01:26:29.000Z</time>
      </trkpt>
      <trkpt lat="42.332462" lon="1.912766">
        <ele>2106</ele>
        <time>1970-01-01T01:26:30.000Z</time>
      </trkpt>
      <trkpt lat="42.332447" lon="1.912771">
        <ele>2106.3</ele>
        <time>1970-01-01T01:26:31.000Z</time>
      </trkpt>
      <trkpt lat="42.332436" lon="1.912779">
        <ele>2106.6</ele>
        <time>1970-01-01T01:26:32.000Z</time>
      </trkpt>
      <trkpt lat="42.33242" lon="1.912786">
        <ele>2106.9</ele>
        <time>1970-01-01T01:26:33.000Z</time>
      </trkpt>
      <trkpt lat="42.332409" lon="1.912789">
        <ele>2107.1</ele>
        <time>1970-01-01T01:26:34.000Z</time>
      </trkpt>
      <trkpt lat="42.332397" lon="1.912794">
        <ele>2107.4</ele>
        <time>1970-01-01T01:26:35.000Z</time>
      </trkpt>
      <trkpt lat="42.332386" lon="1.912801">
        <ele>2107.6</ele>
        <time>1970-01-01T01:26:36.000Z</time>
      </trkpt>
      <trkpt lat="42.332371" lon="1.912806">
        <ele>2107.9</ele>
        <time>1970-01-01T01:26:37.000Z</time>
      </trkpt>
      <trkpt lat="42.332359" lon="1.912811">
        <ele>2108.1</ele>
        <time>1970-01-01T01:26:38.000Z</time>
      </trkpt>
      <trkpt lat="42.332344" lon="1.912816">
        <ele>2108.4</ele>
        <time>1970-01-01T01:26:39.000Z</time>
      </trkpt>
      <trkpt lat="42.332329" lon="1.912821">
        <ele>2108.7</ele>
        <time>1970-01-01T01:26:40.000Z</time>
      </trkpt>
      <trkpt lat="42.332314" lon="1.912828">
        <ele>2109</ele>
        <time>1970-01-01T01:26:41.000Z</time>
      </trkpt>
      <trkpt lat="42.332302" lon="1.912831">
        <ele>2109.3</ele>
        <time>1970-01-01T01:26:42.000Z</time>
      </trkpt>
      <trkpt lat="42.332287" lon="1.912833">
        <ele>2109.6</ele>
        <time>1970-01-01T01:26:43.000Z</time>
      </trkpt>
      <trkpt lat="42.332272" lon="1.91284">
        <ele>2109.9</ele>
        <time>1970-01-01T01:26:44.000Z</time>
      </trkpt>
      <trkpt lat="42.33226" lon="1.912848">
        <ele>2110.1</ele>
        <time>1970-01-01T01:26:45.000Z</time>
      </trkpt>
      <trkpt lat="42.332249" lon="1.912851">
        <ele>2110.4</ele>
        <time>1970-01-01T01:26:46.000Z</time>
      </trkpt>
      <trkpt lat="42.332233" lon="1.912858">
        <ele>2110.7</ele>
        <time>1970-01-01T01:26:47.000Z</time>
      </trkpt>
      <trkpt lat="42.332222" lon="1.912863">
        <ele>2110.9</ele>
        <time>1970-01-01T01:26:48.000Z</time>
      </trkpt>
      <trkpt lat="42.332211" lon="1.912866">
        <ele>2111.1</ele>
        <time>1970-01-01T01:26:49.000Z</time>
      </trkpt>
      <trkpt lat="42.332195" lon="1.912868">
        <ele>2111.4</ele>
        <time>1970-01-01T01:26:50.000Z</time>
      </trkpt>
      <trkpt lat="42.33218" lon="1.912871">
        <ele>2111.7</ele>
        <time>1970-01-01T01:26:51.000Z</time>
      </trkpt>
      <trkpt lat="42.332169" lon="1.912876">
        <ele>2112</ele>
        <time>1970-01-01T01:26:52.000Z</time>
      </trkpt>
      <trkpt lat="42.332153" lon="1.912884">
        <ele>2112.3</ele>
        <time>1970-01-01T01:26:53.000Z</time>
      </trkpt>
      <trkpt lat="42.332146" lon="1.912889">
        <ele>2112.4</ele>
        <time>1970-01-01T01:26:54.000Z</time>
      </trkpt>
      <trkpt lat="42.332134" lon="1.9129">
        <ele>2112.7</ele>
        <time>1970-01-01T01:26:55.000Z</time>
      </trkpt>
      <trkpt lat="42.332119" lon="1.912913">
        <ele>2113</ele>
        <time>1970-01-01T01:26:56.000Z</time>
      </trkpt>
      <trkpt lat="42.332111" lon="1.912927">
        <ele>2113.3</ele>
        <time>1970-01-01T01:26:57.000Z</time>
      </trkpt>
      <trkpt lat="42.3321" lon="1.912943">
        <ele>2113.6</ele>
        <time>1970-01-01T01:26:58.000Z</time>
      </trkpt>
      <trkpt lat="42.332089" lon="1.912959">
        <ele>2113.9</ele>
        <time>1970-01-01T01:26:59.000Z</time>
      </trkpt>
      <trkpt lat="42.332077" lon="1.91297">
        <ele>2114.2</ele>
        <time>1970-01-01T01:27:00.000Z</time>
      </trkpt>
      <trkpt lat="42.332069" lon="1.912982">
        <ele>2114.4</ele>
        <time>1970-01-01T01:27:01.000Z</time>
      </trkpt>
      <trkpt lat="42.332058" lon="1.912996">
        <ele>2114.7</ele>
        <time>1970-01-01T01:27:02.000Z</time>
      </trkpt>
      <trkpt lat="42.33205" lon="1.91301">
        <ele>2115</ele>
        <time>1970-01-01T01:27:03.000Z</time>
      </trkpt>
      <trkpt lat="42.332039" lon="1.913022">
        <ele>2115.3</ele>
        <time>1970-01-01T01:27:04.000Z</time>
      </trkpt>
      <trkpt lat="42.332031" lon="1.913034">
        <ele>2115.5</ele>
        <time>1970-01-01T01:27:05.000Z</time>
      </trkpt>
      <trkpt lat="42.332016" lon="1.913048">
        <ele>2115.9</ele>
        <time>1970-01-01T01:27:06.000Z</time>
      </trkpt>
      <trkpt lat="42.332008" lon="1.91306">
        <ele>2116.2</ele>
        <time>1970-01-01T01:27:07.000Z</time>
      </trkpt>
      <trkpt lat="42.331997" lon="1.913076">
        <ele>2116.5</ele>
        <time>1970-01-01T01:27:08.000Z</time>
      </trkpt>
      <trkpt lat="42.331989" lon="1.913091">
        <ele>2116.8</ele>
        <time>1970-01-01T01:27:09.000Z</time>
      </trkpt>
      <trkpt lat="42.331982" lon="1.913106">
        <ele>2117.1</ele>
        <time>1970-01-01T01:27:10.000Z</time>
      </trkpt>
      <trkpt lat="42.331974" lon="1.913119">
        <ele>2117.3</ele>
        <time>1970-01-01T01:27:11.000Z</time>
      </trkpt>
      <trkpt lat="42.331966" lon="1.913135">
        <ele>2117.6</ele>
        <time>1970-01-01T01:27:12.000Z</time>
      </trkpt>
      <trkpt lat="42.331955" lon="1.913148">
        <ele>2117.9</ele>
        <time>1970-01-01T01:27:13.000Z</time>
      </trkpt>
      <trkpt lat="42.331943" lon="1.913162">
        <ele>2118.3</ele>
        <time>1970-01-01T01:27:14.000Z</time>
      </trkpt>
      <trkpt lat="42.331932" lon="1.913176">
        <ele>2118.6</ele>
        <time>1970-01-01T01:27:15.000Z</time>
      </trkpt>
      <trkpt lat="42.331921" lon="1.913188">
        <ele>2118.9</ele>
        <time>1970-01-01T01:27:16.000Z</time>
      </trkpt>
      <trkpt lat="42.331909" lon="1.913201">
        <ele>2119.2</ele>
        <time>1970-01-01T01:27:17.000Z</time>
      </trkpt>
      <trkpt lat="42.331902" lon="1.913219">
        <ele>2119.5</ele>
        <time>1970-01-01T01:27:18.000Z</time>
      </trkpt>
      <trkpt lat="42.331894" lon="1.913236">
        <ele>2119.8</ele>
        <time>1970-01-01T01:27:19.000Z</time>
      </trkpt>
      <trkpt lat="42.331886" lon="1.913251">
        <ele>2120.1</ele>
        <time>1970-01-01T01:27:20.000Z</time>
      </trkpt>
      <trkpt lat="42.331875" lon="1.913259">
        <ele>2120.3</ele>
        <time>1970-01-01T01:27:21.000Z</time>
      </trkpt>
      <trkpt lat="42.331867" lon="1.913259">
        <ele>2120.5</ele>
        <time>1970-01-01T01:27:22.000Z</time>
      </trkpt>
      <trkpt lat="42.331856" lon="1.913251">
        <ele>2120.7</ele>
        <time>1970-01-01T01:27:23.000Z</time>
      </trkpt>
      <trkpt lat="42.33184" lon="1.91324">
        <ele>2121.1</ele>
        <time>1970-01-01T01:27:24.000Z</time>
      </trkpt>
      <trkpt lat="42.331829" lon="1.913225">
        <ele>2121.4</ele>
        <time>1970-01-01T01:27:25.000Z</time>
      </trkpt>
      <trkpt lat="42.331821" lon="1.913211">
        <ele>2121.7</ele>
        <time>1970-01-01T01:27:26.000Z</time>
      </trkpt>
      <trkpt lat="42.331821" lon="1.91319">
        <ele>2122</ele>
        <time>1970-01-01T01:27:27.000Z</time>
      </trkpt>
      <trkpt lat="42.331821" lon="1.913166">
        <ele>2122.3</ele>
        <time>1970-01-01T01:27:28.000Z</time>
      </trkpt>
      <trkpt lat="42.331825" lon="1.913146">
        <ele>2122.6</ele>
        <time>1970-01-01T01:27:29.000Z</time>
      </trkpt>
      <trkpt lat="42.331829" lon="1.913126">
        <ele>2122.9</ele>
        <time>1970-01-01T01:27:30.000Z</time>
      </trkpt>
      <trkpt lat="42.331833" lon="1.913105">
        <ele>2123.2</ele>
        <time>1970-01-01T01:27:31.000Z</time>
      </trkpt>
      <trkpt lat="42.331837" lon="1.913084">
        <ele>2123.5</ele>
        <time>1970-01-01T01:27:32.000Z</time>
      </trkpt>
      <trkpt lat="42.331833" lon="1.913066">
        <ele>2123.7</ele>
        <time>1970-01-01T01:27:33.000Z</time>
      </trkpt>
      <trkpt lat="42.331833" lon="1.913046">
        <ele>2124</ele>
        <time>1970-01-01T01:27:34.000Z</time>
      </trkpt>
      <trkpt lat="42.331833" lon="1.913028">
        <ele>2124.3</ele>
        <time>1970-01-01T01:27:35.000Z</time>
      </trkpt>
      <trkpt lat="42.331833" lon="1.91301">
        <ele>2124.5</ele>
        <time>1970-01-01T01:27:36.000Z</time>
      </trkpt>
      <trkpt lat="42.331833" lon="1.912993">
        <ele>2124.7</ele>
        <time>1970-01-01T01:27:37.000Z</time>
      </trkpt>
      <trkpt lat="42.331837" lon="1.912975">
        <ele>2124.9</ele>
        <time>1970-01-01T01:27:38.000Z</time>
      </trkpt>
      <trkpt lat="42.331837" lon="1.912956">
        <ele>2125.2</ele>
        <time>1970-01-01T01:27:39.000Z</time>
      </trkpt>
      <trkpt lat="42.331837" lon="1.912939">
        <ele>2125.4</ele>
        <time>1970-01-01T01:27:40.000Z</time>
      </trkpt>
      <trkpt lat="42.331837" lon="1.912918">
        <ele>2125.6</ele>
        <time>1970-01-01T01:27:41.000Z</time>
      </trkpt>
      <trkpt lat="42.331837" lon="1.912893">
        <ele>2125.9</ele>
        <time>1970-01-01T01:27:42.000Z</time>
      </trkpt>
      <trkpt lat="42.33184" lon="1.912872">
        <ele>2126.2</ele>
        <time>1970-01-01T01:27:43.000Z</time>
      </trkpt>
      <trkpt lat="42.33184" lon="1.912848">
        <ele>2126.4</ele>
        <time>1970-01-01T01:27:44.000Z</time>
      </trkpt>
      <trkpt lat="42.33184" lon="1.912825">
        <ele>2126.7</ele>
        <time>1970-01-01T01:27:45.000Z</time>
      </trkpt>
      <trkpt lat="42.33184" lon="1.912803">
        <ele>2126.9</ele>
        <time>1970-01-01T01:27:46.000Z</time>
      </trkpt>
      <trkpt lat="42.331844" lon="1.912783">
        <ele>2127.2</ele>
        <time>1970-01-01T01:27:47.000Z</time>
      </trkpt>
      <trkpt lat="42.331844" lon="1.912763">
        <ele>2127.4</ele>
        <time>1970-01-01T01:27:48.000Z</time>
      </trkpt>
      <trkpt lat="42.331844" lon="1.912741">
        <ele>2127.6</ele>
        <time>1970-01-01T01:27:49.000Z</time>
      </trkpt>
      <trkpt lat="42.331844" lon="1.912719">
        <ele>2127.9</ele>
        <time>1970-01-01T01:27:50.000Z</time>
      </trkpt>
      <trkpt lat="42.33184" lon="1.912701">
        <ele>2128.1</ele>
        <time>1970-01-01T01:27:51.000Z</time>
      </trkpt>
      <trkpt lat="42.331837" lon="1.912682">
        <ele>2128.3</ele>
        <time>1970-01-01T01:27:52.000Z</time>
      </trkpt>
      <trkpt lat="42.331833" lon="1.912664">
        <ele>2128.5</ele>
        <time>1970-01-01T01:27:53.000Z</time>
      </trkpt>
      <trkpt lat="42.331825" lon="1.912647">
        <ele>2128.8</ele>
        <time>1970-01-01T01:27:54.000Z</time>
      </trkpt>
      <trkpt lat="42.331821" lon="1.912632">
        <ele>2129</ele>
        <time>1970-01-01T01:27:55.000Z</time>
      </trkpt>
      <trkpt lat="42.331821" lon="1.912617">
        <ele>2129.1</ele>
        <time>1970-01-01T01:27:56.000Z</time>
      </trkpt>
      <trkpt lat="42.331825" lon="1.9126">
        <ele>2129.3</ele>
        <time>1970-01-01T01:27:57.000Z</time>
      </trkpt>
      <trkpt lat="42.331825" lon="1.912582">
        <ele>2129.6</ele>
        <time>1970-01-01T01:27:58.000Z</time>
      </trkpt>
      <trkpt lat="42.331825" lon="1.912563">
        <ele>2129.8</ele>
        <time>1970-01-01T01:27:59.000Z</time>
      </trkpt>
      <trkpt lat="42.331829" lon="1.912544">
        <ele>2130</ele>
        <time>1970-01-01T01:28:00.000Z</time>
      </trkpt>
      <trkpt lat="42.331829" lon="1.912528">
        <ele>2130.2</ele>
        <time>1970-01-01T01:28:01.000Z</time>
      </trkpt>
      <trkpt lat="42.331829" lon="1.912509">
        <ele>2130.4</ele>
        <time>1970-01-01T01:28:02.000Z</time>
      </trkpt>
      <trkpt lat="42.331829" lon="1.912492">
        <ele>2130.6</ele>
        <time>1970-01-01T01:28:03.000Z</time>
      </trkpt>
      <trkpt lat="42.331837" lon="1.912474">
        <ele>2130.9</ele>
        <time>1970-01-01T01:28:04.000Z</time>
      </trkpt>
      <trkpt lat="42.33184" lon="1.912457">
        <ele>2131.1</ele>
        <time>1970-01-01T01:28:05.000Z</time>
      </trkpt>
      <trkpt lat="42.331844" lon="1.91244">
        <ele>2131.3</ele>
        <time>1970-01-01T01:28:06.000Z</time>
      </trkpt>
      <trkpt lat="42.331848" lon="1.912422">
        <ele>2131.5</ele>
        <time>1970-01-01T01:28:07.000Z</time>
      </trkpt>
      <trkpt lat="42.331852" lon="1.912404">
        <ele>2131.7</ele>
        <time>1970-01-01T01:28:08.000Z</time>
      </trkpt>
      <trkpt lat="42.331856" lon="1.912387">
        <ele>2131.9</ele>
        <time>1970-01-01T01:28:09.000Z</time>
      </trkpt>
      <trkpt lat="42.331863" lon="1.912372">
        <ele>2132.1</ele>
        <time>1970-01-01T01:28:10.000Z</time>
      </trkpt>
      <trkpt lat="42.331867" lon="1.912354">
        <ele>2132.3</ele>
        <time>1970-01-01T01:28:11.000Z</time>
      </trkpt>
      <trkpt lat="42.331875" lon="1.912341">
        <ele>2132.5</ele>
        <time>1970-01-01T01:28:12.000Z</time>
      </trkpt>
      <trkpt lat="42.331882" lon="1.912327">
        <ele>2132.7</ele>
        <time>1970-01-01T01:28:13.000Z</time>
      </trkpt>
      <trkpt lat="42.33189" lon="1.912312">
        <ele>2132.9</ele>
        <time>1970-01-01T01:28:14.000Z</time>
      </trkpt>
      <trkpt lat="42.331902" lon="1.912298">
        <ele>2133.1</ele>
        <time>1970-01-01T01:28:15.000Z</time>
      </trkpt>
      <trkpt lat="42.331909" lon="1.912284">
        <ele>2133.3</ele>
        <time>1970-01-01T01:28:16.000Z</time>
      </trkpt>
      <trkpt lat="42.331917" lon="1.912269">
        <ele>2133.4</ele>
        <time>1970-01-01T01:28:17.000Z</time>
      </trkpt>
      <trkpt lat="42.331928" lon="1.912252">
        <ele>2133.7</ele>
        <time>1970-01-01T01:28:18.000Z</time>
      </trkpt>
      <trkpt lat="42.331936" lon="1.912235">
        <ele>2133.8</ele>
        <time>1970-01-01T01:28:19.000Z</time>
      </trkpt>
      <trkpt lat="42.331943" lon="1.91222">
        <ele>2134</ele>
        <time>1970-01-01T01:28:20.000Z</time>
      </trkpt>
      <trkpt lat="42.331947" lon="1.912201">
        <ele>2134.2</ele>
        <time>1970-01-01T01:28:21.000Z</time>
      </trkpt>
      <trkpt lat="42.331951" lon="1.912181">
        <ele>2134.4</ele>
        <time>1970-01-01T01:28:22.000Z</time>
      </trkpt>
      <trkpt lat="42.331955" lon="1.912164">
        <ele>2134.5</ele>
        <time>1970-01-01T01:28:23.000Z</time>
      </trkpt>
      <trkpt lat="42.331963" lon="1.912149">
        <ele>2134.7</ele>
        <time>1970-01-01T01:28:24.000Z</time>
      </trkpt>
      <trkpt lat="42.33197" lon="1.912132">
        <ele>2134.9</ele>
        <time>1970-01-01T01:28:25.000Z</time>
      </trkpt>
      <trkpt lat="42.331974" lon="1.912112">
        <ele>2135.1</ele>
        <time>1970-01-01T01:28:26.000Z</time>
      </trkpt>
      <trkpt lat="42.331982" lon="1.912094">
        <ele>2135.3</ele>
        <time>1970-01-01T01:28:27.000Z</time>
      </trkpt>
      <trkpt lat="42.331989" lon="1.912079">
        <ele>2135.4</ele>
        <time>1970-01-01T01:28:28.000Z</time>
      </trkpt>
      <trkpt lat="42.331997" lon="1.912063">
        <ele>2135.6</ele>
        <time>1970-01-01T01:28:29.000Z</time>
      </trkpt>
      <trkpt lat="42.332005" lon="1.912049">
        <ele>2135.7</ele>
        <time>1970-01-01T01:28:30.000Z</time>
      </trkpt>
      <trkpt lat="42.33202" lon="1.912034">
        <ele>2135.9</ele>
        <time>1970-01-01T01:28:31.000Z</time>
      </trkpt>
      <trkpt lat="42.332031" lon="1.912022">
        <ele>2136.1</ele>
        <time>1970-01-01T01:28:32.000Z</time>
      </trkpt>
      <trkpt lat="42.332039" lon="1.912007">
        <ele>2136.2</ele>
        <time>1970-01-01T01:28:33.000Z</time>
      </trkpt>
      <trkpt lat="42.332047" lon="1.911992">
        <ele>2136.4</ele>
        <time>1970-01-01T01:28:34.000Z</time>
      </trkpt>
      <trkpt lat="42.33205" lon="1.911976">
        <ele>2136.5</ele>
        <time>1970-01-01T01:28:35.000Z</time>
      </trkpt>
      <trkpt lat="42.332058" lon="1.91196">
        <ele>2136.6</ele>
        <time>1970-01-01T01:28:36.000Z</time>
      </trkpt>
      <trkpt lat="42.332066" lon="1.91195">
        <ele>2136.7</ele>
        <time>1970-01-01T01:28:37.000Z</time>
      </trkpt>
      <trkpt lat="42.332077" lon="1.91194">
        <ele>2136.9</ele>
        <time>1970-01-01T01:28:38.000Z</time>
      </trkpt>
      <trkpt lat="42.332089" lon="1.911928">
        <ele>2137</ele>
        <time>1970-01-01T01:28:39.000Z</time>
      </trkpt>
      <trkpt lat="42.3321" lon="1.911912">
        <ele>2137.2</ele>
        <time>1970-01-01T01:28:40.000Z</time>
      </trkpt>
      <trkpt lat="42.332108" lon="1.911897">
        <ele>2137.3</ele>
        <time>1970-01-01T01:28:41.000Z</time>
      </trkpt>
      <trkpt lat="42.332115" lon="1.911879">
        <ele>2137.5</ele>
        <time>1970-01-01T01:28:42.000Z</time>
      </trkpt>
      <trkpt lat="42.332127" lon="1.911862">
        <ele>2137.6</ele>
        <time>1970-01-01T01:28:43.000Z</time>
      </trkpt>
      <trkpt lat="42.332134" lon="1.91185">
        <ele>2137.7</ele>
        <time>1970-01-01T01:28:44.000Z</time>
      </trkpt>
      <trkpt lat="42.332146" lon="1.911838">
        <ele>2137.8</ele>
        <time>1970-01-01T01:28:45.000Z</time>
      </trkpt>
      <trkpt lat="42.332157" lon="1.911831">
        <ele>2137.9</ele>
        <time>1970-01-01T01:28:46.000Z</time>
      </trkpt>
      <trkpt lat="42.332169" lon="1.911826">
        <ele>2138.1</ele>
        <time>1970-01-01T01:28:47.000Z</time>
      </trkpt>
      <trkpt lat="42.33218" lon="1.911819">
        <ele>2138.2</ele>
        <time>1970-01-01T01:28:48.000Z</time>
      </trkpt>
      <trkpt lat="42.332191" lon="1.91181">
        <ele>2138.3</ele>
        <time>1970-01-01T01:28:49.000Z</time>
      </trkpt>
      <trkpt lat="42.332211" lon="1.9118">
        <ele>2138.4</ele>
        <time>1970-01-01T01:28:50.000Z</time>
      </trkpt>
      <trkpt lat="42.33223" lon="1.911787">
        <ele>2138.6</ele>
        <time>1970-01-01T01:28:51.000Z</time>
      </trkpt>
      <trkpt lat="42.332245" lon="1.911778">
        <ele>2138.7</ele>
        <time>1970-01-01T01:28:52.000Z</time>
      </trkpt>
      <trkpt lat="42.332264" lon="1.911771">
        <ele>2138.9</ele>
        <time>1970-01-01T01:28:53.000Z</time>
      </trkpt>
      <trkpt lat="42.332279" lon="1.911766">
        <ele>2139</ele>
        <time>1970-01-01T01:28:54.000Z</time>
      </trkpt>
      <trkpt lat="42.332302" lon="1.911766">
        <ele>2139.1</ele>
        <time>1970-01-01T01:28:55.000Z</time>
      </trkpt>
      <trkpt lat="42.332317" lon="1.911764">
        <ele>2139.2</ele>
        <time>1970-01-01T01:28:56.000Z</time>
      </trkpt>
      <trkpt lat="42.332336" lon="1.911759">
        <ele>2139.3</ele>
        <time>1970-01-01T01:28:57.000Z</time>
      </trkpt>
      <trkpt lat="42.332352" lon="1.911753">
        <ele>2139.4</ele>
        <time>1970-01-01T01:28:58.000Z</time>
      </trkpt>
      <trkpt lat="42.332371" lon="1.911747">
        <ele>2139.5</ele>
        <time>1970-01-01T01:28:59.000Z</time>
      </trkpt>
      <trkpt lat="42.332386" lon="1.911745">
        <ele>2139.6</ele>
        <time>1970-01-01T01:29:00.000Z</time>
      </trkpt>
      <trkpt lat="42.332405" lon="1.911746">
        <ele>2139.7</ele>
        <time>1970-01-01T01:29:01.000Z</time>
      </trkpt>
      <trkpt lat="42.332424" lon="1.911745">
        <ele>2139.8</ele>
        <time>1970-01-01T01:29:02.000Z</time>
      </trkpt>
      <trkpt lat="42.332443" lon="1.911742">
        <ele>2139.9</ele>
        <time>1970-01-01T01:29:03.000Z</time>
      </trkpt>
      <trkpt lat="42.332458" lon="1.911742">
        <ele>2140</ele>
        <time>1970-01-01T01:29:04.000Z</time>
      </trkpt>
      <trkpt lat="42.332478" lon="1.911742">
        <ele>2140.2</ele>
        <time>1970-01-01T01:29:05.000Z</time>
      </trkpt>
      <trkpt lat="42.332493" lon="1.911742">
        <ele>2140.3</ele>
        <time>1970-01-01T01:29:06.000Z</time>
      </trkpt>
      <trkpt lat="42.332512" lon="1.911742">
        <ele>2140.4</ele>
        <time>1970-01-01T01:29:07.000Z</time>
      </trkpt>
      <trkpt lat="42.332531" lon="1.911744">
        <ele>2140.5</ele>
        <time>1970-01-01T01:29:08.000Z</time>
      </trkpt>
      <trkpt lat="42.33255" lon="1.911745">
        <ele>2140.6</ele>
        <time>1970-01-01T01:29:09.000Z</time>
      </trkpt>
      <trkpt lat="42.332573" lon="1.911744">
        <ele>2140.8</ele>
        <time>1970-01-01T01:29:10.000Z</time>
      </trkpt>
      <trkpt lat="42.332592" lon="1.91174">
        <ele>2140.9</ele>
        <time>1970-01-01T01:29:11.000Z</time>
      </trkpt>
      <trkpt lat="42.332611" lon="1.911739">
        <ele>2141</ele>
        <time>1970-01-01T01:29:12.000Z</time>
      </trkpt>
      <trkpt lat="42.332634" lon="1.911738">
        <ele>2141.1</ele>
        <time>1970-01-01T01:29:13.000Z</time>
      </trkpt>
      <trkpt lat="42.332661" lon="1.911743">
        <ele>2141.3</ele>
        <time>1970-01-01T01:29:14.000Z</time>
      </trkpt>
      <trkpt lat="42.332684" lon="1.911747">
        <ele>2141.4</ele>
        <time>1970-01-01T01:29:15.000Z</time>
      </trkpt>
      <trkpt lat="42.332706" lon="1.911753">
        <ele>2141.5</ele>
        <time>1970-01-01T01:29:16.000Z</time>
      </trkpt>
      <trkpt lat="42.332733" lon="1.911756">
        <ele>2141.7</ele>
        <time>1970-01-01T01:29:17.000Z</time>
      </trkpt>
      <trkpt lat="42.332756" lon="1.911757">
        <ele>2141.8</ele>
        <time>1970-01-01T01:29:18.000Z</time>
      </trkpt>
      <trkpt lat="42.332779" lon="1.911757">
        <ele>2142</ele>
        <time>1970-01-01T01:29:19.000Z</time>
      </trkpt>
      <trkpt lat="42.332802" lon="1.911758">
        <ele>2142.1</ele>
        <time>1970-01-01T01:29:20.000Z</time>
      </trkpt>
      <trkpt lat="42.332825" lon="1.911757">
        <ele>2142.3</ele>
        <time>1970-01-01T01:29:21.000Z</time>
      </trkpt>
      <trkpt lat="42.332851" lon="1.911757">
        <ele>2142.5</ele>
        <time>1970-01-01T01:29:22.000Z</time>
      </trkpt>
      <trkpt lat="42.332874" lon="1.911755">
        <ele>2142.6</ele>
        <time>1970-01-01T01:29:23.000Z</time>
      </trkpt>
      <trkpt lat="42.332893" lon="1.911754">
        <ele>2142.8</ele>
        <time>1970-01-01T01:29:24.000Z</time>
      </trkpt>
      <trkpt lat="42.332916" lon="1.911748">
        <ele>2142.9</ele>
        <time>1970-01-01T01:29:25.000Z</time>
      </trkpt>
      <trkpt lat="42.332935" lon="1.911747">
        <ele>2143.1</ele>
        <time>1970-01-01T01:29:26.000Z</time>
      </trkpt>
      <trkpt lat="42.332954" lon="1.911751">
        <ele>2143.2</ele>
        <time>1970-01-01T01:29:27.000Z</time>
      </trkpt>
      <trkpt lat="42.332981" lon="1.911754">
        <ele>2143.4</ele>
        <time>1970-01-01T01:29:28.000Z</time>
      </trkpt>
      <trkpt lat="42.333" lon="1.911755">
        <ele>2143.5</ele>
        <time>1970-01-01T01:29:29.000Z</time>
      </trkpt>
      <trkpt lat="42.333023" lon="1.911754">
        <ele>2143.7</ele>
        <time>1970-01-01T01:29:30.000Z</time>
      </trkpt>
      <trkpt lat="42.333046" lon="1.91175">
        <ele>2143.9</ele>
        <time>1970-01-01T01:29:31.000Z</time>
      </trkpt>
      <trkpt lat="42.333069" lon="1.911746">
        <ele>2144</ele>
        <time>1970-01-01T01:29:32.000Z</time>
      </trkpt>
      <trkpt lat="42.333088" lon="1.911739">
        <ele>2144.2</ele>
        <time>1970-01-01T01:29:33.000Z</time>
      </trkpt>
      <trkpt lat="42.333111" lon="1.911734">
        <ele>2144.3</ele>
        <time>1970-01-01T01:29:34.000Z</time>
      </trkpt>
      <trkpt lat="42.333134" lon="1.911729">
        <ele>2144.5</ele>
        <time>1970-01-01T01:29:35.000Z</time>
      </trkpt>
      <trkpt lat="42.333153" lon="1.911723">
        <ele>2144.6</ele>
        <time>1970-01-01T01:29:36.000Z</time>
      </trkpt>
      <trkpt lat="42.333176" lon="1.911715">
        <ele>2144.8</ele>
        <time>1970-01-01T01:29:37.000Z</time>
      </trkpt>
      <trkpt lat="42.333195" lon="1.911705">
        <ele>2144.9</ele>
        <time>1970-01-01T01:29:38.000Z</time>
      </trkpt>
      <trkpt lat="42.333218" lon="1.911702">
        <ele>2145.1</ele>
        <time>1970-01-01T01:29:39.000Z</time>
      </trkpt>
      <trkpt lat="42.333237" lon="1.911693">
        <ele>2145.2</ele>
        <time>1970-01-01T01:29:40.000Z</time>
      </trkpt>
      <trkpt lat="42.33326" lon="1.911679">
        <ele>2145.4</ele>
        <time>1970-01-01T01:29:41.000Z</time>
      </trkpt>
      <trkpt lat="42.333279" lon="1.911666">
        <ele>2145.5</ele>
        <time>1970-01-01T01:29:42.000Z</time>
      </trkpt>
      <trkpt lat="42.333294" lon="1.911652">
        <ele>2145.7</ele>
        <time>1970-01-01T01:29:43.000Z</time>
      </trkpt>
      <trkpt lat="42.333309" lon="1.911634">
        <ele>2145.8</ele>
        <time>1970-01-01T01:29:44.000Z</time>
      </trkpt>
      <trkpt lat="42.333321" lon="1.911616">
        <ele>2145.9</ele>
        <time>1970-01-01T01:29:45.000Z</time>
      </trkpt>
      <trkpt lat="42.333336" lon="1.911598">
        <ele>2146.1</ele>
        <time>1970-01-01T01:29:46.000Z</time>
      </trkpt>
      <trkpt lat="42.333355" lon="1.911579">
        <ele>2146.3</ele>
        <time>1970-01-01T01:29:47.000Z</time>
      </trkpt>
      <trkpt lat="42.33337" lon="1.911555">
        <ele>2146.4</ele>
        <time>1970-01-01T01:29:48.000Z</time>
      </trkpt>
      <trkpt lat="42.333382" lon="1.911536">
        <ele>2146.6</ele>
        <time>1970-01-01T01:29:49.000Z</time>
      </trkpt>
      <trkpt lat="42.333393" lon="1.911517">
        <ele>2146.7</ele>
        <time>1970-01-01T01:29:50.000Z</time>
      </trkpt>
      <trkpt lat="42.333408" lon="1.911499">
        <ele>2146.9</ele>
        <time>1970-01-01T01:29:51.000Z</time>
      </trkpt>
      <trkpt lat="42.333424" lon="1.911479">
        <ele>2147.1</ele>
        <time>1970-01-01T01:29:52.000Z</time>
      </trkpt>
      <trkpt lat="42.333439" lon="1.911462">
        <ele>2147.2</ele>
        <time>1970-01-01T01:29:53.000Z</time>
      </trkpt>
      <trkpt lat="42.33345" lon="1.911444">
        <ele>2147.3</ele>
        <time>1970-01-01T01:29:54.000Z</time>
      </trkpt>
      <trkpt lat="42.333458" lon="1.91142">
        <ele>2147.5</ele>
        <time>1970-01-01T01:29:55.000Z</time>
      </trkpt>
      <trkpt lat="42.333469" lon="1.911398">
        <ele>2147.6</ele>
        <time>1970-01-01T01:29:56.000Z</time>
      </trkpt>
      <trkpt lat="42.333473" lon="1.911376">
        <ele>2147.8</ele>
        <time>1970-01-01T01:29:57.000Z</time>
      </trkpt>
      <trkpt lat="42.333485" lon="1.911356">
        <ele>2147.9</ele>
        <time>1970-01-01T01:29:58.000Z</time>
      </trkpt>
      <trkpt lat="42.333488" lon="1.911333">
        <ele>2148.1</ele>
        <time>1970-01-01T01:29:59.000Z</time>
      </trkpt>
      <trkpt lat="42.333496" lon="1.911311">
        <ele>2148.2</ele>
        <time>1970-01-01T01:30:00.000Z</time>
      </trkpt>
      <trkpt lat="42.3335" lon="1.911291">
        <ele>2148.3</ele>
        <time>1970-01-01T01:30:01.000Z</time>
      </trkpt>
      <trkpt lat="42.333504" lon="1.911267">
        <ele>2148.5</ele>
        <time>1970-01-01T01:30:02.000Z</time>
      </trkpt>
      <trkpt lat="42.333511" lon="1.911245">
        <ele>2148.6</ele>
        <time>1970-01-01T01:30:03.000Z</time>
      </trkpt>
      <trkpt lat="42.333515" lon="1.911222">
        <ele>2148.8</ele>
        <time>1970-01-01T01:30:04.000Z</time>
      </trkpt>
      <trkpt lat="42.333515" lon="1.9112">
        <ele>2148.9</ele>
        <time>1970-01-01T01:30:05.000Z</time>
      </trkpt>
      <trkpt lat="42.333519" lon="1.911175">
        <ele>2149</ele>
        <time>1970-01-01T01:30:06.000Z</time>
      </trkpt>
      <trkpt lat="42.333519" lon="1.91115">
        <ele>2149.2</ele>
        <time>1970-01-01T01:30:07.000Z</time>
      </trkpt>
      <trkpt lat="42.333527" lon="1.911125">
        <ele>2149.4</ele>
        <time>1970-01-01T01:30:08.000Z</time>
      </trkpt>
      <trkpt lat="42.333527" lon="1.911103">
        <ele>2149.5</ele>
        <time>1970-01-01T01:30:09.000Z</time>
      </trkpt>
      <trkpt lat="42.333527" lon="1.91108">
        <ele>2149.7</ele>
        <time>1970-01-01T01:30:10.000Z</time>
      </trkpt>
      <trkpt lat="42.333527" lon="1.911056">
        <ele>2149.9</ele>
        <time>1970-01-01T01:30:11.000Z</time>
      </trkpt>
      <trkpt lat="42.333527" lon="1.911034">
        <ele>2150</ele>
        <time>1970-01-01T01:30:12.000Z</time>
      </trkpt>
      <trkpt lat="42.333534" lon="1.911014">
        <ele>2150.2</ele>
        <time>1970-01-01T01:30:13.000Z</time>
      </trkpt>
      <trkpt lat="42.333542" lon="1.910994">
        <ele>2150.3</ele>
        <time>1970-01-01T01:30:14.000Z</time>
      </trkpt>
      <trkpt lat="42.333549" lon="1.910977">
        <ele>2150.5</ele>
        <time>1970-01-01T01:30:15.000Z</time>
      </trkpt>
      <trkpt lat="42.333557" lon="1.910958">
        <ele>2150.6</ele>
        <time>1970-01-01T01:30:16.000Z</time>
      </trkpt>
      <trkpt lat="42.333561" lon="1.910938">
        <ele>2150.8</ele>
        <time>1970-01-01T01:30:17.000Z</time>
      </trkpt>
      <trkpt lat="42.333565" lon="1.910919">
        <ele>2150.9</ele>
        <time>1970-01-01T01:30:18.000Z</time>
      </trkpt>
      <trkpt lat="42.333565" lon="1.910902">
        <ele>2151</ele>
        <time>1970-01-01T01:30:19.000Z</time>
      </trkpt>
      <trkpt lat="42.333569" lon="1.910886">
        <ele>2151.2</ele>
        <time>1970-01-01T01:30:20.000Z</time>
      </trkpt>
      <trkpt lat="42.333569" lon="1.91087">
        <ele>2151.3</ele>
        <time>1970-01-01T01:30:21.000Z</time>
      </trkpt>
      <trkpt lat="42.333572" lon="1.910852">
        <ele>2151.4</ele>
        <time>1970-01-01T01:30:22.000Z</time>
      </trkpt>
      <trkpt lat="42.33358" lon="1.910831">
        <ele>2151.6</ele>
        <time>1970-01-01T01:30:23.000Z</time>
      </trkpt>
      <trkpt lat="42.333584" lon="1.910811">
        <ele>2151.8</ele>
        <time>1970-01-01T01:30:24.000Z</time>
      </trkpt>
      <trkpt lat="42.333591" lon="1.91079">
        <ele>2151.9</ele>
        <time>1970-01-01T01:30:25.000Z</time>
      </trkpt>
      <trkpt lat="42.333595" lon="1.910763">
        <ele>2152.1</ele>
        <time>1970-01-01T01:30:26.000Z</time>
      </trkpt>
      <trkpt lat="42.333603" lon="1.910741">
        <ele>2152.3</ele>
        <time>1970-01-01T01:30:27.000Z</time>
      </trkpt>
      <trkpt lat="42.333607" lon="1.910722">
        <ele>2152.5</ele>
        <time>1970-01-01T01:30:28.000Z</time>
      </trkpt>
      <trkpt lat="42.333611" lon="1.910704">
        <ele>2152.6</ele>
        <time>1970-01-01T01:30:29.000Z</time>
      </trkpt>
      <trkpt lat="42.333611" lon="1.910686">
        <ele>2152.8</ele>
        <time>1970-01-01T01:30:30.000Z</time>
      </trkpt>
      <trkpt lat="42.333614" lon="1.910668">
        <ele>2152.9</ele>
        <time>1970-01-01T01:30:31.000Z</time>
      </trkpt>
      <trkpt lat="42.333618" lon="1.910646">
        <ele>2153.1</ele>
        <time>1970-01-01T01:30:32.000Z</time>
      </trkpt>
      <trkpt lat="42.333622" lon="1.910625">
        <ele>2153.3</ele>
        <time>1970-01-01T01:30:33.000Z</time>
      </trkpt>
      <trkpt lat="42.33363" lon="1.910606">
        <ele>2153.4</ele>
        <time>1970-01-01T01:30:34.000Z</time>
      </trkpt>
      <trkpt lat="42.333637" lon="1.910589">
        <ele>2153.6</ele>
        <time>1970-01-01T01:30:35.000Z</time>
      </trkpt>
      <trkpt lat="42.333641" lon="1.910568">
        <ele>2153.7</ele>
        <time>1970-01-01T01:30:36.000Z</time>
      </trkpt>
      <trkpt lat="42.333645" lon="1.910546">
        <ele>2153.9</ele>
        <time>1970-01-01T01:30:37.000Z</time>
      </trkpt>
      <trkpt lat="42.333649" lon="1.910521">
        <ele>2154.1</ele>
        <time>1970-01-01T01:30:38.000Z</time>
      </trkpt>
      <trkpt lat="42.333656" lon="1.910498">
        <ele>2154.3</ele>
        <time>1970-01-01T01:30:39.000Z</time>
      </trkpt>
      <trkpt lat="42.333656" lon="1.910473">
        <ele>2154.5</ele>
        <time>1970-01-01T01:30:40.000Z</time>
      </trkpt>
      <trkpt lat="42.333664" lon="1.910451">
        <ele>2154.6</ele>
        <time>1970-01-01T01:30:41.000Z</time>
      </trkpt>
      <trkpt lat="42.333668" lon="1.910429">
        <ele>2154.8</ele>
        <time>1970-01-01T01:30:42.000Z</time>
      </trkpt>
      <trkpt lat="42.333675" lon="1.910408">
        <ele>2155</ele>
        <time>1970-01-01T01:30:43.000Z</time>
      </trkpt>
      <trkpt lat="42.333679" lon="1.910392">
        <ele>2155.1</ele>
        <time>1970-01-01T01:30:44.000Z</time>
      </trkpt>
      <trkpt lat="42.333675" lon="1.910378">
        <ele>2155.2</ele>
        <time>1970-01-01T01:30:45.000Z</time>
      </trkpt>
      <trkpt lat="42.333672" lon="1.910359">
        <ele>2155.3</ele>
        <time>1970-01-01T01:30:46.000Z</time>
      </trkpt>
      <trkpt lat="42.333672" lon="1.910341">
        <ele>2155.4</ele>
        <time>1970-01-01T01:30:47.000Z</time>
      </trkpt>
      <trkpt lat="42.333675" lon="1.910322">
        <ele>2155.6</ele>
        <time>1970-01-01T01:30:48.000Z</time>
      </trkpt>
      <trkpt lat="42.333679" lon="1.9103">
        <ele>2155.7</ele>
        <time>1970-01-01T01:30:49.000Z</time>
      </trkpt>
      <trkpt lat="42.333679" lon="1.910278">
        <ele>2155.8</ele>
        <time>1970-01-01T01:30:50.000Z</time>
      </trkpt>
      <trkpt lat="42.333683" lon="1.910258">
        <ele>2156</ele>
        <time>1970-01-01T01:30:51.000Z</time>
      </trkpt>
      <trkpt lat="42.333683" lon="1.910239">
        <ele>2156.1</ele>
        <time>1970-01-01T01:30:52.000Z</time>
      </trkpt>
      <trkpt lat="42.333683" lon="1.910222">
        <ele>2156.2</ele>
        <time>1970-01-01T01:30:53.000Z</time>
      </trkpt>
      <trkpt lat="42.333687" lon="1.910201">
        <ele>2156.3</ele>
        <time>1970-01-01T01:30:54.000Z</time>
      </trkpt>
      <trkpt lat="42.333687" lon="1.910179">
        <ele>2156.5</ele>
        <time>1970-01-01T01:30:55.000Z</time>
      </trkpt>
      <trkpt lat="42.333687" lon="1.910158">
        <ele>2156.6</ele>
        <time>1970-01-01T01:30:56.000Z</time>
      </trkpt>
      <trkpt lat="42.333694" lon="1.910141">
        <ele>2156.7</ele>
        <time>1970-01-01T01:30:57.000Z</time>
      </trkpt>
      <trkpt lat="42.333698" lon="1.910119">
        <ele>2156.8</ele>
        <time>1970-01-01T01:30:58.000Z</time>
      </trkpt>
      <trkpt lat="42.333698" lon="1.9101">
        <ele>2156.9</ele>
        <time>1970-01-01T01:30:59.000Z</time>
      </trkpt>
      <trkpt lat="42.333702" lon="1.910083">
        <ele>2157</ele>
        <time>1970-01-01T01:31:00.000Z</time>
      </trkpt>
      <trkpt lat="42.333702" lon="1.910065">
        <ele>2157.1</ele>
        <time>1970-01-01T01:31:01.000Z</time>
      </trkpt>
      <trkpt lat="42.333702" lon="1.91004">
        <ele>2157.3</ele>
        <time>1970-01-01T01:31:02.000Z</time>
      </trkpt>
      <trkpt lat="42.333702" lon="1.910015">
        <ele>2157.4</ele>
        <time>1970-01-01T01:31:03.000Z</time>
      </trkpt>
      <trkpt lat="42.333702" lon="1.909987">
        <ele>2157.6</ele>
        <time>1970-01-01T01:31:04.000Z</time>
      </trkpt>
      <trkpt lat="42.333702" lon="1.909962">
        <ele>2157.7</ele>
        <time>1970-01-01T01:31:05.000Z</time>
      </trkpt>
      <trkpt lat="42.333698" lon="1.909937">
        <ele>2157.8</ele>
        <time>1970-01-01T01:31:06.000Z</time>
      </trkpt>
      <trkpt lat="42.333698" lon="1.90991">
        <ele>2158</ele>
        <time>1970-01-01T01:31:07.000Z</time>
      </trkpt>
      <trkpt lat="42.333698" lon="1.909887">
        <ele>2158.1</ele>
        <time>1970-01-01T01:31:08.000Z</time>
      </trkpt>
      <trkpt lat="42.333694" lon="1.909869">
        <ele>2158.2</ele>
        <time>1970-01-01T01:31:09.000Z</time>
      </trkpt>
      <trkpt lat="42.333691" lon="1.909851">
        <ele>2158.4</ele>
        <time>1970-01-01T01:31:10.000Z</time>
      </trkpt>
      <trkpt lat="42.333691" lon="1.909831">
        <ele>2158.5</ele>
        <time>1970-01-01T01:31:11.000Z</time>
      </trkpt>
      <trkpt lat="42.333691" lon="1.909812">
        <ele>2158.6</ele>
        <time>1970-01-01T01:31:12.000Z</time>
      </trkpt>
      <trkpt lat="42.333691" lon="1.909788">
        <ele>2158.6</ele>
        <time>1970-01-01T01:31:13.000Z</time>
      </trkpt>
      <trkpt lat="42.333687" lon="1.909763">
        <ele>2159.2</ele>
        <time>1970-01-01T01:31:14.000Z</time>
      </trkpt>
      <trkpt lat="42.333675" lon="1.90975">
        <ele>2162</ele>
        <time>1970-01-01T01:31:15.000Z</time>
      </trkpt>
      <trkpt lat="42.33366" lon="1.909744">
        <ele>2162</ele>
        <time>1970-01-01T01:31:16.000Z</time>
      </trkpt>
      <trkpt lat="42.333649" lon="1.90975">
        <ele>2162.1</ele>
        <time>1970-01-01T01:31:17.000Z</time>
      </trkpt>
      <trkpt lat="42.333633" lon="1.909763">
        <ele>2164.9</ele>
        <time>1970-01-01T01:31:18.000Z</time>
      </trkpt>
      <trkpt lat="42.333626" lon="1.909779">
        <ele>2164.4</ele>
        <time>1970-01-01T01:31:19.000Z</time>
      </trkpt>
      <trkpt lat="42.333618" lon="1.909792">
        <ele>2164.5</ele>
        <time>1970-01-01T01:31:20.000Z</time>
      </trkpt>
      <trkpt lat="42.333618" lon="1.909808">
        <ele>2164.5</ele>
        <time>1970-01-01T01:31:21.000Z</time>
      </trkpt>
      <trkpt lat="42.333618" lon="1.909832">
        <ele>2164</ele>
        <time>1970-01-01T01:31:22.000Z</time>
      </trkpt>
      <trkpt lat="42.333618" lon="1.909856">
        <ele>2164.1</ele>
        <time>1970-01-01T01:31:23.000Z</time>
      </trkpt>
      <trkpt lat="42.333618" lon="1.909877">
        <ele>2163.5</ele>
        <time>1970-01-01T01:31:24.000Z</time>
      </trkpt>
      <trkpt lat="42.333626" lon="1.9099">
        <ele>2163.6</ele>
        <time>1970-01-01T01:31:25.000Z</time>
      </trkpt>
      <trkpt lat="42.33363" lon="1.909922">
        <ele>2163</ele>
        <time>1970-01-01T01:31:26.000Z</time>
      </trkpt>
      <trkpt lat="42.33363" lon="1.909942">
        <ele>2163.1</ele>
        <time>1970-01-01T01:31:27.000Z</time>
      </trkpt>
      <trkpt lat="42.33363" lon="1.909965">
        <ele>2162.5</ele>
        <time>1970-01-01T01:31:28.000Z</time>
      </trkpt>
      <trkpt lat="42.33363" lon="1.909988">
        <ele>2162.6</ele>
        <time>1970-01-01T01:31:29.000Z</time>
      </trkpt>
      <trkpt lat="42.33363" lon="1.910011">
        <ele>2161.9</ele>
        <time>1970-01-01T01:31:30.000Z</time>
      </trkpt>
      <trkpt lat="42.333618" lon="1.910035">
        <ele>2161.3</ele>
        <time>1970-01-01T01:31:31.000Z</time>
      </trkpt>
      <trkpt lat="42.333614" lon="1.910057">
        <ele>2161.3</ele>
        <time>1970-01-01T01:31:32.000Z</time>
      </trkpt>
      <trkpt lat="42.333618" lon="1.910077">
        <ele>2160.7</ele>
        <time>1970-01-01T01:31:33.000Z</time>
      </trkpt>
      <trkpt lat="42.333614" lon="1.910096">
        <ele>2160.7</ele>
        <time>1970-01-01T01:31:34.000Z</time>
      </trkpt>
      <trkpt lat="42.333607" lon="1.910115">
        <ele>2163.1</ele>
        <time>1970-01-01T01:31:35.000Z</time>
      </trkpt>
      <trkpt lat="42.333607" lon="1.910136">
        <ele>2162.3</ele>
        <time>1970-01-01T01:31:36.000Z</time>
      </trkpt>
      <trkpt lat="42.333595" lon="1.910159">
        <ele>2162.4</ele>
        <time>1970-01-01T01:31:37.000Z</time>
      </trkpt>
      <trkpt lat="42.333588" lon="1.91018">
        <ele>2161.6</ele>
        <time>1970-01-01T01:31:38.000Z</time>
      </trkpt>
      <trkpt lat="42.33358" lon="1.910199">
        <ele>2163.8</ele>
        <time>1970-01-01T01:31:39.000Z</time>
      </trkpt>
      <trkpt lat="42.333569" lon="1.910216">
        <ele>2163</ele>
        <time>1970-01-01T01:31:40.000Z</time>
      </trkpt>
      <trkpt lat="42.333561" lon="1.910236">
        <ele>2163.1</ele>
        <time>1970-01-01T01:31:41.000Z</time>
      </trkpt>
      <trkpt lat="42.333549" lon="1.910256">
        <ele>2164.3</ele>
        <time>1970-01-01T01:31:42.000Z</time>
      </trkpt>
      <trkpt lat="42.333538" lon="1.910274">
        <ele>2164.3</ele>
        <time>1970-01-01T01:31:43.000Z</time>
      </trkpt>
      <trkpt lat="42.333527" lon="1.910293">
        <ele>2164.5</ele>
        <time>1970-01-01T01:31:44.000Z</time>
      </trkpt>
      <trkpt lat="42.333515" lon="1.910312">
        <ele>2164.6</ele>
        <time>1970-01-01T01:31:45.000Z</time>
      </trkpt>
      <trkpt lat="42.333508" lon="1.910331">
        <ele>2164.8</ele>
        <time>1970-01-01T01:31:46.000Z</time>
      </trkpt>
      <trkpt lat="42.333496" lon="1.910349">
        <ele>2164.9</ele>
        <time>1970-01-01T01:31:47.000Z</time>
      </trkpt>
      <trkpt lat="42.333481" lon="1.910367">
        <ele>2165.1</ele>
        <time>1970-01-01T01:31:48.000Z</time>
      </trkpt>
      <trkpt lat="42.333469" lon="1.910384">
        <ele>2165.3</ele>
        <time>1970-01-01T01:31:49.000Z</time>
      </trkpt>
      <trkpt lat="42.333462" lon="1.910396">
        <ele>2165.4</ele>
        <time>1970-01-01T01:31:50.000Z</time>
      </trkpt>
      <trkpt lat="42.33345" lon="1.910407">
        <ele>2165.5</ele>
        <time>1970-01-01T01:31:51.000Z</time>
      </trkpt>
      <trkpt lat="42.333435" lon="1.91042">
        <ele>2165.7</ele>
        <time>1970-01-01T01:31:52.000Z</time>
      </trkpt>
      <trkpt lat="42.333424" lon="1.910436">
        <ele>2165.9</ele>
        <time>1970-01-01T01:31:53.000Z</time>
      </trkpt>
      <trkpt lat="42.333412" lon="1.910452">
        <ele>2166</ele>
        <time>1970-01-01T01:31:54.000Z</time>
      </trkpt>
      <trkpt lat="42.333401" lon="1.910466">
        <ele>2166.2</ele>
        <time>1970-01-01T01:31:55.000Z</time>
      </trkpt>
      <trkpt lat="42.333389" lon="1.91048">
        <ele>2166.3</ele>
        <time>1970-01-01T01:31:56.000Z</time>
      </trkpt>
      <trkpt lat="42.333378" lon="1.910491">
        <ele>2166.5</ele>
        <time>1970-01-01T01:31:57.000Z</time>
      </trkpt>
      <trkpt lat="42.33337" lon="1.910502">
        <ele>2166.6</ele>
        <time>1970-01-01T01:31:58.000Z</time>
      </trkpt>
      <trkpt lat="42.333359" lon="1.910515">
        <ele>2166.7</ele>
        <time>1970-01-01T01:31:59.000Z</time>
      </trkpt>
      <trkpt lat="42.333344" lon="1.910527">
        <ele>2166.9</ele>
        <time>1970-01-01T01:32:00.000Z</time>
      </trkpt>
      <trkpt lat="42.333332" lon="1.910538">
        <ele>2167</ele>
        <time>1970-01-01T01:32:01.000Z</time>
      </trkpt>
      <trkpt lat="42.333313" lon="1.910549">
        <ele>2167.2</ele>
        <time>1970-01-01T01:32:02.000Z</time>
      </trkpt>
      <trkpt lat="42.333298" lon="1.91056">
        <ele>2167.4</ele>
        <time>1970-01-01T01:32:03.000Z</time>
      </trkpt>
      <trkpt lat="42.33329" lon="1.910574">
        <ele>2167.5</ele>
        <time>1970-01-01T01:32:04.000Z</time>
      </trkpt>
      <trkpt lat="42.333275" lon="1.910585">
        <ele>2167.7</ele>
        <time>1970-01-01T01:32:05.000Z</time>
      </trkpt>
      <trkpt lat="42.33326" lon="1.910594">
        <ele>2167.9</ele>
        <time>1970-01-01T01:32:06.000Z</time>
      </trkpt>
      <trkpt lat="42.333244" lon="1.910601">
        <ele>2168</ele>
        <time>1970-01-01T01:32:07.000Z</time>
      </trkpt>
      <trkpt lat="42.333225" lon="1.910609">
        <ele>2168.2</ele>
        <time>1970-01-01T01:32:08.000Z</time>
      </trkpt>
      <trkpt lat="42.33321" lon="1.910613">
        <ele>2168.4</ele>
        <time>1970-01-01T01:32:09.000Z</time>
      </trkpt>
      <trkpt lat="42.333195" lon="1.910621">
        <ele>2168.5</ele>
        <time>1970-01-01T01:32:10.000Z</time>
      </trkpt>
      <trkpt lat="42.333179" lon="1.910628">
        <ele>2168.7</ele>
        <time>1970-01-01T01:32:11.000Z</time>
      </trkpt>
      <trkpt lat="42.333164" lon="1.910634">
        <ele>2168.8</ele>
        <time>1970-01-01T01:32:12.000Z</time>
      </trkpt>
      <trkpt lat="42.333149" lon="1.910642">
        <ele>2169</ele>
        <time>1970-01-01T01:32:13.000Z</time>
      </trkpt>
      <trkpt lat="42.33313" lon="1.910651">
        <ele>2169.2</ele>
        <time>1970-01-01T01:32:14.000Z</time>
      </trkpt>
      <trkpt lat="42.333115" lon="1.91066">
        <ele>2169.3</ele>
        <time>1970-01-01T01:32:15.000Z</time>
      </trkpt>
      <trkpt lat="42.333099" lon="1.91067">
        <ele>2169.5</ele>
        <time>1970-01-01T01:32:16.000Z</time>
      </trkpt>
      <trkpt lat="42.33308" lon="1.910676">
        <ele>2169.6</ele>
        <time>1970-01-01T01:32:17.000Z</time>
      </trkpt>
      <trkpt lat="42.333065" lon="1.910681">
        <ele>2169.8</ele>
        <time>1970-01-01T01:32:18.000Z</time>
      </trkpt>
      <trkpt lat="42.33305" lon="1.910687">
        <ele>2169.9</ele>
        <time>1970-01-01T01:32:19.000Z</time>
      </trkpt>
      <trkpt lat="42.333034" lon="1.91069">
        <ele>2170</ele>
        <time>1970-01-01T01:32:20.000Z</time>
      </trkpt>
      <trkpt lat="42.333019" lon="1.910694">
        <ele>2170.1</ele>
        <time>1970-01-01T01:32:21.000Z</time>
      </trkpt>
      <trkpt lat="42.333004" lon="1.910699">
        <ele>2170.3</ele>
        <time>1970-01-01T01:32:22.000Z</time>
      </trkpt>
      <trkpt lat="42.332985" lon="1.910704">
        <ele>2170.4</ele>
        <time>1970-01-01T01:32:23.000Z</time>
      </trkpt>
      <trkpt lat="42.33297" lon="1.910708">
        <ele>2170.6</ele>
        <time>1970-01-01T01:32:24.000Z</time>
      </trkpt>
      <trkpt lat="42.332954" lon="1.910712">
        <ele>2170.7</ele>
        <time>1970-01-01T01:32:25.000Z</time>
      </trkpt>
      <trkpt lat="42.332939" lon="1.910719">
        <ele>2170.8</ele>
        <time>1970-01-01T01:32:26.000Z</time>
      </trkpt>
      <trkpt lat="42.332924" lon="1.910724">
        <ele>2171</ele>
        <time>1970-01-01T01:32:27.000Z</time>
      </trkpt>
      <trkpt lat="42.332909" lon="1.910729">
        <ele>2171.1</ele>
        <time>1970-01-01T01:32:28.000Z</time>
      </trkpt>
      <trkpt lat="42.33289" lon="1.910742">
        <ele>2171.3</ele>
        <time>1970-01-01T01:32:29.000Z</time>
      </trkpt>
      <trkpt lat="42.332874" lon="1.910752">
        <ele>2171.4</ele>
        <time>1970-01-01T01:32:30.000Z</time>
      </trkpt>
      <trkpt lat="42.332859" lon="1.910764">
        <ele>2171.6</ele>
        <time>1970-01-01T01:32:31.000Z</time>
      </trkpt>
      <trkpt lat="42.33284" lon="1.910774">
        <ele>2171.8</ele>
        <time>1970-01-01T01:32:32.000Z</time>
      </trkpt>
      <trkpt lat="42.332825" lon="1.910781">
        <ele>2171.9</ele>
        <time>1970-01-01T01:32:33.000Z</time>
      </trkpt>
      <trkpt lat="42.332809" lon="1.910787">
        <ele>2172.1</ele>
        <time>1970-01-01T01:32:34.000Z</time>
      </trkpt>
      <trkpt lat="42.332794" lon="1.910791">
        <ele>2172.2</ele>
        <time>1970-01-01T01:32:35.000Z</time>
      </trkpt>
      <trkpt lat="42.332779" lon="1.910793">
        <ele>2172.4</ele>
        <time>1970-01-01T01:32:36.000Z</time>
      </trkpt>
      <trkpt lat="42.33276" lon="1.910792">
        <ele>2172.5</ele>
        <time>1970-01-01T01:32:37.000Z</time>
      </trkpt>
      <trkpt lat="42.332745" lon="1.910792">
        <ele>2172.7</ele>
        <time>1970-01-01T01:32:38.000Z</time>
      </trkpt>
      <trkpt lat="42.332729" lon="1.910794">
        <ele>2172.8</ele>
        <time>1970-01-01T01:32:39.000Z</time>
      </trkpt>
      <trkpt lat="42.332714" lon="1.910796">
        <ele>2173</ele>
        <time>1970-01-01T01:32:40.000Z</time>
      </trkpt>
      <trkpt lat="42.332699" lon="1.910799">
        <ele>2173.1</ele>
        <time>1970-01-01T01:32:41.000Z</time>
      </trkpt>
      <trkpt lat="42.33268" lon="1.910801">
        <ele>2173.3</ele>
        <time>1970-01-01T01:32:42.000Z</time>
      </trkpt>
      <trkpt lat="42.332661" lon="1.910802">
        <ele>2173.5</ele>
        <time>1970-01-01T01:32:43.000Z</time>
      </trkpt>
      <trkpt lat="42.332645" lon="1.9108">
        <ele>2173.7</ele>
        <time>1970-01-01T01:32:44.000Z</time>
      </trkpt>
      <trkpt lat="42.332626" lon="1.910799">
        <ele>2173.8</ele>
        <time>1970-01-01T01:32:45.000Z</time>
      </trkpt>
      <trkpt lat="42.332611" lon="1.9108">
        <ele>2174</ele>
        <time>1970-01-01T01:32:46.000Z</time>
      </trkpt>
      <trkpt lat="42.332592" lon="1.910801">
        <ele>2174.2</ele>
        <time>1970-01-01T01:32:47.000Z</time>
      </trkpt>
      <trkpt lat="42.332573" lon="1.910802">
        <ele>2174.4</ele>
        <time>1970-01-01T01:32:48.000Z</time>
      </trkpt>
      <trkpt lat="42.332561" lon="1.910802">
        <ele>2174.5</ele>
        <time>1970-01-01T01:32:49.000Z</time>
      </trkpt>
      <trkpt lat="42.332546" lon="1.9108">
        <ele>2174.7</ele>
        <time>1970-01-01T01:32:50.000Z</time>
      </trkpt>
      <trkpt lat="42.332527" lon="1.910803">
        <ele>2174.9</ele>
        <time>1970-01-01T01:32:51.000Z</time>
      </trkpt>
      <trkpt lat="42.332512" lon="1.910802">
        <ele>2175</ele>
        <time>1970-01-01T01:32:52.000Z</time>
      </trkpt>
      <trkpt lat="42.3325" lon="1.910802">
        <ele>2175.1</ele>
        <time>1970-01-01T01:32:53.000Z</time>
      </trkpt>
      <trkpt lat="42.332481" lon="1.910803">
        <ele>2175.3</ele>
        <time>1970-01-01T01:32:54.000Z</time>
      </trkpt>
      <trkpt lat="42.332462" lon="1.910803">
        <ele>2175.5</ele>
        <time>1970-01-01T01:32:55.000Z</time>
      </trkpt>
      <trkpt lat="42.332443" lon="1.910805">
        <ele>2175.7</ele>
        <time>1970-01-01T01:32:56.000Z</time>
      </trkpt>
      <trkpt lat="42.332428" lon="1.910811">
        <ele>2175.8</ele>
        <time>1970-01-01T01:32:57.000Z</time>
      </trkpt>
      <trkpt lat="42.332409" lon="1.910815">
        <ele>2176</ele>
        <time>1970-01-01T01:32:58.000Z</time>
      </trkpt>
      <trkpt lat="42.332394" lon="1.910814">
        <ele>2176.2</ele>
        <time>1970-01-01T01:32:59.000Z</time>
      </trkpt>
      <trkpt lat="42.332378" lon="1.91081">
        <ele>2176.3</ele>
        <time>1970-01-01T01:33:00.000Z</time>
      </trkpt>
      <trkpt lat="42.332367" lon="1.910807">
        <ele>2176.4</ele>
        <time>1970-01-01T01:33:01.000Z</time>
      </trkpt>
      <trkpt lat="42.332352" lon="1.910805">
        <ele>2176.6</ele>
        <time>1970-01-01T01:33:02.000Z</time>
      </trkpt>
      <trkpt lat="42.332333" lon="1.910806">
        <ele>2176.7</ele>
        <time>1970-01-01T01:33:03.000Z</time>
      </trkpt>
      <trkpt lat="42.332317" lon="1.910807">
        <ele>2176.9</ele>
        <time>1970-01-01T01:33:04.000Z</time>
      </trkpt>
      <trkpt lat="42.332298" lon="1.910804">
        <ele>2177.1</ele>
        <time>1970-01-01T01:33:05.000Z</time>
      </trkpt>
      <trkpt lat="42.332283" lon="1.910799">
        <ele>2177.2</ele>
        <time>1970-01-01T01:33:06.000Z</time>
      </trkpt>
      <trkpt lat="42.332264" lon="1.910794">
        <ele>2177.4</ele>
        <time>1970-01-01T01:33:07.000Z</time>
      </trkpt>
      <trkpt lat="42.332249" lon="1.91079">
        <ele>2177.6</ele>
        <time>1970-01-01T01:33:08.000Z</time>
      </trkpt>
      <trkpt lat="42.33223" lon="1.910789">
        <ele>2177.8</ele>
        <time>1970-01-01T01:33:09.000Z</time>
      </trkpt>
      <trkpt lat="42.332211" lon="1.910784">
        <ele>2178</ele>
        <time>1970-01-01T01:33:10.000Z</time>
      </trkpt>
      <trkpt lat="42.332195" lon="1.91078">
        <ele>2178.1</ele>
        <time>1970-01-01T01:33:11.000Z</time>
      </trkpt>
      <trkpt lat="42.33218" lon="1.910777">
        <ele>2178.3</ele>
        <time>1970-01-01T01:33:12.000Z</time>
      </trkpt>
      <trkpt lat="42.332165" lon="1.910775">
        <ele>2178.4</ele>
        <time>1970-01-01T01:33:13.000Z</time>
      </trkpt>
      <trkpt lat="42.33215" lon="1.910775">
        <ele>2178.6</ele>
        <time>1970-01-01T01:33:14.000Z</time>
      </trkpt>
      <trkpt lat="42.332138" lon="1.910769">
        <ele>2178.7</ele>
        <time>1970-01-01T01:33:15.000Z</time>
      </trkpt>
      <trkpt lat="42.332123" lon="1.910759">
        <ele>2178.9</ele>
        <time>1970-01-01T01:33:16.000Z</time>
      </trkpt>
      <trkpt lat="42.332108" lon="1.910748">
        <ele>2179</ele>
        <time>1970-01-01T01:33:17.000Z</time>
      </trkpt>
      <trkpt lat="42.332089" lon="1.910739">
        <ele>2179.2</ele>
        <time>1970-01-01T01:33:18.000Z</time>
      </trkpt>
      <trkpt lat="42.332073" lon="1.910734">
        <ele>2179.4</ele>
        <time>1970-01-01T01:33:19.000Z</time>
      </trkpt>
      <trkpt lat="42.332058" lon="1.910726">
        <ele>2179.5</ele>
        <time>1970-01-01T01:33:20.000Z</time>
      </trkpt>
      <trkpt lat="42.332039" lon="1.910716">
        <ele>2179.7</ele>
        <time>1970-01-01T01:33:21.000Z</time>
      </trkpt>
      <trkpt lat="42.332016" lon="1.910709">
        <ele>2179.9</ele>
        <time>1970-01-01T01:33:22.000Z</time>
      </trkpt>
      <trkpt lat="42.331997" lon="1.910705">
        <ele>2180.1</ele>
        <time>1970-01-01T01:33:23.000Z</time>
      </trkpt>
      <trkpt lat="42.331978" lon="1.910702">
        <ele>2180.3</ele>
        <time>1970-01-01T01:33:24.000Z</time>
      </trkpt>
      <trkpt lat="42.331959" lon="1.910697">
        <ele>2180.5</ele>
        <time>1970-01-01T01:33:25.000Z</time>
      </trkpt>
      <trkpt lat="42.33194" lon="1.910694">
        <ele>2180.6</ele>
        <time>1970-01-01T01:33:26.000Z</time>
      </trkpt>
      <trkpt lat="42.331921" lon="1.910693">
        <ele>2180.8</ele>
        <time>1970-01-01T01:33:27.000Z</time>
      </trkpt>
      <trkpt lat="42.331902" lon="1.910699">
        <ele>2181</ele>
        <time>1970-01-01T01:33:28.000Z</time>
      </trkpt>
      <trkpt lat="42.331882" lon="1.910707">
        <ele>2181.2</ele>
        <time>1970-01-01T01:33:29.000Z</time>
      </trkpt>
      <trkpt lat="42.331867" lon="1.910714">
        <ele>2181.3</ele>
        <time>1970-01-01T01:33:30.000Z</time>
      </trkpt>
      <trkpt lat="42.331848" lon="1.910719">
        <ele>2181.5</ele>
        <time>1970-01-01T01:33:31.000Z</time>
      </trkpt>
      <trkpt lat="42.331833" lon="1.910729">
        <ele>2181.6</ele>
        <time>1970-01-01T01:33:32.000Z</time>
      </trkpt>
      <trkpt lat="42.331814" lon="1.91074">
        <ele>2181.8</ele>
        <time>1970-01-01T01:33:33.000Z</time>
      </trkpt>
      <trkpt lat="42.331799" lon="1.910752">
        <ele>2181.9</ele>
        <time>1970-01-01T01:33:34.000Z</time>
      </trkpt>
      <trkpt lat="42.331787" lon="1.910758">
        <ele>2182</ele>
        <time>1970-01-01T01:33:35.000Z</time>
      </trkpt>
      <trkpt lat="42.331768" lon="1.91076">
        <ele>2182.2</ele>
        <time>1970-01-01T01:33:36.000Z</time>
      </trkpt>
      <trkpt lat="42.331753" lon="1.910764">
        <ele>2182.3</ele>
        <time>1970-01-01T01:33:37.000Z</time>
      </trkpt>
      <trkpt lat="42.331734" lon="1.910766">
        <ele>2182.5</ele>
        <time>1970-01-01T01:33:38.000Z</time>
      </trkpt>
      <trkpt lat="42.331718" lon="1.910757">
        <ele>2182.6</ele>
        <time>1970-01-01T01:33:39.000Z</time>
      </trkpt>
      <trkpt lat="42.331711" lon="1.910738">
        <ele>2182.7</ele>
        <time>1970-01-01T01:33:40.000Z</time>
      </trkpt>
      <trkpt lat="42.331703" lon="1.91072">
        <ele>2182.9</ele>
        <time>1970-01-01T01:33:41.000Z</time>
      </trkpt>
      <trkpt lat="42.331715" lon="1.910698">
        <ele>2183</ele>
        <time>1970-01-01T01:33:42.000Z</time>
      </trkpt>
      <trkpt lat="42.331726" lon="1.910679">
        <ele>2183.2</ele>
        <time>1970-01-01T01:33:43.000Z</time>
      </trkpt>
      <trkpt lat="42.331738" lon="1.910664">
        <ele>2183.3</ele>
        <time>1970-01-01T01:33:44.000Z</time>
      </trkpt>
      <trkpt lat="42.331753" lon="1.910653">
        <ele>2183.5</ele>
        <time>1970-01-01T01:33:45.000Z</time>
      </trkpt>
      <trkpt lat="42.331768" lon="1.910646">
        <ele>2183.6</ele>
        <time>1970-01-01T01:33:46.000Z</time>
      </trkpt>
      <trkpt lat="42.331783" lon="1.910644">
        <ele>2183.7</ele>
        <time>1970-01-01T01:33:47.000Z</time>
      </trkpt>
      <trkpt lat="42.331806" lon="1.91064">
        <ele>2183.9</ele>
        <time>1970-01-01T01:33:48.000Z</time>
      </trkpt>
      <trkpt lat="42.331825" lon="1.910636">
        <ele>2184.1</ele>
        <time>1970-01-01T01:33:49.000Z</time>
      </trkpt>
      <trkpt lat="42.331844" lon="1.910629">
        <ele>2184.2</ele>
        <time>1970-01-01T01:33:50.000Z</time>
      </trkpt>
      <trkpt lat="42.33186" lon="1.91062">
        <ele>2184.4</ele>
        <time>1970-01-01T01:33:51.000Z</time>
      </trkpt>
      <trkpt lat="42.331879" lon="1.910612">
        <ele>2184.5</ele>
        <time>1970-01-01T01:33:52.000Z</time>
      </trkpt>
      <trkpt lat="42.331898" lon="1.910606">
        <ele>2184.7</ele>
        <time>1970-01-01T01:33:53.000Z</time>
      </trkpt>
      <trkpt lat="42.331921" lon="1.910598">
        <ele>2184.9</ele>
        <time>1970-01-01T01:33:54.000Z</time>
      </trkpt>
      <trkpt lat="42.33194" lon="1.910588">
        <ele>2185</ele>
        <time>1970-01-01T01:33:55.000Z</time>
      </trkpt>
      <trkpt lat="42.331959" lon="1.910579">
        <ele>2185.2</ele>
        <time>1970-01-01T01:33:56.000Z</time>
      </trkpt>
      <trkpt lat="42.331974" lon="1.91057">
        <ele>2185.3</ele>
        <time>1970-01-01T01:33:57.000Z</time>
      </trkpt>
      <trkpt lat="42.331993" lon="1.91056">
        <ele>2185.5</ele>
        <time>1970-01-01T01:33:58.000Z</time>
      </trkpt>
      <trkpt lat="42.332012" lon="1.91055">
        <ele>2185.7</ele>
        <time>1970-01-01T01:33:59.000Z</time>
      </trkpt>
      <trkpt lat="42.332031" lon="1.910538">
        <ele>2185.8</ele>
        <time>1970-01-01T01:34:00.000Z</time>
      </trkpt>
      <trkpt lat="42.332047" lon="1.91053">
        <ele>2186</ele>
        <time>1970-01-01T01:34:01.000Z</time>
      </trkpt>
      <trkpt lat="42.332062" lon="1.910524">
        <ele>2186.1</ele>
        <time>1970-01-01T01:34:02.000Z</time>
      </trkpt>
      <trkpt lat="42.332085" lon="1.91052">
        <ele>2186.3</ele>
        <time>1970-01-01T01:34:03.000Z</time>
      </trkpt>
      <trkpt lat="42.3321" lon="1.910514">
        <ele>2186.4</ele>
        <time>1970-01-01T01:34:04.000Z</time>
      </trkpt>
      <trkpt lat="42.332119" lon="1.910506">
        <ele>2186.6</ele>
        <time>1970-01-01T01:34:05.000Z</time>
      </trkpt>
      <trkpt lat="42.332134" lon="1.9105">
        <ele>2186.7</ele>
        <time>1970-01-01T01:34:06.000Z</time>
      </trkpt>
      <trkpt lat="42.332153" lon="1.910497">
        <ele>2186.9</ele>
        <time>1970-01-01T01:34:07.000Z</time>
      </trkpt>
      <trkpt lat="42.332172" lon="1.910498">
        <ele>2187.1</ele>
        <time>1970-01-01T01:34:08.000Z</time>
      </trkpt>
      <trkpt lat="42.332195" lon="1.910501">
        <ele>2187.3</ele>
        <time>1970-01-01T01:34:09.000Z</time>
      </trkpt>
      <trkpt lat="42.332214" lon="1.910502">
        <ele>2187.4</ele>
        <time>1970-01-01T01:34:10.000Z</time>
      </trkpt>
      <trkpt lat="42.33223" lon="1.910494">
        <ele>2187.6</ele>
        <time>1970-01-01T01:34:11.000Z</time>
      </trkpt>
      <trkpt lat="42.332245" lon="1.910488">
        <ele>2187.7</ele>
        <time>1970-01-01T01:34:12.000Z</time>
      </trkpt>
      <trkpt lat="42.33226" lon="1.910484">
        <ele>2187.8</ele>
        <time>1970-01-01T01:34:13.000Z</time>
      </trkpt>
      <trkpt lat="42.332275" lon="1.910479">
        <ele>2187.9</ele>
        <time>1970-01-01T01:34:14.000Z</time>
      </trkpt>
      <trkpt lat="42.332287" lon="1.910471">
        <ele>2188.1</ele>
        <time>1970-01-01T01:34:15.000Z</time>
      </trkpt>
      <trkpt lat="42.332306" lon="1.91046">
        <ele>2188.3</ele>
        <time>1970-01-01T01:34:16.000Z</time>
      </trkpt>
      <trkpt lat="42.332325" lon="1.910451">
        <ele>2188.4</ele>
        <time>1970-01-01T01:34:17.000Z</time>
      </trkpt>
      <trkpt lat="42.33234" lon="1.910441">
        <ele>2188.6</ele>
        <time>1970-01-01T01:34:18.000Z</time>
      </trkpt>
      <trkpt lat="42.332355" lon="1.91043">
        <ele>2188.7</ele>
        <time>1970-01-01T01:34:19.000Z</time>
      </trkpt>
      <trkpt lat="42.332371" lon="1.910419">
        <ele>2188.9</ele>
        <time>1970-01-01T01:34:20.000Z</time>
      </trkpt>
      <trkpt lat="42.332386" lon="1.910404">
        <ele>2189.1</ele>
        <time>1970-01-01T01:34:21.000Z</time>
      </trkpt>
      <trkpt lat="42.332405" lon="1.910393">
        <ele>2189.3</ele>
        <time>1970-01-01T01:34:22.000Z</time>
      </trkpt>
      <trkpt lat="42.332417" lon="1.910385">
        <ele>2189.4</ele>
        <time>1970-01-01T01:34:23.000Z</time>
      </trkpt>
      <trkpt lat="42.332436" lon="1.910372">
        <ele>2189.6</ele>
        <time>1970-01-01T01:34:24.000Z</time>
      </trkpt>
      <trkpt lat="42.332451" lon="1.910361">
        <ele>2189.8</ele>
        <time>1970-01-01T01:34:25.000Z</time>
      </trkpt>
      <trkpt lat="42.332466" lon="1.91035">
        <ele>2189.9</ele>
        <time>1970-01-01T01:34:26.000Z</time>
      </trkpt>
      <trkpt lat="42.332485" lon="1.91034">
        <ele>2190.1</ele>
        <time>1970-01-01T01:34:27.000Z</time>
      </trkpt>
      <trkpt lat="42.3325" lon="1.910331">
        <ele>2190.3</ele>
        <time>1970-01-01T01:34:28.000Z</time>
      </trkpt>
      <trkpt lat="42.332512" lon="1.91032">
        <ele>2190.5</ele>
        <time>1970-01-01T01:34:29.000Z</time>
      </trkpt>
      <trkpt lat="42.332527" lon="1.910307">
        <ele>2190.6</ele>
        <time>1970-01-01T01:34:30.000Z</time>
      </trkpt>
      <trkpt lat="42.332542" lon="1.910295">
        <ele>2190.8</ele>
        <time>1970-01-01T01:34:31.000Z</time>
      </trkpt>
      <trkpt lat="42.332554" lon="1.910283">
        <ele>2191</ele>
        <time>1970-01-01T01:34:32.000Z</time>
      </trkpt>
      <trkpt lat="42.332569" lon="1.910269">
        <ele>2191.1</ele>
        <time>1970-01-01T01:34:33.000Z</time>
      </trkpt>
      <trkpt lat="42.332581" lon="1.910254">
        <ele>2191.3</ele>
        <time>1970-01-01T01:34:34.000Z</time>
      </trkpt>
      <trkpt lat="42.332596" lon="1.910242">
        <ele>2191.5</ele>
        <time>1970-01-01T01:34:35.000Z</time>
      </trkpt>
      <trkpt lat="42.332611" lon="1.910233">
        <ele>2191.6</ele>
        <time>1970-01-01T01:34:36.000Z</time>
      </trkpt>
      <trkpt lat="42.33263" lon="1.910223">
        <ele>2191.8</ele>
        <time>1970-01-01T01:34:37.000Z</time>
      </trkpt>
      <trkpt lat="42.332645" lon="1.910212">
        <ele>2192</ele>
        <time>1970-01-01T01:34:38.000Z</time>
      </trkpt>
      <trkpt lat="42.332665" lon="1.910203">
        <ele>2192.2</ele>
        <time>1970-01-01T01:34:39.000Z</time>
      </trkpt>
      <trkpt lat="42.332684" lon="1.910195">
        <ele>2192.4</ele>
        <time>1970-01-01T01:34:40.000Z</time>
      </trkpt>
      <trkpt lat="42.332699" lon="1.910183">
        <ele>2192.5</ele>
        <time>1970-01-01T01:34:41.000Z</time>
      </trkpt>
      <trkpt lat="42.332718" lon="1.910173">
        <ele>2192.7</ele>
        <time>1970-01-01T01:34:42.000Z</time>
      </trkpt>
      <trkpt lat="42.332733" lon="1.910159">
        <ele>2192.9</ele>
        <time>1970-01-01T01:34:43.000Z</time>
      </trkpt>
      <trkpt lat="42.332745" lon="1.910147">
        <ele>2193</ele>
        <time>1970-01-01T01:34:44.000Z</time>
      </trkpt>
      <trkpt lat="42.33276" lon="1.910135">
        <ele>2193.2</ele>
        <time>1970-01-01T01:34:45.000Z</time>
      </trkpt>
      <trkpt lat="42.332779" lon="1.910123">
        <ele>2193.4</ele>
        <time>1970-01-01T01:34:46.000Z</time>
      </trkpt>
      <trkpt lat="42.332794" lon="1.910111">
        <ele>2193.6</ele>
        <time>1970-01-01T01:34:47.000Z</time>
      </trkpt>
      <trkpt lat="42.332809" lon="1.910101">
        <ele>2193.7</ele>
        <time>1970-01-01T01:34:48.000Z</time>
      </trkpt>
      <trkpt lat="42.332825" lon="1.910087">
        <ele>2193.9</ele>
        <time>1970-01-01T01:34:49.000Z</time>
      </trkpt>
      <trkpt lat="42.33284" lon="1.910072">
        <ele>2194.1</ele>
        <time>1970-01-01T01:34:50.000Z</time>
      </trkpt>
      <trkpt lat="42.332851" lon="1.910051">
        <ele>2194.3</ele>
        <time>1970-01-01T01:34:51.000Z</time>
      </trkpt>
      <trkpt lat="42.332867" lon="1.910032">
        <ele>2194.5</ele>
        <time>1970-01-01T01:34:52.000Z</time>
      </trkpt>
      <trkpt lat="42.332878" lon="1.910018">
        <ele>2194.6</ele>
        <time>1970-01-01T01:34:53.000Z</time>
      </trkpt>
      <trkpt lat="42.332893" lon="1.910006">
        <ele>2194.8</ele>
        <time>1970-01-01T01:34:54.000Z</time>
      </trkpt>
      <trkpt lat="42.332912" lon="1.909993">
        <ele>2195</ele>
        <time>1970-01-01T01:34:55.000Z</time>
      </trkpt>
      <trkpt lat="42.332928" lon="1.909979">
        <ele>2195.2</ele>
        <time>1970-01-01T01:34:56.000Z</time>
      </trkpt>
      <trkpt lat="42.332943" lon="1.909964">
        <ele>2195.4</ele>
        <time>1970-01-01T01:34:57.000Z</time>
      </trkpt>
      <trkpt lat="42.332943" lon="1.909948">
        <ele>2195.5</ele>
        <time>1970-01-01T01:34:58.000Z</time>
      </trkpt>
      <trkpt lat="42.332932" lon="1.909925">
        <ele>2195.7</ele>
        <time>1970-01-01T01:34:59.000Z</time>
      </trkpt>
      <trkpt lat="42.33292" lon="1.909906">
        <ele>2195.9</ele>
        <time>1970-01-01T01:35:00.000Z</time>
      </trkpt>
      <trkpt lat="42.332905" lon="1.909896">
        <ele>2196.1</ele>
        <time>1970-01-01T01:35:01.000Z</time>
      </trkpt>
      <trkpt lat="42.332882" lon="1.909889">
        <ele>2196.3</ele>
        <time>1970-01-01T01:35:02.000Z</time>
      </trkpt>
      <trkpt lat="42.332863" lon="1.909894">
        <ele>2196.5</ele>
        <time>1970-01-01T01:35:03.000Z</time>
      </trkpt>
      <trkpt lat="42.332844" lon="1.909901">
        <ele>2196.7</ele>
        <time>1970-01-01T01:35:04.000Z</time>
      </trkpt>
      <trkpt lat="42.332832" lon="1.90991">
        <ele>2196.8</ele>
        <time>1970-01-01T01:35:05.000Z</time>
      </trkpt>
      <trkpt lat="42.332817" lon="1.909926">
        <ele>2197</ele>
        <time>1970-01-01T01:35:06.000Z</time>
      </trkpt>
      <trkpt lat="42.332802" lon="1.909942">
        <ele>2197.2</ele>
        <time>1970-01-01T01:35:07.000Z</time>
      </trkpt>
      <trkpt lat="42.33279" lon="1.909955">
        <ele>2197.4</ele>
        <time>1970-01-01T01:35:08.000Z</time>
      </trkpt>
      <trkpt lat="42.332779" lon="1.909966">
        <ele>2197.5</ele>
        <time>1970-01-01T01:35:09.000Z</time>
      </trkpt>
      <trkpt lat="42.33276" lon="1.909971">
        <ele>2197.7</ele>
        <time>1970-01-01T01:35:10.000Z</time>
      </trkpt>
      <trkpt lat="42.332741" lon="1.909973">
        <ele>2197.9</ele>
        <time>1970-01-01T01:35:11.000Z</time>
      </trkpt>
      <trkpt lat="42.332722" lon="1.909978">
        <ele>2198.1</ele>
        <time>1970-01-01T01:35:12.000Z</time>
      </trkpt>
      <trkpt lat="42.332703" lon="1.909978">
        <ele>2198.2</ele>
        <time>1970-01-01T01:35:13.000Z</time>
      </trkpt>
      <trkpt lat="42.332684" lon="1.909977">
        <ele>2198.4</ele>
        <time>1970-01-01T01:35:14.000Z</time>
      </trkpt>
      <trkpt lat="42.332665" lon="1.909975">
        <ele>2198.6</ele>
        <time>1970-01-01T01:35:15.000Z</time>
      </trkpt>
      <trkpt lat="42.332645" lon="1.909974">
        <ele>2198.8</ele>
        <time>1970-01-01T01:35:16.000Z</time>
      </trkpt>
      <trkpt lat="42.332623" lon="1.909973">
        <ele>2199</ele>
        <time>1970-01-01T01:35:17.000Z</time>
      </trkpt>
      <trkpt lat="42.332607" lon="1.909972">
        <ele>2199.2</ele>
        <time>1970-01-01T01:35:18.000Z</time>
      </trkpt>
      <trkpt lat="42.332584" lon="1.90997">
        <ele>2199.4</ele>
        <time>1970-01-01T01:35:19.000Z</time>
      </trkpt>
      <trkpt lat="42.332565" lon="1.909969">
        <ele>2199.5</ele>
        <time>1970-01-01T01:35:20.000Z</time>
      </trkpt>
      <trkpt lat="42.332546" lon="1.909966">
        <ele>2199.7</ele>
        <time>1970-01-01T01:35:21.000Z</time>
      </trkpt>
      <trkpt lat="42.332527" lon="1.909962">
        <ele>2199.9</ele>
        <time>1970-01-01T01:35:22.000Z</time>
      </trkpt>
      <trkpt lat="42.332512" lon="1.909956">
        <ele>2200</ele>
        <time>1970-01-01T01:35:23.000Z</time>
      </trkpt>
      <trkpt lat="42.332489" lon="1.909951">
        <ele>2200.2</ele>
        <time>1970-01-01T01:35:24.000Z</time>
      </trkpt>
      <trkpt lat="42.33247" lon="1.909943">
        <ele>2200.4</ele>
        <time>1970-01-01T01:35:25.000Z</time>
      </trkpt>
      <trkpt lat="42.332451" lon="1.90993">
        <ele>2200.5</ele>
        <time>1970-01-01T01:35:26.000Z</time>
      </trkpt>
      <trkpt lat="42.332436" lon="1.909923">
        <ele>2200.7</ele>
        <time>1970-01-01T01:35:27.000Z</time>
      </trkpt>
      <trkpt lat="42.332417" lon="1.909916">
        <ele>2200.8</ele>
        <time>1970-01-01T01:35:28.000Z</time>
      </trkpt>
      <trkpt lat="42.332397" lon="1.909908">
        <ele>2201</ele>
        <time>1970-01-01T01:35:29.000Z</time>
      </trkpt>
      <trkpt lat="42.332378" lon="1.909901">
        <ele>2201.2</ele>
        <time>1970-01-01T01:35:30.000Z</time>
      </trkpt>
      <trkpt lat="42.332359" lon="1.909894">
        <ele>2201.4</ele>
        <time>1970-01-01T01:35:31.000Z</time>
      </trkpt>
      <trkpt lat="42.332344" lon="1.909891">
        <ele>2201.5</ele>
        <time>1970-01-01T01:35:32.000Z</time>
      </trkpt>
      <trkpt lat="42.332325" lon="1.909887">
        <ele>2201.7</ele>
        <time>1970-01-01T01:35:33.000Z</time>
      </trkpt>
      <trkpt lat="42.332306" lon="1.90988">
        <ele>2201.9</ele>
        <time>1970-01-01T01:35:34.000Z</time>
      </trkpt>
      <trkpt lat="42.332287" lon="1.909876">
        <ele>2202</ele>
        <time>1970-01-01T01:35:35.000Z</time>
      </trkpt>
      <trkpt lat="42.332264" lon="1.909876">
        <ele>2202.2</ele>
        <time>1970-01-01T01:35:36.000Z</time>
      </trkpt>
      <trkpt lat="42.332249" lon="1.909873">
        <ele>2202.4</ele>
        <time>1970-01-01T01:35:37.000Z</time>
      </trkpt>
      <trkpt lat="42.332226" lon="1.909869">
        <ele>2202.6</ele>
        <time>1970-01-01T01:35:38.000Z</time>
      </trkpt>
      <trkpt lat="42.332207" lon="1.909866">
        <ele>2202.8</ele>
        <time>1970-01-01T01:35:39.000Z</time>
      </trkpt>
      <trkpt lat="42.332188" lon="1.909862">
        <ele>2202.9</ele>
        <time>1970-01-01T01:35:40.000Z</time>
      </trkpt>
      <trkpt lat="42.332169" lon="1.909856">
        <ele>2203.1</ele>
        <time>1970-01-01T01:35:41.000Z</time>
      </trkpt>
      <trkpt lat="42.33215" lon="1.909852">
        <ele>2203.3</ele>
        <time>1970-01-01T01:35:42.000Z</time>
      </trkpt>
      <trkpt lat="42.33213" lon="1.90985">
        <ele>2203.5</ele>
        <time>1970-01-01T01:35:43.000Z</time>
      </trkpt>
      <trkpt lat="42.332111" lon="1.909853">
        <ele>2203.6</ele>
        <time>1970-01-01T01:35:44.000Z</time>
      </trkpt>
      <trkpt lat="42.332096" lon="1.909855">
        <ele>2203.8</ele>
        <time>1970-01-01T01:35:45.000Z</time>
      </trkpt>
      <trkpt lat="42.332077" lon="1.909852">
        <ele>2203.9</ele>
        <time>1970-01-01T01:35:46.000Z</time>
      </trkpt>
      <trkpt lat="42.332062" lon="1.909852">
        <ele>2204.1</ele>
        <time>1970-01-01T01:35:47.000Z</time>
      </trkpt>
      <trkpt lat="42.332039" lon="1.90985">
        <ele>2204.3</ele>
        <time>1970-01-01T01:35:48.000Z</time>
      </trkpt>
      <trkpt lat="42.332024" lon="1.909847">
        <ele>2204.4</ele>
        <time>1970-01-01T01:35:49.000Z</time>
      </trkpt>
      <trkpt lat="42.332001" lon="1.909845">
        <ele>2204.6</ele>
        <time>1970-01-01T01:35:50.000Z</time>
      </trkpt>
      <trkpt lat="42.331985" lon="1.909845">
        <ele>2204.8</ele>
        <time>1970-01-01T01:35:51.000Z</time>
      </trkpt>
      <trkpt lat="42.331966" lon="1.909846">
        <ele>2204.9</ele>
        <time>1970-01-01T01:35:52.000Z</time>
      </trkpt>
      <trkpt lat="42.331947" lon="1.909848">
        <ele>2205.1</ele>
        <time>1970-01-01T01:35:53.000Z</time>
      </trkpt>
      <trkpt lat="42.331928" lon="1.90985">
        <ele>2205.3</ele>
        <time>1970-01-01T01:35:54.000Z</time>
      </trkpt>
      <trkpt lat="42.331909" lon="1.90985">
        <ele>2205.5</ele>
        <time>1970-01-01T01:35:55.000Z</time>
      </trkpt>
      <trkpt lat="42.33189" lon="1.909851">
        <ele>2205.6</ele>
        <time>1970-01-01T01:35:56.000Z</time>
      </trkpt>
      <trkpt lat="42.331875" lon="1.909854">
        <ele>2205.8</ele>
        <time>1970-01-01T01:35:57.000Z</time>
      </trkpt>
      <trkpt lat="42.331856" lon="1.909855">
        <ele>2205.9</ele>
        <time>1970-01-01T01:35:58.000Z</time>
      </trkpt>
      <trkpt lat="42.33184" lon="1.909856">
        <ele>2206.1</ele>
        <time>1970-01-01T01:35:59.000Z</time>
      </trkpt>
      <trkpt lat="42.331821" lon="1.909859">
        <ele>2206.3</ele>
        <time>1970-01-01T01:36:00.000Z</time>
      </trkpt>
      <trkpt lat="42.331806" lon="1.909864">
        <ele>2206.4</ele>
        <time>1970-01-01T01:36:01.000Z</time>
      </trkpt>
      <trkpt lat="42.331787" lon="1.909868">
        <ele>2206.6</ele>
        <time>1970-01-01T01:36:02.000Z</time>
      </trkpt>
      <trkpt lat="42.331772" lon="1.909871">
        <ele>2206.7</ele>
        <time>1970-01-01T01:36:03.000Z</time>
      </trkpt>
      <trkpt lat="42.331753" lon="1.909874">
        <ele>2206.9</ele>
        <time>1970-01-01T01:36:04.000Z</time>
      </trkpt>
      <trkpt lat="42.331738" lon="1.909882">
        <ele>2207.1</ele>
        <time>1970-01-01T01:36:05.000Z</time>
      </trkpt>
      <trkpt lat="42.331722" lon="1.90989">
        <ele>2207.2</ele>
        <time>1970-01-01T01:36:06.000Z</time>
      </trkpt>
      <trkpt lat="42.331703" lon="1.909896">
        <ele>2207.4</ele>
        <time>1970-01-01T01:36:07.000Z</time>
      </trkpt>
      <trkpt lat="42.331688" lon="1.909902">
        <ele>2207.6</ele>
        <time>1970-01-01T01:36:08.000Z</time>
      </trkpt>
      <trkpt lat="42.331673" lon="1.909908">
        <ele>2207.7</ele>
        <time>1970-01-01T01:36:09.000Z</time>
      </trkpt>
      <trkpt lat="42.331657" lon="1.909916">
        <ele>2207.9</ele>
        <time>1970-01-01T01:36:10.000Z</time>
      </trkpt>
      <trkpt lat="42.331642" lon="1.909925">
        <ele>2208.1</ele>
        <time>1970-01-01T01:36:11.000Z</time>
      </trkpt>
      <trkpt lat="42.331627" lon="1.909934">
        <ele>2208.2</ele>
        <time>1970-01-01T01:36:12.000Z</time>
      </trkpt>
      <trkpt lat="42.331608" lon="1.909942">
        <ele>2208.4</ele>
        <time>1970-01-01T01:36:13.000Z</time>
      </trkpt>
      <trkpt lat="42.331593" lon="1.90995">
        <ele>2208.6</ele>
        <time>1970-01-01T01:36:14.000Z</time>
      </trkpt>
      <trkpt lat="42.331581" lon="1.90996">
        <ele>2208.7</ele>
        <time>1970-01-01T01:36:15.000Z</time>
      </trkpt>
      <trkpt lat="42.331566" lon="1.90997">
        <ele>2208.9</ele>
        <time>1970-01-01T01:36:16.000Z</time>
      </trkpt>
      <trkpt lat="42.331554" lon="1.909983">
        <ele>2209</ele>
        <time>1970-01-01T01:36:17.000Z</time>
      </trkpt>
      <trkpt lat="42.331543" lon="1.909995">
        <ele>2209.2</ele>
        <time>1970-01-01T01:36:18.000Z</time>
      </trkpt>
      <trkpt lat="42.331528" lon="1.910007">
        <ele>2209.4</ele>
        <time>1970-01-01T01:36:19.000Z</time>
      </trkpt>
      <trkpt lat="42.331509" lon="1.910017">
        <ele>2209.6</ele>
        <time>1970-01-01T01:36:20.000Z</time>
      </trkpt>
      <trkpt lat="42.331497" lon="1.910027">
        <ele>2209.7</ele>
        <time>1970-01-01T01:36:21.000Z</time>
      </trkpt>
      <trkpt lat="42.331482" lon="1.91004">
        <ele>2209.9</ele>
        <time>1970-01-01T01:36:22.000Z</time>
      </trkpt>
      <trkpt lat="42.331467" lon="1.910054">
        <ele>2210.1</ele>
        <time>1970-01-01T01:36:23.000Z</time>
      </trkpt>
      <trkpt lat="42.331459" lon="1.91007">
        <ele>2210.2</ele>
        <time>1970-01-01T01:36:24.000Z</time>
      </trkpt>
      <trkpt lat="42.331444" lon="1.910086">
        <ele>2210.4</ele>
        <time>1970-01-01T01:36:25.000Z</time>
      </trkpt>
      <trkpt lat="42.331429" lon="1.9101">
        <ele>2210.6</ele>
        <time>1970-01-01T01:36:26.000Z</time>
      </trkpt>
      <trkpt lat="42.331417" lon="1.910109">
        <ele>2210.8</ele>
        <time>1970-01-01T01:36:27.000Z</time>
      </trkpt>
      <trkpt lat="42.331402" lon="1.910116">
        <ele>2211</ele>
        <time>1970-01-01T01:36:28.000Z</time>
      </trkpt>
      <trkpt lat="42.331383" lon="1.910121">
        <ele>2211.2</ele>
        <time>1970-01-01T01:36:29.000Z</time>
      </trkpt>
      <trkpt lat="42.331371" lon="1.910126">
        <ele>2211.4</ele>
        <time>1970-01-01T01:36:30.000Z</time>
      </trkpt>
      <trkpt lat="42.331356" lon="1.910131">
        <ele>2211.6</ele>
        <time>1970-01-01T01:36:31.000Z</time>
      </trkpt>
      <trkpt lat="42.331341" lon="1.910135">
        <ele>2211.8</ele>
        <time>1970-01-01T01:36:32.000Z</time>
      </trkpt>
      <trkpt lat="42.331329" lon="1.910138">
        <ele>2212</ele>
        <time>1970-01-01T01:36:33.000Z</time>
      </trkpt>
      <trkpt lat="42.331314" lon="1.910141">
        <ele>2212.2</ele>
        <time>1970-01-01T01:36:34.000Z</time>
      </trkpt>
      <trkpt lat="42.331303" lon="1.910146">
        <ele>2212.4</ele>
        <time>1970-01-01T01:36:35.000Z</time>
      </trkpt>
      <trkpt lat="42.331287" lon="1.910147">
        <ele>2212.6</ele>
        <time>1970-01-01T01:36:36.000Z</time>
      </trkpt>
      <trkpt lat="42.331276" lon="1.910144">
        <ele>2212.8</ele>
        <time>1970-01-01T01:36:37.000Z</time>
      </trkpt>
      <trkpt lat="42.331261" lon="1.910141">
        <ele>2213</ele>
        <time>1970-01-01T01:36:38.000Z</time>
      </trkpt>
      <trkpt lat="42.331245" lon="1.910137">
        <ele>2213.3</ele>
        <time>1970-01-01T01:36:39.000Z</time>
      </trkpt>
      <trkpt lat="42.33123" lon="1.910128">
        <ele>2213.6</ele>
        <time>1970-01-01T01:36:40.000Z</time>
      </trkpt>
      <trkpt lat="42.331215" lon="1.910122">
        <ele>2213.8</ele>
        <time>1970-01-01T01:36:41.000Z</time>
      </trkpt>
      <trkpt lat="42.3312" lon="1.910117">
        <ele>2214.1</ele>
        <time>1970-01-01T01:36:42.000Z</time>
      </trkpt>
      <trkpt lat="42.331184" lon="1.910114">
        <ele>2214.4</ele>
        <time>1970-01-01T01:36:43.000Z</time>
      </trkpt>
      <trkpt lat="42.331169" lon="1.910109">
        <ele>2214.6</ele>
        <time>1970-01-01T01:36:44.000Z</time>
      </trkpt>
      <trkpt lat="42.331154" lon="1.910103">
        <ele>2214.9</ele>
        <time>1970-01-01T01:36:45.000Z</time>
      </trkpt>
      <trkpt lat="42.331139" lon="1.910098">
        <ele>2215.2</ele>
        <time>1970-01-01T01:36:46.000Z</time>
      </trkpt>
      <trkpt lat="42.331123" lon="1.910091">
        <ele>2215.4</ele>
        <time>1970-01-01T01:36:47.000Z</time>
      </trkpt>
      <trkpt lat="42.331108" lon="1.910083">
        <ele>2215.7</ele>
        <time>1970-01-01T01:36:48.000Z</time>
      </trkpt>
      <trkpt lat="42.331093" lon="1.910077">
        <ele>2216</ele>
        <time>1970-01-01T01:36:49.000Z</time>
      </trkpt>
      <trkpt lat="42.331078" lon="1.910073">
        <ele>2216.2</ele>
        <time>1970-01-01T01:36:50.000Z</time>
      </trkpt>
      <trkpt lat="42.331062" lon="1.910069">
        <ele>2216.5</ele>
        <time>1970-01-01T01:36:51.000Z</time>
      </trkpt>
      <trkpt lat="42.331047" lon="1.910063">
        <ele>2216.7</ele>
        <time>1970-01-01T01:36:52.000Z</time>
      </trkpt>
      <trkpt lat="42.331032" lon="1.910056">
        <ele>2217</ele>
        <time>1970-01-01T01:36:53.000Z</time>
      </trkpt>
      <trkpt lat="42.33102" lon="1.910046">
        <ele>2217.2</ele>
        <time>1970-01-01T01:36:54.000Z</time>
      </trkpt>
      <trkpt lat="42.331009" lon="1.910039">
        <ele>2217.4</ele>
        <time>1970-01-01T01:36:55.000Z</time>
      </trkpt>
      <trkpt lat="42.330994" lon="1.910034">
        <ele>2217.7</ele>
        <time>1970-01-01T01:36:56.000Z</time>
      </trkpt>
      <trkpt lat="42.330978" lon="1.910029">
        <ele>2218</ele>
        <time>1970-01-01T01:36:57.000Z</time>
      </trkpt>
      <trkpt lat="42.330963" lon="1.910024">
        <ele>2218.2</ele>
        <time>1970-01-01T01:36:58.000Z</time>
      </trkpt>
      <trkpt lat="42.330948" lon="1.910018">
        <ele>2218.5</ele>
        <time>1970-01-01T01:36:59.000Z</time>
      </trkpt>
      <trkpt lat="42.330933" lon="1.910012">
        <ele>2218.8</ele>
        <time>1970-01-01T01:37:00.000Z</time>
      </trkpt>
      <trkpt lat="42.330917" lon="1.910002">
        <ele>2219.1</ele>
        <time>1970-01-01T01:37:01.000Z</time>
      </trkpt>
      <trkpt lat="42.330898" lon="1.909994">
        <ele>2219.4</ele>
        <time>1970-01-01T01:37:02.000Z</time>
      </trkpt>
      <trkpt lat="42.330887" lon="1.909988">
        <ele>2219.6</ele>
        <time>1970-01-01T01:37:03.000Z</time>
      </trkpt>
      <trkpt lat="42.330872" lon="1.909977">
        <ele>2219.9</ele>
        <time>1970-01-01T01:37:04.000Z</time>
      </trkpt>
      <trkpt lat="42.330856" lon="1.909962">
        <ele>2220.3</ele>
        <time>1970-01-01T01:37:05.000Z</time>
      </trkpt>
      <trkpt lat="42.330845" lon="1.909949">
        <ele>2220.5</ele>
        <time>1970-01-01T01:37:06.000Z</time>
      </trkpt>
      <trkpt lat="42.33083" lon="1.909941">
        <ele>2220.8</ele>
        <time>1970-01-01T01:37:07.000Z</time>
      </trkpt>
      <trkpt lat="42.330818" lon="1.909936">
        <ele>2221</ele>
        <time>1970-01-01T01:37:08.000Z</time>
      </trkpt>
      <trkpt lat="42.330807" lon="1.909927">
        <ele>2221.2</ele>
        <time>1970-01-01T01:37:09.000Z</time>
      </trkpt>
      <trkpt lat="42.330795" lon="1.909917">
        <ele>2221.5</ele>
        <time>1970-01-01T01:37:10.000Z</time>
      </trkpt>
      <trkpt lat="42.330784" lon="1.909902">
        <ele>2221.8</ele>
        <time>1970-01-01T01:37:11.000Z</time>
      </trkpt>
      <trkpt lat="42.330765" lon="1.909891">
        <ele>2222.1</ele>
        <time>1970-01-01T01:37:12.000Z</time>
      </trkpt>
      <trkpt lat="42.330753" lon="1.909882">
        <ele>2222.3</ele>
        <time>1970-01-01T01:37:13.000Z</time>
      </trkpt>
      <trkpt lat="42.330742" lon="1.909873">
        <ele>2222.5</ele>
        <time>1970-01-01T01:37:14.000Z</time>
      </trkpt>
      <trkpt lat="42.330734" lon="1.909865">
        <ele>2222.7</ele>
        <time>1970-01-01T01:37:15.000Z</time>
      </trkpt>
      <trkpt lat="42.330723" lon="1.909854">
        <ele>2222.9</ele>
        <time>1970-01-01T01:37:16.000Z</time>
      </trkpt>
      <trkpt lat="42.330708" lon="1.909842">
        <ele>2223.2</ele>
        <time>1970-01-01T01:37:17.000Z</time>
      </trkpt>
      <trkpt lat="42.330696" lon="1.909834">
        <ele>2223.4</ele>
        <time>1970-01-01T01:37:18.000Z</time>
      </trkpt>
      <trkpt lat="42.330688" lon="1.909829">
        <ele>2223.6</ele>
        <time>1970-01-01T01:37:19.000Z</time>
      </trkpt>
      <trkpt lat="42.330681" lon="1.909816">
        <ele>2223.8</ele>
        <time>1970-01-01T01:37:20.000Z</time>
      </trkpt>
      <trkpt lat="42.330677" lon="1.909803">
        <ele>2223.9</ele>
        <time>1970-01-01T01:37:21.000Z</time>
      </trkpt>
      <trkpt lat="42.330662" lon="1.909786">
        <ele>2224.3</ele>
        <time>1970-01-01T01:37:22.000Z</time>
      </trkpt>
      <trkpt lat="42.330654" lon="1.90977">
        <ele>2224.5</ele>
        <time>1970-01-01T01:37:23.000Z</time>
      </trkpt>
      <trkpt lat="42.330646" lon="1.909753">
        <ele>2224.7</ele>
        <time>1970-01-01T01:37:24.000Z</time>
      </trkpt>
      <trkpt lat="42.330643" lon="1.909737">
        <ele>2224.9</ele>
        <time>1970-01-01T01:37:25.000Z</time>
      </trkpt>
      <trkpt lat="42.330631" lon="1.909717">
        <ele>2225.2</ele>
        <time>1970-01-01T01:37:26.000Z</time>
      </trkpt>
      <trkpt lat="42.330624" lon="1.909698">
        <ele>2225.4</ele>
        <time>1970-01-01T01:37:27.000Z</time>
      </trkpt>
      <trkpt lat="42.330616" lon="1.909683">
        <ele>2225.7</ele>
        <time>1970-01-01T01:37:28.000Z</time>
      </trkpt>
      <trkpt lat="42.330605" lon="1.909668">
        <ele>2226.1</ele>
        <time>1970-01-01T01:37:29.000Z</time>
      </trkpt>
      <trkpt lat="42.330593" lon="1.909656">
        <ele>2226.4</ele>
        <time>1970-01-01T01:37:30.000Z</time>
      </trkpt>
      <trkpt lat="42.330582" lon="1.909643">
        <ele>2226.6</ele>
        <time>1970-01-01T01:37:31.000Z</time>
      </trkpt>
      <trkpt lat="42.330566" lon="1.909629">
        <ele>2227</ele>
        <time>1970-01-01T01:37:32.000Z</time>
      </trkpt>
      <trkpt lat="42.330555" lon="1.909614">
        <ele>2227.3</ele>
        <time>1970-01-01T01:37:33.000Z</time>
      </trkpt>
      <trkpt lat="42.330547" lon="1.9096">
        <ele>2227.5</ele>
        <time>1970-01-01T01:37:34.000Z</time>
      </trkpt>
      <trkpt lat="42.330544" lon="1.909583">
        <ele>2227.8</ele>
        <time>1970-01-01T01:37:35.000Z</time>
      </trkpt>
      <trkpt lat="42.33054" lon="1.909567">
        <ele>2228</ele>
        <time>1970-01-01T01:37:36.000Z</time>
      </trkpt>
      <trkpt lat="42.330536" lon="1.909554">
        <ele>2228.2</ele>
        <time>1970-01-01T01:37:37.000Z</time>
      </trkpt>
      <trkpt lat="42.330528" lon="1.909541">
        <ele>2228.4</ele>
        <time>1970-01-01T01:37:38.000Z</time>
      </trkpt>
      <trkpt lat="42.330524" lon="1.909526">
        <ele>2228.7</ele>
        <time>1970-01-01T01:37:39.000Z</time>
      </trkpt>
      <trkpt lat="42.330517" lon="1.909511">
        <ele>2228.9</ele>
        <time>1970-01-01T01:37:40.000Z</time>
      </trkpt>
      <trkpt lat="42.330509" lon="1.909491">
        <ele>2229.2</ele>
        <time>1970-01-01T01:37:41.000Z</time>
      </trkpt>
      <trkpt lat="42.330505" lon="1.909475">
        <ele>2229.5</ele>
        <time>1970-01-01T01:37:42.000Z</time>
      </trkpt>
      <trkpt lat="42.330498" lon="1.909456">
        <ele>2229.8</ele>
        <time>1970-01-01T01:37:43.000Z</time>
      </trkpt>
      <trkpt lat="42.33049" lon="1.909439">
        <ele>2230.1</ele>
        <time>1970-01-01T01:37:44.000Z</time>
      </trkpt>
      <trkpt lat="42.330486" lon="1.909427">
        <ele>2230.3</ele>
        <time>1970-01-01T01:37:45.000Z</time>
      </trkpt>
      <trkpt lat="42.330479" lon="1.90941">
        <ele>2230.6</ele>
        <time>1970-01-01T01:37:46.000Z</time>
      </trkpt>
      <trkpt lat="42.330467" lon="1.909394">
        <ele>2230.9</ele>
        <time>1970-01-01T01:37:47.000Z</time>
      </trkpt>
      <trkpt lat="42.33046" lon="1.909382">
        <ele>2231.1</ele>
        <time>1970-01-01T01:37:48.000Z</time>
      </trkpt>
      <trkpt lat="42.330452" lon="1.909368">
        <ele>2231.4</ele>
        <time>1970-01-01T01:37:49.000Z</time>
      </trkpt>
      <trkpt lat="42.330448" lon="1.909355">
        <ele>2231.6</ele>
        <time>1970-01-01T01:37:50.000Z</time>
      </trkpt>
      <trkpt lat="42.330437" lon="1.909336">
        <ele>2231.9</ele>
        <time>1970-01-01T01:37:51.000Z</time>
      </trkpt>
      <trkpt lat="42.330429" lon="1.909319">
        <ele>2232.2</ele>
        <time>1970-01-01T01:37:52.000Z</time>
      </trkpt>
      <trkpt lat="42.330421" lon="1.909304">
        <ele>2232.5</ele>
        <time>1970-01-01T01:37:53.000Z</time>
      </trkpt>
      <trkpt lat="42.330414" lon="1.90929">
        <ele>2232.7</ele>
        <time>1970-01-01T01:37:54.000Z</time>
      </trkpt>
      <trkpt lat="42.33041" lon="1.909273">
        <ele>2233</ele>
        <time>1970-01-01T01:37:55.000Z</time>
      </trkpt>
      <trkpt lat="42.330402" lon="1.909256">
        <ele>2233.2</ele>
        <time>1970-01-01T01:37:56.000Z</time>
      </trkpt>
      <trkpt lat="42.330399" lon="1.909241">
        <ele>2233.5</ele>
        <time>1970-01-01T01:37:57.000Z</time>
      </trkpt>
      <trkpt lat="42.330391" lon="1.909225">
        <ele>2233.7</ele>
        <time>1970-01-01T01:37:58.000Z</time>
      </trkpt>
      <trkpt lat="42.330383" lon="1.909207">
        <ele>2234</ele>
        <time>1970-01-01T01:37:59.000Z</time>
      </trkpt>
      <trkpt lat="42.330383" lon="1.909191">
        <ele>2234.3</ele>
        <time>1970-01-01T01:38:00.000Z</time>
      </trkpt>
      <trkpt lat="42.330376" lon="1.909172">
        <ele>2234.6</ele>
        <time>1970-01-01T01:38:01.000Z</time>
      </trkpt>
      <trkpt lat="42.330368" lon="1.909154">
        <ele>2234.9</ele>
        <time>1970-01-01T01:38:02.000Z</time>
      </trkpt>
      <trkpt lat="42.33036" lon="1.909135">
        <ele>2235.2</ele>
        <time>1970-01-01T01:38:03.000Z</time>
      </trkpt>
      <trkpt lat="42.330349" lon="1.909119">
        <ele>2235.5</ele>
        <time>1970-01-01T01:38:04.000Z</time>
      </trkpt>
      <trkpt lat="42.330341" lon="1.909103">
        <ele>2235.8</ele>
        <time>1970-01-01T01:38:05.000Z</time>
      </trkpt>
      <trkpt lat="42.33033" lon="1.909085">
        <ele>2236.2</ele>
        <time>1970-01-01T01:38:06.000Z</time>
      </trkpt>
      <trkpt lat="42.330322" lon="1.909069">
        <ele>2236.5</ele>
        <time>1970-01-01T01:38:07.000Z</time>
      </trkpt>
      <trkpt lat="42.330315" lon="1.909055">
        <ele>2236.7</ele>
        <time>1970-01-01T01:38:08.000Z</time>
      </trkpt>
      <trkpt lat="42.330307" lon="1.909038">
        <ele>2237</ele>
        <time>1970-01-01T01:38:09.000Z</time>
      </trkpt>
      <trkpt lat="42.330296" lon="1.909023">
        <ele>2237.3</ele>
        <time>1970-01-01T01:38:10.000Z</time>
      </trkpt>
      <trkpt lat="42.330284" lon="1.909007">
        <ele>2237.7</ele>
        <time>1970-01-01T01:38:11.000Z</time>
      </trkpt>
      <trkpt lat="42.330273" lon="1.908991">
        <ele>2238</ele>
        <time>1970-01-01T01:38:12.000Z</time>
      </trkpt>
      <trkpt lat="42.330261" lon="1.908977">
        <ele>2238.3</ele>
        <time>1970-01-01T01:38:13.000Z</time>
      </trkpt>
      <trkpt lat="42.330246" lon="1.908967">
        <ele>2238.6</ele>
        <time>1970-01-01T01:38:14.000Z</time>
      </trkpt>
      <trkpt lat="42.330231" lon="1.908955">
        <ele>2239</ele>
        <time>1970-01-01T01:38:15.000Z</time>
      </trkpt>
      <trkpt lat="42.330215" lon="1.908942">
        <ele>2239.4</ele>
        <time>1970-01-01T01:38:16.000Z</time>
      </trkpt>
      <trkpt lat="42.330208" lon="1.90893">
        <ele>2239.6</ele>
        <time>1970-01-01T01:38:17.000Z</time>
      </trkpt>
      <trkpt lat="42.330196" lon="1.908916">
        <ele>2239.9</ele>
        <time>1970-01-01T01:38:18.000Z</time>
      </trkpt>
      <trkpt lat="42.330185" lon="1.908902">
        <ele>2240.2</ele>
        <time>1970-01-01T01:38:19.000Z</time>
      </trkpt>
      <trkpt lat="42.330173" lon="1.90889">
        <ele>2240.5</ele>
        <time>1970-01-01T01:38:20.000Z</time>
      </trkpt>
      <trkpt lat="42.330162" lon="1.90888">
        <ele>2240.7</ele>
        <time>1970-01-01T01:38:21.000Z</time>
      </trkpt>
      <trkpt lat="42.330151" lon="1.908871">
        <ele>2241</ele>
        <time>1970-01-01T01:38:22.000Z</time>
      </trkpt>
      <trkpt lat="42.330135" lon="1.908862">
        <ele>2241.3</ele>
        <time>1970-01-01T01:38:23.000Z</time>
      </trkpt>
      <trkpt lat="42.330124" lon="1.908853">
        <ele>2241.6</ele>
        <time>1970-01-01T01:38:24.000Z</time>
      </trkpt>
      <trkpt lat="42.330109" lon="1.908846">
        <ele>2241.9</ele>
        <time>1970-01-01T01:38:25.000Z</time>
      </trkpt>
      <trkpt lat="42.330093" lon="1.908837">
        <ele>2242.2</ele>
        <time>1970-01-01T01:38:26.000Z</time>
      </trkpt>
      <trkpt lat="42.330078" lon="1.908829">
        <ele>2242.5</ele>
        <time>1970-01-01T01:38:27.000Z</time>
      </trkpt>
      <trkpt lat="42.330067" lon="1.908823">
        <ele>2242.7</ele>
        <time>1970-01-01T01:38:28.000Z</time>
      </trkpt>
      <trkpt lat="42.330055" lon="1.908815">
        <ele>2243</ele>
        <time>1970-01-01T01:38:29.000Z</time>
      </trkpt>
      <trkpt lat="42.330044" lon="1.908805">
        <ele>2243.2</ele>
        <time>1970-01-01T01:38:30.000Z</time>
      </trkpt>
      <trkpt lat="42.330029" lon="1.908794">
        <ele>2243.5</ele>
        <time>1970-01-01T01:38:31.000Z</time>
      </trkpt>
      <trkpt lat="42.330017" lon="1.908785">
        <ele>2243.8</ele>
        <time>1970-01-01T01:38:32.000Z</time>
      </trkpt>
      <trkpt lat="42.330002" lon="1.908773">
        <ele>2244.1</ele>
        <time>1970-01-01T01:38:33.000Z</time>
      </trkpt>
      <trkpt lat="42.329994" lon="1.908761">
        <ele>2244.3</ele>
        <time>1970-01-01T01:38:34.000Z</time>
      </trkpt>
      <trkpt lat="42.329983" lon="1.908749">
        <ele>2244.6</ele>
        <time>1970-01-01T01:38:35.000Z</time>
      </trkpt>
      <trkpt lat="42.329971" lon="1.908735">
        <ele>2244.9</ele>
        <time>1970-01-01T01:38:36.000Z</time>
      </trkpt>
      <trkpt lat="42.329964" lon="1.90872">
        <ele>2245.1</ele>
        <time>1970-01-01T01:38:37.000Z</time>
      </trkpt>
      <trkpt lat="42.329948" lon="1.908707">
        <ele>2245.5</ele>
        <time>1970-01-01T01:38:38.000Z</time>
      </trkpt>
      <trkpt lat="42.329937" lon="1.908698">
        <ele>2245.7</ele>
        <time>1970-01-01T01:38:39.000Z</time>
      </trkpt>
      <trkpt lat="42.329926" lon="1.908687">
        <ele>2246</ele>
        <time>1970-01-01T01:38:40.000Z</time>
      </trkpt>
      <trkpt lat="42.329914" lon="1.908674">
        <ele>2246.3</ele>
        <time>1970-01-01T01:38:41.000Z</time>
      </trkpt>
      <trkpt lat="42.329903" lon="1.908661">
        <ele>2246.6</ele>
        <time>1970-01-01T01:38:42.000Z</time>
      </trkpt>
      <trkpt lat="42.329895" lon="1.908647">
        <ele>2246.8</ele>
        <time>1970-01-01T01:38:43.000Z</time>
      </trkpt>
      <trkpt lat="42.329887" lon="1.908633">
        <ele>2247.1</ele>
        <time>1970-01-01T01:38:44.000Z</time>
      </trkpt>
      <trkpt lat="42.32988" lon="1.908619">
        <ele>2247.3</ele>
        <time>1970-01-01T01:38:45.000Z</time>
      </trkpt>
      <trkpt lat="42.329872" lon="1.908606">
        <ele>2247.6</ele>
        <time>1970-01-01T01:38:46.000Z</time>
      </trkpt>
      <trkpt lat="42.329865" lon="1.908593">
        <ele>2247.8</ele>
        <time>1970-01-01T01:38:47.000Z</time>
      </trkpt>
      <trkpt lat="42.329849" lon="1.908583">
        <ele>2248.1</ele>
        <time>1970-01-01T01:38:48.000Z</time>
      </trkpt>
      <trkpt lat="42.329834" lon="1.908577">
        <ele>2248.4</ele>
        <time>1970-01-01T01:38:49.000Z</time>
      </trkpt>
      <trkpt lat="42.329826" lon="1.908569">
        <ele>2248.6</ele>
        <time>1970-01-01T01:38:50.000Z</time>
      </trkpt>
      <trkpt lat="42.329819" lon="1.908554">
        <ele>2248.8</ele>
        <time>1970-01-01T01:38:51.000Z</time>
      </trkpt>
      <trkpt lat="42.329811" lon="1.908536">
        <ele>2249.1</ele>
        <time>1970-01-01T01:38:52.000Z</time>
      </trkpt>
      <trkpt lat="42.329803" lon="1.908519">
        <ele>2249.3</ele>
        <time>1970-01-01T01:38:53.000Z</time>
      </trkpt>
      <trkpt lat="42.329796" lon="1.908506">
        <ele>2249.5</ele>
        <time>1970-01-01T01:38:54.000Z</time>
      </trkpt>
      <trkpt lat="42.329788" lon="1.908496">
        <ele>2249.7</ele>
        <time>1970-01-01T01:38:55.000Z</time>
      </trkpt>
      <trkpt lat="42.329781" lon="1.908487">
        <ele>2249.9</ele>
        <time>1970-01-01T01:38:56.000Z</time>
      </trkpt>
      <trkpt lat="42.329765" lon="1.90848">
        <ele>2250.2</ele>
        <time>1970-01-01T01:38:57.000Z</time>
      </trkpt>
      <trkpt lat="42.329754" lon="1.90847">
        <ele>2250.4</ele>
        <time>1970-01-01T01:38:58.000Z</time>
      </trkpt>
      <trkpt lat="42.329746" lon="1.908461">
        <ele>2250.5</ele>
        <time>1970-01-01T01:38:59.000Z</time>
      </trkpt>
      <trkpt lat="42.329739" lon="1.908448">
        <ele>2250.7</ele>
        <time>1970-01-01T01:39:00.000Z</time>
      </trkpt>
      <trkpt lat="42.329739" lon="1.908433">
        <ele>2250.9</ele>
        <time>1970-01-01T01:39:01.000Z</time>
      </trkpt>
      <trkpt lat="42.329739" lon="1.908418">
        <ele>2251.1</ele>
        <time>1970-01-01T01:39:02.000Z</time>
      </trkpt>
      <trkpt lat="42.329735" lon="1.908401">
        <ele>2251.3</ele>
        <time>1970-01-01T01:39:03.000Z</time>
      </trkpt>
      <trkpt lat="42.329727" lon="1.908386">
        <ele>2251.5</ele>
        <time>1970-01-01T01:39:04.000Z</time>
      </trkpt>
      <trkpt lat="42.329716" lon="1.908367">
        <ele>2251.7</ele>
        <time>1970-01-01T01:39:05.000Z</time>
      </trkpt>
      <trkpt lat="42.329708" lon="1.90835">
        <ele>2252</ele>
        <time>1970-01-01T01:39:06.000Z</time>
      </trkpt>
      <trkpt lat="42.3297" lon="1.90833">
        <ele>2252.2</ele>
        <time>1970-01-01T01:39:07.000Z</time>
      </trkpt>
      <trkpt lat="42.329689" lon="1.90831">
        <ele>2252.5</ele>
        <time>1970-01-01T01:39:08.000Z</time>
      </trkpt>
      <trkpt lat="42.329678" lon="1.908296">
        <ele>2252.7</ele>
        <time>1970-01-01T01:39:09.000Z</time>
      </trkpt>
      <trkpt lat="42.32967" lon="1.90828">
        <ele>2252.9</ele>
        <time>1970-01-01T01:39:10.000Z</time>
      </trkpt>
      <trkpt lat="42.329659" lon="1.908265">
        <ele>2253.2</ele>
        <time>1970-01-01T01:39:11.000Z</time>
      </trkpt>
      <trkpt lat="42.329647" lon="1.908249">
        <ele>2253.4</ele>
        <time>1970-01-01T01:39:12.000Z</time>
      </trkpt>
      <trkpt lat="42.329636" lon="1.908235">
        <ele>2253.7</ele>
        <time>1970-01-01T01:39:13.000Z</time>
      </trkpt>
      <trkpt lat="42.329632" lon="1.90822">
        <ele>2253.8</ele>
        <time>1970-01-01T01:39:14.000Z</time>
      </trkpt>
      <trkpt lat="42.329628" lon="1.908206">
        <ele>2254</ele>
        <time>1970-01-01T01:39:15.000Z</time>
      </trkpt>
      <trkpt lat="42.329624" lon="1.908195">
        <ele>2254.1</ele>
        <time>1970-01-01T01:39:16.000Z</time>
      </trkpt>
      <trkpt lat="42.32962" lon="1.908185">
        <ele>2254.3</ele>
        <time>1970-01-01T01:39:17.000Z</time>
      </trkpt>
      <trkpt lat="42.329617" lon="1.908178">
        <ele>2254.3</ele>
        <time>1970-01-01T01:39:18.000Z</time>
      </trkpt>
      <trkpt lat="42.329609" lon="1.908166">
        <ele>2254.5</ele>
        <time>1970-01-01T01:39:19.000Z</time>
      </trkpt>
      <trkpt lat="42.329601" lon="1.908153">
        <ele>2254.7</ele>
        <time>1970-01-01T01:39:20.000Z</time>
      </trkpt>
      <trkpt lat="42.32959" lon="1.908137">
        <ele>2255</ele>
        <time>1970-01-01T01:39:21.000Z</time>
      </trkpt>
      <trkpt lat="42.329578" lon="1.908124">
        <ele>2255.2</ele>
        <time>1970-01-01T01:39:22.000Z</time>
      </trkpt>
      <trkpt lat="42.329563" lon="1.908112">
        <ele>2255.5</ele>
        <time>1970-01-01T01:39:23.000Z</time>
      </trkpt>
      <trkpt lat="42.329559" lon="1.908102">
        <ele>2255.6</ele>
        <time>1970-01-01T01:39:24.000Z</time>
      </trkpt>
      <trkpt lat="42.329548" lon="1.908089">
        <ele>2255.9</ele>
        <time>1970-01-01T01:39:25.000Z</time>
      </trkpt>
      <trkpt lat="42.329544" lon="1.908076">
        <ele>2256</ele>
        <time>1970-01-01T01:39:26.000Z</time>
      </trkpt>
      <trkpt lat="42.329536" lon="1.908064">
        <ele>2256.2</ele>
        <time>1970-01-01T01:39:27.000Z</time>
      </trkpt>
      <trkpt lat="42.329529" lon="1.90805">
        <ele>2256.4</ele>
        <time>1970-01-01T01:39:28.000Z</time>
      </trkpt>
      <trkpt lat="42.329521" lon="1.908034">
        <ele>2256.7</ele>
        <time>1970-01-01T01:39:29.000Z</time>
      </trkpt>
      <trkpt lat="42.329514" lon="1.90802">
        <ele>2256.9</ele>
        <time>1970-01-01T01:39:30.000Z</time>
      </trkpt>
      <trkpt lat="42.329506" lon="1.908006">
        <ele>2257.1</ele>
        <time>1970-01-01T01:39:31.000Z</time>
      </trkpt>
      <trkpt lat="42.329498" lon="1.907994">
        <ele>2257.3</ele>
        <time>1970-01-01T01:39:32.000Z</time>
      </trkpt>
      <trkpt lat="42.329491" lon="1.907982">
        <ele>2257.5</ele>
        <time>1970-01-01T01:39:33.000Z</time>
      </trkpt>
      <trkpt lat="42.329479" lon="1.907971">
        <ele>2257.7</ele>
        <time>1970-01-01T01:39:34.000Z</time>
      </trkpt>
      <trkpt lat="42.329472" lon="1.907958">
        <ele>2258</ele>
        <time>1970-01-01T01:39:35.000Z</time>
      </trkpt>
      <trkpt lat="42.329464" lon="1.907944">
        <ele>2258.2</ele>
        <time>1970-01-01T01:39:36.000Z</time>
      </trkpt>
      <trkpt lat="42.32946" lon="1.907929">
        <ele>2258.4</ele>
        <time>1970-01-01T01:39:37.000Z</time>
      </trkpt>
      <trkpt lat="42.32946" lon="1.907915">
        <ele>2258.6</ele>
        <time>1970-01-01T01:39:38.000Z</time>
      </trkpt>
      <trkpt lat="42.329452" lon="1.9079">
        <ele>2258.8</ele>
        <time>1970-01-01T01:39:39.000Z</time>
      </trkpt>
      <trkpt lat="42.329445" lon="1.907886">
        <ele>2259.1</ele>
        <time>1970-01-01T01:39:40.000Z</time>
      </trkpt>
      <trkpt lat="42.329441" lon="1.907871">
        <ele>2259.3</ele>
        <time>1970-01-01T01:39:41.000Z</time>
      </trkpt>
      <trkpt lat="42.329433" lon="1.907856">
        <ele>2259.5</ele>
        <time>1970-01-01T01:39:42.000Z</time>
      </trkpt>
      <trkpt lat="42.329426" lon="1.907838">
        <ele>2259.8</ele>
        <time>1970-01-01T01:39:43.000Z</time>
      </trkpt>
      <trkpt lat="42.329422" lon="1.90782">
        <ele>2260.1</ele>
        <time>1970-01-01T01:39:44.000Z</time>
      </trkpt>
      <trkpt lat="42.329418" lon="1.907803">
        <ele>2260.4</ele>
        <time>1970-01-01T01:39:45.000Z</time>
      </trkpt>
      <trkpt lat="42.329418" lon="1.907787">
        <ele>2260.6</ele>
        <time>1970-01-01T01:39:46.000Z</time>
      </trkpt>
      <trkpt lat="42.329411" lon="1.90777">
        <ele>2260.9</ele>
        <time>1970-01-01T01:39:47.000Z</time>
      </trkpt>
      <trkpt lat="42.329403" lon="1.907754">
        <ele>2261.2</ele>
        <time>1970-01-01T01:39:48.000Z</time>
      </trkpt>
      <trkpt lat="42.329399" lon="1.90774">
        <ele>2261.4</ele>
        <time>1970-01-01T01:39:49.000Z</time>
      </trkpt>
      <trkpt lat="42.329391" lon="1.907721">
        <ele>2261.7</ele>
        <time>1970-01-01T01:39:50.000Z</time>
      </trkpt>
      <trkpt lat="42.329391" lon="1.9077">
        <ele>2262.1</ele>
        <time>1970-01-01T01:39:51.000Z</time>
      </trkpt>
      <trkpt lat="42.329388" lon="1.907681">
        <ele>2262.4</ele>
        <time>1970-01-01T01:39:52.000Z</time>
      </trkpt>
      <trkpt lat="42.32938" lon="1.907666">
        <ele>2262.7</ele>
        <time>1970-01-01T01:39:53.000Z</time>
      </trkpt>
      <trkpt lat="42.329369" lon="1.907654">
        <ele>2263</ele>
        <time>1970-01-01T01:39:54.000Z</time>
      </trkpt>
      <trkpt lat="42.329353" lon="1.907645">
        <ele>2263.3</ele>
        <time>1970-01-01T01:39:55.000Z</time>
      </trkpt>
      <trkpt lat="42.329338" lon="1.907633">
        <ele>2263.7</ele>
        <time>1970-01-01T01:39:56.000Z</time>
      </trkpt>
      <trkpt lat="42.329327" lon="1.90762">
        <ele>2264</ele>
        <time>1970-01-01T01:39:57.000Z</time>
      </trkpt>
      <trkpt lat="42.329319" lon="1.907604">
        <ele>2264.4</ele>
        <time>1970-01-01T01:39:58.000Z</time>
      </trkpt>
      <trkpt lat="42.329311" lon="1.90759">
        <ele>2264.7</ele>
        <time>1970-01-01T01:39:59.000Z</time>
      </trkpt>
      <trkpt lat="42.329304" lon="1.907573">
        <ele>2265</ele>
        <time>1970-01-01T01:40:00.000Z</time>
      </trkpt>
      <trkpt lat="42.3293" lon="1.907559">
        <ele>2265.2</ele>
        <time>1970-01-01T01:40:01.000Z</time>
      </trkpt>
      <trkpt lat="42.329292" lon="1.907545">
        <ele>2265.5</ele>
        <time>1970-01-01T01:40:02.000Z</time>
      </trkpt>
      <trkpt lat="42.329281" lon="1.907533">
        <ele>2265.9</ele>
        <time>1970-01-01T01:40:03.000Z</time>
      </trkpt>
      <trkpt lat="42.329273" lon="1.90752">
        <ele>2266.2</ele>
        <time>1970-01-01T01:40:04.000Z</time>
      </trkpt>
      <trkpt lat="42.329266" lon="1.907506">
        <ele>2266.5</ele>
        <time>1970-01-01T01:40:05.000Z</time>
      </trkpt>
      <trkpt lat="42.329254" lon="1.90749">
        <ele>2266.9</ele>
        <time>1970-01-01T01:40:06.000Z</time>
      </trkpt>
      <trkpt lat="42.329247" lon="1.907477">
        <ele>2267.2</ele>
        <time>1970-01-01T01:40:07.000Z</time>
      </trkpt>
      <trkpt lat="42.329239" lon="1.907465">
        <ele>2267.5</ele>
        <time>1970-01-01T01:40:08.000Z</time>
      </trkpt>
      <trkpt lat="42.329231" lon="1.907452">
        <ele>2267.8</ele>
        <time>1970-01-01T01:40:09.000Z</time>
      </trkpt>
      <trkpt lat="42.32922" lon="1.907439">
        <ele>2268.1</ele>
        <time>1970-01-01T01:40:10.000Z</time>
      </trkpt>
      <trkpt lat="42.329208" lon="1.907425">
        <ele>2268.5</ele>
        <time>1970-01-01T01:40:11.000Z</time>
      </trkpt>
      <trkpt lat="42.329201" lon="1.907414">
        <ele>2268.8</ele>
        <time>1970-01-01T01:40:12.000Z</time>
      </trkpt>
      <trkpt lat="42.329189" lon="1.907403">
        <ele>2269.1</ele>
        <time>1970-01-01T01:40:13.000Z</time>
      </trkpt>
      <trkpt lat="42.329178" lon="1.907389">
        <ele>2269.5</ele>
        <time>1970-01-01T01:40:14.000Z</time>
      </trkpt>
      <trkpt lat="42.329166" lon="1.907374">
        <ele>2269.9</ele>
        <time>1970-01-01T01:40:15.000Z</time>
      </trkpt>
      <trkpt lat="42.329155" lon="1.907359">
        <ele>2270.2</ele>
        <time>1970-01-01T01:40:16.000Z</time>
      </trkpt>
      <trkpt lat="42.329147" lon="1.907341">
        <ele>2270.6</ele>
        <time>1970-01-01T01:40:17.000Z</time>
      </trkpt>
      <trkpt lat="42.329144" lon="1.907324">
        <ele>2270.9</ele>
        <time>1970-01-01T01:40:18.000Z</time>
      </trkpt>
      <trkpt lat="42.32914" lon="1.907304">
        <ele>2271.2</ele>
        <time>1970-01-01T01:40:19.000Z</time>
      </trkpt>
      <trkpt lat="42.329128" lon="1.907292">
        <ele>2271.5</ele>
        <time>1970-01-01T01:40:20.000Z</time>
      </trkpt>
      <trkpt lat="42.329117" lon="1.90728">
        <ele>2271.8</ele>
        <time>1970-01-01T01:40:21.000Z</time>
      </trkpt>
      <trkpt lat="42.329102" lon="1.907271">
        <ele>2272.2</ele>
        <time>1970-01-01T01:40:22.000Z</time>
      </trkpt>
      <trkpt lat="42.329086" lon="1.90726">
        <ele>2272.6</ele>
        <time>1970-01-01T01:40:23.000Z</time>
      </trkpt>
      <trkpt lat="42.329079" lon="1.907247">
        <ele>2272.9</ele>
        <time>1970-01-01T01:40:24.000Z</time>
      </trkpt>
      <trkpt lat="42.329071" lon="1.907232">
        <ele>2273.2</ele>
        <time>1970-01-01T01:40:25.000Z</time>
      </trkpt>
      <trkpt lat="42.32906" lon="1.907213">
        <ele>2273.5</ele>
        <time>1970-01-01T01:40:26.000Z</time>
      </trkpt>
      <trkpt lat="42.329048" lon="1.907199">
        <ele>2273.9</ele>
        <time>1970-01-01T01:40:27.000Z</time>
      </trkpt>
      <trkpt lat="42.329041" lon="1.907184">
        <ele>2274.1</ele>
        <time>1970-01-01T01:40:28.000Z</time>
      </trkpt>
      <trkpt lat="42.329033" lon="1.907167">
        <ele>2274.5</ele>
        <time>1970-01-01T01:40:29.000Z</time>
      </trkpt>
      <trkpt lat="42.329021" lon="1.907152">
        <ele>2274.8</ele>
        <time>1970-01-01T01:40:30.000Z</time>
      </trkpt>
      <trkpt lat="42.329014" lon="1.907134">
        <ele>2275.1</ele>
        <time>1970-01-01T01:40:31.000Z</time>
      </trkpt>
      <trkpt lat="42.329006" lon="1.907117">
        <ele>2275.4</ele>
        <time>1970-01-01T01:40:32.000Z</time>
      </trkpt>
      <trkpt lat="42.328995" lon="1.907099">
        <ele>2275.8</ele>
        <time>1970-01-01T01:40:33.000Z</time>
      </trkpt>
      <trkpt lat="42.328987" lon="1.907081">
        <ele>2276.1</ele>
        <time>1970-01-01T01:40:34.000Z</time>
      </trkpt>
      <trkpt lat="42.328983" lon="1.907064">
        <ele>2276.4</ele>
        <time>1970-01-01T01:40:35.000Z</time>
      </trkpt>
      <trkpt lat="42.328972" lon="1.907044">
        <ele>2276.7</ele>
        <time>1970-01-01T01:40:36.000Z</time>
      </trkpt>
      <trkpt lat="42.328968" lon="1.907031">
        <ele>2276.9</ele>
        <time>1970-01-01T01:40:37.000Z</time>
      </trkpt>
      <trkpt lat="42.328964" lon="1.907015">
        <ele>2277.1</ele>
        <time>1970-01-01T01:40:38.000Z</time>
      </trkpt>
      <trkpt lat="42.328957" lon="1.906999">
        <ele>2277.4</ele>
        <time>1970-01-01T01:40:39.000Z</time>
      </trkpt>
      <trkpt lat="42.328953" lon="1.906982">
        <ele>2277.6</ele>
        <time>1970-01-01T01:40:40.000Z</time>
      </trkpt>
      <trkpt lat="42.328945" lon="1.906967">
        <ele>2277.9</ele>
        <time>1970-01-01T01:40:41.000Z</time>
      </trkpt>
      <trkpt lat="42.328937" lon="1.90695">
        <ele>2278.2</ele>
        <time>1970-01-01T01:40:42.000Z</time>
      </trkpt>
      <trkpt lat="42.32893" lon="1.906934">
        <ele>2278.4</ele>
        <time>1970-01-01T01:40:43.000Z</time>
      </trkpt>
      <trkpt lat="42.328918" lon="1.906919">
        <ele>2278.7</ele>
        <time>1970-01-01T01:40:44.000Z</time>
      </trkpt>
      <trkpt lat="42.328907" lon="1.906903">
        <ele>2278.8</ele>
        <time>1970-01-01T01:40:45.000Z</time>
      </trkpt>
      <trkpt lat="42.328896" lon="1.906886">
        <ele>2278.7</ele>
        <time>1970-01-01T01:40:46.000Z</time>
      </trkpt>
      <trkpt lat="42.328884" lon="1.906867">
        <ele>2278.7</ele>
        <time>1970-01-01T01:40:47.000Z</time>
      </trkpt>
      <trkpt lat="42.32888" lon="1.906849">
        <ele>2278.6</ele>
        <time>1970-01-01T01:40:48.000Z</time>
      </trkpt>
      <trkpt lat="42.328876" lon="1.906831">
        <ele>2278.6</ele>
        <time>1970-01-01T01:40:49.000Z</time>
      </trkpt>
      <trkpt lat="42.328873" lon="1.906809">
        <ele>2278.6</ele>
        <time>1970-01-01T01:40:50.000Z</time>
      </trkpt>
      <trkpt lat="42.328869" lon="1.906792">
        <ele>2278.5</ele>
        <time>1970-01-01T01:40:51.000Z</time>
      </trkpt>
      <trkpt lat="42.328861" lon="1.906776">
        <ele>2278.5</ele>
        <time>1970-01-01T01:40:52.000Z</time>
      </trkpt>
      <trkpt lat="42.32885" lon="1.906757">
        <ele>2278.4</ele>
        <time>1970-01-01T01:40:53.000Z</time>
      </trkpt>
      <trkpt lat="42.328846" lon="1.906741">
        <ele>2278.4</ele>
        <time>1970-01-01T01:40:54.000Z</time>
      </trkpt>
      <trkpt lat="42.328846" lon="1.906725">
        <ele>2278.3</ele>
        <time>1970-01-01T01:40:55.000Z</time>
      </trkpt>
      <trkpt lat="42.328842" lon="1.906707">
        <ele>2278.3</ele>
        <time>1970-01-01T01:40:56.000Z</time>
      </trkpt>
      <trkpt lat="42.328838" lon="1.906687">
        <ele>2278.2</ele>
        <time>1970-01-01T01:40:57.000Z</time>
      </trkpt>
      <trkpt lat="42.328827" lon="1.906669">
        <ele>2278.1</ele>
        <time>1970-01-01T01:40:58.000Z</time>
      </trkpt>
      <trkpt lat="42.328823" lon="1.906652">
        <ele>2278.1</ele>
        <time>1970-01-01T01:40:59.000Z</time>
      </trkpt>
      <trkpt lat="42.328815" lon="1.906636">
        <ele>2278</ele>
        <time>1970-01-01T01:41:00.000Z</time>
      </trkpt>
      <trkpt lat="42.328812" lon="1.906617">
        <ele>2277.9</ele>
        <time>1970-01-01T01:41:01.000Z</time>
      </trkpt>
      <trkpt lat="42.328808" lon="1.906598">
        <ele>2277.8</ele>
        <time>1970-01-01T01:41:02.000Z</time>
      </trkpt>
      <trkpt lat="42.3288" lon="1.906578">
        <ele>2277.7</ele>
        <time>1970-01-01T01:41:03.000Z</time>
      </trkpt>
      <trkpt lat="42.3288" lon="1.906561">
        <ele>2277.7</ele>
        <time>1970-01-01T01:41:04.000Z</time>
      </trkpt>
      <trkpt lat="42.3288" lon="1.906541">
        <ele>2277.6</ele>
        <time>1970-01-01T01:41:05.000Z</time>
      </trkpt>
      <trkpt lat="42.328789" lon="1.906521">
        <ele>2277.5</ele>
        <time>1970-01-01T01:41:06.000Z</time>
      </trkpt>
      <trkpt lat="42.328781" lon="1.906505">
        <ele>2277.4</ele>
        <time>1970-01-01T01:41:07.000Z</time>
      </trkpt>
      <trkpt lat="42.32877" lon="1.906493">
        <ele>2277.3</ele>
        <time>1970-01-01T01:41:08.000Z</time>
      </trkpt>
      <trkpt lat="42.328762" lon="1.906481">
        <ele>2277.2</ele>
        <time>1970-01-01T01:41:09.000Z</time>
      </trkpt>
      <trkpt lat="42.328758" lon="1.906468">
        <ele>2277.1</ele>
        <time>1970-01-01T01:41:10.000Z</time>
      </trkpt>
      <trkpt lat="42.328751" lon="1.906455">
        <ele>2277</ele>
        <time>1970-01-01T01:41:11.000Z</time>
      </trkpt>
      <trkpt lat="42.328743" lon="1.906439">
        <ele>2276.9</ele>
        <time>1970-01-01T01:41:12.000Z</time>
      </trkpt>
      <trkpt lat="42.328735" lon="1.906421">
        <ele>2276.8</ele>
        <time>1970-01-01T01:41:13.000Z</time>
      </trkpt>
      <trkpt lat="42.328728" lon="1.906403">
        <ele>2276.7</ele>
        <time>1970-01-01T01:41:14.000Z</time>
      </trkpt>
      <trkpt lat="42.328724" lon="1.906386">
        <ele>2276.6</ele>
        <time>1970-01-01T01:41:15.000Z</time>
      </trkpt>
      <trkpt lat="42.328716" lon="1.906369">
        <ele>2276.5</ele>
        <time>1970-01-01T01:41:16.000Z</time>
      </trkpt>
      <trkpt lat="42.328705" lon="1.906354">
        <ele>2276.4</ele>
        <time>1970-01-01T01:41:17.000Z</time>
      </trkpt>
      <trkpt lat="42.328697" lon="1.90634">
        <ele>2276.3</ele>
        <time>1970-01-01T01:41:18.000Z</time>
      </trkpt>
      <trkpt lat="42.32869" lon="1.906325">
        <ele>2276.2</ele>
        <time>1970-01-01T01:41:19.000Z</time>
      </trkpt>
      <trkpt lat="42.328678" lon="1.906312">
        <ele>2276</ele>
        <time>1970-01-01T01:41:20.000Z</time>
      </trkpt>
      <trkpt lat="42.328667" lon="1.906297">
        <ele>2275.9</ele>
        <time>1970-01-01T01:41:21.000Z</time>
      </trkpt>
      <trkpt lat="42.328655" lon="1.906283">
        <ele>2275.8</ele>
        <time>1970-01-01T01:41:22.000Z</time>
      </trkpt>
      <trkpt lat="42.328644" lon="1.906269">
        <ele>2275.6</ele>
        <time>1970-01-01T01:41:23.000Z</time>
      </trkpt>
      <trkpt lat="42.328632" lon="1.90625">
        <ele>2275.5</ele>
        <time>1970-01-01T01:41:24.000Z</time>
      </trkpt>
      <trkpt lat="42.328625" lon="1.906234">
        <ele>2275.3</ele>
        <time>1970-01-01T01:41:25.000Z</time>
      </trkpt>
      <trkpt lat="42.328613" lon="1.906216">
        <ele>2275.3</ele>
        <time>1970-01-01T01:41:26.000Z</time>
      </trkpt>
      <trkpt lat="42.328606" lon="1.906197">
        <ele>2275.5</ele>
        <time>1970-01-01T01:41:27.000Z</time>
      </trkpt>
      <trkpt lat="42.328598" lon="1.906182">
        <ele>2275.7</ele>
        <time>1970-01-01T01:41:28.000Z</time>
      </trkpt>
      <trkpt lat="42.328587" lon="1.906166">
        <ele>2275.9</ele>
        <time>1970-01-01T01:41:29.000Z</time>
      </trkpt>
      <trkpt lat="42.328579" lon="1.90615">
        <ele>2276</ele>
        <time>1970-01-01T01:41:30.000Z</time>
      </trkpt>
      <trkpt lat="42.328571" lon="1.906132">
        <ele>2276.2</ele>
        <time>1970-01-01T01:41:31.000Z</time>
      </trkpt>
      <trkpt lat="42.32856" lon="1.906114">
        <ele>2276.4</ele>
        <time>1970-01-01T01:41:32.000Z</time>
      </trkpt>
      <trkpt lat="42.328556" lon="1.906099">
        <ele>2276.6</ele>
        <time>1970-01-01T01:41:33.000Z</time>
      </trkpt>
      <trkpt lat="42.328548" lon="1.906081">
        <ele>2276.8</ele>
        <time>1970-01-01T01:41:34.000Z</time>
      </trkpt>
      <trkpt lat="42.328537" lon="1.906061">
        <ele>2277</ele>
        <time>1970-01-01T01:41:35.000Z</time>
      </trkpt>
      <trkpt lat="42.328526" lon="1.906042">
        <ele>2277.2</ele>
        <time>1970-01-01T01:41:36.000Z</time>
      </trkpt>
      <trkpt lat="42.328514" lon="1.906024">
        <ele>2277.4</ele>
        <time>1970-01-01T01:41:37.000Z</time>
      </trkpt>
      <trkpt lat="42.328499" lon="1.906009">
        <ele>2277.6</ele>
        <time>1970-01-01T01:41:38.000Z</time>
      </trkpt>
      <trkpt lat="42.328487" lon="1.905993">
        <ele>2277.8</ele>
        <time>1970-01-01T01:41:39.000Z</time>
      </trkpt>
      <trkpt lat="42.328472" lon="1.905972">
        <ele>2278.1</ele>
        <time>1970-01-01T01:41:40.000Z</time>
      </trkpt>
      <trkpt lat="42.328461" lon="1.905952">
        <ele>2278.3</ele>
        <time>1970-01-01T01:41:41.000Z</time>
      </trkpt>
      <trkpt lat="42.328449" lon="1.905931">
        <ele>2278.5</ele>
        <time>1970-01-01T01:41:42.000Z</time>
      </trkpt>
      <trkpt lat="42.328438" lon="1.905909">
        <ele>2278.8</ele>
        <time>1970-01-01T01:41:43.000Z</time>
      </trkpt>
      <trkpt lat="42.328426" lon="1.905891">
        <ele>2279</ele>
        <time>1970-01-01T01:41:44.000Z</time>
      </trkpt>
      <trkpt lat="42.328415" lon="1.905871">
        <ele>2279.2</ele>
        <time>1970-01-01T01:41:45.000Z</time>
      </trkpt>
      <trkpt lat="42.328403" lon="1.905851">
        <ele>2279.4</ele>
        <time>1970-01-01T01:41:46.000Z</time>
      </trkpt>
      <trkpt lat="42.3284" lon="1.905829">
        <ele>2279.6</ele>
        <time>1970-01-01T01:41:47.000Z</time>
      </trkpt>
      <trkpt lat="42.3284" lon="1.905808">
        <ele>2279.8</ele>
        <time>1970-01-01T01:41:48.000Z</time>
      </trkpt>
      <trkpt lat="42.3284" lon="1.905786">
        <ele>2280</ele>
        <time>1970-01-01T01:41:49.000Z</time>
      </trkpt>
      <trkpt lat="42.328392" lon="1.905763">
        <ele>2280.2</ele>
        <time>1970-01-01T01:41:50.000Z</time>
      </trkpt>
      <trkpt lat="42.328388" lon="1.90574">
        <ele>2280.5</ele>
        <time>1970-01-01T01:41:51.000Z</time>
      </trkpt>
      <trkpt lat="42.328381" lon="1.905721">
        <ele>2280.6</ele>
        <time>1970-01-01T01:41:52.000Z</time>
      </trkpt>
      <trkpt lat="42.328377" lon="1.905701">
        <ele>2280.8</ele>
        <time>1970-01-01T01:41:53.000Z</time>
      </trkpt>
      <trkpt lat="42.328365" lon="1.90568">
        <ele>2281.1</ele>
        <time>1970-01-01T01:41:54.000Z</time>
      </trkpt>
      <trkpt lat="42.328361" lon="1.905661">
        <ele>2281.3</ele>
        <time>1970-01-01T01:41:55.000Z</time>
      </trkpt>
      <trkpt lat="42.32835" lon="1.905642">
        <ele>2281.5</ele>
        <time>1970-01-01T01:41:56.000Z</time>
      </trkpt>
      <trkpt lat="42.328339" lon="1.905623">
        <ele>2281.7</ele>
        <time>1970-01-01T01:41:57.000Z</time>
      </trkpt>
      <trkpt lat="42.328331" lon="1.905602">
        <ele>2281.9</ele>
        <time>1970-01-01T01:41:58.000Z</time>
      </trkpt>
      <trkpt lat="42.328323" lon="1.90558">
        <ele>2282.1</ele>
        <time>1970-01-01T01:41:59.000Z</time>
      </trkpt>
      <trkpt lat="42.328312" lon="1.90556">
        <ele>2282.4</ele>
        <time>1970-01-01T01:42:00.000Z</time>
      </trkpt>
      <trkpt lat="42.328297" lon="1.905537">
        <ele>2282.7</ele>
        <time>1970-01-01T01:42:01.000Z</time>
      </trkpt>
      <trkpt lat="42.328289" lon="1.905515">
        <ele>2282.9</ele>
        <time>1970-01-01T01:42:02.000Z</time>
      </trkpt>
      <trkpt lat="42.328278" lon="1.905493">
        <ele>2283.1</ele>
        <time>1970-01-01T01:42:03.000Z</time>
      </trkpt>
      <trkpt lat="42.328266" lon="1.905473">
        <ele>2283.4</ele>
        <time>1970-01-01T01:42:04.000Z</time>
      </trkpt>
      <trkpt lat="42.328255" lon="1.905453">
        <ele>2283.6</ele>
        <time>1970-01-01T01:42:05.000Z</time>
      </trkpt>
      <trkpt lat="42.328243" lon="1.905433">
        <ele>2283.9</ele>
        <time>1970-01-01T01:42:06.000Z</time>
      </trkpt>
      <trkpt lat="42.328228" lon="1.905414">
        <ele>2284.2</ele>
        <time>1970-01-01T01:42:07.000Z</time>
      </trkpt>
      <trkpt lat="42.328217" lon="1.905395">
        <ele>2284.5</ele>
        <time>1970-01-01T01:42:08.000Z</time>
      </trkpt>
      <trkpt lat="42.328201" lon="1.905378">
        <ele>2284.8</ele>
        <time>1970-01-01T01:42:09.000Z</time>
      </trkpt>
      <trkpt lat="42.328186" lon="1.905361">
        <ele>2285.1</ele>
        <time>1970-01-01T01:42:10.000Z</time>
      </trkpt>
      <trkpt lat="42.328175" lon="1.905344">
        <ele>2285.3</ele>
        <time>1970-01-01T01:42:11.000Z</time>
      </trkpt>
      <trkpt lat="42.328156" lon="1.905329">
        <ele>2285.6</ele>
        <time>1970-01-01T01:42:12.000Z</time>
      </trkpt>
      <trkpt lat="42.32814" lon="1.905315">
        <ele>2285.9</ele>
        <time>1970-01-01T01:42:13.000Z</time>
      </trkpt>
      <trkpt lat="42.328129" lon="1.9053">
        <ele>2286.1</ele>
        <time>1970-01-01T01:42:14.000Z</time>
      </trkpt>
      <trkpt lat="42.328117" lon="1.905284">
        <ele>2286.4</ele>
        <time>1970-01-01T01:42:15.000Z</time>
      </trkpt>
      <trkpt lat="42.328102" lon="1.905267">
        <ele>2286.7</ele>
        <time>1970-01-01T01:42:16.000Z</time>
      </trkpt>
      <trkpt lat="42.328087" lon="1.905252">
        <ele>2287</ele>
        <time>1970-01-01T01:42:17.000Z</time>
      </trkpt>
      <trkpt lat="42.328075" lon="1.905238">
        <ele>2287.2</ele>
        <time>1970-01-01T01:42:18.000Z</time>
      </trkpt>
      <trkpt lat="42.32806" lon="1.905222">
        <ele>2287.6</ele>
        <time>1970-01-01T01:42:19.000Z</time>
      </trkpt>
      <trkpt lat="42.328045" lon="1.90521">
        <ele>2287.8</ele>
        <time>1970-01-01T01:42:20.000Z</time>
      </trkpt>
      <trkpt lat="42.32803" lon="1.9052">
        <ele>2288.1</ele>
        <time>1970-01-01T01:42:21.000Z</time>
      </trkpt>
      <trkpt lat="42.328014" lon="1.905188">
        <ele>2288.5</ele>
        <time>1970-01-01T01:42:22.000Z</time>
      </trkpt>
      <trkpt lat="42.327995" lon="1.905176">
        <ele>2288.8</ele>
        <time>1970-01-01T01:42:23.000Z</time>
      </trkpt>
      <trkpt lat="42.327984" lon="1.905163">
        <ele>2289.1</ele>
        <time>1970-01-01T01:42:24.000Z</time>
      </trkpt>
      <trkpt lat="42.327969" lon="1.905152">
        <ele>2289.4</ele>
        <time>1970-01-01T01:42:25.000Z</time>
      </trkpt>
      <trkpt lat="42.327953" lon="1.905146">
        <ele>2289.7</ele>
        <time>1970-01-01T01:42:26.000Z</time>
      </trkpt>
      <trkpt lat="42.327942" lon="1.905138">
        <ele>2289.9</ele>
        <time>1970-01-01T01:42:27.000Z</time>
      </trkpt>
      <trkpt lat="42.327927" lon="1.905127">
        <ele>2290.2</ele>
        <time>1970-01-01T01:42:28.000Z</time>
      </trkpt>
      <trkpt lat="42.327911" lon="1.905115">
        <ele>2290.5</ele>
        <time>1970-01-01T01:42:29.000Z</time>
      </trkpt>
      <trkpt lat="42.327896" lon="1.905103">
        <ele>2290.8</ele>
        <time>1970-01-01T01:42:30.000Z</time>
      </trkpt>
      <trkpt lat="42.327885" lon="1.905089">
        <ele>2291.1</ele>
        <time>1970-01-01T01:42:31.000Z</time>
      </trkpt>
      <trkpt lat="42.327869" lon="1.905078">
        <ele>2291.4</ele>
        <time>1970-01-01T01:42:32.000Z</time>
      </trkpt>
      <trkpt lat="42.327854" lon="1.905068">
        <ele>2291.7</ele>
        <time>1970-01-01T01:42:33.000Z</time>
      </trkpt>
      <trkpt lat="42.327839" lon="1.905061">
        <ele>2292</ele>
        <time>1970-01-01T01:42:34.000Z</time>
      </trkpt>
      <trkpt lat="42.327824" lon="1.905051">
        <ele>2292.3</ele>
        <time>1970-01-01T01:42:35.000Z</time>
      </trkpt>
      <trkpt lat="42.327808" lon="1.90504">
        <ele>2292.6</ele>
        <time>1970-01-01T01:42:36.000Z</time>
      </trkpt>
      <trkpt lat="42.327797" lon="1.905027">
        <ele>2292.9</ele>
        <time>1970-01-01T01:42:37.000Z</time>
      </trkpt>
      <trkpt lat="42.327785" lon="1.905015">
        <ele>2293.2</ele>
        <time>1970-01-01T01:42:38.000Z</time>
      </trkpt>
      <trkpt lat="42.32777" lon="1.905003">
        <ele>2293.5</ele>
        <time>1970-01-01T01:42:39.000Z</time>
      </trkpt>
      <trkpt lat="42.327759" lon="1.904993">
        <ele>2293.7</ele>
        <time>1970-01-01T01:42:40.000Z</time>
      </trkpt>
      <trkpt lat="42.32774" lon="1.904981">
        <ele>2294.1</ele>
        <time>1970-01-01T01:42:41.000Z</time>
      </trkpt>
      <trkpt lat="42.327724" lon="1.904967">
        <ele>2294.5</ele>
        <time>1970-01-01T01:42:42.000Z</time>
      </trkpt>
      <trkpt lat="42.327713" lon="1.904954">
        <ele>2294.8</ele>
        <time>1970-01-01T01:42:43.000Z</time>
      </trkpt>
      <trkpt lat="42.327702" lon="1.90494">
        <ele>2295.1</ele>
        <time>1970-01-01T01:42:44.000Z</time>
      </trkpt>
      <trkpt lat="42.32769" lon="1.904927">
        <ele>2295.4</ele>
        <time>1970-01-01T01:42:45.000Z</time>
      </trkpt>
      <trkpt lat="42.327682" lon="1.904912">
        <ele>2295.7</ele>
        <time>1970-01-01T01:42:46.000Z</time>
      </trkpt>
      <trkpt lat="42.327671" lon="1.9049">
        <ele>2295.9</ele>
        <time>1970-01-01T01:42:47.000Z</time>
      </trkpt>
      <trkpt lat="42.32766" lon="1.904887">
        <ele>2296.2</ele>
        <time>1970-01-01T01:42:48.000Z</time>
      </trkpt>
      <trkpt lat="42.327648" lon="1.904874">
        <ele>2296.5</ele>
        <time>1970-01-01T01:42:49.000Z</time>
      </trkpt>
      <trkpt lat="42.327637" lon="1.904863">
        <ele>2296.8</ele>
        <time>1970-01-01T01:42:50.000Z</time>
      </trkpt>
      <trkpt lat="42.327625" lon="1.904852">
        <ele>2297.1</ele>
        <time>1970-01-01T01:42:51.000Z</time>
      </trkpt>
      <trkpt lat="42.327618" lon="1.90484">
        <ele>2297.3</ele>
        <time>1970-01-01T01:42:52.000Z</time>
      </trkpt>
      <trkpt lat="42.327606" lon="1.90483">
        <ele>2297.6</ele>
        <time>1970-01-01T01:42:53.000Z</time>
      </trkpt>
      <trkpt lat="42.327595" lon="1.904818">
        <ele>2297.8</ele>
        <time>1970-01-01T01:42:54.000Z</time>
      </trkpt>
      <trkpt lat="42.327583" lon="1.904805">
        <ele>2298.1</ele>
        <time>1970-01-01T01:42:55.000Z</time>
      </trkpt>
      <trkpt lat="42.327572" lon="1.90479">
        <ele>2298.4</ele>
        <time>1970-01-01T01:42:56.000Z</time>
      </trkpt>
      <trkpt lat="42.327564" lon="1.904775">
        <ele>2298.7</ele>
        <time>1970-01-01T01:42:57.000Z</time>
      </trkpt>
      <trkpt lat="42.327553" lon="1.904762">
        <ele>2299</ele>
        <time>1970-01-01T01:42:58.000Z</time>
      </trkpt>
      <trkpt lat="42.327545" lon="1.90475">
        <ele>2299.2</ele>
        <time>1970-01-01T01:42:59.000Z</time>
      </trkpt>
      <trkpt lat="42.327534" lon="1.904741">
        <ele>2299.5</ele>
        <time>1970-01-01T01:43:00.000Z</time>
      </trkpt>
      <trkpt lat="42.327522" lon="1.90473">
        <ele>2299.8</ele>
        <time>1970-01-01T01:43:01.000Z</time>
      </trkpt>
      <trkpt lat="42.327511" lon="1.904717">
        <ele>2300</ele>
        <time>1970-01-01T01:43:02.000Z</time>
      </trkpt>
      <trkpt lat="42.327503" lon="1.904705">
        <ele>2300.3</ele>
        <time>1970-01-01T01:43:03.000Z</time>
      </trkpt>
      <trkpt lat="42.327488" lon="1.904695">
        <ele>2300.6</ele>
        <time>1970-01-01T01:43:04.000Z</time>
      </trkpt>
      <trkpt lat="42.327477" lon="1.904689">
        <ele>2300.8</ele>
        <time>1970-01-01T01:43:05.000Z</time>
      </trkpt>
      <trkpt lat="42.327461" lon="1.904681">
        <ele>2301.2</ele>
        <time>1970-01-01T01:43:06.000Z</time>
      </trkpt>
      <trkpt lat="42.327446" lon="1.904669">
        <ele>2301.5</ele>
        <time>1970-01-01T01:43:07.000Z</time>
      </trkpt>
      <trkpt lat="42.327438" lon="1.904654">
        <ele>2301.8</ele>
        <time>1970-01-01T01:43:08.000Z</time>
      </trkpt>
      <trkpt lat="42.327427" lon="1.904633">
        <ele>2302.1</ele>
        <time>1970-01-01T01:43:09.000Z</time>
      </trkpt>
      <trkpt lat="42.327423" lon="1.904613">
        <ele>2302.4</ele>
        <time>1970-01-01T01:43:10.000Z</time>
      </trkpt>
      <trkpt lat="42.327416" lon="1.904594">
        <ele>2302.7</ele>
        <time>1970-01-01T01:43:11.000Z</time>
      </trkpt>
      <trkpt lat="42.327408" lon="1.904574">
        <ele>2303</ele>
        <time>1970-01-01T01:43:12.000Z</time>
      </trkpt>
      <trkpt lat="42.327396" lon="1.904559">
        <ele>2303.4</ele>
        <time>1970-01-01T01:43:13.000Z</time>
      </trkpt>
      <trkpt lat="42.327385" lon="1.904541">
        <ele>2303.7</ele>
        <time>1970-01-01T01:43:14.000Z</time>
      </trkpt>
      <trkpt lat="42.327374" lon="1.904521">
        <ele>2304</ele>
        <time>1970-01-01T01:43:15.000Z</time>
      </trkpt>
      <trkpt lat="42.327366" lon="1.904505">
        <ele>2304.3</ele>
        <time>1970-01-01T01:43:16.000Z</time>
      </trkpt>
      <trkpt lat="42.327354" lon="1.904493">
        <ele>2304.6</ele>
        <time>1970-01-01T01:43:17.000Z</time>
      </trkpt>
      <trkpt lat="42.327347" lon="1.904483">
        <ele>2304.8</ele>
        <time>1970-01-01T01:43:18.000Z</time>
      </trkpt>
      <trkpt lat="42.327332" lon="1.904473">
        <ele>2305.1</ele>
        <time>1970-01-01T01:43:19.000Z</time>
      </trkpt>
      <trkpt lat="42.327316" lon="1.904463">
        <ele>2305.4</ele>
        <time>1970-01-01T01:43:20.000Z</time>
      </trkpt>
      <trkpt lat="42.327305" lon="1.904453">
        <ele>2305.7</ele>
        <time>1970-01-01T01:43:21.000Z</time>
      </trkpt>
      <trkpt lat="42.327293" lon="1.90444">
        <ele>2306</ele>
        <time>1970-01-01T01:43:22.000Z</time>
      </trkpt>
      <trkpt lat="42.327286" lon="1.904427">
        <ele>2306.2</ele>
        <time>1970-01-01T01:43:23.000Z</time>
      </trkpt>
      <trkpt lat="42.327274" lon="1.904418">
        <ele>2306.5</ele>
        <time>1970-01-01T01:43:24.000Z</time>
      </trkpt>
      <trkpt lat="42.327263" lon="1.904409">
        <ele>2306.7</ele>
        <time>1970-01-01T01:43:25.000Z</time>
      </trkpt>
      <trkpt lat="42.327251" lon="1.904398">
        <ele>2306.9</ele>
        <time>1970-01-01T01:43:26.000Z</time>
      </trkpt>
      <trkpt lat="42.32724" lon="1.904386">
        <ele>2307.2</ele>
        <time>1970-01-01T01:43:27.000Z</time>
      </trkpt>
      <trkpt lat="42.327232" lon="1.904377">
        <ele>2307.4</ele>
        <time>1970-01-01T01:43:28.000Z</time>
      </trkpt>
      <trkpt lat="42.327221" lon="1.904365">
        <ele>2307.6</ele>
        <time>1970-01-01T01:43:29.000Z</time>
      </trkpt>
      <trkpt lat="42.327209" lon="1.904355">
        <ele>2307.9</ele>
        <time>1970-01-01T01:43:30.000Z</time>
      </trkpt>
      <trkpt lat="42.327202" lon="1.904345">
        <ele>2308.1</ele>
        <time>1970-01-01T01:43:31.000Z</time>
      </trkpt>
      <trkpt lat="42.32719" lon="1.904334">
        <ele>2308.3</ele>
        <time>1970-01-01T01:43:32.000Z</time>
      </trkpt>
      <trkpt lat="42.327175" lon="1.904324">
        <ele>2308.6</ele>
        <time>1970-01-01T01:43:33.000Z</time>
      </trkpt>
      <trkpt lat="42.327167" lon="1.904316">
        <ele>2308.8</ele>
        <time>1970-01-01T01:43:34.000Z</time>
      </trkpt>
      <trkpt lat="42.327156" lon="1.904308">
        <ele>2309</ele>
        <time>1970-01-01T01:43:35.000Z</time>
      </trkpt>
      <trkpt lat="42.327145" lon="1.904298">
        <ele>2309.2</ele>
        <time>1970-01-01T01:43:36.000Z</time>
      </trkpt>
      <trkpt lat="42.327133" lon="1.904286">
        <ele>2309.5</ele>
        <time>1970-01-01T01:43:37.000Z</time>
      </trkpt>
      <trkpt lat="42.327126" lon="1.904279">
        <ele>2309.6</ele>
        <time>1970-01-01T01:43:38.000Z</time>
      </trkpt>
      <trkpt lat="42.32711" lon="1.904273">
        <ele>2309.9</ele>
        <time>1970-01-01T01:43:39.000Z</time>
      </trkpt>
      <trkpt lat="42.327099" lon="1.904264">
        <ele>2310.1</ele>
        <time>1970-01-01T01:43:40.000Z</time>
      </trkpt>
      <trkpt lat="42.327091" lon="1.904252">
        <ele>2310.4</ele>
        <time>1970-01-01T01:43:41.000Z</time>
      </trkpt>
      <trkpt lat="42.32708" lon="1.904238">
        <ele>2310.6</ele>
        <time>1970-01-01T01:43:42.000Z</time>
      </trkpt>
      <trkpt lat="42.327072" lon="1.904224">
        <ele>2310.8</ele>
        <time>1970-01-01T01:43:43.000Z</time>
      </trkpt>
      <trkpt lat="42.327065" lon="1.90421">
        <ele>2311.1</ele>
        <time>1970-01-01T01:43:44.000Z</time>
      </trkpt>
      <trkpt lat="42.327053" lon="1.904198">
        <ele>2311.3</ele>
        <time>1970-01-01T01:43:45.000Z</time>
      </trkpt>
      <trkpt lat="42.327042" lon="1.904185">
        <ele>2311.6</ele>
        <time>1970-01-01T01:43:46.000Z</time>
      </trkpt>
      <trkpt lat="42.32703" lon="1.904175">
        <ele>2311.8</ele>
        <time>1970-01-01T01:43:47.000Z</time>
      </trkpt>
      <trkpt lat="42.327023" lon="1.904162">
        <ele>2312</ele>
        <time>1970-01-01T01:43:48.000Z</time>
      </trkpt>
      <trkpt lat="42.327015" lon="1.904149">
        <ele>2312.2</ele>
        <time>1970-01-01T01:43:49.000Z</time>
      </trkpt>
      <trkpt lat="42.327" lon="1.904138">
        <ele>2312.5</ele>
        <time>1970-01-01T01:43:50.000Z</time>
      </trkpt>
      <trkpt lat="42.326988" lon="1.904128">
        <ele>2312.8</ele>
        <time>1970-01-01T01:43:51.000Z</time>
      </trkpt>
      <trkpt lat="42.326973" lon="1.904117">
        <ele>2313.1</ele>
        <time>1970-01-01T01:43:52.000Z</time>
      </trkpt>
      <trkpt lat="42.326962" lon="1.904105">
        <ele>2313.3</ele>
        <time>1970-01-01T01:43:53.000Z</time>
      </trkpt>
      <trkpt lat="42.32695" lon="1.904096">
        <ele>2313.6</ele>
        <time>1970-01-01T01:43:54.000Z</time>
      </trkpt>
      <trkpt lat="42.326939" lon="1.904088">
        <ele>2313.8</ele>
        <time>1970-01-01T01:43:55.000Z</time>
      </trkpt>
      <trkpt lat="42.326927" lon="1.904079">
        <ele>2314.1</ele>
        <time>1970-01-01T01:43:56.000Z</time>
      </trkpt>
      <trkpt lat="42.326916" lon="1.904071">
        <ele>2314.3</ele>
        <time>1970-01-01T01:43:57.000Z</time>
      </trkpt>
      <trkpt lat="42.326904" lon="1.904057">
        <ele>2314.6</ele>
        <time>1970-01-01T01:43:58.000Z</time>
      </trkpt>
      <trkpt lat="42.326893" lon="1.904042">
        <ele>2314.8</ele>
        <time>1970-01-01T01:43:59.000Z</time>
      </trkpt>
      <trkpt lat="42.326885" lon="1.90403">
        <ele>2315</ele>
        <time>1970-01-01T01:44:00.000Z</time>
      </trkpt>
      <trkpt lat="42.326874" lon="1.904021">
        <ele>2315.3</ele>
        <time>1970-01-01T01:44:01.000Z</time>
      </trkpt>
      <trkpt lat="42.326862" lon="1.904013">
        <ele>2315.5</ele>
        <time>1970-01-01T01:44:02.000Z</time>
      </trkpt>
      <trkpt lat="42.326851" lon="1.904002">
        <ele>2315.8</ele>
        <time>1970-01-01T01:44:03.000Z</time>
      </trkpt>
      <trkpt lat="42.326843" lon="1.903989">
        <ele>2316</ele>
        <time>1970-01-01T01:44:04.000Z</time>
      </trkpt>
      <trkpt lat="42.326832" lon="1.903975">
        <ele>2316.3</ele>
        <time>1970-01-01T01:44:05.000Z</time>
      </trkpt>
      <trkpt lat="42.32682" lon="1.903963">
        <ele>2316.5</ele>
        <time>1970-01-01T01:44:06.000Z</time>
      </trkpt>
      <trkpt lat="42.326813" lon="1.903954">
        <ele>2316.7</ele>
        <time>1970-01-01T01:44:07.000Z</time>
      </trkpt>
      <trkpt lat="42.326805" lon="1.903943">
        <ele>2316.9</ele>
        <time>1970-01-01T01:44:08.000Z</time>
      </trkpt>
      <trkpt lat="42.326798" lon="1.90393">
        <ele>2317.1</ele>
        <time>1970-01-01T01:44:09.000Z</time>
      </trkpt>
      <trkpt lat="42.326786" lon="1.903918">
        <ele>2317.4</ele>
        <time>1970-01-01T01:44:10.000Z</time>
      </trkpt>
      <trkpt lat="42.326775" lon="1.903907">
        <ele>2317.6</ele>
        <time>1970-01-01T01:44:11.000Z</time>
      </trkpt>
      <trkpt lat="42.326767" lon="1.903897">
        <ele>2317.8</ele>
        <time>1970-01-01T01:44:12.000Z</time>
      </trkpt>
      <trkpt lat="42.326752" lon="1.903886">
        <ele>2318.1</ele>
        <time>1970-01-01T01:44:13.000Z</time>
      </trkpt>
      <trkpt lat="42.32674" lon="1.903878">
        <ele>2318.4</ele>
        <time>1970-01-01T01:44:14.000Z</time>
      </trkpt>
      <trkpt lat="42.326725" lon="1.903871">
        <ele>2318.6</ele>
        <time>1970-01-01T01:44:15.000Z</time>
      </trkpt>
      <trkpt lat="42.326714" lon="1.903864">
        <ele>2318.9</ele>
        <time>1970-01-01T01:44:16.000Z</time>
      </trkpt>
      <trkpt lat="42.326702" lon="1.903855">
        <ele>2319.1</ele>
        <time>1970-01-01T01:44:17.000Z</time>
      </trkpt>
      <trkpt lat="42.326691" lon="1.903845">
        <ele>2319.3</ele>
        <time>1970-01-01T01:44:18.000Z</time>
      </trkpt>
      <trkpt lat="42.326675" lon="1.903836">
        <ele>2319.6</ele>
        <time>1970-01-01T01:44:19.000Z</time>
      </trkpt>
      <trkpt lat="42.326664" lon="1.903828">
        <ele>2319.9</ele>
        <time>1970-01-01T01:44:20.000Z</time>
      </trkpt>
      <trkpt lat="42.326649" lon="1.903819">
        <ele>2320.2</ele>
        <time>1970-01-01T01:44:21.000Z</time>
      </trkpt>
      <trkpt lat="42.326637" lon="1.903811">
        <ele>2320.4</ele>
        <time>1970-01-01T01:44:22.000Z</time>
      </trkpt>
      <trkpt lat="42.326622" lon="1.903801">
        <ele>2320.7</ele>
        <time>1970-01-01T01:44:23.000Z</time>
      </trkpt>
      <trkpt lat="42.326611" lon="1.903794">
        <ele>2320.9</ele>
        <time>1970-01-01T01:44:24.000Z</time>
      </trkpt>
      <trkpt lat="42.326599" lon="1.903786">
        <ele>2321.1</ele>
        <time>1970-01-01T01:44:25.000Z</time>
      </trkpt>
      <trkpt lat="42.326588" lon="1.903778">
        <ele>2321.4</ele>
        <time>1970-01-01T01:44:26.000Z</time>
      </trkpt>
      <trkpt lat="42.326572" lon="1.903769">
        <ele>2321.7</ele>
        <time>1970-01-01T01:44:27.000Z</time>
      </trkpt>
      <trkpt lat="42.326561" lon="1.903761">
        <ele>2321.9</ele>
        <time>1970-01-01T01:44:28.000Z</time>
      </trkpt>
      <trkpt lat="42.32655" lon="1.903751">
        <ele>2322.1</ele>
        <time>1970-01-01T01:44:29.000Z</time>
      </trkpt>
      <trkpt lat="42.326542" lon="1.903743">
        <ele>2322.3</ele>
        <time>1970-01-01T01:44:30.000Z</time>
      </trkpt>
      <trkpt lat="42.32653" lon="1.903736">
        <ele>2322.5</ele>
        <time>1970-01-01T01:44:31.000Z</time>
      </trkpt>
      <trkpt lat="42.326523" lon="1.903728">
        <ele>2322.7</ele>
        <time>1970-01-01T01:44:32.000Z</time>
      </trkpt>
      <trkpt lat="42.326508" lon="1.90372">
        <ele>2322.9</ele>
        <time>1970-01-01T01:44:33.000Z</time>
      </trkpt>
      <trkpt lat="42.326496" lon="1.903711">
        <ele>2323.2</ele>
        <time>1970-01-01T01:44:34.000Z</time>
      </trkpt>
      <trkpt lat="42.326485" lon="1.903703">
        <ele>2323.4</ele>
        <time>1970-01-01T01:44:35.000Z</time>
      </trkpt>
      <trkpt lat="42.326469" lon="1.903694">
        <ele>2323.6</ele>
        <time>1970-01-01T01:44:36.000Z</time>
      </trkpt>
      <trkpt lat="42.326458" lon="1.903689">
        <ele>2323.8</ele>
        <time>1970-01-01T01:44:37.000Z</time>
      </trkpt>
      <trkpt lat="42.326447" lon="1.903683">
        <ele>2324</ele>
        <time>1970-01-01T01:44:38.000Z</time>
      </trkpt>
      <trkpt lat="42.326431" lon="1.903675">
        <ele>2324.3</ele>
        <time>1970-01-01T01:44:39.000Z</time>
      </trkpt>
      <trkpt lat="42.32642" lon="1.903666">
        <ele>2324.5</ele>
        <time>1970-01-01T01:44:40.000Z</time>
      </trkpt>
      <trkpt lat="42.326408" lon="1.903656">
        <ele>2324.7</ele>
        <time>1970-01-01T01:44:41.000Z</time>
      </trkpt>
      <trkpt lat="42.326397" lon="1.903646">
        <ele>2324.9</ele>
        <time>1970-01-01T01:44:42.000Z</time>
      </trkpt>
      <trkpt lat="42.326389" lon="1.903637">
        <ele>2325</ele>
        <time>1970-01-01T01:44:43.000Z</time>
      </trkpt>
      <trkpt lat="42.326374" lon="1.903625">
        <ele>2325.3</ele>
        <time>1970-01-01T01:44:44.000Z</time>
      </trkpt>
      <trkpt lat="42.326363" lon="1.903612">
        <ele>2325.5</ele>
        <time>1970-01-01T01:44:45.000Z</time>
      </trkpt>
      <trkpt lat="42.326351" lon="1.903601">
        <ele>2325.7</ele>
        <time>1970-01-01T01:44:46.000Z</time>
      </trkpt>
      <trkpt lat="42.32634" lon="1.903593">
        <ele>2325.8</ele>
        <time>1970-01-01T01:44:47.000Z</time>
      </trkpt>
      <trkpt lat="42.326324" lon="1.903587">
        <ele>2326</ele>
        <time>1970-01-01T01:44:48.000Z</time>
      </trkpt>
      <trkpt lat="42.326309" lon="1.903587">
        <ele>2326.2</ele>
        <time>1970-01-01T01:44:49.000Z</time>
      </trkpt>
      <trkpt lat="42.326294" lon="1.903584">
        <ele>2326.4</ele>
        <time>1970-01-01T01:44:50.000Z</time>
      </trkpt>
      <trkpt lat="42.326279" lon="1.903577">
        <ele>2326.6</ele>
        <time>1970-01-01T01:44:51.000Z</time>
      </trkpt>
      <trkpt lat="42.32626" lon="1.903571">
        <ele>2326.9</ele>
        <time>1970-01-01T01:44:52.000Z</time>
      </trkpt>
      <trkpt lat="42.326241" lon="1.903566">
        <ele>2327.2</ele>
        <time>1970-01-01T01:44:53.000Z</time>
      </trkpt>
      <trkpt lat="42.326229" lon="1.903559">
        <ele>2327.3</ele>
        <time>1970-01-01T01:44:54.000Z</time>
      </trkpt>
      <trkpt lat="42.326214" lon="1.903551">
        <ele>2327.6</ele>
        <time>1970-01-01T01:44:55.000Z</time>
      </trkpt>
      <trkpt lat="42.326195" lon="1.903544">
        <ele>2327.8</ele>
        <time>1970-01-01T01:44:56.000Z</time>
      </trkpt>
      <trkpt lat="42.326176" lon="1.903541">
        <ele>2328.1</ele>
        <time>1970-01-01T01:44:57.000Z</time>
      </trkpt>
      <trkpt lat="42.326157" lon="1.903543">
        <ele>2328.4</ele>
        <time>1970-01-01T01:44:58.000Z</time>
      </trkpt>
      <trkpt lat="42.326138" lon="1.903549">
        <ele>2328.6</ele>
        <time>1970-01-01T01:44:59.000Z</time>
      </trkpt>
      <trkpt lat="42.326122" lon="1.903554">
        <ele>2328.9</ele>
        <time>1970-01-01T01:45:00.000Z</time>
      </trkpt>
      <trkpt lat="42.326099" lon="1.903555">
        <ele>2329.2</ele>
        <time>1970-01-01T01:45:01.000Z</time>
      </trkpt>
      <trkpt lat="42.32608" lon="1.903554">
        <ele>2329.4</ele>
        <time>1970-01-01T01:45:02.000Z</time>
      </trkpt>
      <trkpt lat="42.326057" lon="1.903552">
        <ele>2329.7</ele>
        <time>1970-01-01T01:45:03.000Z</time>
      </trkpt>
      <trkpt lat="42.326035" lon="1.90355">
        <ele>2330</ele>
        <time>1970-01-01T01:45:04.000Z</time>
      </trkpt>
      <trkpt lat="42.326015" lon="1.90355">
        <ele>2330.3</ele>
        <time>1970-01-01T01:45:05.000Z</time>
      </trkpt>
      <trkpt lat="42.325993" lon="1.903549">
        <ele>2330.5</ele>
        <time>1970-01-01T01:45:06.000Z</time>
      </trkpt>
      <trkpt lat="42.32597" lon="1.903544">
        <ele>2330.8</ele>
        <time>1970-01-01T01:45:07.000Z</time>
      </trkpt>
      <trkpt lat="42.325947" lon="1.903541">
        <ele>2331.1</ele>
        <time>1970-01-01T01:45:08.000Z</time>
      </trkpt>
      <trkpt lat="42.32592" lon="1.903539">
        <ele>2331.4</ele>
        <time>1970-01-01T01:45:09.000Z</time>
      </trkpt>
      <trkpt lat="42.325897" lon="1.903538">
        <ele>2331.6</ele>
        <time>1970-01-01T01:45:10.000Z</time>
      </trkpt>
      <trkpt lat="42.325871" lon="1.903537">
        <ele>2331.9</ele>
        <time>1970-01-01T01:45:11.000Z</time>
      </trkpt>
      <trkpt lat="42.325844" lon="1.903535">
        <ele>2332.2</ele>
        <time>1970-01-01T01:45:12.000Z</time>
      </trkpt>
      <trkpt lat="42.325821" lon="1.903534">
        <ele>2332.5</ele>
        <time>1970-01-01T01:45:13.000Z</time>
      </trkpt>
      <trkpt lat="42.325794" lon="1.90353">
        <ele>2332.8</ele>
        <time>1970-01-01T01:45:14.000Z</time>
      </trkpt>
      <trkpt lat="42.325768" lon="1.903524">
        <ele>2333.1</ele>
        <time>1970-01-01T01:45:15.000Z</time>
      </trkpt>
      <trkpt lat="42.325741" lon="1.903518">
        <ele>2333.4</ele>
        <time>1970-01-01T01:45:16.000Z</time>
      </trkpt>
      <trkpt lat="42.325714" lon="1.903511">
        <ele>2333.7</ele>
        <time>1970-01-01T01:45:17.000Z</time>
      </trkpt>
      <trkpt lat="42.325691" lon="1.903503">
        <ele>2334</ele>
        <time>1970-01-01T01:45:18.000Z</time>
      </trkpt>
      <trkpt lat="42.325665" lon="1.903495">
        <ele>2334.3</ele>
        <time>1970-01-01T01:45:19.000Z</time>
      </trkpt>
      <trkpt lat="42.325642" lon="1.903489">
        <ele>2334.6</ele>
        <time>1970-01-01T01:45:20.000Z</time>
      </trkpt>
      <trkpt lat="42.325615" lon="1.903487">
        <ele>2335</ele>
        <time>1970-01-01T01:45:21.000Z</time>
      </trkpt>
      <trkpt lat="42.325592" lon="1.903487">
        <ele>2335.3</ele>
        <time>1970-01-01T01:45:22.000Z</time>
      </trkpt>
      <trkpt lat="42.325569" lon="1.903488">
        <ele>2335.6</ele>
        <time>1970-01-01T01:45:23.000Z</time>
      </trkpt>
      <trkpt lat="42.32555" lon="1.903491">
        <ele>2335.9</ele>
        <time>1970-01-01T01:45:24.000Z</time>
      </trkpt>
      <trkpt lat="42.325527" lon="1.903489">
        <ele>2336.3</ele>
        <time>1970-01-01T01:45:25.000Z</time>
      </trkpt>
      <trkpt lat="42.325508" lon="1.903483">
        <ele>2336.6</ele>
        <time>1970-01-01T01:45:26.000Z</time>
      </trkpt>
      <trkpt lat="42.325489" lon="1.903473">
        <ele>2336.9</ele>
        <time>1970-01-01T01:45:27.000Z</time>
      </trkpt>
      <trkpt lat="42.32547" lon="1.903467">
        <ele>2337.2</ele>
        <time>1970-01-01T01:45:28.000Z</time>
      </trkpt>
      <trkpt lat="42.325447" lon="1.903464">
        <ele>2337.6</ele>
        <time>1970-01-01T01:45:29.000Z</time>
      </trkpt>
      <trkpt lat="42.325428" lon="1.903462">
        <ele>2337.9</ele>
        <time>1970-01-01T01:45:30.000Z</time>
      </trkpt>
      <trkpt lat="42.325409" lon="1.903454">
        <ele>2338.2</ele>
        <time>1970-01-01T01:45:31.000Z</time>
      </trkpt>
      <trkpt lat="42.325386" lon="1.903446">
        <ele>2338.6</ele>
        <time>1970-01-01T01:45:32.000Z</time>
      </trkpt>
      <trkpt lat="42.325367" lon="1.903438">
        <ele>2339</ele>
        <time>1970-01-01T01:45:33.000Z</time>
      </trkpt>
      <trkpt lat="42.325348" lon="1.903424">
        <ele>2339.4</ele>
        <time>1970-01-01T01:45:34.000Z</time>
      </trkpt>
      <trkpt lat="42.325329" lon="1.903406">
        <ele>2339.8</ele>
        <time>1970-01-01T01:45:35.000Z</time>
      </trkpt>
      <trkpt lat="42.325314" lon="1.903386">
        <ele>2340.1</ele>
        <time>1970-01-01T01:45:36.000Z</time>
      </trkpt>
      <trkpt lat="42.325298" lon="1.90336">
        <ele>2340.6</ele>
        <time>1970-01-01T01:45:37.000Z</time>
      </trkpt>
      <trkpt lat="42.325283" lon="1.903333">
        <ele>2341</ele>
        <time>1970-01-01T01:45:38.000Z</time>
      </trkpt>
      <trkpt lat="42.325268" lon="1.903297">
        <ele>2341.6</ele>
        <time>1970-01-01T01:45:39.000Z</time>
      </trkpt>
      <trkpt lat="42.32526" lon="1.903257">
        <ele>2342.1</ele>
        <time>1970-01-01T01:45:40.000Z</time>
      </trkpt>
      <trkpt lat="42.325253" lon="1.903212">
        <ele>2342.7</ele>
        <time>1970-01-01T01:45:41.000Z</time>
      </trkpt>
      <trkpt lat="42.325245" lon="1.903162">
        <ele>2343</ele>
        <time>1970-01-01T01:45:42.000Z</time>
      </trkpt>
      <trkpt lat="42.325245" lon="1.903105">
        <ele>2343.3</ele>
        <time>1970-01-01T01:45:43.000Z</time>
      </trkpt>
      <trkpt lat="42.325233" lon="1.903049">
        <ele>2343.5</ele>
        <time>1970-01-01T01:45:44.000Z</time>
      </trkpt>
      <trkpt lat="42.325226" lon="1.902994">
        <ele>2343.6</ele>
        <time>1970-01-01T01:45:45.000Z</time>
      </trkpt>
      <trkpt lat="42.325214" lon="1.902938">
        <ele>2343.8</ele>
        <time>1970-01-01T01:45:46.000Z</time>
      </trkpt>
      <trkpt lat="42.325199" lon="1.902877">
        <ele>2343.9</ele>
        <time>1970-01-01T01:45:47.000Z</time>
      </trkpt>
      <trkpt lat="42.325176" lon="1.902819">
        <ele>2344.2</ele>
        <time>1970-01-01T01:45:48.000Z</time>
      </trkpt>
      <trkpt lat="42.32515" lon="1.90277">
        <ele>2344.5</ele>
        <time>1970-01-01T01:45:49.000Z</time>
      </trkpt>
      <trkpt lat="42.325123" lon="1.902734">
        <ele>2344.9</ele>
        <time>1970-01-01T01:45:50.000Z</time>
      </trkpt>
      <trkpt lat="42.3251" lon="1.902711">
        <ele>2345.3</ele>
        <time>1970-01-01T01:45:51.000Z</time>
      </trkpt>
      <trkpt lat="42.325085" lon="1.902697">
        <ele>2345.6</ele>
        <time>1970-01-01T01:45:52.000Z</time>
      </trkpt>
      <trkpt lat="42.325069" lon="1.902686">
        <ele>2345.9</ele>
        <time>1970-01-01T01:45:53.000Z</time>
      </trkpt>
      <trkpt lat="42.325054" lon="1.902678">
        <ele>2346.2</ele>
        <time>1970-01-01T01:45:54.000Z</time>
      </trkpt>
      <trkpt lat="42.325039" lon="1.902671">
        <ele>2346.5</ele>
        <time>1970-01-01T01:45:55.000Z</time>
      </trkpt>
      <trkpt lat="42.325024" lon="1.902667">
        <ele>2346.8</ele>
        <time>1970-01-01T01:45:56.000Z</time>
      </trkpt>
      <trkpt lat="42.325008" lon="1.902664">
        <ele>2347.2</ele>
        <time>1970-01-01T01:45:57.000Z</time>
      </trkpt>
      <trkpt lat="42.324993" lon="1.902657">
        <ele>2347.5</ele>
        <time>1970-01-01T01:45:58.000Z</time>
      </trkpt>
      <trkpt lat="42.324978" lon="1.902654">
        <ele>2347.9</ele>
        <time>1970-01-01T01:45:59.000Z</time>
      </trkpt>
      <trkpt lat="42.324963" lon="1.902652">
        <ele>2348.2</ele>
        <time>1970-01-01T01:46:00.000Z</time>
      </trkpt>
      <trkpt lat="42.324951" lon="1.902649">
        <ele>2348.5</ele>
        <time>1970-01-01T01:46:01.000Z</time>
      </trkpt>
      <trkpt lat="42.324936" lon="1.902644">
        <ele>2348.9</ele>
        <time>1970-01-01T01:46:02.000Z</time>
      </trkpt>
      <trkpt lat="42.324921" lon="1.902637">
        <ele>2349.3</ele>
        <time>1970-01-01T01:46:03.000Z</time>
      </trkpt>
      <trkpt lat="42.324905" lon="1.902634">
        <ele>2349.7</ele>
        <time>1970-01-01T01:46:04.000Z</time>
      </trkpt>
      <trkpt lat="42.324894" lon="1.902635">
        <ele>2349.9</ele>
        <time>1970-01-01T01:46:05.000Z</time>
      </trkpt>
      <trkpt lat="42.324879" lon="1.902632">
        <ele>2350.3</ele>
        <time>1970-01-01T01:46:06.000Z</time>
      </trkpt>
      <trkpt lat="42.324867" lon="1.902626">
        <ele>2350.6</ele>
        <time>1970-01-01T01:46:07.000Z</time>
      </trkpt>
      <trkpt lat="42.324856" lon="1.902619">
        <ele>2350.9</ele>
        <time>1970-01-01T01:46:08.000Z</time>
      </trkpt>
      <trkpt lat="42.324844" lon="1.902611">
        <ele>2351.2</ele>
        <time>1970-01-01T01:46:09.000Z</time>
      </trkpt>
      <trkpt lat="42.324829" lon="1.902609">
        <ele>2351.6</ele>
        <time>1970-01-01T01:46:10.000Z</time>
      </trkpt>
      <trkpt lat="42.324818" lon="1.902611">
        <ele>2351.9</ele>
        <time>1970-01-01T01:46:11.000Z</time>
      </trkpt>
      <trkpt lat="42.324802" lon="1.902616">
        <ele>2352.2</ele>
        <time>1970-01-01T01:46:12.000Z</time>
      </trkpt>
      <trkpt lat="42.324787" lon="1.902624">
        <ele>2352.6</ele>
        <time>1970-01-01T01:46:13.000Z</time>
      </trkpt>
      <trkpt lat="42.324776" lon="1.902629">
        <ele>2352.9</ele>
        <time>1970-01-01T01:46:14.000Z</time>
      </trkpt>
      <trkpt lat="42.32476" lon="1.902633">
        <ele>2353.2</ele>
        <time>1970-01-01T01:46:15.000Z</time>
      </trkpt>
      <trkpt lat="42.324745" lon="1.902636">
        <ele>2353.5</ele>
        <time>1970-01-01T01:46:16.000Z</time>
      </trkpt>
      <trkpt lat="42.324734" lon="1.902638">
        <ele>2353.7</ele>
        <time>1970-01-01T01:46:17.000Z</time>
      </trkpt>
      <trkpt lat="42.324718" lon="1.902644">
        <ele>2354</ele>
        <time>1970-01-01T01:46:18.000Z</time>
      </trkpt>
      <trkpt lat="42.324711" lon="1.902652">
        <ele>2354.2</ele>
        <time>1970-01-01T01:46:19.000Z</time>
      </trkpt>
      <trkpt lat="42.324699" lon="1.902664">
        <ele>2354.5</ele>
        <time>1970-01-01T01:46:20.000Z</time>
      </trkpt>
      <trkpt lat="42.324692" lon="1.902675">
        <ele>2354.6</ele>
        <time>1970-01-01T01:46:21.000Z</time>
      </trkpt>
      <trkpt lat="42.32468" lon="1.902685">
        <ele>2354.9</ele>
        <time>1970-01-01T01:46:22.000Z</time>
      </trkpt>
      <trkpt lat="42.324669" lon="1.902695">
        <ele>2355.1</ele>
        <time>1970-01-01T01:46:23.000Z</time>
      </trkpt>
      <trkpt lat="42.324657" lon="1.902704">
        <ele>2355.3</ele>
        <time>1970-01-01T01:46:24.000Z</time>
      </trkpt>
      <trkpt lat="42.324646" lon="1.902712">
        <ele>2355.4</ele>
        <time>1970-01-01T01:46:25.000Z</time>
      </trkpt>
      <trkpt lat="42.324635" lon="1.90272">
        <ele>2355.6</ele>
        <time>1970-01-01T01:46:26.000Z</time>
      </trkpt>
      <trkpt lat="42.324623" lon="1.902729">
        <ele>2355.8</ele>
        <time>1970-01-01T01:46:27.000Z</time>
      </trkpt>
      <trkpt lat="42.324615" lon="1.902739">
        <ele>2355.9</ele>
        <time>1970-01-01T01:46:28.000Z</time>
      </trkpt>
      <trkpt lat="42.324608" lon="1.90275">
        <ele>2356.1</ele>
        <time>1970-01-01T01:46:29.000Z</time>
      </trkpt>
      <trkpt lat="42.3246" lon="1.902766">
        <ele>2356.3</ele>
        <time>1970-01-01T01:46:30.000Z</time>
      </trkpt>
      <trkpt lat="42.324596" lon="1.902783">
        <ele>2356.4</ele>
        <time>1970-01-01T01:46:31.000Z</time>
      </trkpt>
      <trkpt lat="42.324589" lon="1.902799">
        <ele>2356.6</ele>
        <time>1970-01-01T01:46:32.000Z</time>
      </trkpt>
      <trkpt lat="42.324585" lon="1.902813">
        <ele>2356.7</ele>
        <time>1970-01-01T01:46:33.000Z</time>
      </trkpt>
      <trkpt lat="42.324574" lon="1.902827">
        <ele>2356.9</ele>
        <time>1970-01-01T01:46:34.000Z</time>
      </trkpt>
      <trkpt lat="42.324566" lon="1.902838">
        <ele>2357</ele>
        <time>1970-01-01T01:46:35.000Z</time>
      </trkpt>
      <trkpt lat="42.324558" lon="1.902853">
        <ele>2357.2</ele>
        <time>1970-01-01T01:46:36.000Z</time>
      </trkpt>
      <trkpt lat="42.324551" lon="1.902869">
        <ele>2357.4</ele>
        <time>1970-01-01T01:46:37.000Z</time>
      </trkpt>
      <trkpt lat="42.324547" lon="1.902886">
        <ele>2357.5</ele>
        <time>1970-01-01T01:46:38.000Z</time>
      </trkpt>
      <trkpt lat="42.324539" lon="1.902901">
        <ele>2357.7</ele>
        <time>1970-01-01T01:46:39.000Z</time>
      </trkpt>
      <trkpt lat="42.324532" lon="1.902915">
        <ele>2357.8</ele>
        <time>1970-01-01T01:46:40.000Z</time>
      </trkpt>
      <trkpt lat="42.32452" lon="1.902928">
        <ele>2358</ele>
        <time>1970-01-01T01:46:41.000Z</time>
      </trkpt>
      <trkpt lat="42.324516" lon="1.902944">
        <ele>2358.2</ele>
        <time>1970-01-01T01:46:42.000Z</time>
      </trkpt>
      <trkpt lat="42.324513" lon="1.902964">
        <ele>2358.4</ele>
        <time>1970-01-01T01:46:43.000Z</time>
      </trkpt>
      <trkpt lat="42.324516" lon="1.902981">
        <ele>2358.5</ele>
        <time>1970-01-01T01:46:44.000Z</time>
      </trkpt>
      <trkpt lat="42.32452" lon="1.902999">
        <ele>2358.7</ele>
        <time>1970-01-01T01:46:45.000Z</time>
      </trkpt>
      <trkpt lat="42.32452" lon="1.903014">
        <ele>2358.8</ele>
        <time>1970-01-01T01:46:46.000Z</time>
      </trkpt>
      <trkpt lat="42.324513" lon="1.903028">
        <ele>2359</ele>
        <time>1970-01-01T01:46:47.000Z</time>
      </trkpt>
      <trkpt lat="42.324505" lon="1.903043">
        <ele>2359.2</ele>
        <time>1970-01-01T01:46:48.000Z</time>
      </trkpt>
      <trkpt lat="42.324497" lon="1.903059">
        <ele>2359.4</ele>
        <time>1970-01-01T01:46:49.000Z</time>
      </trkpt>
      <trkpt lat="42.324493" lon="1.903077">
        <ele>2359.5</ele>
        <time>1970-01-01T01:46:50.000Z</time>
      </trkpt>
      <trkpt lat="42.32449" lon="1.903096">
        <ele>2359.7</ele>
        <time>1970-01-01T01:46:51.000Z</time>
      </trkpt>
      <trkpt lat="42.324486" lon="1.903111">
        <ele>2359.8</ele>
        <time>1970-01-01T01:46:52.000Z</time>
      </trkpt>
      <trkpt lat="42.324474" lon="1.903124">
        <ele>2360</ele>
        <time>1970-01-01T01:46:53.000Z</time>
      </trkpt>
      <trkpt lat="42.324463" lon="1.903139">
        <ele>2360.2</ele>
        <time>1970-01-01T01:46:54.000Z</time>
      </trkpt>
      <trkpt lat="42.324451" lon="1.903156">
        <ele>2360.4</ele>
        <time>1970-01-01T01:46:55.000Z</time>
      </trkpt>
      <trkpt lat="42.324444" lon="1.903174">
        <ele>2360.6</ele>
        <time>1970-01-01T01:46:56.000Z</time>
      </trkpt>
      <trkpt lat="42.324436" lon="1.903193">
        <ele>2360.8</ele>
        <time>1970-01-01T01:46:57.000Z</time>
      </trkpt>
      <trkpt lat="42.324429" lon="1.903216">
        <ele>2361</ele>
        <time>1970-01-01T01:46:58.000Z</time>
      </trkpt>
      <trkpt lat="42.324417" lon="1.903234">
        <ele>2361.2</ele>
        <time>1970-01-01T01:46:59.000Z</time>
      </trkpt>
      <trkpt lat="42.324406" lon="1.903247">
        <ele>2361.4</ele>
        <time>1970-01-01T01:47:00.000Z</time>
      </trkpt>
      <trkpt lat="42.324394" lon="1.903251">
        <ele>2361.5</ele>
        <time>1970-01-01T01:47:01.000Z</time>
      </trkpt>
      <trkpt lat="42.324379" lon="1.903253">
        <ele>2361.8</ele>
        <time>1970-01-01T01:47:02.000Z</time>
      </trkpt>
      <trkpt lat="42.324368" lon="1.903255">
        <ele>2361.9</ele>
        <time>1970-01-01T01:47:03.000Z</time>
      </trkpt>
      <trkpt lat="42.324352" lon="1.903256">
        <ele>2362.1</ele>
        <time>1970-01-01T01:47:04.000Z</time>
      </trkpt>
      <trkpt lat="42.324337" lon="1.903257">
        <ele>2362.4</ele>
        <time>1970-01-01T01:47:05.000Z</time>
      </trkpt>
      <trkpt lat="42.324326" lon="1.903254">
        <ele>2362.5</ele>
        <time>1970-01-01T01:47:06.000Z</time>
      </trkpt>
      <trkpt lat="42.324318" lon="1.903246">
        <ele>2362.7</ele>
        <time>1970-01-01T01:47:07.000Z</time>
      </trkpt>
      <trkpt lat="42.324306" lon="1.903233">
        <ele>2362.9</ele>
        <time>1970-01-01T01:47:08.000Z</time>
      </trkpt>
      <trkpt lat="42.324295" lon="1.903224">
        <ele>2363.1</ele>
        <time>1970-01-01T01:47:09.000Z</time>
      </trkpt>
      <trkpt lat="42.324284" lon="1.903213">
        <ele>2363.3</ele>
        <time>1970-01-01T01:47:10.000Z</time>
      </trkpt>
      <trkpt lat="42.324272" lon="1.9032">
        <ele>2363.6</ele>
        <time>1970-01-01T01:47:11.000Z</time>
      </trkpt>
      <trkpt lat="42.324264" lon="1.903187">
        <ele>2363.8</ele>
        <time>1970-01-01T01:47:12.000Z</time>
      </trkpt>
      <trkpt lat="42.324257" lon="1.903175">
        <ele>2363.9</ele>
        <time>1970-01-01T01:47:13.000Z</time>
      </trkpt>
      <trkpt lat="42.324245" lon="1.903163">
        <ele>2364.2</ele>
        <time>1970-01-01T01:47:14.000Z</time>
      </trkpt>
      <trkpt lat="42.324238" lon="1.90315">
        <ele>2364.4</ele>
        <time>1970-01-01T01:47:15.000Z</time>
      </trkpt>
      <trkpt lat="42.324226" lon="1.903139">
        <ele>2364.6</ele>
        <time>1970-01-01T01:47:16.000Z</time>
      </trkpt>
      <trkpt lat="42.324215" lon="1.903125">
        <ele>2364.9</ele>
        <time>1970-01-01T01:47:17.000Z</time>
      </trkpt>
      <trkpt lat="42.324203" lon="1.903112">
        <ele>2365.2</ele>
        <time>1970-01-01T01:47:18.000Z</time>
      </trkpt>
      <trkpt lat="42.324192" lon="1.903103">
        <ele>2365.4</ele>
        <time>1970-01-01T01:47:19.000Z</time>
      </trkpt>
      <trkpt lat="42.324184" lon="1.903092">
        <ele>2365.6</ele>
        <time>1970-01-01T01:47:20.000Z</time>
      </trkpt>
      <trkpt lat="42.324177" lon="1.903081">
        <ele>2365.8</ele>
        <time>1970-01-01T01:47:21.000Z</time>
      </trkpt>
      <trkpt lat="42.324169" lon="1.903067">
        <ele>2366.1</ele>
        <time>1970-01-01T01:47:22.000Z</time>
      </trkpt>
      <trkpt lat="42.324173" lon="1.903048">
        <ele>2366.4</ele>
        <time>1970-01-01T01:47:23.000Z</time>
      </trkpt>
      <trkpt lat="42.324173" lon="1.903028">
        <ele>2366.6</ele>
        <time>1970-01-01T01:47:24.000Z</time>
      </trkpt>
      <trkpt lat="42.324173" lon="1.903009">
        <ele>2366.9</ele>
        <time>1970-01-01T01:47:25.000Z</time>
      </trkpt>
      <trkpt lat="42.324169" lon="1.902994">
        <ele>2367.1</ele>
        <time>1970-01-01T01:47:26.000Z</time>
      </trkpt>
      <trkpt lat="42.324162" lon="1.90298">
        <ele>2367.4</ele>
        <time>1970-01-01T01:47:27.000Z</time>
      </trkpt>
      <trkpt lat="42.324154" lon="1.902968">
        <ele>2367.6</ele>
        <time>1970-01-01T01:47:28.000Z</time>
      </trkpt>
      <trkpt lat="42.324142" lon="1.902959">
        <ele>2367.9</ele>
        <time>1970-01-01T01:47:29.000Z</time>
      </trkpt>
      <trkpt lat="42.324131" lon="1.902948">
        <ele>2368.1</ele>
        <time>1970-01-01T01:47:30.000Z</time>
      </trkpt>
      <trkpt lat="42.324123" lon="1.902941">
        <ele>2368.3</ele>
        <time>1970-01-01T01:47:31.000Z</time>
      </trkpt>
      <trkpt lat="42.324116" lon="1.902931">
        <ele>2368.5</ele>
        <time>1970-01-01T01:47:32.000Z</time>
      </trkpt>
      <trkpt lat="42.324112" lon="1.902917">
        <ele>2368.8</ele>
        <time>1970-01-01T01:47:33.000Z</time>
      </trkpt>
      <trkpt lat="42.324108" lon="1.902901">
        <ele>2369</ele>
        <time>1970-01-01T01:47:34.000Z</time>
      </trkpt>
      <trkpt lat="42.324108" lon="1.902885">
        <ele>2369.3</ele>
        <time>1970-01-01T01:47:35.000Z</time>
      </trkpt>
      <trkpt lat="42.3241" lon="1.902869">
        <ele>2369.6</ele>
        <time>1970-01-01T01:47:36.000Z</time>
      </trkpt>
      <trkpt lat="42.324089" lon="1.902852">
        <ele>2369.9</ele>
        <time>1970-01-01T01:47:37.000Z</time>
      </trkpt>
      <trkpt lat="42.324085" lon="1.902836">
        <ele>2370.2</ele>
        <time>1970-01-01T01:47:38.000Z</time>
      </trkpt>
      <trkpt lat="42.324078" lon="1.902819">
        <ele>2370.5</ele>
        <time>1970-01-01T01:47:39.000Z</time>
      </trkpt>
      <trkpt lat="42.32407" lon="1.902803">
        <ele>2370.8</ele>
        <time>1970-01-01T01:47:40.000Z</time>
      </trkpt>
      <trkpt lat="42.324059" lon="1.902792">
        <ele>2371.2</ele>
        <time>1970-01-01T01:47:41.000Z</time>
      </trkpt>
      <trkpt lat="42.324055" lon="1.902779">
        <ele>2371.4</ele>
        <time>1970-01-01T01:47:42.000Z</time>
      </trkpt>
      <trkpt lat="42.324051" lon="1.902762">
        <ele>2371.7</ele>
        <time>1970-01-01T01:47:43.000Z</time>
      </trkpt>
      <trkpt lat="42.324047" lon="1.902747">
        <ele>2371.9</ele>
        <time>1970-01-01T01:47:44.000Z</time>
      </trkpt>
      <trkpt lat="42.324043" lon="1.902733">
        <ele>2372.2</ele>
        <time>1970-01-01T01:47:45.000Z</time>
      </trkpt>
      <trkpt lat="42.324036" lon="1.902724">
        <ele>2372.4</ele>
        <time>1970-01-01T01:47:46.000Z</time>
      </trkpt>
      <trkpt lat="42.324024" lon="1.902718">
        <ele>2372.7</ele>
        <time>1970-01-01T01:47:47.000Z</time>
      </trkpt>
      <trkpt lat="42.324017" lon="1.902712">
        <ele>2372.9</ele>
        <time>1970-01-01T01:47:48.000Z</time>
      </trkpt>
      <trkpt lat="42.324005" lon="1.902706">
        <ele>2373.2</ele>
        <time>1970-01-01T01:47:49.000Z</time>
      </trkpt>
      <trkpt lat="42.323994" lon="1.902698">
        <ele>2373.4</ele>
        <time>1970-01-01T01:47:50.000Z</time>
      </trkpt>
      <trkpt lat="42.323986" lon="1.902688">
        <ele>2373.7</ele>
        <time>1970-01-01T01:47:51.000Z</time>
      </trkpt>
      <trkpt lat="42.323978" lon="1.902674">
        <ele>2374</ele>
        <time>1970-01-01T01:47:52.000Z</time>
      </trkpt>
      <trkpt lat="42.323975" lon="1.902657">
        <ele>2374.2</ele>
        <time>1970-01-01T01:47:53.000Z</time>
      </trkpt>
      <trkpt lat="42.323963" lon="1.902645">
        <ele>2374.6</ele>
        <time>1970-01-01T01:47:54.000Z</time>
      </trkpt>
      <trkpt lat="42.323963" lon="1.902642">
        <ele>2374.6</ele>
        <time>1970-01-01T01:47:55.000Z</time>
      </trkpt>
      <trkpt lat="42.323963" lon="1.902642">
        <ele>2374.6</ele>
        <time>1970-01-01T01:47:56.000Z</time>
      </trkpt>
      <trkpt lat="42.323925" lon="1.902667">
        <ele>2375.6</ele>
        <time>1970-01-01T01:48:13.000Z</time>
      </trkpt>
      <trkpt lat="42.323921" lon="1.902677">
        <ele>2375.8</ele>
        <time>1970-01-01T01:48:14.000Z</time>
      </trkpt>
      <trkpt lat="42.32391" lon="1.902692">
        <ele>2376.1</ele>
        <time>1970-01-01T01:48:15.000Z</time>
      </trkpt>
      <trkpt lat="42.323898" lon="1.902691">
        <ele>2376.4</ele>
        <time>1970-01-01T01:48:16.000Z</time>
      </trkpt>
      <trkpt lat="42.323895" lon="1.902659">
        <ele>2376.9</ele>
        <time>1970-01-01T01:48:17.000Z</time>
      </trkpt>
      <trkpt lat="42.323879" lon="1.902664">
        <ele>2377.3</ele>
        <time>1970-01-01T01:48:18.000Z</time>
      </trkpt>
      <trkpt lat="42.323875" lon="1.902655">
        <ele>2377.4</ele>
        <time>1970-01-01T01:48:19.000Z</time>
      </trkpt>
      <trkpt lat="42.323879" lon="1.902659">
        <ele>2377.5</ele>
        <time>1970-01-01T01:48:20.000Z</time>
      </trkpt>
      <trkpt lat="42.323879" lon="1.902665">
        <ele>2377.6</ele>
        <time>1970-01-01T01:48:21.000Z</time>
      </trkpt>
      <trkpt lat="42.323872" lon="1.902668">
        <ele>2377.8</ele>
        <time>1970-01-01T01:48:22.000Z</time>
      </trkpt>
      <trkpt lat="42.323864" lon="1.902676">
        <ele>2378</ele>
        <time>1970-01-01T01:48:23.000Z</time>
      </trkpt>
      <trkpt lat="42.32386" lon="1.902683">
        <ele>2378.1</ele>
        <time>1970-01-01T01:48:24.000Z</time>
      </trkpt>
      <trkpt lat="42.323853" lon="1.902691">
        <ele>2378.3</ele>
        <time>1970-01-01T01:48:25.000Z</time>
      </trkpt>
      <trkpt lat="42.323845" lon="1.902701">
        <ele>2378.5</ele>
        <time>1970-01-01T01:48:26.000Z</time>
      </trkpt>
      <trkpt lat="42.323845" lon="1.902708">
        <ele>2378.6</ele>
        <time>1970-01-01T01:48:27.000Z</time>
      </trkpt>
      <trkpt lat="42.323841" lon="1.902716">
        <ele>2378.8</ele>
        <time>1970-01-01T01:48:28.000Z</time>
      </trkpt>
      <trkpt lat="42.323833" lon="1.902722">
        <ele>2379</ele>
        <time>1970-01-01T01:48:29.000Z</time>
      </trkpt>
      <trkpt lat="42.32383" lon="1.902731">
        <ele>2379.1</ele>
        <time>1970-01-01T01:48:30.000Z</time>
      </trkpt>
      <trkpt lat="42.323826" lon="1.902736">
        <ele>2379.2</ele>
        <time>1970-01-01T01:48:31.000Z</time>
      </trkpt>
      <trkpt lat="42.323818" lon="1.902744">
        <ele>2379.4</ele>
        <time>1970-01-01T01:48:32.000Z</time>
      </trkpt>
      <trkpt lat="42.323814" lon="1.902749">
        <ele>2379.5</ele>
        <time>1970-01-01T01:48:33.000Z</time>
      </trkpt>
      <trkpt lat="42.323811" lon="1.902754">
        <ele>2379.6</ele>
        <time>1970-01-01T01:48:34.000Z</time>
      </trkpt>
      <trkpt lat="42.323811" lon="1.902756">
        <ele>2379.6</ele>
        <time>1970-01-01T01:48:35.000Z</time>
      </trkpt>
      <trkpt lat="42.323807" lon="1.902755">
        <ele>2379.7</ele>
        <time>1970-01-01T01:48:36.000Z</time>
      </trkpt>
      <trkpt lat="42.323807" lon="1.902754">
        <ele>2379.7</ele>
        <time>1970-01-01T01:48:37.000Z</time>
      </trkpt>
      <trkpt lat="42.323811" lon="1.902753">
        <ele>2379.8</ele>
        <time>1970-01-01T01:48:38.000Z</time>
      </trkpt>
      <trkpt lat="42.323811" lon="1.902753">
        <ele>2379.8</ele>
        <time>1970-01-01T01:48:39.000Z</time>
      </trkpt>
      <trkpt lat="42.323811" lon="1.902752">
        <ele>2379.8</ele>
        <time>1970-01-01T01:48:40.000Z</time>
      </trkpt>
      <trkpt lat="42.323811" lon="1.902752">
        <ele>2379.8</ele>
        <time>1970-01-01T01:48:41.000Z</time>
      </trkpt>
      <trkpt lat="42.323811" lon="1.90275">
        <ele>2379.8</ele>
        <time>1970-01-01T01:48:42.000Z</time>
      </trkpt>
      <trkpt lat="42.323814" lon="1.902749">
        <ele>2379.9</ele>
        <time>1970-01-01T01:48:43.000Z</time>
      </trkpt>
      <trkpt lat="42.323814" lon="1.902748">
        <ele>2379.9</ele>
        <time>1970-01-01T01:48:44.000Z</time>
      </trkpt>
      <trkpt lat="42.323814" lon="1.902747">
        <ele>2379.9</ele>
        <time>1970-01-01T01:48:45.000Z</time>
      </trkpt>
      <trkpt lat="42.323814" lon="1.902747">
        <ele>2379.9</ele>
        <time>1970-01-01T01:48:46.000Z</time>
      </trkpt>
      <trkpt lat="42.323814" lon="1.902745">
        <ele>2379.9</ele>
        <time>1970-01-01T01:48:47.000Z</time>
      </trkpt>
      <trkpt lat="42.323814" lon="1.902748">
        <ele>2380</ele>
        <time>1970-01-01T01:48:48.000Z</time>
      </trkpt>
      <trkpt lat="42.323814" lon="1.902748">
        <ele>2380</ele>
        <time>1970-01-01T01:48:49.000Z</time>
      </trkpt>
      <trkpt lat="42.323807" lon="1.902769">
        <ele>2380.3</ele>
        <time>1970-01-01T01:48:50.000Z</time>
      </trkpt>
      <trkpt lat="42.323803" lon="1.902786">
        <ele>2380.5</ele>
        <time>1970-01-01T01:48:51.000Z</time>
      </trkpt>
      <trkpt lat="42.323795" lon="1.902802">
        <ele>2380.8</ele>
        <time>1970-01-01T01:48:52.000Z</time>
      </trkpt>
      <trkpt lat="42.32378" lon="1.902815">
        <ele>2381.1</ele>
        <time>1970-01-01T01:48:53.000Z</time>
      </trkpt>
      <trkpt lat="42.323772" lon="1.902825">
        <ele>2381.3</ele>
        <time>1970-01-01T01:48:54.000Z</time>
      </trkpt>
      <trkpt lat="42.323761" lon="1.902838">
        <ele>2381.5</ele>
        <time>1970-01-01T01:48:55.000Z</time>
      </trkpt>
      <trkpt lat="42.32375" lon="1.902847">
        <ele>2381.8</ele>
        <time>1970-01-01T01:48:56.000Z</time>
      </trkpt>
      <trkpt lat="42.323742" lon="1.902852">
        <ele>2381.9</ele>
        <time>1970-01-01T01:48:57.000Z</time>
      </trkpt>
      <trkpt lat="42.323727" lon="1.902858">
        <ele>2382.2</ele>
        <time>1970-01-01T01:48:58.000Z</time>
      </trkpt>
      <trkpt lat="42.323711" lon="1.902858">
        <ele>2382.5</ele>
        <time>1970-01-01T01:48:59.000Z</time>
      </trkpt>
      <trkpt lat="42.323692" lon="1.902861">
        <ele>2382.9</ele>
        <time>1970-01-01T01:49:00.000Z</time>
      </trkpt>
      <trkpt lat="42.323677" lon="1.902859">
        <ele>2383.2</ele>
        <time>1970-01-01T01:49:01.000Z</time>
      </trkpt>
      <trkpt lat="42.323662" lon="1.902856">
        <ele>2383.5</ele>
        <time>1970-01-01T01:49:02.000Z</time>
      </trkpt>
      <trkpt lat="42.323647" lon="1.902852">
        <ele>2383.8</ele>
        <time>1970-01-01T01:49:03.000Z</time>
      </trkpt>
      <trkpt lat="42.323631" lon="1.902844">
        <ele>2384.2</ele>
        <time>1970-01-01T01:49:04.000Z</time>
      </trkpt>
      <trkpt lat="42.32362" lon="1.902833">
        <ele>2384.4</ele>
        <time>1970-01-01T01:49:05.000Z</time>
      </trkpt>
      <trkpt lat="42.323608" lon="1.90282">
        <ele>2384.7</ele>
        <time>1970-01-01T01:49:06.000Z</time>
      </trkpt>
      <trkpt lat="42.323597" lon="1.902805">
        <ele>2385.1</ele>
        <time>1970-01-01T01:49:07.000Z</time>
      </trkpt>
      <trkpt lat="42.323593" lon="1.902787">
        <ele>2385.3</ele>
        <time>1970-01-01T01:49:08.000Z</time>
      </trkpt>
      <trkpt lat="42.323593" lon="1.902768">
        <ele>2385.6</ele>
        <time>1970-01-01T01:49:09.000Z</time>
      </trkpt>
      <trkpt lat="42.323593" lon="1.902748">
        <ele>2385.9</ele>
        <time>1970-01-01T01:49:10.000Z</time>
      </trkpt>
      <trkpt lat="42.323593" lon="1.90273">
        <ele>2386.2</ele>
        <time>1970-01-01T01:49:11.000Z</time>
      </trkpt>
      <trkpt lat="42.323597" lon="1.90271">
        <ele>2386.4</ele>
        <time>1970-01-01T01:49:12.000Z</time>
      </trkpt>
      <trkpt lat="42.323601" lon="1.902688">
        <ele>2386.7</ele>
        <time>1970-01-01T01:49:13.000Z</time>
      </trkpt>
      <trkpt lat="42.323597" lon="1.902668">
        <ele>2387</ele>
        <time>1970-01-01T01:49:14.000Z</time>
      </trkpt>
      <trkpt lat="42.323593" lon="1.902651">
        <ele>2387.2</ele>
        <time>1970-01-01T01:49:15.000Z</time>
      </trkpt>
      <trkpt lat="42.323593" lon="1.902633">
        <ele>2387.4</ele>
        <time>1970-01-01T01:49:16.000Z</time>
      </trkpt>
      <trkpt lat="42.323593" lon="1.902613">
        <ele>2387.6</ele>
        <time>1970-01-01T01:49:17.000Z</time>
      </trkpt>
      <trkpt lat="42.323593" lon="1.902593">
        <ele>2387.8</ele>
        <time>1970-01-01T01:49:18.000Z</time>
      </trkpt>
      <trkpt lat="42.323593" lon="1.902574">
        <ele>2388</ele>
        <time>1970-01-01T01:49:19.000Z</time>
      </trkpt>
      <trkpt lat="42.323589" lon="1.902554">
        <ele>2388.2</ele>
        <time>1970-01-01T01:49:20.000Z</time>
      </trkpt>
      <trkpt lat="42.323585" lon="1.902538">
        <ele>2388.4</ele>
        <time>1970-01-01T01:49:21.000Z</time>
      </trkpt>
      <trkpt lat="42.323582" lon="1.902521">
        <ele>2388.5</ele>
        <time>1970-01-01T01:49:22.000Z</time>
      </trkpt>
      <trkpt lat="42.323578" lon="1.902504">
        <ele>2388.6</ele>
        <time>1970-01-01T01:49:23.000Z</time>
      </trkpt>
      <trkpt lat="42.323574" lon="1.902486">
        <ele>2388.8</ele>
        <time>1970-01-01T01:49:24.000Z</time>
      </trkpt>
      <trkpt lat="42.323574" lon="1.902469">
        <ele>2388.9</ele>
        <time>1970-01-01T01:49:25.000Z</time>
      </trkpt>
      <trkpt lat="42.323578" lon="1.90245">
        <ele>2389.1</ele>
        <time>1970-01-01T01:49:26.000Z</time>
      </trkpt>
      <trkpt lat="42.323574" lon="1.902429">
        <ele>2389.3</ele>
        <time>1970-01-01T01:49:27.000Z</time>
      </trkpt>
      <trkpt lat="42.32357" lon="1.902412">
        <ele>2389.4</ele>
        <time>1970-01-01T01:49:28.000Z</time>
      </trkpt>
      <trkpt lat="42.323566" lon="1.902396">
        <ele>2389.5</ele>
        <time>1970-01-01T01:49:29.000Z</time>
      </trkpt>
      <trkpt lat="42.323566" lon="1.90238">
        <ele>2389.7</ele>
        <time>1970-01-01T01:49:30.000Z</time>
      </trkpt>
      <trkpt lat="42.323566" lon="1.902365">
        <ele>2389.8</ele>
        <time>1970-01-01T01:49:31.000Z</time>
      </trkpt>
      <trkpt lat="42.323566" lon="1.90235">
        <ele>2389.9</ele>
        <time>1970-01-01T01:49:32.000Z</time>
      </trkpt>
      <trkpt lat="42.323563" lon="1.902328">
        <ele>2390.1</ele>
        <time>1970-01-01T01:49:33.000Z</time>
      </trkpt>
      <trkpt lat="42.323559" lon="1.902309">
        <ele>2390.3</ele>
        <time>1970-01-01T01:49:34.000Z</time>
      </trkpt>
      <trkpt lat="42.323551" lon="1.902292">
        <ele>2390.5</ele>
        <time>1970-01-01T01:49:35.000Z</time>
      </trkpt>
      <trkpt lat="42.323544" lon="1.902272">
        <ele>2390.6</ele>
        <time>1970-01-01T01:49:36.000Z</time>
      </trkpt>
      <trkpt lat="42.323544" lon="1.902248">
        <ele>2390.8</ele>
        <time>1970-01-01T01:49:37.000Z</time>
      </trkpt>
      <trkpt lat="42.32354" lon="1.902226">
        <ele>2391</ele>
        <time>1970-01-01T01:49:38.000Z</time>
      </trkpt>
      <trkpt lat="42.323536" lon="1.902204">
        <ele>2391.2</ele>
        <time>1970-01-01T01:49:39.000Z</time>
      </trkpt>
      <trkpt lat="42.323528" lon="1.902184">
        <ele>2391.4</ele>
        <time>1970-01-01T01:49:40.000Z</time>
      </trkpt>
      <trkpt lat="42.323521" lon="1.902168">
        <ele>2391.6</ele>
        <time>1970-01-01T01:49:41.000Z</time>
      </trkpt>
      <trkpt lat="42.323513" lon="1.902149">
        <ele>2391.8</ele>
        <time>1970-01-01T01:49:42.000Z</time>
      </trkpt>
      <trkpt lat="42.323509" lon="1.902129">
        <ele>2392</ele>
        <time>1970-01-01T01:49:43.000Z</time>
      </trkpt>
      <trkpt lat="42.323502" lon="1.902109">
        <ele>2392.2</ele>
        <time>1970-01-01T01:49:44.000Z</time>
      </trkpt>
      <trkpt lat="42.323498" lon="1.902091">
        <ele>2392.4</ele>
        <time>1970-01-01T01:49:45.000Z</time>
      </trkpt>
      <trkpt lat="42.323494" lon="1.902071">
        <ele>2392.6</ele>
        <time>1970-01-01T01:49:46.000Z</time>
      </trkpt>
      <trkpt lat="42.32349" lon="1.90205">
        <ele>2392.8</ele>
        <time>1970-01-01T01:49:47.000Z</time>
      </trkpt>
      <trkpt lat="42.32349" lon="1.902032">
        <ele>2392.9</ele>
        <time>1970-01-01T01:49:48.000Z</time>
      </trkpt>
      <trkpt lat="42.323483" lon="1.902015">
        <ele>2393.1</ele>
        <time>1970-01-01T01:49:49.000Z</time>
      </trkpt>
      <trkpt lat="42.323479" lon="1.901997">
        <ele>2393.3</ele>
        <time>1970-01-01T01:49:50.000Z</time>
      </trkpt>
      <trkpt lat="42.323475" lon="1.901978">
        <ele>2393.5</ele>
        <time>1970-01-01T01:49:51.000Z</time>
      </trkpt>
      <trkpt lat="42.323471" lon="1.901956">
        <ele>2393.7</ele>
        <time>1970-01-01T01:49:52.000Z</time>
      </trkpt>
      <trkpt lat="42.323463" lon="1.901936">
        <ele>2393.9</ele>
        <time>1970-01-01T01:49:53.000Z</time>
      </trkpt>
      <trkpt lat="42.323452" lon="1.901917">
        <ele>2394.1</ele>
        <time>1970-01-01T01:49:54.000Z</time>
      </trkpt>
      <trkpt lat="42.323441" lon="1.901899">
        <ele>2394.3</ele>
        <time>1970-01-01T01:49:55.000Z</time>
      </trkpt>
      <trkpt lat="42.323437" lon="1.901881">
        <ele>2394.5</ele>
        <time>1970-01-01T01:49:56.000Z</time>
      </trkpt>
      <trkpt lat="42.323429" lon="1.901861">
        <ele>2394.7</ele>
        <time>1970-01-01T01:49:57.000Z</time>
      </trkpt>
      <trkpt lat="42.323425" lon="1.90184">
        <ele>2394.9</ele>
        <time>1970-01-01T01:49:58.000Z</time>
      </trkpt>
      <trkpt lat="42.323421" lon="1.901817">
        <ele>2395.1</ele>
        <time>1970-01-01T01:49:59.000Z</time>
      </trkpt>
      <trkpt lat="42.323421" lon="1.901794">
        <ele>2395.3</ele>
        <time>1970-01-01T01:50:00.000Z</time>
      </trkpt>
      <trkpt lat="42.323421" lon="1.901773">
        <ele>2395.4</ele>
        <time>1970-01-01T01:50:01.000Z</time>
      </trkpt>
      <trkpt lat="42.323418" lon="1.901749">
        <ele>2395.6</ele>
        <time>1970-01-01T01:50:02.000Z</time>
      </trkpt>
      <trkpt lat="42.323418" lon="1.901726">
        <ele>2395.8</ele>
        <time>1970-01-01T01:50:03.000Z</time>
      </trkpt>
      <trkpt lat="42.323414" lon="1.901705">
        <ele>2396</ele>
        <time>1970-01-01T01:50:04.000Z</time>
      </trkpt>
      <trkpt lat="42.323406" lon="1.90168">
        <ele>2396.2</ele>
        <time>1970-01-01T01:50:05.000Z</time>
      </trkpt>
      <trkpt lat="42.323399" lon="1.901659">
        <ele>2396.4</ele>
        <time>1970-01-01T01:50:06.000Z</time>
      </trkpt>
      <trkpt lat="42.323395" lon="1.901638">
        <ele>2396.5</ele>
        <time>1970-01-01T01:50:07.000Z</time>
      </trkpt>
      <trkpt lat="42.323387" lon="1.901617">
        <ele>2396.7</ele>
        <time>1970-01-01T01:50:08.000Z</time>
      </trkpt>
      <trkpt lat="42.323383" lon="1.901595">
        <ele>2396.9</ele>
        <time>1970-01-01T01:50:09.000Z</time>
      </trkpt>
      <trkpt lat="42.32338" lon="1.901576">
        <ele>2397</ele>
        <time>1970-01-01T01:50:10.000Z</time>
      </trkpt>
      <trkpt lat="42.32338" lon="1.901555">
        <ele>2397.1</ele>
        <time>1970-01-01T01:50:11.000Z</time>
      </trkpt>
      <trkpt lat="42.32338" lon="1.901531">
        <ele>2397.3</ele>
        <time>1970-01-01T01:50:12.000Z</time>
      </trkpt>
      <trkpt lat="42.32338" lon="1.901507">
        <ele>2397.4</ele>
        <time>1970-01-01T01:50:13.000Z</time>
      </trkpt>
      <trkpt lat="42.32338" lon="1.901482">
        <ele>2397.6</ele>
        <time>1970-01-01T01:50:14.000Z</time>
      </trkpt>
      <trkpt lat="42.323376" lon="1.901457">
        <ele>2397.8</ele>
        <time>1970-01-01T01:50:15.000Z</time>
      </trkpt>
      <trkpt lat="42.323376" lon="1.901434">
        <ele>2397.9</ele>
        <time>1970-01-01T01:50:16.000Z</time>
      </trkpt>
      <trkpt lat="42.32338" lon="1.901407">
        <ele>2398.1</ele>
        <time>1970-01-01T01:50:17.000Z</time>
      </trkpt>
      <trkpt lat="42.323387" lon="1.90138">
        <ele>2398.3</ele>
        <time>1970-01-01T01:50:18.000Z</time>
      </trkpt>
      <trkpt lat="42.323395" lon="1.901354">
        <ele>2398.5</ele>
        <time>1970-01-01T01:50:19.000Z</time>
      </trkpt>
      <trkpt lat="42.323395" lon="1.901325">
        <ele>2398.7</ele>
        <time>1970-01-01T01:50:20.000Z</time>
      </trkpt>
      <trkpt lat="42.323399" lon="1.901298">
        <ele>2398.9</ele>
        <time>1970-01-01T01:50:21.000Z</time>
      </trkpt>
      <trkpt lat="42.323399" lon="1.901273">
        <ele>2399</ele>
        <time>1970-01-01T01:50:22.000Z</time>
      </trkpt>
      <trkpt lat="42.323399" lon="1.901247">
        <ele>2399.2</ele>
        <time>1970-01-01T01:50:23.000Z</time>
      </trkpt>
      <trkpt lat="42.323399" lon="1.901217">
        <ele>2399.4</ele>
        <time>1970-01-01T01:50:24.000Z</time>
      </trkpt>
      <trkpt lat="42.323399" lon="1.90119">
        <ele>2399.6</ele>
        <time>1970-01-01T01:50:25.000Z</time>
      </trkpt>
      <trkpt lat="42.323395" lon="1.901166">
        <ele>2399.8</ele>
        <time>1970-01-01T01:50:26.000Z</time>
      </trkpt>
      <trkpt lat="42.323395" lon="1.901143">
        <ele>2400</ele>
        <time>1970-01-01T01:50:27.000Z</time>
      </trkpt>
      <trkpt lat="42.323395" lon="1.901121">
        <ele>2400.1</ele>
        <time>1970-01-01T01:50:28.000Z</time>
      </trkpt>
      <trkpt lat="42.323391" lon="1.901099">
        <ele>2400.3</ele>
        <time>1970-01-01T01:50:29.000Z</time>
      </trkpt>
      <trkpt lat="42.323387" lon="1.901078">
        <ele>2400.5</ele>
        <time>1970-01-01T01:50:30.000Z</time>
      </trkpt>
      <trkpt lat="42.32338" lon="1.901057">
        <ele>2400.7</ele>
        <time>1970-01-01T01:50:31.000Z</time>
      </trkpt>
      <trkpt lat="42.323372" lon="1.901037">
        <ele>2400.8</ele>
        <time>1970-01-01T01:50:32.000Z</time>
      </trkpt>
      <trkpt lat="42.32336" lon="1.901019">
        <ele>2401</ele>
        <time>1970-01-01T01:50:33.000Z</time>
      </trkpt>
      <trkpt lat="42.323345" lon="1.901005">
        <ele>2401.2</ele>
        <time>1970-01-01T01:50:34.000Z</time>
      </trkpt>
      <trkpt lat="42.323334" lon="1.900995">
        <ele>2401.4</ele>
        <time>1970-01-01T01:50:35.000Z</time>
      </trkpt>
      <trkpt lat="42.323319" lon="1.900989">
        <ele>2401.5</ele>
        <time>1970-01-01T01:50:36.000Z</time>
      </trkpt>
      <trkpt lat="42.323307" lon="1.900987">
        <ele>2401.7</ele>
        <time>1970-01-01T01:50:37.000Z</time>
      </trkpt>
      <trkpt lat="42.323292" lon="1.900988">
        <ele>2401.8</ele>
        <time>1970-01-01T01:50:38.000Z</time>
      </trkpt>
      <trkpt lat="42.323277" lon="1.900996">
        <ele>2402.5</ele>
        <time>1970-01-01T01:50:39.000Z</time>
      </trkpt>
      <trkpt lat="42.323261" lon="1.901004">
        <ele>2402.8</ele>
        <time>1970-01-01T01:50:40.000Z</time>
      </trkpt>
      <trkpt lat="42.323246" lon="1.901013">
        <ele>2403</ele>
        <time>1970-01-01T01:50:41.000Z</time>
      </trkpt>
      <trkpt lat="42.323235" lon="1.901027">
        <ele>2403.2</ele>
        <time>1970-01-01T01:50:42.000Z</time>
      </trkpt>
      <trkpt lat="42.323223" lon="1.901046">
        <ele>2403.5</ele>
        <time>1970-01-01T01:50:43.000Z</time>
      </trkpt>
      <trkpt lat="42.323216" lon="1.901067">
        <ele>2403.7</ele>
        <time>1970-01-01T01:50:44.000Z</time>
      </trkpt>
      <trkpt lat="42.323208" lon="1.901086">
        <ele>2404</ele>
        <time>1970-01-01T01:50:45.000Z</time>
      </trkpt>
      <trkpt lat="42.3232" lon="1.901103">
        <ele>2404.2</ele>
        <time>1970-01-01T01:50:46.000Z</time>
      </trkpt>
      <trkpt lat="42.323189" lon="1.901119">
        <ele>2404.4</ele>
        <time>1970-01-01T01:50:47.000Z</time>
      </trkpt>
      <trkpt lat="42.323181" lon="1.901135">
        <ele>2404.6</ele>
        <time>1970-01-01T01:50:48.000Z</time>
      </trkpt>
      <trkpt lat="42.323166" lon="1.90115">
        <ele>2404.9</ele>
        <time>1970-01-01T01:50:49.000Z</time>
      </trkpt>
      <trkpt lat="42.323154" lon="1.901162">
        <ele>2405.1</ele>
        <time>1970-01-01T01:50:50.000Z</time>
      </trkpt>
      <trkpt lat="42.323143" lon="1.901174">
        <ele>2405.3</ele>
        <time>1970-01-01T01:50:51.000Z</time>
      </trkpt>
      <trkpt lat="42.323135" lon="1.901182">
        <ele>2405.5</ele>
        <time>1970-01-01T01:50:52.000Z</time>
      </trkpt>
      <trkpt lat="42.32312" lon="1.901192">
        <ele>2405.7</ele>
        <time>1970-01-01T01:50:53.000Z</time>
      </trkpt>
      <trkpt lat="42.323109" lon="1.901201">
        <ele>2405.9</ele>
        <time>1970-01-01T01:50:54.000Z</time>
      </trkpt>
      <trkpt lat="42.323097" lon="1.901207">
        <ele>2406.1</ele>
        <time>1970-01-01T01:50:55.000Z</time>
      </trkpt>
      <trkpt lat="42.323082" lon="1.901216">
        <ele>2406.4</ele>
        <time>1970-01-01T01:50:56.000Z</time>
      </trkpt>
      <trkpt lat="42.32307" lon="1.901223">
        <ele>2406.5</ele>
        <time>1970-01-01T01:50:57.000Z</time>
      </trkpt>
      <trkpt lat="42.323055" lon="1.901231">
        <ele>2406.8</ele>
        <time>1970-01-01T01:50:58.000Z</time>
      </trkpt>
      <trkpt lat="42.32304" lon="1.901233">
        <ele>2407</ele>
        <time>1970-01-01T01:50:59.000Z</time>
      </trkpt>
      <trkpt lat="42.323021" lon="1.901235">
        <ele>2407.3</ele>
        <time>1970-01-01T01:51:00.000Z</time>
      </trkpt>
      <trkpt lat="42.323006" lon="1.901236">
        <ele>2407.5</ele>
        <time>1970-01-01T01:51:01.000Z</time>
      </trkpt>
      <trkpt lat="42.322987" lon="1.901238">
        <ele>2407.8</ele>
        <time>1970-01-01T01:51:02.000Z</time>
      </trkpt>
      <trkpt lat="42.322971" lon="1.901237">
        <ele>2408</ele>
        <time>1970-01-01T01:51:03.000Z</time>
      </trkpt>
      <trkpt lat="42.322956" lon="1.901235">
        <ele>2408.2</ele>
        <time>1970-01-01T01:51:04.000Z</time>
      </trkpt>
      <trkpt lat="42.322941" lon="1.901232">
        <ele>2408.5</ele>
        <time>1970-01-01T01:51:05.000Z</time>
      </trkpt>
      <trkpt lat="42.322926" lon="1.901229">
        <ele>2408.7</ele>
        <time>1970-01-01T01:51:06.000Z</time>
      </trkpt>
      <trkpt lat="42.32291" lon="1.901223">
        <ele>2408.9</ele>
        <time>1970-01-01T01:51:07.000Z</time>
      </trkpt>
      <trkpt lat="42.322895" lon="1.901216">
        <ele>2409.2</ele>
        <time>1970-01-01T01:51:08.000Z</time>
      </trkpt>
      <trkpt lat="42.322876" lon="1.901211">
        <ele>2409.4</ele>
        <time>1970-01-01T01:51:09.000Z</time>
      </trkpt>
      <trkpt lat="42.322861" lon="1.901206">
        <ele>2409.7</ele>
        <time>1970-01-01T01:51:10.000Z</time>
      </trkpt>
      <trkpt lat="42.322842" lon="1.901198">
        <ele>2410</ele>
        <time>1970-01-01T01:51:11.000Z</time>
      </trkpt>
      <trkpt lat="42.322826" lon="1.901187">
        <ele>2410.2</ele>
        <time>1970-01-01T01:51:12.000Z</time>
      </trkpt>
      <trkpt lat="42.322807" lon="1.901178">
        <ele>2410.5</ele>
        <time>1970-01-01T01:51:13.000Z</time>
      </trkpt>
      <trkpt lat="42.322788" lon="1.901171">
        <ele>2410.8</ele>
        <time>1970-01-01T01:51:14.000Z</time>
      </trkpt>
      <trkpt lat="42.322777" lon="1.90116">
        <ele>2411</ele>
        <time>1970-01-01T01:51:15.000Z</time>
      </trkpt>
      <trkpt lat="42.322758" lon="1.90115">
        <ele>2411.3</ele>
        <time>1970-01-01T01:51:16.000Z</time>
      </trkpt>
      <trkpt lat="42.322742" lon="1.901144">
        <ele>2411.5</ele>
        <time>1970-01-01T01:51:17.000Z</time>
      </trkpt>
      <trkpt lat="42.322727" lon="1.901138">
        <ele>2411.8</ele>
        <time>1970-01-01T01:51:18.000Z</time>
      </trkpt>
      <trkpt lat="42.322712" lon="1.901128">
        <ele>2412</ele>
        <time>1970-01-01T01:51:19.000Z</time>
      </trkpt>
      <trkpt lat="42.322697" lon="1.901121">
        <ele>2412.3</ele>
        <time>1970-01-01T01:51:20.000Z</time>
      </trkpt>
      <trkpt lat="42.322685" lon="1.901116">
        <ele>2412.4</ele>
        <time>1970-01-01T01:51:21.000Z</time>
      </trkpt>
      <trkpt lat="42.32267" lon="1.901111">
        <ele>2412.7</ele>
        <time>1970-01-01T01:51:22.000Z</time>
      </trkpt>
      <trkpt lat="42.322659" lon="1.901106">
        <ele>2412.8</ele>
        <time>1970-01-01T01:51:23.000Z</time>
      </trkpt>
      <trkpt lat="42.322643" lon="1.901104">
        <ele>2413.1</ele>
        <time>1970-01-01T01:51:24.000Z</time>
      </trkpt>
      <trkpt lat="42.322632" lon="1.901102">
        <ele>2413.2</ele>
        <time>1970-01-01T01:51:25.000Z</time>
      </trkpt>
      <trkpt lat="42.32262" lon="1.9011">
        <ele>2413.4</ele>
        <time>1970-01-01T01:51:26.000Z</time>
      </trkpt>
      <trkpt lat="42.322609" lon="1.901094">
        <ele>2413.6</ele>
        <time>1970-01-01T01:51:27.000Z</time>
      </trkpt>
      <trkpt lat="42.322598" lon="1.901086">
        <ele>2413.8</ele>
        <time>1970-01-01T01:51:28.000Z</time>
      </trkpt>
      <trkpt lat="42.322586" lon="1.901078">
        <ele>2414</ele>
        <time>1970-01-01T01:51:29.000Z</time>
      </trkpt>
      <trkpt lat="42.322575" lon="1.901071">
        <ele>2414.1</ele>
        <time>1970-01-01T01:51:30.000Z</time>
      </trkpt>
      <trkpt lat="42.322559" lon="1.901066">
        <ele>2414.4</ele>
        <time>1970-01-01T01:51:31.000Z</time>
      </trkpt>
      <trkpt lat="42.322552" lon="1.901064">
        <ele>2414.5</ele>
        <time>1970-01-01T01:51:32.000Z</time>
      </trkpt>
      <trkpt lat="42.322536" lon="1.901065">
        <ele>2414.7</ele>
        <time>1970-01-01T01:51:33.000Z</time>
      </trkpt>
      <trkpt lat="42.322521" lon="1.901064">
        <ele>2414.9</ele>
        <time>1970-01-01T01:51:34.000Z</time>
      </trkpt>
      <trkpt lat="42.322506" lon="1.90106">
        <ele>2415.2</ele>
        <time>1970-01-01T01:51:35.000Z</time>
      </trkpt>
      <trkpt lat="42.322491" lon="1.901056">
        <ele>2415.4</ele>
        <time>1970-01-01T01:51:36.000Z</time>
      </trkpt>
      <trkpt lat="42.322479" lon="1.901049">
        <ele>2415.6</ele>
        <time>1970-01-01T01:51:37.000Z</time>
      </trkpt>
      <trkpt lat="42.322468" lon="1.90104">
        <ele>2415.8</ele>
        <time>1970-01-01T01:51:38.000Z</time>
      </trkpt>
      <trkpt lat="42.322456" lon="1.90103">
        <ele>2416</ele>
        <time>1970-01-01T01:51:39.000Z</time>
      </trkpt>
      <trkpt lat="42.322445" lon="1.901023">
        <ele>2416.2</ele>
        <time>1970-01-01T01:51:40.000Z</time>
      </trkpt>
      <trkpt lat="42.322433" lon="1.901017">
        <ele>2416.3</ele>
        <time>1970-01-01T01:51:41.000Z</time>
      </trkpt>
      <trkpt lat="42.322418" lon="1.901013">
        <ele>2416.6</ele>
        <time>1970-01-01T01:51:42.000Z</time>
      </trkpt>
      <trkpt lat="42.322403" lon="1.901009">
        <ele>2416.8</ele>
        <time>1970-01-01T01:51:43.000Z</time>
      </trkpt>
      <trkpt lat="42.322391" lon="1.901001">
        <ele>2417</ele>
        <time>1970-01-01T01:51:44.000Z</time>
      </trkpt>
      <trkpt lat="42.322376" lon="1.900993">
        <ele>2417.2</ele>
        <time>1970-01-01T01:51:45.000Z</time>
      </trkpt>
      <trkpt lat="42.322361" lon="1.900986">
        <ele>2417.5</ele>
        <time>1970-01-01T01:51:46.000Z</time>
      </trkpt>
      <trkpt lat="42.32235" lon="1.900975">
        <ele>2417.7</ele>
        <time>1970-01-01T01:51:47.000Z</time>
      </trkpt>
      <trkpt lat="42.322334" lon="1.900963">
        <ele>2417.9</ele>
        <time>1970-01-01T01:51:48.000Z</time>
      </trkpt>
      <trkpt lat="42.322323" lon="1.900952">
        <ele>2418.1</ele>
        <time>1970-01-01T01:51:49.000Z</time>
      </trkpt>
      <trkpt lat="42.322315" lon="1.90094">
        <ele>2418.3</ele>
        <time>1970-01-01T01:51:50.000Z</time>
      </trkpt>
      <trkpt lat="42.322304" lon="1.90093">
        <ele>2418.5</ele>
        <time>1970-01-01T01:51:51.000Z</time>
      </trkpt>
      <trkpt lat="42.322292" lon="1.900918">
        <ele>2418.7</ele>
        <time>1970-01-01T01:51:52.000Z</time>
      </trkpt>
      <trkpt lat="42.322277" lon="1.900905">
        <ele>2419</ele>
        <time>1970-01-01T01:51:53.000Z</time>
      </trkpt>
      <trkpt lat="42.322262" lon="1.900896">
        <ele>2419.2</ele>
        <time>1970-01-01T01:51:54.000Z</time>
      </trkpt>
      <trkpt lat="42.32225" lon="1.900885">
        <ele>2419.4</ele>
        <time>1970-01-01T01:51:55.000Z</time>
      </trkpt>
      <trkpt lat="42.322239" lon="1.900876">
        <ele>2419.6</ele>
        <time>1970-01-01T01:51:56.000Z</time>
      </trkpt>
      <trkpt lat="42.322231" lon="1.900865">
        <ele>2419.8</ele>
        <time>1970-01-01T01:51:57.000Z</time>
      </trkpt>
      <trkpt lat="42.322216" lon="1.900853">
        <ele>2420</ele>
        <time>1970-01-01T01:51:58.000Z</time>
      </trkpt>
      <trkpt lat="42.322205" lon="1.900842">
        <ele>2420.2</ele>
        <time>1970-01-01T01:51:59.000Z</time>
      </trkpt>
      <trkpt lat="42.322193" lon="1.900829">
        <ele>2420.5</ele>
        <time>1970-01-01T01:52:00.000Z</time>
      </trkpt>
      <trkpt lat="42.322182" lon="1.900817">
        <ele>2420.7</ele>
        <time>1970-01-01T01:52:01.000Z</time>
      </trkpt>
      <trkpt lat="42.32217" lon="1.900807">
        <ele>2420.9</ele>
        <time>1970-01-01T01:52:02.000Z</time>
      </trkpt>
      <trkpt lat="42.322155" lon="1.900799">
        <ele>2421.1</ele>
        <time>1970-01-01T01:52:03.000Z</time>
      </trkpt>
      <trkpt lat="42.322144" lon="1.900791">
        <ele>2421.3</ele>
        <time>1970-01-01T01:52:04.000Z</time>
      </trkpt>
      <trkpt lat="42.322132" lon="1.90078">
        <ele>2421.5</ele>
        <time>1970-01-01T01:52:05.000Z</time>
      </trkpt>
      <trkpt lat="42.322121" lon="1.900765">
        <ele>2421.7</ele>
        <time>1970-01-01T01:52:06.000Z</time>
      </trkpt>
      <trkpt lat="42.322113" lon="1.900749">
        <ele>2421.9</ele>
        <time>1970-01-01T01:52:07.000Z</time>
      </trkpt>
      <trkpt lat="42.322105" lon="1.900733">
        <ele>2422.2</ele>
        <time>1970-01-01T01:52:08.000Z</time>
      </trkpt>
      <trkpt lat="42.322098" lon="1.900716">
        <ele>2422.4</ele>
        <time>1970-01-01T01:52:09.000Z</time>
      </trkpt>
      <trkpt lat="42.32209" lon="1.900697">
        <ele>2422.6</ele>
        <time>1970-01-01T01:52:10.000Z</time>
      </trkpt>
      <trkpt lat="42.322079" lon="1.900681">
        <ele>2422.8</ele>
        <time>1970-01-01T01:52:11.000Z</time>
      </trkpt>
      <trkpt lat="42.322067" lon="1.900664">
        <ele>2423.1</ele>
        <time>1970-01-01T01:52:12.000Z</time>
      </trkpt>
      <trkpt lat="42.32206" lon="1.900651">
        <ele>2423.3</ele>
        <time>1970-01-01T01:52:13.000Z</time>
      </trkpt>
      <trkpt lat="42.322048" lon="1.900637">
        <ele>2423.5</ele>
        <time>1970-01-01T01:52:14.000Z</time>
      </trkpt>
      <trkpt lat="42.322041" lon="1.900621">
        <ele>2423.7</ele>
        <time>1970-01-01T01:52:15.000Z</time>
      </trkpt>
      <trkpt lat="42.322033" lon="1.900604">
        <ele>2423.9</ele>
        <time>1970-01-01T01:52:16.000Z</time>
      </trkpt>
      <trkpt lat="42.322025" lon="1.900585">
        <ele>2424.2</ele>
        <time>1970-01-01T01:52:17.000Z</time>
      </trkpt>
      <trkpt lat="42.322018" lon="1.900566">
        <ele>2424.4</ele>
        <time>1970-01-01T01:52:18.000Z</time>
      </trkpt>
      <trkpt lat="42.32201" lon="1.900548">
        <ele>2424.6</ele>
        <time>1970-01-01T01:52:19.000Z</time>
      </trkpt>
      <trkpt lat="42.322002" lon="1.900528">
        <ele>2424.9</ele>
        <time>1970-01-01T01:52:20.000Z</time>
      </trkpt>
      <trkpt lat="42.321995" lon="1.900508">
        <ele>2425.1</ele>
        <time>1970-01-01T01:52:21.000Z</time>
      </trkpt>
      <trkpt lat="42.321991" lon="1.90049">
        <ele>2425.3</ele>
        <time>1970-01-01T01:52:22.000Z</time>
      </trkpt>
      <trkpt lat="42.321983" lon="1.900472">
        <ele>2425.5</ele>
        <time>1970-01-01T01:52:23.000Z</time>
      </trkpt>
      <trkpt lat="42.321976" lon="1.900454">
        <ele>2425.8</ele>
        <time>1970-01-01T01:52:24.000Z</time>
      </trkpt>
      <trkpt lat="42.321968" lon="1.900437">
        <ele>2426</ele>
        <time>1970-01-01T01:52:25.000Z</time>
      </trkpt>
      <trkpt lat="42.321964" lon="1.900421">
        <ele>2426.2</ele>
        <time>1970-01-01T01:52:26.000Z</time>
      </trkpt>
      <trkpt lat="42.321957" lon="1.900403">
        <ele>2426.4</ele>
        <time>1970-01-01T01:52:27.000Z</time>
      </trkpt>
      <trkpt lat="42.321957" lon="1.900386">
        <ele>2426.6</ele>
        <time>1970-01-01T01:52:28.000Z</time>
      </trkpt>
      <trkpt lat="42.321957" lon="1.900368">
        <ele>2426.8</ele>
        <time>1970-01-01T01:52:29.000Z</time>
      </trkpt>
      <trkpt lat="42.321953" lon="1.900348">
        <ele>2427</ele>
        <time>1970-01-01T01:52:30.000Z</time>
      </trkpt>
      <trkpt lat="42.321949" lon="1.900329">
        <ele>2427.2</ele>
        <time>1970-01-01T01:52:31.000Z</time>
      </trkpt>
      <trkpt lat="42.321945" lon="1.900315">
        <ele>2427.4</ele>
        <time>1970-01-01T01:52:32.000Z</time>
      </trkpt>
      <trkpt lat="42.321941" lon="1.900298">
        <ele>2427.5</ele>
        <time>1970-01-01T01:52:33.000Z</time>
      </trkpt>
      <trkpt lat="42.321934" lon="1.900281">
        <ele>2427.8</ele>
        <time>1970-01-01T01:52:34.000Z</time>
      </trkpt>
      <trkpt lat="42.32193" lon="1.900265">
        <ele>2427.9</ele>
        <time>1970-01-01T01:52:35.000Z</time>
      </trkpt>
      <trkpt lat="42.321922" lon="1.900247">
        <ele>2428.2</ele>
        <time>1970-01-01T01:52:36.000Z</time>
      </trkpt>
      <trkpt lat="42.321918" lon="1.900231">
        <ele>2428.4</ele>
        <time>1970-01-01T01:52:37.000Z</time>
      </trkpt>
      <trkpt lat="42.321915" lon="1.900211">
        <ele>2428.6</ele>
        <time>1970-01-01T01:52:38.000Z</time>
      </trkpt>
      <trkpt lat="42.321907" lon="1.900195">
        <ele>2428.8</ele>
        <time>1970-01-01T01:52:39.000Z</time>
      </trkpt>
      <trkpt lat="42.321903" lon="1.90018">
        <ele>2429</ele>
        <time>1970-01-01T01:52:40.000Z</time>
      </trkpt>
      <trkpt lat="42.321896" lon="1.900164">
        <ele>2429.2</ele>
        <time>1970-01-01T01:52:41.000Z</time>
      </trkpt>
      <trkpt lat="42.321888" lon="1.900147">
        <ele>2429.4</ele>
        <time>1970-01-01T01:52:42.000Z</time>
      </trkpt>
      <trkpt lat="42.32188" lon="1.900133">
        <ele>2429.6</ele>
        <time>1970-01-01T01:52:43.000Z</time>
      </trkpt>
      <trkpt lat="42.321873" lon="1.90012">
        <ele>2429.7</ele>
        <time>1970-01-01T01:52:44.000Z</time>
      </trkpt>
      <trkpt lat="42.321865" lon="1.90011">
        <ele>2429.9</ele>
        <time>1970-01-01T01:52:45.000Z</time>
      </trkpt>
      <trkpt lat="42.321857" lon="1.900095">
        <ele>2430.1</ele>
        <time>1970-01-01T01:52:46.000Z</time>
      </trkpt>
      <trkpt lat="42.321854" lon="1.900079">
        <ele>2430.3</ele>
        <time>1970-01-01T01:52:47.000Z</time>
      </trkpt>
      <trkpt lat="42.32185" lon="1.900064">
        <ele>2430.5</ele>
        <time>1970-01-01T01:52:48.000Z</time>
      </trkpt>
      <trkpt lat="42.321842" lon="1.900048">
        <ele>2430.7</ele>
        <time>1970-01-01T01:52:49.000Z</time>
      </trkpt>
      <trkpt lat="42.321838" lon="1.900032">
        <ele>2430.8</ele>
        <time>1970-01-01T01:52:50.000Z</time>
      </trkpt>
      <trkpt lat="42.321831" lon="1.900017">
        <ele>2431</ele>
        <time>1970-01-01T01:52:51.000Z</time>
      </trkpt>
      <trkpt lat="42.321827" lon="1.900002">
        <ele>2431.2</ele>
        <time>1970-01-01T01:52:52.000Z</time>
      </trkpt>
      <trkpt lat="42.321823" lon="1.899989">
        <ele>2431.4</ele>
        <time>1970-01-01T01:52:53.000Z</time>
      </trkpt>
      <trkpt lat="42.321823" lon="1.899972">
        <ele>2431.5</ele>
        <time>1970-01-01T01:52:54.000Z</time>
      </trkpt>
      <trkpt lat="42.321819" lon="1.899954">
        <ele>2431.8</ele>
        <time>1970-01-01T01:52:55.000Z</time>
      </trkpt>
      <trkpt lat="42.321815" lon="1.899939">
        <ele>2431.9</ele>
        <time>1970-01-01T01:52:56.000Z</time>
      </trkpt>
      <trkpt lat="42.321808" lon="1.899924">
        <ele>2432.1</ele>
        <time>1970-01-01T01:52:57.000Z</time>
      </trkpt>
      <trkpt lat="42.3218" lon="1.899907">
        <ele>2432.3</ele>
        <time>1970-01-01T01:52:58.000Z</time>
      </trkpt>
      <trkpt lat="42.321796" lon="1.899888">
        <ele>2432.5</ele>
        <time>1970-01-01T01:52:59.000Z</time>
      </trkpt>
      <trkpt lat="42.321793" lon="1.899871">
        <ele>2432.7</ele>
        <time>1970-01-01T01:53:00.000Z</time>
      </trkpt>
      <trkpt lat="42.321789" lon="1.899852">
        <ele>2433</ele>
        <time>1970-01-01T01:53:01.000Z</time>
      </trkpt>
      <trkpt lat="42.321789" lon="1.899834">
        <ele>2433.1</ele>
        <time>1970-01-01T01:53:02.000Z</time>
      </trkpt>
      <trkpt lat="42.321785" lon="1.899816">
        <ele>2433.4</ele>
        <time>1970-01-01T01:53:03.000Z</time>
      </trkpt>
      <trkpt lat="42.321785" lon="1.899796">
        <ele>2433.6</ele>
        <time>1970-01-01T01:53:04.000Z</time>
      </trkpt>
      <trkpt lat="42.321781" lon="1.899776">
        <ele>2433.8</ele>
        <time>1970-01-01T01:53:05.000Z</time>
      </trkpt>
      <trkpt lat="42.321777" lon="1.899756">
        <ele>2434</ele>
        <time>1970-01-01T01:53:06.000Z</time>
      </trkpt>
      <trkpt lat="42.321774" lon="1.899739">
        <ele>2434.2</ele>
        <time>1970-01-01T01:53:07.000Z</time>
      </trkpt>
      <trkpt lat="42.321774" lon="1.899725">
        <ele>2434.4</ele>
        <time>1970-01-01T01:53:08.000Z</time>
      </trkpt>
      <trkpt lat="42.321766" lon="1.899709">
        <ele>2434.6</ele>
        <time>1970-01-01T01:53:09.000Z</time>
      </trkpt>
      <trkpt lat="42.321758" lon="1.899695">
        <ele>2434.8</ele>
        <time>1970-01-01T01:53:10.000Z</time>
      </trkpt>
      <trkpt lat="42.321751" lon="1.89968">
        <ele>2435</ele>
        <time>1970-01-01T01:53:11.000Z</time>
      </trkpt>
      <trkpt lat="42.321743" lon="1.899668">
        <ele>2435.1</ele>
        <time>1970-01-01T01:53:12.000Z</time>
      </trkpt>
      <trkpt lat="42.321728" lon="1.899649">
        <ele>2435.4</ele>
        <time>1970-01-01T01:53:13.000Z</time>
      </trkpt>
      <trkpt lat="42.321716" lon="1.899627">
        <ele>2435.7</ele>
        <time>1970-01-01T01:53:14.000Z</time>
      </trkpt>
      <trkpt lat="42.321712" lon="1.899602">
        <ele>2436</ele>
        <time>1970-01-01T01:53:15.000Z</time>
      </trkpt>
      <trkpt lat="42.321709" lon="1.89958">
        <ele>2436.2</ele>
        <time>1970-01-01T01:53:16.000Z</time>
      </trkpt>
      <trkpt lat="42.321705" lon="1.899558">
        <ele>2436.5</ele>
        <time>1970-01-01T01:53:17.000Z</time>
      </trkpt>
      <trkpt lat="42.321697" lon="1.899536">
        <ele>2436.8</ele>
        <time>1970-01-01T01:53:18.000Z</time>
      </trkpt>
      <trkpt lat="42.32169" lon="1.899515">
        <ele>2437</ele>
        <time>1970-01-01T01:53:19.000Z</time>
      </trkpt>
      <trkpt lat="42.321682" lon="1.899494">
        <ele>2437.3</ele>
        <time>1970-01-01T01:53:20.000Z</time>
      </trkpt>
      <trkpt lat="42.321674" lon="1.899474">
        <ele>2437.5</ele>
        <time>1970-01-01T01:53:21.000Z</time>
      </trkpt>
      <trkpt lat="42.321667" lon="1.899455">
        <ele>2437.7</ele>
        <time>1970-01-01T01:53:22.000Z</time>
      </trkpt>
      <trkpt lat="42.321663" lon="1.899436">
        <ele>2438</ele>
        <time>1970-01-01T01:53:23.000Z</time>
      </trkpt>
      <trkpt lat="42.321651" lon="1.899419">
        <ele>2438.2</ele>
        <time>1970-01-01T01:53:24.000Z</time>
      </trkpt>
      <trkpt lat="42.321644" lon="1.899401">
        <ele>2438.4</ele>
        <time>1970-01-01T01:53:25.000Z</time>
      </trkpt>
      <trkpt lat="42.321636" lon="1.899384">
        <ele>2438.6</ele>
        <time>1970-01-01T01:53:26.000Z</time>
      </trkpt>
      <trkpt lat="42.321629" lon="1.899367">
        <ele>2438.9</ele>
        <time>1970-01-01T01:53:27.000Z</time>
      </trkpt>
      <trkpt lat="42.321621" lon="1.899349">
        <ele>2439.1</ele>
        <time>1970-01-01T01:53:28.000Z</time>
      </trkpt>
      <trkpt lat="42.321613" lon="1.899333">
        <ele>2439.3</ele>
        <time>1970-01-01T01:53:29.000Z</time>
      </trkpt>
      <trkpt lat="42.321606" lon="1.899313">
        <ele>2439.5</ele>
        <time>1970-01-01T01:53:30.000Z</time>
      </trkpt>
      <trkpt lat="42.321606" lon="1.899293">
        <ele>2439.7</ele>
        <time>1970-01-01T01:53:31.000Z</time>
      </trkpt>
      <trkpt lat="42.321602" lon="1.899273">
        <ele>2440</ele>
        <time>1970-01-01T01:53:32.000Z</time>
      </trkpt>
      <trkpt lat="42.321598" lon="1.899255">
        <ele>2440.2</ele>
        <time>1970-01-01T01:53:33.000Z</time>
      </trkpt>
      <trkpt lat="42.32159" lon="1.899238">
        <ele>2440.4</ele>
        <time>1970-01-01T01:53:34.000Z</time>
      </trkpt>
      <trkpt lat="42.321587" lon="1.899221">
        <ele>2440.6</ele>
        <time>1970-01-01T01:53:35.000Z</time>
      </trkpt>
      <trkpt lat="42.321575" lon="1.899203">
        <ele>2440.8</ele>
        <time>1970-01-01T01:53:36.000Z</time>
      </trkpt>
      <trkpt lat="42.321571" lon="1.899181">
        <ele>2441.1</ele>
        <time>1970-01-01T01:53:37.000Z</time>
      </trkpt>
      <trkpt lat="42.321564" lon="1.899161">
        <ele>2441.3</ele>
        <time>1970-01-01T01:53:38.000Z</time>
      </trkpt>
      <trkpt lat="42.32156" lon="1.899146">
        <ele>2441.5</ele>
        <time>1970-01-01T01:53:39.000Z</time>
      </trkpt>
      <trkpt lat="42.321548" lon="1.899133">
        <ele>2441.7</ele>
        <time>1970-01-01T01:53:40.000Z</time>
      </trkpt>
      <trkpt lat="42.321537" lon="1.899119">
        <ele>2442</ele>
        <time>1970-01-01T01:53:41.000Z</time>
      </trkpt>
      <trkpt lat="42.321526" lon="1.899104">
        <ele>2442.2</ele>
        <time>1970-01-01T01:53:42.000Z</time>
      </trkpt>
      <trkpt lat="42.321518" lon="1.899087">
        <ele>2442.4</ele>
        <time>1970-01-01T01:53:43.000Z</time>
      </trkpt>
      <trkpt lat="42.32151" lon="1.899074">
        <ele>2442.6</ele>
        <time>1970-01-01T01:53:44.000Z</time>
      </trkpt>
      <trkpt lat="42.321507" lon="1.899059">
        <ele>2442.8</ele>
        <time>1970-01-01T01:53:45.000Z</time>
      </trkpt>
      <trkpt lat="42.321499" lon="1.899041">
        <ele>2443</ele>
        <time>1970-01-01T01:53:46.000Z</time>
      </trkpt>
      <trkpt lat="42.321487" lon="1.899022">
        <ele>2443.2</ele>
        <time>1970-01-01T01:53:47.000Z</time>
      </trkpt>
      <trkpt lat="42.32148" lon="1.899004">
        <ele>2443.5</ele>
        <time>1970-01-01T01:53:48.000Z</time>
      </trkpt>
      <trkpt lat="42.321476" lon="1.898982">
        <ele>2443.7</ele>
        <time>1970-01-01T01:53:49.000Z</time>
      </trkpt>
      <trkpt lat="42.321468" lon="1.89896">
        <ele>2444</ele>
        <time>1970-01-01T01:53:50.000Z</time>
      </trkpt>
      <trkpt lat="42.321461" lon="1.898941">
        <ele>2444.2</ele>
        <time>1970-01-01T01:53:51.000Z</time>
      </trkpt>
      <trkpt lat="42.321453" lon="1.898924">
        <ele>2444.4</ele>
        <time>1970-01-01T01:53:52.000Z</time>
      </trkpt>
      <trkpt lat="42.321445" lon="1.898906">
        <ele>2444.7</ele>
        <time>1970-01-01T01:53:53.000Z</time>
      </trkpt>
      <trkpt lat="42.321438" lon="1.898887">
        <ele>2444.9</ele>
        <time>1970-01-01T01:53:54.000Z</time>
      </trkpt>
      <trkpt lat="42.32143" lon="1.898866">
        <ele>2445.1</ele>
        <time>1970-01-01T01:53:55.000Z</time>
      </trkpt>
      <trkpt lat="42.321426" lon="1.898848">
        <ele>2445.3</ele>
        <time>1970-01-01T01:53:56.000Z</time>
      </trkpt>
      <trkpt lat="42.321419" lon="1.898831">
        <ele>2445.6</ele>
        <time>1970-01-01T01:53:57.000Z</time>
      </trkpt>
      <trkpt lat="42.321415" lon="1.898813">
        <ele>2445.8</ele>
        <time>1970-01-01T01:53:58.000Z</time>
      </trkpt>
      <trkpt lat="42.321407" lon="1.898794">
        <ele>2446</ele>
        <time>1970-01-01T01:53:59.000Z</time>
      </trkpt>
      <trkpt lat="42.321404" lon="1.898776">
        <ele>2446.2</ele>
        <time>1970-01-01T01:54:00.000Z</time>
      </trkpt>
      <trkpt lat="42.3214" lon="1.898759">
        <ele>2446.4</ele>
        <time>1970-01-01T01:54:01.000Z</time>
      </trkpt>
      <trkpt lat="42.321392" lon="1.898743">
        <ele>2446.6</ele>
        <time>1970-01-01T01:54:02.000Z</time>
      </trkpt>
      <trkpt lat="42.321388" lon="1.898724">
        <ele>2446.8</ele>
        <time>1970-01-01T01:54:03.000Z</time>
      </trkpt>
      <trkpt lat="42.321384" lon="1.898706">
        <ele>2447</ele>
        <time>1970-01-01T01:54:04.000Z</time>
      </trkpt>
      <trkpt lat="42.321381" lon="1.898688">
        <ele>2447.2</ele>
        <time>1970-01-01T01:54:05.000Z</time>
      </trkpt>
      <trkpt lat="42.321373" lon="1.898669">
        <ele>2447.5</ele>
        <time>1970-01-01T01:54:06.000Z</time>
      </trkpt>
      <trkpt lat="42.321365" lon="1.898653">
        <ele>2447.7</ele>
        <time>1970-01-01T01:54:07.000Z</time>
      </trkpt>
      <trkpt lat="42.321358" lon="1.898634">
        <ele>2447.9</ele>
        <time>1970-01-01T01:54:08.000Z</time>
      </trkpt>
      <trkpt lat="42.321358" lon="1.898618">
        <ele>2448.1</ele>
        <time>1970-01-01T01:54:09.000Z</time>
      </trkpt>
      <trkpt lat="42.321354" lon="1.898597">
        <ele>2448.3</ele>
        <time>1970-01-01T01:54:10.000Z</time>
      </trkpt>
      <trkpt lat="42.32135" lon="1.898576">
        <ele>2448.5</ele>
        <time>1970-01-01T01:54:11.000Z</time>
      </trkpt>
      <trkpt lat="42.321342" lon="1.898559">
        <ele>2448.8</ele>
        <time>1970-01-01T01:54:12.000Z</time>
      </trkpt>
      <trkpt lat="42.321339" lon="1.898545">
        <ele>2448.9</ele>
        <time>1970-01-01T01:54:13.000Z</time>
      </trkpt>
      <trkpt lat="42.321342" lon="1.898532">
        <ele>2449.1</ele>
        <time>1970-01-01T01:54:14.000Z</time>
      </trkpt>
      <trkpt lat="42.321342" lon="1.898517">
        <ele>2449.2</ele>
        <time>1970-01-01T01:54:15.000Z</time>
      </trkpt>
      <trkpt lat="42.321342" lon="1.898501">
        <ele>2449.4</ele>
        <time>1970-01-01T01:54:16.000Z</time>
      </trkpt>
      <trkpt lat="42.321339" lon="1.898477">
        <ele>2449.7</ele>
        <time>1970-01-01T01:54:17.000Z</time>
      </trkpt>
      <trkpt lat="42.321331" lon="1.898453">
        <ele>2449.9</ele>
        <time>1970-01-01T01:54:18.000Z</time>
      </trkpt>
      <trkpt lat="42.321327" lon="1.898435">
        <ele>2450.2</ele>
        <time>1970-01-01T01:54:19.000Z</time>
      </trkpt>
      <trkpt lat="42.321327" lon="1.898416">
        <ele>2450.4</ele>
        <time>1970-01-01T01:54:20.000Z</time>
      </trkpt>
      <trkpt lat="42.321327" lon="1.898398">
        <ele>2450.6</ele>
        <time>1970-01-01T01:54:21.000Z</time>
      </trkpt>
      <trkpt lat="42.321331" lon="1.898379">
        <ele>2450.8</ele>
        <time>1970-01-01T01:54:22.000Z</time>
      </trkpt>
      <trkpt lat="42.321331" lon="1.898361">
        <ele>2451</ele>
        <time>1970-01-01T01:54:23.000Z</time>
      </trkpt>
      <trkpt lat="42.321331" lon="1.898341">
        <ele>2451.2</ele>
        <time>1970-01-01T01:54:24.000Z</time>
      </trkpt>
      <trkpt lat="42.321331" lon="1.898323">
        <ele>2451.4</ele>
        <time>1970-01-01T01:54:25.000Z</time>
      </trkpt>
      <trkpt lat="42.321331" lon="1.898307">
        <ele>2451.5</ele>
        <time>1970-01-01T01:54:26.000Z</time>
      </trkpt>
      <trkpt lat="42.321327" lon="1.898292">
        <ele>2451.7</ele>
        <time>1970-01-01T01:54:27.000Z</time>
      </trkpt>
      <trkpt lat="42.321323" lon="1.898276">
        <ele>2451.9</ele>
        <time>1970-01-01T01:54:28.000Z</time>
      </trkpt>
      <trkpt lat="42.321316" lon="1.89826">
        <ele>2452.1</ele>
        <time>1970-01-01T01:54:29.000Z</time>
      </trkpt>
      <trkpt lat="42.321312" lon="1.898245">
        <ele>2452.3</ele>
        <time>1970-01-01T01:54:30.000Z</time>
      </trkpt>
      <trkpt lat="42.321308" lon="1.898224">
        <ele>2452.5</ele>
        <time>1970-01-01T01:54:31.000Z</time>
      </trkpt>
      <trkpt lat="42.3213" lon="1.898206">
        <ele>2452.7</ele>
        <time>1970-01-01T01:54:32.000Z</time>
      </trkpt>
      <trkpt lat="42.321293" lon="1.898188">
        <ele>2453</ele>
        <time>1970-01-01T01:54:33.000Z</time>
      </trkpt>
      <trkpt lat="42.321289" lon="1.89817">
        <ele>2453.2</ele>
        <time>1970-01-01T01:54:34.000Z</time>
      </trkpt>
      <trkpt lat="42.321281" lon="1.898153">
        <ele>2453.4</ele>
        <time>1970-01-01T01:54:35.000Z</time>
      </trkpt>
      <trkpt lat="42.321278" lon="1.898134">
        <ele>2453.6</ele>
        <time>1970-01-01T01:54:36.000Z</time>
      </trkpt>
      <trkpt lat="42.321278" lon="1.898116">
        <ele>2453.8</ele>
        <time>1970-01-01T01:54:37.000Z</time>
      </trkpt>
      <trkpt lat="42.321274" lon="1.898099">
        <ele>2454</ele>
        <time>1970-01-01T01:54:38.000Z</time>
      </trkpt>
      <trkpt lat="42.321274" lon="1.898081">
        <ele>2454.2</ele>
        <time>1970-01-01T01:54:39.000Z</time>
      </trkpt>
      <trkpt lat="42.321274" lon="1.898064">
        <ele>2454.4</ele>
        <time>1970-01-01T01:54:40.000Z</time>
      </trkpt>
      <trkpt lat="42.32127" lon="1.898044">
        <ele>2454.6</ele>
        <time>1970-01-01T01:54:41.000Z</time>
      </trkpt>
      <trkpt lat="42.321266" lon="1.898028">
        <ele>2454.8</ele>
        <time>1970-01-01T01:54:42.000Z</time>
      </trkpt>
      <trkpt lat="42.321259" lon="1.898011">
        <ele>2455</ele>
        <time>1970-01-01T01:54:43.000Z</time>
      </trkpt>
      <trkpt lat="42.321255" lon="1.897995">
        <ele>2455.2</ele>
        <time>1970-01-01T01:54:44.000Z</time>
      </trkpt>
      <trkpt lat="42.321251" lon="1.897979">
        <ele>2455.3</ele>
        <time>1970-01-01T01:54:45.000Z</time>
      </trkpt>
      <trkpt lat="42.321247" lon="1.897962">
        <ele>2455.5</ele>
        <time>1970-01-01T01:54:46.000Z</time>
      </trkpt>
      <trkpt lat="42.321243" lon="1.897944">
        <ele>2455.7</ele>
        <time>1970-01-01T01:54:47.000Z</time>
      </trkpt>
      <trkpt lat="42.321236" lon="1.89793">
        <ele>2455.9</ele>
        <time>1970-01-01T01:54:48.000Z</time>
      </trkpt>
      <trkpt lat="42.321232" lon="1.897916">
        <ele>2456.1</ele>
        <time>1970-01-01T01:54:49.000Z</time>
      </trkpt>
      <trkpt lat="42.321232" lon="1.897901">
        <ele>2456.2</ele>
        <time>1970-01-01T01:54:50.000Z</time>
      </trkpt>
      <trkpt lat="42.321232" lon="1.897886">
        <ele>2456.4</ele>
        <time>1970-01-01T01:54:51.000Z</time>
      </trkpt>
      <trkpt lat="42.321228" lon="1.897872">
        <ele>2456.6</ele>
        <time>1970-01-01T01:54:52.000Z</time>
      </trkpt>
      <trkpt lat="42.321228" lon="1.897857">
        <ele>2456.7</ele>
        <time>1970-01-01T01:54:53.000Z</time>
      </trkpt>
      <trkpt lat="42.321228" lon="1.897839">
        <ele>2456.9</ele>
        <time>1970-01-01T01:54:54.000Z</time>
      </trkpt>
      <trkpt lat="42.321224" lon="1.89782">
        <ele>2457.1</ele>
        <time>1970-01-01T01:54:55.000Z</time>
      </trkpt>
      <trkpt lat="42.321217" lon="1.897801">
        <ele>2457.4</ele>
        <time>1970-01-01T01:54:56.000Z</time>
      </trkpt>
      <trkpt lat="42.321217" lon="1.897784">
        <ele>2457.6</ele>
        <time>1970-01-01T01:54:57.000Z</time>
      </trkpt>
      <trkpt lat="42.321213" lon="1.897766">
        <ele>2457.8</ele>
        <time>1970-01-01T01:54:58.000Z</time>
      </trkpt>
      <trkpt lat="42.321209" lon="1.897747">
        <ele>2458</ele>
        <time>1970-01-01T01:54:59.000Z</time>
      </trkpt>
      <trkpt lat="42.321209" lon="1.897728">
        <ele>2458.2</ele>
        <time>1970-01-01T01:55:00.000Z</time>
      </trkpt>
      <trkpt lat="42.321205" lon="1.897711">
        <ele>2458.4</ele>
        <time>1970-01-01T01:55:01.000Z</time>
      </trkpt>
      <trkpt lat="42.321201" lon="1.897696">
        <ele>2458.5</ele>
        <time>1970-01-01T01:55:02.000Z</time>
      </trkpt>
      <trkpt lat="42.321197" lon="1.897678">
        <ele>2458.8</ele>
        <time>1970-01-01T01:55:03.000Z</time>
      </trkpt>
      <trkpt lat="42.32119" lon="1.897661">
        <ele>2459</ele>
        <time>1970-01-01T01:55:04.000Z</time>
      </trkpt>
      <trkpt lat="42.321182" lon="1.897648">
        <ele>2459.1</ele>
        <time>1970-01-01T01:55:05.000Z</time>
      </trkpt>
      <trkpt lat="42.321178" lon="1.897631">
        <ele>2459.3</ele>
        <time>1970-01-01T01:55:06.000Z</time>
      </trkpt>
      <trkpt lat="42.321171" lon="1.897612">
        <ele>2459.6</ele>
        <time>1970-01-01T01:55:07.000Z</time>
      </trkpt>
      <trkpt lat="42.321167" lon="1.897596">
        <ele>2459.8</ele>
        <time>1970-01-01T01:55:08.000Z</time>
      </trkpt>
      <trkpt lat="42.321163" lon="1.89758">
        <ele>2459.9</ele>
        <time>1970-01-01T01:55:09.000Z</time>
      </trkpt>
      <trkpt lat="42.321159" lon="1.897567">
        <ele>2460.1</ele>
        <time>1970-01-01T01:55:10.000Z</time>
      </trkpt>
      <trkpt lat="42.321159" lon="1.897551">
        <ele>2460.3</ele>
        <time>1970-01-01T01:55:11.000Z</time>
      </trkpt>
      <trkpt lat="42.321156" lon="1.897539">
        <ele>2460.4</ele>
        <time>1970-01-01T01:55:12.000Z</time>
      </trkpt>
      <trkpt lat="42.321152" lon="1.897522">
        <ele>2460.6</ele>
        <time>1970-01-01T01:55:13.000Z</time>
      </trkpt>
      <trkpt lat="42.321148" lon="1.897506">
        <ele>2460.8</ele>
        <time>1970-01-01T01:55:14.000Z</time>
      </trkpt>
      <trkpt lat="42.321144" lon="1.897493">
        <ele>2460.9</ele>
        <time>1970-01-01T01:55:15.000Z</time>
      </trkpt>
      <trkpt lat="42.321144" lon="1.897476">
        <ele>2461.1</ele>
        <time>1970-01-01T01:55:16.000Z</time>
      </trkpt>
      <trkpt lat="42.321144" lon="1.897462">
        <ele>2461.3</ele>
        <time>1970-01-01T01:55:17.000Z</time>
      </trkpt>
      <trkpt lat="42.321133" lon="1.897453">
        <ele>2461.5</ele>
        <time>1970-01-01T01:55:18.000Z</time>
      </trkpt>
      <trkpt lat="42.321121" lon="1.897443">
        <ele>2461.7</ele>
        <time>1970-01-01T01:55:19.000Z</time>
      </trkpt>
      <trkpt lat="42.321098" lon="1.897424">
        <ele>2462.1</ele>
        <time>1970-01-01T01:55:20.000Z</time>
      </trkpt>
      <trkpt lat="42.321083" lon="1.897401">
        <ele>2462.4</ele>
        <time>1970-01-01T01:55:21.000Z</time>
      </trkpt>
      <trkpt lat="42.321068" lon="1.897381">
        <ele>2462.7</ele>
        <time>1970-01-01T01:55:22.000Z</time>
      </trkpt>
      <trkpt lat="42.32106" lon="1.897365">
        <ele>2462.9</ele>
        <time>1970-01-01T01:55:23.000Z</time>
      </trkpt>
      <trkpt lat="42.321053" lon="1.897352">
        <ele>2463.1</ele>
        <time>1970-01-01T01:55:24.000Z</time>
      </trkpt>
      <trkpt lat="42.321045" lon="1.89734">
        <ele>2463.3</ele>
        <time>1970-01-01T01:55:25.000Z</time>
      </trkpt>
      <trkpt lat="42.321037" lon="1.897325">
        <ele>2463.5</ele>
        <time>1970-01-01T01:55:26.000Z</time>
      </trkpt>
      <trkpt lat="42.32103" lon="1.897306">
        <ele>2463.7</ele>
        <time>1970-01-01T01:55:27.000Z</time>
      </trkpt>
      <trkpt lat="42.321026" lon="1.897286">
        <ele>2463.9</ele>
        <time>1970-01-01T01:55:28.000Z</time>
      </trkpt>
      <trkpt lat="42.321018" lon="1.897266">
        <ele>2464.2</ele>
        <time>1970-01-01T01:55:29.000Z</time>
      </trkpt>
      <trkpt lat="42.321007" lon="1.89725">
        <ele>2464.4</ele>
        <time>1970-01-01T01:55:30.000Z</time>
      </trkpt>
      <trkpt lat="42.320999" lon="1.897234">
        <ele>2464.6</ele>
        <time>1970-01-01T01:55:31.000Z</time>
      </trkpt>
      <trkpt lat="42.320992" lon="1.897218">
        <ele>2464.8</ele>
        <time>1970-01-01T01:55:32.000Z</time>
      </trkpt>
      <trkpt lat="42.320984" lon="1.8972">
        <ele>2465</ele>
        <time>1970-01-01T01:55:33.000Z</time>
      </trkpt>
      <trkpt lat="42.32098" lon="1.897182">
        <ele>2465.2</ele>
        <time>1970-01-01T01:55:34.000Z</time>
      </trkpt>
      <trkpt lat="42.320972" lon="1.897167">
        <ele>2465.4</ele>
        <time>1970-01-01T01:55:35.000Z</time>
      </trkpt>
      <trkpt lat="42.320965" lon="1.897157">
        <ele>2465.6</ele>
        <time>1970-01-01T01:55:36.000Z</time>
      </trkpt>
      <trkpt lat="42.320953" lon="1.897144">
        <ele>2465.8</ele>
        <time>1970-01-01T01:55:37.000Z</time>
      </trkpt>
      <trkpt lat="42.320946" lon="1.897128">
        <ele>2466</ele>
        <time>1970-01-01T01:55:38.000Z</time>
      </trkpt>
      <trkpt lat="42.320942" lon="1.89711">
        <ele>2466.2</ele>
        <time>1970-01-01T01:55:39.000Z</time>
      </trkpt>
      <trkpt lat="42.320938" lon="1.897092">
        <ele>2466.4</ele>
        <time>1970-01-01T01:55:40.000Z</time>
      </trkpt>
      <trkpt lat="42.320934" lon="1.897078">
        <ele>2466.6</ele>
        <time>1970-01-01T01:55:41.000Z</time>
      </trkpt>
      <trkpt lat="42.320927" lon="1.897061">
        <ele>2466.8</ele>
        <time>1970-01-01T01:55:42.000Z</time>
      </trkpt>
      <trkpt lat="42.320919" lon="1.897044">
        <ele>2467</ele>
        <time>1970-01-01T01:55:43.000Z</time>
      </trkpt>
      <trkpt lat="42.320911" lon="1.897026">
        <ele>2467.2</ele>
        <time>1970-01-01T01:55:44.000Z</time>
      </trkpt>
      <trkpt lat="42.320904" lon="1.89701">
        <ele>2467.4</ele>
        <time>1970-01-01T01:55:45.000Z</time>
      </trkpt>
      <trkpt lat="42.320896" lon="1.897">
        <ele>2467.6</ele>
        <time>1970-01-01T01:55:46.000Z</time>
      </trkpt>
      <trkpt lat="42.320885" lon="1.896981">
        <ele>2467.9</ele>
        <time>1970-01-01T01:55:47.000Z</time>
      </trkpt>
      <trkpt lat="42.320877" lon="1.896965">
        <ele>2468.1</ele>
        <time>1970-01-01T01:55:48.000Z</time>
      </trkpt>
      <trkpt lat="42.320869" lon="1.896951">
        <ele>2468.3</ele>
        <time>1970-01-01T01:55:49.000Z</time>
      </trkpt>
      <trkpt lat="42.320862" lon="1.896935">
        <ele>2468.5</ele>
        <time>1970-01-01T01:55:50.000Z</time>
      </trkpt>
      <trkpt lat="42.320854" lon="1.896924">
        <ele>2468.6</ele>
        <time>1970-01-01T01:55:51.000Z</time>
      </trkpt>
      <trkpt lat="42.32085" lon="1.896907">
        <ele>2468.8</ele>
        <time>1970-01-01T01:55:52.000Z</time>
      </trkpt>
      <trkpt lat="42.320847" lon="1.896892">
        <ele>2469</ele>
        <time>1970-01-01T01:55:53.000Z</time>
      </trkpt>
      <trkpt lat="42.320843" lon="1.896877">
        <ele>2469.2</ele>
        <time>1970-01-01T01:55:54.000Z</time>
      </trkpt>
      <trkpt lat="42.320831" lon="1.896862">
        <ele>2469.4</ele>
        <time>1970-01-01T01:55:55.000Z</time>
      </trkpt>
      <trkpt lat="42.32082" lon="1.89685">
        <ele>2469.6</ele>
        <time>1970-01-01T01:55:56.000Z</time>
      </trkpt>
      <trkpt lat="42.320805" lon="1.89684">
        <ele>2469.9</ele>
        <time>1970-01-01T01:55:57.000Z</time>
      </trkpt>
      <trkpt lat="42.320793" lon="1.896831">
        <ele>2470.1</ele>
        <time>1970-01-01T01:55:58.000Z</time>
      </trkpt>
      <trkpt lat="42.320786" lon="1.89682">
        <ele>2470.2</ele>
        <time>1970-01-01T01:55:59.000Z</time>
      </trkpt>
      <trkpt lat="42.320782" lon="1.896805">
        <ele>2470.4</ele>
        <time>1970-01-01T01:56:00.000Z</time>
      </trkpt>
      <trkpt lat="42.320778" lon="1.896789">
        <ele>2470.6</ele>
        <time>1970-01-01T01:56:01.000Z</time>
      </trkpt>
      <trkpt lat="42.320774" lon="1.896774">
        <ele>2470.7</ele>
        <time>1970-01-01T01:56:02.000Z</time>
      </trkpt>
      <trkpt lat="42.320766" lon="1.896757">
        <ele>2471</ele>
        <time>1970-01-01T01:56:03.000Z</time>
      </trkpt>
      <trkpt lat="42.320763" lon="1.896742">
        <ele>2471.1</ele>
        <time>1970-01-01T01:56:04.000Z</time>
      </trkpt>
      <trkpt lat="42.320755" lon="1.896727">
        <ele>2471.3</ele>
        <time>1970-01-01T01:56:05.000Z</time>
      </trkpt>
      <trkpt lat="42.320747" lon="1.896713">
        <ele>2471.5</ele>
        <time>1970-01-01T01:56:06.000Z</time>
      </trkpt>
      <trkpt lat="42.32074" lon="1.896697">
        <ele>2471.7</ele>
        <time>1970-01-01T01:56:07.000Z</time>
      </trkpt>
      <trkpt lat="42.320732" lon="1.896679">
        <ele>2472</ele>
        <time>1970-01-01T01:56:08.000Z</time>
      </trkpt>
      <trkpt lat="42.320728" lon="1.896661">
        <ele>2472.2</ele>
        <time>1970-01-01T01:56:09.000Z</time>
      </trkpt>
      <trkpt lat="42.320724" lon="1.89664">
        <ele>2472.4</ele>
        <time>1970-01-01T01:56:10.000Z</time>
      </trkpt>
      <trkpt lat="42.320721" lon="1.896621">
        <ele>2472.6</ele>
        <time>1970-01-01T01:56:11.000Z</time>
      </trkpt>
      <trkpt lat="42.320713" lon="1.896599">
        <ele>2472.9</ele>
        <time>1970-01-01T01:56:12.000Z</time>
      </trkpt>
      <trkpt lat="42.320702" lon="1.896581">
        <ele>2473.1</ele>
        <time>1970-01-01T01:56:13.000Z</time>
      </trkpt>
      <trkpt lat="42.32069" lon="1.896567">
        <ele>2473.4</ele>
        <time>1970-01-01T01:56:14.000Z</time>
      </trkpt>
      <trkpt lat="42.320679" lon="1.896552">
        <ele>2473.6</ele>
        <time>1970-01-01T01:56:15.000Z</time>
      </trkpt>
      <trkpt lat="42.320671" lon="1.896536">
        <ele>2473.8</ele>
        <time>1970-01-01T01:56:16.000Z</time>
      </trkpt>
      <trkpt lat="42.320663" lon="1.896522">
        <ele>2474</ele>
        <time>1970-01-01T01:56:17.000Z</time>
      </trkpt>
      <trkpt lat="42.320652" lon="1.896508">
        <ele>2474.2</ele>
        <time>1970-01-01T01:56:18.000Z</time>
      </trkpt>
      <trkpt lat="42.320644" lon="1.896492">
        <ele>2474.4</ele>
        <time>1970-01-01T01:56:19.000Z</time>
      </trkpt>
      <trkpt lat="42.320637" lon="1.896478">
        <ele>2474.6</ele>
        <time>1970-01-01T01:56:20.000Z</time>
      </trkpt>
      <trkpt lat="42.320625" lon="1.896469">
        <ele>2474.8</ele>
        <time>1970-01-01T01:56:21.000Z</time>
      </trkpt>
      <trkpt lat="42.320614" lon="1.896464">
        <ele>2475</ele>
        <time>1970-01-01T01:56:22.000Z</time>
      </trkpt>
      <trkpt lat="42.320599" lon="1.896459">
        <ele>2475.2</ele>
        <time>1970-01-01T01:56:23.000Z</time>
      </trkpt>
      <trkpt lat="42.320587" lon="1.896454">
        <ele>2475.4</ele>
        <time>1970-01-01T01:56:24.000Z</time>
      </trkpt>
      <trkpt lat="42.320583" lon="1.896445">
        <ele>2475.5</ele>
        <time>1970-01-01T01:56:25.000Z</time>
      </trkpt>
      <trkpt lat="42.320587" lon="1.896428">
        <ele>2475.7</ele>
        <time>1970-01-01T01:56:26.000Z</time>
      </trkpt>
      <trkpt lat="42.320587" lon="1.896409">
        <ele>2475.9</ele>
        <time>1970-01-01T01:56:27.000Z</time>
      </trkpt>
      <trkpt lat="42.320583" lon="1.896391">
        <ele>2476.1</ele>
        <time>1970-01-01T01:56:28.000Z</time>
      </trkpt>
      <trkpt lat="42.320576" lon="1.896374">
        <ele>2476.3</ele>
        <time>1970-01-01T01:56:29.000Z</time>
      </trkpt>
      <trkpt lat="42.320568" lon="1.896359">
        <ele>2476.5</ele>
        <time>1970-01-01T01:56:30.000Z</time>
      </trkpt>
      <trkpt lat="42.32056" lon="1.896344">
        <ele>2476.7</ele>
        <time>1970-01-01T01:56:31.000Z</time>
      </trkpt>
      <trkpt lat="42.320553" lon="1.896331">
        <ele>2476.9</ele>
        <time>1970-01-01T01:56:32.000Z</time>
      </trkpt>
      <trkpt lat="42.320545" lon="1.896318">
        <ele>2477.1</ele>
        <time>1970-01-01T01:56:33.000Z</time>
      </trkpt>
      <trkpt lat="42.320534" lon="1.896304">
        <ele>2477.3</ele>
        <time>1970-01-01T01:56:34.000Z</time>
      </trkpt>
      <trkpt lat="42.320522" lon="1.896294">
        <ele>2477.5</ele>
        <time>1970-01-01T01:56:35.000Z</time>
      </trkpt>
      <trkpt lat="42.320511" lon="1.896292">
        <ele>2477.7</ele>
        <time>1970-01-01T01:56:36.000Z</time>
      </trkpt>
      <trkpt lat="42.320496" lon="1.89629">
        <ele>2477.9</ele>
        <time>1970-01-01T01:56:37.000Z</time>
      </trkpt>
      <trkpt lat="42.320484" lon="1.896288">
        <ele>2478.1</ele>
        <time>1970-01-01T01:56:38.000Z</time>
      </trkpt>
      <trkpt lat="42.320473" lon="1.896286">
        <ele>2478.2</ele>
        <time>1970-01-01T01:56:39.000Z</time>
      </trkpt>
      <trkpt lat="42.320461" lon="1.896281">
        <ele>2478.4</ele>
        <time>1970-01-01T01:56:40.000Z</time>
      </trkpt>
      <trkpt lat="42.320454" lon="1.896272">
        <ele>2478.5</ele>
        <time>1970-01-01T01:56:41.000Z</time>
      </trkpt>
      <trkpt lat="42.320438" lon="1.896259">
        <ele>2478.8</ele>
        <time>1970-01-01T01:56:42.000Z</time>
      </trkpt>
      <trkpt lat="42.320431" lon="1.896247">
        <ele>2479</ele>
        <time>1970-01-01T01:56:43.000Z</time>
      </trkpt>
      <trkpt lat="42.320431" lon="1.896231">
        <ele>2479.2</ele>
        <time>1970-01-01T01:56:44.000Z</time>
      </trkpt>
      <trkpt lat="42.320431" lon="1.896212">
        <ele>2479.4</ele>
        <time>1970-01-01T01:56:45.000Z</time>
      </trkpt>
      <trkpt lat="42.320423" lon="1.896195">
        <ele>2479.6</ele>
        <time>1970-01-01T01:56:46.000Z</time>
      </trkpt>
      <trkpt lat="42.320419" lon="1.896176">
        <ele>2479.8</ele>
        <time>1970-01-01T01:56:47.000Z</time>
      </trkpt>
      <trkpt lat="42.320412" lon="1.896159">
        <ele>2480</ele>
        <time>1970-01-01T01:56:48.000Z</time>
      </trkpt>
      <trkpt lat="42.320404" lon="1.896147">
        <ele>2480.2</ele>
        <time>1970-01-01T01:56:49.000Z</time>
      </trkpt>
      <trkpt lat="42.320393" lon="1.896136">
        <ele>2480.4</ele>
        <time>1970-01-01T01:56:50.000Z</time>
      </trkpt>
      <trkpt lat="42.320385" lon="1.896126">
        <ele>2480.5</ele>
        <time>1970-01-01T01:56:51.000Z</time>
      </trkpt>
      <trkpt lat="42.32037" lon="1.896112">
        <ele>2480.8</ele>
        <time>1970-01-01T01:56:52.000Z</time>
      </trkpt>
      <trkpt lat="42.320358" lon="1.896101">
        <ele>2481</ele>
        <time>1970-01-01T01:56:53.000Z</time>
      </trkpt>
      <trkpt lat="42.320351" lon="1.89609">
        <ele>2481.2</ele>
        <time>1970-01-01T01:56:54.000Z</time>
      </trkpt>
      <trkpt lat="42.320339" lon="1.896078">
        <ele>2481.4</ele>
        <time>1970-01-01T01:56:55.000Z</time>
      </trkpt>
      <trkpt lat="42.320332" lon="1.896068">
        <ele>2481.5</ele>
        <time>1970-01-01T01:56:56.000Z</time>
      </trkpt>
      <trkpt lat="42.32032" lon="1.896058">
        <ele>2481.7</ele>
        <time>1970-01-01T01:56:57.000Z</time>
      </trkpt>
      <trkpt lat="42.320309" lon="1.896047">
        <ele>2481.9</ele>
        <time>1970-01-01T01:56:58.000Z</time>
      </trkpt>
      <trkpt lat="42.320297" lon="1.896034">
        <ele>2482.2</ele>
        <time>1970-01-01T01:56:59.000Z</time>
      </trkpt>
      <trkpt lat="42.32029" lon="1.896019">
        <ele>2482.4</ele>
        <time>1970-01-01T01:57:00.000Z</time>
      </trkpt>
      <trkpt lat="42.320278" lon="1.89601">
        <ele>2482.6</ele>
        <time>1970-01-01T01:57:01.000Z</time>
      </trkpt>
      <trkpt lat="42.320271" lon="1.896">
        <ele>2482.7</ele>
        <time>1970-01-01T01:57:02.000Z</time>
      </trkpt>
      <trkpt lat="42.320255" lon="1.895988">
        <ele>2483</ele>
        <time>1970-01-01T01:57:03.000Z</time>
      </trkpt>
      <trkpt lat="42.320248" lon="1.895977">
        <ele>2483.1</ele>
        <time>1970-01-01T01:57:04.000Z</time>
      </trkpt>
      <trkpt lat="42.32024" lon="1.895962">
        <ele>2483.3</ele>
        <time>1970-01-01T01:57:05.000Z</time>
      </trkpt>
      <trkpt lat="42.320236" lon="1.895946">
        <ele>2483.5</ele>
        <time>1970-01-01T01:57:06.000Z</time>
      </trkpt>
      <trkpt lat="42.320232" lon="1.895932">
        <ele>2483.7</ele>
        <time>1970-01-01T01:57:07.000Z</time>
      </trkpt>
      <trkpt lat="42.320225" lon="1.89592">
        <ele>2483.9</ele>
        <time>1970-01-01T01:57:08.000Z</time>
      </trkpt>
      <trkpt lat="42.320221" lon="1.895904">
        <ele>2484</ele>
        <time>1970-01-01T01:57:09.000Z</time>
      </trkpt>
      <trkpt lat="42.320213" lon="1.89589">
        <ele>2484.2</ele>
        <time>1970-01-01T01:57:10.000Z</time>
      </trkpt>
      <trkpt lat="42.320209" lon="1.895876">
        <ele>2484.4</ele>
        <time>1970-01-01T01:57:11.000Z</time>
      </trkpt>
      <trkpt lat="42.320202" lon="1.895859">
        <ele>2484.6</ele>
        <time>1970-01-01T01:57:12.000Z</time>
      </trkpt>
      <trkpt lat="42.320194" lon="1.895844">
        <ele>2484.8</ele>
        <time>1970-01-01T01:57:13.000Z</time>
      </trkpt>
      <trkpt lat="42.320187" lon="1.895832">
        <ele>2485</ele>
        <time>1970-01-01T01:57:14.000Z</time>
      </trkpt>
      <trkpt lat="42.320171" lon="1.89582">
        <ele>2485.2</ele>
        <time>1970-01-01T01:57:15.000Z</time>
      </trkpt>
      <trkpt lat="42.32016" lon="1.895809">
        <ele>2485.4</ele>
        <time>1970-01-01T01:57:16.000Z</time>
      </trkpt>
      <trkpt lat="42.320148" lon="1.895793">
        <ele>2485.7</ele>
        <time>1970-01-01T01:57:17.000Z</time>
      </trkpt>
      <trkpt lat="42.320145" lon="1.895776">
        <ele>2485.9</ele>
        <time>1970-01-01T01:57:18.000Z</time>
      </trkpt>
      <trkpt lat="42.320141" lon="1.895759">
        <ele>2486.1</ele>
        <time>1970-01-01T01:57:19.000Z</time>
      </trkpt>
      <trkpt lat="42.320133" lon="1.89574">
        <ele>2486.3</ele>
        <time>1970-01-01T01:57:20.000Z</time>
      </trkpt>
      <trkpt lat="42.320126" lon="1.89572">
        <ele>2486.5</ele>
        <time>1970-01-01T01:57:21.000Z</time>
      </trkpt>
      <trkpt lat="42.320118" lon="1.895708">
        <ele>2486.7</ele>
        <time>1970-01-01T01:57:22.000Z</time>
      </trkpt>
      <trkpt lat="42.320106" lon="1.895694">
        <ele>2487</ele>
        <time>1970-01-01T01:57:23.000Z</time>
      </trkpt>
      <trkpt lat="42.320095" lon="1.89568">
        <ele>2487.2</ele>
        <time>1970-01-01T01:57:24.000Z</time>
      </trkpt>
      <trkpt lat="42.320091" lon="1.895667">
        <ele>2487.3</ele>
        <time>1970-01-01T01:57:25.000Z</time>
      </trkpt>
      <trkpt lat="42.320084" lon="1.895652">
        <ele>2487.5</ele>
        <time>1970-01-01T01:57:26.000Z</time>
      </trkpt>
      <trkpt lat="42.320072" lon="1.895637">
        <ele>2487.8</ele>
        <time>1970-01-01T01:57:27.000Z</time>
      </trkpt>
      <trkpt lat="42.320065" lon="1.895622">
        <ele>2487.9</ele>
        <time>1970-01-01T01:57:28.000Z</time>
      </trkpt>
      <trkpt lat="42.320053" lon="1.895607">
        <ele>2488.2</ele>
        <time>1970-01-01T01:57:29.000Z</time>
      </trkpt>
      <trkpt lat="42.320049" lon="1.895592">
        <ele>2488.4</ele>
        <time>1970-01-01T01:57:30.000Z</time>
      </trkpt>
      <trkpt lat="42.320038" lon="1.895574">
        <ele>2488.6</ele>
        <time>1970-01-01T01:57:31.000Z</time>
      </trkpt>
      <trkpt lat="42.32003" lon="1.895559">
        <ele>2488.8</ele>
        <time>1970-01-01T01:57:32.000Z</time>
      </trkpt>
      <trkpt lat="42.320015" lon="1.895544">
        <ele>2489.1</ele>
        <time>1970-01-01T01:57:33.000Z</time>
      </trkpt>
      <trkpt lat="42.320003" lon="1.895529">
        <ele>2489.3</ele>
        <time>1970-01-01T01:57:34.000Z</time>
      </trkpt>
      <trkpt lat="42.319996" lon="1.895514">
        <ele>2489.5</ele>
        <time>1970-01-01T01:57:35.000Z</time>
      </trkpt>
      <trkpt lat="42.319988" lon="1.895499">
        <ele>2489.7</ele>
        <time>1970-01-01T01:57:36.000Z</time>
      </trkpt>
      <trkpt lat="42.319977" lon="1.895487">
        <ele>2489.9</ele>
        <time>1970-01-01T01:57:37.000Z</time>
      </trkpt>
      <trkpt lat="42.319965" lon="1.895476">
        <ele>2490.1</ele>
        <time>1970-01-01T01:57:38.000Z</time>
      </trkpt>
      <trkpt lat="42.319954" lon="1.895469">
        <ele>2490.3</ele>
        <time>1970-01-01T01:57:39.000Z</time>
      </trkpt>
      <trkpt lat="42.319942" lon="1.895461">
        <ele>2490.5</ele>
        <time>1970-01-01T01:57:40.000Z</time>
      </trkpt>
      <trkpt lat="42.319931" lon="1.895449">
        <ele>2490.7</ele>
        <time>1970-01-01T01:57:41.000Z</time>
      </trkpt>
      <trkpt lat="42.31992" lon="1.895438">
        <ele>2490.9</ele>
        <time>1970-01-01T01:57:42.000Z</time>
      </trkpt>
      <trkpt lat="42.319912" lon="1.895425">
        <ele>2491.1</ele>
        <time>1970-01-01T01:57:43.000Z</time>
      </trkpt>
      <trkpt lat="42.319908" lon="1.895409">
        <ele>2491.3</ele>
        <time>1970-01-01T01:57:44.000Z</time>
      </trkpt>
      <trkpt lat="42.319901" lon="1.895394">
        <ele>2491.5</ele>
        <time>1970-01-01T01:57:45.000Z</time>
      </trkpt>
      <trkpt lat="42.319893" lon="1.895377">
        <ele>2491.7</ele>
        <time>1970-01-01T01:57:46.000Z</time>
      </trkpt>
      <trkpt lat="42.319885" lon="1.895358">
        <ele>2491.9</ele>
        <time>1970-01-01T01:57:47.000Z</time>
      </trkpt>
      <trkpt lat="42.31987" lon="1.895344">
        <ele>2492.2</ele>
        <time>1970-01-01T01:57:48.000Z</time>
      </trkpt>
      <trkpt lat="42.319859" lon="1.895336">
        <ele>2492.4</ele>
        <time>1970-01-01T01:57:49.000Z</time>
      </trkpt>
      <trkpt lat="42.319847" lon="1.895331">
        <ele>2492.6</ele>
        <time>1970-01-01T01:57:50.000Z</time>
      </trkpt>
      <trkpt lat="42.319836" lon="1.895323">
        <ele>2492.8</ele>
        <time>1970-01-01T01:57:51.000Z</time>
      </trkpt>
      <trkpt lat="42.319824" lon="1.895309">
        <ele>2493</ele>
        <time>1970-01-01T01:57:52.000Z</time>
      </trkpt>
      <trkpt lat="42.319813" lon="1.895291">
        <ele>2493.2</ele>
        <time>1970-01-01T01:57:53.000Z</time>
      </trkpt>
      <trkpt lat="42.319801" lon="1.895275">
        <ele>2493.5</ele>
        <time>1970-01-01T01:57:54.000Z</time>
      </trkpt>
      <trkpt lat="42.319794" lon="1.895258">
        <ele>2493.7</ele>
        <time>1970-01-01T01:57:55.000Z</time>
      </trkpt>
      <trkpt lat="42.319786" lon="1.895241">
        <ele>2493.9</ele>
        <time>1970-01-01T01:57:56.000Z</time>
      </trkpt>
      <trkpt lat="42.319775" lon="1.895221">
        <ele>2494.2</ele>
        <time>1970-01-01T01:57:57.000Z</time>
      </trkpt>
      <trkpt lat="42.319767" lon="1.895203">
        <ele>2494.4</ele>
        <time>1970-01-01T01:57:58.000Z</time>
      </trkpt>
      <trkpt lat="42.319756" lon="1.895185">
        <ele>2494.7</ele>
        <time>1970-01-01T01:57:59.000Z</time>
      </trkpt>
      <trkpt lat="42.319744" lon="1.895168">
        <ele>2494.9</ele>
        <time>1970-01-01T01:58:00.000Z</time>
      </trkpt>
      <trkpt lat="42.319733" lon="1.895153">
        <ele>2495.1</ele>
        <time>1970-01-01T01:58:01.000Z</time>
      </trkpt>
      <trkpt lat="42.319717" lon="1.895138">
        <ele>2495.4</ele>
        <time>1970-01-01T01:58:02.000Z</time>
      </trkpt>
      <trkpt lat="42.319702" lon="1.895122">
        <ele>2495.7</ele>
        <time>1970-01-01T01:58:03.000Z</time>
      </trkpt>
      <trkpt lat="42.319687" lon="1.895109">
        <ele>2496</ele>
        <time>1970-01-01T01:58:04.000Z</time>
      </trkpt>
      <trkpt lat="42.319672" lon="1.895092">
        <ele>2496.3</ele>
        <time>1970-01-01T01:58:05.000Z</time>
      </trkpt>
      <trkpt lat="42.31966" lon="1.895075">
        <ele>2496.5</ele>
        <time>1970-01-01T01:58:06.000Z</time>
      </trkpt>
      <trkpt lat="42.319645" lon="1.895056">
        <ele>2496.8</ele>
        <time>1970-01-01T01:58:07.000Z</time>
      </trkpt>
      <trkpt lat="42.319633" lon="1.895038">
        <ele>2497.1</ele>
        <time>1970-01-01T01:58:08.000Z</time>
      </trkpt>
      <trkpt lat="42.319618" lon="1.895018">
        <ele>2497.4</ele>
        <time>1970-01-01T01:58:09.000Z</time>
      </trkpt>
      <trkpt lat="42.319607" lon="1.894998">
        <ele>2497.7</ele>
        <time>1970-01-01T01:58:10.000Z</time>
      </trkpt>
      <trkpt lat="42.319595" lon="1.894979">
        <ele>2497.9</ele>
        <time>1970-01-01T01:58:11.000Z</time>
      </trkpt>
      <trkpt lat="42.319584" lon="1.894958">
        <ele>2498.2</ele>
        <time>1970-01-01T01:58:12.000Z</time>
      </trkpt>
      <trkpt lat="42.319569" lon="1.894938">
        <ele>2498.5</ele>
        <time>1970-01-01T01:58:13.000Z</time>
      </trkpt>
      <trkpt lat="42.319557" lon="1.894918">
        <ele>2498.8</ele>
        <time>1970-01-01T01:58:14.000Z</time>
      </trkpt>
      <trkpt lat="42.319542" lon="1.894897">
        <ele>2499.1</ele>
        <time>1970-01-01T01:58:15.000Z</time>
      </trkpt>
      <trkpt lat="42.31953" lon="1.894877">
        <ele>2499.4</ele>
        <time>1970-01-01T01:58:16.000Z</time>
      </trkpt>
      <trkpt lat="42.319515" lon="1.894858">
        <ele>2499.7</ele>
        <time>1970-01-01T01:58:17.000Z</time>
      </trkpt>
      <trkpt lat="42.3195" lon="1.894838">
        <ele>2500</ele>
        <time>1970-01-01T01:58:18.000Z</time>
      </trkpt>
      <trkpt lat="42.319485" lon="1.894817">
        <ele>2500.3</ele>
        <time>1970-01-01T01:58:19.000Z</time>
      </trkpt>
      <trkpt lat="42.319469" lon="1.894794">
        <ele>2500.7</ele>
        <time>1970-01-01T01:58:20.000Z</time>
      </trkpt>
      <trkpt lat="42.319454" lon="1.894774">
        <ele>2501</ele>
        <time>1970-01-01T01:58:21.000Z</time>
      </trkpt>
      <trkpt lat="42.319439" lon="1.894754">
        <ele>2501.3</ele>
        <time>1970-01-01T01:58:22.000Z</time>
      </trkpt>
      <trkpt lat="42.319424" lon="1.894733">
        <ele>2501.6</ele>
        <time>1970-01-01T01:58:23.000Z</time>
      </trkpt>
      <trkpt lat="42.319412" lon="1.894712">
        <ele>2501.9</ele>
        <time>1970-01-01T01:58:24.000Z</time>
      </trkpt>
      <trkpt lat="42.319397" lon="1.894691">
        <ele>2502.2</ele>
        <time>1970-01-01T01:58:25.000Z</time>
      </trkpt>
      <trkpt lat="42.319386" lon="1.894672">
        <ele>2502.5</ele>
        <time>1970-01-01T01:58:26.000Z</time>
      </trkpt>
      <trkpt lat="42.319374" lon="1.894652">
        <ele>2502.7</ele>
        <time>1970-01-01T01:58:27.000Z</time>
      </trkpt>
      <trkpt lat="42.31937" lon="1.894631">
        <ele>2503</ele>
        <time>1970-01-01T01:58:28.000Z</time>
      </trkpt>
      <trkpt lat="42.31937" lon="1.894608">
        <ele>2503.2</ele>
        <time>1970-01-01T01:58:29.000Z</time>
      </trkpt>
      <trkpt lat="42.31937" lon="1.894584">
        <ele>2503.5</ele>
        <time>1970-01-01T01:58:30.000Z</time>
      </trkpt>
      <trkpt lat="42.319366" lon="1.894562">
        <ele>2503.7</ele>
        <time>1970-01-01T01:58:31.000Z</time>
      </trkpt>
      <trkpt lat="42.319366" lon="1.894541">
        <ele>2504</ele>
        <time>1970-01-01T01:58:32.000Z</time>
      </trkpt>
      <trkpt lat="42.319366" lon="1.89452">
        <ele>2504.2</ele>
        <time>1970-01-01T01:58:33.000Z</time>
      </trkpt>
      <trkpt lat="42.319363" lon="1.894497">
        <ele>2504.4</ele>
        <time>1970-01-01T01:58:34.000Z</time>
      </trkpt>
      <trkpt lat="42.319363" lon="1.894472">
        <ele>2504.7</ele>
        <time>1970-01-01T01:58:35.000Z</time>
      </trkpt>
      <trkpt lat="42.319359" lon="1.894448">
        <ele>2505</ele>
        <time>1970-01-01T01:58:36.000Z</time>
      </trkpt>
      <trkpt lat="42.319355" lon="1.894424">
        <ele>2505.2</ele>
        <time>1970-01-01T01:58:37.000Z</time>
      </trkpt>
      <trkpt lat="42.319355" lon="1.894404">
        <ele>2505.5</ele>
        <time>1970-01-01T01:58:38.000Z</time>
      </trkpt>
      <trkpt lat="42.319351" lon="1.894382">
        <ele>2505.7</ele>
        <time>1970-01-01T01:58:39.000Z</time>
      </trkpt>
      <trkpt lat="42.319351" lon="1.894357">
        <ele>2506</ele>
        <time>1970-01-01T01:58:40.000Z</time>
      </trkpt>
      <trkpt lat="42.319351" lon="1.894335">
        <ele>2506.2</ele>
        <time>1970-01-01T01:58:41.000Z</time>
      </trkpt>
      <trkpt lat="42.319347" lon="1.894311">
        <ele>2506.5</ele>
        <time>1970-01-01T01:58:42.000Z</time>
      </trkpt>
      <trkpt lat="42.319344" lon="1.894287">
        <ele>2506.7</ele>
        <time>1970-01-01T01:58:43.000Z</time>
      </trkpt>
      <trkpt lat="42.319336" lon="1.894265">
        <ele>2507</ele>
        <time>1970-01-01T01:58:44.000Z</time>
      </trkpt>
      <trkpt lat="42.319328" lon="1.894245">
        <ele>2507.3</ele>
        <time>1970-01-01T01:58:45.000Z</time>
      </trkpt>
      <trkpt lat="42.319321" lon="1.894228">
        <ele>2507.5</ele>
        <time>1970-01-01T01:58:46.000Z</time>
      </trkpt>
      <trkpt lat="42.319309" lon="1.89421">
        <ele>2507.7</ele>
        <time>1970-01-01T01:58:47.000Z</time>
      </trkpt>
      <trkpt lat="42.319305" lon="1.894193">
        <ele>2507.9</ele>
        <time>1970-01-01T01:58:48.000Z</time>
      </trkpt>
      <trkpt lat="42.319309" lon="1.894175">
        <ele>2508.1</ele>
        <time>1970-01-01T01:58:49.000Z</time>
      </trkpt>
      <trkpt lat="42.319305" lon="1.894155">
        <ele>2508.4</ele>
        <time>1970-01-01T01:58:50.000Z</time>
      </trkpt>
      <trkpt lat="42.319305" lon="1.894134">
        <ele>2508.6</ele>
        <time>1970-01-01T01:58:51.000Z</time>
      </trkpt>
      <trkpt lat="42.319305" lon="1.894115">
        <ele>2508.8</ele>
        <time>1970-01-01T01:58:52.000Z</time>
      </trkpt>
      <trkpt lat="42.319317" lon="1.894098">
        <ele>2509</ele>
        <time>1970-01-01T01:58:53.000Z</time>
      </trkpt>
      <trkpt lat="42.319324" lon="1.894082">
        <ele>2509.2</ele>
        <time>1970-01-01T01:58:54.000Z</time>
      </trkpt>
      <trkpt lat="42.319332" lon="1.894065">
        <ele>2509.5</ele>
        <time>1970-01-01T01:58:55.000Z</time>
      </trkpt>
      <trkpt lat="42.31934" lon="1.894045">
        <ele>2509.7</ele>
        <time>1970-01-01T01:58:56.000Z</time>
      </trkpt>
      <trkpt lat="42.319351" lon="1.894025">
        <ele>2510</ele>
        <time>1970-01-01T01:58:57.000Z</time>
      </trkpt>
      <trkpt lat="42.319355" lon="1.894005">
        <ele>2510.2</ele>
        <time>1970-01-01T01:58:58.000Z</time>
      </trkpt>
      <trkpt lat="42.319366" lon="1.893986">
        <ele>2510.5</ele>
        <time>1970-01-01T01:58:59.000Z</time>
      </trkpt>
      <trkpt lat="42.319374" lon="1.89397">
        <ele>2510.7</ele>
        <time>1970-01-01T01:59:00.000Z</time>
      </trkpt>
      <trkpt lat="42.319386" lon="1.893952">
        <ele>2510.9</ele>
        <time>1970-01-01T01:59:01.000Z</time>
      </trkpt>
      <trkpt lat="42.319397" lon="1.893932">
        <ele>2511.2</ele>
        <time>1970-01-01T01:59:02.000Z</time>
      </trkpt>
      <trkpt lat="42.319412" lon="1.893906">
        <ele>2511.6</ele>
        <time>1970-01-01T01:59:03.000Z</time>
      </trkpt>
      <trkpt lat="42.319424" lon="1.893882">
        <ele>2511.9</ele>
        <time>1970-01-01T01:59:04.000Z</time>
      </trkpt>
      <trkpt lat="42.319435" lon="1.89386">
        <ele>2512.2</ele>
        <time>1970-01-01T01:59:05.000Z</time>
      </trkpt>
      <trkpt lat="42.319443" lon="1.893838">
        <ele>2512.4</ele>
        <time>1970-01-01T01:59:06.000Z</time>
      </trkpt>
      <trkpt lat="42.31945" lon="1.89382">
        <ele>2512.6</ele>
        <time>1970-01-01T01:59:07.000Z</time>
      </trkpt>
      <trkpt lat="42.319462" lon="1.893803">
        <ele>2513.1</ele>
        <time>1970-01-01T01:59:08.000Z</time>
      </trkpt>
      <trkpt lat="42.319473" lon="1.893787">
        <ele>2513.4</ele>
        <time>1970-01-01T01:59:09.000Z</time>
      </trkpt>
      <trkpt lat="42.319488" lon="1.893771">
        <ele>2513.7</ele>
        <time>1970-01-01T01:59:10.000Z</time>
      </trkpt>
      <trkpt lat="42.319508" lon="1.893755">
        <ele>2514.1</ele>
        <time>1970-01-01T01:59:11.000Z</time>
      </trkpt>
      <trkpt lat="42.319523" lon="1.893738">
        <ele>2514.4</ele>
        <time>1970-01-01T01:59:12.000Z</time>
      </trkpt>
      <trkpt lat="42.319538" lon="1.893718">
        <ele>2514.8</ele>
        <time>1970-01-01T01:59:13.000Z</time>
      </trkpt>
      <trkpt lat="42.319557" lon="1.893704">
        <ele>2515.1</ele>
        <time>1970-01-01T01:59:14.000Z</time>
      </trkpt>
      <trkpt lat="42.319572" lon="1.893693">
        <ele>2515.4</ele>
        <time>1970-01-01T01:59:15.000Z</time>
      </trkpt>
      <trkpt lat="42.319588" lon="1.89368">
        <ele>2515.7</ele>
        <time>1970-01-01T01:59:16.000Z</time>
      </trkpt>
      <trkpt lat="42.319603" lon="1.893663">
        <ele>2516</ele>
        <time>1970-01-01T01:59:17.000Z</time>
      </trkpt>
      <trkpt lat="42.319614" lon="1.893642">
        <ele>2516.3</ele>
        <time>1970-01-01T01:59:18.000Z</time>
      </trkpt>
      <trkpt lat="42.319622" lon="1.893617">
        <ele>2516.6</ele>
        <time>1970-01-01T01:59:19.000Z</time>
      </trkpt>
      <trkpt lat="42.31963" lon="1.893592">
        <ele>2516.8</ele>
        <time>1970-01-01T01:59:20.000Z</time>
      </trkpt>
      <trkpt lat="42.319633" lon="1.893567">
        <ele>2517.1</ele>
        <time>1970-01-01T01:59:21.000Z</time>
      </trkpt>
      <trkpt lat="42.319633" lon="1.893547">
        <ele>2517.3</ele>
        <time>1970-01-01T01:59:22.000Z</time>
      </trkpt>
      <trkpt lat="42.319633" lon="1.893528">
        <ele>2517.4</ele>
        <time>1970-01-01T01:59:23.000Z</time>
      </trkpt>
      <trkpt lat="42.319633" lon="1.893514">
        <ele>2517.5</ele>
        <time>1970-01-01T01:59:24.000Z</time>
      </trkpt>
      <trkpt lat="42.319633" lon="1.893503">
        <ele>2517.6</ele>
        <time>1970-01-01T01:59:25.000Z</time>
      </trkpt>
      <trkpt lat="42.31963" lon="1.893493">
        <ele>2517.5</ele>
        <time>1970-01-01T01:59:26.000Z</time>
      </trkpt>
      <trkpt lat="42.319626" lon="1.893486">
        <ele>2517.5</ele>
        <time>1970-01-01T01:59:27.000Z</time>
      </trkpt>
      <trkpt lat="42.319622" lon="1.893479">
        <ele>2517.4</ele>
        <time>1970-01-01T01:59:28.000Z</time>
      </trkpt>
      <trkpt lat="42.319622" lon="1.893474">
        <ele>2517.4</ele>
        <time>1970-01-01T01:59:29.000Z</time>
      </trkpt>
      <trkpt lat="42.319622" lon="1.893471">
        <ele>2517.3</ele>
        <time>1970-01-01T01:59:30.000Z</time>
      </trkpt>
      <trkpt lat="42.319622" lon="1.893469">
        <ele>2517.3</ele>
        <time>1970-01-01T01:59:31.000Z</time>
      </trkpt>
      <trkpt lat="42.319618" lon="1.893471">
        <ele>2517.3</ele>
        <time>1970-01-01T02:15:26.000Z</time>
      </trkpt>
      <trkpt lat="42.319626" lon="1.893483">
        <ele>2517.2</ele>
        <time>1970-01-01T02:15:27.000Z</time>
      </trkpt>
      <trkpt lat="42.319633" lon="1.893495">
        <ele>2517.1</ele>
        <time>1970-01-01T02:15:28.000Z</time>
      </trkpt>
      <trkpt lat="42.319637" lon="1.893508">
        <ele>2517</ele>
        <time>1970-01-01T02:15:29.000Z</time>
      </trkpt>
      <trkpt lat="42.319645" lon="1.893514">
        <ele>2516.9</ele>
        <time>1970-01-01T02:15:30.000Z</time>
      </trkpt>
      <trkpt lat="42.319649" lon="1.89352">
        <ele>2516.8</ele>
        <time>1970-01-01T02:15:31.000Z</time>
      </trkpt>
      <trkpt lat="42.319656" lon="1.893527">
        <ele>2516.8</ele>
        <time>1970-01-01T02:15:32.000Z</time>
      </trkpt>
      <trkpt lat="42.31966" lon="1.89353">
        <ele>2516.7</ele>
        <time>1970-01-01T02:15:33.000Z</time>
      </trkpt>
      <trkpt lat="42.31966" lon="1.893554">
        <ele>2516.5</ele>
        <time>1970-01-01T02:15:34.000Z</time>
      </trkpt>
      <trkpt lat="42.319656" lon="1.893576">
        <ele>2516.4</ele>
        <time>1970-01-01T02:15:35.000Z</time>
      </trkpt>
      <trkpt lat="42.319649" lon="1.893601">
        <ele>2516.1</ele>
        <time>1970-01-01T02:15:36.000Z</time>
      </trkpt>
      <trkpt lat="42.31963" lon="1.893636">
        <ele>2515.8</ele>
        <time>1970-01-01T02:15:37.000Z</time>
      </trkpt>
      <trkpt lat="42.319611" lon="1.893663">
        <ele>2515.4</ele>
        <time>1970-01-01T02:15:38.000Z</time>
      </trkpt>
      <trkpt lat="42.319588" lon="1.893685">
        <ele>2515.1</ele>
        <time>1970-01-01T02:15:39.000Z</time>
      </trkpt>
      <trkpt lat="42.319565" lon="1.893711">
        <ele>2514.7</ele>
        <time>1970-01-01T02:15:40.000Z</time>
      </trkpt>
      <trkpt lat="42.319542" lon="1.893737">
        <ele>2514.3</ele>
        <time>1970-01-01T02:15:41.000Z</time>
      </trkpt>
      <trkpt lat="42.319523" lon="1.893758">
        <ele>2514</ele>
        <time>1970-01-01T02:15:42.000Z</time>
      </trkpt>
      <trkpt lat="42.3195" lon="1.893774">
        <ele>2513.7</ele>
        <time>1970-01-01T02:15:43.000Z</time>
      </trkpt>
      <trkpt lat="42.319477" lon="1.893794">
        <ele>2513.4</ele>
        <time>1970-01-01T02:15:44.000Z</time>
      </trkpt>
      <trkpt lat="42.319458" lon="1.893826">
        <ele>2512.6</ele>
        <time>1970-01-01T02:15:45.000Z</time>
      </trkpt>
      <trkpt lat="42.319443" lon="1.893868">
        <ele>2512.1</ele>
        <time>1970-01-01T02:15:46.000Z</time>
      </trkpt>
      <trkpt lat="42.319427" lon="1.893917">
        <ele>2511.5</ele>
        <time>1970-01-01T02:15:47.000Z</time>
      </trkpt>
      <trkpt lat="42.319412" lon="1.893974">
        <ele>2510.8</ele>
        <time>1970-01-01T02:15:48.000Z</time>
      </trkpt>
      <trkpt lat="42.319386" lon="1.894035">
        <ele>2510</ele>
        <time>1970-01-01T02:15:49.000Z</time>
      </trkpt>
      <trkpt lat="42.319363" lon="1.894097">
        <ele>2509.3</ele>
        <time>1970-01-01T02:15:50.000Z</time>
      </trkpt>
      <trkpt lat="42.31934" lon="1.894165">
        <ele>2508.4</ele>
        <time>1970-01-01T02:15:51.000Z</time>
      </trkpt>
      <trkpt lat="42.319332" lon="1.894234">
        <ele>2507.6</ele>
        <time>1970-01-01T02:15:52.000Z</time>
      </trkpt>
      <trkpt lat="42.319332" lon="1.894304">
        <ele>2506.9</ele>
        <time>1970-01-01T02:15:53.000Z</time>
      </trkpt>
      <trkpt lat="42.31934" lon="1.894377">
        <ele>2506</ele>
        <time>1970-01-01T02:15:54.000Z</time>
      </trkpt>
      <trkpt lat="42.319351" lon="1.89445">
        <ele>2505.2</ele>
        <time>1970-01-01T02:15:55.000Z</time>
      </trkpt>
      <trkpt lat="42.319366" lon="1.894526">
        <ele>2504.3</ele>
        <time>1970-01-01T02:15:56.000Z</time>
      </trkpt>
      <trkpt lat="42.319386" lon="1.894592">
        <ele>2503.5</ele>
        <time>1970-01-01T02:15:57.000Z</time>
      </trkpt>
      <trkpt lat="42.319405" lon="1.894645">
        <ele>2502.9</ele>
        <time>1970-01-01T02:15:58.000Z</time>
      </trkpt>
      <trkpt lat="42.31942" lon="1.894684">
        <ele>2502.4</ele>
        <time>1970-01-01T02:15:59.000Z</time>
      </trkpt>
      <trkpt lat="42.319454" lon="1.894738">
        <ele>2501.6</ele>
        <time>1970-01-01T02:16:00.000Z</time>
      </trkpt>
      <trkpt lat="42.319488" lon="1.894785">
        <ele>2500.9</ele>
        <time>1970-01-01T02:16:01.000Z</time>
      </trkpt>
      <trkpt lat="42.319527" lon="1.894838">
        <ele>2500</ele>
        <time>1970-01-01T02:16:02.000Z</time>
      </trkpt>
      <trkpt lat="42.319561" lon="1.894893">
        <ele>2499.2</ele>
        <time>1970-01-01T02:16:03.000Z</time>
      </trkpt>
      <trkpt lat="42.319603" lon="1.894943">
        <ele>2498.4</ele>
        <time>1970-01-01T02:16:04.000Z</time>
      </trkpt>
      <trkpt lat="42.319641" lon="1.894988">
        <ele>2497.6</ele>
        <time>1970-01-01T02:16:05.000Z</time>
      </trkpt>
      <trkpt lat="42.319683" lon="1.89504">
        <ele>2496.8</ele>
        <time>1970-01-01T02:16:06.000Z</time>
      </trkpt>
      <trkpt lat="42.319725" lon="1.895093">
        <ele>2495.9</ele>
        <time>1970-01-01T02:16:07.000Z</time>
      </trkpt>
      <trkpt lat="42.319767" lon="1.895142">
        <ele>2495.1</ele>
        <time>1970-01-01T02:16:08.000Z</time>
      </trkpt>
      <trkpt lat="42.319813" lon="1.895201">
        <ele>2494.1</ele>
        <time>1970-01-01T02:16:09.000Z</time>
      </trkpt>
      <trkpt lat="42.319862" lon="1.895267">
        <ele>2493.1</ele>
        <time>1970-01-01T02:16:10.000Z</time>
      </trkpt>
      <trkpt lat="42.319912" lon="1.895336">
        <ele>2492</ele>
        <time>1970-01-01T02:16:11.000Z</time>
      </trkpt>
      <trkpt lat="42.319965" lon="1.895409">
        <ele>2490.9</ele>
        <time>1970-01-01T02:16:12.000Z</time>
      </trkpt>
      <trkpt lat="42.320015" lon="1.895482">
        <ele>2489.7</ele>
        <time>1970-01-01T02:16:13.000Z</time>
      </trkpt>
      <trkpt lat="42.320065" lon="1.895553">
        <ele>2488.6</ele>
        <time>1970-01-01T02:16:14.000Z</time>
      </trkpt>
      <trkpt lat="42.320114" lon="1.895624">
        <ele>2487.6</ele>
        <time>1970-01-01T02:16:15.000Z</time>
      </trkpt>
      <trkpt lat="42.320171" lon="1.895716">
        <ele>2486.2</ele>
        <time>1970-01-01T02:16:16.000Z</time>
      </trkpt>
      <trkpt lat="42.320225" lon="1.895813">
        <ele>2484.9</ele>
        <time>1970-01-01T02:16:17.000Z</time>
      </trkpt>
      <trkpt lat="42.320286" lon="1.89591">
        <ele>2483.5</ele>
        <time>1970-01-01T02:16:18.000Z</time>
      </trkpt>
      <trkpt lat="42.320347" lon="1.896002">
        <ele>2482.1</ele>
        <time>1970-01-01T02:16:19.000Z</time>
      </trkpt>
      <trkpt lat="42.320404" lon="1.896088">
        <ele>2480.8</ele>
        <time>1970-01-01T02:16:20.000Z</time>
      </trkpt>
      <trkpt lat="42.320461" lon="1.896171">
        <ele>2479.5</ele>
        <time>1970-01-01T02:16:21.000Z</time>
      </trkpt>
      <trkpt lat="42.320522" lon="1.896249">
        <ele>2478.3</ele>
        <time>1970-01-01T02:16:22.000Z</time>
      </trkpt>
      <trkpt lat="42.320587" lon="1.896326">
        <ele>2477</ele>
        <time>1970-01-01T02:16:23.000Z</time>
      </trkpt>
      <trkpt lat="42.320644" lon="1.896407">
        <ele>2475.7</ele>
        <time>1970-01-01T02:16:24.000Z</time>
      </trkpt>
      <trkpt lat="42.320694" lon="1.896491">
        <ele>2474.5</ele>
        <time>1970-01-01T02:16:25.000Z</time>
      </trkpt>
      <trkpt lat="42.32074" lon="1.896576">
        <ele>2473.3</ele>
        <time>1970-01-01T02:16:26.000Z</time>
      </trkpt>
      <trkpt lat="42.320778" lon="1.896665">
        <ele>2472.2</ele>
        <time>1970-01-01T02:16:27.000Z</time>
      </trkpt>
      <trkpt lat="42.320812" lon="1.89675">
        <ele>2471.1</ele>
        <time>1970-01-01T02:16:28.000Z</time>
      </trkpt>
      <trkpt lat="42.320843" lon="1.896825">
        <ele>2470.2</ele>
        <time>1970-01-01T02:16:29.000Z</time>
      </trkpt>
      <trkpt lat="42.320877" lon="1.896886">
        <ele>2469.3</ele>
        <time>1970-01-01T02:16:30.000Z</time>
      </trkpt>
      <trkpt lat="42.320904" lon="1.896937">
        <ele>2468.6</ele>
        <time>1970-01-01T02:16:31.000Z</time>
      </trkpt>
      <trkpt lat="42.320938" lon="1.897002">
        <ele>2467.7</ele>
        <time>1970-01-01T02:16:32.000Z</time>
      </trkpt>
      <trkpt lat="42.320969" lon="1.897078">
        <ele>2466.7</ele>
        <time>1970-01-01T02:16:33.000Z</time>
      </trkpt>
      <trkpt lat="42.321007" lon="1.897166">
        <ele>2465.6</ele>
        <time>1970-01-01T02:16:34.000Z</time>
      </trkpt>
      <trkpt lat="42.321045" lon="1.897261">
        <ele>2464.4</ele>
        <time>1970-01-01T02:16:35.000Z</time>
      </trkpt>
      <trkpt lat="42.321087" lon="1.897352">
        <ele>2463.2</ele>
        <time>1970-01-01T02:16:36.000Z</time>
      </trkpt>
      <trkpt lat="42.321129" lon="1.897439">
        <ele>2462.1</ele>
        <time>1970-01-01T02:16:37.000Z</time>
      </trkpt>
      <trkpt lat="42.321167" lon="1.897521">
        <ele>2461</ele>
        <time>1970-01-01T02:16:38.000Z</time>
      </trkpt>
      <trkpt lat="42.321209" lon="1.89761">
        <ele>2459.8</ele>
        <time>1970-01-01T02:16:39.000Z</time>
      </trkpt>
      <trkpt lat="42.321247" lon="1.897707">
        <ele>2458.6</ele>
        <time>1970-01-01T02:16:40.000Z</time>
      </trkpt>
      <trkpt lat="42.321274" lon="1.897807">
        <ele>2457.4</ele>
        <time>1970-01-01T02:16:41.000Z</time>
      </trkpt>
      <trkpt lat="42.321297" lon="1.897922">
        <ele>2456.1</ele>
        <time>1970-01-01T02:16:42.000Z</time>
      </trkpt>
      <trkpt lat="42.321323" lon="1.898037">
        <ele>2454.7</ele>
        <time>1970-01-01T02:16:43.000Z</time>
      </trkpt>
      <trkpt lat="42.321346" lon="1.898151">
        <ele>2453.4</ele>
        <time>1970-01-01T02:16:44.000Z</time>
      </trkpt>
      <trkpt lat="42.321365" lon="1.898251">
        <ele>2452.2</ele>
        <time>1970-01-01T02:16:45.000Z</time>
      </trkpt>
      <trkpt lat="42.321377" lon="1.898336">
        <ele>2451.3</ele>
        <time>1970-01-01T02:16:46.000Z</time>
      </trkpt>
      <trkpt lat="42.321384" lon="1.898418">
        <ele>2450.4</ele>
        <time>1970-01-01T02:16:47.000Z</time>
      </trkpt>
      <trkpt lat="42.3214" lon="1.898499">
        <ele>2449.4</ele>
        <time>1970-01-01T02:16:48.000Z</time>
      </trkpt>
      <trkpt lat="42.321415" lon="1.898582">
        <ele>2448.5</ele>
        <time>1970-01-01T02:16:49.000Z</time>
      </trkpt>
      <trkpt lat="42.321445" lon="1.898673">
        <ele>2447.4</ele>
        <time>1970-01-01T02:16:50.000Z</time>
      </trkpt>
      <trkpt lat="42.321476" lon="1.898773">
        <ele>2446.2</ele>
        <time>1970-01-01T02:16:51.000Z</time>
      </trkpt>
      <trkpt lat="42.321503" lon="1.89887">
        <ele>2445</ele>
        <time>1970-01-01T02:16:52.000Z</time>
      </trkpt>
      <trkpt lat="42.321533" lon="1.898959">
        <ele>2443.9</ele>
        <time>1970-01-01T02:16:53.000Z</time>
      </trkpt>
      <trkpt lat="42.321568" lon="1.899043">
        <ele>2442.8</ele>
        <time>1970-01-01T02:16:54.000Z</time>
      </trkpt>
      <trkpt lat="42.32161" lon="1.899132">
        <ele>2441.7</ele>
        <time>1970-01-01T02:16:55.000Z</time>
      </trkpt>
      <trkpt lat="42.321651" lon="1.899232">
        <ele>2440.4</ele>
        <time>1970-01-01T02:16:56.000Z</time>
      </trkpt>
      <trkpt lat="42.321686" lon="1.899333">
        <ele>2439.1</ele>
        <time>1970-01-01T02:16:57.000Z</time>
      </trkpt>
      <trkpt lat="42.321728" lon="1.899439">
        <ele>2437.8</ele>
        <time>1970-01-01T02:16:58.000Z</time>
      </trkpt>
      <trkpt lat="42.321754" lon="1.899547">
        <ele>2436.5</ele>
        <time>1970-01-01T02:16:59.000Z</time>
      </trkpt>
      <trkpt lat="42.321777" lon="1.899649">
        <ele>2435.3</ele>
        <time>1970-01-01T02:17:00.000Z</time>
      </trkpt>
      <trkpt lat="42.321808" lon="1.899743">
        <ele>2434.2</ele>
        <time>1970-01-01T02:17:01.000Z</time>
      </trkpt>
      <trkpt lat="42.321838" lon="1.899837">
        <ele>2433.1</ele>
        <time>1970-01-01T02:17:02.000Z</time>
      </trkpt>
      <trkpt lat="42.321869" lon="1.899939">
        <ele>2431.8</ele>
        <time>1970-01-01T02:17:03.000Z</time>
      </trkpt>
      <trkpt lat="42.321896" lon="1.900048">
        <ele>2430.5</ele>
        <time>1970-01-01T02:17:04.000Z</time>
      </trkpt>
      <trkpt lat="42.321922" lon="1.900155">
        <ele>2429.3</ele>
        <time>1970-01-01T02:17:05.000Z</time>
      </trkpt>
      <trkpt lat="42.321953" lon="1.900258">
        <ele>2428</ele>
        <time>1970-01-01T02:17:06.000Z</time>
      </trkpt>
      <trkpt lat="42.321983" lon="1.900351">
        <ele>2426.9</ele>
        <time>1970-01-01T02:17:07.000Z</time>
      </trkpt>
      <trkpt lat="42.322014" lon="1.900436">
        <ele>2425.9</ele>
        <time>1970-01-01T02:17:08.000Z</time>
      </trkpt>
      <trkpt lat="42.322041" lon="1.900514">
        <ele>2424.9</ele>
        <time>1970-01-01T02:17:09.000Z</time>
      </trkpt>
      <trkpt lat="42.322071" lon="1.900592">
        <ele>2423.9</ele>
        <time>1970-01-01T02:17:10.000Z</time>
      </trkpt>
      <trkpt lat="42.322102" lon="1.900667">
        <ele>2423</ele>
        <time>1970-01-01T02:17:11.000Z</time>
      </trkpt>
      <trkpt lat="42.322136" lon="1.900736">
        <ele>2422</ele>
        <time>1970-01-01T02:17:12.000Z</time>
      </trkpt>
      <trkpt lat="42.322178" lon="1.900804">
        <ele>2421</ele>
        <time>1970-01-01T02:17:13.000Z</time>
      </trkpt>
      <trkpt lat="42.322224" lon="1.900864">
        <ele>2420.1</ele>
        <time>1970-01-01T02:17:14.000Z</time>
      </trkpt>
      <trkpt lat="42.322273" lon="1.900917">
        <ele>2419.1</ele>
        <time>1970-01-01T02:17:15.000Z</time>
      </trkpt>
      <trkpt lat="42.32233" lon="1.900964">
        <ele>2418.1</ele>
        <time>1970-01-01T02:17:16.000Z</time>
      </trkpt>
      <trkpt lat="42.322384" lon="1.900999">
        <ele>2417.2</ele>
        <time>1970-01-01T02:17:17.000Z</time>
      </trkpt>
      <trkpt lat="42.322437" lon="1.90102">
        <ele>2416.4</ele>
        <time>1970-01-01T02:17:18.000Z</time>
      </trkpt>
      <trkpt lat="42.322498" lon="1.901038">
        <ele>2415.5</ele>
        <time>1970-01-01T02:17:19.000Z</time>
      </trkpt>
      <trkpt lat="42.322548" lon="1.901059">
        <ele>2414.7</ele>
        <time>1970-01-01T02:17:20.000Z</time>
      </trkpt>
      <trkpt lat="42.32259" lon="1.901078">
        <ele>2414</ele>
        <time>1970-01-01T02:17:21.000Z</time>
      </trkpt>
      <trkpt lat="42.32262" lon="1.901093">
        <ele>2413.5</ele>
        <time>1970-01-01T02:17:22.000Z</time>
      </trkpt>
      <trkpt lat="42.322651" lon="1.901104">
        <ele>2413</ele>
        <time>1970-01-01T02:17:23.000Z</time>
      </trkpt>
      <trkpt lat="42.322681" lon="1.901114">
        <ele>2412.6</ele>
        <time>1970-01-01T02:17:24.000Z</time>
      </trkpt>
      <trkpt lat="42.322716" lon="1.901125">
        <ele>2412</ele>
        <time>1970-01-01T02:17:25.000Z</time>
      </trkpt>
      <trkpt lat="42.32275" lon="1.901137">
        <ele>2411.5</ele>
        <time>1970-01-01T02:17:26.000Z</time>
      </trkpt>
      <trkpt lat="42.322792" lon="1.901148">
        <ele>2410.9</ele>
        <time>1970-01-01T02:17:27.000Z</time>
      </trkpt>
      <trkpt lat="42.322826" lon="1.901162">
        <ele>2410.3</ele>
        <time>1970-01-01T02:17:28.000Z</time>
      </trkpt>
      <trkpt lat="42.322872" lon="1.901175">
        <ele>2409.6</ele>
        <time>1970-01-01T02:17:29.000Z</time>
      </trkpt>
      <trkpt lat="42.322918" lon="1.901188">
        <ele>2408.9</ele>
        <time>1970-01-01T02:17:30.000Z</time>
      </trkpt>
      <trkpt lat="42.32296" lon="1.9012">
        <ele>2408.2</ele>
        <time>1970-01-01T02:17:31.000Z</time>
      </trkpt>
      <trkpt lat="42.323002" lon="1.901207">
        <ele>2407.6</ele>
        <time>1970-01-01T02:17:32.000Z</time>
      </trkpt>
      <trkpt lat="42.323044" lon="1.90121">
        <ele>2407</ele>
        <time>1970-01-01T02:17:33.000Z</time>
      </trkpt>
      <trkpt lat="42.323093" lon="1.901204">
        <ele>2406.2</ele>
        <time>1970-01-01T02:17:34.000Z</time>
      </trkpt>
      <trkpt lat="42.323143" lon="1.901186">
        <ele>2405.5</ele>
        <time>1970-01-01T02:17:35.000Z</time>
      </trkpt>
      <trkpt lat="42.323193" lon="1.901159">
        <ele>2404.6</ele>
        <time>1970-01-01T02:17:36.000Z</time>
      </trkpt>
      <trkpt lat="42.323231" lon="1.90113">
        <ele>2404</ele>
        <time>1970-01-01T02:17:37.000Z</time>
      </trkpt>
      <trkpt lat="42.323261" lon="1.901093">
        <ele>2403.4</ele>
        <time>1970-01-01T02:17:38.000Z</time>
      </trkpt>
      <trkpt lat="42.323292" lon="1.901054">
        <ele>2402.7</ele>
        <time>1970-01-01T02:17:39.000Z</time>
      </trkpt>
      <trkpt lat="42.323326" lon="1.901019">
        <ele>2402.1</ele>
        <time>1970-01-01T02:17:40.000Z</time>
      </trkpt>
      <trkpt lat="42.323364" lon="1.901005">
        <ele>2401.2</ele>
        <time>1970-01-01T02:17:41.000Z</time>
      </trkpt>
      <trkpt lat="42.323402" lon="1.901008">
        <ele>2400.7</ele>
        <time>1970-01-01T02:17:42.000Z</time>
      </trkpt>
      <trkpt lat="42.323425" lon="1.901025">
        <ele>2400.4</ele>
        <time>1970-01-01T02:17:43.000Z</time>
      </trkpt>
      <trkpt lat="42.323441" lon="1.901065">
        <ele>2400.1</ele>
        <time>1970-01-01T02:17:44.000Z</time>
      </trkpt>
      <trkpt lat="42.323448" lon="1.901115">
        <ele>2399.7</ele>
        <time>1970-01-01T02:17:45.000Z</time>
      </trkpt>
      <trkpt lat="42.323448" lon="1.901177">
        <ele>2399.2</ele>
        <time>1970-01-01T02:17:46.000Z</time>
      </trkpt>
      <trkpt lat="42.323456" lon="1.901247">
        <ele>2398.7</ele>
        <time>1970-01-01T02:17:47.000Z</time>
      </trkpt>
      <trkpt lat="42.32346" lon="1.901328">
        <ele>2398.1</ele>
        <time>1970-01-01T02:17:48.000Z</time>
      </trkpt>
      <trkpt lat="42.323463" lon="1.901414">
        <ele>2397.5</ele>
        <time>1970-01-01T02:17:49.000Z</time>
      </trkpt>
      <trkpt lat="42.323463" lon="1.901506">
        <ele>2396.9</ele>
        <time>1970-01-01T02:17:50.000Z</time>
      </trkpt>
      <trkpt lat="42.323463" lon="1.901603">
        <ele>2396.1</ele>
        <time>1970-01-01T02:17:51.000Z</time>
      </trkpt>
      <trkpt lat="42.323471" lon="1.901699">
        <ele>2395.3</ele>
        <time>1970-01-01T02:17:52.000Z</time>
      </trkpt>
      <trkpt lat="42.323479" lon="1.901783">
        <ele>2394.5</ele>
        <time>1970-01-01T02:17:53.000Z</time>
      </trkpt>
      <trkpt lat="42.32349" lon="1.901877">
        <ele>2393.6</ele>
        <time>1970-01-01T02:17:54.000Z</time>
      </trkpt>
      <trkpt lat="42.323513" lon="1.901972">
        <ele>2392.6</ele>
        <time>1970-01-01T02:17:55.000Z</time>
      </trkpt>
      <trkpt lat="42.323536" lon="1.902075">
        <ele>2391.6</ele>
        <time>1970-01-01T02:17:56.000Z</time>
      </trkpt>
      <trkpt lat="42.323559" lon="1.902178">
        <ele>2390.5</ele>
        <time>1970-01-01T02:17:57.000Z</time>
      </trkpt>
      <trkpt lat="42.323578" lon="1.90229">
        <ele>2389.5</ele>
        <time>1970-01-01T02:17:58.000Z</time>
      </trkpt>
      <trkpt lat="42.323597" lon="1.9024">
        <ele>2388.5</ele>
        <time>1970-01-01T02:17:59.000Z</time>
      </trkpt>
      <trkpt lat="42.323608" lon="1.902508">
        <ele>2387.5</ele>
        <time>1970-01-01T02:18:00.000Z</time>
      </trkpt>
      <trkpt lat="42.323608" lon="1.902612">
        <ele>2386.1</ele>
        <time>1970-01-01T02:18:01.000Z</time>
      </trkpt>
      <trkpt lat="42.323608" lon="1.902696">
        <ele>2384.8</ele>
        <time>1970-01-01T02:18:02.000Z</time>
      </trkpt>
      <trkpt lat="42.323616" lon="1.902764">
        <ele>2383.7</ele>
        <time>1970-01-01T02:18:03.000Z</time>
      </trkpt>
      <trkpt lat="42.323624" lon="1.902821">
        <ele>2382.8</ele>
        <time>1970-01-01T02:18:04.000Z</time>
      </trkpt>
      <trkpt lat="42.323639" lon="1.902868">
        <ele>2382</ele>
        <time>1970-01-01T02:18:05.000Z</time>
      </trkpt>
      <trkpt lat="42.323666" lon="1.902902">
        <ele>2381.3</ele>
        <time>1970-01-01T02:18:06.000Z</time>
      </trkpt>
      <trkpt lat="42.323696" lon="1.902911">
        <ele>2380.7</ele>
        <time>1970-01-01T02:18:07.000Z</time>
      </trkpt>
      <trkpt lat="42.323723" lon="1.902903">
        <ele>2380.1</ele>
        <time>1970-01-01T02:18:08.000Z</time>
      </trkpt>
      <trkpt lat="42.323753" lon="1.902883">
        <ele>2379.5</ele>
        <time>1970-01-01T02:18:09.000Z</time>
      </trkpt>
      <trkpt lat="42.323788" lon="1.902857">
        <ele>2378.7</ele>
        <time>1970-01-01T02:18:10.000Z</time>
      </trkpt>
      <trkpt lat="42.323818" lon="1.902826">
        <ele>2377.9</ele>
        <time>1970-01-01T02:18:11.000Z</time>
      </trkpt>
      <trkpt lat="42.323845" lon="1.902789">
        <ele>2377</ele>
        <time>1970-01-01T02:18:12.000Z</time>
      </trkpt>
      <trkpt lat="42.323872" lon="1.902753">
        <ele>2376.1</ele>
        <time>1970-01-01T02:18:13.000Z</time>
      </trkpt>
      <trkpt lat="42.323906" lon="1.902727">
        <ele>2375.2</ele>
        <time>1970-01-01T02:18:14.000Z</time>
      </trkpt>
      <trkpt lat="42.323944" lon="1.902715">
        <ele>2374.2</ele>
        <time>1970-01-01T02:18:15.000Z</time>
      </trkpt>
      <trkpt lat="42.323982" lon="1.902722">
        <ele>2373.3</ele>
        <time>1970-01-01T02:18:16.000Z</time>
      </trkpt>
      <trkpt lat="42.324013" lon="1.902744">
        <ele>2372.5</ele>
        <time>1970-01-01T02:18:17.000Z</time>
      </trkpt>
      <trkpt lat="42.324047" lon="1.902772">
        <ele>2371.5</ele>
        <time>1970-01-01T02:18:18.000Z</time>
      </trkpt>
      <trkpt lat="42.324078" lon="1.902801">
        <ele>2370.7</ele>
        <time>1970-01-01T02:18:19.000Z</time>
      </trkpt>
      <trkpt lat="42.324112" lon="1.90284">
        <ele>2369.6</ele>
        <time>1970-01-01T02:18:20.000Z</time>
      </trkpt>
      <trkpt lat="42.324139" lon="1.902878">
        <ele>2368.7</ele>
        <time>1970-01-01T02:18:21.000Z</time>
      </trkpt>
      <trkpt lat="42.324162" lon="1.902917">
        <ele>2368</ele>
        <time>1970-01-01T02:18:22.000Z</time>
      </trkpt>
      <trkpt lat="42.324181" lon="1.902958">
        <ele>2367.2</ele>
        <time>1970-01-01T02:18:23.000Z</time>
      </trkpt>
      <trkpt lat="42.3242" lon="1.902993">
        <ele>2366.6</ele>
        <time>1970-01-01T02:18:24.000Z</time>
      </trkpt>
      <trkpt lat="42.324215" lon="1.903017">
        <ele>2366.1</ele>
        <time>1970-01-01T02:18:25.000Z</time>
      </trkpt>
      <trkpt lat="42.32423" lon="1.903032">
        <ele>2365.7</ele>
        <time>1970-01-01T02:18:26.000Z</time>
      </trkpt>
      <trkpt lat="42.324245" lon="1.903042">
        <ele>2365.4</ele>
        <time>1970-01-01T02:18:27.000Z</time>
      </trkpt>
      <trkpt lat="42.324257" lon="1.90305">
        <ele>2365.1</ele>
        <time>1970-01-01T02:18:28.000Z</time>
      </trkpt>
      <trkpt lat="42.324257" lon="1.903052">
        <ele>2365.1</ele>
        <time>1970-01-01T02:18:29.000Z</time>
      </trkpt>
      <trkpt lat="42.324257" lon="1.903052">
        <ele>2365.1</ele>
        <time>1970-01-01T02:18:30.000Z</time>
      </trkpt>
      <trkpt lat="42.324257" lon="1.903052">
        <ele>2365.1</ele>
        <time>1970-01-01T02:18:31.000Z</time>
      </trkpt>
      <trkpt lat="42.324257" lon="1.903052">
        <ele>2365.1</ele>
        <time>1970-01-01T02:18:32.000Z</time>
      </trkpt>
      <trkpt lat="42.324257" lon="1.903052">
        <ele>2365.1</ele>
        <time>1970-01-01T02:18:33.000Z</time>
      </trkpt>
      <trkpt lat="42.324257" lon="1.903052">
        <ele>2365.1</ele>
        <time>1970-01-01T02:18:34.000Z</time>
      </trkpt>
      <trkpt lat="42.324257" lon="1.903052">
        <ele>2365.1</ele>
        <time>1970-01-01T02:18:35.000Z</time>
      </trkpt>
      <trkpt lat="42.324257" lon="1.903052">
        <ele>2365.1</ele>
        <time>1970-01-01T02:18:36.000Z</time>
      </trkpt>
      <trkpt lat="42.324257" lon="1.903052">
        <ele>2365.1</ele>
        <time>1970-01-01T02:18:37.000Z</time>
      </trkpt>
      <trkpt lat="42.324268" lon="1.903096">
        <ele>2364.4</ele>
        <time>1970-01-01T02:18:38.000Z</time>
      </trkpt>
      <trkpt lat="42.324284" lon="1.903134">
        <ele>2363.9</ele>
        <time>1970-01-01T02:18:39.000Z</time>
      </trkpt>
      <trkpt lat="42.324303" lon="1.903173">
        <ele>2363.3</ele>
        <time>1970-01-01T02:18:40.000Z</time>
      </trkpt>
      <trkpt lat="42.324326" lon="1.903211">
        <ele>2362.7</ele>
        <time>1970-01-01T02:18:41.000Z</time>
      </trkpt>
      <trkpt lat="42.324356" lon="1.903237">
        <ele>2362.1</ele>
        <time>1970-01-01T02:18:42.000Z</time>
      </trkpt>
      <trkpt lat="42.324383" lon="1.90325">
        <ele>2361.7</ele>
        <time>1970-01-01T02:18:43.000Z</time>
      </trkpt>
      <trkpt lat="42.324413" lon="1.903247">
        <ele>2361.3</ele>
        <time>1970-01-01T02:18:44.000Z</time>
      </trkpt>
      <trkpt lat="42.324448" lon="1.903228">
        <ele>2360.8</ele>
        <time>1970-01-01T02:18:45.000Z</time>
      </trkpt>
      <trkpt lat="42.32449" lon="1.903189">
        <ele>2360.2</ele>
        <time>1970-01-01T02:18:46.000Z</time>
      </trkpt>
      <trkpt lat="42.324524" lon="1.903132">
        <ele>2359.5</ele>
        <time>1970-01-01T02:18:47.000Z</time>
      </trkpt>
      <trkpt lat="42.324554" lon="1.903061">
        <ele>2358.7</ele>
        <time>1970-01-01T02:18:48.000Z</time>
      </trkpt>
      <trkpt lat="42.324577" lon="1.902994">
        <ele>2357.9</ele>
        <time>1970-01-01T02:18:49.000Z</time>
      </trkpt>
      <trkpt lat="42.3246" lon="1.902925">
        <ele>2357.2</ele>
        <time>1970-01-01T02:18:50.000Z</time>
      </trkpt>
      <trkpt lat="42.324627" lon="1.902859">
        <ele>2356.5</ele>
        <time>1970-01-01T02:18:51.000Z</time>
      </trkpt>
      <trkpt lat="42.324661" lon="1.902806">
        <ele>2355.8</ele>
        <time>1970-01-01T02:18:52.000Z</time>
      </trkpt>
      <trkpt lat="42.324696" lon="1.902768">
        <ele>2355.1</ele>
        <time>1970-01-01T02:18:53.000Z</time>
      </trkpt>
      <trkpt lat="42.324738" lon="1.902733">
        <ele>2354.3</ele>
        <time>1970-01-01T02:18:54.000Z</time>
      </trkpt>
      <trkpt lat="42.324776" lon="1.902704">
        <ele>2353.4</ele>
        <time>1970-01-01T02:18:55.000Z</time>
      </trkpt>
      <trkpt lat="42.324818" lon="1.902688">
        <ele>2352.4</ele>
        <time>1970-01-01T02:18:56.000Z</time>
      </trkpt>
      <trkpt lat="42.32486" lon="1.902684">
        <ele>2351.4</ele>
        <time>1970-01-01T02:18:57.000Z</time>
      </trkpt>
      <trkpt lat="42.324905" lon="1.902689">
        <ele>2350.2</ele>
        <time>1970-01-01T02:18:58.000Z</time>
      </trkpt>
      <trkpt lat="42.324963" lon="1.9027">
        <ele>2348.7</ele>
        <time>1970-01-01T02:18:59.000Z</time>
      </trkpt>
      <trkpt lat="42.325028" lon="1.902719">
        <ele>2347.1</ele>
        <time>1970-01-01T02:19:00.000Z</time>
      </trkpt>
      <trkpt lat="42.325092" lon="1.902749">
        <ele>2345.7</ele>
        <time>1970-01-01T02:19:01.000Z</time>
      </trkpt>
      <trkpt lat="42.325153" lon="1.902793">
        <ele>2344.6</ele>
        <time>1970-01-01T02:19:02.000Z</time>
      </trkpt>
      <trkpt lat="42.325199" lon="1.902857">
        <ele>2344.1</ele>
        <time>1970-01-01T02:19:03.000Z</time>
      </trkpt>
      <trkpt lat="42.325233" lon="1.902944">
        <ele>2343.8</ele>
        <time>1970-01-01T02:19:04.000Z</time>
      </trkpt>
      <trkpt lat="42.325256" lon="1.903024">
        <ele>2343.6</ele>
        <time>1970-01-01T02:19:05.000Z</time>
      </trkpt>
      <trkpt lat="42.325272" lon="1.903101">
        <ele>2343.3</ele>
        <time>1970-01-01T02:19:06.000Z</time>
      </trkpt>
      <trkpt lat="42.325272" lon="1.903171">
        <ele>2342.9</ele>
        <time>1970-01-01T02:19:07.000Z</time>
      </trkpt>
      <trkpt lat="42.325268" lon="1.903234">
        <ele>2342.6</ele>
        <time>1970-01-01T02:19:08.000Z</time>
      </trkpt>
      <trkpt lat="42.32526" lon="1.903297">
        <ele>2342.6</ele>
        <time>1970-01-01T02:19:09.000Z</time>
      </trkpt>
      <trkpt lat="42.325256" lon="1.903344">
        <ele>2342.6</ele>
        <time>1970-01-01T02:19:10.000Z</time>
      </trkpt>
      <trkpt lat="42.32526" lon="1.903391">
        <ele>2342.6</ele>
        <time>1970-01-01T02:19:11.000Z</time>
      </trkpt>
      <trkpt lat="42.32526" lon="1.903436">
        <ele>2342.6</ele>
        <time>1970-01-01T02:19:12.000Z</time>
      </trkpt>
      <trkpt lat="42.325253" lon="1.903486">
        <ele>2342.5</ele>
        <time>1970-01-01T02:19:13.000Z</time>
      </trkpt>
      <trkpt lat="42.325249" lon="1.903528">
        <ele>2342.4</ele>
        <time>1970-01-01T02:19:14.000Z</time>
      </trkpt>
      <trkpt lat="42.325249" lon="1.903561">
        <ele>2342.4</ele>
        <time>1970-01-01T02:19:15.000Z</time>
      </trkpt>
      <trkpt lat="42.325249" lon="1.903585">
        <ele>2342.3</ele>
        <time>1970-01-01T02:19:16.000Z</time>
      </trkpt>
      <trkpt lat="42.325256" lon="1.903607">
        <ele>2342.3</ele>
        <time>1970-01-01T02:19:17.000Z</time>
      </trkpt>
      <trkpt lat="42.325264" lon="1.903622">
        <ele>2342.2</ele>
        <time>1970-01-01T02:19:18.000Z</time>
      </trkpt>
      <trkpt lat="42.32526" lon="1.903628">
        <ele>2342.2</ele>
        <time>1970-01-01T02:19:19.000Z</time>
      </trkpt>
      <trkpt lat="42.32526" lon="1.903631">
        <ele>2342.2</ele>
        <time>1970-01-01T02:19:20.000Z</time>
      </trkpt>
      <trkpt lat="42.32526" lon="1.903632">
        <ele>2342.2</ele>
        <time>1970-01-01T02:19:21.000Z</time>
      </trkpt>
      <trkpt lat="42.32526" lon="1.903632">
        <ele>2342.2</ele>
        <time>1970-01-01T02:19:22.000Z</time>
      </trkpt>
      <trkpt lat="42.32526" lon="1.903632">
        <ele>2342.2</ele>
        <time>1970-01-01T02:19:23.000Z</time>
      </trkpt>
      <trkpt lat="42.32526" lon="1.903632">
        <ele>2342.2</ele>
        <time>1970-01-01T02:19:24.000Z</time>
      </trkpt>
      <trkpt lat="42.32526" lon="1.903632">
        <ele>2342.2</ele>
        <time>1970-01-01T02:19:25.000Z</time>
      </trkpt>
      <trkpt lat="42.32526" lon="1.903632">
        <ele>2342.2</ele>
        <time>1970-01-01T02:19:26.000Z</time>
      </trkpt>
      <trkpt lat="42.32526" lon="1.903632">
        <ele>2342.2</ele>
        <time>1970-01-01T02:19:27.000Z</time>
      </trkpt>
      <trkpt lat="42.32526" lon="1.903632">
        <ele>2342.2</ele>
        <time>1970-01-01T02:19:28.000Z</time>
      </trkpt>
      <trkpt lat="42.32526" lon="1.903632">
        <ele>2342.2</ele>
        <time>1970-01-01T02:19:29.000Z</time>
      </trkpt>
      <trkpt lat="42.32526" lon="1.903632">
        <ele>2342.2</ele>
        <time>1970-01-01T02:19:30.000Z</time>
      </trkpt>
      <trkpt lat="42.32526" lon="1.903632">
        <ele>2342.2</ele>
        <time>1970-01-01T02:19:31.000Z</time>
      </trkpt>
      <trkpt lat="42.32526" lon="1.903632">
        <ele>2342.2</ele>
        <time>1970-01-01T02:19:32.000Z</time>
      </trkpt>
      <trkpt lat="42.32526" lon="1.903632">
        <ele>2342.2</ele>
        <time>1970-01-01T02:19:33.000Z</time>
      </trkpt>
      <trkpt lat="42.32526" lon="1.903632">
        <ele>2342.2</ele>
        <time>1970-01-01T02:19:34.000Z</time>
      </trkpt>
      <trkpt lat="42.32526" lon="1.903632">
        <ele>2342.2</ele>
        <time>1970-01-01T02:19:35.000Z</time>
      </trkpt>
      <trkpt lat="42.32526" lon="1.903632">
        <ele>2342.2</ele>
        <time>1970-01-01T02:19:36.000Z</time>
      </trkpt>
      <trkpt lat="42.32526" lon="1.903632">
        <ele>2342.2</ele>
        <time>1970-01-01T02:19:37.000Z</time>
      </trkpt>
      <trkpt lat="42.325047" lon="1.903733">
        <ele>2341.1</ele>
        <time>1970-01-01T02:21:05.000Z</time>
      </trkpt>
      <trkpt lat="42.325028" lon="1.903745">
        <ele>2341</ele>
        <time>1970-01-01T02:21:06.000Z</time>
      </trkpt>
      <trkpt lat="42.325012" lon="1.903767">
        <ele>2340.8</ele>
        <time>1970-01-01T02:21:07.000Z</time>
      </trkpt>
      <trkpt lat="42.324989" lon="1.903803">
        <ele>2340.5</ele>
        <time>1970-01-01T02:21:08.000Z</time>
      </trkpt>
      <trkpt lat="42.32497" lon="1.903856">
        <ele>2340.1</ele>
        <time>1970-01-01T02:21:09.000Z</time>
      </trkpt>
      <trkpt lat="42.324955" lon="1.903911">
        <ele>2339.7</ele>
        <time>1970-01-01T02:21:10.000Z</time>
      </trkpt>
      <trkpt lat="42.32494" lon="1.903954">
        <ele>2339.2</ele>
        <time>1970-01-01T02:21:11.000Z</time>
      </trkpt>
      <trkpt lat="42.324924" lon="1.903984">
        <ele>2338.9</ele>
        <time>1970-01-01T02:21:12.000Z</time>
      </trkpt>
      <trkpt lat="42.324909" lon="1.90401">
        <ele>2338.6</ele>
        <time>1970-01-01T02:21:13.000Z</time>
      </trkpt>
      <trkpt lat="42.324902" lon="1.904037">
        <ele>2338.3</ele>
        <time>1970-01-01T02:21:14.000Z</time>
      </trkpt>
      <trkpt lat="42.324886" lon="1.904082">
        <ele>2337.9</ele>
        <time>1970-01-01T02:21:15.000Z</time>
      </trkpt>
      <trkpt lat="42.324863" lon="1.904133">
        <ele>2337.4</ele>
        <time>1970-01-01T02:21:16.000Z</time>
      </trkpt>
      <trkpt lat="42.324829" lon="1.904182">
        <ele>2336.9</ele>
        <time>1970-01-01T02:21:17.000Z</time>
      </trkpt>
      <trkpt lat="42.324787" lon="1.904222">
        <ele>2336.3</ele>
        <time>1970-01-01T02:21:18.000Z</time>
      </trkpt>
      <trkpt lat="42.324738" lon="1.904256">
        <ele>2335.8</ele>
        <time>1970-01-01T02:21:19.000Z</time>
      </trkpt>
      <trkpt lat="42.324696" lon="1.904279">
        <ele>2335.3</ele>
        <time>1970-01-01T02:21:20.000Z</time>
      </trkpt>
      <trkpt lat="42.324669" lon="1.904292">
        <ele>2335</ele>
        <time>1970-01-01T02:21:21.000Z</time>
      </trkpt>
      <trkpt lat="42.324654" lon="1.904296">
        <ele>2334.8</ele>
        <time>1970-01-01T02:21:22.000Z</time>
      </trkpt>
      <trkpt lat="42.324646" lon="1.904295">
        <ele>2334.7</ele>
        <time>1970-01-01T02:21:23.000Z</time>
      </trkpt>
      <trkpt lat="42.324646" lon="1.904293">
        <ele>2334.7</ele>
        <time>1970-01-01T02:21:37.000Z</time>
      </trkpt>
      <trkpt lat="42.324646" lon="1.904293">
        <ele>2334.7</ele>
        <time>1970-01-01T02:21:38.000Z</time>
      </trkpt>
      <trkpt lat="42.324646" lon="1.904293">
        <ele>2334.7</ele>
        <time>1970-01-01T02:21:39.000Z</time>
      </trkpt>
      <trkpt lat="42.324646" lon="1.904293">
        <ele>2334.7</ele>
        <time>1970-01-01T02:21:40.000Z</time>
      </trkpt>
      <trkpt lat="42.324627" lon="1.904296">
        <ele>2334.5</ele>
        <time>1970-01-01T02:21:41.000Z</time>
      </trkpt>
      <trkpt lat="42.324604" lon="1.9043">
        <ele>2334.2</ele>
        <time>1970-01-01T02:21:42.000Z</time>
      </trkpt>
      <trkpt lat="42.324574" lon="1.904296">
        <ele>2333.8</ele>
        <time>1970-01-01T02:21:43.000Z</time>
      </trkpt>
      <trkpt lat="42.324528" lon="1.904283">
        <ele>2333.3</ele>
        <time>1970-01-01T02:21:44.000Z</time>
      </trkpt>
      <trkpt lat="42.324478" lon="1.904266">
        <ele>2332.7</ele>
        <time>1970-01-01T02:21:45.000Z</time>
      </trkpt>
      <trkpt lat="42.324421" lon="1.904246">
        <ele>2332.2</ele>
        <time>1970-01-01T02:21:46.000Z</time>
      </trkpt>
      <trkpt lat="42.32436" lon="1.904226">
        <ele>2331.8</ele>
        <time>1970-01-01T02:21:47.000Z</time>
      </trkpt>
      <trkpt lat="42.324291" lon="1.904204">
        <ele>2331.3</ele>
        <time>1970-01-01T02:21:48.000Z</time>
      </trkpt>
      <trkpt lat="42.324226" lon="1.904192">
        <ele>2330.8</ele>
        <time>1970-01-01T02:21:49.000Z</time>
      </trkpt>
      <trkpt lat="42.324158" lon="1.904196">
        <ele>2330.1</ele>
        <time>1970-01-01T02:21:50.000Z</time>
      </trkpt>
      <trkpt lat="42.324097" lon="1.904221">
        <ele>2329.3</ele>
        <time>1970-01-01T02:21:51.000Z</time>
      </trkpt>
      <trkpt lat="42.324043" lon="1.904256">
        <ele>2328.6</ele>
        <time>1970-01-01T02:21:52.000Z</time>
      </trkpt>
      <trkpt lat="42.323998" lon="1.904292">
        <ele>2328</ele>
        <time>1970-01-01T02:21:53.000Z</time>
      </trkpt>
      <trkpt lat="42.323975" lon="1.904329">
        <ele>2327.6</ele>
        <time>1970-01-01T02:21:54.000Z</time>
      </trkpt>
      <trkpt lat="42.323967" lon="1.904357">
        <ele>2327.4</ele>
        <time>1970-01-01T02:21:55.000Z</time>
      </trkpt>
      <trkpt lat="42.323978" lon="1.904372">
        <ele>2327.2</ele>
        <time>1970-01-01T02:21:56.000Z</time>
      </trkpt>
      <trkpt lat="42.323998" lon="1.904385">
        <ele>2327</ele>
        <time>1970-01-01T02:21:57.000Z</time>
      </trkpt>
      <trkpt lat="42.324024" lon="1.904407">
        <ele>2326.8</ele>
        <time>1970-01-01T02:21:58.000Z</time>
      </trkpt>
      <trkpt lat="42.324051" lon="1.904433">
        <ele>2326.5</ele>
        <time>1970-01-01T02:21:59.000Z</time>
      </trkpt>
      <trkpt lat="42.324081" lon="1.904467">
        <ele>2326.3</ele>
        <time>1970-01-01T02:22:00.000Z</time>
      </trkpt>
      <trkpt lat="42.324116" lon="1.904518">
        <ele>2325.9</ele>
        <time>1970-01-01T02:22:01.000Z</time>
      </trkpt>
      <trkpt lat="42.324146" lon="1.904591">
        <ele>2325.6</ele>
        <time>1970-01-01T02:22:02.000Z</time>
      </trkpt>
      <trkpt lat="42.324181" lon="1.904673">
        <ele>2325.4</ele>
        <time>1970-01-01T02:22:03.000Z</time>
      </trkpt>
      <trkpt lat="42.324211" lon="1.90475">
        <ele>2325.3</ele>
        <time>1970-01-01T02:22:04.000Z</time>
      </trkpt>
      <trkpt lat="42.32423" lon="1.904821">
        <ele>2325.3</ele>
        <time>1970-01-01T02:22:05.000Z</time>
      </trkpt>
      <trkpt lat="42.324245" lon="1.904882">
        <ele>2325.3</ele>
        <time>1970-01-01T02:22:06.000Z</time>
      </trkpt>
      <trkpt lat="42.324257" lon="1.904931">
        <ele>2325.3</ele>
        <time>1970-01-01T02:22:07.000Z</time>
      </trkpt>
      <trkpt lat="42.324268" lon="1.904982">
        <ele>2325.3</ele>
        <time>1970-01-01T02:22:08.000Z</time>
      </trkpt>
      <trkpt lat="42.32428" lon="1.905033">
        <ele>2325.2</ele>
        <time>1970-01-01T02:22:09.000Z</time>
      </trkpt>
      <trkpt lat="42.324295" lon="1.905091">
        <ele>2325.2</ele>
        <time>1970-01-01T02:22:10.000Z</time>
      </trkpt>
      <trkpt lat="42.32431" lon="1.905146">
        <ele>2325.1</ele>
        <time>1970-01-01T02:22:11.000Z</time>
      </trkpt>
      <trkpt lat="42.324326" lon="1.905198">
        <ele>2324.9</ele>
        <time>1970-01-01T02:22:12.000Z</time>
      </trkpt>
      <trkpt lat="42.324348" lon="1.90525">
        <ele>2324.8</ele>
        <time>1970-01-01T02:22:13.000Z</time>
      </trkpt>
      <trkpt lat="42.324371" lon="1.905306">
        <ele>2324.5</ele>
        <time>1970-01-01T02:22:14.000Z</time>
      </trkpt>
      <trkpt lat="42.324394" lon="1.905363">
        <ele>2324.3</ele>
        <time>1970-01-01T02:22:15.000Z</time>
      </trkpt>
      <trkpt lat="42.324417" lon="1.905418">
        <ele>2324</ele>
        <time>1970-01-01T02:22:16.000Z</time>
      </trkpt>
      <trkpt lat="42.32444" lon="1.90548">
        <ele>2323.6</ele>
        <time>1970-01-01T02:22:17.000Z</time>
      </trkpt>
      <trkpt lat="42.324467" lon="1.905552">
        <ele>2323.1</ele>
        <time>1970-01-01T02:22:18.000Z</time>
      </trkpt>
      <trkpt lat="42.324497" lon="1.905629">
        <ele>2322.6</ele>
        <time>1970-01-01T02:22:19.000Z</time>
      </trkpt>
      <trkpt lat="42.324528" lon="1.905707">
        <ele>2322</ele>
        <time>1970-01-01T02:22:20.000Z</time>
      </trkpt>
      <trkpt lat="42.324551" lon="1.905782">
        <ele>2321.4</ele>
        <time>1970-01-01T02:22:21.000Z</time>
      </trkpt>
      <trkpt lat="42.324577" lon="1.905854">
        <ele>2320.9</ele>
        <time>1970-01-01T02:22:22.000Z</time>
      </trkpt>
      <trkpt lat="42.3246" lon="1.905922">
        <ele>2320.3</ele>
        <time>1970-01-01T02:22:23.000Z</time>
      </trkpt>
      <trkpt lat="42.324623" lon="1.905991">
        <ele>2319.6</ele>
        <time>1970-01-01T02:22:24.000Z</time>
      </trkpt>
      <trkpt lat="42.324642" lon="1.906069">
        <ele>2318.9</ele>
        <time>1970-01-01T02:22:25.000Z</time>
      </trkpt>
      <trkpt lat="42.324661" lon="1.906145">
        <ele>2318.1</ele>
        <time>1970-01-01T02:22:26.000Z</time>
      </trkpt>
      <trkpt lat="42.32468" lon="1.906228">
        <ele>2317.2</ele>
        <time>1970-01-01T02:22:27.000Z</time>
      </trkpt>
      <trkpt lat="42.324696" lon="1.906302">
        <ele>2316.3</ele>
        <time>1970-01-01T02:22:28.000Z</time>
      </trkpt>
      <trkpt lat="42.324703" lon="1.906375">
        <ele>2315.4</ele>
        <time>1970-01-01T02:22:29.000Z</time>
      </trkpt>
      <trkpt lat="42.324707" lon="1.906446">
        <ele>2314.4</ele>
        <time>1970-01-01T02:22:30.000Z</time>
      </trkpt>
      <trkpt lat="42.324715" lon="1.906508">
        <ele>2313.5</ele>
        <time>1970-01-01T02:22:31.000Z</time>
      </trkpt>
      <trkpt lat="42.32473" lon="1.906564">
        <ele>2312.6</ele>
        <time>1970-01-01T02:22:32.000Z</time>
      </trkpt>
      <trkpt lat="42.324745" lon="1.906618">
        <ele>2311.7</ele>
        <time>1970-01-01T02:22:33.000Z</time>
      </trkpt>
      <trkpt lat="42.324772" lon="1.90667">
        <ele>2310.6</ele>
        <time>1970-01-01T02:22:34.000Z</time>
      </trkpt>
      <trkpt lat="42.324791" lon="1.906722">
        <ele>2309.6</ele>
        <time>1970-01-01T02:22:35.000Z</time>
      </trkpt>
      <trkpt lat="42.324806" lon="1.906774">
        <ele>2308.7</ele>
        <time>1970-01-01T02:22:36.000Z</time>
      </trkpt>
      <trkpt lat="42.324821" lon="1.906828">
        <ele>2307.7</ele>
        <time>1970-01-01T02:22:37.000Z</time>
      </trkpt>
      <trkpt lat="42.324848" lon="1.906899">
        <ele>2306.4</ele>
        <time>1970-01-01T02:22:38.000Z</time>
      </trkpt>
      <trkpt lat="42.324875" lon="1.906971">
        <ele>2305.2</ele>
        <time>1970-01-01T02:22:39.000Z</time>
      </trkpt>
      <trkpt lat="42.324894" lon="1.907048">
        <ele>2304</ele>
        <time>1970-01-01T02:22:40.000Z</time>
      </trkpt>
      <trkpt lat="42.324902" lon="1.907135">
        <ele>2302.8</ele>
        <time>1970-01-01T02:22:41.000Z</time>
      </trkpt>
      <trkpt lat="42.32489" lon="1.907227">
        <ele>2301.7</ele>
        <time>1970-01-01T02:22:42.000Z</time>
      </trkpt>
      <trkpt lat="42.324882" lon="1.907315">
        <ele>2300.7</ele>
        <time>1970-01-01T02:22:43.000Z</time>
      </trkpt>
      <trkpt lat="42.324871" lon="1.907401">
        <ele>2299.8</ele>
        <time>1970-01-01T02:22:44.000Z</time>
      </trkpt>
      <trkpt lat="42.324856" lon="1.907474">
        <ele>2299.1</ele>
        <time>1970-01-01T02:22:45.000Z</time>
      </trkpt>
      <trkpt lat="42.324844" lon="1.907544">
        <ele>2298.4</ele>
        <time>1970-01-01T02:22:46.000Z</time>
      </trkpt>
      <trkpt lat="42.324829" lon="1.907613">
        <ele>2297.7</ele>
        <time>1970-01-01T02:22:47.000Z</time>
      </trkpt>
      <trkpt lat="42.324814" lon="1.90768">
        <ele>2297.1</ele>
        <time>1970-01-01T02:22:48.000Z</time>
      </trkpt>
      <trkpt lat="42.324799" lon="1.907744">
        <ele>2296.4</ele>
        <time>1970-01-01T02:22:49.000Z</time>
      </trkpt>
      <trkpt lat="42.324783" lon="1.907807">
        <ele>2295.8</ele>
        <time>1970-01-01T02:22:50.000Z</time>
      </trkpt>
      <trkpt lat="42.324764" lon="1.907874">
        <ele>2295.3</ele>
        <time>1970-01-01T02:22:51.000Z</time>
      </trkpt>
      <trkpt lat="42.324745" lon="1.907944">
        <ele>2294.8</ele>
        <time>1970-01-01T02:22:52.000Z</time>
      </trkpt>
      <trkpt lat="42.324722" lon="1.908012">
        <ele>2294.4</ele>
        <time>1970-01-01T02:22:53.000Z</time>
      </trkpt>
      <trkpt lat="42.324692" lon="1.908074">
        <ele>2294</ele>
        <time>1970-01-01T02:22:54.000Z</time>
      </trkpt>
      <trkpt lat="42.324654" lon="1.908136">
        <ele>2293.5</ele>
        <time>1970-01-01T02:22:55.000Z</time>
      </trkpt>
      <trkpt lat="42.324623" lon="1.908192">
        <ele>2293.1</ele>
        <time>1970-01-01T02:22:56.000Z</time>
      </trkpt>
      <trkpt lat="42.324596" lon="1.908243">
        <ele>2292.7</ele>
        <time>1970-01-01T02:22:57.000Z</time>
      </trkpt>
      <trkpt lat="42.324574" lon="1.908277">
        <ele>2292.3</ele>
        <time>1970-01-01T02:22:58.000Z</time>
      </trkpt>
      <trkpt lat="42.324558" lon="1.908296">
        <ele>2292.1</ele>
        <time>1970-01-01T02:22:59.000Z</time>
      </trkpt>
      <trkpt lat="42.324551" lon="1.908304">
        <ele>2292</ele>
        <time>1970-01-01T02:23:00.000Z</time>
      </trkpt>
      <trkpt lat="42.324548" lon="1.908306">
        <ele>2292</ele>
        <time>1970-01-01T02:23:01.000Z</time>
      </trkpt>
      <trkpt lat="42.324545" lon="1.908307">
        <ele>2292</ele>
        <time>1970-01-01T02:23:02.000Z</time>
      </trkpt>
      <trkpt lat="42.324542" lon="1.908308">
        <ele>2291.9</ele>
        <time>1970-01-01T02:23:03.000Z</time>
      </trkpt>
      <trkpt lat="42.324539" lon="1.90831">
        <ele>2291.9</ele>
        <time>1970-01-01T02:23:04.000Z</time>
      </trkpt>
      <trkpt lat="42.324536" lon="1.908311">
        <ele>2291.9</ele>
        <time>1970-01-01T02:23:05.000Z</time>
      </trkpt>
      <trkpt lat="42.324533" lon="1.908312">
        <ele>2291.8</ele>
        <time>1970-01-01T02:23:06.000Z</time>
      </trkpt>
      <trkpt lat="42.32453" lon="1.908314">
        <ele>2291.8</ele>
        <time>1970-01-01T02:23:07.000Z</time>
      </trkpt>
      <trkpt lat="42.324527" lon="1.908315">
        <ele>2291.8</ele>
        <time>1970-01-01T02:23:08.000Z</time>
      </trkpt>
      <trkpt lat="42.324524" lon="1.908316">
        <ele>2291.7</ele>
        <time>1970-01-01T02:23:09.000Z</time>
      </trkpt>
      <trkpt lat="42.324521" lon="1.908318">
        <ele>2291.7</ele>
        <time>1970-01-01T02:23:58.000Z</time>
      </trkpt>
      <trkpt lat="42.324518" lon="1.908319">
        <ele>2291.7</ele>
        <time>1970-01-01T02:23:59.000Z</time>
      </trkpt>
      <trkpt lat="42.324515" lon="1.90832">
        <ele>2291.6</ele>
        <time>1970-01-01T02:24:00.000Z</time>
      </trkpt>
      <trkpt lat="42.324512" lon="1.908322">
        <ele>2291.6</ele>
        <time>1970-01-01T02:24:01.000Z</time>
      </trkpt>
      <trkpt lat="42.324509" lon="1.908323">
        <ele>2291.6</ele>
        <time>1970-01-01T02:24:02.000Z</time>
      </trkpt>
      <trkpt lat="42.324478" lon="1.908349">
        <ele>2291.2</ele>
        <time>1970-01-01T02:24:03.000Z</time>
      </trkpt>
      <trkpt lat="42.324455" lon="1.908382">
        <ele>2290.8</ele>
        <time>1970-01-01T02:24:04.000Z</time>
      </trkpt>
      <trkpt lat="42.324429" lon="1.90843">
        <ele>2290.3</ele>
        <time>1970-01-01T02:24:05.000Z</time>
      </trkpt>
      <trkpt lat="42.32439" lon="1.908484">
        <ele>2289.7</ele>
        <time>1970-01-01T02:24:06.000Z</time>
      </trkpt>
      <trkpt lat="42.324348" lon="1.908539">
        <ele>2289.1</ele>
        <time>1970-01-01T02:24:07.000Z</time>
      </trkpt>
      <trkpt lat="42.324303" lon="1.908586">
        <ele>2288.4</ele>
        <time>1970-01-01T02:24:08.000Z</time>
      </trkpt>
      <trkpt lat="42.324257" lon="1.908618">
        <ele>2287.8</ele>
        <time>1970-01-01T02:24:09.000Z</time>
      </trkpt>
      <trkpt lat="42.324215" lon="1.908639">
        <ele>2287.2</ele>
        <time>1970-01-01T02:24:10.000Z</time>
      </trkpt>
      <trkpt lat="42.324173" lon="1.908658">
        <ele>2286.5</ele>
        <time>1970-01-01T02:24:11.000Z</time>
      </trkpt>
      <trkpt lat="42.324127" lon="1.908694">
        <ele>2285.7</ele>
        <time>1970-01-01T02:24:12.000Z</time>
      </trkpt>
      <trkpt lat="42.324097" lon="1.908739">
        <ele>2285</ele>
        <time>1970-01-01T02:24:13.000Z</time>
      </trkpt>
      <trkpt lat="42.324078" lon="1.908789">
        <ele>2284.2</ele>
        <time>1970-01-01T02:24:14.000Z</time>
      </trkpt>
      <trkpt lat="42.32407" lon="1.908835">
        <ele>2283.6</ele>
        <time>1970-01-01T02:24:15.000Z</time>
      </trkpt>
      <trkpt lat="42.324066" lon="1.908877">
        <ele>2283.1</ele>
        <time>1970-01-01T02:24:16.000Z</time>
      </trkpt>
      <trkpt lat="42.324059" lon="1.908928">
        <ele>2282.4</ele>
        <time>1970-01-01T02:24:17.000Z</time>
      </trkpt>
      <trkpt lat="42.324047" lon="1.908983">
        <ele>2281.7</ele>
        <time>1970-01-01T02:24:18.000Z</time>
      </trkpt>
      <trkpt lat="42.324036" lon="1.909041">
        <ele>2281</ele>
        <time>1970-01-01T02:24:19.000Z</time>
      </trkpt>
      <trkpt lat="42.324024" lon="1.909107">
        <ele>2280.2</ele>
        <time>1970-01-01T02:24:20.000Z</time>
      </trkpt>
      <trkpt lat="42.324013" lon="1.909179">
        <ele>2279.3</ele>
        <time>1970-01-01T02:24:21.000Z</time>
      </trkpt>
      <trkpt lat="42.323998" lon="1.909242">
        <ele>2278.5</ele>
        <time>1970-01-01T02:24:22.000Z</time>
      </trkpt>
      <trkpt lat="42.323982" lon="1.909292">
        <ele>2277.8</ele>
        <time>1970-01-01T02:24:23.000Z</time>
      </trkpt>
      <trkpt lat="42.323971" lon="1.909328">
        <ele>2277.3</ele>
        <time>1970-01-01T02:24:24.000Z</time>
      </trkpt>
      <trkpt lat="42.323963" lon="1.909349">
        <ele>2276.9</ele>
        <time>1970-01-01T02:24:25.000Z</time>
      </trkpt>
      <trkpt lat="42.323959" lon="1.909367">
        <ele>2276.7</ele>
        <time>1970-01-01T02:24:26.000Z</time>
      </trkpt>
      <trkpt lat="42.323963" lon="1.909389">
        <ele>2276.3</ele>
        <time>1970-01-01T02:24:27.000Z</time>
      </trkpt>
      <trkpt lat="42.323967" lon="1.909408">
        <ele>2276</ele>
        <time>1970-01-01T02:24:28.000Z</time>
      </trkpt>
      <trkpt lat="42.323978" lon="1.909432">
        <ele>2275.5</ele>
        <time>1970-01-01T02:24:29.000Z</time>
      </trkpt>
      <trkpt lat="42.323986" lon="1.909458">
        <ele>2275.1</ele>
        <time>1970-01-01T02:24:30.000Z</time>
      </trkpt>
      <trkpt lat="42.323994" lon="1.909483">
        <ele>2274.6</ele>
        <time>1970-01-01T02:24:31.000Z</time>
      </trkpt>
      <trkpt lat="42.324005" lon="1.90951">
        <ele>2274.1</ele>
        <time>1970-01-01T02:24:32.000Z</time>
      </trkpt>
      <trkpt lat="42.324005" lon="1.909541">
        <ele>2273.6</ele>
        <time>1970-01-01T02:24:33.000Z</time>
      </trkpt>
      <trkpt lat="42.324009" lon="1.909573">
        <ele>2273</ele>
        <time>1970-01-01T02:24:34.000Z</time>
      </trkpt>
      <trkpt lat="42.324005" lon="1.909604">
        <ele>2272.5</ele>
        <time>1970-01-01T02:24:35.000Z</time>
      </trkpt>
      <trkpt lat="42.323998" lon="1.90964">
        <ele>2271.9</ele>
        <time>1970-01-01T02:24:36.000Z</time>
      </trkpt>
      <trkpt lat="42.323986" lon="1.909674">
        <ele>2271.2</ele>
        <time>1970-01-01T02:24:37.000Z</time>
      </trkpt>
      <trkpt lat="42.323975" lon="1.909699">
        <ele>2270.7</ele>
        <time>1970-01-01T02:24:38.000Z</time>
      </trkpt>
      <trkpt lat="42.323952" lon="1.909721">
        <ele>2270</ele>
        <time>1970-01-01T02:24:39.000Z</time>
      </trkpt>
      <trkpt lat="42.323921" lon="1.909748">
        <ele>2269.1</ele>
        <time>1970-01-01T02:24:40.000Z</time>
      </trkpt>
      <trkpt lat="42.323883" lon="1.909778">
        <ele>2268.1</ele>
        <time>1970-01-01T02:24:41.000Z</time>
      </trkpt>
      <trkpt lat="42.323849" lon="1.909808">
        <ele>2267.2</ele>
        <time>1970-01-01T02:24:42.000Z</time>
      </trkpt>
      <trkpt lat="42.323814" lon="1.909847">
        <ele>2266.2</ele>
        <time>1970-01-01T02:24:43.000Z</time>
      </trkpt>
      <trkpt lat="42.323788" lon="1.909896">
        <ele>2265.2</ele>
        <time>1970-01-01T02:24:44.000Z</time>
      </trkpt>
      <trkpt lat="42.323757" lon="1.909942">
        <ele>2264.2</ele>
        <time>1970-01-01T02:24:45.000Z</time>
      </trkpt>
      <trkpt lat="42.323719" lon="1.909981">
        <ele>2263</ele>
        <time>1970-01-01T02:24:46.000Z</time>
      </trkpt>
      <trkpt lat="42.323681" lon="1.910002">
        <ele>2262</ele>
        <time>1970-01-01T02:24:47.000Z</time>
      </trkpt>
      <trkpt lat="42.323639" lon="1.910019">
        <ele>2260.8</ele>
        <time>1970-01-01T02:24:48.000Z</time>
      </trkpt>
      <trkpt lat="42.323597" lon="1.910043">
        <ele>2259.5</ele>
        <time>1970-01-01T02:24:49.000Z</time>
      </trkpt>
      <trkpt lat="42.323563" lon="1.91008">
        <ele>2258.2</ele>
        <time>1970-01-01T02:24:50.000Z</time>
      </trkpt>
      <trkpt lat="42.323555" lon="1.910129">
        <ele>2257</ele>
        <time>1970-01-01T02:24:51.000Z</time>
      </trkpt>
      <trkpt lat="42.323563" lon="1.910187">
        <ele>2255.7</ele>
        <time>1970-01-01T02:24:52.000Z</time>
      </trkpt>
      <trkpt lat="42.323559" lon="1.910246">
        <ele>2254.3</ele>
        <time>1970-01-01T02:24:53.000Z</time>
      </trkpt>
      <trkpt lat="42.323547" lon="1.91031">
        <ele>2252.7</ele>
        <time>1970-01-01T02:24:54.000Z</time>
      </trkpt>
      <trkpt lat="42.323521" lon="1.910368">
        <ele>2251.2</ele>
        <time>1970-01-01T02:24:55.000Z</time>
      </trkpt>
      <trkpt lat="42.32349" lon="1.910433">
        <ele>2249.6</ele>
        <time>1970-01-01T02:24:56.000Z</time>
      </trkpt>
      <trkpt lat="42.323463" lon="1.910503">
        <ele>2248.2</ele>
        <time>1970-01-01T02:24:57.000Z</time>
      </trkpt>
      <trkpt lat="42.323437" lon="1.910575">
        <ele>2246.9</ele>
        <time>1970-01-01T02:24:58.000Z</time>
      </trkpt>
      <trkpt lat="42.323402" lon="1.910652">
        <ele>2245.6</ele>
        <time>1970-01-01T02:24:59.000Z</time>
      </trkpt>
      <trkpt lat="42.323364" lon="1.910736">
        <ele>2244.6</ele>
        <time>1970-01-01T02:25:00.000Z</time>
      </trkpt>
      <trkpt lat="42.32333" lon="1.910805">
        <ele>2243.9</ele>
        <time>1970-01-01T02:25:01.000Z</time>
      </trkpt>
      <trkpt lat="42.323296" lon="1.910863">
        <ele>2243.2</ele>
        <time>1970-01-01T02:25:02.000Z</time>
      </trkpt>
      <trkpt lat="42.323265" lon="1.910909">
        <ele>2242.7</ele>
        <time>1970-01-01T02:25:03.000Z</time>
      </trkpt>
      <trkpt lat="42.323235" lon="1.910942">
        <ele>2242.2</ele>
        <time>1970-01-01T02:25:04.000Z</time>
      </trkpt>
      <trkpt lat="42.323204" lon="1.910971">
        <ele>2241.7</ele>
        <time>1970-01-01T02:25:05.000Z</time>
      </trkpt>
      <trkpt lat="42.323177" lon="1.911">
        <ele>2241.2</ele>
        <time>1970-01-01T02:25:06.000Z</time>
      </trkpt>
      <trkpt lat="42.323154" lon="1.911029">
        <ele>2240.7</ele>
        <time>1970-01-01T02:25:07.000Z</time>
      </trkpt>
      <trkpt lat="42.323124" lon="1.911049">
        <ele>2240.1</ele>
        <time>1970-01-01T02:25:08.000Z</time>
      </trkpt>
      <trkpt lat="42.323093" lon="1.911056">
        <ele>2239.6</ele>
        <time>1970-01-01T02:25:09.000Z</time>
      </trkpt>
      <trkpt lat="42.323055" lon="1.91106">
        <ele>2239</ele>
        <time>1970-01-01T02:25:10.000Z</time>
      </trkpt>
      <trkpt lat="42.323017" lon="1.911067">
        <ele>2238.4</ele>
        <time>1970-01-01T02:25:11.000Z</time>
      </trkpt>
      <trkpt lat="42.322983" lon="1.911087">
        <ele>2237.8</ele>
        <time>1970-01-01T02:25:12.000Z</time>
      </trkpt>
      <trkpt lat="42.322945" lon="1.911112">
        <ele>2237.3</ele>
        <time>1970-01-01T02:25:13.000Z</time>
      </trkpt>
      <trkpt lat="42.322903" lon="1.911128">
        <ele>2236.7</ele>
        <time>1970-01-01T02:25:14.000Z</time>
      </trkpt>
      <trkpt lat="42.322865" lon="1.911139">
        <ele>2236.1</ele>
        <time>1970-01-01T02:25:15.000Z</time>
      </trkpt>
      <trkpt lat="42.322826" lon="1.911147">
        <ele>2235.5</ele>
        <time>1970-01-01T02:25:16.000Z</time>
      </trkpt>
      <trkpt lat="42.322796" lon="1.911153">
        <ele>2235</ele>
        <time>1970-01-01T02:25:17.000Z</time>
      </trkpt>
      <trkpt lat="42.322769" lon="1.911172">
        <ele>2234.4</ele>
        <time>1970-01-01T02:25:18.000Z</time>
      </trkpt>
      <trkpt lat="42.322746" lon="1.911203">
        <ele>2233.7</ele>
        <time>1970-01-01T02:25:19.000Z</time>
      </trkpt>
      <trkpt lat="42.32272" lon="1.911251">
        <ele>2232.8</ele>
        <time>1970-01-01T02:25:20.000Z</time>
      </trkpt>
      <trkpt lat="42.322681" lon="1.911306">
        <ele>2231.7</ele>
        <time>1970-01-01T02:25:21.000Z</time>
      </trkpt>
      <trkpt lat="42.322639" lon="1.911352">
        <ele>2230.7</ele>
        <time>1970-01-01T02:25:22.000Z</time>
      </trkpt>
      <trkpt lat="42.322605" lon="1.911401">
        <ele>2229.8</ele>
        <time>1970-01-01T02:25:23.000Z</time>
      </trkpt>
      <trkpt lat="42.322567" lon="1.911467">
        <ele>2228.6</ele>
        <time>1970-01-01T02:25:24.000Z</time>
      </trkpt>
      <trkpt lat="42.32254" lon="1.911542">
        <ele>2227.4</ele>
        <time>1970-01-01T02:25:25.000Z</time>
      </trkpt>
      <trkpt lat="42.322514" lon="1.911616">
        <ele>2226.4</ele>
        <time>1970-01-01T02:25:26.000Z</time>
      </trkpt>
      <trkpt lat="42.322491" lon="1.911682">
        <ele>2225.4</ele>
        <time>1970-01-01T02:25:27.000Z</time>
      </trkpt>
      <trkpt lat="42.322464" lon="1.911752">
        <ele>2224.3</ele>
        <time>1970-01-01T02:25:28.000Z</time>
      </trkpt>
      <trkpt lat="42.322433" lon="1.911826">
        <ele>2223.2</ele>
        <time>1970-01-01T02:25:29.000Z</time>
      </trkpt>
      <trkpt lat="42.322407" lon="1.911911">
        <ele>2221.8</ele>
        <time>1970-01-01T02:25:30.000Z</time>
      </trkpt>
      <trkpt lat="42.322384" lon="1.911987">
        <ele>2220.2</ele>
        <time>1970-01-01T02:25:31.000Z</time>
      </trkpt>
      <trkpt lat="42.322365" lon="1.912041">
        <ele>2218.8</ele>
        <time>1970-01-01T02:25:32.000Z</time>
      </trkpt>
      <trkpt lat="42.322342" lon="1.912101">
        <ele>2216.5</ele>
        <time>1970-01-01T02:25:33.000Z</time>
      </trkpt>
      <trkpt lat="42.322319" lon="1.912175">
        <ele>2213.1</ele>
        <time>1970-01-01T02:25:34.000Z</time>
      </trkpt>
      <trkpt lat="42.322304" lon="1.912256">
        <ele>2209.9</ele>
        <time>1970-01-01T02:25:35.000Z</time>
      </trkpt>
      <trkpt lat="42.322296" lon="1.912335">
        <ele>2208.7</ele>
        <time>1970-01-01T02:25:36.000Z</time>
      </trkpt>
      <trkpt lat="42.3223" lon="1.912452">
        <ele>2207</ele>
        <time>1970-01-01T02:25:37.000Z</time>
      </trkpt>
      <trkpt lat="42.322311" lon="1.912572">
        <ele>2205.5</ele>
        <time>1970-01-01T02:25:38.000Z</time>
      </trkpt>
      <trkpt lat="42.322334" lon="1.912689">
        <ele>2204.1</ele>
        <time>1970-01-01T02:25:39.000Z</time>
      </trkpt>
      <trkpt lat="42.322361" lon="1.912798">
        <ele>2202.9</ele>
        <time>1970-01-01T02:25:40.000Z</time>
      </trkpt>
      <trkpt lat="42.322388" lon="1.912899">
        <ele>2201.9</ele>
        <time>1970-01-01T02:25:41.000Z</time>
      </trkpt>
      <trkpt lat="42.322418" lon="1.913002">
        <ele>2200.7</ele>
        <time>1970-01-01T02:25:42.000Z</time>
      </trkpt>
      <trkpt lat="42.322453" lon="1.913106">
        <ele>2199.5</ele>
        <time>1970-01-01T02:25:43.000Z</time>
      </trkpt>
      <trkpt lat="42.322483" lon="1.9132">
        <ele>2198.4</ele>
        <time>1970-01-01T02:25:44.000Z</time>
      </trkpt>
      <trkpt lat="42.32251" lon="1.913286">
        <ele>2197.4</ele>
        <time>1970-01-01T02:25:45.000Z</time>
      </trkpt>
      <trkpt lat="42.322525" lon="1.913365">
        <ele>2196.5</ele>
        <time>1970-01-01T02:25:46.000Z</time>
      </trkpt>
      <trkpt lat="42.322533" lon="1.91344">
        <ele>2195.6</ele>
        <time>1970-01-01T02:25:47.000Z</time>
      </trkpt>
      <trkpt lat="42.322529" lon="1.913516">
        <ele>2194.7</ele>
        <time>1970-01-01T02:25:48.000Z</time>
      </trkpt>
      <trkpt lat="42.322521" lon="1.913589">
        <ele>2193.7</ele>
        <time>1970-01-01T02:25:49.000Z</time>
      </trkpt>
      <trkpt lat="42.322506" lon="1.913658">
        <ele>2192.7</ele>
        <time>1970-01-01T02:25:50.000Z</time>
      </trkpt>
      <trkpt lat="42.322494" lon="1.913714">
        <ele>2191.9</ele>
        <time>1970-01-01T02:25:51.000Z</time>
      </trkpt>
      <trkpt lat="42.322479" lon="1.913766">
        <ele>2191</ele>
        <time>1970-01-01T02:25:52.000Z</time>
      </trkpt>
      <trkpt lat="42.322449" lon="1.913821">
        <ele>2190</ele>
        <time>1970-01-01T02:25:53.000Z</time>
      </trkpt>
      <trkpt lat="42.322418" lon="1.913879">
        <ele>2189</ele>
        <time>1970-01-01T02:25:54.000Z</time>
      </trkpt>
      <trkpt lat="42.322391" lon="1.91394">
        <ele>2188</ele>
        <time>1970-01-01T02:25:55.000Z</time>
      </trkpt>
      <trkpt lat="42.322365" lon="1.914012">
        <ele>2187.1</ele>
        <time>1970-01-01T02:25:56.000Z</time>
      </trkpt>
      <trkpt lat="42.322342" lon="1.914099">
        <ele>2186.1</ele>
        <time>1970-01-01T02:25:57.000Z</time>
      </trkpt>
      <trkpt lat="42.322319" lon="1.914193">
        <ele>2185.3</ele>
        <time>1970-01-01T02:25:58.000Z</time>
      </trkpt>
      <trkpt lat="42.322292" lon="1.914283">
        <ele>2184.6</ele>
        <time>1970-01-01T02:25:59.000Z</time>
      </trkpt>
      <trkpt lat="42.322254" lon="1.914362">
        <ele>2184</ele>
        <time>1970-01-01T02:26:00.000Z</time>
      </trkpt>
      <trkpt lat="42.322216" lon="1.914422">
        <ele>2183.5</ele>
        <time>1970-01-01T02:26:01.000Z</time>
      </trkpt>
      <trkpt lat="42.322182" lon="1.914466">
        <ele>2183</ele>
        <time>1970-01-01T02:26:02.000Z</time>
      </trkpt>
      <trkpt lat="42.322144" lon="1.914525">
        <ele>2182.2</ele>
        <time>1970-01-01T02:26:03.000Z</time>
      </trkpt>
      <trkpt lat="42.322109" lon="1.914601">
        <ele>2181.3</ele>
        <time>1970-01-01T02:26:04.000Z</time>
      </trkpt>
      <trkpt lat="42.32209" lon="1.91469">
        <ele>2180.2</ele>
        <time>1970-01-01T02:26:05.000Z</time>
      </trkpt>
      <trkpt lat="42.322075" lon="1.914768">
        <ele>2179.3</ele>
        <time>1970-01-01T02:26:06.000Z</time>
      </trkpt>
      <trkpt lat="42.322063" lon="1.914836">
        <ele>2178.5</ele>
        <time>1970-01-01T02:26:07.000Z</time>
      </trkpt>
      <trkpt lat="42.322052" lon="1.914895">
        <ele>2177.8</ele>
        <time>1970-01-01T02:26:08.000Z</time>
      </trkpt>
      <trkpt lat="42.322041" lon="1.914966">
        <ele>2177.1</ele>
        <time>1970-01-01T02:26:09.000Z</time>
      </trkpt>
      <trkpt lat="42.322025" lon="1.915038">
        <ele>2176.4</ele>
        <time>1970-01-01T02:26:10.000Z</time>
      </trkpt>
      <trkpt lat="42.322002" lon="1.915113">
        <ele>2175.8</ele>
        <time>1970-01-01T02:26:11.000Z</time>
      </trkpt>
      <trkpt lat="42.32198" lon="1.915189">
        <ele>2175.3</ele>
        <time>1970-01-01T02:26:12.000Z</time>
      </trkpt>
      <trkpt lat="42.32196" lon="1.91526">
        <ele>2174.8</ele>
        <time>1970-01-01T02:26:13.000Z</time>
      </trkpt>
      <trkpt lat="42.321934" lon="1.915326">
        <ele>2174.4</ele>
        <time>1970-01-01T02:26:14.000Z</time>
      </trkpt>
      <trkpt lat="42.321903" lon="1.915387">
        <ele>2174</ele>
        <time>1970-01-01T02:26:15.000Z</time>
      </trkpt>
      <trkpt lat="42.321873" lon="1.915436">
        <ele>2173.6</ele>
        <time>1970-01-01T02:26:16.000Z</time>
      </trkpt>
      <trkpt lat="42.321835" lon="1.91548">
        <ele>2173.2</ele>
        <time>1970-01-01T02:26:17.000Z</time>
      </trkpt>
      <trkpt lat="42.3218" lon="1.915509">
        <ele>2172.8</ele>
        <time>1970-01-01T02:26:18.000Z</time>
      </trkpt>
      <trkpt lat="42.321758" lon="1.915526">
        <ele>2172.4</ele>
        <time>1970-01-01T02:26:19.000Z</time>
      </trkpt>
      <trkpt lat="42.321716" lon="1.91555">
        <ele>2171.9</ele>
        <time>1970-01-01T02:26:20.000Z</time>
      </trkpt>
      <trkpt lat="42.321667" lon="1.91558">
        <ele>2171.3</ele>
        <time>1970-01-01T02:26:21.000Z</time>
      </trkpt>
      <trkpt lat="42.32161" lon="1.915621">
        <ele>2170.6</ele>
        <time>1970-01-01T02:26:22.000Z</time>
      </trkpt>
      <trkpt lat="42.321548" lon="1.915663">
        <ele>2169.9</ele>
        <time>1970-01-01T02:26:23.000Z</time>
      </trkpt>
      <trkpt lat="42.321491" lon="1.915698">
        <ele>2169.2</ele>
        <time>1970-01-01T02:26:24.000Z</time>
      </trkpt>
      <trkpt lat="42.321445" lon="1.915726">
        <ele>2168.7</ele>
        <time>1970-01-01T02:26:25.000Z</time>
      </trkpt>
      <trkpt lat="42.321407" lon="1.915745">
        <ele>2168.3</ele>
        <time>1970-01-01T02:26:26.000Z</time>
      </trkpt>
      <trkpt lat="42.321377" lon="1.915757">
        <ele>2167.9</ele>
        <time>1970-01-01T02:26:27.000Z</time>
      </trkpt>
      <trkpt lat="42.321354" lon="1.915767">
        <ele>2167.7</ele>
        <time>1970-01-01T02:26:28.000Z</time>
      </trkpt>
      <trkpt lat="42.321334" lon="1.915778">
        <ele>2167.4</ele>
        <time>1970-01-01T02:26:29.000Z</time>
      </trkpt>
      <trkpt lat="42.321328" lon="1.91578">
        <ele>2167.4</ele>
        <time>1970-01-01T02:26:30.000Z</time>
      </trkpt>
      <trkpt lat="42.321323" lon="1.915782">
        <ele>2167.3</ele>
        <time>1970-01-01T02:26:31.000Z</time>
      </trkpt>
      <trkpt lat="42.321318" lon="1.915784">
        <ele>2167.3</ele>
        <time>1970-01-01T02:26:32.000Z</time>
      </trkpt>
      <trkpt lat="42.321313" lon="1.915786">
        <ele>2167.2</ele>
        <time>1970-01-01T02:26:33.000Z</time>
      </trkpt>
      <trkpt lat="42.321307" lon="1.915788">
        <ele>2167.1</ele>
        <time>1970-01-01T02:26:34.000Z</time>
      </trkpt>
      <trkpt lat="42.321302" lon="1.91579">
        <ele>2167.1</ele>
        <time>1970-01-01T02:26:35.000Z</time>
      </trkpt>
      <trkpt lat="42.321297" lon="1.915792">
        <ele>2167</ele>
        <time>1970-01-01T02:26:36.000Z</time>
      </trkpt>
      <trkpt lat="42.321292" lon="1.915794">
        <ele>2166.9</ele>
        <time>1970-01-01T02:26:37.000Z</time>
      </trkpt>
      <trkpt lat="42.321286" lon="1.915796">
        <ele>2166.9</ele>
        <time>1970-01-01T02:26:38.000Z</time>
      </trkpt>
      <trkpt lat="42.321281" lon="1.915798">
        <ele>2166.8</ele>
        <time>1970-01-01T02:26:39.000Z</time>
      </trkpt>
      <trkpt lat="42.321276" lon="1.9158">
        <ele>2166.7</ele>
        <time>1970-01-01T02:26:40.000Z</time>
      </trkpt>
      <trkpt lat="42.32127" lon="1.915802">
        <ele>2166.6</ele>
        <time>1970-01-01T02:26:41.000Z</time>
      </trkpt>
      <trkpt lat="42.321265" lon="1.915804">
        <ele>2166.6</ele>
        <time>1970-01-01T02:26:42.000Z</time>
      </trkpt>
      <trkpt lat="42.32126" lon="1.915806">
        <ele>2166.5</ele>
        <time>1970-01-01T02:26:43.000Z</time>
      </trkpt>
      <trkpt lat="42.321255" lon="1.915808">
        <ele>2166.4</ele>
        <time>1970-01-01T02:26:44.000Z</time>
      </trkpt>
      <trkpt lat="42.321249" lon="1.91581">
        <ele>2166.4</ele>
        <time>1970-01-01T02:26:45.000Z</time>
      </trkpt>
      <trkpt lat="42.321244" lon="1.915812">
        <ele>2166.3</ele>
        <time>1970-01-01T02:26:46.000Z</time>
      </trkpt>
      <trkpt lat="42.321239" lon="1.915814">
        <ele>2166.2</ele>
        <time>1970-01-01T02:26:47.000Z</time>
      </trkpt>
      <trkpt lat="42.321233" lon="1.915816">
        <ele>2166.1</ele>
        <time>1970-01-01T02:26:48.000Z</time>
      </trkpt>
      <trkpt lat="42.321228" lon="1.915818">
        <ele>2166.1</ele>
        <time>1970-01-01T02:26:49.000Z</time>
      </trkpt>
      <trkpt lat="42.321223" lon="1.91582">
        <ele>2166</ele>
        <time>1970-01-01T02:26:50.000Z</time>
      </trkpt>
      <trkpt lat="42.321218" lon="1.915822">
        <ele>2165.9</ele>
        <time>1970-01-01T02:26:51.000Z</time>
      </trkpt>
      <trkpt lat="42.321212" lon="1.915824">
        <ele>2165.8</ele>
        <time>1970-01-01T02:26:52.000Z</time>
      </trkpt>
      <trkpt lat="42.321207" lon="1.915826">
        <ele>2165.8</ele>
        <time>1970-01-01T02:26:53.000Z</time>
      </trkpt>
      <trkpt lat="42.321202" lon="1.915828">
        <ele>2165.7</ele>
        <time>1970-01-01T02:26:54.000Z</time>
      </trkpt>
      <trkpt lat="42.321197" lon="1.91583">
        <ele>2165.6</ele>
        <time>1970-01-01T02:26:55.000Z</time>
      </trkpt>
      <trkpt lat="42.321191" lon="1.915832">
        <ele>2165.5</ele>
        <time>1970-01-01T02:26:56.000Z</time>
      </trkpt>
      <trkpt lat="42.321186" lon="1.915834">
        <ele>2165.5</ele>
        <time>1970-01-01T02:26:57.000Z</time>
      </trkpt>
      <trkpt lat="42.321175" lon="1.915849">
        <ele>2165.3</ele>
        <time>1970-01-01T02:26:58.000Z</time>
      </trkpt>
      <trkpt lat="42.321175" lon="1.91585">
        <ele>2165.2</ele>
        <time>1970-01-01T02:26:59.000Z</time>
      </trkpt>
      <trkpt lat="42.321171" lon="1.915847">
        <ele>2165.2</ele>
        <time>1970-01-01T02:27:00.000Z</time>
      </trkpt>
      <trkpt lat="42.321171" lon="1.915847">
        <ele>2165.2</ele>
        <time>1970-01-01T02:27:01.000Z</time>
      </trkpt>
      <trkpt lat="42.321171" lon="1.915847">
        <ele>2165.2</ele>
        <time>1970-01-01T02:27:02.000Z</time>
      </trkpt>
      <trkpt lat="42.321171" lon="1.915847">
        <ele>2165.2</ele>
        <time>1970-01-01T02:27:03.000Z</time>
      </trkpt>
      <trkpt lat="42.321171" lon="1.915847">
        <ele>2165.2</ele>
        <time>1970-01-01T02:27:04.000Z</time>
      </trkpt>
      <trkpt lat="42.321171" lon="1.915847">
        <ele>2165.2</ele>
        <time>1970-01-01T02:27:05.000Z</time>
      </trkpt>
      <trkpt lat="42.321171" lon="1.915847">
        <ele>2165.2</ele>
        <time>1970-01-01T02:27:06.000Z</time>
      </trkpt>
      <trkpt lat="42.321152" lon="1.915859">
        <ele>2164.9</ele>
        <time>1970-01-01T02:27:07.000Z</time>
      </trkpt>
      <trkpt lat="42.321136" lon="1.915873">
        <ele>2164.6</ele>
        <time>1970-01-01T02:27:08.000Z</time>
      </trkpt>
      <trkpt lat="42.321114" lon="1.915895">
        <ele>2164.1</ele>
        <time>1970-01-01T02:27:09.000Z</time>
      </trkpt>
      <trkpt lat="42.321087" lon="1.915928">
        <ele>2163.5</ele>
        <time>1970-01-01T02:27:10.000Z</time>
      </trkpt>
      <trkpt lat="42.321064" lon="1.915965">
        <ele>2163</ele>
        <time>1970-01-01T02:27:11.000Z</time>
      </trkpt>
      <trkpt lat="42.321037" lon="1.916004">
        <ele>2162.3</ele>
        <time>1970-01-01T02:27:12.000Z</time>
      </trkpt>
      <trkpt lat="42.321007" lon="1.91604">
        <ele>2161.6</ele>
        <time>1970-01-01T02:27:13.000Z</time>
      </trkpt>
      <trkpt lat="42.320969" lon="1.916075">
        <ele>2160.9</ele>
        <time>1970-01-01T02:27:14.000Z</time>
      </trkpt>
      <trkpt lat="42.320938" lon="1.916109">
        <ele>2160.2</ele>
        <time>1970-01-01T02:27:15.000Z</time>
      </trkpt>
      <trkpt lat="42.320904" lon="1.916144">
        <ele>2159.5</ele>
        <time>1970-01-01T02:27:16.000Z</time>
      </trkpt>
      <trkpt lat="42.320877" lon="1.916174">
        <ele>2158.9</ele>
        <time>1970-01-01T02:27:17.000Z</time>
      </trkpt>
      <trkpt lat="42.320843" lon="1.916203">
        <ele>2158.1</ele>
        <time>1970-01-01T02:27:18.000Z</time>
      </trkpt>
      <trkpt lat="42.320816" lon="1.916231">
        <ele>2157.4</ele>
        <time>1970-01-01T02:27:19.000Z</time>
      </trkpt>
      <trkpt lat="42.320786" lon="1.916261">
        <ele>2156.6</ele>
        <time>1970-01-01T02:27:20.000Z</time>
      </trkpt>
      <trkpt lat="42.320751" lon="1.916284">
        <ele>2155.8</ele>
        <time>1970-01-01T02:27:21.000Z</time>
      </trkpt>
      <trkpt lat="42.320721" lon="1.916302">
        <ele>2155</ele>
        <time>1970-01-01T02:27:22.000Z</time>
      </trkpt>
      <trkpt lat="42.320702" lon="1.916316">
        <ele>2154.5</ele>
        <time>1970-01-01T02:27:23.000Z</time>
      </trkpt>
      <trkpt lat="42.320679" lon="1.916336">
        <ele>2153.8</ele>
        <time>1970-01-01T02:27:24.000Z</time>
      </trkpt>
      <trkpt lat="42.320656" lon="1.916366">
        <ele>2152.9</ele>
        <time>1970-01-01T02:27:25.000Z</time>
      </trkpt>
      <trkpt lat="42.320637" lon="1.916405">
        <ele>2152</ele>
        <time>1970-01-01T02:27:26.000Z</time>
      </trkpt>
      <trkpt lat="42.320621" lon="1.91643">
        <ele>2151.3</ele>
        <time>1970-01-01T02:27:27.000Z</time>
      </trkpt>
      <trkpt lat="42.320606" lon="1.916445">
        <ele>2150.8</ele>
        <time>1970-01-01T02:27:28.000Z</time>
      </trkpt>
      <trkpt lat="42.320591" lon="1.916458">
        <ele>2150.2</ele>
        <time>1970-01-01T02:27:29.000Z</time>
      </trkpt>
      <trkpt lat="42.32058" lon="1.916483">
        <ele>2149.5</ele>
        <time>1970-01-01T02:27:30.000Z</time>
      </trkpt>
      <trkpt lat="42.320572" lon="1.916504">
        <ele>2148.9</ele>
        <time>1970-01-01T02:27:31.000Z</time>
      </trkpt>
      <trkpt lat="42.320564" lon="1.916511">
        <ele>2148.6</ele>
        <time>1970-01-01T02:27:32.000Z</time>
      </trkpt>
      <trkpt lat="42.320557" lon="1.916513">
        <ele>2148.3</ele>
        <time>1970-01-01T02:27:33.000Z</time>
      </trkpt>
      <trkpt lat="42.320557" lon="1.916515">
        <ele>2148.3</ele>
        <time>1970-01-01T02:27:34.000Z</time>
      </trkpt>
      <trkpt lat="42.320557" lon="1.916515">
        <ele>2148.3</ele>
        <time>1970-01-01T02:27:35.000Z</time>
      </trkpt>
      <trkpt lat="42.320557" lon="1.916515">
        <ele>2148.3</ele>
        <time>1970-01-01T02:27:36.000Z</time>
      </trkpt>
      <trkpt lat="42.320557" lon="1.916515">
        <ele>2148.3</ele>
        <time>1970-01-01T02:27:37.000Z</time>
      </trkpt>
      <trkpt lat="42.320557" lon="1.916515">
        <ele>2148.3</ele>
        <time>1970-01-01T02:27:38.000Z</time>
      </trkpt>
      <trkpt lat="42.320557" lon="1.916515">
        <ele>2148.3</ele>
        <time>1970-01-01T02:27:39.000Z</time>
      </trkpt>
      <trkpt lat="42.320557" lon="1.916515">
        <ele>2148.3</ele>
        <time>1970-01-01T02:27:40.000Z</time>
      </trkpt>
      <trkpt lat="42.320557" lon="1.916515">
        <ele>2148.3</ele>
        <time>1970-01-01T02:27:41.000Z</time>
      </trkpt>
      <trkpt lat="42.320557" lon="1.916515">
        <ele>2148.3</ele>
        <time>1970-01-01T02:27:42.000Z</time>
      </trkpt>
      <trkpt lat="42.320549" lon="1.916544">
        <ele>2147.4</ele>
        <time>1970-01-01T02:27:43.000Z</time>
      </trkpt>
      <trkpt lat="42.32056" lon="1.916561">
        <ele>2146.8</ele>
        <time>1970-01-01T02:27:44.000Z</time>
      </trkpt>
      <trkpt lat="42.320568" lon="1.916575">
        <ele>2146.3</ele>
        <time>1970-01-01T02:27:45.000Z</time>
      </trkpt>
      <trkpt lat="42.320572" lon="1.916585">
        <ele>2145.9</ele>
        <time>1970-01-01T02:27:46.000Z</time>
      </trkpt>
      <trkpt lat="42.32058" lon="1.916594">
        <ele>2145.5</ele>
        <time>1970-01-01T02:27:47.000Z</time>
      </trkpt>
      <trkpt lat="42.320587" lon="1.916601">
        <ele>2145.2</ele>
        <time>1970-01-01T02:27:48.000Z</time>
      </trkpt>
      <trkpt lat="42.320587" lon="1.916602">
        <ele>2145.2</ele>
        <time>1970-01-01T02:27:49.000Z</time>
      </trkpt>
      <trkpt lat="42.320587" lon="1.916602">
        <ele>2145.2</ele>
        <time>1970-01-01T02:27:50.000Z</time>
      </trkpt>
      <trkpt lat="42.320587" lon="1.916602">
        <ele>2145.2</ele>
        <time>1970-01-01T02:27:51.000Z</time>
      </trkpt>
      <trkpt lat="42.320587" lon="1.916602">
        <ele>2145.2</ele>
        <time>1970-01-01T02:27:52.000Z</time>
      </trkpt>
      <trkpt lat="42.320587" lon="1.916602">
        <ele>2145.2</ele>
        <time>1970-01-01T02:27:53.000Z</time>
      </trkpt>
      <trkpt lat="42.320587" lon="1.916602">
        <ele>2145.2</ele>
        <time>1970-01-01T02:27:54.000Z</time>
      </trkpt>
      <trkpt lat="42.320587" lon="1.916602">
        <ele>2145.2</ele>
        <time>1970-01-01T02:27:55.000Z</time>
      </trkpt>
      <trkpt lat="42.320587" lon="1.916602">
        <ele>2145.2</ele>
        <time>1970-01-01T02:27:56.000Z</time>
      </trkpt>
      <trkpt lat="42.320587" lon="1.916602">
        <ele>2145.2</ele>
        <time>1970-01-01T02:27:57.000Z</time>
      </trkpt>
      <trkpt lat="42.320587" lon="1.916602">
        <ele>2145.2</ele>
        <time>1970-01-01T02:27:58.000Z</time>
      </trkpt>
      <trkpt lat="42.320606" lon="1.916609">
        <ele>2144.4</ele>
        <time>1970-01-01T02:27:59.000Z</time>
      </trkpt>
      <trkpt lat="42.320625" lon="1.916609">
        <ele>2143.7</ele>
        <time>1970-01-01T02:28:00.000Z</time>
      </trkpt>
      <trkpt lat="42.320644" lon="1.916602">
        <ele>2142.9</ele>
        <time>1970-01-01T02:28:01.000Z</time>
      </trkpt>
      <trkpt lat="42.32066" lon="1.916592">
        <ele>2142.2</ele>
        <time>1970-01-01T02:28:02.000Z</time>
      </trkpt>
      <trkpt lat="42.320671" lon="1.916583">
        <ele>2141.7</ele>
        <time>1970-01-01T02:28:03.000Z</time>
      </trkpt>
      <trkpt lat="42.320686" lon="1.916586">
        <ele>2141.1</ele>
        <time>1970-01-01T02:28:04.000Z</time>
      </trkpt>
      <trkpt lat="42.320702" lon="1.916604">
        <ele>2140.3</ele>
        <time>1970-01-01T02:28:05.000Z</time>
      </trkpt>
      <trkpt lat="42.320709" lon="1.916629">
        <ele>2139.6</ele>
        <time>1970-01-01T02:28:06.000Z</time>
      </trkpt>
      <trkpt lat="42.320705" lon="1.916654">
        <ele>2138.9</ele>
        <time>1970-01-01T02:28:07.000Z</time>
      </trkpt>
      <trkpt lat="42.320694" lon="1.91669">
        <ele>2137.9</ele>
        <time>1970-01-01T02:28:08.000Z</time>
      </trkpt>
      <trkpt lat="42.320682" lon="1.916725">
        <ele>2137</ele>
        <time>1970-01-01T02:28:09.000Z</time>
      </trkpt>
      <trkpt lat="42.320652" lon="1.916756">
        <ele>2135.8</ele>
        <time>1970-01-01T02:28:10.000Z</time>
      </trkpt>
      <trkpt lat="42.320621" lon="1.916782">
        <ele>2134.8</ele>
        <time>1970-01-01T02:28:11.000Z</time>
      </trkpt>
      <trkpt lat="42.320576" lon="1.916813">
        <ele>2133.5</ele>
        <time>1970-01-01T02:28:12.000Z</time>
      </trkpt>
      <trkpt lat="42.320534" lon="1.916842">
        <ele>2132.3</ele>
        <time>1970-01-01T02:28:13.000Z</time>
      </trkpt>
      <trkpt lat="42.320484" lon="1.916872">
        <ele>2131.1</ele>
        <time>1970-01-01T02:28:14.000Z</time>
      </trkpt>
      <trkpt lat="42.320435" lon="1.916903">
        <ele>2130.1</ele>
        <time>1970-01-01T02:28:15.000Z</time>
      </trkpt>
      <trkpt lat="42.320381" lon="1.916928">
        <ele>2129.1</ele>
        <time>1970-01-01T02:28:16.000Z</time>
      </trkpt>
      <trkpt lat="42.320324" lon="1.916943">
        <ele>2128.2</ele>
        <time>1970-01-01T02:28:17.000Z</time>
      </trkpt>
      <trkpt lat="42.320267" lon="1.916952">
        <ele>2127.4</ele>
        <time>1970-01-01T02:28:18.000Z</time>
      </trkpt>
      <trkpt lat="42.320221" lon="1.916958">
        <ele>2126.8</ele>
        <time>1970-01-01T02:28:19.000Z</time>
      </trkpt>
      <trkpt lat="42.320179" lon="1.916963">
        <ele>2126.2</ele>
        <time>1970-01-01T02:28:20.000Z</time>
      </trkpt>
      <trkpt lat="42.320145" lon="1.916974">
        <ele>2125.7</ele>
        <time>1970-01-01T02:28:21.000Z</time>
      </trkpt>
      <trkpt lat="42.320129" lon="1.917">
        <ele>2125.3</ele>
        <time>1970-01-01T02:28:22.000Z</time>
      </trkpt>
      <trkpt lat="42.320137" lon="1.917041">
        <ele>2124.8</ele>
        <time>1970-01-01T02:28:23.000Z</time>
      </trkpt>
      <trkpt lat="42.320175" lon="1.917072">
        <ele>2124</ele>
        <time>1970-01-01T02:28:24.000Z</time>
      </trkpt>
      <trkpt lat="42.320229" lon="1.917094">
        <ele>2123.1</ele>
        <time>1970-01-01T02:28:25.000Z</time>
      </trkpt>
      <trkpt lat="42.32029" lon="1.91712">
        <ele>2122</ele>
        <time>1970-01-01T02:28:26.000Z</time>
      </trkpt>
      <trkpt lat="42.320347" lon="1.917145">
        <ele>2121</ele>
        <time>1970-01-01T02:28:27.000Z</time>
      </trkpt>
      <trkpt lat="42.320408" lon="1.917167">
        <ele>2120</ele>
        <time>1970-01-01T02:28:28.000Z</time>
      </trkpt>
      <trkpt lat="42.320461" lon="1.917183">
        <ele>2119.2</ele>
        <time>1970-01-01T02:28:29.000Z</time>
      </trkpt>
      <trkpt lat="42.320518" lon="1.917195">
        <ele>2118.4</ele>
        <time>1970-01-01T02:28:30.000Z</time>
      </trkpt>
      <trkpt lat="42.320583" lon="1.917205">
        <ele>2117.5</ele>
        <time>1970-01-01T02:28:31.000Z</time>
      </trkpt>
      <trkpt lat="42.320644" lon="1.917204">
        <ele>2116.7</ele>
        <time>1970-01-01T02:28:32.000Z</time>
      </trkpt>
      <trkpt lat="42.320702" lon="1.917197">
        <ele>2116</ele>
        <time>1970-01-01T02:28:33.000Z</time>
      </trkpt>
      <trkpt lat="42.320755" lon="1.917198">
        <ele>2115.4</ele>
        <time>1970-01-01T02:28:34.000Z</time>
      </trkpt>
      <trkpt lat="42.320801" lon="1.917206">
        <ele>2114.8</ele>
        <time>1970-01-01T02:28:35.000Z</time>
      </trkpt>
      <trkpt lat="42.320847" lon="1.917205">
        <ele>2114.2</ele>
        <time>1970-01-01T02:28:36.000Z</time>
      </trkpt>
      <trkpt lat="42.320885" lon="1.917199">
        <ele>2113.6</ele>
        <time>1970-01-01T02:28:37.000Z</time>
      </trkpt>
      <trkpt lat="42.320911" lon="1.917195">
        <ele>2113.2</ele>
        <time>1970-01-01T02:28:38.000Z</time>
      </trkpt>
      <trkpt lat="42.320931" lon="1.917196">
        <ele>2112.8</ele>
        <time>1970-01-01T02:28:39.000Z</time>
      </trkpt>
      <trkpt lat="42.320942" lon="1.917197">
        <ele>2112.5</ele>
        <time>1970-01-01T02:28:40.000Z</time>
      </trkpt>
      <trkpt lat="42.320946" lon="1.917194">
        <ele>2112.4</ele>
        <time>1970-01-01T02:28:41.000Z</time>
      </trkpt>
      <trkpt lat="42.32095" lon="1.917192">
        <ele>2112.4</ele>
        <time>1970-01-01T02:28:42.000Z</time>
      </trkpt>
      <trkpt lat="42.32095" lon="1.917192">
        <ele>2112.4</ele>
        <time>1970-01-01T02:28:43.000Z</time>
      </trkpt>
      <trkpt lat="42.32095" lon="1.917192">
        <ele>2112.4</ele>
        <time>1970-01-01T02:28:44.000Z</time>
      </trkpt>
      <trkpt lat="42.32095" lon="1.917192">
        <ele>2112.4</ele>
        <time>1970-01-01T02:28:45.000Z</time>
      </trkpt>
      <trkpt lat="42.32095" lon="1.917192">
        <ele>2112.4</ele>
        <time>1970-01-01T02:28:46.000Z</time>
      </trkpt>
      <trkpt lat="42.32095" lon="1.917192">
        <ele>2112.4</ele>
        <time>1970-01-01T02:28:47.000Z</time>
      </trkpt>
      <trkpt lat="42.32095" lon="1.917192">
        <ele>2112.4</ele>
        <time>1970-01-01T02:28:48.000Z</time>
      </trkpt>
      <trkpt lat="42.32095" lon="1.917192">
        <ele>2112.4</ele>
        <time>1970-01-01T02:28:49.000Z</time>
      </trkpt>
      <trkpt lat="42.32095" lon="1.917192">
        <ele>2112.4</ele>
        <time>1970-01-01T02:28:50.000Z</time>
      </trkpt>
      <trkpt lat="42.32095" lon="1.917192">
        <ele>2112.4</ele>
        <time>1970-01-01T02:28:51.000Z</time>
      </trkpt>
      <trkpt lat="42.32095" lon="1.917192">
        <ele>2112.4</ele>
        <time>1970-01-01T02:28:52.000Z</time>
      </trkpt>
      <trkpt lat="42.32095" lon="1.917192">
        <ele>2112.4</ele>
        <time>1970-01-01T02:28:53.000Z</time>
      </trkpt>
      <trkpt lat="42.32095" lon="1.917192">
        <ele>2112.4</ele>
        <time>1970-01-01T02:28:54.000Z</time>
      </trkpt>
      <trkpt lat="42.32095" lon="1.917192">
        <ele>2112.4</ele>
        <time>1970-01-01T02:28:55.000Z</time>
      </trkpt>
      <trkpt lat="42.32095" lon="1.917192">
        <ele>2112.4</ele>
        <time>1970-01-01T02:28:56.000Z</time>
      </trkpt>
      <trkpt lat="42.32095" lon="1.917192">
        <ele>2112.4</ele>
        <time>1970-01-01T02:28:57.000Z</time>
      </trkpt>
      <trkpt lat="42.32095" lon="1.917192">
        <ele>2112.4</ele>
        <time>1970-01-01T02:28:58.000Z</time>
      </trkpt>
      <trkpt lat="42.32095" lon="1.917192">
        <ele>2112.4</ele>
        <time>1970-01-01T02:28:59.000Z</time>
      </trkpt>
      <trkpt lat="42.32095" lon="1.917192">
        <ele>2112.4</ele>
        <time>1970-01-01T02:29:00.000Z</time>
      </trkpt>
      <trkpt lat="42.32095" lon="1.917192">
        <ele>2112.4</ele>
        <time>1970-01-01T02:29:01.000Z</time>
      </trkpt>
      <trkpt lat="42.32095" lon="1.917192">
        <ele>2112.4</ele>
        <time>1970-01-01T02:29:02.000Z</time>
      </trkpt>
      <trkpt lat="42.32095" lon="1.917192">
        <ele>2112.4</ele>
        <time>1970-01-01T02:29:03.000Z</time>
      </trkpt>
      <trkpt lat="42.32095" lon="1.917192">
        <ele>2112.4</ele>
        <time>1970-01-01T02:29:04.000Z</time>
      </trkpt>
      <trkpt lat="42.32095" lon="1.917192">
        <ele>2112.4</ele>
        <time>1970-01-01T02:29:05.000Z</time>
      </trkpt>
      <trkpt lat="42.32095" lon="1.917192">
        <ele>2112.4</ele>
        <time>1970-01-01T02:29:06.000Z</time>
      </trkpt>
      <trkpt lat="42.32095" lon="1.917192">
        <ele>2112.4</ele>
        <time>1970-01-01T02:29:07.000Z</time>
      </trkpt>
      <trkpt lat="42.320972" lon="1.917204">
        <ele>2111.8</ele>
        <time>1970-01-01T02:29:08.000Z</time>
      </trkpt>
      <trkpt lat="42.320988" lon="1.917218">
        <ele>2111.1</ele>
        <time>1970-01-01T02:29:09.000Z</time>
      </trkpt>
      <trkpt lat="42.321003" lon="1.917223">
        <ele>2110.8</ele>
        <time>1970-01-01T02:29:10.000Z</time>
      </trkpt>
      <trkpt lat="42.321022" lon="1.917216">
        <ele>2110.5</ele>
        <time>1970-01-01T02:29:11.000Z</time>
      </trkpt>
      <trkpt lat="42.321045" lon="1.917205">
        <ele>2110.1</ele>
        <time>1970-01-01T02:29:12.000Z</time>
      </trkpt>
      <trkpt lat="42.321075" lon="1.917198">
        <ele>2109.6</ele>
        <time>1970-01-01T02:29:13.000Z</time>
      </trkpt>
      <trkpt lat="42.321102" lon="1.917198">
        <ele>2109.1</ele>
        <time>1970-01-01T02:29:14.000Z</time>
      </trkpt>
      <trkpt lat="42.321121" lon="1.91721">
        <ele>2108.7</ele>
        <time>1970-01-01T02:29:15.000Z</time>
      </trkpt>
      <trkpt lat="42.321136" lon="1.917228">
        <ele>2108.3</ele>
        <time>1970-01-01T02:29:16.000Z</time>
      </trkpt>
      <trkpt lat="42.321152" lon="1.917251">
        <ele>2107.8</ele>
        <time>1970-01-01T02:29:17.000Z</time>
      </trkpt>
      <trkpt lat="42.321159" lon="1.917278">
        <ele>2107.3</ele>
        <time>1970-01-01T02:29:18.000Z</time>
      </trkpt>
      <trkpt lat="42.321163" lon="1.917315">
        <ele>2106.7</ele>
        <time>1970-01-01T02:29:19.000Z</time>
      </trkpt>
      <trkpt lat="42.321175" lon="1.917351">
        <ele>2106</ele>
        <time>1970-01-01T02:29:20.000Z</time>
      </trkpt>
      <trkpt lat="42.321186" lon="1.917385">
        <ele>2105.4</ele>
        <time>1970-01-01T02:29:21.000Z</time>
      </trkpt>
      <trkpt lat="42.321213" lon="1.917416">
        <ele>2104.6</ele>
        <time>1970-01-01T02:29:22.000Z</time>
      </trkpt>
      <trkpt lat="42.321243" lon="1.917441">
        <ele>2103.9</ele>
        <time>1970-01-01T02:29:23.000Z</time>
      </trkpt>
      <trkpt lat="42.321278" lon="1.917464">
        <ele>2103.1</ele>
        <time>1970-01-01T02:29:24.000Z</time>
      </trkpt>
      <trkpt lat="42.321304" lon="1.917485">
        <ele>2102.4</ele>
        <time>1970-01-01T02:29:25.000Z</time>
      </trkpt>
      <trkpt lat="42.321339" lon="1.917513">
        <ele>2101.6</ele>
        <time>1970-01-01T02:29:26.000Z</time>
      </trkpt>
      <trkpt lat="42.321377" lon="1.917541">
        <ele>2100.8</ele>
        <time>1970-01-01T02:29:27.000Z</time>
      </trkpt>
      <trkpt lat="42.321419" lon="1.917569">
        <ele>2099.8</ele>
        <time>1970-01-01T02:29:28.000Z</time>
      </trkpt>
      <trkpt lat="42.321461" lon="1.917595">
        <ele>2098.8</ele>
        <time>1970-01-01T02:29:29.000Z</time>
      </trkpt>
      <trkpt lat="42.321503" lon="1.917627">
        <ele>2097.8</ele>
        <time>1970-01-01T02:29:30.000Z</time>
      </trkpt>
      <trkpt lat="42.321545" lon="1.917656">
        <ele>2096.9</ele>
        <time>1970-01-01T02:29:31.000Z</time>
      </trkpt>
      <trkpt lat="42.321594" lon="1.917685">
        <ele>2095.8</ele>
        <time>1970-01-01T02:29:32.000Z</time>
      </trkpt>
      <trkpt lat="42.321636" lon="1.917709">
        <ele>2094.9</ele>
        <time>1970-01-01T02:29:33.000Z</time>
      </trkpt>
      <trkpt lat="42.321686" lon="1.917733">
        <ele>2093.9</ele>
        <time>1970-01-01T02:29:34.000Z</time>
      </trkpt>
      <trkpt lat="42.321728" lon="1.91776">
        <ele>2093</ele>
        <time>1970-01-01T02:29:35.000Z</time>
      </trkpt>
      <trkpt lat="42.32177" lon="1.917793">
        <ele>2092</ele>
        <time>1970-01-01T02:29:36.000Z</time>
      </trkpt>
      <trkpt lat="42.321796" lon="1.917827">
        <ele>2091.1</ele>
        <time>1970-01-01T02:29:37.000Z</time>
      </trkpt>
      <trkpt lat="42.321819" lon="1.917862">
        <ele>2090.3</ele>
        <time>1970-01-01T02:29:38.000Z</time>
      </trkpt>
      <trkpt lat="42.321846" lon="1.917896">
        <ele>2089.2</ele>
        <time>1970-01-01T02:29:39.000Z</time>
      </trkpt>
      <trkpt lat="42.321865" lon="1.917926">
        <ele>2088.4</ele>
        <time>1970-01-01T02:29:40.000Z</time>
      </trkpt>
      <trkpt lat="42.321888" lon="1.917953">
        <ele>2087.3</ele>
        <time>1970-01-01T02:29:41.000Z</time>
      </trkpt>
      <trkpt lat="42.321899" lon="1.917978">
        <ele>2086.6</ele>
        <time>1970-01-01T02:29:42.000Z</time>
      </trkpt>
      <trkpt lat="42.321915" lon="1.917999">
        <ele>2085.8</ele>
        <time>1970-01-01T02:29:43.000Z</time>
      </trkpt>
      <trkpt lat="42.321915" lon="1.918012">
        <ele>2085.4</ele>
        <time>1970-01-01T02:29:44.000Z</time>
      </trkpt>
      <trkpt lat="42.321915" lon="1.91801">
        <ele>2085.4</ele>
        <time>1970-01-01T02:29:45.000Z</time>
      </trkpt>
      <trkpt lat="42.321911" lon="1.918007">
        <ele>2085.2</ele>
        <time>1970-01-01T02:29:46.000Z</time>
      </trkpt>
      <trkpt lat="42.321911" lon="1.918007">
        <ele>2085.2</ele>
        <time>1970-01-01T02:29:47.000Z</time>
      </trkpt>
      <trkpt lat="42.321911" lon="1.918007">
        <ele>2085.2</ele>
        <time>1970-01-01T02:29:48.000Z</time>
      </trkpt>
      <trkpt lat="42.321911" lon="1.918007">
        <ele>2085.2</ele>
        <time>1970-01-01T02:29:49.000Z</time>
      </trkpt>
      <trkpt lat="42.321911" lon="1.918007">
        <ele>2085.2</ele>
        <time>1970-01-01T02:29:50.000Z</time>
      </trkpt>
      <trkpt lat="42.321911" lon="1.918007">
        <ele>2085.2</ele>
        <time>1970-01-01T02:29:51.000Z</time>
      </trkpt>
      <trkpt lat="42.321911" lon="1.918007">
        <ele>2085.2</ele>
        <time>1970-01-01T02:29:52.000Z</time>
      </trkpt>
      <trkpt lat="42.321911" lon="1.918007">
        <ele>2085.2</ele>
        <time>1970-01-01T02:29:53.000Z</time>
      </trkpt>
      <trkpt lat="42.321911" lon="1.918007">
        <ele>2085.2</ele>
        <time>1970-01-01T02:29:54.000Z</time>
      </trkpt>
      <trkpt lat="42.321911" lon="1.918007">
        <ele>2085.2</ele>
        <time>1970-01-01T02:29:55.000Z</time>
      </trkpt>
      <trkpt lat="42.321911" lon="1.918007">
        <ele>2085.2</ele>
        <time>1970-01-01T02:29:56.000Z</time>
      </trkpt>
      <trkpt lat="42.321911" lon="1.918007">
        <ele>2085.2</ele>
        <time>1970-01-01T02:29:57.000Z</time>
      </trkpt>
      <trkpt lat="42.321892" lon="1.918038">
        <ele>2084.1</ele>
        <time>1970-01-01T02:29:58.000Z</time>
      </trkpt>
      <trkpt lat="42.321884" lon="1.91806">
        <ele>2083.5</ele>
        <time>1970-01-01T02:29:59.000Z</time>
      </trkpt>
      <trkpt lat="42.321876" lon="1.918084">
        <ele>2082.8</ele>
        <time>1970-01-01T02:30:00.000Z</time>
      </trkpt>
      <trkpt lat="42.321873" lon="1.918104">
        <ele>2082.3</ele>
        <time>1970-01-01T02:30:01.000Z</time>
      </trkpt>
      <trkpt lat="42.321873" lon="1.918126">
        <ele>2081.7</ele>
        <time>1970-01-01T02:30:02.000Z</time>
      </trkpt>
      <trkpt lat="42.321865" lon="1.918156">
        <ele>2081</ele>
        <time>1970-01-01T02:30:03.000Z</time>
      </trkpt>
      <trkpt lat="42.321861" lon="1.918188">
        <ele>2080.3</ele>
        <time>1970-01-01T02:30:04.000Z</time>
      </trkpt>
      <trkpt lat="42.321865" lon="1.918228">
        <ele>2079.5</ele>
        <time>1970-01-01T02:30:05.000Z</time>
      </trkpt>
      <trkpt lat="42.321873" lon="1.91827">
        <ele>2078.6</ele>
        <time>1970-01-01T02:30:06.000Z</time>
      </trkpt>
      <trkpt lat="42.321876" lon="1.918314">
        <ele>2077.7</ele>
        <time>1970-01-01T02:30:07.000Z</time>
      </trkpt>
      <trkpt lat="42.321884" lon="1.918359">
        <ele>2076.8</ele>
        <time>1970-01-01T02:30:08.000Z</time>
      </trkpt>
      <trkpt lat="42.321896" lon="1.91841">
        <ele>2075.6</ele>
        <time>1970-01-01T02:30:09.000Z</time>
      </trkpt>
      <trkpt lat="42.321907" lon="1.918449">
        <ele>2074.7</ele>
        <time>1970-01-01T02:30:10.000Z</time>
      </trkpt>
      <trkpt lat="42.321918" lon="1.918482">
        <ele>2073.8</ele>
        <time>1970-01-01T02:30:11.000Z</time>
      </trkpt>
      <trkpt lat="42.321938" lon="1.918511">
        <ele>2072.9</ele>
        <time>1970-01-01T02:30:12.000Z</time>
      </trkpt>
      <trkpt lat="42.32196" lon="1.918527">
        <ele>2072</ele>
        <time>1970-01-01T02:30:13.000Z</time>
      </trkpt>
      <trkpt lat="42.321991" lon="1.918534">
        <ele>2071</ele>
        <time>1970-01-01T02:30:14.000Z</time>
      </trkpt>
      <trkpt lat="42.322014" lon="1.918541">
        <ele>2070.1</ele>
        <time>1970-01-01T02:30:15.000Z</time>
      </trkpt>
      <trkpt lat="42.322041" lon="1.91855">
        <ele>2069.2</ele>
        <time>1970-01-01T02:30:16.000Z</time>
      </trkpt>
      <trkpt lat="42.322063" lon="1.918563">
        <ele>2068.4</ele>
        <time>1970-01-01T02:30:17.000Z</time>
      </trkpt>
      <trkpt lat="42.322083" lon="1.918584">
        <ele>2067.5</ele>
        <time>1970-01-01T02:30:18.000Z</time>
      </trkpt>
      <trkpt lat="42.322094" lon="1.918605">
        <ele>2066.9</ele>
        <time>1970-01-01T02:30:19.000Z</time>
      </trkpt>
      <trkpt lat="42.322102" lon="1.918629">
        <ele>2066.2</ele>
        <time>1970-01-01T02:30:20.000Z</time>
      </trkpt>
      <trkpt lat="42.322117" lon="1.918658">
        <ele>2065.3</ele>
        <time>1970-01-01T02:30:21.000Z</time>
      </trkpt>
      <trkpt lat="42.322132" lon="1.918686">
        <ele>2064.5</ele>
        <time>1970-01-01T02:30:22.000Z</time>
      </trkpt>
      <trkpt lat="42.322147" lon="1.918709">
        <ele>2063.8</ele>
        <time>1970-01-01T02:30:23.000Z</time>
      </trkpt>
      <trkpt lat="42.322159" lon="1.918728">
        <ele>2063.2</ele>
        <time>1970-01-01T02:30:24.000Z</time>
      </trkpt>
      <trkpt lat="42.32217" lon="1.91875">
        <ele>2062.6</ele>
        <time>1970-01-01T02:30:25.000Z</time>
      </trkpt>
      <trkpt lat="42.322178" lon="1.918771">
        <ele>2062.1</ele>
        <time>1970-01-01T02:30:26.000Z</time>
      </trkpt>
      <trkpt lat="42.322193" lon="1.918791">
        <ele>2061.5</ele>
        <time>1970-01-01T02:30:27.000Z</time>
      </trkpt>
      <trkpt lat="42.322208" lon="1.918806">
        <ele>2060.9</ele>
        <time>1970-01-01T02:30:28.000Z</time>
      </trkpt>
      <trkpt lat="42.322227" lon="1.918819">
        <ele>2060.3</ele>
        <time>1970-01-01T02:30:29.000Z</time>
      </trkpt>
      <trkpt lat="42.32225" lon="1.918819">
        <ele>2059.6</ele>
        <time>1970-01-01T02:30:30.000Z</time>
      </trkpt>
      <trkpt lat="42.322285" lon="1.918808">
        <ele>2058.6</ele>
        <time>1970-01-01T02:30:31.000Z</time>
      </trkpt>
      <trkpt lat="42.322319" lon="1.918779">
        <ele>2057.5</ele>
        <time>1970-01-01T02:30:32.000Z</time>
      </trkpt>
      <trkpt lat="42.32235" lon="1.918736">
        <ele>2056.2</ele>
        <time>1970-01-01T02:30:33.000Z</time>
      </trkpt>
      <trkpt lat="42.322369" lon="1.918698">
        <ele>2055.2</ele>
        <time>1970-01-01T02:30:34.000Z</time>
      </trkpt>
      <trkpt lat="42.322384" lon="1.918668">
        <ele>2054.4</ele>
        <time>1970-01-01T02:30:35.000Z</time>
      </trkpt>
      <trkpt lat="42.322395" lon="1.918638">
        <ele>2053.6</ele>
        <time>1970-01-01T02:30:36.000Z</time>
      </trkpt>
      <trkpt lat="42.322407" lon="1.918609">
        <ele>2052.9</ele>
        <time>1970-01-01T02:30:37.000Z</time>
      </trkpt>
      <trkpt lat="42.322418" lon="1.918592">
        <ele>2052.3</ele>
        <time>1970-01-01T02:30:38.000Z</time>
      </trkpt>
      <trkpt lat="42.32243" lon="1.918596">
        <ele>2052</ele>
        <time>1970-01-01T02:30:39.000Z</time>
      </trkpt>
      <trkpt lat="42.322445" lon="1.918617">
        <ele>2051.3</ele>
        <time>1970-01-01T02:30:40.000Z</time>
      </trkpt>
      <trkpt lat="42.322445" lon="1.918659">
        <ele>2050.4</ele>
        <time>1970-01-01T02:30:41.000Z</time>
      </trkpt>
      <trkpt lat="42.322453" lon="1.918707">
        <ele>2049.4</ele>
        <time>1970-01-01T02:30:42.000Z</time>
      </trkpt>
      <trkpt lat="42.322453" lon="1.918767">
        <ele>2048.4</ele>
        <time>1970-01-01T02:30:43.000Z</time>
      </trkpt>
      <trkpt lat="42.322449" lon="1.918823">
        <ele>2047.5</ele>
        <time>1970-01-01T02:30:44.000Z</time>
      </trkpt>
      <trkpt lat="42.322441" lon="1.918881">
        <ele>2046.6</ele>
        <time>1970-01-01T02:30:45.000Z</time>
      </trkpt>
      <trkpt lat="42.322437" lon="1.918929">
        <ele>2045.9</ele>
        <time>1970-01-01T02:30:46.000Z</time>
      </trkpt>
      <trkpt lat="42.322441" lon="1.918983">
        <ele>2045.2</ele>
        <time>1970-01-01T02:30:47.000Z</time>
      </trkpt>
      <trkpt lat="42.322445" lon="1.919028">
        <ele>2044.5</ele>
        <time>1970-01-01T02:30:48.000Z</time>
      </trkpt>
      <trkpt lat="42.322441" lon="1.919077">
        <ele>2043.8</ele>
        <time>1970-01-01T02:30:49.000Z</time>
      </trkpt>
      <trkpt lat="42.322441" lon="1.91912">
        <ele>2043.2</ele>
        <time>1970-01-01T02:30:50.000Z</time>
      </trkpt>
      <trkpt lat="42.322449" lon="1.919164">
        <ele>2042.6</ele>
        <time>1970-01-01T02:30:51.000Z</time>
      </trkpt>
      <trkpt lat="42.32246" lon="1.919198">
        <ele>2042</ele>
        <time>1970-01-01T02:30:52.000Z</time>
      </trkpt>
      <trkpt lat="42.322468" lon="1.919232">
        <ele>2041.4</ele>
        <time>1970-01-01T02:30:53.000Z</time>
      </trkpt>
      <trkpt lat="42.322479" lon="1.919261">
        <ele>2040.9</ele>
        <time>1970-01-01T02:30:54.000Z</time>
      </trkpt>
      <trkpt lat="42.322487" lon="1.919287">
        <ele>2040.4</ele>
        <time>1970-01-01T02:30:55.000Z</time>
      </trkpt>
      <trkpt lat="42.322498" lon="1.919313">
        <ele>2039.8</ele>
        <time>1970-01-01T02:30:56.000Z</time>
      </trkpt>
      <trkpt lat="42.322506" lon="1.919341">
        <ele>2039.3</ele>
        <time>1970-01-01T02:30:57.000Z</time>
      </trkpt>
      <trkpt lat="42.322517" lon="1.91937">
        <ele>2038.6</ele>
        <time>1970-01-01T02:30:58.000Z</time>
      </trkpt>
      <trkpt lat="42.322525" lon="1.919395">
        <ele>2038.1</ele>
        <time>1970-01-01T02:30:59.000Z</time>
      </trkpt>
      <trkpt lat="42.322533" lon="1.919419">
        <ele>2037.5</ele>
        <time>1970-01-01T02:31:00.000Z</time>
      </trkpt>
      <trkpt lat="42.322533" lon="1.919447">
        <ele>2036.9</ele>
        <time>1970-01-01T02:31:01.000Z</time>
      </trkpt>
      <trkpt lat="42.322533" lon="1.91948">
        <ele>2036.2</ele>
        <time>1970-01-01T02:31:02.000Z</time>
      </trkpt>
      <trkpt lat="42.322521" lon="1.919512">
        <ele>2035.4</ele>
        <time>1970-01-01T02:31:03.000Z</time>
      </trkpt>
      <trkpt lat="42.32251" lon="1.919543">
        <ele>2034.7</ele>
        <time>1970-01-01T02:31:04.000Z</time>
      </trkpt>
      <trkpt lat="42.322498" lon="1.919576">
        <ele>2033.9</ele>
        <time>1970-01-01T02:31:05.000Z</time>
      </trkpt>
      <trkpt lat="42.322502" lon="1.919601">
        <ele>2033.3</ele>
        <time>1970-01-01T02:31:06.000Z</time>
      </trkpt>
      <trkpt lat="42.322517" lon="1.919621">
        <ele>2032.8</ele>
        <time>1970-01-01T02:31:07.000Z</time>
      </trkpt>
      <trkpt lat="42.322548" lon="1.919626">
        <ele>2032</ele>
        <time>1970-01-01T02:31:08.000Z</time>
      </trkpt>
      <trkpt lat="42.322578" lon="1.919622">
        <ele>2031.2</ele>
        <time>1970-01-01T02:31:09.000Z</time>
      </trkpt>
      <trkpt lat="42.322617" lon="1.919614">
        <ele>2030.3</ele>
        <time>1970-01-01T02:31:10.000Z</time>
      </trkpt>
      <trkpt lat="42.322655" lon="1.919603">
        <ele>2029.4</ele>
        <time>1970-01-01T02:31:11.000Z</time>
      </trkpt>
      <trkpt lat="42.322701" lon="1.919586">
        <ele>2028.3</ele>
        <time>1970-01-01T02:31:12.000Z</time>
      </trkpt>
      <trkpt lat="42.322735" lon="1.919558">
        <ele>2027.4</ele>
        <time>1970-01-01T02:31:13.000Z</time>
      </trkpt>
      <trkpt lat="42.322769" lon="1.919513">
        <ele>2026.3</ele>
        <time>1970-01-01T02:31:14.000Z</time>
      </trkpt>
      <trkpt lat="42.322796" lon="1.919458">
        <ele>2025.4</ele>
        <time>1970-01-01T02:31:15.000Z</time>
      </trkpt>
      <trkpt lat="42.322811" lon="1.919391">
        <ele>2024.6</ele>
        <time>1970-01-01T02:31:16.000Z</time>
      </trkpt>
      <trkpt lat="42.322834" lon="1.919323">
        <ele>2023.8</ele>
        <time>1970-01-01T02:31:17.000Z</time>
      </trkpt>
      <trkpt lat="42.322857" lon="1.919257">
        <ele>2023.2</ele>
        <time>1970-01-01T02:31:18.000Z</time>
      </trkpt>
      <trkpt lat="42.322876" lon="1.919188">
        <ele>2022.6</ele>
        <time>1970-01-01T02:31:19.000Z</time>
      </trkpt>
      <trkpt lat="42.322903" lon="1.919121">
        <ele>2022</ele>
        <time>1970-01-01T02:31:20.000Z</time>
      </trkpt>
      <trkpt lat="42.322926" lon="1.919047">
        <ele>2021.5</ele>
        <time>1970-01-01T02:31:21.000Z</time>
      </trkpt>
      <trkpt lat="42.322948" lon="1.918975">
        <ele>2021</ele>
        <time>1970-01-01T02:31:22.000Z</time>
      </trkpt>
      <trkpt lat="42.322968" lon="1.918899">
        <ele>2020.5</ele>
        <time>1970-01-01T02:31:23.000Z</time>
      </trkpt>
      <trkpt lat="42.322983" lon="1.918826">
        <ele>2020.1</ele>
        <time>1970-01-01T02:31:24.000Z</time>
      </trkpt>
      <trkpt lat="42.322998" lon="1.918754">
        <ele>2019.8</ele>
        <time>1970-01-01T02:31:25.000Z</time>
      </trkpt>
      <trkpt lat="42.323009" lon="1.918686">
        <ele>2019.6</ele>
        <time>1970-01-01T02:31:26.000Z</time>
      </trkpt>
      <trkpt lat="42.323021" lon="1.918616">
        <ele>2019.3</ele>
        <time>1970-01-01T02:31:27.000Z</time>
      </trkpt>
      <trkpt lat="42.323036" lon="1.918545">
        <ele>2019.2</ele>
        <time>1970-01-01T02:31:28.000Z</time>
      </trkpt>
      <trkpt lat="42.323051" lon="1.918483">
        <ele>2019</ele>
        <time>1970-01-01T02:31:29.000Z</time>
      </trkpt>
      <trkpt lat="42.323074" lon="1.918417">
        <ele>2018.8</ele>
        <time>1970-01-01T02:31:30.000Z</time>
      </trkpt>
      <trkpt lat="42.323101" lon="1.918354">
        <ele>2018.6</ele>
        <time>1970-01-01T02:31:31.000Z</time>
      </trkpt>
      <trkpt lat="42.323132" lon="1.918288">
        <ele>2018.4</ele>
        <time>1970-01-01T02:31:32.000Z</time>
      </trkpt>
      <trkpt lat="42.323158" lon="1.918226">
        <ele>2018.1</ele>
        <time>1970-01-01T02:31:33.000Z</time>
      </trkpt>
      <trkpt lat="42.323185" lon="1.918174">
        <ele>2017.9</ele>
        <time>1970-01-01T02:31:34.000Z</time>
      </trkpt>
      <trkpt lat="42.323212" lon="1.918117">
        <ele>2017.6</ele>
        <time>1970-01-01T02:31:35.000Z</time>
      </trkpt>
      <trkpt lat="42.323238" lon="1.918061">
        <ele>2017.3</ele>
        <time>1970-01-01T02:31:36.000Z</time>
      </trkpt>
      <trkpt lat="42.323265" lon="1.918004">
        <ele>2016.9</ele>
        <time>1970-01-01T02:31:37.000Z</time>
      </trkpt>
      <trkpt lat="42.323292" lon="1.917956">
        <ele>2016.4</ele>
        <time>1970-01-01T02:31:38.000Z</time>
      </trkpt>
      <trkpt lat="42.323322" lon="1.917926">
        <ele>2015.9</ele>
        <time>1970-01-01T02:31:39.000Z</time>
      </trkpt>
      <trkpt lat="42.323345" lon="1.917913">
        <ele>2015.5</ele>
        <time>1970-01-01T02:31:40.000Z</time>
      </trkpt>
      <trkpt lat="42.323353" lon="1.917932">
        <ele>2015.3</ele>
        <time>1970-01-01T02:31:41.000Z</time>
      </trkpt>
      <trkpt lat="42.323353" lon="1.917949">
        <ele>2015.1</ele>
        <time>1970-01-01T02:31:42.000Z</time>
      </trkpt>
      <trkpt lat="42.323345" lon="1.917973">
        <ele>2014.8</ele>
        <time>1970-01-01T02:31:43.000Z</time>
      </trkpt>
      <trkpt lat="42.323338" lon="1.91801">
        <ele>2014.3</ele>
        <time>1970-01-01T02:31:44.000Z</time>
      </trkpt>
      <trkpt lat="42.32333" lon="1.918062">
        <ele>2013.6</ele>
        <time>1970-01-01T02:31:45.000Z</time>
      </trkpt>
      <trkpt lat="42.323319" lon="1.918137">
        <ele>2012.6</ele>
        <time>1970-01-01T02:31:46.000Z</time>
      </trkpt>
      <trkpt lat="42.323299" lon="1.918211">
        <ele>2011.7</ele>
        <time>1970-01-01T02:31:47.000Z</time>
      </trkpt>
      <trkpt lat="42.323284" lon="1.918287">
        <ele>2010.8</ele>
        <time>1970-01-01T02:31:48.000Z</time>
      </trkpt>
      <trkpt lat="42.323273" lon="1.918367">
        <ele>2010</ele>
        <time>1970-01-01T02:31:49.000Z</time>
      </trkpt>
      <trkpt lat="42.323257" lon="1.918455">
        <ele>2009.1</ele>
        <time>1970-01-01T02:31:50.000Z</time>
      </trkpt>
      <trkpt lat="42.32325" lon="1.918536">
        <ele>2008.3</ele>
        <time>1970-01-01T02:31:51.000Z</time>
      </trkpt>
      <trkpt lat="42.323246" lon="1.9186">
        <ele>2007.7</ele>
        <time>1970-01-01T02:31:52.000Z</time>
      </trkpt>
      <trkpt lat="42.323246" lon="1.918661">
        <ele>2007</ele>
        <time>1970-01-01T02:31:53.000Z</time>
      </trkpt>
      <trkpt lat="42.323246" lon="1.918718">
        <ele>2006.3</ele>
        <time>1970-01-01T02:31:54.000Z</time>
      </trkpt>
      <trkpt lat="42.323246" lon="1.918783">
        <ele>2005.6</ele>
        <time>1970-01-01T02:31:55.000Z</time>
      </trkpt>
      <trkpt lat="42.323246" lon="1.918843">
        <ele>2004.8</ele>
        <time>1970-01-01T02:31:56.000Z</time>
      </trkpt>
      <trkpt lat="42.323242" lon="1.918901">
        <ele>2004.1</ele>
        <time>1970-01-01T02:31:57.000Z</time>
      </trkpt>
      <trkpt lat="42.323242" lon="1.918949">
        <ele>2003.5</ele>
        <time>1970-01-01T02:31:58.000Z</time>
      </trkpt>
      <trkpt lat="42.323238" lon="1.918988">
        <ele>2003</ele>
        <time>1970-01-01T02:31:59.000Z</time>
      </trkpt>
      <trkpt lat="42.323235" lon="1.919023">
        <ele>2002.6</ele>
        <time>1970-01-01T02:32:00.000Z</time>
      </trkpt>
      <trkpt lat="42.323235" lon="1.919062">
        <ele>2002.1</ele>
        <time>1970-01-01T02:32:01.000Z</time>
      </trkpt>
      <trkpt lat="42.323238" lon="1.919103">
        <ele>2001.5</ele>
        <time>1970-01-01T02:32:02.000Z</time>
      </trkpt>
      <trkpt lat="42.323238" lon="1.919149">
        <ele>2000.9</ele>
        <time>1970-01-01T02:32:03.000Z</time>
      </trkpt>
      <trkpt lat="42.323246" lon="1.919207">
        <ele>2000.1</ele>
        <time>1970-01-01T02:32:04.000Z</time>
      </trkpt>
      <trkpt lat="42.32325" lon="1.919267">
        <ele>1999.3</ele>
        <time>1970-01-01T02:32:05.000Z</time>
      </trkpt>
      <trkpt lat="42.323265" lon="1.919346">
        <ele>1998.1</ele>
        <time>1970-01-01T02:32:06.000Z</time>
      </trkpt>
      <trkpt lat="42.323277" lon="1.919412">
        <ele>1997.2</ele>
        <time>1970-01-01T02:32:07.000Z</time>
      </trkpt>
      <trkpt lat="42.323284" lon="1.919483">
        <ele>1996.2</ele>
        <time>1970-01-01T02:32:08.000Z</time>
      </trkpt>
      <trkpt lat="42.323296" lon="1.919555">
        <ele>1995.2</ele>
        <time>1970-01-01T02:32:09.000Z</time>
      </trkpt>
      <trkpt lat="42.323303" lon="1.919622">
        <ele>1994.3</ele>
        <time>1970-01-01T02:32:10.000Z</time>
      </trkpt>
      <trkpt lat="42.323311" lon="1.919704">
        <ele>1993.2</ele>
        <time>1970-01-01T02:32:11.000Z</time>
      </trkpt>
      <trkpt lat="42.323322" lon="1.919788">
        <ele>1992.1</ele>
        <time>1970-01-01T02:32:12.000Z</time>
      </trkpt>
      <trkpt lat="42.323334" lon="1.91988">
        <ele>1990.9</ele>
        <time>1970-01-01T02:32:13.000Z</time>
      </trkpt>
      <trkpt lat="42.323349" lon="1.91998">
        <ele>1989.6</ele>
        <time>1970-01-01T02:32:14.000Z</time>
      </trkpt>
      <trkpt lat="42.323368" lon="1.920082">
        <ele>1988.4</ele>
        <time>1970-01-01T02:32:15.000Z</time>
      </trkpt>
      <trkpt lat="42.323383" lon="1.920179">
        <ele>1987.2</ele>
        <time>1970-01-01T02:32:16.000Z</time>
      </trkpt>
      <trkpt lat="42.323399" lon="1.920284">
        <ele>1985.9</ele>
        <time>1970-01-01T02:32:17.000Z</time>
      </trkpt>
      <trkpt lat="42.323421" lon="1.920392">
        <ele>1984.5</ele>
        <time>1970-01-01T02:32:18.000Z</time>
      </trkpt>
      <trkpt lat="42.323448" lon="1.920496">
        <ele>1983.1</ele>
        <time>1970-01-01T02:32:19.000Z</time>
      </trkpt>
      <trkpt lat="42.323471" lon="1.920582">
        <ele>1981.9</ele>
        <time>1970-01-01T02:32:20.000Z</time>
      </trkpt>
      <trkpt lat="42.32349" lon="1.920669">
        <ele>1980.8</ele>
        <time>1970-01-01T02:32:21.000Z</time>
      </trkpt>
      <trkpt lat="42.323505" lon="1.92075">
        <ele>1979.8</ele>
        <time>1970-01-01T02:32:22.000Z</time>
      </trkpt>
      <trkpt lat="42.323521" lon="1.920828">
        <ele>1978.9</ele>
        <time>1970-01-01T02:32:23.000Z</time>
      </trkpt>
      <trkpt lat="42.32354" lon="1.920898">
        <ele>1978.1</ele>
        <time>1970-01-01T02:32:24.000Z</time>
      </trkpt>
      <trkpt lat="42.323563" lon="1.92095">
        <ele>1977.4</ele>
        <time>1970-01-01T02:32:25.000Z</time>
      </trkpt>
      <trkpt lat="42.323593" lon="1.920988">
        <ele>1976.7</ele>
        <time>1970-01-01T02:32:26.000Z</time>
      </trkpt>
      <trkpt lat="42.323627" lon="1.921012">
        <ele>1976.1</ele>
        <time>1970-01-01T02:32:27.000Z</time>
      </trkpt>
      <trkpt lat="42.323666" lon="1.921012">
        <ele>1975.3</ele>
        <time>1970-01-01T02:32:28.000Z</time>
      </trkpt>
      <trkpt lat="42.323696" lon="1.920988">
        <ele>1974.7</ele>
        <time>1970-01-01T02:32:29.000Z</time>
      </trkpt>
      <trkpt lat="42.32373" lon="1.920949">
        <ele>1973.9</ele>
        <time>1970-01-01T02:32:30.000Z</time>
      </trkpt>
      <trkpt lat="42.323761" lon="1.920902">
        <ele>1973</ele>
        <time>1970-01-01T02:32:31.000Z</time>
      </trkpt>
      <trkpt lat="42.323803" lon="1.920844">
        <ele>1971.9</ele>
        <time>1970-01-01T02:32:32.000Z</time>
      </trkpt>
      <trkpt lat="42.323833" lon="1.920787">
        <ele>1970.9</ele>
        <time>1970-01-01T02:32:33.000Z</time>
      </trkpt>
      <trkpt lat="42.323856" lon="1.92074">
        <ele>1970.1</ele>
        <time>1970-01-01T02:32:34.000Z</time>
      </trkpt>
      <trkpt lat="42.323883" lon="1.920685">
        <ele>1969.3</ele>
        <time>1970-01-01T02:32:35.000Z</time>
      </trkpt>
      <trkpt lat="42.323902" lon="1.920644">
        <ele>1968.7</ele>
        <time>1970-01-01T02:32:36.000Z</time>
      </trkpt>
      <trkpt lat="42.323917" lon="1.92061">
        <ele>1968.2</ele>
        <time>1970-01-01T02:32:37.000Z</time>
      </trkpt>
      <trkpt lat="42.323929" lon="1.920578">
        <ele>1967.7</ele>
        <time>1970-01-01T02:32:38.000Z</time>
      </trkpt>
      <trkpt lat="42.323925" lon="1.920538">
        <ele>1967.2</ele>
        <time>1970-01-01T02:32:39.000Z</time>
      </trkpt>
      <trkpt lat="42.323929" lon="1.92049">
        <ele>1966.5</ele>
        <time>1970-01-01T02:32:40.000Z</time>
      </trkpt>
      <trkpt lat="42.323929" lon="1.920433">
        <ele>1966.2</ele>
        <time>1970-01-01T02:32:41.000Z</time>
      </trkpt>
      <trkpt lat="42.323925" lon="1.920357">
        <ele>1965.8</ele>
        <time>1970-01-01T02:32:42.000Z</time>
      </trkpt>
      <trkpt lat="42.323936" lon="1.920269">
        <ele>1965.2</ele>
        <time>1970-01-01T02:32:43.000Z</time>
      </trkpt>
      <trkpt lat="42.32394" lon="1.920169">
        <ele>1964.7</ele>
        <time>1970-01-01T02:32:44.000Z</time>
      </trkpt>
      <trkpt lat="42.323944" lon="1.920068">
        <ele>1964.3</ele>
        <time>1970-01-01T02:32:45.000Z</time>
      </trkpt>
      <trkpt lat="42.323952" lon="1.919971">
        <ele>1963.9</ele>
        <time>1970-01-01T02:32:46.000Z</time>
      </trkpt>
      <trkpt lat="42.323952" lon="1.919867">
        <ele>1963.6</ele>
        <time>1970-01-01T02:32:47.000Z</time>
      </trkpt>
      <trkpt lat="42.323952" lon="1.919763">
        <ele>1963.3</ele>
        <time>1970-01-01T02:32:48.000Z</time>
      </trkpt>
      <trkpt lat="42.323956" lon="1.919659">
        <ele>1963</ele>
        <time>1970-01-01T02:32:49.000Z</time>
      </trkpt>
      <trkpt lat="42.323959" lon="1.919562">
        <ele>1962.8</ele>
        <time>1970-01-01T02:32:50.000Z</time>
      </trkpt>
      <trkpt lat="42.323963" lon="1.919459">
        <ele>1962.7</ele>
        <time>1970-01-01T02:32:51.000Z</time>
      </trkpt>
      <trkpt lat="42.323963" lon="1.919366">
        <ele>1962.6</ele>
        <time>1970-01-01T02:32:52.000Z</time>
      </trkpt>
      <trkpt lat="42.323959" lon="1.919276">
        <ele>1962.5</ele>
        <time>1970-01-01T02:32:53.000Z</time>
      </trkpt>
      <trkpt lat="42.323959" lon="1.919198">
        <ele>1962.6</ele>
        <time>1970-01-01T02:32:54.000Z</time>
      </trkpt>
      <trkpt lat="42.323959" lon="1.919111">
        <ele>1962.6</ele>
        <time>1970-01-01T02:32:55.000Z</time>
      </trkpt>
      <trkpt lat="42.323956" lon="1.919038">
        <ele>1962.8</ele>
        <time>1970-01-01T02:32:56.000Z</time>
      </trkpt>
      <trkpt lat="42.323959" lon="1.918958">
        <ele>1963</ele>
        <time>1970-01-01T02:32:57.000Z</time>
      </trkpt>
      <trkpt lat="42.323967" lon="1.918894">
        <ele>1963.1</ele>
        <time>1970-01-01T02:32:58.000Z</time>
      </trkpt>
      <trkpt lat="42.323978" lon="1.918839">
        <ele>1963.3</ele>
        <time>1970-01-01T02:32:59.000Z</time>
      </trkpt>
      <trkpt lat="42.324017" lon="1.918784">
        <ele>1963.4</ele>
        <time>1970-01-01T02:33:00.000Z</time>
      </trkpt>
      <trkpt lat="42.324055" lon="1.918735">
        <ele>1963.5</ele>
        <time>1970-01-01T02:33:01.000Z</time>
      </trkpt>
      <trkpt lat="42.324093" lon="1.918692">
        <ele>1963.6</ele>
        <time>1970-01-01T02:33:02.000Z</time>
      </trkpt>
      <trkpt lat="42.324135" lon="1.918656">
        <ele>1963.6</ele>
        <time>1970-01-01T02:33:03.000Z</time>
      </trkpt>
      <trkpt lat="42.324181" lon="1.918622">
        <ele>1963.7</ele>
        <time>1970-01-01T02:33:04.000Z</time>
      </trkpt>
      <trkpt lat="42.32423" lon="1.918589">
        <ele>1963.8</ele>
        <time>1970-01-01T02:33:05.000Z</time>
      </trkpt>
      <trkpt lat="42.324284" lon="1.918558">
        <ele>1963.9</ele>
        <time>1970-01-01T02:33:06.000Z</time>
      </trkpt>
      <trkpt lat="42.324337" lon="1.918538">
        <ele>1963.9</ele>
        <time>1970-01-01T02:33:07.000Z</time>
      </trkpt>
      <trkpt lat="42.324387" lon="1.918525">
        <ele>1964</ele>
        <time>1970-01-01T02:33:08.000Z</time>
      </trkpt>
      <trkpt lat="42.324432" lon="1.918515">
        <ele>1964.1</ele>
        <time>1970-01-01T02:33:09.000Z</time>
      </trkpt>
      <trkpt lat="42.324478" lon="1.918503">
        <ele>1964.1</ele>
        <time>1970-01-01T02:33:10.000Z</time>
      </trkpt>
      <trkpt lat="42.324524" lon="1.918486">
        <ele>1964.1</ele>
        <time>1970-01-01T02:33:11.000Z</time>
      </trkpt>
      <trkpt lat="42.324566" lon="1.918458">
        <ele>1964.1</ele>
        <time>1970-01-01T02:33:12.000Z</time>
      </trkpt>
      <trkpt lat="42.3246" lon="1.918417">
        <ele>1964</ele>
        <time>1970-01-01T02:33:13.000Z</time>
      </trkpt>
      <trkpt lat="42.324627" lon="1.918367">
        <ele>1963.9</ele>
        <time>1970-01-01T02:33:14.000Z</time>
      </trkpt>
      <trkpt lat="42.324654" lon="1.918313">
        <ele>1963.7</ele>
        <time>1970-01-01T02:33:15.000Z</time>
      </trkpt>
      <trkpt lat="42.32468" lon="1.918252">
        <ele>1963.5</ele>
        <time>1970-01-01T02:33:16.000Z</time>
      </trkpt>
      <trkpt lat="42.324703" lon="1.918186">
        <ele>1963.3</ele>
        <time>1970-01-01T02:33:17.000Z</time>
      </trkpt>
      <trkpt lat="42.324726" lon="1.918114">
        <ele>1963.1</ele>
        <time>1970-01-01T02:33:18.000Z</time>
      </trkpt>
      <trkpt lat="42.324757" lon="1.918048">
        <ele>1962.8</ele>
        <time>1970-01-01T02:33:19.000Z</time>
      </trkpt>
      <trkpt lat="42.324787" lon="1.917988">
        <ele>1962.5</ele>
        <time>1970-01-01T02:33:20.000Z</time>
      </trkpt>
      <trkpt lat="42.324841" lon="1.917934">
        <ele>1962</ele>
        <time>1970-01-01T02:33:21.000Z</time>
      </trkpt>
      <trkpt lat="42.324909" lon="1.917884">
        <ele>1961.4</ele>
        <time>1970-01-01T02:33:22.000Z</time>
      </trkpt>
      <trkpt lat="42.324982" lon="1.917858">
        <ele>1960.8</ele>
        <time>1970-01-01T02:33:23.000Z</time>
      </trkpt>
      <trkpt lat="42.325062" lon="1.917838">
        <ele>1960.5</ele>
        <time>1970-01-01T02:33:24.000Z</time>
      </trkpt>
      <trkpt lat="42.325146" lon="1.917818">
        <ele>1960.4</ele>
        <time>1970-01-01T02:33:25.000Z</time>
      </trkpt>
      <trkpt lat="42.325218" lon="1.917793">
        <ele>1960.6</ele>
        <time>1970-01-01T02:33:26.000Z</time>
      </trkpt>
      <trkpt lat="42.325291" lon="1.917755">
        <ele>1960.8</ele>
        <time>1970-01-01T02:33:27.000Z</time>
      </trkpt>
      <trkpt lat="42.325352" lon="1.917718">
        <ele>1961</ele>
        <time>1970-01-01T02:33:28.000Z</time>
      </trkpt>
      <trkpt lat="42.325397" lon="1.91768">
        <ele>1961.2</ele>
        <time>1970-01-01T02:33:29.000Z</time>
      </trkpt>
      <trkpt lat="42.325432" lon="1.917647">
        <ele>1961.3</ele>
        <time>1970-01-01T02:33:30.000Z</time>
      </trkpt>
      <trkpt lat="42.325462" lon="1.917616">
        <ele>1961.4</ele>
        <time>1970-01-01T02:33:31.000Z</time>
      </trkpt>
      <trkpt lat="42.325489" lon="1.917591">
        <ele>1961.5</ele>
        <time>1970-01-01T02:33:32.000Z</time>
      </trkpt>
      <trkpt lat="42.325512" lon="1.917564">
        <ele>1961.6</ele>
        <time>1970-01-01T02:33:33.000Z</time>
      </trkpt>
      <trkpt lat="42.325535" lon="1.917531">
        <ele>1961.7</ele>
        <time>1970-01-01T02:33:34.000Z</time>
      </trkpt>
      <trkpt lat="42.325562" lon="1.917492">
        <ele>1961.8</ele>
        <time>1970-01-01T02:33:35.000Z</time>
      </trkpt>
      <trkpt lat="42.325584" lon="1.917446">
        <ele>1961.9</ele>
        <time>1970-01-01T02:33:36.000Z</time>
      </trkpt>
      <trkpt lat="42.325611" lon="1.917398">
        <ele>1962</ele>
        <time>1970-01-01T02:33:37.000Z</time>
      </trkpt>
      <trkpt lat="42.325638" lon="1.917353">
        <ele>1962.1</ele>
        <time>1970-01-01T02:33:38.000Z</time>
      </trkpt>
      <trkpt lat="42.325665" lon="1.917305">
        <ele>1962.2</ele>
        <time>1970-01-01T02:33:39.000Z</time>
      </trkpt>
      <trkpt lat="42.325691" lon="1.91726">
        <ele>1962.3</ele>
        <time>1970-01-01T02:33:40.000Z</time>
      </trkpt>
      <trkpt lat="42.325722" lon="1.917212">
        <ele>1962.5</ele>
        <time>1970-01-01T02:33:41.000Z</time>
      </trkpt>
      <trkpt lat="42.325752" lon="1.917172">
        <ele>1962.7</ele>
        <time>1970-01-01T02:33:42.000Z</time>
      </trkpt>
      <trkpt lat="42.325783" lon="1.917128">
        <ele>1962.9</ele>
        <time>1970-01-01T02:33:43.000Z</time>
      </trkpt>
      <trkpt lat="42.325806" lon="1.917089">
        <ele>1963.1</ele>
        <time>1970-01-01T02:33:44.000Z</time>
      </trkpt>
      <trkpt lat="42.325832" lon="1.917047">
        <ele>1963.3</ele>
        <time>1970-01-01T02:33:45.000Z</time>
      </trkpt>
      <trkpt lat="42.325863" lon="1.917011">
        <ele>1963.5</ele>
        <time>1970-01-01T02:33:46.000Z</time>
      </trkpt>
      <trkpt lat="42.325897" lon="1.916983">
        <ele>1963.6</ele>
        <time>1970-01-01T02:33:47.000Z</time>
      </trkpt>
      <trkpt lat="42.325928" lon="1.916973">
        <ele>1963.7</ele>
        <time>1970-01-01T02:33:48.000Z</time>
      </trkpt>
      <trkpt lat="42.325966" lon="1.916973">
        <ele>1963.8</ele>
        <time>1970-01-01T02:33:49.000Z</time>
      </trkpt>
      <trkpt lat="42.325996" lon="1.916983">
        <ele>1963.8</ele>
        <time>1970-01-01T02:33:50.000Z</time>
      </trkpt>
      <trkpt lat="42.326035" lon="1.917003">
        <ele>1963.8</ele>
        <time>1970-01-01T02:33:51.000Z</time>
      </trkpt>
      <trkpt lat="42.326073" lon="1.91703">
        <ele>1963.8</ele>
        <time>1970-01-01T02:33:52.000Z</time>
      </trkpt>
      <trkpt lat="42.326111" lon="1.91706">
        <ele>1963.8</ele>
        <time>1970-01-01T02:33:53.000Z</time>
      </trkpt>
      <trkpt lat="42.32616" lon="1.91709">
        <ele>1963.8</ele>
        <time>1970-01-01T02:33:54.000Z</time>
      </trkpt>
      <trkpt lat="42.326206" lon="1.917118">
        <ele>1963.8</ele>
        <time>1970-01-01T02:33:55.000Z</time>
      </trkpt>
      <trkpt lat="42.326252" lon="1.917141">
        <ele>1963.8</ele>
        <time>1970-01-01T02:33:56.000Z</time>
      </trkpt>
      <trkpt lat="42.326294" lon="1.917171">
        <ele>1963.7</ele>
        <time>1970-01-01T02:33:57.000Z</time>
      </trkpt>
      <trkpt lat="42.32634" lon="1.91721">
        <ele>1963.7</ele>
        <time>1970-01-01T02:33:58.000Z</time>
      </trkpt>
      <trkpt lat="42.326374" lon="1.917251">
        <ele>1963.7</ele>
        <time>1970-01-01T02:33:59.000Z</time>
      </trkpt>
      <trkpt lat="42.326408" lon="1.917294">
        <ele>1963.7</ele>
        <time>1970-01-01T02:34:00.000Z</time>
      </trkpt>
      <trkpt lat="42.32645" lon="1.917342">
        <ele>1963.7</ele>
        <time>1970-01-01T02:34:01.000Z</time>
      </trkpt>
      <trkpt lat="42.326485" lon="1.917395">
        <ele>1963.7</ele>
        <time>1970-01-01T02:34:02.000Z</time>
      </trkpt>
      <trkpt lat="42.326519" lon="1.917448">
        <ele>1963.7</ele>
        <time>1970-01-01T02:34:03.000Z</time>
      </trkpt>
      <trkpt lat="42.326553" lon="1.917493">
        <ele>1963.6</ele>
        <time>1970-01-01T02:34:04.000Z</time>
      </trkpt>
      <trkpt lat="42.326595" lon="1.917541">
        <ele>1963.5</ele>
        <time>1970-01-01T02:34:05.000Z</time>
      </trkpt>
      <trkpt lat="42.326633" lon="1.917575">
        <ele>1963.3</ele>
        <time>1970-01-01T02:34:06.000Z</time>
      </trkpt>
      <trkpt lat="42.326672" lon="1.917591">
        <ele>1963.2</ele>
        <time>1970-01-01T02:34:07.000Z</time>
      </trkpt>
      <trkpt lat="42.326706" lon="1.9176">
        <ele>1963</ele>
        <time>1970-01-01T02:34:08.000Z</time>
      </trkpt>
      <trkpt lat="42.326748" lon="1.917598">
        <ele>1962.8</ele>
        <time>1970-01-01T02:34:09.000Z</time>
      </trkpt>
      <trkpt lat="42.32679" lon="1.917585">
        <ele>1962.5</ele>
        <time>1970-01-01T02:34:10.000Z</time>
      </trkpt>
      <trkpt lat="42.326836" lon="1.917561">
        <ele>1962.2</ele>
        <time>1970-01-01T02:34:11.000Z</time>
      </trkpt>
      <trkpt lat="42.326878" lon="1.917533">
        <ele>1962</ele>
        <time>1970-01-01T02:34:12.000Z</time>
      </trkpt>
      <trkpt lat="42.32692" lon="1.917499">
        <ele>1961.7</ele>
        <time>1970-01-01T02:34:13.000Z</time>
      </trkpt>
      <trkpt lat="42.326973" lon="1.917462">
        <ele>1961.2</ele>
        <time>1970-01-01T02:34:14.000Z</time>
      </trkpt>
      <trkpt lat="42.327023" lon="1.917418">
        <ele>1960.8</ele>
        <time>1970-01-01T02:34:15.000Z</time>
      </trkpt>
      <trkpt lat="42.327072" lon="1.917373">
        <ele>1960.3</ele>
        <time>1970-01-01T02:34:16.000Z</time>
      </trkpt>
      <trkpt lat="42.327122" lon="1.917328">
        <ele>1959.8</ele>
        <time>1970-01-01T02:34:17.000Z</time>
      </trkpt>
      <trkpt lat="42.327179" lon="1.917282">
        <ele>1959.3</ele>
        <time>1970-01-01T02:34:18.000Z</time>
      </trkpt>
      <trkpt lat="42.327236" lon="1.917232">
        <ele>1958.8</ele>
        <time>1970-01-01T02:34:19.000Z</time>
      </trkpt>
      <trkpt lat="42.327297" lon="1.917174">
        <ele>1958.2</ele>
        <time>1970-01-01T02:34:20.000Z</time>
      </trkpt>
      <trkpt lat="42.327347" lon="1.917113">
        <ele>1957.7</ele>
        <time>1970-01-01T02:34:21.000Z</time>
      </trkpt>
      <trkpt lat="42.327396" lon="1.917052">
        <ele>1957.2</ele>
        <time>1970-01-01T02:34:22.000Z</time>
      </trkpt>
      <trkpt lat="42.32745" lon="1.916975">
        <ele>1956.6</ele>
        <time>1970-01-01T02:34:23.000Z</time>
      </trkpt>
      <trkpt lat="42.327507" lon="1.916896">
        <ele>1956</ele>
        <time>1970-01-01T02:34:24.000Z</time>
      </trkpt>
      <trkpt lat="42.327572" lon="1.916828">
        <ele>1955.5</ele>
        <time>1970-01-01T02:34:25.000Z</time>
      </trkpt>
      <trkpt lat="42.327633" lon="1.916784">
        <ele>1955.1</ele>
        <time>1970-01-01T02:34:26.000Z</time>
      </trkpt>
      <trkpt lat="42.327713" lon="1.916764">
        <ele>1954.7</ele>
        <time>1970-01-01T02:34:27.000Z</time>
      </trkpt>
      <trkpt lat="42.327801" lon="1.916771">
        <ele>1954.4</ele>
        <time>1970-01-01T02:34:28.000Z</time>
      </trkpt>
      <trkpt lat="42.327881" lon="1.916807">
        <ele>1954.2</ele>
        <time>1970-01-01T02:34:29.000Z</time>
      </trkpt>
      <trkpt lat="42.327953" lon="1.916863">
        <ele>1954.1</ele>
        <time>1970-01-01T02:34:30.000Z</time>
      </trkpt>
      <trkpt lat="42.328011" lon="1.916911">
        <ele>1953.9</ele>
        <time>1970-01-01T02:34:31.000Z</time>
      </trkpt>
      <trkpt lat="42.328072" lon="1.916955">
        <ele>1953.7</ele>
        <time>1970-01-01T02:34:32.000Z</time>
      </trkpt>
      <trkpt lat="42.32814" lon="1.916994">
        <ele>1953.5</ele>
        <time>1970-01-01T02:34:33.000Z</time>
      </trkpt>
      <trkpt lat="42.328205" lon="1.917016">
        <ele>1953.2</ele>
        <time>1970-01-01T02:34:34.000Z</time>
      </trkpt>
      <trkpt lat="42.328278" lon="1.917037">
        <ele>1952.9</ele>
        <time>1970-01-01T02:34:35.000Z</time>
      </trkpt>
      <trkpt lat="42.328354" lon="1.917047">
        <ele>1952.5</ele>
        <time>1970-01-01T02:34:36.000Z</time>
      </trkpt>
      <trkpt lat="42.328419" lon="1.917055">
        <ele>1952.2</ele>
        <time>1970-01-01T02:34:37.000Z</time>
      </trkpt>
      <trkpt lat="42.32848" lon="1.91706">
        <ele>1951.7</ele>
        <time>1970-01-01T02:34:38.000Z</time>
      </trkpt>
      <trkpt lat="42.32856" lon="1.917062">
        <ele>1951.2</ele>
        <time>1970-01-01T02:34:39.000Z</time>
      </trkpt>
      <trkpt lat="42.328636" lon="1.917056">
        <ele>1950.6</ele>
        <time>1970-01-01T02:34:40.000Z</time>
      </trkpt>
      <trkpt lat="42.328716" lon="1.917048">
        <ele>1949.9</ele>
        <time>1970-01-01T02:34:41.000Z</time>
      </trkpt>
      <trkpt lat="42.328793" lon="1.917045">
        <ele>1949.3</ele>
        <time>1970-01-01T02:34:42.000Z</time>
      </trkpt>
      <trkpt lat="42.328888" lon="1.917054">
        <ele>1948.5</ele>
        <time>1970-01-01T02:34:43.000Z</time>
      </trkpt>
      <trkpt lat="42.328968" lon="1.917064">
        <ele>1947.9</ele>
        <time>1970-01-01T02:34:44.000Z</time>
      </trkpt>
      <trkpt lat="42.329056" lon="1.917072">
        <ele>1947.3</ele>
        <time>1970-01-01T02:34:45.000Z</time>
      </trkpt>
      <trkpt lat="42.329147" lon="1.917075">
        <ele>1946.6</ele>
        <time>1970-01-01T02:34:46.000Z</time>
      </trkpt>
      <trkpt lat="42.329239" lon="1.917086">
        <ele>1945.9</ele>
        <time>1970-01-01T02:34:47.000Z</time>
      </trkpt>
      <trkpt lat="42.329334" lon="1.917114">
        <ele>1945.1</ele>
        <time>1970-01-01T02:34:48.000Z</time>
      </trkpt>
      <trkpt lat="42.329426" lon="1.917151">
        <ele>1944.5</ele>
        <time>1970-01-01T02:34:49.000Z</time>
      </trkpt>
      <trkpt lat="42.329506" lon="1.917202">
        <ele>1944</ele>
        <time>1970-01-01T02:34:50.000Z</time>
      </trkpt>
      <trkpt lat="42.329586" lon="1.917257">
        <ele>1943.6</ele>
        <time>1970-01-01T02:34:51.000Z</time>
      </trkpt>
      <trkpt lat="42.329659" lon="1.91731">
        <ele>1943.3</ele>
        <time>1970-01-01T02:34:52.000Z</time>
      </trkpt>
      <trkpt lat="42.329735" lon="1.917365">
        <ele>1943.1</ele>
        <time>1970-01-01T02:34:53.000Z</time>
      </trkpt>
      <trkpt lat="42.329807" lon="1.917421">
        <ele>1942.8</ele>
        <time>1970-01-01T02:34:54.000Z</time>
      </trkpt>
      <trkpt lat="42.329872" lon="1.917475">
        <ele>1942.5</ele>
        <time>1970-01-01T02:34:55.000Z</time>
      </trkpt>
      <trkpt lat="42.329941" lon="1.917517">
        <ele>1942.1</ele>
        <time>1970-01-01T02:34:56.000Z</time>
      </trkpt>
      <trkpt lat="42.330006" lon="1.917555">
        <ele>1942.2</ele>
        <time>1970-01-01T02:34:57.000Z</time>
      </trkpt>
      <trkpt lat="42.33007" lon="1.917592">
        <ele>1942.2</ele>
        <time>1970-01-01T02:34:58.000Z</time>
      </trkpt>
      <trkpt lat="42.330131" lon="1.917626">
        <ele>1942.2</ele>
        <time>1970-01-01T02:34:59.000Z</time>
      </trkpt>
      <trkpt lat="42.330189" lon="1.917654">
        <ele>1942.2</ele>
        <time>1970-01-01T02:35:00.000Z</time>
      </trkpt>
      <trkpt lat="42.330246" lon="1.917683">
        <ele>1942.2</ele>
        <time>1970-01-01T02:35:01.000Z</time>
      </trkpt>
      <trkpt lat="42.330303" lon="1.91771">
        <ele>1942.3</ele>
        <time>1970-01-01T02:35:02.000Z</time>
      </trkpt>
      <trkpt lat="42.330368" lon="1.917754">
        <ele>1942.4</ele>
        <time>1970-01-01T02:35:03.000Z</time>
      </trkpt>
      <trkpt lat="42.330425" lon="1.917806">
        <ele>1942.6</ele>
        <time>1970-01-01T02:35:04.000Z</time>
      </trkpt>
      <trkpt lat="42.330479" lon="1.917864">
        <ele>1942.8</ele>
        <time>1970-01-01T02:35:05.000Z</time>
      </trkpt>
      <trkpt lat="42.330524" lon="1.917927">
        <ele>1943</ele>
        <time>1970-01-01T02:35:06.000Z</time>
      </trkpt>
      <trkpt lat="42.33057" lon="1.917983">
        <ele>1943.1</ele>
        <time>1970-01-01T02:35:07.000Z</time>
      </trkpt>
      <trkpt lat="42.330616" lon="1.918038">
        <ele>1943.3</ele>
        <time>1970-01-01T02:35:08.000Z</time>
      </trkpt>
      <trkpt lat="42.330666" lon="1.91809">
        <ele>1943.4</ele>
        <time>1970-01-01T02:35:09.000Z</time>
      </trkpt>
      <trkpt lat="42.330711" lon="1.918133">
        <ele>1943.6</ele>
        <time>1970-01-01T02:35:10.000Z</time>
      </trkpt>
      <trkpt lat="42.330765" lon="1.91817">
        <ele>1943.8</ele>
        <time>1970-01-01T02:35:11.000Z</time>
      </trkpt>
      <trkpt lat="42.330814" lon="1.918203">
        <ele>1944</ele>
        <time>1970-01-01T02:35:12.000Z</time>
      </trkpt>
      <trkpt lat="42.330868" lon="1.918235">
        <ele>1944.2</ele>
        <time>1970-01-01T02:35:13.000Z</time>
      </trkpt>
      <trkpt lat="42.33091" lon="1.918275">
        <ele>1944.5</ele>
        <time>1970-01-01T02:35:14.000Z</time>
      </trkpt>
      <trkpt lat="42.330952" lon="1.918327">
        <ele>1944.7</ele>
        <time>1970-01-01T02:35:15.000Z</time>
      </trkpt>
      <trkpt lat="42.330994" lon="1.91838">
        <ele>1945</ele>
        <time>1970-01-01T02:35:16.000Z</time>
      </trkpt>
      <trkpt lat="42.331036" lon="1.918437">
        <ele>1945.2</ele>
        <time>1970-01-01T02:35:17.000Z</time>
      </trkpt>
      <trkpt lat="42.33107" lon="1.918488">
        <ele>1945.3</ele>
        <time>1970-01-01T02:35:18.000Z</time>
      </trkpt>
      <trkpt lat="42.331108" lon="1.918537">
        <ele>1945.5</ele>
        <time>1970-01-01T02:35:19.000Z</time>
      </trkpt>
      <trkpt lat="42.331139" lon="1.918577">
        <ele>1945.6</ele>
        <time>1970-01-01T02:35:20.000Z</time>
      </trkpt>
      <trkpt lat="42.331173" lon="1.918615">
        <ele>1945.7</ele>
        <time>1970-01-01T02:35:21.000Z</time>
      </trkpt>
      <trkpt lat="42.331207" lon="1.918651">
        <ele>1945.8</ele>
        <time>1970-01-01T02:35:22.000Z</time>
      </trkpt>
      <trkpt lat="42.331249" lon="1.918685">
        <ele>1945.9</ele>
        <time>1970-01-01T02:35:23.000Z</time>
      </trkpt>
      <trkpt lat="42.331291" lon="1.918705">
        <ele>1946</ele>
        <time>1970-01-01T02:35:24.000Z</time>
      </trkpt>
      <trkpt lat="42.331337" lon="1.918711">
        <ele>1946.1</ele>
        <time>1970-01-01T02:35:25.000Z</time>
      </trkpt>
      <trkpt lat="42.331379" lon="1.91871">
        <ele>1946.1</ele>
        <time>1970-01-01T02:35:26.000Z</time>
      </trkpt>
      <trkpt lat="42.331417" lon="1.9187">
        <ele>1946.2</ele>
        <time>1970-01-01T02:35:27.000Z</time>
      </trkpt>
      <trkpt lat="42.331463" lon="1.918677">
        <ele>1946.2</ele>
        <time>1970-01-01T02:35:28.000Z</time>
      </trkpt>
      <trkpt lat="42.331501" lon="1.91865">
        <ele>1946.2</ele>
        <time>1970-01-01T02:35:29.000Z</time>
      </trkpt>
      <trkpt lat="42.331539" lon="1.918622">
        <ele>1946.2</ele>
        <time>1970-01-01T02:35:30.000Z</time>
      </trkpt>
      <trkpt lat="42.331577" lon="1.918593">
        <ele>1946.2</ele>
        <time>1970-01-01T02:35:31.000Z</time>
      </trkpt>
      <trkpt lat="42.331615" lon="1.918563">
        <ele>1946.2</ele>
        <time>1970-01-01T02:35:32.000Z</time>
      </trkpt>
      <trkpt lat="42.331654" lon="1.918535">
        <ele>1946.2</ele>
        <time>1970-01-01T02:35:33.000Z</time>
      </trkpt>
      <trkpt lat="42.331696" lon="1.918506">
        <ele>1946.2</ele>
        <time>1970-01-01T02:35:34.000Z</time>
      </trkpt>
      <trkpt lat="42.331738" lon="1.918476">
        <ele>1946.2</ele>
        <time>1970-01-01T02:35:35.000Z</time>
      </trkpt>
      <trkpt lat="42.331772" lon="1.918441">
        <ele>1946.2</ele>
        <time>1970-01-01T02:35:36.000Z</time>
      </trkpt>
      <trkpt lat="42.331802" lon="1.918403">
        <ele>1946.2</ele>
        <time>1970-01-01T02:35:37.000Z</time>
      </trkpt>
      <trkpt lat="42.33184" lon="1.918364">
        <ele>1946.2</ele>
        <time>1970-01-01T02:35:38.000Z</time>
      </trkpt>
      <trkpt lat="42.331875" lon="1.918321">
        <ele>1946.2</ele>
        <time>1970-01-01T02:35:39.000Z</time>
      </trkpt>
      <trkpt lat="42.331913" lon="1.918277">
        <ele>1946.2</ele>
        <time>1970-01-01T02:35:40.000Z</time>
      </trkpt>
      <trkpt lat="42.331947" lon="1.918235">
        <ele>1946.2</ele>
        <time>1970-01-01T02:35:41.000Z</time>
      </trkpt>
      <trkpt lat="42.331982" lon="1.918195">
        <ele>1946.2</ele>
        <time>1970-01-01T02:35:42.000Z</time>
      </trkpt>
      <trkpt lat="42.332024" lon="1.918151">
        <ele>1946.2</ele>
        <time>1970-01-01T02:35:43.000Z</time>
      </trkpt>
      <trkpt lat="42.332062" lon="1.91811">
        <ele>1946.3</ele>
        <time>1970-01-01T02:35:44.000Z</time>
      </trkpt>
      <trkpt lat="42.332096" lon="1.918065">
        <ele>1946.3</ele>
        <time>1970-01-01T02:35:45.000Z</time>
      </trkpt>
      <trkpt lat="42.332134" lon="1.918024">
        <ele>1946.3</ele>
        <time>1970-01-01T02:35:46.000Z</time>
      </trkpt>
      <trkpt lat="42.332172" lon="1.917985">
        <ele>1946.4</ele>
        <time>1970-01-01T02:35:47.000Z</time>
      </trkpt>
      <trkpt lat="42.332207" lon="1.917938">
        <ele>1946.4</ele>
        <time>1970-01-01T02:35:48.000Z</time>
      </trkpt>
      <trkpt lat="42.332241" lon="1.917886">
        <ele>1946.5</ele>
        <time>1970-01-01T02:35:49.000Z</time>
      </trkpt>
      <trkpt lat="42.332272" lon="1.917837">
        <ele>1946.6</ele>
        <time>1970-01-01T02:35:50.000Z</time>
      </trkpt>
      <trkpt lat="42.332302" lon="1.91779">
        <ele>1946.6</ele>
        <time>1970-01-01T02:35:51.000Z</time>
      </trkpt>
      <trkpt lat="42.332329" lon="1.91775">
        <ele>1946.7</ele>
        <time>1970-01-01T02:35:52.000Z</time>
      </trkpt>
      <trkpt lat="42.332363" lon="1.917698">
        <ele>1946.8</ele>
        <time>1970-01-01T02:35:53.000Z</time>
      </trkpt>
      <trkpt lat="42.33239" lon="1.917648">
        <ele>1946.9</ele>
        <time>1970-01-01T02:35:54.000Z</time>
      </trkpt>
      <trkpt lat="42.332409" lon="1.917595">
        <ele>1947</ele>
        <time>1970-01-01T02:35:55.000Z</time>
      </trkpt>
      <trkpt lat="42.332432" lon="1.917535">
        <ele>1947.2</ele>
        <time>1970-01-01T02:35:56.000Z</time>
      </trkpt>
      <trkpt lat="42.332451" lon="1.917476">
        <ele>1947.3</ele>
        <time>1970-01-01T02:35:57.000Z</time>
      </trkpt>
      <trkpt lat="42.332462" lon="1.917415">
        <ele>1947.5</ele>
        <time>1970-01-01T02:35:58.000Z</time>
      </trkpt>
      <trkpt lat="42.332481" lon="1.917355">
        <ele>1947.7</ele>
        <time>1970-01-01T02:35:59.000Z</time>
      </trkpt>
      <trkpt lat="42.332504" lon="1.917306">
        <ele>1947.9</ele>
        <time>1970-01-01T02:36:00.000Z</time>
      </trkpt>
      <trkpt lat="42.332523" lon="1.917255">
        <ele>1948.2</ele>
        <time>1970-01-01T02:36:01.000Z</time>
      </trkpt>
      <trkpt lat="42.332539" lon="1.917213">
        <ele>1948.4</ele>
        <time>1970-01-01T02:36:02.000Z</time>
      </trkpt>
      <trkpt lat="42.33255" lon="1.917165">
        <ele>1948.6</ele>
        <time>1970-01-01T02:36:03.000Z</time>
      </trkpt>
      <trkpt lat="42.332565" lon="1.917123">
        <ele>1948.9</ele>
        <time>1970-01-01T02:36:04.000Z</time>
      </trkpt>
      <trkpt lat="42.332581" lon="1.917081">
        <ele>1949.2</ele>
        <time>1970-01-01T02:36:05.000Z</time>
      </trkpt>
      <trkpt lat="42.332596" lon="1.917043">
        <ele>1949.5</ele>
        <time>1970-01-01T02:36:06.000Z</time>
      </trkpt>
      <trkpt lat="42.332611" lon="1.917004">
        <ele>1949.7</ele>
        <time>1970-01-01T02:36:07.000Z</time>
      </trkpt>
      <trkpt lat="42.332623" lon="1.916971">
        <ele>1950</ele>
        <time>1970-01-01T02:36:08.000Z</time>
      </trkpt>
      <trkpt lat="42.33263" lon="1.916938">
        <ele>1950.2</ele>
        <time>1970-01-01T02:36:09.000Z</time>
      </trkpt>
      <trkpt lat="42.332638" lon="1.916911">
        <ele>1950.5</ele>
        <time>1970-01-01T02:36:10.000Z</time>
      </trkpt>
      <trkpt lat="42.332653" lon="1.916888">
        <ele>1950.7</ele>
        <time>1970-01-01T02:36:11.000Z</time>
      </trkpt>
      <trkpt lat="42.332665" lon="1.916861">
        <ele>1950.9</ele>
        <time>1970-01-01T02:36:12.000Z</time>
      </trkpt>
      <trkpt lat="42.332687" lon="1.916828">
        <ele>1951.3</ele>
        <time>1970-01-01T02:36:13.000Z</time>
      </trkpt>
      <trkpt lat="42.332706" lon="1.916797">
        <ele>1951.6</ele>
        <time>1970-01-01T02:36:14.000Z</time>
      </trkpt>
      <trkpt lat="42.332737" lon="1.916764">
        <ele>1952</ele>
        <time>1970-01-01T02:36:15.000Z</time>
      </trkpt>
      <trkpt lat="42.332771" lon="1.916723">
        <ele>1952.4</ele>
        <time>1970-01-01T02:36:16.000Z</time>
      </trkpt>
      <trkpt lat="42.332806" lon="1.916689">
        <ele>1952.8</ele>
        <time>1970-01-01T02:36:17.000Z</time>
      </trkpt>
      <trkpt lat="42.332836" lon="1.916654">
        <ele>1953.2</ele>
        <time>1970-01-01T02:36:18.000Z</time>
      </trkpt>
      <trkpt lat="42.332863" lon="1.916623">
        <ele>1953.5</ele>
        <time>1970-01-01T02:36:19.000Z</time>
      </trkpt>
      <trkpt lat="42.332901" lon="1.916592">
        <ele>1954</ele>
        <time>1970-01-01T02:36:20.000Z</time>
      </trkpt>
      <trkpt lat="42.332947" lon="1.91656">
        <ele>1954.5</ele>
        <time>1970-01-01T02:36:21.000Z</time>
      </trkpt>
      <trkpt lat="42.332993" lon="1.916524">
        <ele>1955</ele>
        <time>1970-01-01T02:36:22.000Z</time>
      </trkpt>
      <trkpt lat="42.333034" lon="1.916485">
        <ele>1955.5</ele>
        <time>1970-01-01T02:36:23.000Z</time>
      </trkpt>
      <trkpt lat="42.333065" lon="1.916457">
        <ele>1955.8</ele>
        <time>1970-01-01T02:36:24.000Z</time>
      </trkpt>
      <trkpt lat="42.333107" lon="1.916425">
        <ele>1956.3</ele>
        <time>1970-01-01T02:36:25.000Z</time>
      </trkpt>
      <trkpt lat="42.333137" lon="1.916399">
        <ele>1956.7</ele>
        <time>1970-01-01T02:36:26.000Z</time>
      </trkpt>
      <trkpt lat="42.333172" lon="1.916375">
        <ele>1957.1</ele>
        <time>1970-01-01T02:36:27.000Z</time>
      </trkpt>
      <trkpt lat="42.333202" lon="1.916352">
        <ele>1957.5</ele>
        <time>1970-01-01T02:36:28.000Z</time>
      </trkpt>
      <trkpt lat="42.333248" lon="1.916323">
        <ele>1958</ele>
        <time>1970-01-01T02:36:29.000Z</time>
      </trkpt>
      <trkpt lat="42.333286" lon="1.9163">
        <ele>1958.4</ele>
        <time>1970-01-01T02:36:30.000Z</time>
      </trkpt>
      <trkpt lat="42.333321" lon="1.916282">
        <ele>1958.8</ele>
        <time>1970-01-01T02:36:31.000Z</time>
      </trkpt>
      <trkpt lat="42.333347" lon="1.916273">
        <ele>1959.1</ele>
        <time>1970-01-01T02:36:32.000Z</time>
      </trkpt>
      <trkpt lat="42.333378" lon="1.916262">
        <ele>1959.4</ele>
        <time>1970-01-01T02:36:33.000Z</time>
      </trkpt>
      <trkpt lat="42.333397" lon="1.916252">
        <ele>1959.6</ele>
        <time>1970-01-01T02:36:34.000Z</time>
      </trkpt>
      <trkpt lat="42.333416" lon="1.91624">
        <ele>1959.8</ele>
        <time>1970-01-01T02:36:35.000Z</time>
      </trkpt>
      <trkpt lat="42.333443" lon="1.916228">
        <ele>1960.1</ele>
        <time>1970-01-01T02:36:36.000Z</time>
      </trkpt>
      <trkpt lat="42.333466" lon="1.916221">
        <ele>1960.3</ele>
        <time>1970-01-01T02:36:37.000Z</time>
      </trkpt>
      <trkpt lat="42.333485" lon="1.916213">
        <ele>1960.5</ele>
        <time>1970-01-01T02:36:38.000Z</time>
      </trkpt>
      <trkpt lat="42.333511" lon="1.916205">
        <ele>1960.8</ele>
        <time>1970-01-01T02:36:39.000Z</time>
      </trkpt>
      <trkpt lat="42.333542" lon="1.916202">
        <ele>1961.1</ele>
        <time>1970-01-01T02:36:40.000Z</time>
      </trkpt>
      <trkpt lat="42.333569" lon="1.916202">
        <ele>1961.4</ele>
        <time>1970-01-01T02:36:41.000Z</time>
      </trkpt>
      <trkpt lat="42.333599" lon="1.916203">
        <ele>1961.8</ele>
        <time>1970-01-01T02:36:42.000Z</time>
      </trkpt>
      <trkpt lat="42.333626" lon="1.916201">
        <ele>1962.1</ele>
        <time>1970-01-01T02:36:43.000Z</time>
      </trkpt>
      <trkpt lat="42.333645" lon="1.916195">
        <ele>1962.3</ele>
        <time>1970-01-01T02:36:44.000Z</time>
      </trkpt>
      <trkpt lat="42.333679" lon="1.916189">
        <ele>1962.7</ele>
        <time>1970-01-01T02:36:45.000Z</time>
      </trkpt>
      <trkpt lat="42.333706" lon="1.916186">
        <ele>1963</ele>
        <time>1970-01-01T02:36:46.000Z</time>
      </trkpt>
      <trkpt lat="42.333736" lon="1.916182">
        <ele>1963.3</ele>
        <time>1970-01-01T02:36:47.000Z</time>
      </trkpt>
      <trkpt lat="42.333759" lon="1.916178">
        <ele>1963.6</ele>
        <time>1970-01-01T02:36:48.000Z</time>
      </trkpt>
      <trkpt lat="42.333782" lon="1.916174">
        <ele>1963.8</ele>
        <time>1970-01-01T02:36:49.000Z</time>
      </trkpt>
      <trkpt lat="42.333801" lon="1.916167">
        <ele>1964</ele>
        <time>1970-01-01T02:36:50.000Z</time>
      </trkpt>
      <trkpt lat="42.33382" lon="1.916155">
        <ele>1964.3</ele>
        <time>1970-01-01T02:36:51.000Z</time>
      </trkpt>
      <trkpt lat="42.333839" lon="1.916143">
        <ele>1964.5</ele>
        <time>1970-01-01T02:36:52.000Z</time>
      </trkpt>
      <trkpt lat="42.333859" lon="1.916133">
        <ele>1964.7</ele>
        <time>1970-01-01T02:36:53.000Z</time>
      </trkpt>
      <trkpt lat="42.333878" lon="1.916123">
        <ele>1964.9</ele>
        <time>1970-01-01T02:36:54.000Z</time>
      </trkpt>
      <trkpt lat="42.333897" lon="1.916113">
        <ele>1965.1</ele>
        <time>1970-01-01T02:36:55.000Z</time>
      </trkpt>
      <trkpt lat="42.333916" lon="1.916105">
        <ele>1965.3</ele>
        <time>1970-01-01T02:36:56.000Z</time>
      </trkpt>
      <trkpt lat="42.333939" lon="1.916095">
        <ele>1965.6</ele>
        <time>1970-01-01T02:36:57.000Z</time>
      </trkpt>
      <trkpt lat="42.333965" lon="1.916084">
        <ele>1965.8</ele>
        <time>1970-01-01T02:36:58.000Z</time>
      </trkpt>
      <trkpt lat="42.333984" lon="1.916073">
        <ele>1966</ele>
        <time>1970-01-01T02:36:59.000Z</time>
      </trkpt>
      <trkpt lat="42.334003" lon="1.91606">
        <ele>1966.2</ele>
        <time>1970-01-01T02:37:00.000Z</time>
      </trkpt>
      <trkpt lat="42.334023" lon="1.916048">
        <ele>1966.4</ele>
        <time>1970-01-01T02:37:01.000Z</time>
      </trkpt>
      <trkpt lat="42.334038" lon="1.916035">
        <ele>1966.6</ele>
        <time>1970-01-01T02:37:02.000Z</time>
      </trkpt>
      <trkpt lat="42.334053" lon="1.916015">
        <ele>1966.8</ele>
        <time>1970-01-01T02:37:03.000Z</time>
      </trkpt>
      <trkpt lat="42.334068" lon="1.916">
        <ele>1966.9</ele>
        <time>1970-01-01T02:37:04.000Z</time>
      </trkpt>
      <trkpt lat="42.334091" lon="1.915986">
        <ele>1967.1</ele>
        <time>1970-01-01T02:37:05.000Z</time>
      </trkpt>
      <trkpt lat="42.33411" lon="1.915974">
        <ele>1967.3</ele>
        <time>1970-01-01T02:37:06.000Z</time>
      </trkpt>
      <trkpt lat="42.334129" lon="1.915959">
        <ele>1967.5</ele>
        <time>1970-01-01T02:37:07.000Z</time>
      </trkpt>
      <trkpt lat="42.334145" lon="1.915941">
        <ele>1967.7</ele>
        <time>1970-01-01T02:37:08.000Z</time>
      </trkpt>
      <trkpt lat="42.33416" lon="1.915927">
        <ele>1967.8</ele>
        <time>1970-01-01T02:37:09.000Z</time>
      </trkpt>
      <trkpt lat="42.334175" lon="1.915914">
        <ele>1968</ele>
        <time>1970-01-01T02:37:10.000Z</time>
      </trkpt>
      <trkpt lat="42.334198" lon="1.915896">
        <ele>1968.2</ele>
        <time>1970-01-01T02:37:11.000Z</time>
      </trkpt>
      <trkpt lat="42.334217" lon="1.915881">
        <ele>1968.4</ele>
        <time>1970-01-01T02:37:12.000Z</time>
      </trkpt>
      <trkpt lat="42.334236" lon="1.915869">
        <ele>1968.6</ele>
        <time>1970-01-01T02:37:13.000Z</time>
      </trkpt>
      <trkpt lat="42.334255" lon="1.915857">
        <ele>1968.7</ele>
        <time>1970-01-01T02:37:14.000Z</time>
      </trkpt>
      <trkpt lat="42.334274" lon="1.915847">
        <ele>1968.9</ele>
        <time>1970-01-01T02:37:15.000Z</time>
      </trkpt>
      <trkpt lat="42.334293" lon="1.915838">
        <ele>1969</ele>
        <time>1970-01-01T02:37:16.000Z</time>
      </trkpt>
      <trkpt lat="42.334316" lon="1.91583">
        <ele>1969.2</ele>
        <time>1970-01-01T02:37:17.000Z</time>
      </trkpt>
      <trkpt lat="42.334339" lon="1.915821">
        <ele>1969.4</ele>
        <time>1970-01-01T02:37:18.000Z</time>
      </trkpt>
      <trkpt lat="42.334354" lon="1.915815">
        <ele>1969.5</ele>
        <time>1970-01-01T02:37:19.000Z</time>
      </trkpt>
      <trkpt lat="42.334377" lon="1.915807">
        <ele>1969.7</ele>
        <time>1970-01-01T02:37:20.000Z</time>
      </trkpt>
      <trkpt lat="42.334393" lon="1.915798">
        <ele>1969.8</ele>
        <time>1970-01-01T02:37:21.000Z</time>
      </trkpt>
      <trkpt lat="42.334415" lon="1.915788">
        <ele>1970</ele>
        <time>1970-01-01T02:37:22.000Z</time>
      </trkpt>
      <trkpt lat="42.334435" lon="1.915784">
        <ele>1970.2</ele>
        <time>1970-01-01T02:37:23.000Z</time>
      </trkpt>
      <trkpt lat="42.334457" lon="1.91578">
        <ele>1970.3</ele>
        <time>1970-01-01T02:37:24.000Z</time>
      </trkpt>
      <trkpt lat="42.334477" lon="1.91577">
        <ele>1970.5</ele>
        <time>1970-01-01T02:37:25.000Z</time>
      </trkpt>
      <trkpt lat="42.334496" lon="1.915758">
        <ele>1970.7</ele>
        <time>1970-01-01T02:37:26.000Z</time>
      </trkpt>
      <trkpt lat="42.334515" lon="1.915747">
        <ele>1970.8</ele>
        <time>1970-01-01T02:37:27.000Z</time>
      </trkpt>
      <trkpt lat="42.334534" lon="1.915739">
        <ele>1971</ele>
        <time>1970-01-01T02:37:28.000Z</time>
      </trkpt>
      <trkpt lat="42.334553" lon="1.915728">
        <ele>1971.1</ele>
        <time>1970-01-01T02:37:29.000Z</time>
      </trkpt>
      <trkpt lat="42.334572" lon="1.915717">
        <ele>1971.3</ele>
        <time>1970-01-01T02:37:30.000Z</time>
      </trkpt>
      <trkpt lat="42.334587" lon="1.915707">
        <ele>1971.4</ele>
        <time>1970-01-01T02:37:31.000Z</time>
      </trkpt>
      <trkpt lat="42.33461" lon="1.915694">
        <ele>1971.6</ele>
        <time>1970-01-01T02:37:32.000Z</time>
      </trkpt>
      <trkpt lat="42.334629" lon="1.915681">
        <ele>1971.8</ele>
        <time>1970-01-01T02:37:33.000Z</time>
      </trkpt>
      <trkpt lat="42.334648" lon="1.915675">
        <ele>1972</ele>
        <time>1970-01-01T02:37:34.000Z</time>
      </trkpt>
      <trkpt lat="42.334667" lon="1.915666">
        <ele>1972.1</ele>
        <time>1970-01-01T02:37:35.000Z</time>
      </trkpt>
      <trkpt lat="42.33469" lon="1.915658">
        <ele>1972.3</ele>
        <time>1970-01-01T02:37:36.000Z</time>
      </trkpt>
      <trkpt lat="42.334709" lon="1.91565">
        <ele>1972.5</ele>
        <time>1970-01-01T02:37:37.000Z</time>
      </trkpt>
      <trkpt lat="42.334728" lon="1.915643">
        <ele>1972.6</ele>
        <time>1970-01-01T02:37:38.000Z</time>
      </trkpt>
      <trkpt lat="42.334751" lon="1.915635">
        <ele>1972.8</ele>
        <time>1970-01-01T02:37:39.000Z</time>
      </trkpt>
      <trkpt lat="42.334774" lon="1.915627">
        <ele>1973</ele>
        <time>1970-01-01T02:37:40.000Z</time>
      </trkpt>
      <trkpt lat="42.334793" lon="1.91562">
        <ele>1973.2</ele>
        <time>1970-01-01T02:37:41.000Z</time>
      </trkpt>
      <trkpt lat="42.334816" lon="1.915614">
        <ele>1973.4</ele>
        <time>1970-01-01T02:37:42.000Z</time>
      </trkpt>
      <trkpt lat="42.334839" lon="1.915609">
        <ele>1973.6</ele>
        <time>1970-01-01T02:37:43.000Z</time>
      </trkpt>
      <trkpt lat="42.334862" lon="1.915603">
        <ele>1973.8</ele>
        <time>1970-01-01T02:37:44.000Z</time>
      </trkpt>
      <trkpt lat="42.334885" lon="1.915596">
        <ele>1974</ele>
        <time>1970-01-01T02:37:45.000Z</time>
      </trkpt>
      <trkpt lat="42.334904" lon="1.915591">
        <ele>1974.2</ele>
        <time>1970-01-01T02:37:46.000Z</time>
      </trkpt>
      <trkpt lat="42.334923" lon="1.915587">
        <ele>1974.4</ele>
        <time>1970-01-01T02:37:47.000Z</time>
      </trkpt>
      <trkpt lat="42.334946" lon="1.915587">
        <ele>1974.6</ele>
        <time>1970-01-01T02:37:48.000Z</time>
      </trkpt>
      <trkpt lat="42.334965" lon="1.915585">
        <ele>1974.8</ele>
        <time>1970-01-01T02:37:49.000Z</time>
      </trkpt>
      <trkpt lat="42.334988" lon="1.915585">
        <ele>1975</ele>
        <time>1970-01-01T02:37:50.000Z</time>
      </trkpt>
      <trkpt lat="42.335011" lon="1.915583">
        <ele>1975.2</ele>
        <time>1970-01-01T02:37:51.000Z</time>
      </trkpt>
      <trkpt lat="42.33503" lon="1.915578">
        <ele>1975.4</ele>
        <time>1970-01-01T02:37:52.000Z</time>
      </trkpt>
      <trkpt lat="42.335053" lon="1.915578">
        <ele>1975.6</ele>
        <time>1970-01-01T02:37:53.000Z</time>
      </trkpt>
      <trkpt lat="42.335072" lon="1.915577">
        <ele>1975.8</ele>
        <time>1970-01-01T02:37:54.000Z</time>
      </trkpt>
      <trkpt lat="42.335091" lon="1.915572">
        <ele>1975.9</ele>
        <time>1970-01-01T02:37:55.000Z</time>
      </trkpt>
      <trkpt lat="42.33511" lon="1.915572">
        <ele>1976.1</ele>
        <time>1970-01-01T02:37:56.000Z</time>
      </trkpt>
      <trkpt lat="42.335129" lon="1.915576">
        <ele>1976.2</ele>
        <time>1970-01-01T02:37:57.000Z</time>
      </trkpt>
      <trkpt lat="42.335156" lon="1.915582">
        <ele>1976.5</ele>
        <time>1970-01-01T02:37:58.000Z</time>
      </trkpt>
      <trkpt lat="42.335175" lon="1.915587">
        <ele>1976.6</ele>
        <time>1970-01-01T02:37:59.000Z</time>
      </trkpt>
      <trkpt lat="42.335194" lon="1.915591">
        <ele>1976.8</ele>
        <time>1970-01-01T02:38:00.000Z</time>
      </trkpt>
      <trkpt lat="42.335213" lon="1.915599">
        <ele>1976.9</ele>
        <time>1970-01-01T02:38:01.000Z</time>
      </trkpt>
      <trkpt lat="42.335236" lon="1.915612">
        <ele>1977</ele>
        <time>1970-01-01T02:38:02.000Z</time>
      </trkpt>
      <trkpt lat="42.335247" lon="1.915629">
        <ele>1976.4</ele>
        <time>1970-01-01T02:38:03.000Z</time>
      </trkpt>
      <trkpt lat="42.335255" lon="1.915648">
        <ele>1976.3</ele>
        <time>1970-01-01T02:38:04.000Z</time>
      </trkpt>
      <trkpt lat="42.335251" lon="1.915672">
        <ele>1976.1</ele>
        <time>1970-01-01T02:38:05.000Z</time>
      </trkpt>
      <trkpt lat="42.335239" lon="1.915692">
        <ele>1975.9</ele>
        <time>1970-01-01T02:38:06.000Z</time>
      </trkpt>
      <trkpt lat="42.33522" lon="1.915714">
        <ele>1975.7</ele>
        <time>1970-01-01T02:38:07.000Z</time>
      </trkpt>
      <trkpt lat="42.335201" lon="1.915736">
        <ele>1975.5</ele>
        <time>1970-01-01T02:38:08.000Z</time>
      </trkpt>
      <trkpt lat="42.335186" lon="1.915753">
        <ele>1975.3</ele>
        <time>1970-01-01T02:38:09.000Z</time>
      </trkpt>
      <trkpt lat="42.335175" lon="1.915766">
        <ele>1975.2</ele>
        <time>1970-01-01T02:38:10.000Z</time>
      </trkpt>
      <trkpt lat="42.335163" lon="1.915778">
        <ele>1975.1</ele>
        <time>1970-01-01T02:38:11.000Z</time>
      </trkpt>
      <trkpt lat="42.335152" lon="1.915791">
        <ele>1974.9</ele>
        <time>1970-01-01T02:38:12.000Z</time>
      </trkpt>
      <trkpt lat="42.335148" lon="1.915796">
        <ele>1974.9</ele>
        <time>1970-01-01T02:38:13.000Z</time>
      </trkpt>
      <trkpt lat="42.335144" lon="1.915799">
        <ele>1974.9</ele>
        <time>1970-01-01T02:38:14.000Z</time>
      </trkpt>
      <trkpt lat="42.33514" lon="1.9158">
        <ele>1974.8</ele>
        <time>1970-01-01T02:38:15.000Z</time>
      </trkpt>
      <trkpt lat="42.33514" lon="1.9158">
        <ele>1974.8</ele>
        <time>1970-01-01T02:38:16.000Z</time>
      </trkpt>
      <trkpt lat="42.33514" lon="1.9158">
        <ele>1974.8</ele>
        <time>1970-01-01T02:38:17.000Z</time>
      </trkpt>
      <trkpt lat="42.33514" lon="1.9158">
        <ele>1974.8</ele>
        <time>1970-01-01T02:38:18.000Z</time>
      </trkpt>
      <trkpt lat="42.33514" lon="1.9158">
        <ele>1974.8</ele>
        <time>1970-01-01T02:38:19.000Z</time>
      </trkpt>
      <trkpt lat="42.33514" lon="1.9158">
        <ele>1974.8</ele>
        <time>1970-01-01T02:38:20.000Z</time>
      </trkpt>
      <trkpt lat="42.33514" lon="1.9158">
        <ele>1974.8</ele>
        <time>1970-01-01T02:38:21.000Z</time>
      </trkpt>
      <trkpt lat="42.33514" lon="1.9158">
        <ele>1974.8</ele>
        <time>1970-01-01T02:38:22.000Z</time>
      </trkpt>
      <trkpt lat="42.33514" lon="1.9158">
        <ele>1974.8</ele>
        <time>1970-01-01T02:38:23.000Z</time>
      </trkpt>
      <trkpt lat="42.33514" lon="1.9158">
        <ele>1974.8</ele>
        <time>1970-01-01T02:38:24.000Z</time>
      </trkpt>
      <trkpt lat="42.33514" lon="1.9158">
        <ele>1974.8</ele>
        <time>1970-01-01T02:38:25.000Z</time>
      </trkpt>
      <trkpt lat="42.33514" lon="1.9158">
        <ele>1974.8</ele>
        <time>1970-01-01T02:38:26.000Z</time>
      </trkpt>
      <trkpt lat="42.33514" lon="1.9158">
        <ele>1974.8</ele>
        <time>1970-01-01T02:38:27.000Z</time>
      </trkpt>
      <trkpt lat="42.33514" lon="1.9158">
        <ele>1974.8</ele>
        <time>1970-01-01T02:38:28.000Z</time>
      </trkpt>
      <trkpt lat="42.33514" lon="1.9158">
        <ele>1974.8</ele>
        <time>1970-01-01T02:38:29.000Z</time>
      </trkpt>
      <trkpt lat="42.33514" lon="1.9158">
        <ele>1974.8</ele>
        <time>1970-01-01T02:38:30.000Z</time>
      </trkpt>
      <trkpt lat="42.33514" lon="1.9158">
        <ele>1974.8</ele>
        <time>1970-01-01T02:38:31.000Z</time>
      </trkpt>
      <trkpt lat="42.33514" lon="1.9158">
        <ele>1974.8</ele>
        <time>1970-01-01T02:38:32.000Z</time>
      </trkpt>
      <trkpt lat="42.33514" lon="1.9158">
        <ele>1974.8</ele>
        <time>1970-01-01T02:38:33.000Z</time>
      </trkpt>
      <trkpt lat="42.33514" lon="1.9158">
        <ele>1974.8</ele>
        <time>1970-01-01T02:38:34.000Z</time>
      </trkpt>
      <trkpt lat="42.33514" lon="1.9158">
        <ele>1974.8</ele>
        <time>1970-01-01T02:38:35.000Z</time>
      </trkpt>
      <trkpt lat="42.33514" lon="1.9158">
        <ele>1974.8</ele>
        <time>1970-01-01T02:38:36.000Z</time>
      </trkpt>
      <trkpt lat="42.33514" lon="1.9158">
        <ele>1974.8</ele>
        <time>1970-01-01T02:38:37.000Z</time>
      </trkpt>
      <trkpt lat="42.33514" lon="1.9158">
        <ele>1974.8</ele>
        <time>1970-01-01T02:38:38.000Z</time>
      </trkpt>
      <trkpt lat="42.335125" lon="1.915834">
        <ele>1974.6</ele>
        <time>1970-01-01T02:38:39.000Z</time>
      </trkpt>
      <trkpt lat="42.33511" lon="1.915867">
        <ele>1974.3</ele>
        <time>1970-01-01T02:38:40.000Z</time>
      </trkpt>
      <trkpt lat="42.335091" lon="1.915909">
        <ele>1974</ele>
        <time>1970-01-01T02:38:41.000Z</time>
      </trkpt>
      <trkpt lat="42.335064" lon="1.915953">
        <ele>1973.7</ele>
        <time>1970-01-01T02:38:42.000Z</time>
      </trkpt>
      <trkpt lat="42.335033" lon="1.916005">
        <ele>1973.4</ele>
        <time>1970-01-01T02:38:43.000Z</time>
      </trkpt>
      <trkpt lat="42.335011" lon="1.916063">
        <ele>1973.1</ele>
        <time>1970-01-01T02:38:44.000Z</time>
      </trkpt>
      <trkpt lat="42.334991" lon="1.916134">
        <ele>1972.7</ele>
        <time>1970-01-01T02:38:45.000Z</time>
      </trkpt>
      <trkpt lat="42.334988" lon="1.916194">
        <ele>1972.4</ele>
        <time>1970-01-01T02:38:46.000Z</time>
      </trkpt>
      <trkpt lat="42.334995" lon="1.916255">
        <ele>1972.1</ele>
        <time>1970-01-01T02:38:47.000Z</time>
      </trkpt>
      <trkpt lat="42.335014" lon="1.916333">
        <ele>1971.7</ele>
        <time>1970-01-01T02:38:48.000Z</time>
      </trkpt>
      <trkpt lat="42.335041" lon="1.916396">
        <ele>1971.3</ele>
        <time>1970-01-01T02:38:49.000Z</time>
      </trkpt>
      <trkpt lat="42.335056" lon="1.916454">
        <ele>1970.9</ele>
        <time>1970-01-01T02:38:50.000Z</time>
      </trkpt>
      <trkpt lat="42.335087" lon="1.916513">
        <ele>1970.4</ele>
        <time>1970-01-01T02:38:51.000Z</time>
      </trkpt>
      <trkpt lat="42.33511" lon="1.916557">
        <ele>1969.9</ele>
        <time>1970-01-01T02:38:52.000Z</time>
      </trkpt>
      <trkpt lat="42.335114" lon="1.916589">
        <ele>1969.5</ele>
        <time>1970-01-01T02:38:53.000Z</time>
      </trkpt>
      <trkpt lat="42.335091" lon="1.916583">
        <ele>1969.1</ele>
        <time>1970-01-01T02:38:54.000Z</time>
      </trkpt>
      <trkpt lat="42.33506" lon="1.916558">
        <ele>1968.5</ele>
        <time>1970-01-01T02:38:55.000Z</time>
      </trkpt>
      <trkpt lat="42.335033" lon="1.916562">
        <ele>1968</ele>
        <time>1970-01-01T02:38:56.000Z</time>
      </trkpt>
      <trkpt lat="42.33503" lon="1.916607">
        <ele>1967.4</ele>
        <time>1970-01-01T02:38:57.000Z</time>
      </trkpt>
      <trkpt lat="42.335053" lon="1.916663">
        <ele>1966.5</ele>
        <time>1970-01-01T02:38:58.000Z</time>
      </trkpt>
      <trkpt lat="42.335075" lon="1.916711">
        <ele>1965.8</ele>
        <time>1970-01-01T02:38:59.000Z</time>
      </trkpt>
      <trkpt lat="42.335072" lon="1.916759">
        <ele>1965.1</ele>
        <time>1970-01-01T02:39:00.000Z</time>
      </trkpt>
      <trkpt lat="42.335045" lon="1.916768">
        <ele>1964.6</ele>
        <time>1970-01-01T02:39:01.000Z</time>
      </trkpt>
      <trkpt lat="42.335003" lon="1.91674">
        <ele>1963.8</ele>
        <time>1970-01-01T02:39:02.000Z</time>
      </trkpt>
      <trkpt lat="42.334965" lon="1.916739">
        <ele>1963.1</ele>
        <time>1970-01-01T02:39:03.000Z</time>
      </trkpt>
      <trkpt lat="42.334946" lon="1.916778">
        <ele>1962.5</ele>
        <time>1970-01-01T02:39:04.000Z</time>
      </trkpt>
      <trkpt lat="42.334969" lon="1.91684">
        <ele>1961.6</ele>
        <time>1970-01-01T02:39:05.000Z</time>
      </trkpt>
      <trkpt lat="42.335003" lon="1.916892">
        <ele>1960.9</ele>
        <time>1970-01-01T02:39:06.000Z</time>
      </trkpt>
      <trkpt lat="42.335033" lon="1.916955">
        <ele>1960.1</ele>
        <time>1970-01-01T02:39:07.000Z</time>
      </trkpt>
      <trkpt lat="42.335053" lon="1.917022">
        <ele>1959.5</ele>
        <time>1970-01-01T02:39:08.000Z</time>
      </trkpt>
      <trkpt lat="42.335079" lon="1.917088">
        <ele>1958.9</ele>
        <time>1970-01-01T02:39:09.000Z</time>
      </trkpt>
      <trkpt lat="42.335114" lon="1.917145">
        <ele>1958.3</ele>
        <time>1970-01-01T02:39:10.000Z</time>
      </trkpt>
      <trkpt lat="42.335144" lon="1.917193">
        <ele>1957.8</ele>
        <time>1970-01-01T02:39:11.000Z</time>
      </trkpt>
      <trkpt lat="42.335178" lon="1.917237">
        <ele>1957.3</ele>
        <time>1970-01-01T02:39:12.000Z</time>
      </trkpt>
      <trkpt lat="42.335209" lon="1.917288">
        <ele>1956.6</ele>
        <time>1970-01-01T02:39:13.000Z</time>
      </trkpt>
      <trkpt lat="42.335232" lon="1.917328">
        <ele>1956.2</ele>
        <time>1970-01-01T02:39:14.000Z</time>
      </trkpt>
      <trkpt lat="42.335251" lon="1.917371">
        <ele>1955.7</ele>
        <time>1970-01-01T02:39:15.000Z</time>
      </trkpt>
      <trkpt lat="42.33527" lon="1.917428">
        <ele>1955.1</ele>
        <time>1970-01-01T02:39:16.000Z</time>
      </trkpt>
      <trkpt lat="42.335293" lon="1.917471">
        <ele>1954.5</ele>
        <time>1970-01-01T02:39:17.000Z</time>
      </trkpt>
      <trkpt lat="42.335316" lon="1.917511">
        <ele>1954</ele>
        <time>1970-01-01T02:39:18.000Z</time>
      </trkpt>
      <trkpt lat="42.335346" lon="1.917563">
        <ele>1953.3</ele>
        <time>1970-01-01T02:39:19.000Z</time>
      </trkpt>
      <trkpt lat="42.335373" lon="1.917603">
        <ele>1952.7</ele>
        <time>1970-01-01T02:39:20.000Z</time>
      </trkpt>
      <trkpt lat="42.335407" lon="1.917648">
        <ele>1952</ele>
        <time>1970-01-01T02:39:21.000Z</time>
      </trkpt>
      <trkpt lat="42.335438" lon="1.917676">
        <ele>1951.5</ele>
        <time>1970-01-01T02:39:22.000Z</time>
      </trkpt>
      <trkpt lat="42.335476" lon="1.917698">
        <ele>1950.9</ele>
        <time>1970-01-01T02:39:23.000Z</time>
      </trkpt>
      <trkpt lat="42.335522" lon="1.917724">
        <ele>1950.2</ele>
        <time>1970-01-01T02:39:24.000Z</time>
      </trkpt>
      <trkpt lat="42.335571" lon="1.917748">
        <ele>1949.6</ele>
        <time>1970-01-01T02:39:25.000Z</time>
      </trkpt>
      <trkpt lat="42.335621" lon="1.917778">
        <ele>1949</ele>
        <time>1970-01-01T02:39:26.000Z</time>
      </trkpt>
      <trkpt lat="42.335671" lon="1.917807">
        <ele>1948.5</ele>
        <time>1970-01-01T02:39:27.000Z</time>
      </trkpt>
      <trkpt lat="42.335709" lon="1.917837">
        <ele>1948.1</ele>
        <time>1970-01-01T02:39:28.000Z</time>
      </trkpt>
      <trkpt lat="42.335739" lon="1.91787">
        <ele>1947.9</ele>
        <time>1970-01-01T02:39:29.000Z</time>
      </trkpt>
      <trkpt lat="42.335762" lon="1.917894">
        <ele>1947.7</ele>
        <time>1970-01-01T02:39:30.000Z</time>
      </trkpt>
      <trkpt lat="42.335789" lon="1.917926">
        <ele>1947.4</ele>
        <time>1970-01-01T02:39:31.000Z</time>
      </trkpt>
      <trkpt lat="42.335808" lon="1.917951">
        <ele>1947.2</ele>
        <time>1970-01-01T02:39:32.000Z</time>
      </trkpt>
      <trkpt lat="42.335827" lon="1.917984">
        <ele>1947</ele>
        <time>1970-01-01T02:39:33.000Z</time>
      </trkpt>
      <trkpt lat="42.335846" lon="1.91803">
        <ele>1946.7</ele>
        <time>1970-01-01T02:39:34.000Z</time>
      </trkpt>
      <trkpt lat="42.335876" lon="1.918097">
        <ele>1946.2</ele>
        <time>1970-01-01T02:39:35.000Z</time>
      </trkpt>
      <trkpt lat="42.335907" lon="1.918149">
        <ele>1945.6</ele>
        <time>1970-01-01T02:39:36.000Z</time>
      </trkpt>
      <trkpt lat="42.335941" lon="1.918191">
        <ele>1945.1</ele>
        <time>1970-01-01T02:39:37.000Z</time>
      </trkpt>
      <trkpt lat="42.335991" lon="1.918244">
        <ele>1944.3</ele>
        <time>1970-01-01T02:39:38.000Z</time>
      </trkpt>
      <trkpt lat="42.336033" lon="1.918295">
        <ele>1943.6</ele>
        <time>1970-01-01T02:39:39.000Z</time>
      </trkpt>
      <trkpt lat="42.336075" lon="1.918333">
        <ele>1942.9</ele>
        <time>1970-01-01T02:39:40.000Z</time>
      </trkpt>
      <trkpt lat="42.336113" lon="1.918356">
        <ele>1942.2</ele>
        <time>1970-01-01T02:39:41.000Z</time>
      </trkpt>
      <trkpt lat="42.336159" lon="1.918393">
        <ele>1941.4</ele>
        <time>1970-01-01T02:39:42.000Z</time>
      </trkpt>
      <trkpt lat="42.336201" lon="1.918431">
        <ele>1940.7</ele>
        <time>1970-01-01T02:39:43.000Z</time>
      </trkpt>
      <trkpt lat="42.336258" lon="1.918454">
        <ele>1939.8</ele>
        <time>1970-01-01T02:39:44.000Z</time>
      </trkpt>
      <trkpt lat="42.33633" lon="1.918487">
        <ele>1938.7</ele>
        <time>1970-01-01T02:39:45.000Z</time>
      </trkpt>
      <trkpt lat="42.336395" lon="1.918545">
        <ele>1937.8</ele>
        <time>1970-01-01T02:39:46.000Z</time>
      </trkpt>
      <trkpt lat="42.336456" lon="1.918594">
        <ele>1937</ele>
        <time>1970-01-01T02:39:47.000Z</time>
      </trkpt>
      <trkpt lat="42.336517" lon="1.918635">
        <ele>1936.3</ele>
        <time>1970-01-01T02:39:48.000Z</time>
      </trkpt>
      <trkpt lat="42.336582" lon="1.918672">
        <ele>1935.7</ele>
        <time>1970-01-01T02:39:49.000Z</time>
      </trkpt>
      <trkpt lat="42.336651" lon="1.918719">
        <ele>1935.1</ele>
        <time>1970-01-01T02:39:50.000Z</time>
      </trkpt>
      <trkpt lat="42.336723" lon="1.918758">
        <ele>1934.6</ele>
        <time>1970-01-01T02:39:51.000Z</time>
      </trkpt>
      <trkpt lat="42.336796" lon="1.918795">
        <ele>1934.1</ele>
        <time>1970-01-01T02:39:52.000Z</time>
      </trkpt>
      <trkpt lat="42.336853" lon="1.918828">
        <ele>1933.7</ele>
        <time>1970-01-01T02:39:53.000Z</time>
      </trkpt>
      <trkpt lat="42.33691" lon="1.918861">
        <ele>1933.3</ele>
        <time>1970-01-01T02:39:54.000Z</time>
      </trkpt>
      <trkpt lat="42.336971" lon="1.918881">
        <ele>1932.7</ele>
        <time>1970-01-01T02:39:55.000Z</time>
      </trkpt>
      <trkpt lat="42.337044" lon="1.918899">
        <ele>1932.1</ele>
        <time>1970-01-01T02:39:56.000Z</time>
      </trkpt>
      <trkpt lat="42.337112" lon="1.918903">
        <ele>1931.4</ele>
        <time>1970-01-01T02:39:57.000Z</time>
      </trkpt>
      <trkpt lat="42.337177" lon="1.918914">
        <ele>1930.6</ele>
        <time>1970-01-01T02:39:58.000Z</time>
      </trkpt>
      <trkpt lat="42.337234" lon="1.918927">
        <ele>1929.9</ele>
        <time>1970-01-01T02:39:59.000Z</time>
      </trkpt>
      <trkpt lat="42.337292" lon="1.918976">
        <ele>1928.9</ele>
        <time>1970-01-01T02:40:00.000Z</time>
      </trkpt>
      <trkpt lat="42.33736" lon="1.91905">
        <ele>1927.5</ele>
        <time>1970-01-01T02:40:01.000Z</time>
      </trkpt>
      <trkpt lat="42.337441" lon="1.919118">
        <ele>1925.8</ele>
        <time>1970-01-01T02:40:02.000Z</time>
      </trkpt>
      <trkpt lat="42.337536" lon="1.91917">
        <ele>1924</ele>
        <time>1970-01-01T02:40:03.000Z</time>
      </trkpt>
      <trkpt lat="42.337631" lon="1.919198">
        <ele>1922.3</ele>
        <time>1970-01-01T02:40:04.000Z</time>
      </trkpt>
      <trkpt lat="42.337727" lon="1.919234">
        <ele>1920.7</ele>
        <time>1970-01-01T02:40:05.000Z</time>
      </trkpt>
      <trkpt lat="42.337822" lon="1.919275">
        <ele>1919.3</ele>
        <time>1970-01-01T02:40:06.000Z</time>
      </trkpt>
      <trkpt lat="42.337914" lon="1.919324">
        <ele>1918.2</ele>
        <time>1970-01-01T02:40:07.000Z</time>
      </trkpt>
      <trkpt lat="42.337994" lon="1.919381">
        <ele>1917.5</ele>
        <time>1970-01-01T02:40:08.000Z</time>
      </trkpt>
      <trkpt lat="42.33807" lon="1.91944">
        <ele>1916.9</ele>
        <time>1970-01-01T02:40:09.000Z</time>
      </trkpt>
      <trkpt lat="42.338142" lon="1.919503">
        <ele>1916.3</ele>
        <time>1970-01-01T02:40:10.000Z</time>
      </trkpt>
      <trkpt lat="42.338207" lon="1.919561">
        <ele>1915.8</ele>
        <time>1970-01-01T02:40:11.000Z</time>
      </trkpt>
      <trkpt lat="42.338261" lon="1.91963">
        <ele>1915.3</ele>
        <time>1970-01-01T02:40:12.000Z</time>
      </trkpt>
      <trkpt lat="42.338303" lon="1.919714">
        <ele>1914.7</ele>
        <time>1970-01-01T02:40:13.000Z</time>
      </trkpt>
      <trkpt lat="42.338333" lon="1.919798">
        <ele>1914.3</ele>
        <time>1970-01-01T02:40:14.000Z</time>
      </trkpt>
      <trkpt lat="42.33836" lon="1.919891">
        <ele>1913.7</ele>
        <time>1970-01-01T02:40:15.000Z</time>
      </trkpt>
      <trkpt lat="42.338383" lon="1.919973">
        <ele>1913.2</ele>
        <time>1970-01-01T02:40:16.000Z</time>
      </trkpt>
      <trkpt lat="42.338421" lon="1.920047">
        <ele>1912.6</ele>
        <time>1970-01-01T02:40:17.000Z</time>
      </trkpt>
      <trkpt lat="42.338467" lon="1.920112">
        <ele>1911.9</ele>
        <time>1970-01-01T02:40:18.000Z</time>
      </trkpt>
      <trkpt lat="42.33852" lon="1.920177">
        <ele>1911.1</ele>
        <time>1970-01-01T02:40:19.000Z</time>
      </trkpt>
      <trkpt lat="42.338577" lon="1.920244">
        <ele>1910.3</ele>
        <time>1970-01-01T02:40:20.000Z</time>
      </trkpt>
      <trkpt lat="42.338627" lon="1.920326">
        <ele>1909.4</ele>
        <time>1970-01-01T02:40:21.000Z</time>
      </trkpt>
      <trkpt lat="42.33865" lon="1.920429">
        <ele>1908.6</ele>
        <time>1970-01-01T02:40:22.000Z</time>
      </trkpt>
      <trkpt lat="42.338631" lon="1.920516">
        <ele>1907.8</ele>
        <time>1970-01-01T02:40:23.000Z</time>
      </trkpt>
      <trkpt lat="42.338585" lon="1.92056">
        <ele>1907.3</ele>
        <time>1970-01-01T02:40:24.000Z</time>
      </trkpt>
      <trkpt lat="42.338528" lon="1.920566">
        <ele>1906.7</ele>
        <time>1970-01-01T02:40:25.000Z</time>
      </trkpt>
      <trkpt lat="42.338474" lon="1.920552">
        <ele>1906.1</ele>
        <time>1970-01-01T02:40:26.000Z</time>
      </trkpt>
      <trkpt lat="42.338425" lon="1.920547">
        <ele>1905.5</ele>
        <time>1970-01-01T02:40:27.000Z</time>
      </trkpt>
      <trkpt lat="42.338402" lon="1.920551">
        <ele>1905.2</ele>
        <time>1970-01-01T02:40:28.000Z</time>
      </trkpt>
      <trkpt lat="42.33841" lon="1.920598">
        <ele>1904.7</ele>
        <time>1970-01-01T02:40:29.000Z</time>
      </trkpt>
      <trkpt lat="42.338421" lon="1.920629">
        <ele>1904.4</ele>
        <time>1970-01-01T02:40:30.000Z</time>
      </trkpt>
      <trkpt lat="42.338451" lon="1.920694">
        <ele>1903.7</ele>
        <time>1970-01-01T02:40:31.000Z</time>
      </trkpt>
      <trkpt lat="42.338482" lon="1.920745">
        <ele>1903</ele>
        <time>1970-01-01T02:40:32.000Z</time>
      </trkpt>
      <trkpt lat="42.338512" lon="1.920784">
        <ele>1902.5</ele>
        <time>1970-01-01T02:40:33.000Z</time>
      </trkpt>
      <trkpt lat="42.338532" lon="1.920819">
        <ele>1902.1</ele>
        <time>1970-01-01T02:40:34.000Z</time>
      </trkpt>
      <trkpt lat="42.338532" lon="1.920851">
        <ele>1901.7</ele>
        <time>1970-01-01T02:40:35.000Z</time>
      </trkpt>
      <trkpt lat="42.338509" lon="1.920875">
        <ele>1901.3</ele>
        <time>1970-01-01T02:40:36.000Z</time>
      </trkpt>
      <trkpt lat="42.338467" lon="1.920889">
        <ele>1900.7</ele>
        <time>1970-01-01T02:40:37.000Z</time>
      </trkpt>
      <trkpt lat="42.338421" lon="1.920889">
        <ele>1900.1</ele>
        <time>1970-01-01T02:40:38.000Z</time>
      </trkpt>
      <trkpt lat="42.338375" lon="1.920895">
        <ele>1899.4</ele>
        <time>1970-01-01T02:40:39.000Z</time>
      </trkpt>
      <trkpt lat="42.338345" lon="1.920926">
        <ele>1898.8</ele>
        <time>1970-01-01T02:40:40.000Z</time>
      </trkpt>
      <trkpt lat="42.338329" lon="1.920966">
        <ele>1898.3</ele>
        <time>1970-01-01T02:40:41.000Z</time>
      </trkpt>
      <trkpt lat="42.338333" lon="1.921013">
        <ele>1897.8</ele>
        <time>1970-01-01T02:40:42.000Z</time>
      </trkpt>
      <trkpt lat="42.338348" lon="1.921058">
        <ele>1897.2</ele>
        <time>1970-01-01T02:40:43.000Z</time>
      </trkpt>
      <trkpt lat="42.338375" lon="1.921089">
        <ele>1896.6</ele>
        <time>1970-01-01T02:40:44.000Z</time>
      </trkpt>
      <trkpt lat="42.338409" lon="1.921111">
        <ele>1896</ele>
        <time>1970-01-01T02:40:45.000Z</time>
      </trkpt>
      <trkpt lat="42.338451" lon="1.921135">
        <ele>1895.2</ele>
        <time>1970-01-01T02:40:46.000Z</time>
      </trkpt>
      <trkpt lat="42.338478" lon="1.921173">
        <ele>1894.4</ele>
        <time>1970-01-01T02:40:47.000Z</time>
      </trkpt>
      <trkpt lat="42.338486" lon="1.921223">
        <ele>1893.5</ele>
        <time>1970-01-01T02:40:48.000Z</time>
      </trkpt>
      <trkpt lat="42.338474" lon="1.921266">
        <ele>1892.7</ele>
        <time>1970-01-01T02:40:49.000Z</time>
      </trkpt>
      <trkpt lat="42.338451" lon="1.921295">
        <ele>1891.9</ele>
        <time>1970-01-01T02:40:50.000Z</time>
      </trkpt>
      <trkpt lat="42.338432" lon="1.921313">
        <ele>1891.2</ele>
        <time>1970-01-01T02:40:51.000Z</time>
      </trkpt>
      <trkpt lat="42.338432" lon="1.921334">
        <ele>1890.8</ele>
        <time>1970-01-01T02:40:52.000Z</time>
      </trkpt>
      <trkpt lat="42.33844" lon="1.921358">
        <ele>1890.1</ele>
        <time>1970-01-01T02:40:53.000Z</time>
      </trkpt>
      <trkpt lat="42.33844" lon="1.921388">
        <ele>1889.4</ele>
        <time>1970-01-01T02:40:54.000Z</time>
      </trkpt>
      <trkpt lat="42.338428" lon="1.921422">
        <ele>1888.6</ele>
        <time>1970-01-01T02:40:55.000Z</time>
      </trkpt>
      <trkpt lat="42.338402" lon="1.921443">
        <ele>1887.6</ele>
        <time>1970-01-01T02:40:56.000Z</time>
      </trkpt>
      <trkpt lat="42.338367" lon="1.921454">
        <ele>1886.5</ele>
        <time>1970-01-01T02:40:57.000Z</time>
      </trkpt>
      <trkpt lat="42.338337" lon="1.921464">
        <ele>1885.5</ele>
        <time>1970-01-01T02:40:58.000Z</time>
      </trkpt>
      <trkpt lat="42.338306" lon="1.921483">
        <ele>1884.5</ele>
        <time>1970-01-01T02:40:59.000Z</time>
      </trkpt>
      <trkpt lat="42.338291" lon="1.92151">
        <ele>1883.8</ele>
        <time>1970-01-01T02:41:00.000Z</time>
      </trkpt>
      <trkpt lat="42.338284" lon="1.921541">
        <ele>1883.1</ele>
        <time>1970-01-01T02:41:01.000Z</time>
      </trkpt>
      <trkpt lat="42.338276" lon="1.92157">
        <ele>1882.4</ele>
        <time>1970-01-01T02:41:02.000Z</time>
      </trkpt>
      <trkpt lat="42.338257" lon="1.921601">
        <ele>1881.6</ele>
        <time>1970-01-01T02:41:03.000Z</time>
      </trkpt>
      <trkpt lat="42.338226" lon="1.921619">
        <ele>1880.7</ele>
        <time>1970-01-01T02:41:04.000Z</time>
      </trkpt>
      <trkpt lat="42.338188" lon="1.921635">
        <ele>1879.6</ele>
        <time>1970-01-01T02:41:05.000Z</time>
      </trkpt>
      <trkpt lat="42.338154" lon="1.921651">
        <ele>1878.7</ele>
        <time>1970-01-01T02:41:06.000Z</time>
      </trkpt>
      <trkpt lat="42.338123" lon="1.921671">
        <ele>1877.8</ele>
        <time>1970-01-01T02:41:07.000Z</time>
      </trkpt>
      <trkpt lat="42.338093" lon="1.921683">
        <ele>1877</ele>
        <time>1970-01-01T02:41:08.000Z</time>
      </trkpt>
      <trkpt lat="42.338066" lon="1.92169">
        <ele>1876.3</ele>
        <time>1970-01-01T02:41:09.000Z</time>
      </trkpt>
      <trkpt lat="42.338028" lon="1.921695">
        <ele>1875.3</ele>
        <time>1970-01-01T02:41:10.000Z</time>
      </trkpt>
      <trkpt lat="42.337994" lon="1.921691">
        <ele>1874.4</ele>
        <time>1970-01-01T02:41:11.000Z</time>
      </trkpt>
      <trkpt lat="42.337955" lon="1.921674">
        <ele>1873.3</ele>
        <time>1970-01-01T02:41:12.000Z</time>
      </trkpt>
      <trkpt lat="42.337921" lon="1.921634">
        <ele>1872.1</ele>
        <time>1970-01-01T02:41:13.000Z</time>
      </trkpt>
      <trkpt lat="42.337891" lon="1.921599">
        <ele>1871</ele>
        <time>1970-01-01T02:41:14.000Z</time>
      </trkpt>
      <trkpt lat="42.337852" lon="1.921577">
        <ele>1869.9</ele>
        <time>1970-01-01T02:41:15.000Z</time>
      </trkpt>
      <trkpt lat="42.337818" lon="1.921564">
        <ele>1869.1</ele>
        <time>1970-01-01T02:41:16.000Z</time>
      </trkpt>
      <trkpt lat="42.337776" lon="1.921553">
        <ele>1868.1</ele>
        <time>1970-01-01T02:41:17.000Z</time>
      </trkpt>
      <trkpt lat="42.337727" lon="1.921552">
        <ele>1867.1</ele>
        <time>1970-01-01T02:41:18.000Z</time>
      </trkpt>
      <trkpt lat="42.337681" lon="1.921543">
        <ele>1866.2</ele>
        <time>1970-01-01T02:41:19.000Z</time>
      </trkpt>
      <trkpt lat="42.337643" lon="1.921547">
        <ele>1865.6</ele>
        <time>1970-01-01T02:41:20.000Z</time>
      </trkpt>
      <trkpt lat="42.337605" lon="1.921554">
        <ele>1864.9</ele>
        <time>1970-01-01T02:41:21.000Z</time>
      </trkpt>
      <trkpt lat="42.337574" lon="1.921548">
        <ele>1864.4</ele>
        <time>1970-01-01T02:41:22.000Z</time>
      </trkpt>
      <trkpt lat="42.337528" lon="1.921557">
        <ele>1863.7</ele>
        <time>1970-01-01T02:41:23.000Z</time>
      </trkpt>
      <trkpt lat="42.337486" lon="1.921567">
        <ele>1863</ele>
        <time>1970-01-01T02:41:24.000Z</time>
      </trkpt>
      <trkpt lat="42.337448" lon="1.921578">
        <ele>1862.3</ele>
        <time>1970-01-01T02:41:25.000Z</time>
      </trkpt>
      <trkpt lat="42.337406" lon="1.921583">
        <ele>1861.6</ele>
        <time>1970-01-01T02:41:26.000Z</time>
      </trkpt>
      <trkpt lat="42.337364" lon="1.921579">
        <ele>1860.8</ele>
        <time>1970-01-01T02:41:27.000Z</time>
      </trkpt>
      <trkpt lat="42.337311" lon="1.921568">
        <ele>1859.8</ele>
        <time>1970-01-01T02:41:28.000Z</time>
      </trkpt>
      <trkpt lat="42.337265" lon="1.921555">
        <ele>1859.3</ele>
        <time>1970-01-01T02:41:29.000Z</time>
      </trkpt>
      <trkpt lat="42.337219" lon="1.921542">
        <ele>1858.8</ele>
        <time>1970-01-01T02:41:30.000Z</time>
      </trkpt>
      <trkpt lat="42.3372" lon="1.921524">
        <ele>1858.5</ele>
        <time>1970-01-01T02:41:31.000Z</time>
      </trkpt>
      <trkpt lat="42.337189" lon="1.921513">
        <ele>1858.3</ele>
        <time>1970-01-01T02:41:32.000Z</time>
      </trkpt>
      <trkpt lat="42.337184" lon="1.921513">
        <ele>1858.3</ele>
        <time>1970-01-01T02:41:33.000Z</time>
      </trkpt>
      <trkpt lat="42.33718" lon="1.921513">
        <ele>1858.2</ele>
        <time>1970-01-01T02:41:34.000Z</time>
      </trkpt>
      <trkpt lat="42.337176" lon="1.921513">
        <ele>1858.2</ele>
        <time>1970-01-01T02:41:35.000Z</time>
      </trkpt>
      <trkpt lat="42.337171" lon="1.921513">
        <ele>1858.1</ele>
        <time>1970-01-01T02:41:36.000Z</time>
      </trkpt>
      <trkpt lat="42.337167" lon="1.921513">
        <ele>1858.1</ele>
        <time>1970-01-01T02:41:37.000Z</time>
      </trkpt>
      <trkpt lat="42.337163" lon="1.921513">
        <ele>1858</ele>
        <time>1970-01-01T02:41:38.000Z</time>
      </trkpt>
      <trkpt lat="42.337158" lon="1.921512">
        <ele>1857.9</ele>
        <time>1970-01-01T02:41:39.000Z</time>
      </trkpt>
      <trkpt lat="42.337154" lon="1.921512">
        <ele>1857.9</ele>
        <time>1970-01-01T02:42:53.000Z</time>
      </trkpt>
      <trkpt lat="42.33715" lon="1.921512">
        <ele>1857.8</ele>
        <time>1970-01-01T02:42:54.000Z</time>
      </trkpt>
      <trkpt lat="42.337145" lon="1.921512">
        <ele>1857.8</ele>
        <time>1970-01-01T02:42:55.000Z</time>
      </trkpt>
      <trkpt lat="42.337141" lon="1.921512">
        <ele>1857.7</ele>
        <time>1970-01-01T02:42:56.000Z</time>
      </trkpt>
      <trkpt lat="42.337137" lon="1.921512">
        <ele>1857.7</ele>
        <time>1970-01-01T02:42:57.000Z</time>
      </trkpt>
      <trkpt lat="42.337132" lon="1.921512">
        <ele>1857.6</ele>
        <time>1970-01-01T02:42:58.000Z</time>
      </trkpt>
      <trkpt lat="42.337128" lon="1.921512">
        <ele>1857.5</ele>
        <time>1970-01-01T02:42:59.000Z</time>
      </trkpt>
      <trkpt lat="42.337105" lon="1.921529">
        <ele>1857.2</ele>
        <time>1970-01-01T02:43:00.000Z</time>
      </trkpt>
      <trkpt lat="42.337093" lon="1.92155">
        <ele>1856.9</ele>
        <time>1970-01-01T02:43:01.000Z</time>
      </trkpt>
      <trkpt lat="42.337093" lon="1.921572">
        <ele>1856.6</ele>
        <time>1970-01-01T02:43:02.000Z</time>
      </trkpt>
      <trkpt lat="42.337097" lon="1.9216">
        <ele>1856.3</ele>
        <time>1970-01-01T02:43:03.000Z</time>
      </trkpt>
      <trkpt lat="42.337101" lon="1.921631">
        <ele>1855.9</ele>
        <time>1970-01-01T02:43:04.000Z</time>
      </trkpt>
      <trkpt lat="42.33709" lon="1.921655">
        <ele>1855.5</ele>
        <time>1970-01-01T02:43:05.000Z</time>
      </trkpt>
      <trkpt lat="42.337067" lon="1.921674">
        <ele>1854.9</ele>
        <time>1970-01-01T02:43:06.000Z</time>
      </trkpt>
      <trkpt lat="42.337036" lon="1.921685">
        <ele>1854.2</ele>
        <time>1970-01-01T02:43:07.000Z</time>
      </trkpt>
      <trkpt lat="42.336983" lon="1.921687">
        <ele>1852.9</ele>
        <time>1970-01-01T02:43:08.000Z</time>
      </trkpt>
      <trkpt lat="42.336937" lon="1.921687">
        <ele>1851.7</ele>
        <time>1970-01-01T02:43:09.000Z</time>
      </trkpt>
      <trkpt lat="42.336891" lon="1.921707">
        <ele>1850.5</ele>
        <time>1970-01-01T02:43:10.000Z</time>
      </trkpt>
      <trkpt lat="42.336838" lon="1.92172">
        <ele>1849.2</ele>
        <time>1970-01-01T02:43:11.000Z</time>
      </trkpt>
      <trkpt lat="42.336773" lon="1.921728">
        <ele>1847.8</ele>
        <time>1970-01-01T02:43:12.000Z</time>
      </trkpt>
      <trkpt lat="42.336704" lon="1.921733">
        <ele>1846.4</ele>
        <time>1970-01-01T02:43:13.000Z</time>
      </trkpt>
      <trkpt lat="42.336651" lon="1.921745">
        <ele>1845.5</ele>
        <time>1970-01-01T02:43:14.000Z</time>
      </trkpt>
      <trkpt lat="42.336582" lon="1.921776">
        <ele>1844.3</ele>
        <time>1970-01-01T02:43:15.000Z</time>
      </trkpt>
      <trkpt lat="42.336514" lon="1.921801">
        <ele>1843.2</ele>
        <time>1970-01-01T02:43:16.000Z</time>
      </trkpt>
      <trkpt lat="42.336449" lon="1.921808">
        <ele>1842.2</ele>
        <time>1970-01-01T02:43:17.000Z</time>
      </trkpt>
      <trkpt lat="42.336388" lon="1.921804">
        <ele>1841.4</ele>
        <time>1970-01-01T02:43:18.000Z</time>
      </trkpt>
      <trkpt lat="42.336327" lon="1.921785">
        <ele>1840.6</ele>
        <time>1970-01-01T02:43:19.000Z</time>
      </trkpt>
      <trkpt lat="42.336266" lon="1.921758">
        <ele>1839.8</ele>
        <time>1970-01-01T02:43:20.000Z</time>
      </trkpt>
      <trkpt lat="42.336197" lon="1.921725">
        <ele>1839.5</ele>
        <time>1970-01-01T02:43:21.000Z</time>
      </trkpt>
      <trkpt lat="42.336124" lon="1.921705">
        <ele>1839.2</ele>
        <time>1970-01-01T02:43:22.000Z</time>
      </trkpt>
      <trkpt lat="42.336056" lon="1.921695">
        <ele>1838.9</ele>
        <time>1970-01-01T02:43:23.000Z</time>
      </trkpt>
      <trkpt lat="42.336006" lon="1.921693">
        <ele>1838.7</ele>
        <time>1970-01-01T02:43:24.000Z</time>
      </trkpt>
      <trkpt lat="42.335945" lon="1.921692">
        <ele>1838.5</ele>
        <time>1970-01-01T02:43:25.000Z</time>
      </trkpt>
      <trkpt lat="42.335888" lon="1.921683">
        <ele>1838.4</ele>
        <time>1970-01-01T02:43:26.000Z</time>
      </trkpt>
      <trkpt lat="42.335835" lon="1.921666">
        <ele>1838.2</ele>
        <time>1970-01-01T02:43:27.000Z</time>
      </trkpt>
      <trkpt lat="42.335789" lon="1.921637">
        <ele>1838.1</ele>
        <time>1970-01-01T02:43:28.000Z</time>
      </trkpt>
      <trkpt lat="42.335743" lon="1.9216">
        <ele>1838</ele>
        <time>1970-01-01T02:43:29.000Z</time>
      </trkpt>
      <trkpt lat="42.335709" lon="1.921561">
        <ele>1837.8</ele>
        <time>1970-01-01T02:43:30.000Z</time>
      </trkpt>
      <trkpt lat="42.335674" lon="1.921515">
        <ele>1837.7</ele>
        <time>1970-01-01T02:43:31.000Z</time>
      </trkpt>
      <trkpt lat="42.335644" lon="1.921471">
        <ele>1837.6</ele>
        <time>1970-01-01T02:43:32.000Z</time>
      </trkpt>
      <trkpt lat="42.335617" lon="1.921424">
        <ele>1837.4</ele>
        <time>1970-01-01T02:43:33.000Z</time>
      </trkpt>
      <trkpt lat="42.335598" lon="1.92138">
        <ele>1837.3</ele>
        <time>1970-01-01T02:43:34.000Z</time>
      </trkpt>
      <trkpt lat="42.335571" lon="1.921333">
        <ele>1837.2</ele>
        <time>1970-01-01T02:43:35.000Z</time>
      </trkpt>
      <trkpt lat="42.335545" lon="1.921288">
        <ele>1837</ele>
        <time>1970-01-01T02:43:36.000Z</time>
      </trkpt>
      <trkpt lat="42.335506" lon="1.921243">
        <ele>1836.9</ele>
        <time>1970-01-01T02:43:37.000Z</time>
      </trkpt>
      <trkpt lat="42.335464" lon="1.921189">
        <ele>1836.7</ele>
        <time>1970-01-01T02:43:38.000Z</time>
      </trkpt>
      <trkpt lat="42.3354" lon="1.921125">
        <ele>1836.4</ele>
        <time>1970-01-01T02:43:39.000Z</time>
      </trkpt>
      <trkpt lat="42.335346" lon="1.921057">
        <ele>1835.9</ele>
        <time>1970-01-01T02:43:40.000Z</time>
      </trkpt>
      <trkpt lat="42.3353" lon="1.920978">
        <ele>1835.2</ele>
        <time>1970-01-01T02:43:41.000Z</time>
      </trkpt>
      <trkpt lat="42.335251" lon="1.920917">
        <ele>1834.6</ele>
        <time>1970-01-01T02:43:42.000Z</time>
      </trkpt>
      <trkpt lat="42.335186" lon="1.920859">
        <ele>1834</ele>
        <time>1970-01-01T02:43:43.000Z</time>
      </trkpt>
      <trkpt lat="42.335133" lon="1.920823">
        <ele>1833.6</ele>
        <time>1970-01-01T02:43:44.000Z</time>
      </trkpt>
      <trkpt lat="42.335072" lon="1.92078">
        <ele>1833.2</ele>
        <time>1970-01-01T02:43:45.000Z</time>
      </trkpt>
      <trkpt lat="42.335003" lon="1.920715">
        <ele>1832.8</ele>
        <time>1970-01-01T02:43:46.000Z</time>
      </trkpt>
      <trkpt lat="42.33493" lon="1.920675">
        <ele>1832.5</ele>
        <time>1970-01-01T02:43:47.000Z</time>
      </trkpt>
      <trkpt lat="42.334858" lon="1.920645">
        <ele>1832.3</ele>
        <time>1970-01-01T02:43:48.000Z</time>
      </trkpt>
      <trkpt lat="42.334774" lon="1.920605">
        <ele>1832.1</ele>
        <time>1970-01-01T02:43:49.000Z</time>
      </trkpt>
      <trkpt lat="42.334702" lon="1.920558">
        <ele>1832.1</ele>
        <time>1970-01-01T02:43:50.000Z</time>
      </trkpt>
      <trkpt lat="42.334641" lon="1.920547">
        <ele>1832.1</ele>
        <time>1970-01-01T02:43:51.000Z</time>
      </trkpt>
      <trkpt lat="42.334576" lon="1.920538">
        <ele>1832.2</ele>
        <time>1970-01-01T02:43:52.000Z</time>
      </trkpt>
      <trkpt lat="42.334522" lon="1.920548">
        <ele>1832.3</ele>
        <time>1970-01-01T02:43:53.000Z</time>
      </trkpt>
      <trkpt lat="42.334488" lon="1.920576">
        <ele>1832.4</ele>
        <time>1970-01-01T02:43:54.000Z</time>
      </trkpt>
      <trkpt lat="42.334442" lon="1.920593">
        <ele>1832.4</ele>
        <time>1970-01-01T02:43:55.000Z</time>
      </trkpt>
      <trkpt lat="42.334396" lon="1.920608">
        <ele>1832.5</ele>
        <time>1970-01-01T02:43:56.000Z</time>
      </trkpt>
      <trkpt lat="42.334351" lon="1.92063">
        <ele>1832.5</ele>
        <time>1970-01-01T02:43:57.000Z</time>
      </trkpt>
      <trkpt lat="42.334305" lon="1.920655">
        <ele>1832.6</ele>
        <time>1970-01-01T02:43:58.000Z</time>
      </trkpt>
      <trkpt lat="42.334263" lon="1.920689">
        <ele>1832.6</ele>
        <time>1970-01-01T02:43:59.000Z</time>
      </trkpt>
      <trkpt lat="42.334221" lon="1.920724">
        <ele>1832.7</ele>
        <time>1970-01-01T02:44:00.000Z</time>
      </trkpt>
      <trkpt lat="42.334175" lon="1.92074">
        <ele>1832.7</ele>
        <time>1970-01-01T02:44:01.000Z</time>
      </trkpt>
      <trkpt lat="42.334122" lon="1.920756">
        <ele>1832.6</ele>
        <time>1970-01-01T02:44:02.000Z</time>
      </trkpt>
      <trkpt lat="42.334076" lon="1.920786">
        <ele>1832.5</ele>
        <time>1970-01-01T02:44:03.000Z</time>
      </trkpt>
      <trkpt lat="42.334034" lon="1.920815">
        <ele>1832.3</ele>
        <time>1970-01-01T02:44:04.000Z</time>
      </trkpt>
      <trkpt lat="42.334003" lon="1.920837">
        <ele>1832.1</ele>
        <time>1970-01-01T02:44:05.000Z</time>
      </trkpt>
      <trkpt lat="42.333977" lon="1.920858">
        <ele>1831.9</ele>
        <time>1970-01-01T02:44:06.000Z</time>
      </trkpt>
      <trkpt lat="42.333962" lon="1.920892">
        <ele>1831.7</ele>
        <time>1970-01-01T02:44:07.000Z</time>
      </trkpt>
      <trkpt lat="42.333942" lon="1.920927">
        <ele>1831.5</ele>
        <time>1970-01-01T02:44:08.000Z</time>
      </trkpt>
      <trkpt lat="42.333908" lon="1.920958">
        <ele>1831.1</ele>
        <time>1970-01-01T02:44:09.000Z</time>
      </trkpt>
      <trkpt lat="42.333874" lon="1.920986">
        <ele>1830.6</ele>
        <time>1970-01-01T02:44:10.000Z</time>
      </trkpt>
      <trkpt lat="42.333851" lon="1.921026">
        <ele>1830.2</ele>
        <time>1970-01-01T02:44:11.000Z</time>
      </trkpt>
      <trkpt lat="42.33382" lon="1.921075">
        <ele>1829.5</ele>
        <time>1970-01-01T02:44:12.000Z</time>
      </trkpt>
      <trkpt lat="42.33379" lon="1.921124">
        <ele>1828.9</ele>
        <time>1970-01-01T02:44:13.000Z</time>
      </trkpt>
      <trkpt lat="42.333755" lon="1.921162">
        <ele>1828.3</ele>
        <time>1970-01-01T02:44:14.000Z</time>
      </trkpt>
      <trkpt lat="42.333713" lon="1.921196">
        <ele>1827.5</ele>
        <time>1970-01-01T02:44:15.000Z</time>
      </trkpt>
      <trkpt lat="42.333672" lon="1.921246">
        <ele>1826.8</ele>
        <time>1970-01-01T02:44:16.000Z</time>
      </trkpt>
      <trkpt lat="42.333652" lon="1.921284">
        <ele>1826.3</ele>
        <time>1970-01-01T02:44:17.000Z</time>
      </trkpt>
      <trkpt lat="42.33363" lon="1.921317">
        <ele>1825.8</ele>
        <time>1970-01-01T02:44:18.000Z</time>
      </trkpt>
      <trkpt lat="42.333595" lon="1.921343">
        <ele>1825.3</ele>
        <time>1970-01-01T02:44:19.000Z</time>
      </trkpt>
      <trkpt lat="42.333549" lon="1.921403">
        <ele>1824.3</ele>
        <time>1970-01-01T02:44:20.000Z</time>
      </trkpt>
      <trkpt lat="42.333504" lon="1.921451">
        <ele>1823.4</ele>
        <time>1970-01-01T02:44:21.000Z</time>
      </trkpt>
      <trkpt lat="42.333454" lon="1.921506">
        <ele>1822.3</ele>
        <time>1970-01-01T02:44:22.000Z</time>
      </trkpt>
      <trkpt lat="42.333408" lon="1.92158">
        <ele>1821.1</ele>
        <time>1970-01-01T02:44:23.000Z</time>
      </trkpt>
      <trkpt lat="42.333366" lon="1.921641">
        <ele>1820.1</ele>
        <time>1970-01-01T02:44:24.000Z</time>
      </trkpt>
      <trkpt lat="42.333321" lon="1.92171">
        <ele>1819.1</ele>
        <time>1970-01-01T02:44:25.000Z</time>
      </trkpt>
      <trkpt lat="42.333294" lon="1.921765">
        <ele>1818.5</ele>
        <time>1970-01-01T02:44:26.000Z</time>
      </trkpt>
      <trkpt lat="42.333279" lon="1.921812">
        <ele>1818</ele>
        <time>1970-01-01T02:44:27.000Z</time>
      </trkpt>
      <trkpt lat="42.333252" lon="1.92186">
        <ele>1817.6</ele>
        <time>1970-01-01T02:44:28.000Z</time>
      </trkpt>
      <trkpt lat="42.33321" lon="1.921916">
        <ele>1816.9</ele>
        <time>1970-01-01T02:44:29.000Z</time>
      </trkpt>
      <trkpt lat="42.333176" lon="1.92198">
        <ele>1816.2</ele>
        <time>1970-01-01T02:44:30.000Z</time>
      </trkpt>
      <trkpt lat="42.333134" lon="1.922036">
        <ele>1815.4</ele>
        <time>1970-01-01T02:44:31.000Z</time>
      </trkpt>
      <trkpt lat="42.333099" lon="1.9221">
        <ele>1814.7</ele>
        <time>1970-01-01T02:44:32.000Z</time>
      </trkpt>
      <trkpt lat="42.333057" lon="1.922155">
        <ele>1813.9</ele>
        <time>1970-01-01T02:44:33.000Z</time>
      </trkpt>
      <trkpt lat="42.333019" lon="1.922202">
        <ele>1813.2</ele>
        <time>1970-01-01T02:44:34.000Z</time>
      </trkpt>
      <trkpt lat="42.332985" lon="1.922252">
        <ele>1812.6</ele>
        <time>1970-01-01T02:44:35.000Z</time>
      </trkpt>
      <trkpt lat="42.332962" lon="1.922302">
        <ele>1812.1</ele>
        <time>1970-01-01T02:44:36.000Z</time>
      </trkpt>
      <trkpt lat="42.33292" lon="1.922351">
        <ele>1811.5</ele>
        <time>1970-01-01T02:44:37.000Z</time>
      </trkpt>
      <trkpt lat="42.332878" lon="1.92243">
        <ele>1810.7</ele>
        <time>1970-01-01T02:44:38.000Z</time>
      </trkpt>
      <trkpt lat="42.33284" lon="1.922502">
        <ele>1810</ele>
        <time>1970-01-01T02:44:39.000Z</time>
      </trkpt>
      <trkpt lat="42.33279" lon="1.922574">
        <ele>1809.1</ele>
        <time>1970-01-01T02:44:40.000Z</time>
      </trkpt>
      <trkpt lat="42.332741" lon="1.922675">
        <ele>1807.9</ele>
        <time>1970-01-01T02:44:41.000Z</time>
      </trkpt>
      <trkpt lat="42.332695" lon="1.922766">
        <ele>1806.8</ele>
        <time>1970-01-01T02:44:42.000Z</time>
      </trkpt>
      <trkpt lat="42.332649" lon="1.922848">
        <ele>1805.6</ele>
        <time>1970-01-01T02:44:43.000Z</time>
      </trkpt>
      <trkpt lat="42.332603" lon="1.92292">
        <ele>1804.6</ele>
        <time>1970-01-01T02:44:44.000Z</time>
      </trkpt>
      <trkpt lat="42.332558" lon="1.92299">
        <ele>1803.6</ele>
        <time>1970-01-01T02:44:45.000Z</time>
      </trkpt>
      <trkpt lat="42.332512" lon="1.923048">
        <ele>1802.6</ele>
        <time>1970-01-01T02:44:46.000Z</time>
      </trkpt>
      <trkpt lat="42.33247" lon="1.923094">
        <ele>1801.8</ele>
        <time>1970-01-01T02:44:47.000Z</time>
      </trkpt>
      <trkpt lat="42.332413" lon="1.923175">
        <ele>1800.5</ele>
        <time>1970-01-01T02:44:48.000Z</time>
      </trkpt>
      <trkpt lat="42.332367" lon="1.92322">
        <ele>1799.6</ele>
        <time>1970-01-01T02:44:49.000Z</time>
      </trkpt>
      <trkpt lat="42.332325" lon="1.923251">
        <ele>1798.9</ele>
        <time>1970-01-01T02:44:50.000Z</time>
      </trkpt>
      <trkpt lat="42.332294" lon="1.923286">
        <ele>1798.3</ele>
        <time>1970-01-01T02:44:51.000Z</time>
      </trkpt>
      <trkpt lat="42.332264" lon="1.923323">
        <ele>1797.6</ele>
        <time>1970-01-01T02:44:52.000Z</time>
      </trkpt>
      <trkpt lat="42.332214" lon="1.923347">
        <ele>1796.8</ele>
        <time>1970-01-01T02:44:53.000Z</time>
      </trkpt>
      <trkpt lat="42.332172" lon="1.923372">
        <ele>1796</ele>
        <time>1970-01-01T02:44:54.000Z</time>
      </trkpt>
      <trkpt lat="42.33213" lon="1.923411">
        <ele>1795.2</ele>
        <time>1970-01-01T02:44:55.000Z</time>
      </trkpt>
      <trkpt lat="42.332089" lon="1.92345">
        <ele>1794.3</ele>
        <time>1970-01-01T02:44:56.000Z</time>
      </trkpt>
      <trkpt lat="42.332043" lon="1.923486">
        <ele>1793.3</ele>
        <time>1970-01-01T02:44:57.000Z</time>
      </trkpt>
      <trkpt lat="42.331978" lon="1.923516">
        <ele>1792</ele>
        <time>1970-01-01T02:44:58.000Z</time>
      </trkpt>
      <trkpt lat="42.331921" lon="1.923545">
        <ele>1790.8</ele>
        <time>1970-01-01T02:44:59.000Z</time>
      </trkpt>
      <trkpt lat="42.33186" lon="1.923563">
        <ele>1789.7</ele>
        <time>1970-01-01T02:45:00.000Z</time>
      </trkpt>
      <trkpt lat="42.331802" lon="1.923591">
        <ele>1788.4</ele>
        <time>1970-01-01T02:45:01.000Z</time>
      </trkpt>
      <trkpt lat="42.331738" lon="1.923631">
        <ele>1787</ele>
        <time>1970-01-01T02:45:02.000Z</time>
      </trkpt>
      <trkpt lat="42.331657" lon="1.92366">
        <ele>1785.2</ele>
        <time>1970-01-01T02:45:03.000Z</time>
      </trkpt>
      <trkpt lat="42.331577" lon="1.923716">
        <ele>1783.2</ele>
        <time>1970-01-01T02:45:04.000Z</time>
      </trkpt>
      <trkpt lat="42.331516" lon="1.923756">
        <ele>1781.8</ele>
        <time>1970-01-01T02:45:05.000Z</time>
      </trkpt>
      <trkpt lat="42.331471" lon="1.923792">
        <ele>1780.8</ele>
        <time>1970-01-01T02:45:06.000Z</time>
      </trkpt>
      <trkpt lat="42.331429" lon="1.923827">
        <ele>1779.9</ele>
        <time>1970-01-01T02:45:07.000Z</time>
      </trkpt>
      <trkpt lat="42.331398" lon="1.923859">
        <ele>1779.1</ele>
        <time>1970-01-01T02:45:08.000Z</time>
      </trkpt>
      <trkpt lat="42.331375" lon="1.923926">
        <ele>1778.1</ele>
        <time>1970-01-01T02:45:09.000Z</time>
      </trkpt>
      <trkpt lat="42.331383" lon="1.923955">
        <ele>1777.6</ele>
        <time>1970-01-01T02:45:10.000Z</time>
      </trkpt>
      <trkpt lat="42.331383" lon="1.923989">
        <ele>1777.1</ele>
        <time>1970-01-01T02:45:11.000Z</time>
      </trkpt>
      <trkpt lat="42.331364" lon="1.924034">
        <ele>1776.2</ele>
        <time>1970-01-01T02:45:12.000Z</time>
      </trkpt>
      <trkpt lat="42.331333" lon="1.924079">
        <ele>1775</ele>
        <time>1970-01-01T02:45:13.000Z</time>
      </trkpt>
      <trkpt lat="42.331314" lon="1.924116">
        <ele>1774</ele>
        <time>1970-01-01T02:45:14.000Z</time>
      </trkpt>
      <trkpt lat="42.331306" lon="1.924149">
        <ele>1773.2</ele>
        <time>1970-01-01T02:45:15.000Z</time>
      </trkpt>
      <trkpt lat="42.331314" lon="1.924169">
        <ele>1772.7</ele>
        <time>1970-01-01T02:45:16.000Z</time>
      </trkpt>
      <trkpt lat="42.331322" lon="1.924212">
        <ele>1771.6</ele>
        <time>1970-01-01T02:45:17.000Z</time>
      </trkpt>
      <trkpt lat="42.331341" lon="1.924231">
        <ele>1770.7</ele>
        <time>1970-01-01T02:45:18.000Z</time>
      </trkpt>
      <trkpt lat="42.33136" lon="1.924255">
        <ele>1769.8</ele>
        <time>1970-01-01T02:45:19.000Z</time>
      </trkpt>
      <trkpt lat="42.33136" lon="1.924282">
        <ele>1769.1</ele>
        <time>1970-01-01T02:45:20.000Z</time>
      </trkpt>
      <trkpt lat="42.331348" lon="1.924302">
        <ele>1768.4</ele>
        <time>1970-01-01T02:45:21.000Z</time>
      </trkpt>
      <trkpt lat="42.331325" lon="1.924316">
        <ele>1767.6</ele>
        <time>1970-01-01T02:45:22.000Z</time>
      </trkpt>
      <trkpt lat="42.331295" lon="1.924342">
        <ele>1766.3</ele>
        <time>1970-01-01T02:45:23.000Z</time>
      </trkpt>
      <trkpt lat="42.331268" lon="1.924378">
        <ele>1765</ele>
        <time>1970-01-01T02:45:24.000Z</time>
      </trkpt>
      <trkpt lat="42.33123" lon="1.924428">
        <ele>1763.4</ele>
        <time>1970-01-01T02:45:25.000Z</time>
      </trkpt>
      <trkpt lat="42.331188" lon="1.924483">
        <ele>1761.9</ele>
        <time>1970-01-01T02:45:26.000Z</time>
      </trkpt>
      <trkpt lat="42.331146" lon="1.924548">
        <ele>1760.5</ele>
        <time>1970-01-01T02:45:27.000Z</time>
      </trkpt>
      <trkpt lat="42.33112" lon="1.924602">
        <ele>1759.6</ele>
        <time>1970-01-01T02:45:28.000Z</time>
      </trkpt>
      <trkpt lat="42.331097" lon="1.924652">
        <ele>1758.9</ele>
        <time>1970-01-01T02:45:29.000Z</time>
      </trkpt>
      <trkpt lat="42.331085" lon="1.924714">
        <ele>1758.2</ele>
        <time>1970-01-01T02:45:30.000Z</time>
      </trkpt>
      <trkpt lat="42.331074" lon="1.924783">
        <ele>1757.4</ele>
        <time>1970-01-01T02:45:31.000Z</time>
      </trkpt>
      <trkpt lat="42.331081" lon="1.924856">
        <ele>1756.6</ele>
        <time>1970-01-01T02:45:32.000Z</time>
      </trkpt>
      <trkpt lat="42.331078" lon="1.924949">
        <ele>1755.5</ele>
        <time>1970-01-01T02:45:33.000Z</time>
      </trkpt>
      <trkpt lat="42.331066" lon="1.925021">
        <ele>1754.7</ele>
        <time>1970-01-01T02:45:34.000Z</time>
      </trkpt>
      <trkpt lat="42.331047" lon="1.925076">
        <ele>1754</ele>
        <time>1970-01-01T02:45:35.000Z</time>
      </trkpt>
      <trkpt lat="42.331024" lon="1.925133">
        <ele>1753</ele>
        <time>1970-01-01T02:45:36.000Z</time>
      </trkpt>
      <trkpt lat="42.330982" lon="1.9252">
        <ele>1752.4</ele>
        <time>1970-01-01T02:45:37.000Z</time>
      </trkpt>
      <trkpt lat="42.330952" lon="1.925244">
        <ele>1752</ele>
        <time>1970-01-01T02:45:38.000Z</time>
      </trkpt>
      <trkpt lat="42.330906" lon="1.925307">
        <ele>1751.5</ele>
        <time>1970-01-01T02:45:39.000Z</time>
      </trkpt>
      <trkpt lat="42.330864" lon="1.92535">
        <ele>1751.1</ele>
        <time>1970-01-01T02:45:40.000Z</time>
      </trkpt>
      <trkpt lat="42.330826" lon="1.92539">
        <ele>1750.7</ele>
        <time>1970-01-01T02:45:41.000Z</time>
      </trkpt>
      <trkpt lat="42.330788" lon="1.925423">
        <ele>1750.3</ele>
        <time>1970-01-01T02:45:42.000Z</time>
      </trkpt>
      <trkpt lat="42.330749" lon="1.925451">
        <ele>1750.2</ele>
        <time>1970-01-01T02:45:43.000Z</time>
      </trkpt>
      <trkpt lat="42.330704" lon="1.925482">
        <ele>1750</ele>
        <time>1970-01-01T02:45:44.000Z</time>
      </trkpt>
      <trkpt lat="42.330646" lon="1.92551">
        <ele>1749.8</ele>
        <time>1970-01-01T02:45:45.000Z</time>
      </trkpt>
      <trkpt lat="42.330593" lon="1.925506">
        <ele>1749</ele>
        <time>1970-01-01T02:45:46.000Z</time>
      </trkpt>
      <trkpt lat="42.330544" lon="1.925485">
        <ele>1748.7</ele>
        <time>1970-01-01T02:45:47.000Z</time>
      </trkpt>
      <trkpt lat="42.330494" lon="1.925455">
        <ele>1748.2</ele>
        <time>1970-01-01T02:45:48.000Z</time>
      </trkpt>
      <trkpt lat="42.330448" lon="1.925419">
        <ele>1747.7</ele>
        <time>1970-01-01T02:45:49.000Z</time>
      </trkpt>
      <trkpt lat="42.330387" lon="1.925395">
        <ele>1747.1</ele>
        <time>1970-01-01T02:45:50.000Z</time>
      </trkpt>
      <trkpt lat="42.330318" lon="1.925369">
        <ele>1746.3</ele>
        <time>1970-01-01T02:45:51.000Z</time>
      </trkpt>
      <trkpt lat="42.330246" lon="1.925334">
        <ele>1745.4</ele>
        <time>1970-01-01T02:45:52.000Z</time>
      </trkpt>
      <trkpt lat="42.33017" lon="1.925299">
        <ele>1744.6</ele>
        <time>1970-01-01T02:45:53.000Z</time>
      </trkpt>
      <trkpt lat="42.330093" lon="1.925265">
        <ele>1743.7</ele>
        <time>1970-01-01T02:45:54.000Z</time>
      </trkpt>
      <trkpt lat="42.330006" lon="1.925225">
        <ele>1742.8</ele>
        <time>1970-01-01T02:45:55.000Z</time>
      </trkpt>
      <trkpt lat="42.329922" lon="1.92518">
        <ele>1741.8</ele>
        <time>1970-01-01T02:45:56.000Z</time>
      </trkpt>
      <trkpt lat="42.329842" lon="1.925129">
        <ele>1740.9</ele>
        <time>1970-01-01T02:45:57.000Z</time>
      </trkpt>
      <trkpt lat="42.329758" lon="1.925076">
        <ele>1739.9</ele>
        <time>1970-01-01T02:45:58.000Z</time>
      </trkpt>
      <trkpt lat="42.329674" lon="1.925021">
        <ele>1738.8</ele>
        <time>1970-01-01T02:45:59.000Z</time>
      </trkpt>
      <trkpt lat="42.329586" lon="1.924955">
        <ele>1737.7</ele>
        <time>1970-01-01T02:46:00.000Z</time>
      </trkpt>
      <trkpt lat="42.329506" lon="1.92489">
        <ele>1736.8</ele>
        <time>1970-01-01T02:46:01.000Z</time>
      </trkpt>
      <trkpt lat="42.329422" lon="1.924838">
        <ele>1736</ele>
        <time>1970-01-01T02:46:02.000Z</time>
      </trkpt>
      <trkpt lat="42.329342" lon="1.924804">
        <ele>1735.4</ele>
        <time>1970-01-01T02:46:03.000Z</time>
      </trkpt>
      <trkpt lat="42.329243" lon="1.924809">
        <ele>1734.8</ele>
        <time>1970-01-01T02:46:04.000Z</time>
      </trkpt>
      <trkpt lat="42.329147" lon="1.924823">
        <ele>1734.3</ele>
        <time>1970-01-01T02:46:05.000Z</time>
      </trkpt>
      <trkpt lat="42.329071" lon="1.924831">
        <ele>1734.2</ele>
        <time>1970-01-01T02:46:06.000Z</time>
      </trkpt>
      <trkpt lat="42.329006" lon="1.924823">
        <ele>1734.3</ele>
        <time>1970-01-01T02:46:07.000Z</time>
      </trkpt>
      <trkpt lat="42.32896" lon="1.92482">
        <ele>1734.3</ele>
        <time>1970-01-01T02:46:08.000Z</time>
      </trkpt>
      <trkpt lat="42.328926" lon="1.924821">
        <ele>1734.2</ele>
        <time>1970-01-01T02:46:09.000Z</time>
      </trkpt>
      <trkpt lat="42.328903" lon="1.924815">
        <ele>1734.2</ele>
        <time>1970-01-01T02:46:10.000Z</time>
      </trkpt>
      <trkpt lat="42.32888" lon="1.924808">
        <ele>1734.2</ele>
        <time>1970-01-01T02:46:11.000Z</time>
      </trkpt>
      <trkpt lat="42.328838" lon="1.924802">
        <ele>1734.2</ele>
        <time>1970-01-01T02:46:12.000Z</time>
      </trkpt>
      <trkpt lat="42.3288" lon="1.924803">
        <ele>1734.3</ele>
        <time>1970-01-01T02:46:13.000Z</time>
      </trkpt>
      <trkpt lat="42.328758" lon="1.924808">
        <ele>1734.3</ele>
        <time>1970-01-01T02:46:14.000Z</time>
      </trkpt>
      <trkpt lat="42.328716" lon="1.924818">
        <ele>1734.4</ele>
        <time>1970-01-01T02:46:15.000Z</time>
      </trkpt>
      <trkpt lat="42.328671" lon="1.924833">
        <ele>1734.4</ele>
        <time>1970-01-01T02:46:16.000Z</time>
      </trkpt>
      <trkpt lat="42.328625" lon="1.924857">
        <ele>1734.5</ele>
        <time>1970-01-01T02:46:17.000Z</time>
      </trkpt>
      <trkpt lat="42.328579" lon="1.924883">
        <ele>1734.5</ele>
        <time>1970-01-01T02:46:18.000Z</time>
      </trkpt>
      <trkpt lat="42.328533" lon="1.924917">
        <ele>1734.6</ele>
        <time>1970-01-01T02:46:19.000Z</time>
      </trkpt>
      <trkpt lat="42.328495" lon="1.924951">
        <ele>1734.7</ele>
        <time>1970-01-01T02:46:20.000Z</time>
      </trkpt>
      <trkpt lat="42.328461" lon="1.924978">
        <ele>1734.8</ele>
        <time>1970-01-01T02:46:21.000Z</time>
      </trkpt>
      <trkpt lat="42.328423" lon="1.924997">
        <ele>1734.8</ele>
        <time>1970-01-01T02:46:22.000Z</time>
      </trkpt>
      <trkpt lat="42.328388" lon="1.925018">
        <ele>1734.9</ele>
        <time>1970-01-01T02:46:23.000Z</time>
      </trkpt>
      <trkpt lat="42.328358" lon="1.92504">
        <ele>1734.9</ele>
        <time>1970-01-01T02:46:24.000Z</time>
      </trkpt>
      <trkpt lat="42.328327" lon="1.925061">
        <ele>1735</ele>
        <time>1970-01-01T02:46:25.000Z</time>
      </trkpt>
      <trkpt lat="42.328297" lon="1.925088">
        <ele>1735</ele>
        <time>1970-01-01T02:46:26.000Z</time>
      </trkpt>
      <trkpt lat="42.328266" lon="1.925118">
        <ele>1735</ele>
        <time>1970-01-01T02:46:27.000Z</time>
      </trkpt>
      <trkpt lat="42.328243" lon="1.92515">
        <ele>1735.1</ele>
        <time>1970-01-01T02:46:28.000Z</time>
      </trkpt>
      <trkpt lat="42.328224" lon="1.925187">
        <ele>1735.1</ele>
        <time>1970-01-01T02:46:29.000Z</time>
      </trkpt>
      <trkpt lat="42.328201" lon="1.92523">
        <ele>1735.1</ele>
        <time>1970-01-01T02:46:30.000Z</time>
      </trkpt>
      <trkpt lat="42.328178" lon="1.92528">
        <ele>1735.2</ele>
        <time>1970-01-01T02:46:31.000Z</time>
      </trkpt>
      <trkpt lat="42.328152" lon="1.925325">
        <ele>1735.2</ele>
        <time>1970-01-01T02:46:32.000Z</time>
      </trkpt>
      <trkpt lat="42.328129" lon="1.925375">
        <ele>1735.3</ele>
        <time>1970-01-01T02:46:33.000Z</time>
      </trkpt>
      <trkpt lat="42.32811" lon="1.925432">
        <ele>1735.4</ele>
        <time>1970-01-01T02:46:34.000Z</time>
      </trkpt>
      <trkpt lat="42.328091" lon="1.925489">
        <ele>1735.4</ele>
        <time>1970-01-01T02:46:35.000Z</time>
      </trkpt>
      <trkpt lat="42.328075" lon="1.925542">
        <ele>1735.5</ele>
        <time>1970-01-01T02:46:36.000Z</time>
      </trkpt>
      <trkpt lat="42.32806" lon="1.925592">
        <ele>1735.5</ele>
        <time>1970-01-01T02:46:37.000Z</time>
      </trkpt>
      <trkpt lat="42.328045" lon="1.925638">
        <ele>1735.5</ele>
        <time>1970-01-01T02:46:38.000Z</time>
      </trkpt>
      <trkpt lat="42.32803" lon="1.925681">
        <ele>1735.5</ele>
        <time>1970-01-01T02:46:39.000Z</time>
      </trkpt>
      <trkpt lat="42.328007" lon="1.925718">
        <ele>1735.5</ele>
        <time>1970-01-01T02:46:40.000Z</time>
      </trkpt>
      <trkpt lat="42.327984" lon="1.925754">
        <ele>1735.5</ele>
        <time>1970-01-01T02:46:41.000Z</time>
      </trkpt>
      <trkpt lat="42.327957" lon="1.925791">
        <ele>1735.5</ele>
        <time>1970-01-01T02:46:42.000Z</time>
      </trkpt>
      <trkpt lat="42.327934" lon="1.925834">
        <ele>1735.5</ele>
        <time>1970-01-01T02:46:43.000Z</time>
      </trkpt>
      <trkpt lat="42.327911" lon="1.925876">
        <ele>1735.5</ele>
        <time>1970-01-01T02:46:44.000Z</time>
      </trkpt>
      <trkpt lat="42.327888" lon="1.925923">
        <ele>1735.5</ele>
        <time>1970-01-01T02:46:45.000Z</time>
      </trkpt>
      <trkpt lat="42.327866" lon="1.925972">
        <ele>1735.4</ele>
        <time>1970-01-01T02:46:46.000Z</time>
      </trkpt>
      <trkpt lat="42.327847" lon="1.926018">
        <ele>1735.4</ele>
        <time>1970-01-01T02:46:47.000Z</time>
      </trkpt>
      <trkpt lat="42.327831" lon="1.926062">
        <ele>1735.4</ele>
        <time>1970-01-01T02:46:48.000Z</time>
      </trkpt>
      <trkpt lat="42.32782" lon="1.926109">
        <ele>1735.4</ele>
        <time>1970-01-01T02:46:49.000Z</time>
      </trkpt>
      <trkpt lat="42.327805" lon="1.926153">
        <ele>1735.4</ele>
        <time>1970-01-01T02:46:50.000Z</time>
      </trkpt>
      <trkpt lat="42.327785" lon="1.926196">
        <ele>1735.3</ele>
        <time>1970-01-01T02:46:51.000Z</time>
      </trkpt>
      <trkpt lat="42.327763" lon="1.926242">
        <ele>1735.3</ele>
        <time>1970-01-01T02:46:52.000Z</time>
      </trkpt>
      <trkpt lat="42.32774" lon="1.926287">
        <ele>1735.3</ele>
        <time>1970-01-01T02:46:53.000Z</time>
      </trkpt>
      <trkpt lat="42.327721" lon="1.926336">
        <ele>1735.2</ele>
        <time>1970-01-01T02:46:54.000Z</time>
      </trkpt>
      <trkpt lat="42.327698" lon="1.926387">
        <ele>1735.2</ele>
        <time>1970-01-01T02:46:55.000Z</time>
      </trkpt>
      <trkpt lat="42.327671" lon="1.926429">
        <ele>1735.1</ele>
        <time>1970-01-01T02:46:56.000Z</time>
      </trkpt>
      <trkpt lat="42.327641" lon="1.926467">
        <ele>1735</ele>
        <time>1970-01-01T02:46:57.000Z</time>
      </trkpt>
      <trkpt lat="42.32761" lon="1.926504">
        <ele>1734.9</ele>
        <time>1970-01-01T02:46:58.000Z</time>
      </trkpt>
      <trkpt lat="42.327583" lon="1.926546">
        <ele>1734.8</ele>
        <time>1970-01-01T02:46:59.000Z</time>
      </trkpt>
      <trkpt lat="42.32756" lon="1.926597">
        <ele>1734.6</ele>
        <time>1970-01-01T02:47:00.000Z</time>
      </trkpt>
      <trkpt lat="42.327538" lon="1.926658">
        <ele>1734.4</ele>
        <time>1970-01-01T02:47:01.000Z</time>
      </trkpt>
      <trkpt lat="42.327511" lon="1.926731">
        <ele>1734.1</ele>
        <time>1970-01-01T02:47:02.000Z</time>
      </trkpt>
      <trkpt lat="42.327484" lon="1.926799">
        <ele>1733.8</ele>
        <time>1970-01-01T02:47:03.000Z</time>
      </trkpt>
      <trkpt lat="42.327454" lon="1.926876">
        <ele>1733.5</ele>
        <time>1970-01-01T02:47:04.000Z</time>
      </trkpt>
      <trkpt lat="42.327431" lon="1.926957">
        <ele>1733.1</ele>
        <time>1970-01-01T02:47:05.000Z</time>
      </trkpt>
      <trkpt lat="42.327412" lon="1.927045">
        <ele>1732.8</ele>
        <time>1970-01-01T02:47:06.000Z</time>
      </trkpt>
      <trkpt lat="42.327408" lon="1.927131">
        <ele>1732.1</ele>
        <time>1970-01-01T02:47:07.000Z</time>
      </trkpt>
      <trkpt lat="42.327423" lon="1.92721">
        <ele>1731.7</ele>
        <time>1970-01-01T02:47:08.000Z</time>
      </trkpt>
      <trkpt lat="42.327454" lon="1.927287">
        <ele>1731.2</ele>
        <time>1970-01-01T02:47:09.000Z</time>
      </trkpt>
      <trkpt lat="42.32748" lon="1.927363">
        <ele>1730.7</ele>
        <time>1970-01-01T02:47:10.000Z</time>
      </trkpt>
      <trkpt lat="42.327499" lon="1.927435">
        <ele>1730.4</ele>
        <time>1970-01-01T02:47:11.000Z</time>
      </trkpt>
      <trkpt lat="42.327526" lon="1.927517">
        <ele>1729.9</ele>
        <time>1970-01-01T02:47:12.000Z</time>
      </trkpt>
      <trkpt lat="42.327553" lon="1.927603">
        <ele>1729.4</ele>
        <time>1970-01-01T02:47:13.000Z</time>
      </trkpt>
      <trkpt lat="42.327583" lon="1.927692">
        <ele>1728.9</ele>
        <time>1970-01-01T02:47:14.000Z</time>
      </trkpt>
      <trkpt lat="42.327621" lon="1.927783">
        <ele>1728.4</ele>
        <time>1970-01-01T02:47:15.000Z</time>
      </trkpt>
      <trkpt lat="42.327667" lon="1.927865">
        <ele>1727.9</ele>
        <time>1970-01-01T02:47:16.000Z</time>
      </trkpt>
      <trkpt lat="42.327721" lon="1.927936">
        <ele>1727.4</ele>
        <time>1970-01-01T02:47:17.000Z</time>
      </trkpt>
      <trkpt lat="42.327782" lon="1.927996">
        <ele>1727</ele>
        <time>1970-01-01T02:47:18.000Z</time>
      </trkpt>
      <trkpt lat="42.327843" lon="1.928054">
        <ele>1726.8</ele>
        <time>1970-01-01T02:47:19.000Z</time>
      </trkpt>
      <trkpt lat="42.327908" lon="1.928111">
        <ele>1726.5</ele>
        <time>1970-01-01T02:47:20.000Z</time>
      </trkpt>
      <trkpt lat="42.327965" lon="1.928177">
        <ele>1726.4</ele>
        <time>1970-01-01T02:47:21.000Z</time>
      </trkpt>
      <trkpt lat="42.328011" lon="1.928249">
        <ele>1726.1</ele>
        <time>1970-01-01T02:47:22.000Z</time>
      </trkpt>
      <trkpt lat="42.328053" lon="1.928317">
        <ele>1725.9</ele>
        <time>1970-01-01T02:47:23.000Z</time>
      </trkpt>
      <trkpt lat="42.328087" lon="1.928378">
        <ele>1725.6</ele>
        <time>1970-01-01T02:47:24.000Z</time>
      </trkpt>
      <trkpt lat="42.328114" lon="1.928448">
        <ele>1725.3</ele>
        <time>1970-01-01T02:47:25.000Z</time>
      </trkpt>
      <trkpt lat="42.328133" lon="1.928527">
        <ele>1724.9</ele>
        <time>1970-01-01T02:47:26.000Z</time>
      </trkpt>
      <trkpt lat="42.328156" lon="1.928624">
        <ele>1724.4</ele>
        <time>1970-01-01T02:47:27.000Z</time>
      </trkpt>
      <trkpt lat="42.328175" lon="1.928722">
        <ele>1723.9</ele>
        <time>1970-01-01T02:47:28.000Z</time>
      </trkpt>
      <trkpt lat="42.328205" lon="1.928824">
        <ele>1723.3</ele>
        <time>1970-01-01T02:47:29.000Z</time>
      </trkpt>
      <trkpt lat="42.328239" lon="1.928925">
        <ele>1722.8</ele>
        <time>1970-01-01T02:47:30.000Z</time>
      </trkpt>
      <trkpt lat="42.328274" lon="1.92903">
        <ele>1722.2</ele>
        <time>1970-01-01T02:47:31.000Z</time>
      </trkpt>
      <trkpt lat="42.328304" lon="1.929133">
        <ele>1721.7</ele>
        <time>1970-01-01T02:47:32.000Z</time>
      </trkpt>
      <trkpt lat="42.328335" lon="1.929238">
        <ele>1721.1</ele>
        <time>1970-01-01T02:47:33.000Z</time>
      </trkpt>
      <trkpt lat="42.328361" lon="1.929341">
        <ele>1720.6</ele>
        <time>1970-01-01T02:47:34.000Z</time>
      </trkpt>
      <trkpt lat="42.328384" lon="1.929446">
        <ele>1719.9</ele>
        <time>1970-01-01T02:47:35.000Z</time>
      </trkpt>
      <trkpt lat="42.328403" lon="1.929549">
        <ele>1720.2</ele>
        <time>1970-01-01T02:47:36.000Z</time>
      </trkpt>
      <trkpt lat="42.328423" lon="1.929656">
        <ele>1720.2</ele>
        <time>1970-01-01T02:47:37.000Z</time>
      </trkpt>
      <trkpt lat="42.328434" lon="1.92975">
        <ele>1720.5</ele>
        <time>1970-01-01T02:47:38.000Z</time>
      </trkpt>
      <trkpt lat="42.328449" lon="1.929843">
        <ele>1720.3</ele>
        <time>1970-01-01T02:47:39.000Z</time>
      </trkpt>
      <trkpt lat="42.328465" lon="1.929922">
        <ele>1720.5</ele>
        <time>1970-01-01T02:47:40.000Z</time>
      </trkpt>
      <trkpt lat="42.328499" lon="1.929996">
        <ele>1720.4</ele>
        <time>1970-01-01T02:47:41.000Z</time>
      </trkpt>
      <trkpt lat="42.328541" lon="1.930066">
        <ele>1720</ele>
        <time>1970-01-01T02:47:42.000Z</time>
      </trkpt>
      <trkpt lat="42.328583" lon="1.930144">
        <ele>1719.8</ele>
        <time>1970-01-01T02:47:43.000Z</time>
      </trkpt>
      <trkpt lat="42.328621" lon="1.930211">
        <ele>1719.7</ele>
        <time>1970-01-01T02:47:44.000Z</time>
      </trkpt>
      <trkpt lat="42.328663" lon="1.930283">
        <ele>1719.2</ele>
        <time>1970-01-01T02:47:45.000Z</time>
      </trkpt>
      <trkpt lat="42.328701" lon="1.930345">
        <ele>1717.7</ele>
        <time>1970-01-01T02:47:46.000Z</time>
      </trkpt>
      <trkpt lat="42.328747" lon="1.930394">
        <ele>1716.5</ele>
        <time>1970-01-01T02:47:47.000Z</time>
      </trkpt>
      <trkpt lat="42.328789" lon="1.930445">
        <ele>1715.2</ele>
        <time>1970-01-01T02:47:48.000Z</time>
      </trkpt>
      <trkpt lat="42.328835" lon="1.930498">
        <ele>1712.1</ele>
        <time>1970-01-01T02:47:49.000Z</time>
      </trkpt>
      <trkpt lat="42.328873" lon="1.930543">
        <ele>1711.8</ele>
        <time>1970-01-01T02:47:50.000Z</time>
      </trkpt>
      <trkpt lat="42.328911" lon="1.93058">
        <ele>1712.3</ele>
        <time>1970-01-01T02:47:51.000Z</time>
      </trkpt>
      <trkpt lat="42.328953" lon="1.93061">
        <ele>1712.2</ele>
        <time>1970-01-01T02:47:52.000Z</time>
      </trkpt>
      <trkpt lat="42.328999" lon="1.930643">
        <ele>1713.4</ele>
        <time>1970-01-01T02:47:53.000Z</time>
      </trkpt>
      <trkpt lat="42.329041" lon="1.930681">
        <ele>1714.3</ele>
        <time>1970-01-01T02:47:54.000Z</time>
      </trkpt>
      <trkpt lat="42.329079" lon="1.930717">
        <ele>1710.8</ele>
        <time>1970-01-01T02:47:55.000Z</time>
      </trkpt>
      <trkpt lat="42.329121" lon="1.930754">
        <ele>1710.4</ele>
        <time>1970-01-01T02:47:56.000Z</time>
      </trkpt>
      <trkpt lat="42.329178" lon="1.930786">
        <ele>1707.9</ele>
        <time>1970-01-01T02:47:57.000Z</time>
      </trkpt>
      <trkpt lat="42.329231" lon="1.930813">
        <ele>1708</ele>
        <time>1970-01-01T02:47:58.000Z</time>
      </trkpt>
      <trkpt lat="42.329292" lon="1.93084">
        <ele>1705.3</ele>
        <time>1970-01-01T02:47:59.000Z</time>
      </trkpt>
      <trkpt lat="42.329365" lon="1.930875">
        <ele>1706.7</ele>
        <time>1970-01-01T02:48:00.000Z</time>
      </trkpt>
      <trkpt lat="42.329426" lon="1.930912">
        <ele>1709.6</ele>
        <time>1970-01-01T02:48:01.000Z</time>
      </trkpt>
      <trkpt lat="42.329494" lon="1.930956">
        <ele>1711.6</ele>
        <time>1970-01-01T02:48:02.000Z</time>
      </trkpt>
      <trkpt lat="42.329555" lon="1.931005">
        <ele>1711.8</ele>
        <time>1970-01-01T02:48:03.000Z</time>
      </trkpt>
      <trkpt lat="42.329617" lon="1.931065">
        <ele>1711.3</ele>
        <time>1970-01-01T02:48:04.000Z</time>
      </trkpt>
      <trkpt lat="42.329678" lon="1.93113">
        <ele>1711</ele>
        <time>1970-01-01T02:48:05.000Z</time>
      </trkpt>
      <trkpt lat="42.329731" lon="1.931198">
        <ele>1711.1</ele>
        <time>1970-01-01T02:48:06.000Z</time>
      </trkpt>
      <trkpt lat="42.329788" lon="1.931262">
        <ele>1711.5</ele>
        <time>1970-01-01T02:48:07.000Z</time>
      </trkpt>
      <trkpt lat="42.329842" lon="1.931342">
        <ele>1713.3</ele>
        <time>1970-01-01T02:48:08.000Z</time>
      </trkpt>
      <trkpt lat="42.329895" lon="1.931409">
        <ele>1714</ele>
        <time>1970-01-01T02:48:09.000Z</time>
      </trkpt>
      <trkpt lat="42.329948" lon="1.931486">
        <ele>1713.9</ele>
        <time>1970-01-01T02:48:10.000Z</time>
      </trkpt>
      <trkpt lat="42.330017" lon="1.931549">
        <ele>1713.9</ele>
        <time>1970-01-01T02:48:11.000Z</time>
      </trkpt>
      <trkpt lat="42.330082" lon="1.931602">
        <ele>1714</ele>
        <time>1970-01-01T02:48:12.000Z</time>
      </trkpt>
      <trkpt lat="42.330139" lon="1.931641">
        <ele>1714.3</ele>
        <time>1970-01-01T02:48:13.000Z</time>
      </trkpt>
      <trkpt lat="42.330189" lon="1.93163">
        <ele>1714.2</ele>
        <time>1970-01-01T02:48:14.000Z</time>
      </trkpt>
      <trkpt lat="42.330235" lon="1.93161">
        <ele>1713.6</ele>
        <time>1970-01-01T02:48:15.000Z</time>
      </trkpt>
      <trkpt lat="42.33028" lon="1.93159">
        <ele>1713.5</ele>
        <time>1970-01-01T02:48:16.000Z</time>
      </trkpt>
      <trkpt lat="42.330318" lon="1.931578">
        <ele>1713.3</ele>
        <time>1970-01-01T02:48:17.000Z</time>
      </trkpt>
      <trkpt lat="42.33033" lon="1.931567">
        <ele>1713</ele>
        <time>1970-01-01T02:48:18.000Z</time>
      </trkpt>
      <trkpt lat="42.330338" lon="1.931515">
        <ele>1712.6</ele>
        <time>1970-01-01T02:48:19.000Z</time>
      </trkpt>
      <trkpt lat="42.330334" lon="1.93145">
        <ele>1712.4</ele>
        <time>1970-01-01T02:48:20.000Z</time>
      </trkpt>
      <trkpt lat="42.330322" lon="1.931381">
        <ele>1711.6</ele>
        <time>1970-01-01T02:48:21.000Z</time>
      </trkpt>
      <trkpt lat="42.330254" lon="1.931315">
        <ele>1710.4</ele>
        <time>1970-01-01T02:48:22.000Z</time>
      </trkpt>
      <trkpt lat="42.330185" lon="1.931263">
        <ele>1709.6</ele>
        <time>1970-01-01T02:48:23.000Z</time>
      </trkpt>
      <trkpt lat="42.330131" lon="1.931223">
        <ele>1708.2</ele>
        <time>1970-01-01T02:48:24.000Z</time>
      </trkpt>
      <trkpt lat="42.330078" lon="1.931217">
        <ele>1708.3</ele>
        <time>1970-01-01T02:48:25.000Z</time>
      </trkpt>
      <trkpt lat="42.330067" lon="1.931189">
        <ele>1706.4</ele>
        <time>1970-01-01T02:48:26.000Z</time>
      </trkpt>
      <trkpt lat="42.330101" lon="1.931194">
        <ele>1708.3</ele>
        <time>1970-01-01T02:48:27.000Z</time>
      </trkpt>
      <trkpt lat="42.330135" lon="1.931164">
        <ele>1706.5</ele>
        <time>1970-01-01T02:48:28.000Z</time>
      </trkpt>
      <trkpt lat="42.330177" lon="1.931134">
        <ele>1704.7</ele>
        <time>1970-01-01T02:48:29.000Z</time>
      </trkpt>
      <trkpt lat="42.330231" lon="1.931121">
        <ele>1704.7</ele>
        <time>1970-01-01T02:48:30.000Z</time>
      </trkpt>
      <trkpt lat="42.330284" lon="1.93112">
        <ele>1704.5</ele>
        <time>1970-01-01T02:48:31.000Z</time>
      </trkpt>
      <trkpt lat="42.330345" lon="1.931122">
        <ele>1704.4</ele>
        <time>1970-01-01T02:48:32.000Z</time>
      </trkpt>
      <trkpt lat="42.33041" lon="1.931125">
        <ele>1704.3</ele>
        <time>1970-01-01T02:48:33.000Z</time>
      </trkpt>
      <trkpt lat="42.330482" lon="1.931132">
        <ele>1704.1</ele>
        <time>1970-01-01T02:48:34.000Z</time>
      </trkpt>
      <trkpt lat="42.33057" lon="1.931135">
        <ele>1704</ele>
        <time>1970-01-01T02:48:35.000Z</time>
      </trkpt>
      <trkpt lat="42.330662" lon="1.931131">
        <ele>1703.7</ele>
        <time>1970-01-01T02:48:36.000Z</time>
      </trkpt>
      <trkpt lat="42.330753" lon="1.931129">
        <ele>1703.5</ele>
        <time>1970-01-01T02:48:37.000Z</time>
      </trkpt>
      <trkpt lat="42.330841" lon="1.931128">
        <ele>1703.3</ele>
        <time>1970-01-01T02:48:38.000Z</time>
      </trkpt>
      <trkpt lat="42.330925" lon="1.931127">
        <ele>1703.2</ele>
        <time>1970-01-01T02:48:39.000Z</time>
      </trkpt>
      <trkpt lat="42.331013" lon="1.931127">
        <ele>1703</ele>
        <time>1970-01-01T02:48:40.000Z</time>
      </trkpt>
      <trkpt lat="42.331104" lon="1.931127">
        <ele>1702.7</ele>
        <time>1970-01-01T02:48:41.000Z</time>
      </trkpt>
      <trkpt lat="42.331196" lon="1.931131">
        <ele>1702.5</ele>
        <time>1970-01-01T02:48:42.000Z</time>
      </trkpt>
      <trkpt lat="42.331291" lon="1.931142">
        <ele>1702.4</ele>
        <time>1970-01-01T02:48:43.000Z</time>
      </trkpt>
      <trkpt lat="42.331383" lon="1.931158">
        <ele>1702.2</ele>
        <time>1970-01-01T02:48:44.000Z</time>
      </trkpt>
      <trkpt lat="42.331482" lon="1.931179">
        <ele>1702</ele>
        <time>1970-01-01T02:48:45.000Z</time>
      </trkpt>
      <trkpt lat="42.331574" lon="1.931207">
        <ele>1702</ele>
        <time>1970-01-01T02:48:46.000Z</time>
      </trkpt>
      <trkpt lat="42.331665" lon="1.931239">
        <ele>1701.9</ele>
        <time>1970-01-01T02:48:47.000Z</time>
      </trkpt>
      <trkpt lat="42.331757" lon="1.931278">
        <ele>1701.7</ele>
        <time>1970-01-01T02:48:48.000Z</time>
      </trkpt>
      <trkpt lat="42.331856" lon="1.931328">
        <ele>1701.3</ele>
        <time>1970-01-01T02:48:49.000Z</time>
      </trkpt>
      <trkpt lat="42.33194" lon="1.931384">
        <ele>1700.9</ele>
        <time>1970-01-01T02:48:50.000Z</time>
      </trkpt>
      <trkpt lat="42.332012" lon="1.931446">
        <ele>1700.3</ele>
        <time>1970-01-01T02:48:51.000Z</time>
      </trkpt>
      <trkpt lat="42.332077" lon="1.931509">
        <ele>1699.7</ele>
        <time>1970-01-01T02:48:52.000Z</time>
      </trkpt>
      <trkpt lat="42.332127" lon="1.931571">
        <ele>1699.2</ele>
        <time>1970-01-01T02:48:53.000Z</time>
      </trkpt>
      <trkpt lat="42.332176" lon="1.931637">
        <ele>1698.7</ele>
        <time>1970-01-01T02:48:54.000Z</time>
      </trkpt>
      <trkpt lat="42.332211" lon="1.93171">
        <ele>1698.2</ele>
        <time>1970-01-01T02:48:55.000Z</time>
      </trkpt>
      <trkpt lat="42.332249" lon="1.931786">
        <ele>1697.5</ele>
        <time>1970-01-01T02:48:56.000Z</time>
      </trkpt>
      <trkpt lat="42.332291" lon="1.931868">
        <ele>1696.6</ele>
        <time>1970-01-01T02:48:57.000Z</time>
      </trkpt>
      <trkpt lat="42.332325" lon="1.931951">
        <ele>1695.5</ele>
        <time>1970-01-01T02:48:58.000Z</time>
      </trkpt>
      <trkpt lat="42.332367" lon="1.932053">
        <ele>1693.8</ele>
        <time>1970-01-01T02:48:59.000Z</time>
      </trkpt>
      <trkpt lat="42.332401" lon="1.932153">
        <ele>1692.1</ele>
        <time>1970-01-01T02:49:00.000Z</time>
      </trkpt>
      <trkpt lat="42.332428" lon="1.932244">
        <ele>1690.5</ele>
        <time>1970-01-01T02:49:01.000Z</time>
      </trkpt>
      <trkpt lat="42.332462" lon="1.932323">
        <ele>1689.1</ele>
        <time>1970-01-01T02:49:02.000Z</time>
      </trkpt>
      <trkpt lat="42.332489" lon="1.93238">
        <ele>1688.2</ele>
        <time>1970-01-01T02:49:03.000Z</time>
      </trkpt>
      <trkpt lat="42.332523" lon="1.932423">
        <ele>1687.4</ele>
        <time>1970-01-01T02:49:04.000Z</time>
      </trkpt>
      <trkpt lat="42.332561" lon="1.932443">
        <ele>1686.8</ele>
        <time>1970-01-01T02:49:05.000Z</time>
      </trkpt>
      <trkpt lat="42.332607" lon="1.932438">
        <ele>1686.2</ele>
        <time>1970-01-01T02:49:06.000Z</time>
      </trkpt>
      <trkpt lat="42.332661" lon="1.932418">
        <ele>1685.4</ele>
        <time>1970-01-01T02:49:07.000Z</time>
      </trkpt>
      <trkpt lat="42.33271" lon="1.932395">
        <ele>1684.8</ele>
        <time>1970-01-01T02:49:08.000Z</time>
      </trkpt>
      <trkpt lat="42.332745" lon="1.932373">
        <ele>1684.3</ele>
        <time>1970-01-01T02:49:09.000Z</time>
      </trkpt>
      <trkpt lat="42.332771" lon="1.932347">
        <ele>1684</ele>
        <time>1970-01-01T02:49:10.000Z</time>
      </trkpt>
      <trkpt lat="42.332794" lon="1.932312">
        <ele>1683.7</ele>
        <time>1970-01-01T02:49:11.000Z</time>
      </trkpt>
      <trkpt lat="42.332817" lon="1.932272">
        <ele>1683.3</ele>
        <time>1970-01-01T02:49:12.000Z</time>
      </trkpt>
      <trkpt lat="42.33284" lon="1.932236">
        <ele>1683</ele>
        <time>1970-01-01T02:49:13.000Z</time>
      </trkpt>
      <trkpt lat="42.332863" lon="1.932205">
        <ele>1682.7</ele>
        <time>1970-01-01T02:49:14.000Z</time>
      </trkpt>
      <trkpt lat="42.332882" lon="1.932181">
        <ele>1682.5</ele>
        <time>1970-01-01T02:49:15.000Z</time>
      </trkpt>
      <trkpt lat="42.332897" lon="1.932165">
        <ele>1682.6</ele>
        <time>1970-01-01T02:49:16.000Z</time>
      </trkpt>
      <trkpt lat="42.332905" lon="1.932153">
        <ele>1682.6</ele>
        <time>1970-01-01T02:49:17.000Z</time>
      </trkpt>
      <trkpt lat="42.332905" lon="1.932145">
        <ele>1682.6</ele>
        <time>1970-01-01T02:49:18.000Z</time>
      </trkpt>
      <trkpt lat="42.332901" lon="1.93214">
        <ele>1682.7</ele>
        <time>1970-01-01T02:49:19.000Z</time>
      </trkpt>
      <trkpt lat="42.332901" lon="1.932139">
        <ele>1682.7</ele>
        <time>1970-01-01T02:49:20.000Z</time>
      </trkpt>
      <trkpt lat="42.332901" lon="1.932138">
        <ele>1682.7</ele>
        <time>1970-01-01T02:49:21.000Z</time>
      </trkpt>
      <trkpt lat="42.332901" lon="1.932138">
        <ele>1682.7</ele>
        <time>1970-01-01T02:49:22.000Z</time>
      </trkpt>
      <trkpt lat="42.332901" lon="1.932138">
        <ele>1682.7</ele>
        <time>1970-01-01T02:49:23.000Z</time>
      </trkpt>
      <trkpt lat="42.332901" lon="1.932138">
        <ele>1682.7</ele>
        <time>1970-01-01T02:49:24.000Z</time>
      </trkpt>
      <trkpt lat="42.332901" lon="1.932138">
        <ele>1682.7</ele>
        <time>1970-01-01T02:49:25.000Z</time>
      </trkpt>
      <trkpt lat="42.332901" lon="1.932138">
        <ele>1682.7</ele>
        <time>1970-01-01T02:49:26.000Z</time>
      </trkpt>
      <trkpt lat="42.332901" lon="1.932138">
        <ele>1682.7</ele>
        <time>1970-01-01T02:49:27.000Z</time>
      </trkpt>
      <trkpt lat="42.332901" lon="1.932138">
        <ele>1682.7</ele>
        <time>1970-01-01T02:49:28.000Z</time>
      </trkpt>
      <trkpt lat="42.332901" lon="1.932138">
        <ele>1682.7</ele>
        <time>1970-01-01T02:49:29.000Z</time>
      </trkpt>
      <trkpt lat="42.332901" lon="1.932138">
        <ele>1682.7</ele>
        <time>1970-01-01T02:49:30.000Z</time>
      </trkpt>
      <trkpt lat="42.332901" lon="1.932138">
        <ele>1682.7</ele>
        <time>1970-01-01T02:49:31.000Z</time>
      </trkpt>
      <trkpt lat="42.332901" lon="1.932138">
        <ele>1682.7</ele>
        <time>1970-01-01T02:49:32.000Z</time>
      </trkpt>
      <trkpt lat="42.332901" lon="1.932138">
        <ele>1682.7</ele>
        <time>1970-01-01T02:49:33.000Z</time>
      </trkpt>
      <trkpt lat="42.332901" lon="1.932138">
        <ele>1682.7</ele>
        <time>1970-01-01T02:49:34.000Z</time>
      </trkpt>
      <trkpt lat="42.332901" lon="1.932138">
        <ele>1682.7</ele>
        <time>1970-01-01T02:49:35.000Z</time>
      </trkpt>
      <trkpt lat="42.332901" lon="1.932138">
        <ele>1682.7</ele>
        <time>1970-01-01T02:49:36.000Z</time>
      </trkpt>
      <trkpt lat="42.332901" lon="1.932138">
        <ele>1682.7</ele>
        <time>1970-01-01T02:49:37.000Z</time>
      </trkpt>
      <trkpt lat="42.332901" lon="1.932138">
        <ele>1682.7</ele>
        <time>1970-01-01T02:49:38.000Z</time>
      </trkpt>
      <trkpt lat="42.332901" lon="1.932138">
        <ele>1682.7</ele>
        <time>1970-01-01T02:49:39.000Z</time>
      </trkpt>
      <trkpt lat="42.332901" lon="1.932138">
        <ele>1682.7</ele>
        <time>1970-01-01T02:49:40.000Z</time>
      </trkpt>
      <trkpt lat="42.332901" lon="1.932138">
        <ele>1682.7</ele>
        <time>1970-01-01T02:49:41.000Z</time>
      </trkpt>
      <trkpt lat="42.332905" lon="1.932124">
        <ele>1682.7</ele>
        <time>1970-01-01T02:49:42.000Z</time>
      </trkpt>
      <trkpt lat="42.332916" lon="1.932104">
        <ele>1682.8</ele>
        <time>1970-01-01T02:49:43.000Z</time>
      </trkpt>
      <trkpt lat="42.332932" lon="1.932085">
        <ele>1682.8</ele>
        <time>1970-01-01T02:49:44.000Z</time>
      </trkpt>
      <trkpt lat="42.332947" lon="1.932067">
        <ele>1682.9</ele>
        <time>1970-01-01T02:49:45.000Z</time>
      </trkpt>
      <trkpt lat="42.332977" lon="1.932027">
        <ele>1683.1</ele>
        <time>1970-01-01T02:50:11.000Z</time>
      </trkpt>
      <trkpt lat="42.33297" lon="1.932009">
        <ele>1683.1</ele>
        <time>1970-01-01T02:50:12.000Z</time>
      </trkpt>
      <trkpt lat="42.332958" lon="1.932015">
        <ele>1683.2</ele>
        <time>1970-01-01T02:50:13.000Z</time>
      </trkpt>
      <trkpt lat="42.332943" lon="1.932043">
        <ele>1683.3</ele>
        <time>1970-01-01T02:50:14.000Z</time>
      </trkpt>
      <trkpt lat="42.332932" lon="1.932073">
        <ele>1683.4</ele>
        <time>1970-01-01T02:50:15.000Z</time>
      </trkpt>
      <trkpt lat="42.332924" lon="1.932111">
        <ele>1683.5</ele>
        <time>1970-01-01T02:50:16.000Z</time>
      </trkpt>
      <trkpt lat="42.332905" lon="1.932152">
        <ele>1683.6</ele>
        <time>1970-01-01T02:50:17.000Z</time>
      </trkpt>
      <trkpt lat="42.332882" lon="1.932187">
        <ele>1683.7</ele>
        <time>1970-01-01T02:50:18.000Z</time>
      </trkpt>
      <trkpt lat="42.332855" lon="1.932212">
        <ele>1683.8</ele>
        <time>1970-01-01T02:50:19.000Z</time>
      </trkpt>
      <trkpt lat="42.332825" lon="1.932241">
        <ele>1684</ele>
        <time>1970-01-01T02:50:20.000Z</time>
      </trkpt>
      <trkpt lat="42.332798" lon="1.93227">
        <ele>1684.1</ele>
        <time>1970-01-01T02:50:21.000Z</time>
      </trkpt>
      <trkpt lat="42.332771" lon="1.932301">
        <ele>1684.2</ele>
        <time>1970-01-01T02:50:22.000Z</time>
      </trkpt>
      <trkpt lat="42.332741" lon="1.932331">
        <ele>1684.4</ele>
        <time>1970-01-01T02:50:23.000Z</time>
      </trkpt>
      <trkpt lat="42.33271" lon="1.932355">
        <ele>1684.5</ele>
        <time>1970-01-01T02:50:24.000Z</time>
      </trkpt>
      <trkpt lat="42.332684" lon="1.932376">
        <ele>1684.6</ele>
        <time>1970-01-01T02:50:25.000Z</time>
      </trkpt>
      <trkpt lat="42.332653" lon="1.932394">
        <ele>1684.7</ele>
        <time>1970-01-01T02:50:26.000Z</time>
      </trkpt>
      <trkpt lat="42.332619" lon="1.932413">
        <ele>1684.8</ele>
        <time>1970-01-01T02:50:27.000Z</time>
      </trkpt>
      <trkpt lat="42.332584" lon="1.932427">
        <ele>1685</ele>
        <time>1970-01-01T02:50:28.000Z</time>
      </trkpt>
      <trkpt lat="42.332554" lon="1.932439">
        <ele>1685.1</ele>
        <time>1970-01-01T02:50:29.000Z</time>
      </trkpt>
      <trkpt lat="42.332531" lon="1.932447">
        <ele>1685.2</ele>
        <time>1970-01-01T02:50:30.000Z</time>
      </trkpt>
      <trkpt lat="42.332516" lon="1.932458">
        <ele>1685.2</ele>
        <time>1970-01-01T02:50:31.000Z</time>
      </trkpt>
      <trkpt lat="42.332508" lon="1.932479">
        <ele>1685.1</ele>
        <time>1970-01-01T02:50:32.000Z</time>
      </trkpt>
      <trkpt lat="42.332516" lon="1.932508">
        <ele>1685.1</ele>
        <time>1970-01-01T02:50:33.000Z</time>
      </trkpt>
      <trkpt lat="42.332539" lon="1.932545">
        <ele>1684.6</ele>
        <time>1970-01-01T02:50:34.000Z</time>
      </trkpt>
      <trkpt lat="42.332573" lon="1.932588">
        <ele>1684.1</ele>
        <time>1970-01-01T02:50:35.000Z</time>
      </trkpt>
      <trkpt lat="42.332611" lon="1.932634">
        <ele>1683.6</ele>
        <time>1970-01-01T02:50:36.000Z</time>
      </trkpt>
      <trkpt lat="42.332653" lon="1.932681">
        <ele>1683.2</ele>
        <time>1970-01-01T02:50:37.000Z</time>
      </trkpt>
      <trkpt lat="42.332699" lon="1.932735">
        <ele>1682.5</ele>
        <time>1970-01-01T02:50:38.000Z</time>
      </trkpt>
      <trkpt lat="42.332756" lon="1.932788">
        <ele>1682</ele>
        <time>1970-01-01T02:50:39.000Z</time>
      </trkpt>
      <trkpt lat="42.332809" lon="1.932846">
        <ele>1681</ele>
        <time>1970-01-01T02:50:40.000Z</time>
      </trkpt>
      <trkpt lat="42.332863" lon="1.932901">
        <ele>1680</ele>
        <time>1970-01-01T02:50:41.000Z</time>
      </trkpt>
      <trkpt lat="42.332924" lon="1.932967">
        <ele>1679.2</ele>
        <time>1970-01-01T02:50:42.000Z</time>
      </trkpt>
      <trkpt lat="42.332981" lon="1.933031">
        <ele>1678.4</ele>
        <time>1970-01-01T02:50:43.000Z</time>
      </trkpt>
      <trkpt lat="42.333046" lon="1.933104">
        <ele>1677.4</ele>
        <time>1970-01-01T02:50:44.000Z</time>
      </trkpt>
      <trkpt lat="42.333099" lon="1.933177">
        <ele>1676.8</ele>
        <time>1970-01-01T02:50:45.000Z</time>
      </trkpt>
      <trkpt lat="42.333153" lon="1.933264">
        <ele>1675.7</ele>
        <time>1970-01-01T02:50:46.000Z</time>
      </trkpt>
      <trkpt lat="42.333202" lon="1.933361">
        <ele>1674.7</ele>
        <time>1970-01-01T02:50:47.000Z</time>
      </trkpt>
      <trkpt lat="42.333248" lon="1.933467">
        <ele>1673.9</ele>
        <time>1970-01-01T02:50:48.000Z</time>
      </trkpt>
      <trkpt lat="42.33329" lon="1.933573">
        <ele>1673.2</ele>
        <time>1970-01-01T02:50:49.000Z</time>
      </trkpt>
      <trkpt lat="42.333336" lon="1.933686">
        <ele>1671.8</ele>
        <time>1970-01-01T02:50:50.000Z</time>
      </trkpt>
      <trkpt lat="42.333382" lon="1.933795">
        <ele>1671.2</ele>
        <time>1970-01-01T02:50:51.000Z</time>
      </trkpt>
      <trkpt lat="42.333431" lon="1.933896">
        <ele>1670.4</ele>
        <time>1970-01-01T02:50:52.000Z</time>
      </trkpt>
      <trkpt lat="42.333481" lon="1.934003">
        <ele>1670</ele>
        <time>1970-01-01T02:50:53.000Z</time>
      </trkpt>
      <trkpt lat="42.33353" lon="1.93411">
        <ele>1669.2</ele>
        <time>1970-01-01T02:50:54.000Z</time>
      </trkpt>
      <trkpt lat="42.333584" lon="1.934214">
        <ele>1668.4</ele>
        <time>1970-01-01T02:50:55.000Z</time>
      </trkpt>
      <trkpt lat="42.333637" lon="1.934307">
        <ele>1668.1</ele>
        <time>1970-01-01T02:50:56.000Z</time>
      </trkpt>
      <trkpt lat="42.333694" lon="1.934398">
        <ele>1667.5</ele>
        <time>1970-01-01T02:50:57.000Z</time>
      </trkpt>
      <trkpt lat="42.333752" lon="1.93448">
        <ele>1667</ele>
        <time>1970-01-01T02:50:58.000Z</time>
      </trkpt>
      <trkpt lat="42.333813" lon="1.934564">
        <ele>1666.4</ele>
        <time>1970-01-01T02:50:59.000Z</time>
      </trkpt>
      <trkpt lat="42.333866" lon="1.934647">
        <ele>1666.3</ele>
        <time>1970-01-01T02:51:00.000Z</time>
      </trkpt>
      <trkpt lat="42.33392" lon="1.93473">
        <ele>1665.6</ele>
        <time>1970-01-01T02:51:01.000Z</time>
      </trkpt>
      <trkpt lat="42.333977" lon="1.934817">
        <ele>1664.9</ele>
        <time>1970-01-01T02:51:02.000Z</time>
      </trkpt>
      <trkpt lat="42.33403" lon="1.934904">
        <ele>1664.5</ele>
        <time>1970-01-01T02:51:03.000Z</time>
      </trkpt>
      <trkpt lat="42.334084" lon="1.934988">
        <ele>1664.6</ele>
        <time>1970-01-01T02:51:04.000Z</time>
      </trkpt>
      <trkpt lat="42.334133" lon="1.935062">
        <ele>1664.3</ele>
        <time>1970-01-01T02:51:05.000Z</time>
      </trkpt>
      <trkpt lat="42.33419" lon="1.935135">
        <ele>1663.5</ele>
        <time>1970-01-01T02:51:06.000Z</time>
      </trkpt>
      <trkpt lat="42.334244" lon="1.9352">
        <ele>1663.4</ele>
        <time>1970-01-01T02:51:07.000Z</time>
      </trkpt>
      <trkpt lat="42.334297" lon="1.935264">
        <ele>1663</ele>
        <time>1970-01-01T02:51:08.000Z</time>
      </trkpt>
      <trkpt lat="42.334351" lon="1.93533">
        <ele>1662.8</ele>
        <time>1970-01-01T02:51:09.000Z</time>
      </trkpt>
      <trkpt lat="42.334412" lon="1.93539">
        <ele>1662.3</ele>
        <time>1970-01-01T02:51:10.000Z</time>
      </trkpt>
      <trkpt lat="42.334469" lon="1.935448">
        <ele>1662.4</ele>
        <time>1970-01-01T02:51:11.000Z</time>
      </trkpt>
      <trkpt lat="42.33453" lon="1.935504">
        <ele>1664.1</ele>
        <time>1970-01-01T02:51:12.000Z</time>
      </trkpt>
      <trkpt lat="42.334591" lon="1.935561">
        <ele>1665.9</ele>
        <time>1970-01-01T02:51:13.000Z</time>
      </trkpt>
      <trkpt lat="42.334641" lon="1.93562">
        <ele>1666.7</ele>
        <time>1970-01-01T02:51:14.000Z</time>
      </trkpt>
      <trkpt lat="42.334682" lon="1.935676">
        <ele>1666.9</ele>
        <time>1970-01-01T02:51:15.000Z</time>
      </trkpt>
      <trkpt lat="42.334728" lon="1.935747">
        <ele>1667</ele>
        <time>1970-01-01T02:51:16.000Z</time>
      </trkpt>
      <trkpt lat="42.334763" lon="1.935809">
        <ele>1667</ele>
        <time>1970-01-01T02:51:17.000Z</time>
      </trkpt>
      <trkpt lat="42.334797" lon="1.935869">
        <ele>1666.9</ele>
        <time>1970-01-01T02:51:18.000Z</time>
      </trkpt>
      <trkpt lat="42.334831" lon="1.935929">
        <ele>1666.9</ele>
        <time>1970-01-01T02:51:19.000Z</time>
      </trkpt>
      <trkpt lat="42.334866" lon="1.935985">
        <ele>1666.9</ele>
        <time>1970-01-01T02:51:20.000Z</time>
      </trkpt>
      <trkpt lat="42.334892" lon="1.936045">
        <ele>1667</ele>
        <time>1970-01-01T02:51:21.000Z</time>
      </trkpt>
      <trkpt lat="42.334919" lon="1.936109">
        <ele>1667</ele>
        <time>1970-01-01T02:51:22.000Z</time>
      </trkpt>
      <trkpt lat="42.334938" lon="1.936171">
        <ele>1667.1</ele>
        <time>1970-01-01T02:51:23.000Z</time>
      </trkpt>
      <trkpt lat="42.334961" lon="1.936234">
        <ele>1667.2</ele>
        <time>1970-01-01T02:51:24.000Z</time>
      </trkpt>
      <trkpt lat="42.334984" lon="1.9363">
        <ele>1667.2</ele>
        <time>1970-01-01T02:51:25.000Z</time>
      </trkpt>
      <trkpt lat="42.335003" lon="1.936365">
        <ele>1667.3</ele>
        <time>1970-01-01T02:51:26.000Z</time>
      </trkpt>
      <trkpt lat="42.335018" lon="1.936433">
        <ele>1667.4</ele>
        <time>1970-01-01T02:51:27.000Z</time>
      </trkpt>
      <trkpt lat="42.335033" lon="1.936501">
        <ele>1667.5</ele>
        <time>1970-01-01T02:51:28.000Z</time>
      </trkpt>
      <trkpt lat="42.335049" lon="1.936571">
        <ele>1667.6</ele>
        <time>1970-01-01T02:51:29.000Z</time>
      </trkpt>
      <trkpt lat="42.335068" lon="1.936639">
        <ele>1667.7</ele>
        <time>1970-01-01T02:51:30.000Z</time>
      </trkpt>
      <trkpt lat="42.335083" lon="1.936709">
        <ele>1667.8</ele>
        <time>1970-01-01T02:51:31.000Z</time>
      </trkpt>
      <trkpt lat="42.335098" lon="1.936784">
        <ele>1668</ele>
        <time>1970-01-01T02:51:32.000Z</time>
      </trkpt>
      <trkpt lat="42.335114" lon="1.936861">
        <ele>1668.2</ele>
        <time>1970-01-01T02:51:33.000Z</time>
      </trkpt>
      <trkpt lat="42.335114" lon="1.936932">
        <ele>1668.3</ele>
        <time>1970-01-01T02:51:34.000Z</time>
      </trkpt>
      <trkpt lat="42.335114" lon="1.937006">
        <ele>1668.4</ele>
        <time>1970-01-01T02:51:35.000Z</time>
      </trkpt>
      <trkpt lat="42.335114" lon="1.937074">
        <ele>1668.5</ele>
        <time>1970-01-01T02:51:36.000Z</time>
      </trkpt>
      <trkpt lat="42.33511" lon="1.937142">
        <ele>1668.6</ele>
        <time>1970-01-01T02:51:37.000Z</time>
      </trkpt>
      <trkpt lat="42.335106" lon="1.937207">
        <ele>1668.8</ele>
        <time>1970-01-01T02:51:38.000Z</time>
      </trkpt>
      <trkpt lat="42.335106" lon="1.937283">
        <ele>1668.9</ele>
        <time>1970-01-01T02:51:39.000Z</time>
      </trkpt>
      <trkpt lat="42.33511" lon="1.937351">
        <ele>1669</ele>
        <time>1970-01-01T02:51:40.000Z</time>
      </trkpt>
      <trkpt lat="42.335114" lon="1.93742">
        <ele>1669.2</ele>
        <time>1970-01-01T02:51:41.000Z</time>
      </trkpt>
      <trkpt lat="42.335114" lon="1.937494">
        <ele>1669.4</ele>
        <time>1970-01-01T02:51:42.000Z</time>
      </trkpt>
      <trkpt lat="42.335121" lon="1.937564">
        <ele>1669.8</ele>
        <time>1970-01-01T02:51:43.000Z</time>
      </trkpt>
      <trkpt lat="42.335136" lon="1.937634">
        <ele>1670.2</ele>
        <time>1970-01-01T02:51:44.000Z</time>
      </trkpt>
      <trkpt lat="42.335156" lon="1.937696">
        <ele>1670.6</ele>
        <time>1970-01-01T02:51:45.000Z</time>
      </trkpt>
      <trkpt lat="42.335175" lon="1.937748">
        <ele>1670.9</ele>
        <time>1970-01-01T02:51:46.000Z</time>
      </trkpt>
      <trkpt lat="42.335194" lon="1.937786">
        <ele>1671.2</ele>
        <time>1970-01-01T02:51:47.000Z</time>
      </trkpt>
      <trkpt lat="42.335209" lon="1.937804">
        <ele>1671.4</ele>
        <time>1970-01-01T02:51:48.000Z</time>
      </trkpt>
      <trkpt lat="42.335217" lon="1.937815">
        <ele>1671.5</ele>
        <time>1970-01-01T02:51:49.000Z</time>
      </trkpt>
      <trkpt lat="42.335218" lon="1.937818">
        <ele>1671.5</ele>
        <time>1970-01-01T02:51:50.000Z</time>
      </trkpt>
      <trkpt lat="42.335218" lon="1.937821">
        <ele>1671.5</ele>
        <time>1970-01-01T02:51:51.000Z</time>
      </trkpt>
      <trkpt lat="42.335218" lon="1.937824">
        <ele>1671.6</ele>
        <time>1970-01-01T02:51:52.000Z</time>
      </trkpt>
      <trkpt lat="42.335218" lon="1.937827">
        <ele>1671.6</ele>
        <time>1970-01-01T02:51:53.000Z</time>
      </trkpt>
      <trkpt lat="42.335219" lon="1.93783">
        <ele>1671.6</ele>
        <time>1970-01-01T02:51:54.000Z</time>
      </trkpt>
      <trkpt lat="42.335219" lon="1.937833">
        <ele>1671.6</ele>
        <time>1970-01-01T02:51:55.000Z</time>
      </trkpt>
      <trkpt lat="42.335219" lon="1.937836">
        <ele>1671.6</ele>
        <time>1970-01-01T02:51:56.000Z</time>
      </trkpt>
      <trkpt lat="42.33522" lon="1.937839">
        <ele>1671.7</ele>
        <time>1970-01-01T02:51:57.000Z</time>
      </trkpt>
      <trkpt lat="42.33522" lon="1.937842">
        <ele>1671.7</ele>
        <time>1970-01-01T02:51:58.000Z</time>
      </trkpt>
      <trkpt lat="42.33522" lon="1.937845">
        <ele>1671.7</ele>
        <time>1970-01-01T02:51:59.000Z</time>
      </trkpt>
      <trkpt lat="42.335221" lon="1.937848">
        <ele>1671.7</ele>
        <time>1970-01-01T02:52:00.000Z</time>
      </trkpt>
      <trkpt lat="42.335221" lon="1.937852">
        <ele>1671.8</ele>
        <time>1970-01-01T02:52:01.000Z</time>
      </trkpt>
      <trkpt lat="42.335221" lon="1.937855">
        <ele>1671.8</ele>
        <time>1970-01-01T02:52:02.000Z</time>
      </trkpt>
      <trkpt lat="42.335221" lon="1.937858">
        <ele>1671.8</ele>
        <time>1970-01-01T02:52:03.000Z</time>
      </trkpt>
      <trkpt lat="42.335222" lon="1.937861">
        <ele>1671.8</ele>
        <time>1970-01-01T02:52:04.000Z</time>
      </trkpt>
      <trkpt lat="42.335222" lon="1.937864">
        <ele>1671.8</ele>
        <time>1970-01-01T02:52:05.000Z</time>
      </trkpt>
      <trkpt lat="42.335222" lon="1.937867">
        <ele>1671.8</ele>
        <time>1970-01-01T02:52:06.000Z</time>
      </trkpt>
      <trkpt lat="42.335223" lon="1.93787">
        <ele>1671.8</ele>
        <time>1970-01-01T02:52:07.000Z</time>
      </trkpt>
      <trkpt lat="42.335223" lon="1.937873">
        <ele>1671.8</ele>
        <time>1970-01-01T02:52:08.000Z</time>
      </trkpt>
      <trkpt lat="42.335223" lon="1.937876">
        <ele>1671.8</ele>
        <time>1970-01-01T02:52:09.000Z</time>
      </trkpt>
      <trkpt lat="42.335223" lon="1.937879">
        <ele>1671.8</ele>
        <time>1970-01-01T02:52:10.000Z</time>
      </trkpt>
      <trkpt lat="42.335224" lon="1.937882">
        <ele>1671.8</ele>
        <time>1970-01-01T02:52:11.000Z</time>
      </trkpt>
      <trkpt lat="42.335224" lon="1.937885">
        <ele>1671.5</ele>
        <time>1970-01-01T02:52:12.000Z</time>
      </trkpt>
      <trkpt lat="42.335243" lon="1.937914">
        <ele>1671.3</ele>
        <time>1970-01-01T02:52:13.000Z</time>
      </trkpt>
      <trkpt lat="42.335266" lon="1.937941">
        <ele>1671.1</ele>
        <time>1970-01-01T02:52:14.000Z</time>
      </trkpt>
      <trkpt lat="42.335297" lon="1.937961">
        <ele>1670.9</ele>
        <time>1970-01-01T02:52:15.000Z</time>
      </trkpt>
      <trkpt lat="42.335331" lon="1.937982">
        <ele>1670.6</ele>
        <time>1970-01-01T02:52:16.000Z</time>
      </trkpt>
      <trkpt lat="42.335377" lon="1.938002">
        <ele>1670.3</ele>
        <time>1970-01-01T02:52:17.000Z</time>
      </trkpt>
      <trkpt lat="42.33543" lon="1.938021">
        <ele>1669.8</ele>
        <time>1970-01-01T02:52:18.000Z</time>
      </trkpt>
      <trkpt lat="42.335491" lon="1.938031">
        <ele>1668.8</ele>
        <time>1970-01-01T02:52:19.000Z</time>
      </trkpt>
      <trkpt lat="42.335556" lon="1.938019">
        <ele>1666.7</ele>
        <time>1970-01-01T02:52:20.000Z</time>
      </trkpt>
      <trkpt lat="42.335617" lon="1.937979">
        <ele>1664.6</ele>
        <time>1970-01-01T02:52:21.000Z</time>
      </trkpt>
      <trkpt lat="42.335663" lon="1.937911">
        <ele>1663.3</ele>
        <time>1970-01-01T02:52:22.000Z</time>
      </trkpt>
      <trkpt lat="42.335709" lon="1.937821">
        <ele>1662.8</ele>
        <time>1970-01-01T02:52:23.000Z</time>
      </trkpt>
      <trkpt lat="42.335758" lon="1.93773">
        <ele>1662.2</ele>
        <time>1970-01-01T02:52:24.000Z</time>
      </trkpt>
      <trkpt lat="42.3358" lon="1.937639">
        <ele>1661.7</ele>
        <time>1970-01-01T02:52:25.000Z</time>
      </trkpt>
      <trkpt lat="42.335854" lon="1.937544">
        <ele>1661.2</ele>
        <time>1970-01-01T02:52:26.000Z</time>
      </trkpt>
      <trkpt lat="42.335907" lon="1.937453">
        <ele>1660.6</ele>
        <time>1970-01-01T02:52:27.000Z</time>
      </trkpt>
      <trkpt lat="42.335964" lon="1.937368">
        <ele>1660.1</ele>
        <time>1970-01-01T02:52:28.000Z</time>
      </trkpt>
      <trkpt lat="42.336029" lon="1.93729">
        <ele>1659.6</ele>
        <time>1970-01-01T02:52:29.000Z</time>
      </trkpt>
      <trkpt lat="42.336094" lon="1.937216">
        <ele>1659.4</ele>
        <time>1970-01-01T02:52:30.000Z</time>
      </trkpt>
      <trkpt lat="42.336166" lon="1.937145">
        <ele>1659.1</ele>
        <time>1970-01-01T02:52:31.000Z</time>
      </trkpt>
      <trkpt lat="42.336231" lon="1.937085">
        <ele>1658.7</ele>
        <time>1970-01-01T02:52:32.000Z</time>
      </trkpt>
      <trkpt lat="42.336308" lon="1.937014">
        <ele>1658.1</ele>
        <time>1970-01-01T02:52:33.000Z</time>
      </trkpt>
      <trkpt lat="42.336384" lon="1.936947">
        <ele>1657.6</ele>
        <time>1970-01-01T02:52:34.000Z</time>
      </trkpt>
      <trkpt lat="42.336449" lon="1.936883">
        <ele>1657.1</ele>
        <time>1970-01-01T02:52:35.000Z</time>
      </trkpt>
      <trkpt lat="42.336521" lon="1.936805">
        <ele>1656.6</ele>
        <time>1970-01-01T02:52:36.000Z</time>
      </trkpt>
      <trkpt lat="42.336586" lon="1.936722">
        <ele>1656.2</ele>
        <time>1970-01-01T02:52:37.000Z</time>
      </trkpt>
      <trkpt lat="42.336639" lon="1.936638">
        <ele>1655.8</ele>
        <time>1970-01-01T02:52:38.000Z</time>
      </trkpt>
      <trkpt lat="42.336689" lon="1.936554">
        <ele>1655.5</ele>
        <time>1970-01-01T02:52:39.000Z</time>
      </trkpt>
      <trkpt lat="42.336746" lon="1.936451">
        <ele>1655</ele>
        <time>1970-01-01T02:52:40.000Z</time>
      </trkpt>
      <trkpt lat="42.336796" lon="1.936355">
        <ele>1654.5</ele>
        <time>1970-01-01T02:52:41.000Z</time>
      </trkpt>
      <trkpt lat="42.336842" lon="1.93626">
        <ele>1654.1</ele>
        <time>1970-01-01T02:52:42.000Z</time>
      </trkpt>
      <trkpt lat="42.336891" lon="1.936163">
        <ele>1653.7</ele>
        <time>1970-01-01T02:52:43.000Z</time>
      </trkpt>
      <trkpt lat="42.336937" lon="1.936068">
        <ele>1653.3</ele>
        <time>1970-01-01T02:52:44.000Z</time>
      </trkpt>
      <trkpt lat="42.336987" lon="1.935971">
        <ele>1652.8</ele>
        <time>1970-01-01T02:52:45.000Z</time>
      </trkpt>
      <trkpt lat="42.337032" lon="1.935876">
        <ele>1652.3</ele>
        <time>1970-01-01T02:52:46.000Z</time>
      </trkpt>
      <trkpt lat="42.337082" lon="1.93578">
        <ele>1651.7</ele>
        <time>1970-01-01T02:52:47.000Z</time>
      </trkpt>
      <trkpt lat="42.337131" lon="1.935687">
        <ele>1651.2</ele>
        <time>1970-01-01T02:52:48.000Z</time>
      </trkpt>
      <trkpt lat="42.337181" lon="1.935595">
        <ele>1650.6</ele>
        <time>1970-01-01T02:52:49.000Z</time>
      </trkpt>
      <trkpt lat="42.337231" lon="1.935496">
        <ele>1649.9</ele>
        <time>1970-01-01T02:52:50.000Z</time>
      </trkpt>
      <trkpt lat="42.337288" lon="1.935396">
        <ele>1649.2</ele>
        <time>1970-01-01T02:52:51.000Z</time>
      </trkpt>
      <trkpt lat="42.337357" lon="1.935299">
        <ele>1648.4</ele>
        <time>1970-01-01T02:52:52.000Z</time>
      </trkpt>
      <trkpt lat="42.337429" lon="1.935211">
        <ele>1647.7</ele>
        <time>1970-01-01T02:52:53.000Z</time>
      </trkpt>
      <trkpt lat="42.337505" lon="1.935134">
        <ele>1647.4</ele>
        <time>1970-01-01T02:52:54.000Z</time>
      </trkpt>
      <trkpt lat="42.337585" lon="1.935061">
        <ele>1646.9</ele>
        <time>1970-01-01T02:52:55.000Z</time>
      </trkpt>
      <trkpt lat="42.337673" lon="1.934995">
        <ele>1646.1</ele>
        <time>1970-01-01T02:52:56.000Z</time>
      </trkpt>
      <trkpt lat="42.337765" lon="1.934932">
        <ele>1645.2</ele>
        <time>1970-01-01T02:52:57.000Z</time>
      </trkpt>
      <trkpt lat="42.337852" lon="1.934871">
        <ele>1644.4</ele>
        <time>1970-01-01T02:52:58.000Z</time>
      </trkpt>
    </trkseg>
  </trk>
</gpx>
